<?xml version="1.0" encoding="UTF-8" standalone="no" ?>
<gpx xmlns="http://www.topografix.com/GPX/1/1" xmlns:xsi="http://www.w3.org/2001/XMLSchema-instance" xsi:schemaLocation="http://www.topografix.com/GPX/1/1 http://www.topografix.com/GPX/1/1/gpx.xsd" version="1.1" creator="VisuGPX - https://www.visugpx.com">
  <metadata>
    <name>Wk Juillet TRAIL - Tanguy</name>
  </metadata>
  <trk>
    <name><![CDATA[Samedi journée ]]></name>
    <extensions>
      <line xmlns="http://www.topografix.com/GPX/gpx_style/0/2">
        <color>FF0000</color>
        <width>4</width>
      </line>
    </extensions>
    <trkseg>
      <trkpt lat="43.91378" lon="6.2277">
        <ele>1205.878</ele>
        <time>2019-06-21T11:40:20Z</time>
      </trkpt>
      <trkpt lat="43.91378" lon="6.2277">
        <ele>1205.878</ele>
        <time>2019-06-21T11:40:20Z</time>
      </trkpt>
      <trkpt lat="43.91378" lon="6.2277">
        <ele>1205.878</ele>
        <time>2019-06-21T11:40:20Z</time>
      </trkpt>
      <trkpt lat="43.91378" lon="6.2277">
        <ele>1205.878</ele>
        <time>2019-06-21T11:40:20Z</time>
      </trkpt>
      <trkpt lat="43.91378" lon="6.2277">
        <ele>1205.878</ele>
        <time>2019-06-21T11:40:20Z</time>
      </trkpt>
      <trkpt lat="43.91385" lon="6.22764">
        <ele>1205.884</ele>
        <time>2019-06-21T11:40:21Z</time>
      </trkpt>
      <trkpt lat="43.9139" lon="6.22761">
        <ele>1208.899</ele>
        <time>2019-06-21T11:40:22Z</time>
      </trkpt>
      <trkpt lat="43.91395" lon="6.22763">
        <ele>1208.85</ele>
        <time>2019-06-21T11:40:23Z</time>
      </trkpt>
      <trkpt lat="43.91401" lon="6.22766">
        <ele>1208.854</ele>
        <time>2019-06-21T11:40:24Z</time>
      </trkpt>
      <trkpt lat="43.91405" lon="6.22772">
        <ele>1208.856</ele>
        <time>2019-06-21T11:40:25Z</time>
      </trkpt>
      <trkpt lat="43.91409" lon="6.2278">
        <ele>1208.859</ele>
        <time>2019-06-21T11:40:26Z</time>
      </trkpt>
      <trkpt lat="43.9141" lon="6.22789">
        <ele>1208.814</ele>
        <time>2019-06-21T11:40:27Z</time>
      </trkpt>
      <trkpt lat="43.91409" lon="6.228">
        <ele>1212.408</ele>
        <time>2019-06-21T11:40:28Z</time>
      </trkpt>
      <trkpt lat="43.91408" lon="6.22809">
        <ele>1212.468</ele>
        <time>2019-06-21T11:40:29Z</time>
      </trkpt>
      <trkpt lat="43.91406" lon="6.22817">
        <ele>1212.452</ele>
        <time>2019-06-21T11:40:30Z</time>
      </trkpt>
      <trkpt lat="43.91405" lon="6.22827">
        <ele>1212.423</ele>
        <time>2019-06-21T11:40:31Z</time>
      </trkpt>
      <trkpt lat="43.91405" lon="6.22837">
        <ele>1212.43</ele>
        <time>2019-06-21T11:40:32Z</time>
      </trkpt>
      <trkpt lat="43.91405" lon="6.22848">
        <ele>1212.426</ele>
        <time>2019-06-21T11:40:33Z</time>
      </trkpt>
      <trkpt lat="43.91405" lon="6.22858">
        <ele>1215.171</ele>
        <time>2019-06-21T11:40:34Z</time>
      </trkpt>
      <trkpt lat="43.91405" lon="6.22867">
        <ele>1215.182</ele>
        <time>2019-06-21T11:40:35Z</time>
      </trkpt>
      <trkpt lat="43.91407" lon="6.22877">
        <ele>1215.136</ele>
        <time>2019-06-21T11:40:36Z</time>
      </trkpt>
      <trkpt lat="43.91408" lon="6.22886">
        <ele>1215.179</ele>
        <time>2019-06-21T11:40:37Z</time>
      </trkpt>
      <trkpt lat="43.91409" lon="6.22896">
        <ele>1215.105</ele>
        <time>2019-06-21T11:40:38Z</time>
      </trkpt>
      <trkpt lat="43.91409" lon="6.22905">
        <ele>1218.525</ele>
        <time>2019-06-21T11:40:39Z</time>
      </trkpt>
      <trkpt lat="43.91411" lon="6.22914">
        <ele>1218.508</ele>
        <time>2019-06-21T11:40:40Z</time>
      </trkpt>
      <trkpt lat="43.91413" lon="6.22923">
        <ele>1218.54</ele>
        <time>2019-06-21T11:40:41Z</time>
      </trkpt>
      <trkpt lat="43.91417" lon="6.22932">
        <ele>1218.514</ele>
        <time>2019-06-21T11:40:42Z</time>
      </trkpt>
      <trkpt lat="43.9142" lon="6.22941">
        <ele>1218.595</ele>
        <time>2019-06-21T11:40:43Z</time>
      </trkpt>
      <trkpt lat="43.91423" lon="6.2295">
        <ele>1222.332</ele>
        <time>2019-06-21T11:40:44Z</time>
      </trkpt>
      <trkpt lat="43.91426" lon="6.2296">
        <ele>1222.358</ele>
        <time>2019-06-21T11:40:45Z</time>
      </trkpt>
      <trkpt lat="43.91429" lon="6.2297">
        <ele>1222.323</ele>
        <time>2019-06-21T11:40:46Z</time>
      </trkpt>
      <trkpt lat="43.91435" lon="6.22977">
        <ele>1222.314</ele>
        <time>2019-06-21T11:40:47Z</time>
      </trkpt>
      <trkpt lat="43.91442" lon="6.22983">
        <ele>1222.338</ele>
        <time>2019-06-21T11:40:48Z</time>
      </trkpt>
      <trkpt lat="43.91451" lon="6.22987">
        <ele>1222.366</ele>
        <time>2019-06-21T11:40:49Z</time>
      </trkpt>
      <trkpt lat="43.91458" lon="6.22991">
        <ele>1222.829</ele>
        <time>2019-06-21T11:40:50Z</time>
      </trkpt>
      <trkpt lat="43.91466" lon="6.22994">
        <ele>1222.821</ele>
        <time>2019-06-21T11:40:51Z</time>
      </trkpt>
      <trkpt lat="43.91475" lon="6.22995">
        <ele>1222.808</ele>
        <time>2019-06-21T11:40:52Z</time>
      </trkpt>
      <trkpt lat="43.91482" lon="6.22997">
        <ele>1222.819</ele>
        <time>2019-06-21T11:40:53Z</time>
      </trkpt>
      <trkpt lat="43.91491" lon="6.22998">
        <ele>1222.893</ele>
        <time>2019-06-21T11:40:54Z</time>
      </trkpt>
      <trkpt lat="43.91499" lon="6.23">
        <ele>1222.894</ele>
        <time>2019-06-21T11:40:55Z</time>
      </trkpt>
      <trkpt lat="43.91506" lon="6.23003">
        <ele>1225.171</ele>
        <time>2019-06-21T11:40:56Z</time>
      </trkpt>
      <trkpt lat="43.91514" lon="6.23005">
        <ele>1225.127</ele>
        <time>2019-06-21T11:40:57Z</time>
      </trkpt>
      <trkpt lat="43.91522" lon="6.23007">
        <ele>1225.112</ele>
        <time>2019-06-21T11:40:58Z</time>
      </trkpt>
      <trkpt lat="43.9153" lon="6.23007">
        <ele>1225.113</ele>
        <time>2019-06-21T11:40:59Z</time>
      </trkpt>
      <trkpt lat="43.91539" lon="6.23007">
        <ele>1227.297</ele>
        <time>2019-06-21T11:41:00Z</time>
      </trkpt>
      <trkpt lat="43.91547" lon="6.23007">
        <ele>1227.279</ele>
        <time>2019-06-21T11:41:01Z</time>
      </trkpt>
      <trkpt lat="43.91554" lon="6.23007">
        <ele>1227.205</ele>
        <time>2019-06-21T11:41:02Z</time>
      </trkpt>
      <trkpt lat="43.91563" lon="6.23006">
        <ele>1227.225</ele>
        <time>2019-06-21T11:41:03Z</time>
      </trkpt>
      <trkpt lat="43.91571" lon="6.23007">
        <ele>1229.308</ele>
        <time>2019-06-21T11:41:04Z</time>
      </trkpt>
      <trkpt lat="43.9158" lon="6.23009">
        <ele>1229.35</ele>
        <time>2019-06-21T11:41:05Z</time>
      </trkpt>
      <trkpt lat="43.91588" lon="6.2301">
        <ele>1229.394</ele>
        <time>2019-06-21T11:41:06Z</time>
      </trkpt>
      <trkpt lat="43.91597" lon="6.23011">
        <ele>1229.365</ele>
        <time>2019-06-21T11:41:07Z</time>
      </trkpt>
      <trkpt lat="43.91604" lon="6.23012">
        <ele>1229.382</ele>
        <time>2019-06-21T11:41:08Z</time>
      </trkpt>
      <trkpt lat="43.91612" lon="6.23013">
        <ele>1232.468</ele>
        <time>2019-06-21T11:41:09Z</time>
      </trkpt>
      <trkpt lat="43.91619" lon="6.23014">
        <ele>1232.453</ele>
        <time>2019-06-21T11:41:10Z</time>
      </trkpt>
      <trkpt lat="43.91627" lon="6.23015">
        <ele>1232.494</ele>
        <time>2019-06-21T11:41:11Z</time>
      </trkpt>
      <trkpt lat="43.91636" lon="6.23017">
        <ele>1232.498</ele>
        <time>2019-06-21T11:41:12Z</time>
      </trkpt>
      <trkpt lat="43.91644" lon="6.23019">
        <ele>1232.431</ele>
        <time>2019-06-21T11:41:13Z</time>
      </trkpt>
      <trkpt lat="43.91652" lon="6.23023">
        <ele>1235.861</ele>
        <time>2019-06-21T11:41:14Z</time>
      </trkpt>
      <trkpt lat="43.9166" lon="6.23026">
        <ele>1235.807</ele>
        <time>2019-06-21T11:41:15Z</time>
      </trkpt>
      <trkpt lat="43.91669" lon="6.23028">
        <ele>1235.808</ele>
        <time>2019-06-21T11:41:16Z</time>
      </trkpt>
      <trkpt lat="43.91678" lon="6.23029">
        <ele>1235.866</ele>
        <time>2019-06-21T11:41:17Z</time>
      </trkpt>
      <trkpt lat="43.91687" lon="6.23031">
        <ele>1235.83</ele>
        <time>2019-06-21T11:41:18Z</time>
      </trkpt>
      <trkpt lat="43.91693" lon="6.23031">
        <ele>1235.831</ele>
        <time>2019-06-21T11:41:19Z</time>
      </trkpt>
      <trkpt lat="43.91701" lon="6.23029">
        <ele>1239.268</ele>
        <time>2019-06-21T11:41:20Z</time>
      </trkpt>
      <trkpt lat="43.91709" lon="6.23027">
        <ele>1239.274</ele>
        <time>2019-06-21T11:41:21Z</time>
      </trkpt>
      <trkpt lat="43.91717" lon="6.23025">
        <ele>1239.259</ele>
        <time>2019-06-21T11:41:22Z</time>
      </trkpt>
      <trkpt lat="43.91725" lon="6.23024">
        <ele>1239.22</ele>
        <time>2019-06-21T11:41:23Z</time>
      </trkpt>
      <trkpt lat="43.91733" lon="6.23022">
        <ele>1242.224</ele>
        <time>2019-06-21T11:41:24Z</time>
      </trkpt>
      <trkpt lat="43.91741" lon="6.2302">
        <ele>1242.227</ele>
        <time>2019-06-21T11:41:25Z</time>
      </trkpt>
      <trkpt lat="43.91749" lon="6.23018">
        <ele>1242.268</ele>
        <time>2019-06-21T11:41:26Z</time>
      </trkpt>
      <trkpt lat="43.91757" lon="6.23014">
        <ele>1242.214</ele>
        <time>2019-06-21T11:41:27Z</time>
      </trkpt>
      <trkpt lat="43.91766" lon="6.23013">
        <ele>1242.208</ele>
        <time>2019-06-21T11:41:28Z</time>
      </trkpt>
      <trkpt lat="43.91775" lon="6.23014">
        <ele>1245.075</ele>
        <time>2019-06-21T11:41:29Z</time>
      </trkpt>
      <trkpt lat="43.91784" lon="6.23012">
        <ele>1245.079</ele>
        <time>2019-06-21T11:41:30Z</time>
      </trkpt>
      <trkpt lat="43.91793" lon="6.2301">
        <ele>1245.09</ele>
        <time>2019-06-21T11:41:31Z</time>
      </trkpt>
      <trkpt lat="43.91801" lon="6.23009">
        <ele>1245.047</ele>
        <time>2019-06-21T11:41:32Z</time>
      </trkpt>
      <trkpt lat="43.91809" lon="6.23005">
        <ele>1245.073</ele>
        <time>2019-06-21T11:41:33Z</time>
      </trkpt>
      <trkpt lat="43.91817" lon="6.23001">
        <ele>1245.078</ele>
        <time>2019-06-21T11:41:34Z</time>
      </trkpt>
      <trkpt lat="43.91823" lon="6.22999">
        <ele>1245.019</ele>
        <time>2019-06-21T11:41:35Z</time>
      </trkpt>
      <trkpt lat="43.91829" lon="6.22993">
        <ele>1248.753</ele>
        <time>2019-06-21T11:41:36Z</time>
      </trkpt>
      <trkpt lat="43.91836" lon="6.22987">
        <ele>1248.745</ele>
        <time>2019-06-21T11:41:37Z</time>
      </trkpt>
      <trkpt lat="43.91842" lon="6.2298">
        <ele>1248.747</ele>
        <time>2019-06-21T11:41:38Z</time>
      </trkpt>
      <trkpt lat="43.91849" lon="6.22974">
        <ele>1248.711</ele>
        <time>2019-06-21T11:41:39Z</time>
      </trkpt>
      <trkpt lat="43.91856" lon="6.22967">
        <ele>1248.708</ele>
        <time>2019-06-21T11:41:40Z</time>
      </trkpt>
      <trkpt lat="43.91863" lon="6.22961">
        <ele>1248.777</ele>
        <time>2019-06-21T11:41:41Z</time>
      </trkpt>
      <trkpt lat="43.91872" lon="6.22957">
        <ele>1248.791</ele>
        <time>2019-06-21T11:41:42Z</time>
      </trkpt>
      <trkpt lat="43.91879" lon="6.22954">
        <ele>1248.792</ele>
        <time>2019-06-21T11:41:43Z</time>
      </trkpt>
      <trkpt lat="43.91885" lon="6.22952">
        <ele>1254.089</ele>
        <time>2019-06-21T11:41:44Z</time>
      </trkpt>
      <trkpt lat="43.9189" lon="6.22953">
        <ele>1254.045</ele>
        <time>2019-06-21T11:41:45Z</time>
      </trkpt>
      <trkpt lat="43.91898" lon="6.22957">
        <ele>1254.04</ele>
        <time>2019-06-21T11:41:47Z</time>
      </trkpt>
      <trkpt lat="43.919" lon="6.2297">
        <ele>1254.061</ele>
        <time>2019-06-21T11:41:49Z</time>
      </trkpt>
      <trkpt lat="43.91899" lon="6.22978">
        <ele>1254.065</ele>
        <time>2019-06-21T11:41:50Z</time>
      </trkpt>
      <trkpt lat="43.91894" lon="6.22984">
        <ele>1256.875</ele>
        <time>2019-06-21T11:41:51Z</time>
      </trkpt>
      <trkpt lat="43.91888" lon="6.22987">
        <ele>1256.828</ele>
        <time>2019-06-21T11:41:52Z</time>
      </trkpt>
      <trkpt lat="43.91883" lon="6.22992">
        <ele>1256.82</ele>
        <time>2019-06-21T11:41:53Z</time>
      </trkpt>
      <trkpt lat="43.91876" lon="6.22995">
        <ele>1256.808</ele>
        <time>2019-06-21T11:41:54Z</time>
      </trkpt>
      <trkpt lat="43.91868" lon="6.23">
        <ele>1256.84</ele>
        <time>2019-06-21T11:41:55Z</time>
      </trkpt>
      <trkpt lat="43.91861" lon="6.23007">
        <ele>1256.894</ele>
        <time>2019-06-21T11:41:56Z</time>
      </trkpt>
      <trkpt lat="43.91852" lon="6.23016">
        <ele>1256.815</ele>
        <time>2019-06-21T11:41:57Z</time>
      </trkpt>
      <trkpt lat="43.91845" lon="6.23024">
        <ele>1256.852</ele>
        <time>2019-06-21T11:41:58Z</time>
      </trkpt>
      <trkpt lat="43.91837" lon="6.23033">
        <ele>1256.858</ele>
        <time>2019-06-21T11:41:59Z</time>
      </trkpt>
      <trkpt lat="43.91829" lon="6.23041">
        <ele>1256.843</ele>
        <time>2019-06-21T11:42:00Z</time>
      </trkpt>
      <trkpt lat="43.91822" lon="6.23046">
        <ele>1259.844</ele>
        <time>2019-06-21T11:42:01Z</time>
      </trkpt>
      <trkpt lat="43.91815" lon="6.23051">
        <ele>1259.818</ele>
        <time>2019-06-21T11:42:02Z</time>
      </trkpt>
      <trkpt lat="43.91807" lon="6.23054">
        <ele>1259.878</ele>
        <time>2019-06-21T11:42:03Z</time>
      </trkpt>
      <trkpt lat="43.918" lon="6.23055">
        <ele>1259.833</ele>
        <time>2019-06-21T11:42:04Z</time>
      </trkpt>
      <trkpt lat="43.91793" lon="6.23057">
        <ele>1259.826</ele>
        <time>2019-06-21T11:42:05Z</time>
      </trkpt>
      <trkpt lat="43.91786" lon="6.2306">
        <ele>1259.808</ele>
        <time>2019-06-21T11:42:06Z</time>
      </trkpt>
      <trkpt lat="43.91778" lon="6.23064">
        <ele>1259.83</ele>
        <time>2019-06-21T11:42:07Z</time>
      </trkpt>
      <trkpt lat="43.91771" lon="6.23068">
        <ele>1259.894</ele>
        <time>2019-06-21T11:42:08Z</time>
      </trkpt>
      <trkpt lat="43.91764" lon="6.23072">
        <ele>1259.815</ele>
        <time>2019-06-21T11:42:09Z</time>
      </trkpt>
      <trkpt lat="43.91757" lon="6.2308">
        <ele>1262.852</ele>
        <time>2019-06-21T11:42:10Z</time>
      </trkpt>
      <trkpt lat="43.9175" lon="6.23085">
        <ele>1262.818</ele>
        <time>2019-06-21T11:42:11Z</time>
      </trkpt>
      <trkpt lat="43.91743" lon="6.23089">
        <ele>1262.893</ele>
        <time>2019-06-21T11:42:12Z</time>
      </trkpt>
      <trkpt lat="43.91736" lon="6.23093">
        <ele>1262.884</ele>
        <time>2019-06-21T11:42:13Z</time>
      </trkpt>
      <trkpt lat="43.91729" lon="6.23098">
        <ele>1262.818</ele>
        <time>2019-06-21T11:42:14Z</time>
      </trkpt>
      <trkpt lat="43.91721" lon="6.23102">
        <ele>1262.878</ele>
        <time>2019-06-21T11:42:15Z</time>
      </trkpt>
      <trkpt lat="43.91714" lon="6.23107">
        <ele>1262.833</ele>
        <time>2019-06-21T11:42:16Z</time>
      </trkpt>
      <trkpt lat="43.91708" lon="6.2311">
        <ele>1262.826</ele>
        <time>2019-06-21T11:42:17Z</time>
      </trkpt>
      <trkpt lat="43.91701" lon="6.23113">
        <ele>1262.808</ele>
        <time>2019-06-21T11:42:18Z</time>
      </trkpt>
      <trkpt lat="43.91692" lon="6.23116">
        <ele>1262.89</ele>
        <time>2019-06-21T11:42:19Z</time>
      </trkpt>
      <trkpt lat="43.91686" lon="6.23117">
        <ele>1267.474</ele>
        <time>2019-06-21T11:42:20Z</time>
      </trkpt>
      <trkpt lat="43.91678" lon="6.23118">
        <ele>1267.455</ele>
        <time>2019-06-21T11:42:21Z</time>
      </trkpt>
      <trkpt lat="43.9167" lon="6.23119">
        <ele>1267.472</ele>
        <time>2019-06-21T11:42:22Z</time>
      </trkpt>
      <trkpt lat="43.91661" lon="6.2312">
        <ele>1267.498</ele>
        <time>2019-06-21T11:42:23Z</time>
      </trkpt>
      <trkpt lat="43.91654" lon="6.2312">
        <ele>1267.473</ele>
        <time>2019-06-21T11:42:24Z</time>
      </trkpt>
      <trkpt lat="43.91647" lon="6.23125">
        <ele>1267.424</ele>
        <time>2019-06-21T11:42:25Z</time>
      </trkpt>
      <trkpt lat="43.91638" lon="6.23128">
        <ele>1267.468</ele>
        <time>2019-06-21T11:42:26Z</time>
      </trkpt>
      <trkpt lat="43.9163" lon="6.23133">
        <ele>1271.486</ele>
        <time>2019-06-21T11:42:27Z</time>
      </trkpt>
      <trkpt lat="43.91622" lon="6.23137">
        <ele>1271.46</ele>
        <time>2019-06-21T11:42:28Z</time>
      </trkpt>
      <trkpt lat="43.91613" lon="6.23142">
        <ele>1271.426</ele>
        <time>2019-06-21T11:42:29Z</time>
      </trkpt>
      <trkpt lat="43.91604" lon="6.23144">
        <ele>1271.408</ele>
        <time>2019-06-21T11:42:30Z</time>
      </trkpt>
      <trkpt lat="43.91595" lon="6.23145">
        <ele>1271.451</ele>
        <time>2019-06-21T11:42:31Z</time>
      </trkpt>
      <trkpt lat="43.91586" lon="6.23146">
        <ele>1271.415</ele>
        <time>2019-06-21T11:42:32Z</time>
      </trkpt>
      <trkpt lat="43.91578" lon="6.23147">
        <ele>1271.436</ele>
        <time>2019-06-21T11:42:33Z</time>
      </trkpt>
      <trkpt lat="43.91569" lon="6.23149">
        <ele>1271.483</ele>
        <time>2019-06-21T11:42:34Z</time>
      </trkpt>
      <trkpt lat="43.9156" lon="6.23151">
        <ele>1275.539</ele>
        <time>2019-06-21T11:42:35Z</time>
      </trkpt>
      <trkpt lat="43.91551" lon="6.23153">
        <ele>1275.544</ele>
        <time>2019-06-21T11:42:36Z</time>
      </trkpt>
      <trkpt lat="43.91543" lon="6.23154">
        <ele>1275.575</ele>
        <time>2019-06-21T11:42:37Z</time>
      </trkpt>
      <trkpt lat="43.91533" lon="6.23157">
        <ele>1275.529</ele>
        <time>2019-06-21T11:42:38Z</time>
      </trkpt>
      <trkpt lat="43.91525" lon="6.23158">
        <ele>1275.526</ele>
        <time>2019-06-21T11:42:39Z</time>
      </trkpt>
      <trkpt lat="43.91515" lon="6.2316">
        <ele>1275.547</ele>
        <time>2019-06-21T11:42:40Z</time>
      </trkpt>
      <trkpt lat="43.91506" lon="6.23162">
        <ele>1278.211</ele>
        <time>2019-06-21T11:42:41Z</time>
      </trkpt>
      <trkpt lat="43.91497" lon="6.23163">
        <ele>1278.208</ele>
        <time>2019-06-21T11:42:42Z</time>
      </trkpt>
      <trkpt lat="43.91488" lon="6.23166">
        <ele>1278.265</ele>
        <time>2019-06-21T11:42:43Z</time>
      </trkpt>
      <trkpt lat="43.91479" lon="6.23167">
        <ele>1278.289</ele>
        <time>2019-06-21T11:42:44Z</time>
      </trkpt>
      <trkpt lat="43.9147" lon="6.23168">
        <ele>1278.28</ele>
        <time>2019-06-21T11:42:45Z</time>
      </trkpt>
      <trkpt lat="43.91461" lon="6.23171">
        <ele>1278.217</ele>
        <time>2019-06-21T11:42:46Z</time>
      </trkpt>
      <trkpt lat="43.91452" lon="6.23172">
        <ele>1278.253</ele>
        <time>2019-06-21T11:42:47Z</time>
      </trkpt>
      <trkpt lat="43.91442" lon="6.23173">
        <ele>1281.928</ele>
        <time>2019-06-21T11:42:48Z</time>
      </trkpt>
      <trkpt lat="43.91435" lon="6.23174">
        <ele>1281.939</ele>
        <time>2019-06-21T11:42:49Z</time>
      </trkpt>
      <trkpt lat="43.91427" lon="6.23172">
        <ele>1281.963</ele>
        <time>2019-06-21T11:42:50Z</time>
      </trkpt>
      <trkpt lat="43.91417" lon="6.23172">
        <ele>1281.954</ele>
        <time>2019-06-21T11:42:51Z</time>
      </trkpt>
      <trkpt lat="43.91408" lon="6.23171">
        <ele>1281.956</ele>
        <time>2019-06-21T11:42:52Z</time>
      </trkpt>
      <trkpt lat="43.914" lon="6.23172">
        <ele>1281.911</ele>
        <time>2019-06-21T11:42:53Z</time>
      </trkpt>
      <trkpt lat="43.91391" lon="6.23172">
        <ele>1281.908</ele>
        <time>2019-06-21T11:42:54Z</time>
      </trkpt>
      <trkpt lat="43.91382" lon="6.2317">
        <ele>1281.968</ele>
        <time>2019-06-21T11:42:55Z</time>
      </trkpt>
      <trkpt lat="43.91372" lon="6.23171">
        <ele>1285.522</ele>
        <time>2019-06-21T11:42:56Z</time>
      </trkpt>
      <trkpt lat="43.91363" lon="6.2317">
        <ele>1285.533</ele>
        <time>2019-06-21T11:42:57Z</time>
      </trkpt>
      <trkpt lat="43.91353" lon="6.23169">
        <ele>1285.59</ele>
        <time>2019-06-21T11:42:58Z</time>
      </trkpt>
      <trkpt lat="43.91345" lon="6.2317">
        <ele>1285.576</ele>
        <time>2019-06-21T11:42:59Z</time>
      </trkpt>
      <trkpt lat="43.91336" lon="6.23172">
        <ele>1285.531</ele>
        <time>2019-06-21T11:43:00Z</time>
      </trkpt>
      <trkpt lat="43.91327" lon="6.23175">
        <ele>1285.542</ele>
        <time>2019-06-21T11:43:01Z</time>
      </trkpt>
      <trkpt lat="43.91317" lon="6.2318">
        <ele>1285.546</ele>
        <time>2019-06-21T11:43:02Z</time>
      </trkpt>
      <trkpt lat="43.91308" lon="6.23182">
        <ele>1285.594</ele>
        <time>2019-06-21T11:43:03Z</time>
      </trkpt>
      <trkpt lat="43.91299" lon="6.23186">
        <ele>1285.557</ele>
        <time>2019-06-21T11:43:04Z</time>
      </trkpt>
      <trkpt lat="43.91291" lon="6.23189">
        <ele>1289.722</ele>
        <time>2019-06-21T11:43:05Z</time>
      </trkpt>
      <trkpt lat="43.91283" lon="6.23192">
        <ele>1289.708</ele>
        <time>2019-06-21T11:43:06Z</time>
      </trkpt>
      <trkpt lat="43.91275" lon="6.23196">
        <ele>1289.772</ele>
        <time>2019-06-21T11:43:07Z</time>
      </trkpt>
      <trkpt lat="43.91267" lon="6.232">
        <ele>1289.796</ele>
        <time>2019-06-21T11:43:08Z</time>
      </trkpt>
      <trkpt lat="43.9126" lon="6.23203">
        <ele>1289.717</ele>
        <time>2019-06-21T11:43:09Z</time>
      </trkpt>
      <trkpt lat="43.91252" lon="6.23208">
        <ele>1289.794</ele>
        <time>2019-06-21T11:43:10Z</time>
      </trkpt>
      <trkpt lat="43.91244" lon="6.23213">
        <ele>1289.73</ele>
        <time>2019-06-21T11:43:11Z</time>
      </trkpt>
      <trkpt lat="43.91237" lon="6.23218">
        <ele>1289.725</ele>
        <time>2019-06-21T11:43:12Z</time>
      </trkpt>
      <trkpt lat="43.91231" lon="6.23228">
        <ele>1292.936</ele>
        <time>2019-06-21T11:43:13Z</time>
      </trkpt>
      <trkpt lat="43.91224" lon="6.23236">
        <ele>1292.91</ele>
        <time>2019-06-21T11:43:14Z</time>
      </trkpt>
      <trkpt lat="43.91217" lon="6.23245">
        <ele>1292.979</ele>
        <time>2019-06-21T11:43:15Z</time>
      </trkpt>
      <trkpt lat="43.91212" lon="6.23255">
        <ele>1292.905</ele>
        <time>2019-06-21T11:43:16Z</time>
      </trkpt>
      <trkpt lat="43.91207" lon="6.23265">
        <ele>1292.925</ele>
        <time>2019-06-21T11:43:17Z</time>
      </trkpt>
      <trkpt lat="43.91202" lon="6.23274">
        <ele>1292.908</ele>
        <time>2019-06-21T11:43:18Z</time>
      </trkpt>
      <trkpt lat="43.91197" lon="6.23283">
        <ele>1292.93</ele>
        <time>2019-06-21T11:43:19Z</time>
      </trkpt>
      <trkpt lat="43.91191" lon="6.23292">
        <ele>1292.914</ele>
        <time>2019-06-21T11:43:20Z</time>
      </trkpt>
      <trkpt lat="43.91186" lon="6.23301">
        <ele>1292.915</ele>
        <time>2019-06-21T11:43:21Z</time>
      </trkpt>
      <trkpt lat="43.91181" lon="6.2331">
        <ele>1296.422</ele>
        <time>2019-06-21T11:43:22Z</time>
      </trkpt>
      <trkpt lat="43.91176" lon="6.23317">
        <ele>1296.458</ele>
        <time>2019-06-21T11:43:23Z</time>
      </trkpt>
      <trkpt lat="43.91168" lon="6.23324">
        <ele>1296.453</ele>
        <time>2019-06-21T11:43:24Z</time>
      </trkpt>
      <trkpt lat="43.91161" lon="6.2333">
        <ele>1296.444</ele>
        <time>2019-06-21T11:43:25Z</time>
      </trkpt>
      <trkpt lat="43.91153" lon="6.23334">
        <ele>1296.448</ele>
        <time>2019-06-21T11:43:26Z</time>
      </trkpt>
      <trkpt lat="43.91145" lon="6.23339">
        <ele>1296.486</ele>
        <time>2019-06-21T11:43:27Z</time>
      </trkpt>
      <trkpt lat="43.91141" lon="6.23342">
        <ele>1296.46</ele>
        <time>2019-06-21T11:43:28Z</time>
      </trkpt>
      <trkpt lat="43.91132" lon="6.23347">
        <ele>1296.426</ele>
        <time>2019-06-21T11:43:29Z</time>
      </trkpt>
      <trkpt lat="43.91124" lon="6.23351">
        <ele>1296.408</ele>
        <time>2019-06-21T11:43:30Z</time>
      </trkpt>
      <trkpt lat="43.91116" lon="6.23353">
        <ele>1296.461</ele>
        <time>2019-06-21T11:43:31Z</time>
      </trkpt>
      <trkpt lat="43.91107" lon="6.23358">
        <ele>1302.245</ele>
        <time>2019-06-21T11:43:32Z</time>
      </trkpt>
      <trkpt lat="43.91099" lon="6.23362">
        <ele>1302.216</ele>
        <time>2019-06-21T11:43:33Z</time>
      </trkpt>
      <trkpt lat="43.91091" lon="6.23365">
        <ele>1302.213</ele>
        <time>2019-06-21T11:43:34Z</time>
      </trkpt>
      <trkpt lat="43.91083" lon="6.23368">
        <ele>1302.259</ele>
        <time>2019-06-21T11:43:35Z</time>
      </trkpt>
      <trkpt lat="43.91074" lon="6.23373">
        <ele>1302.234</ele>
        <time>2019-06-21T11:43:36Z</time>
      </trkpt>
      <trkpt lat="43.91065" lon="6.23377">
        <ele>1302.285</ele>
        <time>2019-06-21T11:43:37Z</time>
      </trkpt>
      <trkpt lat="43.91057" lon="6.23382">
        <ele>1302.289</ele>
        <time>2019-06-21T11:43:38Z</time>
      </trkpt>
      <trkpt lat="43.9105" lon="6.23387">
        <ele>1302.235</ele>
        <time>2019-06-21T11:43:39Z</time>
      </trkpt>
      <trkpt lat="43.91043" lon="6.23392">
        <ele>1308.186</ele>
        <time>2019-06-21T11:43:40Z</time>
      </trkpt>
      <trkpt lat="43.91037" lon="6.23395">
        <ele>1308.114</ele>
        <time>2019-06-21T11:43:41Z</time>
      </trkpt>
      <trkpt lat="43.9103" lon="6.23399">
        <ele>1308.108</ele>
        <time>2019-06-21T11:43:42Z</time>
      </trkpt>
      <trkpt lat="43.91022" lon="6.23401">
        <ele>1308.146</ele>
        <time>2019-06-21T11:43:43Z</time>
      </trkpt>
      <trkpt lat="43.91014" lon="6.23402">
        <ele>1308.14</ele>
        <time>2019-06-21T11:43:44Z</time>
      </trkpt>
      <trkpt lat="43.91006" lon="6.23401">
        <ele>1308.111</ele>
        <time>2019-06-21T11:43:45Z</time>
      </trkpt>
      <trkpt lat="43.90998" lon="6.234">
        <ele>1308.118</ele>
        <time>2019-06-21T11:43:46Z</time>
      </trkpt>
      <trkpt lat="43.9099" lon="6.23399">
        <ele>1311.484</ele>
        <time>2019-06-21T11:43:47Z</time>
      </trkpt>
      <trkpt lat="43.90982" lon="6.23401">
        <ele>1311.419</ele>
        <time>2019-06-21T11:43:48Z</time>
      </trkpt>
      <trkpt lat="43.90975" lon="6.23403">
        <ele>1311.42</ele>
        <time>2019-06-21T11:43:49Z</time>
      </trkpt>
      <trkpt lat="43.90968" lon="6.23407">
        <ele>1311.444</ele>
        <time>2019-06-21T11:43:50Z</time>
      </trkpt>
      <trkpt lat="43.90962" lon="6.23412">
        <ele>1311.443</ele>
        <time>2019-06-21T11:43:51Z</time>
      </trkpt>
      <trkpt lat="43.90958" lon="6.23417">
        <ele>1311.464</ele>
        <time>2019-06-21T11:43:52Z</time>
      </trkpt>
      <trkpt lat="43.90955" lon="6.23422">
        <ele>1311.41</ele>
        <time>2019-06-21T11:43:53Z</time>
      </trkpt>
      <trkpt lat="43.90951" lon="6.23429">
        <ele>1311.408</ele>
        <time>2019-06-21T11:43:54Z</time>
      </trkpt>
      <trkpt lat="43.90949" lon="6.23437">
        <ele>1311.457</ele>
        <time>2019-06-21T11:43:55Z</time>
      </trkpt>
      <trkpt lat="43.90946" lon="6.23445">
        <ele>1311.481</ele>
        <time>2019-06-21T11:43:56Z</time>
      </trkpt>
      <trkpt lat="43.90945" lon="6.23454">
        <ele>1311.462</ele>
        <time>2019-06-21T11:43:57Z</time>
      </trkpt>
      <trkpt lat="43.90944" lon="6.23463">
        <ele>1311.379</ele>
        <time>2019-06-21T11:43:58Z</time>
      </trkpt>
      <trkpt lat="43.90944" lon="6.23473">
        <ele>1311.365</ele>
        <time>2019-06-21T11:43:59Z</time>
      </trkpt>
      <trkpt lat="43.90944" lon="6.2348">
        <ele>1311.32</ele>
        <time>2019-06-21T11:44:00Z</time>
      </trkpt>
      <trkpt lat="43.90945" lon="6.23489">
        <ele>1311.391</ele>
        <time>2019-06-21T11:44:01Z</time>
      </trkpt>
      <trkpt lat="43.90945" lon="6.23498">
        <ele>1311.355</ele>
        <time>2019-06-21T11:44:02Z</time>
      </trkpt>
      <trkpt lat="43.90946" lon="6.23506">
        <ele>1311.387</ele>
        <time>2019-06-21T11:44:03Z</time>
      </trkpt>
      <trkpt lat="43.90949" lon="6.23515">
        <ele>1311.342</ele>
        <time>2019-06-21T11:44:04Z</time>
      </trkpt>
      <trkpt lat="43.9095" lon="6.23525">
        <ele>1311.326</ele>
        <time>2019-06-21T11:44:05Z</time>
      </trkpt>
      <trkpt lat="43.90953" lon="6.23534">
        <ele>1311.308</ele>
        <time>2019-06-21T11:44:06Z</time>
      </trkpt>
      <trkpt lat="43.90952" lon="6.23542">
        <ele>1311.071</ele>
        <time>2019-06-21T11:44:07Z</time>
      </trkpt>
      <trkpt lat="43.90949" lon="6.23551">
        <ele>1311.045</ele>
        <time>2019-06-21T11:44:08Z</time>
      </trkpt>
      <trkpt lat="43.90949" lon="6.23561">
        <ele>1311.046</ele>
        <time>2019-06-21T11:44:09Z</time>
      </trkpt>
      <trkpt lat="43.90948" lon="6.23571">
        <ele>1311.073</ele>
        <time>2019-06-21T11:44:10Z</time>
      </trkpt>
      <trkpt lat="43.90947" lon="6.23579">
        <ele>1311.089</ele>
        <time>2019-06-21T11:44:11Z</time>
      </trkpt>
      <trkpt lat="43.90951" lon="6.23588">
        <ele>1311.054</ele>
        <time>2019-06-21T11:44:12Z</time>
      </trkpt>
      <trkpt lat="43.90953" lon="6.23596">
        <ele>1311.065</ele>
        <time>2019-06-21T11:44:13Z</time>
      </trkpt>
      <trkpt lat="43.90959" lon="6.23602">
        <ele>1311.099</ele>
        <time>2019-06-21T11:44:14Z</time>
      </trkpt>
      <trkpt lat="43.90962" lon="6.23608">
        <ele>1311.041</ele>
        <time>2019-06-21T11:44:15Z</time>
      </trkpt>
      <trkpt lat="43.90968" lon="6.23613">
        <ele>1311.081</ele>
        <time>2019-06-21T11:44:16Z</time>
      </trkpt>
      <trkpt lat="43.90975" lon="6.23619">
        <ele>1311.009</ele>
        <time>2019-06-21T11:44:17Z</time>
      </trkpt>
      <trkpt lat="43.9098" lon="6.23627">
        <ele>1310.508</ele>
        <time>2019-06-21T11:44:18Z</time>
      </trkpt>
      <trkpt lat="43.90986" lon="6.23636">
        <ele>1310.577</ele>
        <time>2019-06-21T11:44:19Z</time>
      </trkpt>
      <trkpt lat="43.90991" lon="6.23645">
        <ele>1310.591</ele>
        <time>2019-06-21T11:44:20Z</time>
      </trkpt>
      <trkpt lat="43.90995" lon="6.23653">
        <ele>1310.592</ele>
        <time>2019-06-21T11:44:21Z</time>
      </trkpt>
      <trkpt lat="43.91" lon="6.23662">
        <ele>1310.549</ele>
        <time>2019-06-21T11:44:22Z</time>
      </trkpt>
      <trkpt lat="43.90998" lon="6.23675">
        <ele>1310.595</ele>
        <time>2019-06-21T11:44:23Z</time>
      </trkpt>
      <trkpt lat="43.90999" lon="6.23686">
        <ele>1310.51</ele>
        <time>2019-06-21T11:44:24Z</time>
      </trkpt>
      <trkpt lat="43.90999" lon="6.23697">
        <ele>1310.591</ele>
        <time>2019-06-21T11:44:25Z</time>
      </trkpt>
      <trkpt lat="43.90997" lon="6.23707">
        <ele>1310.595</ele>
        <time>2019-06-21T11:44:26Z</time>
      </trkpt>
      <trkpt lat="43.90997" lon="6.2372">
        <ele>1310.538</ele>
        <time>2019-06-21T11:44:27Z</time>
      </trkpt>
      <trkpt lat="43.90997" lon="6.23733">
        <ele>1310.57</ele>
        <time>2019-06-21T11:44:28Z</time>
      </trkpt>
      <trkpt lat="43.90997" lon="6.23745">
        <ele>1308.017</ele>
        <time>2019-06-21T11:44:29Z</time>
      </trkpt>
      <trkpt lat="43.90999" lon="6.23756">
        <ele>1307.908</ele>
        <time>2019-06-21T11:44:30Z</time>
      </trkpt>
      <trkpt lat="43.91" lon="6.23766">
        <ele>1307.976</ele>
        <time>2019-06-21T11:44:31Z</time>
      </trkpt>
      <trkpt lat="43.91003" lon="6.23777">
        <ele>1307.92</ele>
        <time>2019-06-21T11:44:32Z</time>
      </trkpt>
      <trkpt lat="43.91006" lon="6.23787">
        <ele>1307.921</ele>
        <time>2019-06-21T11:44:33Z</time>
      </trkpt>
      <trkpt lat="43.91011" lon="6.23799">
        <ele>1307.918</ele>
        <time>2019-06-21T11:44:34Z</time>
      </trkpt>
      <trkpt lat="43.91015" lon="6.23809">
        <ele>1307.964</ele>
        <time>2019-06-21T11:44:35Z</time>
      </trkpt>
      <trkpt lat="43.91017" lon="6.23819">
        <ele>1307.979</ele>
        <time>2019-06-21T11:44:36Z</time>
      </trkpt>
      <trkpt lat="43.9102" lon="6.2383">
        <ele>1307.94</ele>
        <time>2019-06-21T11:44:37Z</time>
      </trkpt>
      <trkpt lat="43.91024" lon="6.23842">
        <ele>1306.264</ele>
        <time>2019-06-21T11:44:38Z</time>
      </trkpt>
      <trkpt lat="43.91029" lon="6.23852">
        <ele>1306.257</ele>
        <time>2019-06-21T11:44:39Z</time>
      </trkpt>
      <trkpt lat="43.91028" lon="6.23864">
        <ele>1306.2</ele>
        <time>2019-06-21T11:44:40Z</time>
      </trkpt>
      <trkpt lat="43.9103" lon="6.23876">
        <ele>1306.22</ele>
        <time>2019-06-21T11:44:41Z</time>
      </trkpt>
      <trkpt lat="43.91029" lon="6.23888">
        <ele>1306.208</ele>
        <time>2019-06-21T11:44:42Z</time>
      </trkpt>
      <trkpt lat="43.91028" lon="6.239">
        <ele>1306.278</ele>
        <time>2019-06-21T11:44:43Z</time>
      </trkpt>
      <trkpt lat="43.91028" lon="6.23913">
        <ele>1306.262</ele>
        <time>2019-06-21T11:44:44Z</time>
      </trkpt>
      <trkpt lat="43.91027" lon="6.23924">
        <ele>1306.273</ele>
        <time>2019-06-21T11:44:45Z</time>
      </trkpt>
      <trkpt lat="43.91025" lon="6.23937">
        <ele>1305.19</ele>
        <time>2019-06-21T11:44:46Z</time>
      </trkpt>
      <trkpt lat="43.91024" lon="6.23949">
        <ele>1305.146</ele>
        <time>2019-06-21T11:44:47Z</time>
      </trkpt>
      <trkpt lat="43.91024" lon="6.23962">
        <ele>1305.111</ele>
        <time>2019-06-21T11:44:48Z</time>
      </trkpt>
      <trkpt lat="43.91025" lon="6.23973">
        <ele>1305.162</ele>
        <time>2019-06-21T11:44:49Z</time>
      </trkpt>
      <trkpt lat="43.91026" lon="6.23984">
        <ele>1305.136</ele>
        <time>2019-06-21T11:44:50Z</time>
      </trkpt>
      <trkpt lat="43.91027" lon="6.23995">
        <ele>1305.193</ele>
        <time>2019-06-21T11:44:51Z</time>
      </trkpt>
      <trkpt lat="43.91031" lon="6.24006">
        <ele>1305.165</ele>
        <time>2019-06-21T11:44:52Z</time>
      </trkpt>
      <trkpt lat="43.91032" lon="6.24018">
        <ele>1305.121</ele>
        <time>2019-06-21T11:44:53Z</time>
      </trkpt>
      <trkpt lat="43.91032" lon="6.24029">
        <ele>1305.108</ele>
        <time>2019-06-21T11:44:54Z</time>
      </trkpt>
      <trkpt lat="43.91033" lon="6.24043">
        <ele>1303.472</ele>
        <time>2019-06-21T11:44:55Z</time>
      </trkpt>
      <trkpt lat="43.91033" lon="6.24056">
        <ele>1303.416</ele>
        <time>2019-06-21T11:44:56Z</time>
      </trkpt>
      <trkpt lat="43.91033" lon="6.24068">
        <ele>1303.447</ele>
        <time>2019-06-21T11:44:57Z</time>
      </trkpt>
      <trkpt lat="43.91033" lon="6.24081">
        <ele>1303.434</ele>
        <time>2019-06-21T11:44:58Z</time>
      </trkpt>
      <trkpt lat="43.91032" lon="6.24093">
        <ele>1303.47</ele>
        <time>2019-06-21T11:44:59Z</time>
      </trkpt>
      <trkpt lat="43.91031" lon="6.24105">
        <ele>1303.485</ele>
        <time>2019-06-21T11:45:00Z</time>
      </trkpt>
      <trkpt lat="43.9103" lon="6.24116">
        <ele>1303.416</ele>
        <time>2019-06-21T11:45:01Z</time>
      </trkpt>
      <trkpt lat="43.91029" lon="6.24129">
        <ele>1303.32</ele>
        <time>2019-06-21T11:45:02Z</time>
      </trkpt>
      <trkpt lat="43.91027" lon="6.24141">
        <ele>1303.395</ele>
        <time>2019-06-21T11:45:03Z</time>
      </trkpt>
      <trkpt lat="43.91025" lon="6.24153">
        <ele>1303.349</ele>
        <time>2019-06-21T11:45:04Z</time>
      </trkpt>
      <trkpt lat="43.91019" lon="6.24163">
        <ele>1303.323</ele>
        <time>2019-06-21T11:45:05Z</time>
      </trkpt>
      <trkpt lat="43.91016" lon="6.24173">
        <ele>1303.308</ele>
        <time>2019-06-21T11:45:06Z</time>
      </trkpt>
      <trkpt lat="43.91014" lon="6.24183">
        <ele>1303.312</ele>
        <time>2019-06-21T11:45:07Z</time>
      </trkpt>
      <trkpt lat="43.91013" lon="6.24193">
        <ele>1303.366</ele>
        <time>2019-06-21T11:45:08Z</time>
      </trkpt>
      <trkpt lat="43.91015" lon="6.24203">
        <ele>1303.387</ele>
        <time>2019-06-21T11:45:09Z</time>
      </trkpt>
      <trkpt lat="43.91016" lon="6.24213">
        <ele>1303.374</ele>
        <time>2019-06-21T11:45:10Z</time>
      </trkpt>
      <trkpt lat="43.91022" lon="6.24218">
        <ele>1303.35</ele>
        <time>2019-06-21T11:45:11Z</time>
      </trkpt>
      <trkpt lat="43.91027" lon="6.24225">
        <ele>1303.385</ele>
        <time>2019-06-21T11:45:12Z</time>
      </trkpt>
      <trkpt lat="43.91032" lon="6.24233">
        <ele>1300.886</ele>
        <time>2019-06-21T11:45:13Z</time>
      </trkpt>
      <trkpt lat="43.91035" lon="6.24241">
        <ele>1300.88</ele>
        <time>2019-06-21T11:45:14Z</time>
      </trkpt>
      <trkpt lat="43.91037" lon="6.24252">
        <ele>1300.867</ele>
        <time>2019-06-21T11:45:15Z</time>
      </trkpt>
      <trkpt lat="43.9104" lon="6.24264">
        <ele>1300.881</ele>
        <time>2019-06-21T11:45:16Z</time>
      </trkpt>
      <trkpt lat="43.91041" lon="6.24275">
        <ele>1300.819</ele>
        <time>2019-06-21T11:45:17Z</time>
      </trkpt>
      <trkpt lat="43.91042" lon="6.24287">
        <ele>1300.808</ele>
        <time>2019-06-21T11:45:18Z</time>
      </trkpt>
      <trkpt lat="43.91043" lon="6.24299">
        <ele>1300.749</ele>
        <time>2019-06-21T11:45:19Z</time>
      </trkpt>
      <trkpt lat="43.91041" lon="6.24311">
        <ele>1300.763</ele>
        <time>2019-06-21T11:45:20Z</time>
      </trkpt>
      <trkpt lat="43.91039" lon="6.24323">
        <ele>1300.734</ele>
        <time>2019-06-21T11:45:21Z</time>
      </trkpt>
      <trkpt lat="43.9104" lon="6.24334">
        <ele>1300.791</ele>
        <time>2019-06-21T11:45:22Z</time>
      </trkpt>
      <trkpt lat="43.91038" lon="6.24345">
        <ele>1300.737</ele>
        <time>2019-06-21T11:45:23Z</time>
      </trkpt>
      <trkpt lat="43.91034" lon="6.24356">
        <ele>1300.732</ele>
        <time>2019-06-21T11:45:24Z</time>
      </trkpt>
      <trkpt lat="43.91032" lon="6.24366">
        <ele>1300.783</ele>
        <time>2019-06-21T11:45:25Z</time>
      </trkpt>
      <trkpt lat="43.91029" lon="6.24377">
        <ele>1300.717</ele>
        <time>2019-06-21T11:45:26Z</time>
      </trkpt>
      <trkpt lat="43.91026" lon="6.24388">
        <ele>1299.428</ele>
        <time>2019-06-21T11:45:27Z</time>
      </trkpt>
      <trkpt lat="43.91023" lon="6.24399">
        <ele>1299.489</ele>
        <time>2019-06-21T11:45:28Z</time>
      </trkpt>
      <trkpt lat="43.91019" lon="6.24409">
        <ele>1299.417</ele>
        <time>2019-06-21T11:45:29Z</time>
      </trkpt>
      <trkpt lat="43.91014" lon="6.2442">
        <ele>1299.408</ele>
        <time>2019-06-21T11:45:30Z</time>
      </trkpt>
      <trkpt lat="43.9101" lon="6.2443">
        <ele>1299.495</ele>
        <time>2019-06-21T11:45:31Z</time>
      </trkpt>
      <trkpt lat="43.91005" lon="6.24441">
        <ele>1299.459</ele>
        <time>2019-06-21T11:45:32Z</time>
      </trkpt>
      <trkpt lat="43.91" lon="6.24451">
        <ele>1299.49</ele>
        <time>2019-06-21T11:45:33Z</time>
      </trkpt>
      <trkpt lat="43.90996" lon="6.2446">
        <ele>1299.177</ele>
        <time>2019-06-21T11:45:34Z</time>
      </trkpt>
      <trkpt lat="43.90991" lon="6.2447">
        <ele>1299.163</ele>
        <time>2019-06-21T11:45:35Z</time>
      </trkpt>
      <trkpt lat="43.90987" lon="6.24479">
        <ele>1299.128</ele>
        <time>2019-06-21T11:45:36Z</time>
      </trkpt>
      <trkpt lat="43.90981" lon="6.24487">
        <ele>1299.169</ele>
        <time>2019-06-21T11:45:37Z</time>
      </trkpt>
      <trkpt lat="43.90975" lon="6.24493">
        <ele>1299.183</ele>
        <time>2019-06-21T11:45:38Z</time>
      </trkpt>
      <trkpt lat="43.90967" lon="6.24499">
        <ele>1299.153</ele>
        <time>2019-06-21T11:45:39Z</time>
      </trkpt>
      <trkpt lat="43.9096" lon="6.24503">
        <ele>1299.104</ele>
        <time>2019-06-21T11:45:40Z</time>
      </trkpt>
      <trkpt lat="43.90952" lon="6.24506">
        <ele>1298.214</ele>
        <time>2019-06-21T11:45:41Z</time>
      </trkpt>
      <trkpt lat="43.90945" lon="6.2451">
        <ele>1298.208</ele>
        <time>2019-06-21T11:45:42Z</time>
      </trkpt>
      <trkpt lat="43.90939" lon="6.24513">
        <ele>1298.238</ele>
        <time>2019-06-21T11:45:43Z</time>
      </trkpt>
      <trkpt lat="43.90935" lon="6.24519">
        <ele>1298.252</ele>
        <time>2019-06-21T11:45:44Z</time>
      </trkpt>
      <trkpt lat="43.90932" lon="6.24528">
        <ele>1298.263</ele>
        <time>2019-06-21T11:45:45Z</time>
      </trkpt>
      <trkpt lat="43.9093" lon="6.24537">
        <ele>1298.29</ele>
        <time>2019-06-21T11:45:46Z</time>
      </trkpt>
      <trkpt lat="43.90929" lon="6.24548">
        <ele>1297.656</ele>
        <time>2019-06-21T11:45:47Z</time>
      </trkpt>
      <trkpt lat="43.90934" lon="6.24554">
        <ele>1297.671</ele>
        <time>2019-06-21T11:45:48Z</time>
      </trkpt>
      <trkpt lat="43.9094" lon="6.24562">
        <ele>1297.682</ele>
        <time>2019-06-21T11:45:49Z</time>
      </trkpt>
      <trkpt lat="43.90944" lon="6.24572">
        <ele>1297.626</ele>
        <time>2019-06-21T11:45:50Z</time>
      </trkpt>
      <trkpt lat="43.90949" lon="6.2458">
        <ele>1297.639</ele>
        <time>2019-06-21T11:45:51Z</time>
      </trkpt>
      <trkpt lat="43.90954" lon="6.24589">
        <ele>1297.601</ele>
        <time>2019-06-21T11:45:52Z</time>
      </trkpt>
      <trkpt lat="43.90958" lon="6.24598">
        <ele>1295.921</ele>
        <time>2019-06-21T11:45:53Z</time>
      </trkpt>
      <trkpt lat="43.90961" lon="6.24607">
        <ele>1295.908</ele>
        <time>2019-06-21T11:45:54Z</time>
      </trkpt>
      <trkpt lat="43.90963" lon="6.24617">
        <ele>1295.926</ele>
        <time>2019-06-21T11:45:55Z</time>
      </trkpt>
      <trkpt lat="43.90965" lon="6.24627">
        <ele>1295.95</ele>
        <time>2019-06-21T11:45:56Z</time>
      </trkpt>
      <trkpt lat="43.90966" lon="6.24638">
        <ele>1295.121</ele>
        <time>2019-06-21T11:45:57Z</time>
      </trkpt>
      <trkpt lat="43.90966" lon="6.24649">
        <ele>1295.178</ele>
        <time>2019-06-21T11:45:58Z</time>
      </trkpt>
      <trkpt lat="43.90968" lon="6.24661">
        <ele>1295.144</ele>
        <time>2019-06-21T11:45:59Z</time>
      </trkpt>
      <trkpt lat="43.90967" lon="6.24672">
        <ele>1294.419</ele>
        <time>2019-06-21T11:46:00Z</time>
      </trkpt>
      <trkpt lat="43.90967" lon="6.24683">
        <ele>1294.49</ele>
        <time>2019-06-21T11:46:01Z</time>
      </trkpt>
      <trkpt lat="43.90966" lon="6.24695">
        <ele>1294.424</ele>
        <time>2019-06-21T11:46:02Z</time>
      </trkpt>
      <trkpt lat="43.90966" lon="6.24706">
        <ele>1294.455</ele>
        <time>2019-06-21T11:46:03Z</time>
      </trkpt>
      <trkpt lat="43.90967" lon="6.24716">
        <ele>1294.407</ele>
        <time>2019-06-21T11:46:04Z</time>
      </trkpt>
      <trkpt lat="43.90967" lon="6.24729">
        <ele>1294.417</ele>
        <time>2019-06-21T11:46:05Z</time>
      </trkpt>
      <trkpt lat="43.90966" lon="6.2474">
        <ele>1294.408</ele>
        <time>2019-06-21T11:46:06Z</time>
      </trkpt>
      <trkpt lat="43.90965" lon="6.24753">
        <ele>1292.588</ele>
        <time>2019-06-21T11:46:07Z</time>
      </trkpt>
      <trkpt lat="43.90964" lon="6.24764">
        <ele>1292.542</ele>
        <time>2019-06-21T11:46:08Z</time>
      </trkpt>
      <trkpt lat="43.90963" lon="6.24775">
        <ele>1292.593</ele>
        <time>2019-06-21T11:46:09Z</time>
      </trkpt>
      <trkpt lat="43.90961" lon="6.24786">
        <ele>1292.53</ele>
        <time>2019-06-21T11:46:10Z</time>
      </trkpt>
      <trkpt lat="43.90958" lon="6.24796">
        <ele>1292.526</ele>
        <time>2019-06-21T11:46:11Z</time>
      </trkpt>
      <trkpt lat="43.90955" lon="6.24807">
        <ele>1292.581</ele>
        <time>2019-06-21T11:46:12Z</time>
      </trkpt>
      <trkpt lat="43.90952" lon="6.24818">
        <ele>1292.512</ele>
        <time>2019-06-21T11:46:13Z</time>
      </trkpt>
      <trkpt lat="43.90948" lon="6.24829">
        <ele>1291.536</ele>
        <time>2019-06-21T11:46:14Z</time>
      </trkpt>
      <trkpt lat="43.90944" lon="6.24839">
        <ele>1291.589</ele>
        <time>2019-06-21T11:46:15Z</time>
      </trkpt>
      <trkpt lat="43.90938" lon="6.24849">
        <ele>1291.506</ele>
        <time>2019-06-21T11:46:16Z</time>
      </trkpt>
      <trkpt lat="43.90936" lon="6.24859">
        <ele>1291.526</ele>
        <time>2019-06-21T11:46:17Z</time>
      </trkpt>
      <trkpt lat="43.90931" lon="6.2487">
        <ele>1291.508</ele>
        <time>2019-06-21T11:46:18Z</time>
      </trkpt>
      <trkpt lat="43.90929" lon="6.24881">
        <ele>1291.381</ele>
        <time>2019-06-21T11:46:19Z</time>
      </trkpt>
      <trkpt lat="43.90926" lon="6.24892">
        <ele>1291.395</ele>
        <time>2019-06-21T11:46:20Z</time>
      </trkpt>
      <trkpt lat="43.90922" lon="6.24902">
        <ele>1291.356</ele>
        <time>2019-06-21T11:46:21Z</time>
      </trkpt>
      <trkpt lat="43.90918" lon="6.24911">
        <ele>1291.343</ele>
        <time>2019-06-21T11:46:22Z</time>
      </trkpt>
      <trkpt lat="43.90914" lon="6.2492">
        <ele>1291.369</ele>
        <time>2019-06-21T11:46:23Z</time>
      </trkpt>
      <trkpt lat="43.90909" lon="6.24929">
        <ele>1291.314</ele>
        <time>2019-06-21T11:46:24Z</time>
      </trkpt>
      <trkpt lat="43.90903" lon="6.24938">
        <ele>1290.915</ele>
        <time>2019-06-21T11:46:25Z</time>
      </trkpt>
      <trkpt lat="43.90897" lon="6.24946">
        <ele>1290.989</ele>
        <time>2019-06-21T11:46:26Z</time>
      </trkpt>
      <trkpt lat="43.90891" lon="6.24954">
        <ele>1290.954</ele>
        <time>2019-06-21T11:46:27Z</time>
      </trkpt>
      <trkpt lat="43.90886" lon="6.24962">
        <ele>1290.956</ele>
        <time>2019-06-21T11:46:28Z</time>
      </trkpt>
      <trkpt lat="43.9088" lon="6.2497">
        <ele>1290.911</ele>
        <time>2019-06-21T11:46:29Z</time>
      </trkpt>
      <trkpt lat="43.90876" lon="6.24979">
        <ele>1290.908</ele>
        <time>2019-06-21T11:46:30Z</time>
      </trkpt>
      <trkpt lat="43.90871" lon="6.24988">
        <ele>1291.138</ele>
        <time>2019-06-21T11:46:31Z</time>
      </trkpt>
      <trkpt lat="43.90863" lon="6.24995">
        <ele>1291.132</ele>
        <time>2019-06-21T11:46:32Z</time>
      </trkpt>
      <trkpt lat="43.90855" lon="6.25001">
        <ele>1291.193</ele>
        <time>2019-06-21T11:46:33Z</time>
      </trkpt>
      <trkpt lat="43.90849" lon="6.25007">
        <ele>1291.15</ele>
        <time>2019-06-21T11:46:34Z</time>
      </trkpt>
      <trkpt lat="43.90843" lon="6.25012">
        <ele>1291.196</ele>
        <time>2019-06-21T11:46:35Z</time>
      </trkpt>
      <trkpt lat="43.90838" lon="6.25016">
        <ele>1291.111</ele>
        <time>2019-06-21T11:46:36Z</time>
      </trkpt>
      <trkpt lat="43.90831" lon="6.2502">
        <ele>1292.312</ele>
        <time>2019-06-21T11:46:37Z</time>
      </trkpt>
      <trkpt lat="43.90824" lon="6.25023">
        <ele>1292.316</ele>
        <time>2019-06-21T11:46:38Z</time>
      </trkpt>
      <trkpt lat="43.90817" lon="6.25027">
        <ele>1292.329</ele>
        <time>2019-06-21T11:46:39Z</time>
      </trkpt>
      <trkpt lat="43.9081" lon="6.25031">
        <ele>1292.3</ele>
        <time>2019-06-21T11:46:40Z</time>
      </trkpt>
      <trkpt lat="43.90803" lon="6.25037">
        <ele>1292.32</ele>
        <time>2019-06-21T11:46:41Z</time>
      </trkpt>
      <trkpt lat="43.90796" lon="6.25043">
        <ele>1293.108</ele>
        <time>2019-06-21T11:46:42Z</time>
      </trkpt>
      <trkpt lat="43.90789" lon="6.25049">
        <ele>1293.195</ele>
        <time>2019-06-21T11:46:43Z</time>
      </trkpt>
      <trkpt lat="43.90782" lon="6.25055">
        <ele>1293.199</ele>
        <time>2019-06-21T11:46:44Z</time>
      </trkpt>
      <trkpt lat="43.90776" lon="6.25059">
        <ele>1293.14</ele>
        <time>2019-06-21T11:46:45Z</time>
      </trkpt>
      <trkpt lat="43.90768" lon="6.25061">
        <ele>1293.167</ele>
        <time>2019-06-21T11:46:46Z</time>
      </trkpt>
      <trkpt lat="43.90761" lon="6.25064">
        <ele>1293.153</ele>
        <time>2019-06-21T11:46:47Z</time>
      </trkpt>
      <trkpt lat="43.90754" lon="6.25067">
        <ele>1293.328</ele>
        <time>2019-06-21T11:46:48Z</time>
      </trkpt>
      <trkpt lat="43.90747" lon="6.25071">
        <ele>1293.319</ele>
        <time>2019-06-21T11:46:49Z</time>
      </trkpt>
      <trkpt lat="43.9074" lon="6.25075">
        <ele>1293.333</ele>
        <time>2019-06-21T11:46:50Z</time>
      </trkpt>
      <trkpt lat="43.90738" lon="6.25083">
        <ele>1293.363</ele>
        <time>2019-06-21T11:46:51Z</time>
      </trkpt>
      <trkpt lat="43.90735" lon="6.25091">
        <ele>1293.344</ele>
        <time>2019-06-21T11:46:52Z</time>
      </trkpt>
      <trkpt lat="43.90735" lon="6.251">
        <ele>1293.318</ele>
        <time>2019-06-21T11:46:53Z</time>
      </trkpt>
      <trkpt lat="43.90734" lon="6.2511">
        <ele>1293.308</ele>
        <time>2019-06-21T11:46:54Z</time>
      </trkpt>
      <trkpt lat="43.90732" lon="6.2512">
        <ele>1293.649</ele>
        <time>2019-06-21T11:46:55Z</time>
      </trkpt>
      <trkpt lat="43.90731" lon="6.25128">
        <ele>1293.683</ele>
        <time>2019-06-21T11:46:56Z</time>
      </trkpt>
      <trkpt lat="43.90728" lon="6.25134">
        <ele>1293.654</ele>
        <time>2019-06-21T11:46:57Z</time>
      </trkpt>
      <trkpt lat="43.90725" lon="6.25142">
        <ele>1293.651</ele>
        <time>2019-06-21T11:46:58Z</time>
      </trkpt>
      <trkpt lat="43.90722" lon="6.2515">
        <ele>1294.487</ele>
        <time>2019-06-21T11:46:59Z</time>
      </trkpt>
      <trkpt lat="43.90719" lon="6.25159">
        <ele>1294.472</ele>
        <time>2019-06-21T11:47:00Z</time>
      </trkpt>
      <trkpt lat="43.90717" lon="6.25167">
        <ele>1294.473</ele>
        <time>2019-06-21T11:47:01Z</time>
      </trkpt>
      <trkpt lat="43.90715" lon="6.25178">
        <ele>1294.487</ele>
        <time>2019-06-21T11:47:02Z</time>
      </trkpt>
      <trkpt lat="43.90715" lon="6.25189">
        <ele>1294.426</ele>
        <time>2019-06-21T11:47:03Z</time>
      </trkpt>
      <trkpt lat="43.90714" lon="6.25198">
        <ele>1295.947</ele>
        <time>2019-06-21T11:47:04Z</time>
      </trkpt>
      <trkpt lat="43.90713" lon="6.25208">
        <ele>1295.911</ele>
        <time>2019-06-21T11:47:05Z</time>
      </trkpt>
      <trkpt lat="43.90713" lon="6.25217">
        <ele>1295.908</ele>
        <time>2019-06-21T11:47:06Z</time>
      </trkpt>
      <trkpt lat="43.90713" lon="6.25227">
        <ele>1295.995</ele>
        <time>2019-06-21T11:47:07Z</time>
      </trkpt>
      <trkpt lat="43.90712" lon="6.25236">
        <ele>1295.989</ele>
        <time>2019-06-21T11:47:08Z</time>
      </trkpt>
      <trkpt lat="43.90714" lon="6.25247">
        <ele>1297.15</ele>
        <time>2019-06-21T11:47:09Z</time>
      </trkpt>
      <trkpt lat="43.90712" lon="6.25258">
        <ele>1297.117</ele>
        <time>2019-06-21T11:47:10Z</time>
      </trkpt>
      <trkpt lat="43.90712" lon="6.25269">
        <ele>1297.153</ele>
        <time>2019-06-21T11:47:11Z</time>
      </trkpt>
      <trkpt lat="43.90712" lon="6.2528">
        <ele>1297.158</ele>
        <time>2019-06-21T11:47:12Z</time>
      </trkpt>
      <trkpt lat="43.9071" lon="6.25291">
        <ele>1297.159</ele>
        <time>2019-06-21T11:47:13Z</time>
      </trkpt>
      <trkpt lat="43.90708" lon="6.25301">
        <ele>1297.113</ele>
        <time>2019-06-21T11:47:14Z</time>
      </trkpt>
      <trkpt lat="43.90705" lon="6.25312">
        <ele>1297.178</ele>
        <time>2019-06-21T11:47:15Z</time>
      </trkpt>
      <trkpt lat="43.90703" lon="6.25322">
        <ele>1298.333</ele>
        <time>2019-06-21T11:47:16Z</time>
      </trkpt>
      <trkpt lat="43.90701" lon="6.25331">
        <ele>1298.326</ele>
        <time>2019-06-21T11:47:17Z</time>
      </trkpt>
      <trkpt lat="43.90698" lon="6.25342">
        <ele>1298.308</ele>
        <time>2019-06-21T11:47:18Z</time>
      </trkpt>
      <trkpt lat="43.90696" lon="6.25353">
        <ele>1298.37</ele>
        <time>2019-06-21T11:47:19Z</time>
      </trkpt>
      <trkpt lat="43.90694" lon="6.25364">
        <ele>1298.314</ele>
        <time>2019-06-21T11:47:20Z</time>
      </trkpt>
      <trkpt lat="43.90691" lon="6.25374">
        <ele>1298.325</ele>
        <time>2019-06-21T11:47:21Z</time>
      </trkpt>
      <trkpt lat="43.90688" lon="6.25385">
        <ele>1299.892</ele>
        <time>2019-06-21T11:47:22Z</time>
      </trkpt>
      <trkpt lat="43.90686" lon="6.25396">
        <ele>1299.878</ele>
        <time>2019-06-21T11:47:23Z</time>
      </trkpt>
      <trkpt lat="43.90681" lon="6.25406">
        <ele>1299.893</ele>
        <time>2019-06-21T11:47:24Z</time>
      </trkpt>
      <trkpt lat="43.90679" lon="6.25417">
        <ele>1299.834</ele>
        <time>2019-06-21T11:47:25Z</time>
      </trkpt>
      <trkpt lat="43.90675" lon="6.25428">
        <ele>1299.858</ele>
        <time>2019-06-21T11:47:26Z</time>
      </trkpt>
      <trkpt lat="43.90672" lon="6.25438">
        <ele>1299.858</ele>
        <time>2019-06-21T11:47:27Z</time>
      </trkpt>
      <trkpt lat="43.9067" lon="6.2545">
        <ele>1301.652</ele>
        <time>2019-06-21T11:47:28Z</time>
      </trkpt>
      <trkpt lat="43.90668" lon="6.25461">
        <ele>1301.617</ele>
        <time>2019-06-21T11:47:29Z</time>
      </trkpt>
      <trkpt lat="43.90667" lon="6.25473">
        <ele>1301.608</ele>
        <time>2019-06-21T11:47:30Z</time>
      </trkpt>
      <trkpt lat="43.90665" lon="6.25485">
        <ele>1301.688</ele>
        <time>2019-06-21T11:47:31Z</time>
      </trkpt>
      <trkpt lat="43.90662" lon="6.25495">
        <ele>1301.672</ele>
        <time>2019-06-21T11:47:32Z</time>
      </trkpt>
      <trkpt lat="43.90659" lon="6.25504">
        <ele>1301.613</ele>
        <time>2019-06-21T11:47:33Z</time>
      </trkpt>
      <trkpt lat="43.90656" lon="6.25514">
        <ele>1303.19</ele>
        <time>2019-06-21T11:47:34Z</time>
      </trkpt>
      <trkpt lat="43.90652" lon="6.25524">
        <ele>1303.126</ele>
        <time>2019-06-21T11:47:35Z</time>
      </trkpt>
      <trkpt lat="43.90649" lon="6.25534">
        <ele>1303.161</ele>
        <time>2019-06-21T11:47:36Z</time>
      </trkpt>
      <trkpt lat="43.90645" lon="6.25543">
        <ele>1303.172</ele>
        <time>2019-06-21T11:47:37Z</time>
      </trkpt>
      <trkpt lat="43.90644" lon="6.25554">
        <ele>1304.246</ele>
        <time>2019-06-21T11:47:38Z</time>
      </trkpt>
      <trkpt lat="43.90642" lon="6.25566">
        <ele>1304.266</ele>
        <time>2019-06-21T11:47:39Z</time>
      </trkpt>
      <trkpt lat="43.90642" lon="6.25576">
        <ele>1304.229</ele>
        <time>2019-06-21T11:47:40Z</time>
      </trkpt>
      <trkpt lat="43.9064" lon="6.25587">
        <ele>1304.221</ele>
        <time>2019-06-21T11:47:41Z</time>
      </trkpt>
      <trkpt lat="43.90639" lon="6.25599">
        <ele>1304.208</ele>
        <time>2019-06-21T11:47:42Z</time>
      </trkpt>
      <trkpt lat="43.90637" lon="6.2561">
        <ele>1307.349</ele>
        <time>2019-06-21T11:47:43Z</time>
      </trkpt>
      <trkpt lat="43.90636" lon="6.25621">
        <ele>1307.313</ele>
        <time>2019-06-21T11:47:44Z</time>
      </trkpt>
      <trkpt lat="43.90634" lon="6.25631">
        <ele>1307.364</ele>
        <time>2019-06-21T11:47:45Z</time>
      </trkpt>
      <trkpt lat="43.90631" lon="6.25641">
        <ele>1307.321</ele>
        <time>2019-06-21T11:47:46Z</time>
      </trkpt>
      <trkpt lat="43.90629" lon="6.2565">
        <ele>1307.327</ele>
        <time>2019-06-21T11:47:47Z</time>
      </trkpt>
      <trkpt lat="43.90625" lon="6.25659">
        <ele>1307.332</ele>
        <time>2019-06-21T11:47:48Z</time>
      </trkpt>
      <trkpt lat="43.90622" lon="6.25667">
        <ele>1307.313</ele>
        <time>2019-06-21T11:47:49Z</time>
      </trkpt>
      <trkpt lat="43.90618" lon="6.25676">
        <ele>1309.637</ele>
        <time>2019-06-21T11:47:50Z</time>
      </trkpt>
      <trkpt lat="43.90613" lon="6.25684">
        <ele>1309.682</ele>
        <time>2019-06-21T11:47:51Z</time>
      </trkpt>
      <trkpt lat="43.90609" lon="6.25692">
        <ele>1309.643</ele>
        <time>2019-06-21T11:47:52Z</time>
      </trkpt>
      <trkpt lat="43.90604" lon="6.257">
        <ele>1309.617</ele>
        <time>2019-06-21T11:47:53Z</time>
      </trkpt>
      <trkpt lat="43.90599" lon="6.25708">
        <ele>1309.608</ele>
        <time>2019-06-21T11:47:54Z</time>
      </trkpt>
      <trkpt lat="43.90594" lon="6.25714">
        <ele>1309.691</ele>
        <time>2019-06-21T11:47:55Z</time>
      </trkpt>
      <trkpt lat="43.90591" lon="6.25722">
        <ele>1311.725</ele>
        <time>2019-06-21T11:47:56Z</time>
      </trkpt>
      <trkpt lat="43.90587" lon="6.25732">
        <ele>1311.726</ele>
        <time>2019-06-21T11:47:57Z</time>
      </trkpt>
      <trkpt lat="43.90584" lon="6.25742">
        <ele>1311.783</ele>
        <time>2019-06-21T11:47:58Z</time>
      </trkpt>
      <trkpt lat="43.90582" lon="6.25755">
        <ele>1311.779</ele>
        <time>2019-06-21T11:47:59Z</time>
      </trkpt>
      <trkpt lat="43.9058" lon="6.25766">
        <ele>1311.784</ele>
        <time>2019-06-21T11:48:00Z</time>
      </trkpt>
      <trkpt lat="43.90579" lon="6.25777">
        <ele>1311.725</ele>
        <time>2019-06-21T11:48:01Z</time>
      </trkpt>
      <trkpt lat="43.90577" lon="6.25789">
        <ele>1311.719</ele>
        <time>2019-06-21T11:48:02Z</time>
      </trkpt>
      <trkpt lat="43.90574" lon="6.25798">
        <ele>1311.774</ele>
        <time>2019-06-21T11:48:03Z</time>
      </trkpt>
      <trkpt lat="43.90573" lon="6.25811">
        <ele>1314.756</ele>
        <time>2019-06-21T11:48:04Z</time>
      </trkpt>
      <trkpt lat="43.90573" lon="6.25822">
        <ele>1315.221</ele>
        <time>2019-06-21T11:48:05Z</time>
      </trkpt>
      <trkpt lat="43.90573" lon="6.25834">
        <ele>1315.208</ele>
        <time>2019-06-21T11:48:06Z</time>
      </trkpt>
      <trkpt lat="43.90573" lon="6.25845">
        <ele>1315.27</ele>
        <time>2019-06-21T11:48:07Z</time>
      </trkpt>
      <trkpt lat="43.90572" lon="6.25857">
        <ele>1315.294</ele>
        <time>2019-06-21T11:48:08Z</time>
      </trkpt>
      <trkpt lat="43.90571" lon="6.25868">
        <ele>1315.215</ele>
        <time>2019-06-21T11:48:09Z</time>
      </trkpt>
      <trkpt lat="43.90574" lon="6.2588">
        <ele>1315.222</ele>
        <time>2019-06-21T11:48:10Z</time>
      </trkpt>
      <trkpt lat="43.90575" lon="6.25891">
        <ele>1317.348</ele>
        <time>2019-06-21T11:48:11Z</time>
      </trkpt>
      <trkpt lat="43.90576" lon="6.25902">
        <ele>1317.373</ele>
        <time>2019-06-21T11:48:12Z</time>
      </trkpt>
      <trkpt lat="43.90579" lon="6.25912">
        <ele>1317.354</ele>
        <time>2019-06-21T11:48:13Z</time>
      </trkpt>
      <trkpt lat="43.90581" lon="6.25921">
        <ele>1317.318</ele>
        <time>2019-06-21T11:48:14Z</time>
      </trkpt>
      <trkpt lat="43.90584" lon="6.25931">
        <ele>1317.375</ele>
        <time>2019-06-21T11:48:15Z</time>
      </trkpt>
      <trkpt lat="43.90584" lon="6.25942">
        <ele>1319.728</ele>
        <time>2019-06-21T11:48:16Z</time>
      </trkpt>
      <trkpt lat="43.90585" lon="6.25953">
        <ele>1319.72</ele>
        <time>2019-06-21T11:48:17Z</time>
      </trkpt>
      <trkpt lat="43.90584" lon="6.25962">
        <ele>1319.708</ele>
        <time>2019-06-21T11:48:18Z</time>
      </trkpt>
      <trkpt lat="43.90582" lon="6.25972">
        <ele>1319.76</ele>
        <time>2019-06-21T11:48:19Z</time>
      </trkpt>
      <trkpt lat="43.9058" lon="6.25983">
        <ele>1319.754</ele>
        <time>2019-06-21T11:48:20Z</time>
      </trkpt>
      <trkpt lat="43.90576" lon="6.25992">
        <ele>1319.795</ele>
        <time>2019-06-21T11:48:21Z</time>
      </trkpt>
      <trkpt lat="43.90573" lon="6.26002">
        <ele>1319.772</ele>
        <time>2019-06-21T11:48:22Z</time>
      </trkpt>
      <trkpt lat="43.9057" lon="6.2601">
        <ele>1323.258</ele>
        <time>2019-06-21T11:48:23Z</time>
      </trkpt>
      <trkpt lat="43.90566" lon="6.26021">
        <ele>1323.823</ele>
        <time>2019-06-21T11:48:24Z</time>
      </trkpt>
      <trkpt lat="43.90563" lon="6.26032">
        <ele>1323.874</ele>
        <time>2019-06-21T11:48:25Z</time>
      </trkpt>
      <trkpt lat="43.90559" lon="6.26042">
        <ele>1323.898</ele>
        <time>2019-06-21T11:48:26Z</time>
      </trkpt>
      <trkpt lat="43.90553" lon="6.26053">
        <ele>1323.846</ele>
        <time>2019-06-21T11:48:27Z</time>
      </trkpt>
      <trkpt lat="43.90549" lon="6.26064">
        <ele>1323.888</ele>
        <time>2019-06-21T11:48:28Z</time>
      </trkpt>
      <trkpt lat="43.90545" lon="6.26074">
        <ele>1323.816</ele>
        <time>2019-06-21T11:48:29Z</time>
      </trkpt>
      <trkpt lat="43.90539" lon="6.26083">
        <ele>1323.808</ele>
        <time>2019-06-21T11:48:30Z</time>
      </trkpt>
      <trkpt lat="43.90531" lon="6.26091">
        <ele>1323.837</ele>
        <time>2019-06-21T11:48:31Z</time>
      </trkpt>
      <trkpt lat="43.90526" lon="6.26099">
        <ele>1323.871</ele>
        <time>2019-06-21T11:48:32Z</time>
      </trkpt>
      <trkpt lat="43.90519" lon="6.26105">
        <ele>1329.172</ele>
        <time>2019-06-21T11:48:33Z</time>
      </trkpt>
      <trkpt lat="43.90518" lon="6.26113">
        <ele>1329.139</ele>
        <time>2019-06-21T11:48:34Z</time>
      </trkpt>
      <trkpt lat="43.90513" lon="6.26121">
        <ele>1329.115</ele>
        <time>2019-06-21T11:48:35Z</time>
      </trkpt>
      <trkpt lat="43.90507" lon="6.26128">
        <ele>1329.18</ele>
        <time>2019-06-21T11:48:36Z</time>
      </trkpt>
      <trkpt lat="43.90502" lon="6.26138">
        <ele>1329.181</ele>
        <time>2019-06-21T11:48:37Z</time>
      </trkpt>
      <trkpt lat="43.90497" lon="6.26148">
        <ele>1329.195</ele>
        <time>2019-06-21T11:48:38Z</time>
      </trkpt>
      <trkpt lat="43.9049" lon="6.26156">
        <ele>1329.128</ele>
        <time>2019-06-21T11:48:39Z</time>
      </trkpt>
      <trkpt lat="43.90482" lon="6.26163">
        <ele>1329.189</ele>
        <time>2019-06-21T11:48:40Z</time>
      </trkpt>
      <trkpt lat="43.90476" lon="6.26172">
        <ele>1333.117</ele>
        <time>2019-06-21T11:48:41Z</time>
      </trkpt>
      <trkpt lat="43.90471" lon="6.26179">
        <ele>1333.108</ele>
        <time>2019-06-21T11:48:42Z</time>
      </trkpt>
      <trkpt lat="43.90465" lon="6.26186">
        <ele>1333.165</ele>
        <time>2019-06-21T11:48:43Z</time>
      </trkpt>
      <trkpt lat="43.90457" lon="6.26191">
        <ele>1333.159</ele>
        <time>2019-06-21T11:48:44Z</time>
      </trkpt>
      <trkpt lat="43.90451" lon="6.26199">
        <ele>1333.15</ele>
        <time>2019-06-21T11:48:45Z</time>
      </trkpt>
      <trkpt lat="43.90445" lon="6.26207">
        <ele>1333.127</ele>
        <time>2019-06-21T11:48:46Z</time>
      </trkpt>
      <trkpt lat="43.9044" lon="6.26213">
        <ele>1336.153</ele>
        <time>2019-06-21T11:48:47Z</time>
      </trkpt>
      <trkpt lat="43.90434" lon="6.26219">
        <ele>1336.188</ele>
        <time>2019-06-21T11:48:48Z</time>
      </trkpt>
      <trkpt lat="43.90428" lon="6.26226">
        <ele>1336.189</ele>
        <time>2019-06-21T11:48:49Z</time>
      </trkpt>
      <trkpt lat="43.90421" lon="6.26232">
        <ele>1336.153</ele>
        <time>2019-06-21T11:48:50Z</time>
      </trkpt>
      <trkpt lat="43.90413" lon="6.26236">
        <ele>1336.169</ele>
        <time>2019-06-21T11:48:51Z</time>
      </trkpt>
      <trkpt lat="43.90406" lon="6.26241">
        <ele>1336.104</ele>
        <time>2019-06-21T11:48:52Z</time>
      </trkpt>
      <trkpt lat="43.90399" lon="6.2625">
        <ele>1336.124</ele>
        <time>2019-06-21T11:48:53Z</time>
      </trkpt>
      <trkpt lat="43.90393" lon="6.26256">
        <ele>1337.008</ele>
        <time>2019-06-21T11:48:54Z</time>
      </trkpt>
      <trkpt lat="43.90382" lon="6.26259">
        <ele>1337.019</ele>
        <time>2019-06-21T11:48:55Z</time>
      </trkpt>
      <trkpt lat="43.90374" lon="6.26265">
        <ele>1337.023</ele>
        <time>2019-06-21T11:48:56Z</time>
      </trkpt>
      <trkpt lat="43.90362" lon="6.26264">
        <ele>1337.094</ele>
        <time>2019-06-21T11:48:57Z</time>
      </trkpt>
      <trkpt lat="43.90355" lon="6.26267">
        <ele>1337.061</ele>
        <time>2019-06-21T11:48:58Z</time>
      </trkpt>
      <trkpt lat="43.90347" lon="6.26268">
        <ele>1337.017</ele>
        <time>2019-06-21T11:48:59Z</time>
      </trkpt>
      <trkpt lat="43.90341" lon="6.26269">
        <ele>1337.072</ele>
        <time>2019-06-21T11:49:00Z</time>
      </trkpt>
      <trkpt lat="43.90333" lon="6.26269">
        <ele>1337.013</ele>
        <time>2019-06-21T11:49:01Z</time>
      </trkpt>
      <trkpt lat="43.90327" lon="6.26269">
        <ele>1337.997</ele>
        <time>2019-06-21T11:49:02Z</time>
      </trkpt>
      <trkpt lat="43.90322" lon="6.26267">
        <ele>1337.984</ele>
        <time>2019-06-21T11:49:03Z</time>
      </trkpt>
      <trkpt lat="43.90317" lon="6.26258">
        <ele>1337.907</ele>
        <time>2019-06-21T11:49:05Z</time>
      </trkpt>
      <trkpt lat="43.90317" lon="6.26251">
        <ele>1337.917</ele>
        <time>2019-06-21T11:49:06Z</time>
      </trkpt>
      <trkpt lat="43.90317" lon="6.26242">
        <ele>1336.408</ele>
        <time>2019-06-21T11:49:07Z</time>
      </trkpt>
      <trkpt lat="43.9032" lon="6.26234">
        <ele>1336.481</ele>
        <time>2019-06-21T11:49:08Z</time>
      </trkpt>
      <trkpt lat="43.90322" lon="6.26225">
        <ele>1336.435</ele>
        <time>2019-06-21T11:49:09Z</time>
      </trkpt>
      <trkpt lat="43.90323" lon="6.26216">
        <ele>1336.446</ele>
        <time>2019-06-21T11:49:10Z</time>
      </trkpt>
      <trkpt lat="43.90327" lon="6.26205">
        <ele>1336.483</ele>
        <time>2019-06-21T11:49:11Z</time>
      </trkpt>
      <trkpt lat="43.90329" lon="6.26196">
        <ele>1336.459</ele>
        <time>2019-06-21T11:49:12Z</time>
      </trkpt>
      <trkpt lat="43.90332" lon="6.26187">
        <ele>1336.444</ele>
        <time>2019-06-21T11:49:13Z</time>
      </trkpt>
      <trkpt lat="43.90337" lon="6.26178">
        <ele>1336.265</ele>
        <time>2019-06-21T11:49:14Z</time>
      </trkpt>
      <trkpt lat="43.90341" lon="6.2617">
        <ele>1336.249</ele>
        <time>2019-06-21T11:49:15Z</time>
      </trkpt>
      <trkpt lat="43.90345" lon="6.26163">
        <ele>1336.247</ele>
        <time>2019-06-21T11:49:16Z</time>
      </trkpt>
      <trkpt lat="43.90349" lon="6.26155">
        <ele>1336.229</ele>
        <time>2019-06-21T11:49:17Z</time>
      </trkpt>
      <trkpt lat="43.90352" lon="6.26147">
        <ele>1336.221</ele>
        <time>2019-06-21T11:49:18Z</time>
      </trkpt>
      <trkpt lat="43.90354" lon="6.26139">
        <ele>1336.208</ele>
        <time>2019-06-21T11:49:19Z</time>
      </trkpt>
      <trkpt lat="43.9035" lon="6.26128">
        <ele>1335.157</ele>
        <time>2019-06-21T11:49:21Z</time>
      </trkpt>
      <trkpt lat="43.90344" lon="6.26129">
        <ele>1335.121</ele>
        <time>2019-06-21T11:49:22Z</time>
      </trkpt>
      <trkpt lat="43.90339" lon="6.26125">
        <ele>1335.152</ele>
        <time>2019-06-21T11:49:23Z</time>
      </trkpt>
      <trkpt lat="43.90333" lon="6.26129">
        <ele>1335.159</ele>
        <time>2019-06-21T11:49:24Z</time>
      </trkpt>
      <trkpt lat="43.90328" lon="6.2613">
        <ele>1335.195</ele>
        <time>2019-06-21T11:49:25Z</time>
      </trkpt>
      <trkpt lat="43.90321" lon="6.2613">
        <ele>1335.14</ele>
        <time>2019-06-21T11:49:26Z</time>
      </trkpt>
      <trkpt lat="43.90315" lon="6.26131">
        <ele>1335.161</ele>
        <time>2019-06-21T11:49:27Z</time>
      </trkpt>
      <trkpt lat="43.90307" lon="6.26138">
        <ele>1334.065</ele>
        <time>2019-06-21T11:49:29Z</time>
      </trkpt>
      <trkpt lat="43.903" lon="6.26143">
        <ele>1334.086</ele>
        <time>2019-06-21T11:49:30Z</time>
      </trkpt>
      <trkpt lat="43.90293" lon="6.26146">
        <ele>1334.06</ele>
        <time>2019-06-21T11:49:31Z</time>
      </trkpt>
      <trkpt lat="43.90279" lon="6.26151">
        <ele>1332.626</ele>
        <time>2019-06-21T11:49:32Z</time>
      </trkpt>
      <trkpt lat="43.90268" lon="6.26157">
        <ele>1332.608</ele>
        <time>2019-06-21T11:49:33Z</time>
      </trkpt>
      <trkpt lat="43.90264" lon="6.26165">
        <ele>1332.681</ele>
        <time>2019-06-21T11:49:34Z</time>
      </trkpt>
      <trkpt lat="43.90257" lon="6.2617">
        <ele>1332.645</ele>
        <time>2019-06-21T11:49:35Z</time>
      </trkpt>
      <trkpt lat="43.90249" lon="6.26174">
        <ele>1332.696</ele>
        <time>2019-06-21T11:49:36Z</time>
      </trkpt>
      <trkpt lat="43.90241" lon="6.2618">
        <ele>1332.623</ele>
        <time>2019-06-21T11:49:37Z</time>
      </trkpt>
      <trkpt lat="43.90231" lon="6.26185">
        <ele>1328.769</ele>
        <time>2019-06-21T11:49:38Z</time>
      </trkpt>
      <trkpt lat="43.90225" lon="6.26194">
        <ele>1328.724</ele>
        <time>2019-06-21T11:49:39Z</time>
      </trkpt>
      <trkpt lat="43.90217" lon="6.26202">
        <ele>1328.755</ele>
        <time>2019-06-21T11:49:40Z</time>
      </trkpt>
      <trkpt lat="43.90211" lon="6.2621">
        <ele>1328.759</ele>
        <time>2019-06-21T11:49:41Z</time>
      </trkpt>
      <trkpt lat="43.90201" lon="6.26217">
        <ele>1328.743</ele>
        <time>2019-06-21T11:49:42Z</time>
      </trkpt>
      <trkpt lat="43.90191" lon="6.2623">
        <ele>1326.764</ele>
        <time>2019-06-21T11:49:44Z</time>
      </trkpt>
      <trkpt lat="43.90184" lon="6.26238">
        <ele>1326.71</ele>
        <time>2019-06-21T11:49:45Z</time>
      </trkpt>
      <trkpt lat="43.90174" lon="6.26245">
        <ele>1326.708</ele>
        <time>2019-06-21T11:49:46Z</time>
      </trkpt>
      <trkpt lat="43.90163" lon="6.26254">
        <ele>1326.777</ele>
        <time>2019-06-21T11:49:47Z</time>
      </trkpt>
      <trkpt lat="43.90154" lon="6.26261">
        <ele>1326.741</ele>
        <time>2019-06-21T11:49:48Z</time>
      </trkpt>
      <trkpt lat="43.9015" lon="6.26272">
        <ele>1326.782</ele>
        <time>2019-06-21T11:49:49Z</time>
      </trkpt>
      <trkpt lat="43.90146" lon="6.26279">
        <ele>1322.739</ele>
        <time>2019-06-21T11:49:50Z</time>
      </trkpt>
      <trkpt lat="43.90129" lon="6.26282">
        <ele>1322.755</ele>
        <time>2019-06-21T11:49:51Z</time>
      </trkpt>
      <trkpt lat="43.9012" lon="6.26292">
        <ele>1322.72</ele>
        <time>2019-06-21T11:49:52Z</time>
      </trkpt>
      <trkpt lat="43.9011" lon="6.263">
        <ele>1322.741</ele>
        <time>2019-06-21T11:49:53Z</time>
      </trkpt>
      <trkpt lat="43.90104" lon="6.26308">
        <ele>1322.725</ele>
        <time>2019-06-21T11:49:54Z</time>
      </trkpt>
      <trkpt lat="43.90099" lon="6.26314">
        <ele>1322.738</ele>
        <time>2019-06-21T11:49:55Z</time>
      </trkpt>
      <trkpt lat="43.90093" lon="6.26322">
        <ele>1322.77</ele>
        <time>2019-06-21T11:49:56Z</time>
      </trkpt>
      <trkpt lat="43.90084" lon="6.26329">
        <ele>1317.517</ele>
        <time>2019-06-21T11:49:57Z</time>
      </trkpt>
      <trkpt lat="43.90075" lon="6.26336">
        <ele>1317.508</ele>
        <time>2019-06-21T11:49:58Z</time>
      </trkpt>
      <trkpt lat="43.90065" lon="6.26345">
        <ele>1317.566</ele>
        <time>2019-06-21T11:49:59Z</time>
      </trkpt>
      <trkpt lat="43.90057" lon="6.26353">
        <ele>1317.52</ele>
        <time>2019-06-21T11:50:00Z</time>
      </trkpt>
      <trkpt lat="43.90048" lon="6.26362">
        <ele>1317.561</ele>
        <time>2019-06-21T11:50:01Z</time>
      </trkpt>
      <trkpt lat="43.90039" lon="6.26369">
        <ele>1317.578</ele>
        <time>2019-06-21T11:50:02Z</time>
      </trkpt>
      <trkpt lat="43.90029" lon="6.26369">
        <ele>1317.564</ele>
        <time>2019-06-21T11:50:03Z</time>
      </trkpt>
      <trkpt lat="43.9002" lon="6.2637">
        <ele>1317.579</ele>
        <time>2019-06-21T11:50:04Z</time>
      </trkpt>
      <trkpt lat="43.90011" lon="6.26373">
        <ele>1311.88</ele>
        <time>2019-06-21T11:50:05Z</time>
      </trkpt>
      <trkpt lat="43.90002" lon="6.26376">
        <ele>1311.824</ele>
        <time>2019-06-21T11:50:06Z</time>
      </trkpt>
      <trkpt lat="43.89993" lon="6.26378">
        <ele>1311.897</ele>
        <time>2019-06-21T11:50:07Z</time>
      </trkpt>
      <trkpt lat="43.89986" lon="6.26382">
        <ele>1311.823</ele>
        <time>2019-06-21T11:50:08Z</time>
      </trkpt>
      <trkpt lat="43.89977" lon="6.26385">
        <ele>1311.825</ele>
        <time>2019-06-21T11:50:09Z</time>
      </trkpt>
      <trkpt lat="43.89969" lon="6.26392">
        <ele>1311.808</ele>
        <time>2019-06-21T11:50:10Z</time>
      </trkpt>
      <trkpt lat="43.89962" lon="6.26399">
        <ele>1311.832</ele>
        <time>2019-06-21T11:50:11Z</time>
      </trkpt>
      <trkpt lat="43.89955" lon="6.26405">
        <ele>1307.856</ele>
        <time>2019-06-21T11:50:12Z</time>
      </trkpt>
      <trkpt lat="43.89946" lon="6.26409">
        <ele>1307.837</ele>
        <time>2019-06-21T11:50:13Z</time>
      </trkpt>
      <trkpt lat="43.89939" lon="6.26415">
        <ele>1307.894</ele>
        <time>2019-06-21T11:50:14Z</time>
      </trkpt>
      <trkpt lat="43.89932" lon="6.26423">
        <ele>1307.82</ele>
        <time>2019-06-21T11:50:15Z</time>
      </trkpt>
      <trkpt lat="43.89922" lon="6.26423">
        <ele>1307.865</ele>
        <time>2019-06-21T11:50:16Z</time>
      </trkpt>
      <trkpt lat="43.89916" lon="6.26429">
        <ele>1307.866</ele>
        <time>2019-06-21T11:50:17Z</time>
      </trkpt>
      <trkpt lat="43.8991" lon="6.26434">
        <ele>1307.86</ele>
        <time>2019-06-21T11:50:18Z</time>
      </trkpt>
      <trkpt lat="43.89902" lon="6.26441">
        <ele>1305.433</ele>
        <time>2019-06-21T11:50:19Z</time>
      </trkpt>
      <trkpt lat="43.89895" lon="6.26448">
        <ele>1305.423</ele>
        <time>2019-06-21T11:50:20Z</time>
      </trkpt>
      <trkpt lat="43.89889" lon="6.26454">
        <ele>1305.415</ele>
        <time>2019-06-21T11:50:21Z</time>
      </trkpt>
      <trkpt lat="43.89879" lon="6.26458">
        <ele>1305.408</ele>
        <time>2019-06-21T11:50:22Z</time>
      </trkpt>
      <trkpt lat="43.89872" lon="6.26462">
        <ele>1305.466</ele>
        <time>2019-06-21T11:50:23Z</time>
      </trkpt>
      <trkpt lat="43.89865" lon="6.26467">
        <ele>1301.49</ele>
        <time>2019-06-21T11:50:24Z</time>
      </trkpt>
      <trkpt lat="43.89857" lon="6.26471">
        <ele>1301.441</ele>
        <time>2019-06-21T11:50:25Z</time>
      </trkpt>
      <trkpt lat="43.89846" lon="6.26475">
        <ele>1301.478</ele>
        <time>2019-06-21T11:50:26Z</time>
      </trkpt>
      <trkpt lat="43.89837" lon="6.26479">
        <ele>1301.454</ele>
        <time>2019-06-21T11:50:27Z</time>
      </trkpt>
      <trkpt lat="43.89831" lon="6.2648">
        <ele>1301.419</ele>
        <time>2019-06-21T11:50:28Z</time>
      </trkpt>
      <trkpt lat="43.89822" lon="6.2648">
        <ele>1301.42</ele>
        <time>2019-06-21T11:50:29Z</time>
      </trkpt>
      <trkpt lat="43.89813" lon="6.2648">
        <ele>1298.034</ele>
        <time>2019-06-21T11:50:30Z</time>
      </trkpt>
      <trkpt lat="43.89805" lon="6.26482">
        <ele>1298.032</ele>
        <time>2019-06-21T11:50:31Z</time>
      </trkpt>
      <trkpt lat="43.89796" lon="6.26483">
        <ele>1298.092</ele>
        <time>2019-06-21T11:50:32Z</time>
      </trkpt>
      <trkpt lat="43.89787" lon="6.26483">
        <ele>1298.011</ele>
        <time>2019-06-21T11:50:33Z</time>
      </trkpt>
      <trkpt lat="43.89779" lon="6.26483">
        <ele>1295.508</ele>
        <time>2019-06-21T11:50:34Z</time>
      </trkpt>
      <trkpt lat="43.8977" lon="6.26483">
        <ele>1295.536</ele>
        <time>2019-06-21T11:50:35Z</time>
      </trkpt>
      <trkpt lat="43.89761" lon="6.26483">
        <ele>1295.51</ele>
        <time>2019-06-21T11:50:36Z</time>
      </trkpt>
      <trkpt lat="43.89752" lon="6.26484">
        <ele>1295.521</ele>
        <time>2019-06-21T11:50:37Z</time>
      </trkpt>
      <trkpt lat="43.89744" lon="6.26484">
        <ele>1293.818</ele>
        <time>2019-06-21T11:50:38Z</time>
      </trkpt>
      <trkpt lat="43.89734" lon="6.26484">
        <ele>1293.814</ele>
        <time>2019-06-21T11:50:39Z</time>
      </trkpt>
      <trkpt lat="43.89726" lon="6.26485">
        <ele>1293.859</ele>
        <time>2019-06-21T11:50:40Z</time>
      </trkpt>
      <trkpt lat="43.8972" lon="6.26486">
        <ele>1293.87</ele>
        <time>2019-06-21T11:50:41Z</time>
      </trkpt>
      <trkpt lat="43.89712" lon="6.26491">
        <ele>1291.764</ele>
        <time>2019-06-21T11:50:42Z</time>
      </trkpt>
      <trkpt lat="43.89701" lon="6.26492">
        <ele>1291.766</ele>
        <time>2019-06-21T11:50:43Z</time>
      </trkpt>
      <trkpt lat="43.89693" lon="6.26496">
        <ele>1291.729</ele>
        <time>2019-06-21T11:50:44Z</time>
      </trkpt>
      <trkpt lat="43.89684" lon="6.26498">
        <ele>1291.721</ele>
        <time>2019-06-21T11:50:45Z</time>
      </trkpt>
      <trkpt lat="43.89676" lon="6.26498">
        <ele>1291.708</ele>
        <time>2019-06-21T11:50:46Z</time>
      </trkpt>
      <trkpt lat="43.89668" lon="6.26501">
        <ele>1289.799</ele>
        <time>2019-06-21T11:50:47Z</time>
      </trkpt>
      <trkpt lat="43.8966" lon="6.26501">
        <ele>1289.783</ele>
        <time>2019-06-21T11:50:48Z</time>
      </trkpt>
      <trkpt lat="43.8965" lon="6.26502">
        <ele>1289.764</ele>
        <time>2019-06-21T11:50:49Z</time>
      </trkpt>
      <trkpt lat="43.89638" lon="6.26504">
        <ele>1289.711</ele>
        <time>2019-06-21T11:50:50Z</time>
      </trkpt>
      <trkpt lat="43.89629" lon="6.26501">
        <ele>1289.767</ele>
        <time>2019-06-21T11:50:51Z</time>
      </trkpt>
      <trkpt lat="43.89619" lon="6.265">
        <ele>1287.952</ele>
        <time>2019-06-21T11:50:52Z</time>
      </trkpt>
      <trkpt lat="43.89614" lon="6.26502">
        <ele>1287.913</ele>
        <time>2019-06-21T11:50:53Z</time>
      </trkpt>
      <trkpt lat="43.89607" lon="6.26504">
        <ele>1287.937</ele>
        <time>2019-06-21T11:50:54Z</time>
      </trkpt>
      <trkpt lat="43.89598" lon="6.26506">
        <ele>1287.963</ele>
        <time>2019-06-21T11:50:55Z</time>
      </trkpt>
      <trkpt lat="43.89592" lon="6.26513">
        <ele>1287.944</ele>
        <time>2019-06-21T11:50:56Z</time>
      </trkpt>
      <trkpt lat="43.89584" lon="6.26517">
        <ele>1287.918</ele>
        <time>2019-06-21T11:50:57Z</time>
      </trkpt>
      <trkpt lat="43.89569" lon="6.26517">
        <ele>1285.308</ele>
        <time>2019-06-21T11:50:58Z</time>
      </trkpt>
      <trkpt lat="43.8956" lon="6.26521">
        <ele>1285.389</ele>
        <time>2019-06-21T11:50:59Z</time>
      </trkpt>
      <trkpt lat="43.89551" lon="6.26525">
        <ele>1285.393</ele>
        <time>2019-06-21T11:51:00Z</time>
      </trkpt>
      <trkpt lat="43.8954" lon="6.26533">
        <ele>1285.334</ele>
        <time>2019-06-21T11:51:01Z</time>
      </trkpt>
      <trkpt lat="43.89532" lon="6.26538">
        <ele>1285.321</ele>
        <time>2019-06-21T11:51:02Z</time>
      </trkpt>
      <trkpt lat="43.89526" lon="6.26546">
        <ele>1285.327</ele>
        <time>2019-06-21T11:51:03Z</time>
      </trkpt>
      <trkpt lat="43.8952" lon="6.26554">
        <ele>1285.312</ele>
        <time>2019-06-21T11:51:04Z</time>
      </trkpt>
      <trkpt lat="43.89511" lon="6.2656">
        <ele>1281.283</ele>
        <time>2019-06-21T11:51:05Z</time>
      </trkpt>
      <trkpt lat="43.89497" lon="6.26562">
        <ele>1281.287</ele>
        <time>2019-06-21T11:51:06Z</time>
      </trkpt>
      <trkpt lat="43.89488" lon="6.26568">
        <ele>1281.245</ele>
        <time>2019-06-21T11:51:07Z</time>
      </trkpt>
      <trkpt lat="43.89482" lon="6.26573">
        <ele>1281.247</ele>
        <time>2019-06-21T11:51:08Z</time>
      </trkpt>
      <trkpt lat="43.89474" lon="6.26577">
        <ele>1281.211</ele>
        <time>2019-06-21T11:51:09Z</time>
      </trkpt>
      <trkpt lat="43.89466" lon="6.26583">
        <ele>1281.208</ele>
        <time>2019-06-21T11:51:10Z</time>
      </trkpt>
      <trkpt lat="43.8946" lon="6.26589">
        <ele>1281.257</ele>
        <time>2019-06-21T11:51:11Z</time>
      </trkpt>
      <trkpt lat="43.89455" lon="6.26597">
        <ele>1275.981</ele>
        <time>2019-06-21T11:51:12Z</time>
      </trkpt>
      <trkpt lat="43.89446" lon="6.26604">
        <ele>1275.932</ele>
        <time>2019-06-21T11:51:13Z</time>
      </trkpt>
      <trkpt lat="43.89434" lon="6.2661">
        <ele>1275.949</ele>
        <time>2019-06-21T11:51:14Z</time>
      </trkpt>
      <trkpt lat="43.89426" lon="6.26617">
        <ele>1275.925</ele>
        <time>2019-06-21T11:51:15Z</time>
      </trkpt>
      <trkpt lat="43.89419" lon="6.26624">
        <ele>1275.95</ele>
        <time>2019-06-21T11:51:16Z</time>
      </trkpt>
      <trkpt lat="43.8941" lon="6.26629">
        <ele>1275.911</ele>
        <time>2019-06-21T11:51:17Z</time>
      </trkpt>
      <trkpt lat="43.89403" lon="6.26634">
        <ele>1275.925</ele>
        <time>2019-06-21T11:51:18Z</time>
      </trkpt>
      <trkpt lat="43.89395" lon="6.2664">
        <ele>1275.933</ele>
        <time>2019-06-21T11:51:19Z</time>
      </trkpt>
      <trkpt lat="43.89389" lon="6.26647">
        <ele>1269.723</ele>
        <time>2019-06-21T11:51:20Z</time>
      </trkpt>
      <trkpt lat="43.89382" lon="6.26653">
        <ele>1269.715</ele>
        <time>2019-06-21T11:51:21Z</time>
      </trkpt>
      <trkpt lat="43.89376" lon="6.26663">
        <ele>1269.708</ele>
        <time>2019-06-21T11:51:22Z</time>
      </trkpt>
      <trkpt lat="43.89365" lon="6.2667">
        <ele>1269.746</ele>
        <time>2019-06-21T11:51:23Z</time>
      </trkpt>
      <trkpt lat="43.89352" lon="6.26672">
        <ele>1269.71</ele>
        <time>2019-06-21T11:51:24Z</time>
      </trkpt>
      <trkpt lat="43.89345" lon="6.26677">
        <ele>1269.791</ele>
        <time>2019-06-21T11:51:25Z</time>
      </trkpt>
      <trkpt lat="43.89338" lon="6.26683">
        <ele>1269.728</ele>
        <time>2019-06-21T11:51:26Z</time>
      </trkpt>
      <trkpt lat="43.89326" lon="6.26692">
        <ele>1269.714</ele>
        <time>2019-06-21T11:51:27Z</time>
      </trkpt>
      <trkpt lat="43.89317" lon="6.26701">
        <ele>1264.389</ele>
        <time>2019-06-21T11:51:28Z</time>
      </trkpt>
      <trkpt lat="43.8931" lon="6.26709">
        <ele>1264.39</ele>
        <time>2019-06-21T11:51:29Z</time>
      </trkpt>
      <trkpt lat="43.89301" lon="6.26718">
        <ele>1264.314</ele>
        <time>2019-06-21T11:51:30Z</time>
      </trkpt>
      <trkpt lat="43.89293" lon="6.26727">
        <ele>1264.399</ele>
        <time>2019-06-21T11:51:31Z</time>
      </trkpt>
      <trkpt lat="43.89286" lon="6.26734">
        <ele>1264.307</ele>
        <time>2019-06-21T11:51:32Z</time>
      </trkpt>
      <trkpt lat="43.89279" lon="6.26741">
        <ele>1264.327</ele>
        <time>2019-06-21T11:51:33Z</time>
      </trkpt>
      <trkpt lat="43.89274" lon="6.26755">
        <ele>1264.308</ele>
        <time>2019-06-21T11:51:34Z</time>
      </trkpt>
      <trkpt lat="43.8927" lon="6.26765">
        <ele>1264.352</ele>
        <time>2019-06-21T11:51:35Z</time>
      </trkpt>
      <trkpt lat="43.89265" lon="6.26777">
        <ele>1259.266</ele>
        <time>2019-06-21T11:51:36Z</time>
      </trkpt>
      <trkpt lat="43.89259" lon="6.26786">
        <ele>1259.287</ele>
        <time>2019-06-21T11:51:37Z</time>
      </trkpt>
      <trkpt lat="43.89254" lon="6.26795">
        <ele>1259.254</ele>
        <time>2019-06-21T11:51:38Z</time>
      </trkpt>
      <trkpt lat="43.89248" lon="6.26801">
        <ele>1259.26</ele>
        <time>2019-06-21T11:51:39Z</time>
      </trkpt>
      <trkpt lat="43.89242" lon="6.26809">
        <ele>1259.235</ele>
        <time>2019-06-21T11:51:40Z</time>
      </trkpt>
      <trkpt lat="43.89235" lon="6.26815">
        <ele>1259.286</ele>
        <time>2019-06-21T11:51:41Z</time>
      </trkpt>
      <trkpt lat="43.89226" lon="6.2682">
        <ele>1259.28</ele>
        <time>2019-06-21T11:51:42Z</time>
      </trkpt>
      <trkpt lat="43.89216" lon="6.26825">
        <ele>1259.239</ele>
        <time>2019-06-21T11:51:43Z</time>
      </trkpt>
      <trkpt lat="43.89207" lon="6.26832">
        <ele>1255.101</ele>
        <time>2019-06-21T11:51:44Z</time>
      </trkpt>
      <trkpt lat="43.89199" lon="6.26837">
        <ele>1255.121</ele>
        <time>2019-06-21T11:51:45Z</time>
      </trkpt>
      <trkpt lat="43.89192" lon="6.26845">
        <ele>1255.108</ele>
        <time>2019-06-21T11:51:46Z</time>
      </trkpt>
      <trkpt lat="43.89187" lon="6.26851">
        <ele>1255.186</ele>
        <time>2019-06-21T11:51:47Z</time>
      </trkpt>
      <trkpt lat="43.8918" lon="6.26859">
        <ele>1255.19</ele>
        <time>2019-06-21T11:51:48Z</time>
      </trkpt>
      <trkpt lat="43.89173" lon="6.26864">
        <ele>1255.161</ele>
        <time>2019-06-21T11:51:49Z</time>
      </trkpt>
      <trkpt lat="43.89166" lon="6.2687">
        <ele>1255.188</ele>
        <time>2019-06-21T11:51:50Z</time>
      </trkpt>
      <trkpt lat="43.89158" lon="6.26882">
        <ele>1255.164</ele>
        <time>2019-06-21T11:51:51Z</time>
      </trkpt>
      <trkpt lat="43.89151" lon="6.26889">
        <ele>1255.169</ele>
        <time>2019-06-21T11:51:52Z</time>
      </trkpt>
      <trkpt lat="43.89143" lon="6.26894">
        <ele>1251.48</ele>
        <time>2019-06-21T11:51:53Z</time>
      </trkpt>
      <trkpt lat="43.89136" lon="6.26902">
        <ele>1251.484</ele>
        <time>2019-06-21T11:51:54Z</time>
      </trkpt>
      <trkpt lat="43.89129" lon="6.26907">
        <ele>1251.492</ele>
        <time>2019-06-21T11:51:55Z</time>
      </trkpt>
      <trkpt lat="43.89123" lon="6.26913">
        <ele>1251.473</ele>
        <time>2019-06-21T11:51:56Z</time>
      </trkpt>
      <trkpt lat="43.89115" lon="6.26917">
        <ele>1251.42</ele>
        <time>2019-06-21T11:51:57Z</time>
      </trkpt>
      <trkpt lat="43.89107" lon="6.26921">
        <ele>1251.408</ele>
        <time>2019-06-21T11:51:58Z</time>
      </trkpt>
      <trkpt lat="43.89097" lon="6.2692">
        <ele>1251.492</ele>
        <time>2019-06-21T11:51:59Z</time>
      </trkpt>
      <trkpt lat="43.89091" lon="6.2692">
        <ele>1251.486</ele>
        <time>2019-06-21T11:52:00Z</time>
      </trkpt>
      <trkpt lat="43.89084" lon="6.26923">
        <ele>1251.437</ele>
        <time>2019-06-21T11:52:01Z</time>
      </trkpt>
      <trkpt lat="43.89076" lon="6.26927">
        <ele>1247.354</ele>
        <time>2019-06-21T11:52:02Z</time>
      </trkpt>
      <trkpt lat="43.89069" lon="6.26931">
        <ele>1247.34</ele>
        <time>2019-06-21T11:52:03Z</time>
      </trkpt>
      <trkpt lat="43.89061" lon="6.26937">
        <ele>1247.315</ele>
        <time>2019-06-21T11:52:04Z</time>
      </trkpt>
      <trkpt lat="43.89056" lon="6.26944">
        <ele>1247.316</ele>
        <time>2019-06-21T11:52:05Z</time>
      </trkpt>
      <trkpt lat="43.89049" lon="6.2695">
        <ele>1247.36</ele>
        <time>2019-06-21T11:52:06Z</time>
      </trkpt>
      <trkpt lat="43.89044" lon="6.26956">
        <ele>1247.332</ele>
        <time>2019-06-21T11:52:07Z</time>
      </trkpt>
      <trkpt lat="43.89036" lon="6.2696">
        <ele>1247.392</ele>
        <time>2019-06-21T11:52:08Z</time>
      </trkpt>
      <trkpt lat="43.89029" lon="6.26964">
        <ele>1247.311</ele>
        <time>2019-06-21T11:52:09Z</time>
      </trkpt>
      <trkpt lat="43.89022" lon="6.2697">
        <ele>1244.508</ele>
        <time>2019-06-21T11:52:10Z</time>
      </trkpt>
      <trkpt lat="43.89016" lon="6.26974">
        <ele>1244.546</ele>
        <time>2019-06-21T11:52:11Z</time>
      </trkpt>
      <trkpt lat="43.89013" lon="6.26983">
        <ele>1244.55</ele>
        <time>2019-06-21T11:52:12Z</time>
      </trkpt>
      <trkpt lat="43.89007" lon="6.26994">
        <ele>1244.581</ele>
        <time>2019-06-21T11:52:13Z</time>
      </trkpt>
      <trkpt lat="43.89002" lon="6.27004">
        <ele>1244.578</ele>
        <time>2019-06-21T11:52:14Z</time>
      </trkpt>
      <trkpt lat="43.88997" lon="6.27012">
        <ele>1244.534</ele>
        <time>2019-06-21T11:52:15Z</time>
      </trkpt>
      <trkpt lat="43.88991" lon="6.2702">
        <ele>1242.159</ele>
        <time>2019-06-21T11:52:16Z</time>
      </trkpt>
      <trkpt lat="43.88985" lon="6.27029">
        <ele>1242.11</ele>
        <time>2019-06-21T11:52:17Z</time>
      </trkpt>
      <trkpt lat="43.8898" lon="6.27038">
        <ele>1242.134</ele>
        <time>2019-06-21T11:52:18Z</time>
      </trkpt>
      <trkpt lat="43.88974" lon="6.27046">
        <ele>1242.174</ele>
        <time>2019-06-21T11:52:19Z</time>
      </trkpt>
      <trkpt lat="43.88968" lon="6.27054">
        <ele>1242.156</ele>
        <time>2019-06-21T11:52:20Z</time>
      </trkpt>
      <trkpt lat="43.88963" lon="6.27062">
        <ele>1242.121</ele>
        <time>2019-06-21T11:52:21Z</time>
      </trkpt>
      <trkpt lat="43.88956" lon="6.2707">
        <ele>1239.508</ele>
        <time>2019-06-21T11:52:22Z</time>
      </trkpt>
      <trkpt lat="43.8895" lon="6.27076">
        <ele>1239.55</ele>
        <time>2019-06-21T11:52:23Z</time>
      </trkpt>
      <trkpt lat="43.88943" lon="6.27082">
        <ele>1239.524</ele>
        <time>2019-06-21T11:52:24Z</time>
      </trkpt>
      <trkpt lat="43.88938" lon="6.27087">
        <ele>1239.575</ele>
        <time>2019-06-21T11:52:25Z</time>
      </trkpt>
      <trkpt lat="43.88929" lon="6.27091">
        <ele>1239.562</ele>
        <time>2019-06-21T11:52:26Z</time>
      </trkpt>
      <trkpt lat="43.88922" lon="6.27096">
        <ele>1239.528</ele>
        <time>2019-06-21T11:52:27Z</time>
      </trkpt>
      <trkpt lat="43.88914" lon="6.27101">
        <ele>1239.513</ele>
        <time>2019-06-21T11:52:28Z</time>
      </trkpt>
      <trkpt lat="43.88908" lon="6.27105">
        <ele>1239.554</ele>
        <time>2019-06-21T11:52:29Z</time>
      </trkpt>
      <trkpt lat="43.889" lon="6.27108">
        <ele>1238.258</ele>
        <time>2019-06-21T11:52:30Z</time>
      </trkpt>
      <trkpt lat="43.88893" lon="6.27112">
        <ele>1238.227</ele>
        <time>2019-06-21T11:52:31Z</time>
      </trkpt>
      <trkpt lat="43.88886" lon="6.27115">
        <ele>1238.268</ele>
        <time>2019-06-21T11:52:32Z</time>
      </trkpt>
      <trkpt lat="43.88879" lon="6.27119">
        <ele>1238.214</ele>
        <time>2019-06-21T11:52:33Z</time>
      </trkpt>
      <trkpt lat="43.88871" lon="6.27123">
        <ele>1238.208</ele>
        <time>2019-06-21T11:52:34Z</time>
      </trkpt>
      <trkpt lat="43.88865" lon="6.27126">
        <ele>1236.495</ele>
        <time>2019-06-21T11:52:35Z</time>
      </trkpt>
      <trkpt lat="43.88857" lon="6.27129">
        <ele>1236.469</ele>
        <time>2019-06-21T11:52:36Z</time>
      </trkpt>
      <trkpt lat="43.8885" lon="6.27133">
        <ele>1236.45</ele>
        <time>2019-06-21T11:52:37Z</time>
      </trkpt>
      <trkpt lat="43.88842" lon="6.27136">
        <ele>1236.467</ele>
        <time>2019-06-21T11:52:38Z</time>
      </trkpt>
      <trkpt lat="43.88835" lon="6.27139">
        <ele>1236.443</ele>
        <time>2019-06-21T11:52:39Z</time>
      </trkpt>
      <trkpt lat="43.88828" lon="6.27143">
        <ele>1236.478</ele>
        <time>2019-06-21T11:52:40Z</time>
      </trkpt>
      <trkpt lat="43.88821" lon="6.27146">
        <ele>1236.449</ele>
        <time>2019-06-21T11:52:41Z</time>
      </trkpt>
      <trkpt lat="43.88814" lon="6.2715">
        <ele>1236.473</ele>
        <time>2019-06-21T11:52:42Z</time>
      </trkpt>
      <trkpt lat="43.88809" lon="6.27156">
        <ele>1233.811</ele>
        <time>2019-06-21T11:52:43Z</time>
      </trkpt>
      <trkpt lat="43.88805" lon="6.27163">
        <ele>1233.821</ele>
        <time>2019-06-21T11:52:44Z</time>
      </trkpt>
      <trkpt lat="43.88801" lon="6.27171">
        <ele>1233.803</ele>
        <time>2019-06-21T11:52:45Z</time>
      </trkpt>
      <trkpt lat="43.88797" lon="6.2718">
        <ele>1233.808</ele>
        <time>2019-06-21T11:52:46Z</time>
      </trkpt>
      <trkpt lat="43.88794" lon="6.27189">
        <ele>1233.824</ele>
        <time>2019-06-21T11:52:47Z</time>
      </trkpt>
      <trkpt lat="43.88789" lon="6.27197">
        <ele>1233.838</ele>
        <time>2019-06-21T11:52:48Z</time>
      </trkpt>
      <trkpt lat="43.88785" lon="6.27204">
        <ele>1233.889</ele>
        <time>2019-06-21T11:52:49Z</time>
      </trkpt>
      <trkpt lat="43.88781" lon="6.27211">
        <ele>1233.836</ele>
        <time>2019-06-21T11:52:50Z</time>
      </trkpt>
      <trkpt lat="43.88775" lon="6.27217">
        <ele>1230.962</ele>
        <time>2019-06-21T11:52:51Z</time>
      </trkpt>
      <trkpt lat="43.88765" lon="6.27222">
        <ele>1230.977</ele>
        <time>2019-06-21T11:52:52Z</time>
      </trkpt>
      <trkpt lat="43.88758" lon="6.27226">
        <ele>1230.928</ele>
        <time>2019-06-21T11:52:53Z</time>
      </trkpt>
      <trkpt lat="43.88749" lon="6.27227">
        <ele>1230.972</ele>
        <time>2019-06-21T11:52:54Z</time>
      </trkpt>
      <trkpt lat="43.88741" lon="6.27228">
        <ele>1230.952</ele>
        <time>2019-06-21T11:52:55Z</time>
      </trkpt>
      <trkpt lat="43.88733" lon="6.27227">
        <ele>1230.953</ele>
        <time>2019-06-21T11:52:57Z</time>
      </trkpt>
      <trkpt lat="43.88723" lon="6.27226">
        <ele>1230.908</ele>
        <time>2019-06-21T11:52:58Z</time>
      </trkpt>
      <trkpt lat="43.88716" lon="6.27229">
        <ele>1230.308</ele>
        <time>2019-06-21T11:52:59Z</time>
      </trkpt>
      <trkpt lat="43.88709" lon="6.27235">
        <ele>1230.378</ele>
        <time>2019-06-21T11:53:00Z</time>
      </trkpt>
      <trkpt lat="43.88703" lon="6.27242">
        <ele>1230.392</ele>
        <time>2019-06-21T11:53:01Z</time>
      </trkpt>
      <trkpt lat="43.88696" lon="6.27249">
        <ele>1230.383</ele>
        <time>2019-06-21T11:53:02Z</time>
      </trkpt>
      <trkpt lat="43.88691" lon="6.27258">
        <ele>1230.35</ele>
        <time>2019-06-21T11:53:03Z</time>
      </trkpt>
      <trkpt lat="43.88686" lon="6.27266">
        <ele>1230.336</ele>
        <time>2019-06-21T11:53:04Z</time>
      </trkpt>
      <trkpt lat="43.88678" lon="6.27275">
        <ele>1230.371</ele>
        <time>2019-06-21T11:53:05Z</time>
      </trkpt>
      <trkpt lat="43.88675" lon="6.27284">
        <ele>1229.462</ele>
        <time>2019-06-21T11:53:06Z</time>
      </trkpt>
      <trkpt lat="43.8867" lon="6.27293">
        <ele>1229.416</ele>
        <time>2019-06-21T11:53:07Z</time>
      </trkpt>
      <trkpt lat="43.8866" lon="6.27296">
        <ele>1229.433</ele>
        <time>2019-06-21T11:53:08Z</time>
      </trkpt>
      <trkpt lat="43.88656" lon="6.27304">
        <ele>1229.423</ele>
        <time>2019-06-21T11:53:09Z</time>
      </trkpt>
      <trkpt lat="43.88646" lon="6.27313">
        <ele>1229.415</ele>
        <time>2019-06-21T11:53:10Z</time>
      </trkpt>
      <trkpt lat="43.88639" lon="6.27319">
        <ele>1229.408</ele>
        <time>2019-06-21T11:53:11Z</time>
      </trkpt>
      <trkpt lat="43.88636" lon="6.27328">
        <ele>1228.366</ele>
        <time>2019-06-21T11:53:12Z</time>
      </trkpt>
      <trkpt lat="43.8863" lon="6.27336">
        <ele>1228.37</ele>
        <time>2019-06-21T11:53:13Z</time>
      </trkpt>
      <trkpt lat="43.88621" lon="6.27345">
        <ele>1228.361</ele>
        <time>2019-06-21T11:53:14Z</time>
      </trkpt>
      <trkpt lat="43.88615" lon="6.27353">
        <ele>1228.388</ele>
        <time>2019-06-21T11:53:15Z</time>
      </trkpt>
      <trkpt lat="43.88612" lon="6.27361">
        <ele>1227.574</ele>
        <time>2019-06-21T11:53:16Z</time>
      </trkpt>
      <trkpt lat="43.88604" lon="6.27371">
        <ele>1227.589</ele>
        <time>2019-06-21T11:53:17Z</time>
      </trkpt>
      <trkpt lat="43.88598" lon="6.27381">
        <ele>1227.56</ele>
        <time>2019-06-21T11:53:18Z</time>
      </trkpt>
      <trkpt lat="43.88592" lon="6.27391">
        <ele>1227.594</ele>
        <time>2019-06-21T11:53:19Z</time>
      </trkpt>
      <trkpt lat="43.88586" lon="6.274">
        <ele>1227.574</ele>
        <time>2019-06-21T11:53:20Z</time>
      </trkpt>
      <trkpt lat="43.88579" lon="6.2741">
        <ele>1226.456</ele>
        <time>2019-06-21T11:53:21Z</time>
      </trkpt>
      <trkpt lat="43.88573" lon="6.27418">
        <ele>1226.421</ele>
        <time>2019-06-21T11:53:22Z</time>
      </trkpt>
      <trkpt lat="43.88565" lon="6.27427">
        <ele>1226.408</ele>
        <time>2019-06-21T11:53:23Z</time>
      </trkpt>
      <trkpt lat="43.88562" lon="6.27435">
        <ele>1226.41</ele>
        <time>2019-06-21T11:53:24Z</time>
      </trkpt>
      <trkpt lat="43.88554" lon="6.27441">
        <ele>1224.844</ele>
        <time>2019-06-21T11:53:25Z</time>
      </trkpt>
      <trkpt lat="43.88544" lon="6.27447">
        <ele>1224.875</ele>
        <time>2019-06-21T11:53:26Z</time>
      </trkpt>
      <trkpt lat="43.88537" lon="6.27452">
        <ele>1224.862</ele>
        <time>2019-06-21T11:53:27Z</time>
      </trkpt>
      <trkpt lat="43.8853" lon="6.27457">
        <ele>1224.898</ele>
        <time>2019-06-21T11:53:28Z</time>
      </trkpt>
      <trkpt lat="43.88523" lon="6.27461">
        <ele>1224.893</ele>
        <time>2019-06-21T11:53:29Z</time>
      </trkpt>
      <trkpt lat="43.88514" lon="6.27464">
        <ele>1224.834</ele>
        <time>2019-06-21T11:53:30Z</time>
      </trkpt>
      <trkpt lat="43.88507" lon="6.27467">
        <ele>1223.838</ele>
        <time>2019-06-21T11:53:31Z</time>
      </trkpt>
      <trkpt lat="43.88501" lon="6.2747">
        <ele>1223.824</ele>
        <time>2019-06-21T11:53:32Z</time>
      </trkpt>
      <trkpt lat="43.88494" lon="6.27473">
        <ele>1223.804</ele>
        <time>2019-06-21T11:53:33Z</time>
      </trkpt>
      <trkpt lat="43.88484" lon="6.27474">
        <ele>1222.614</ele>
        <time>2019-06-21T11:53:34Z</time>
      </trkpt>
      <trkpt lat="43.88473" lon="6.27477">
        <ele>1222.608</ele>
        <time>2019-06-21T11:53:35Z</time>
      </trkpt>
      <trkpt lat="43.88466" lon="6.27483">
        <ele>1222.665</ele>
        <time>2019-06-21T11:53:36Z</time>
      </trkpt>
      <trkpt lat="43.88457" lon="6.27489">
        <ele>1222.679</ele>
        <time>2019-06-21T11:53:37Z</time>
      </trkpt>
      <trkpt lat="43.88453" lon="6.27497">
        <ele>1221.12</ele>
        <time>2019-06-21T11:53:38Z</time>
      </trkpt>
      <trkpt lat="43.88447" lon="6.27505">
        <ele>1221.177</ele>
        <time>2019-06-21T11:53:39Z</time>
      </trkpt>
      <trkpt lat="43.8844" lon="6.27512">
        <ele>1221.183</ele>
        <time>2019-06-21T11:53:40Z</time>
      </trkpt>
      <trkpt lat="43.88434" lon="6.27522">
        <ele>1221.138</ele>
        <time>2019-06-21T11:53:41Z</time>
      </trkpt>
      <trkpt lat="43.8843" lon="6.27531">
        <ele>1219.659</ele>
        <time>2019-06-21T11:53:42Z</time>
      </trkpt>
      <trkpt lat="43.88425" lon="6.27542">
        <ele>1219.653</ele>
        <time>2019-06-21T11:53:43Z</time>
      </trkpt>
      <trkpt lat="43.8842" lon="6.2755">
        <ele>1218.999</ele>
        <time>2019-06-21T11:53:44Z</time>
      </trkpt>
      <trkpt lat="43.88418" lon="6.27561">
        <ele>1218.907</ele>
        <time>2019-06-21T11:53:45Z</time>
      </trkpt>
      <trkpt lat="43.88414" lon="6.27571">
        <ele>1218.927</ele>
        <time>2019-06-21T11:53:46Z</time>
      </trkpt>
      <trkpt lat="43.88408" lon="6.27581">
        <ele>1217.808</ele>
        <time>2019-06-21T11:53:47Z</time>
      </trkpt>
      <trkpt lat="43.88407" lon="6.2759">
        <ele>1217.892</ele>
        <time>2019-06-21T11:53:48Z</time>
      </trkpt>
      <trkpt lat="43.88401" lon="6.27595">
        <ele>1217.886</ele>
        <time>2019-06-21T11:53:49Z</time>
      </trkpt>
      <trkpt lat="43.88397" lon="6.27603">
        <ele>1217.067</ele>
        <time>2019-06-21T11:53:50Z</time>
      </trkpt>
      <trkpt lat="43.88391" lon="6.27609">
        <ele>1217.034</ele>
        <time>2019-06-21T11:53:51Z</time>
      </trkpt>
      <trkpt lat="43.88384" lon="6.27613">
        <ele>1217.01</ele>
        <time>2019-06-21T11:53:52Z</time>
      </trkpt>
      <trkpt lat="43.88376" lon="6.27617">
        <ele>1216.275</ele>
        <time>2019-06-21T11:53:53Z</time>
      </trkpt>
      <trkpt lat="43.88366" lon="6.27617">
        <ele>1216.246</ele>
        <time>2019-06-21T11:53:54Z</time>
      </trkpt>
      <trkpt lat="43.88358" lon="6.27614">
        <ele>1215.42</ele>
        <time>2019-06-21T11:53:55Z</time>
      </trkpt>
      <trkpt lat="43.88349" lon="6.27609">
        <ele>1215.412</ele>
        <time>2019-06-21T11:53:56Z</time>
      </trkpt>
      <trkpt lat="43.8834" lon="6.27607">
        <ele>1215.432</ele>
        <time>2019-06-21T11:53:57Z</time>
      </trkpt>
      <trkpt lat="43.88332" lon="6.27602">
        <ele>1214.005</ele>
        <time>2019-06-21T11:53:58Z</time>
      </trkpt>
      <trkpt lat="43.88323" lon="6.27596">
        <ele>1213.608</ele>
        <time>2019-06-21T11:53:59Z</time>
      </trkpt>
      <trkpt lat="43.88315" lon="6.27591">
        <ele>1213.394</ele>
        <time>2019-06-21T11:54:00Z</time>
      </trkpt>
      <trkpt lat="43.88308" lon="6.27586">
        <ele>1212.948</ele>
        <time>2019-06-21T11:54:01Z</time>
      </trkpt>
      <trkpt lat="43.88301" lon="6.27581">
        <ele>1212.469</ele>
        <time>2019-06-21T11:54:02Z</time>
      </trkpt>
      <trkpt lat="43.88295" lon="6.27577">
        <ele>1211.736</ele>
        <time>2019-06-21T11:54:03Z</time>
      </trkpt>
      <trkpt lat="43.88288" lon="6.27573">
        <ele>1211.762</ele>
        <time>2019-06-21T11:54:04Z</time>
      </trkpt>
      <trkpt lat="43.8828" lon="6.27572">
        <ele>1211.177</ele>
        <time>2019-06-21T11:54:05Z</time>
      </trkpt>
      <trkpt lat="43.88271" lon="6.27573">
        <ele>1209.618</ele>
        <time>2019-06-21T11:54:06Z</time>
      </trkpt>
      <trkpt lat="43.88262" lon="6.27575">
        <ele>1209.052</ele>
        <time>2019-06-21T11:54:07Z</time>
      </trkpt>
      <trkpt lat="43.88255" lon="6.27582">
        <ele>1208.645</ele>
        <time>2019-06-21T11:54:08Z</time>
      </trkpt>
      <trkpt lat="43.88247" lon="6.27588">
        <ele>1208.347</ele>
        <time>2019-06-21T11:54:09Z</time>
      </trkpt>
      <trkpt lat="43.8824" lon="6.27595">
        <ele>1207.911</ele>
        <time>2019-06-21T11:54:10Z</time>
      </trkpt>
      <trkpt lat="43.88233" lon="6.27599">
        <ele>1207.608</ele>
        <time>2019-06-21T11:54:11Z</time>
      </trkpt>
      <trkpt lat="43.88225" lon="6.27602">
        <ele>1207.277</ele>
        <time>2019-06-21T11:54:12Z</time>
      </trkpt>
      <trkpt lat="43.88218" lon="6.27607">
        <ele>1206.711</ele>
        <time>2019-06-21T11:54:13Z</time>
      </trkpt>
      <trkpt lat="43.88212" lon="6.27611">
        <ele>1206.282</ele>
        <time>2019-06-21T11:54:14Z</time>
      </trkpt>
      <trkpt lat="43.88205" lon="6.27616">
        <ele>1205.859</ele>
        <time>2019-06-21T11:54:15Z</time>
      </trkpt>
      <trkpt lat="43.88197" lon="6.27623">
        <ele>1205.535</ele>
        <time>2019-06-21T11:54:16Z</time>
      </trkpt>
      <trkpt lat="43.882" lon="6.27632">
        <ele>1205.31</ele>
        <time>2019-06-21T11:54:17Z</time>
      </trkpt>
      <trkpt lat="43.88193" lon="6.2764">
        <ele>1205.261</ele>
        <time>2019-06-21T11:54:18Z</time>
      </trkpt>
      <trkpt lat="43.8819" lon="6.27648">
        <ele>1205.095</ele>
        <time>2019-06-21T11:54:19Z</time>
      </trkpt>
      <trkpt lat="43.88186" lon="6.27659">
        <ele>1204.899</ele>
        <time>2019-06-21T11:54:20Z</time>
      </trkpt>
      <trkpt lat="43.88181" lon="6.27667">
        <ele>1204.507</ele>
        <time>2019-06-21T11:54:21Z</time>
      </trkpt>
      <trkpt lat="43.88176" lon="6.27675">
        <ele>1204.027</ele>
        <time>2019-06-21T11:54:22Z</time>
      </trkpt>
      <trkpt lat="43.8817" lon="6.27683">
        <ele>1203.408</ele>
        <time>2019-06-21T11:54:23Z</time>
      </trkpt>
      <trkpt lat="43.88162" lon="6.27688">
        <ele>1202.922</ele>
        <time>2019-06-21T11:54:24Z</time>
      </trkpt>
      <trkpt lat="43.88155" lon="6.27696">
        <ele>1202.416</ele>
        <time>2019-06-21T11:54:25Z</time>
      </trkpt>
      <trkpt lat="43.88146" lon="6.27705">
        <ele>1201.947</ele>
        <time>2019-06-21T11:54:26Z</time>
      </trkpt>
      <trkpt lat="43.88138" lon="6.27712">
        <ele>1201.664</ele>
        <time>2019-06-21T11:54:27Z</time>
      </trkpt>
      <trkpt lat="43.88133" lon="6.2772">
        <ele>1201.21</ele>
        <time>2019-06-21T11:54:28Z</time>
      </trkpt>
      <trkpt lat="43.88129" lon="6.27727">
        <ele>1200.985</ele>
        <time>2019-06-21T11:54:29Z</time>
      </trkpt>
      <trkpt lat="43.88122" lon="6.27733">
        <ele>1200.516</ele>
        <time>2019-06-21T11:54:30Z</time>
      </trkpt>
      <trkpt lat="43.88112" lon="6.27738">
        <ele>1200.39</ele>
        <time>2019-06-21T11:54:31Z</time>
      </trkpt>
      <trkpt lat="43.88108" lon="6.27743">
        <ele>1200.189</ele>
        <time>2019-06-21T11:54:32Z</time>
      </trkpt>
      <trkpt lat="43.88101" lon="6.27749">
        <ele>1199.906</ele>
        <time>2019-06-21T11:54:33Z</time>
      </trkpt>
      <trkpt lat="43.88092" lon="6.27754">
        <ele>1199.726</ele>
        <time>2019-06-21T11:54:34Z</time>
      </trkpt>
      <trkpt lat="43.88085" lon="6.27759">
        <ele>1199.608</ele>
        <time>2019-06-21T11:54:35Z</time>
      </trkpt>
      <trkpt lat="43.88077" lon="6.27764">
        <ele>1199.551</ele>
        <time>2019-06-21T11:54:36Z</time>
      </trkpt>
      <trkpt lat="43.8807" lon="6.27768">
        <ele>1199.325</ele>
        <time>2019-06-21T11:54:37Z</time>
      </trkpt>
      <trkpt lat="43.88061" lon="6.27768">
        <ele>1199.236</ele>
        <time>2019-06-21T11:54:38Z</time>
      </trkpt>
      <trkpt lat="43.88052" lon="6.27769">
        <ele>1199.153</ele>
        <time>2019-06-21T11:54:39Z</time>
      </trkpt>
      <trkpt lat="43.88048" lon="6.27762">
        <ele>1198.979</ele>
        <time>2019-06-21T11:54:40Z</time>
      </trkpt>
      <trkpt lat="43.88043" lon="6.27754">
        <ele>1198.794</ele>
        <time>2019-06-21T11:54:41Z</time>
      </trkpt>
      <trkpt lat="43.88037" lon="6.2775">
        <ele>1198.535</ele>
        <time>2019-06-21T11:54:42Z</time>
      </trkpt>
      <trkpt lat="43.88032" lon="6.27744">
        <ele>1198.389</ele>
        <time>2019-06-21T11:54:43Z</time>
      </trkpt>
      <trkpt lat="43.88027" lon="6.27736">
        <ele>1198.178</ele>
        <time>2019-06-21T11:54:44Z</time>
      </trkpt>
      <trkpt lat="43.88022" lon="6.27727">
        <ele>1197.933</ele>
        <time>2019-06-21T11:54:45Z</time>
      </trkpt>
      <trkpt lat="43.88017" lon="6.27719">
        <ele>1197.826</ele>
        <time>2019-06-21T11:54:46Z</time>
      </trkpt>
      <trkpt lat="43.8801" lon="6.27714">
        <ele>1197.608</ele>
        <time>2019-06-21T11:54:47Z</time>
      </trkpt>
      <trkpt lat="43.88005" lon="6.27709">
        <ele>1197.51</ele>
        <time>2019-06-21T11:54:48Z</time>
      </trkpt>
      <trkpt lat="43.87998" lon="6.27703">
        <ele>1197.584</ele>
        <time>2019-06-21T11:54:49Z</time>
      </trkpt>
      <trkpt lat="43.87991" lon="6.27701">
        <ele>1197.575</ele>
        <time>2019-06-21T11:54:50Z</time>
      </trkpt>
      <trkpt lat="43.87985" lon="6.27697">
        <ele>1197.692</ele>
        <time>2019-06-21T11:54:51Z</time>
      </trkpt>
      <trkpt lat="43.87979" lon="6.27696">
        <ele>1197.618</ele>
        <time>2019-06-21T11:54:52Z</time>
      </trkpt>
      <trkpt lat="43.87973" lon="6.27696">
        <ele>1197.723</ele>
        <time>2019-06-21T11:54:53Z</time>
      </trkpt>
      <trkpt lat="43.87968" lon="6.27698">
        <ele>1197.734</ele>
        <time>2019-06-21T11:54:54Z</time>
      </trkpt>
      <trkpt lat="43.87964" lon="6.27702">
        <ele>1197.718</ele>
        <time>2019-06-21T11:54:55Z</time>
      </trkpt>
      <trkpt lat="43.8796" lon="6.27706">
        <ele>1197.796</ele>
        <time>2019-06-21T11:54:56Z</time>
      </trkpt>
      <trkpt lat="43.87955" lon="6.27715">
        <ele>1197.731</ele>
        <time>2019-06-21T11:54:57Z</time>
      </trkpt>
      <trkpt lat="43.87955" lon="6.27723">
        <ele>1197.824</ele>
        <time>2019-06-21T11:54:58Z</time>
      </trkpt>
      <trkpt lat="43.87953" lon="6.27731">
        <ele>1197.908</ele>
        <time>2019-06-21T11:54:59Z</time>
      </trkpt>
      <trkpt lat="43.87951" lon="6.27741">
        <ele>1198.182</ele>
        <time>2019-06-21T11:55:00Z</time>
      </trkpt>
      <trkpt lat="43.8795" lon="6.27751">
        <ele>1198.396</ele>
        <time>2019-06-21T11:55:01Z</time>
      </trkpt>
      <trkpt lat="43.8795" lon="6.2776">
        <ele>1198.427</ele>
        <time>2019-06-21T11:55:02Z</time>
      </trkpt>
      <trkpt lat="43.8795" lon="6.27769">
        <ele>1198.584</ele>
        <time>2019-06-21T11:55:03Z</time>
      </trkpt>
      <trkpt lat="43.87949" lon="6.27778">
        <ele>1198.62</ele>
        <time>2019-06-21T11:55:04Z</time>
      </trkpt>
      <trkpt lat="43.87944" lon="6.27782">
        <ele>1198.615</ele>
        <time>2019-06-21T11:55:05Z</time>
      </trkpt>
      <trkpt lat="43.87945" lon="6.2779">
        <ele>1198.686</ele>
        <time>2019-06-21T11:55:06Z</time>
      </trkpt>
      <trkpt lat="43.87941" lon="6.278">
        <ele>1198.63</ele>
        <time>2019-06-21T11:55:07Z</time>
      </trkpt>
      <trkpt lat="43.87938" lon="6.27809">
        <ele>1198.723</ele>
        <time>2019-06-21T11:55:08Z</time>
      </trkpt>
      <trkpt lat="43.87933" lon="6.27819">
        <ele>1198.883</ele>
        <time>2019-06-21T11:55:09Z</time>
      </trkpt>
      <trkpt lat="43.8793" lon="6.27829">
        <ele>1199.011</ele>
        <time>2019-06-21T11:55:10Z</time>
      </trkpt>
      <trkpt lat="43.87927" lon="6.2784">
        <ele>1199.208</ele>
        <time>2019-06-21T11:55:11Z</time>
      </trkpt>
      <trkpt lat="43.87926" lon="6.2785">
        <ele>1199.485</ele>
        <time>2019-06-21T11:55:12Z</time>
      </trkpt>
      <trkpt lat="43.87924" lon="6.2786">
        <ele>1199.539</ele>
        <time>2019-06-21T11:55:13Z</time>
      </trkpt>
      <trkpt lat="43.87918" lon="6.27869">
        <ele>1199.51</ele>
        <time>2019-06-21T11:55:14Z</time>
      </trkpt>
      <trkpt lat="43.87914" lon="6.27876">
        <ele>1199.577</ele>
        <time>2019-06-21T11:55:15Z</time>
      </trkpt>
      <trkpt lat="43.87909" lon="6.27883">
        <ele>1199.563</ele>
        <time>2019-06-21T11:55:16Z</time>
      </trkpt>
      <trkpt lat="43.87899" lon="6.27886">
        <ele>1199.528</ele>
        <time>2019-06-21T11:55:17Z</time>
      </trkpt>
      <trkpt lat="43.87892" lon="6.27887">
        <ele>1199.589</ele>
        <time>2019-06-21T11:55:18Z</time>
      </trkpt>
      <trkpt lat="43.87884" lon="6.27889">
        <ele>1199.613</ele>
        <time>2019-06-21T11:55:19Z</time>
      </trkpt>
      <trkpt lat="43.87878" lon="6.27881">
        <ele>1199.626</ele>
        <time>2019-06-21T11:55:20Z</time>
      </trkpt>
      <trkpt lat="43.87866" lon="6.2788">
        <ele>1199.647</ele>
        <time>2019-06-21T11:55:21Z</time>
      </trkpt>
      <trkpt lat="43.87857" lon="6.27879">
        <ele>1199.711</ele>
        <time>2019-06-21T11:55:22Z</time>
      </trkpt>
      <trkpt lat="43.87847" lon="6.27881">
        <ele>1199.708</ele>
        <time>2019-06-21T11:55:23Z</time>
      </trkpt>
      <trkpt lat="43.87844" lon="6.27889">
        <ele>1199.755</ele>
        <time>2019-06-21T11:55:24Z</time>
      </trkpt>
      <trkpt lat="43.87843" lon="6.279">
        <ele>1199.739</ele>
        <time>2019-06-21T11:55:25Z</time>
      </trkpt>
      <trkpt lat="43.87839" lon="6.27908">
        <ele>1199.84</ele>
        <time>2019-06-21T11:55:26Z</time>
      </trkpt>
      <trkpt lat="43.87835" lon="6.27916">
        <ele>1199.977</ele>
        <time>2019-06-21T11:55:27Z</time>
      </trkpt>
      <trkpt lat="43.87831" lon="6.27922">
        <ele>1200.143</ele>
        <time>2019-06-21T11:55:28Z</time>
      </trkpt>
      <trkpt lat="43.87829" lon="6.2793">
        <ele>1200.258</ele>
        <time>2019-06-21T11:55:29Z</time>
      </trkpt>
      <trkpt lat="43.87822" lon="6.27936">
        <ele>1200.359</ele>
        <time>2019-06-21T11:55:30Z</time>
      </trkpt>
      <trkpt lat="43.87815" lon="6.27942">
        <ele>1200.383</ele>
        <time>2019-06-21T11:55:31Z</time>
      </trkpt>
      <trkpt lat="43.87808" lon="6.27947">
        <ele>1200.272</ele>
        <time>2019-06-21T11:55:32Z</time>
      </trkpt>
      <trkpt lat="43.87798" lon="6.27953">
        <ele>1200.113</ele>
        <time>2019-06-21T11:55:33Z</time>
      </trkpt>
      <trkpt lat="43.87791" lon="6.27958">
        <ele>1200.014</ele>
        <time>2019-06-21T11:55:34Z</time>
      </trkpt>
      <trkpt lat="43.87787" lon="6.27964">
        <ele>1199.908</ele>
        <time>2019-06-21T11:55:35Z</time>
      </trkpt>
      <trkpt lat="43.87781" lon="6.2797">
        <ele>1199.98</ele>
        <time>2019-06-21T11:55:36Z</time>
      </trkpt>
      <trkpt lat="43.87772" lon="6.27973">
        <ele>1199.974</ele>
        <time>2019-06-21T11:55:37Z</time>
      </trkpt>
      <trkpt lat="43.87769" lon="6.2798">
        <ele>1200.075</ele>
        <time>2019-06-21T11:55:38Z</time>
      </trkpt>
      <trkpt lat="43.87763" lon="6.27986">
        <ele>1200.132</ele>
        <time>2019-06-21T11:55:39Z</time>
      </trkpt>
      <trkpt lat="43.87756" lon="6.27991">
        <ele>1200.218</ele>
        <time>2019-06-21T11:55:40Z</time>
      </trkpt>
      <trkpt lat="43.87744" lon="6.27995">
        <ele>1200.343</ele>
        <time>2019-06-21T11:55:41Z</time>
      </trkpt>
      <trkpt lat="43.87731" lon="6.27996">
        <ele>1200.534</ele>
        <time>2019-06-21T11:55:42Z</time>
      </trkpt>
      <trkpt lat="43.87724" lon="6.27998">
        <ele>1200.568</ele>
        <time>2019-06-21T11:55:43Z</time>
      </trkpt>
      <trkpt lat="43.87715" lon="6.28002">
        <ele>1200.521</ele>
        <time>2019-06-21T11:55:44Z</time>
      </trkpt>
      <trkpt lat="43.87707" lon="6.28002">
        <ele>1200.541</ele>
        <time>2019-06-21T11:55:45Z</time>
      </trkpt>
      <trkpt lat="43.87699" lon="6.28005">
        <ele>1200.505</ele>
        <time>2019-06-21T11:55:46Z</time>
      </trkpt>
      <trkpt lat="43.87691" lon="6.28008">
        <ele>1200.408</ele>
        <time>2019-06-21T11:55:47Z</time>
      </trkpt>
      <trkpt lat="43.87686" lon="6.28012">
        <ele>1200.395</ele>
        <time>2019-06-21T11:55:48Z</time>
      </trkpt>
      <trkpt lat="43.8768" lon="6.28012">
        <ele>1200.229</ele>
        <time>2019-06-21T11:55:49Z</time>
      </trkpt>
      <trkpt lat="43.87673" lon="6.28016">
        <ele>1200.08</ele>
        <time>2019-06-21T11:55:50Z</time>
      </trkpt>
      <trkpt lat="43.87666" lon="6.28017">
        <ele>1199.947</ele>
        <time>2019-06-21T11:55:51Z</time>
      </trkpt>
      <trkpt lat="43.87658" lon="6.2802">
        <ele>1199.993</ele>
        <time>2019-06-21T11:55:52Z</time>
      </trkpt>
      <trkpt lat="43.8765" lon="6.28021">
        <ele>1199.858</ele>
        <time>2019-06-21T11:55:53Z</time>
      </trkpt>
      <trkpt lat="43.87639" lon="6.28026">
        <ele>1199.739</ele>
        <time>2019-06-21T11:55:54Z</time>
      </trkpt>
      <trkpt lat="43.87631" lon="6.28033">
        <ele>1199.763</ele>
        <time>2019-06-21T11:55:55Z</time>
      </trkpt>
      <trkpt lat="43.87624" lon="6.2804">
        <ele>1199.657</ele>
        <time>2019-06-21T11:55:56Z</time>
      </trkpt>
      <trkpt lat="43.87617" lon="6.28045">
        <ele>1199.5</ele>
        <time>2019-06-21T11:55:57Z</time>
      </trkpt>
      <trkpt lat="43.8761" lon="6.28051">
        <ele>1199.52</ele>
        <time>2019-06-21T11:55:58Z</time>
      </trkpt>
      <trkpt lat="43.87602" lon="6.28057">
        <ele>1199.508</ele>
        <time>2019-06-21T11:55:59Z</time>
      </trkpt>
      <trkpt lat="43.87595" lon="6.28064">
        <ele>1199.568</ele>
        <time>2019-06-21T11:56:00Z</time>
      </trkpt>
      <trkpt lat="43.87589" lon="6.28072">
        <ele>1199.552</ele>
        <time>2019-06-21T11:56:01Z</time>
      </trkpt>
      <trkpt lat="43.87581" lon="6.28079">
        <ele>1199.623</ele>
        <time>2019-06-21T11:56:02Z</time>
      </trkpt>
      <trkpt lat="43.87573" lon="6.28087">
        <ele>1199.66</ele>
        <time>2019-06-21T11:56:03Z</time>
      </trkpt>
      <trkpt lat="43.87567" lon="6.28096">
        <ele>1199.696</ele>
        <time>2019-06-21T11:56:04Z</time>
      </trkpt>
      <trkpt lat="43.8756" lon="6.28103">
        <ele>1199.591</ele>
        <time>2019-06-21T11:56:05Z</time>
      </trkpt>
      <trkpt lat="43.87554" lon="6.28108">
        <ele>1199.392</ele>
        <time>2019-06-21T11:56:06Z</time>
      </trkpt>
      <trkpt lat="43.87545" lon="6.2811">
        <ele>1199.396</ele>
        <time>2019-06-21T11:56:07Z</time>
      </trkpt>
      <trkpt lat="43.87538" lon="6.28109">
        <ele>1198.782</ele>
        <time>2019-06-21T11:56:08Z</time>
      </trkpt>
      <trkpt lat="43.87531" lon="6.28109">
        <ele>1198.443</ele>
        <time>2019-06-21T11:56:09Z</time>
      </trkpt>
      <trkpt lat="43.87524" lon="6.28106">
        <ele>1198.217</ele>
        <time>2019-06-21T11:56:10Z</time>
      </trkpt>
      <trkpt lat="43.87516" lon="6.28103">
        <ele>1198.008</ele>
        <time>2019-06-21T11:56:11Z</time>
      </trkpt>
      <trkpt lat="43.87512" lon="6.281">
        <ele>1198.041</ele>
        <time>2019-06-21T11:56:12Z</time>
      </trkpt>
      <trkpt lat="43.87505" lon="6.28098">
        <ele>1197.915</ele>
        <time>2019-06-21T11:56:13Z</time>
      </trkpt>
      <trkpt lat="43.87497" lon="6.28101">
        <ele>1197.876</ele>
        <time>2019-06-21T11:56:14Z</time>
      </trkpt>
      <trkpt lat="43.8749" lon="6.28102">
        <ele>1197.863</ele>
        <time>2019-06-21T11:56:15Z</time>
      </trkpt>
      <trkpt lat="43.87483" lon="6.28104">
        <ele>1197.779</ele>
        <time>2019-06-21T11:56:16Z</time>
      </trkpt>
      <trkpt lat="43.87474" lon="6.28107">
        <ele>1197.684</ele>
        <time>2019-06-21T11:56:17Z</time>
      </trkpt>
      <trkpt lat="43.87463" lon="6.28106">
        <ele>1197.525</ele>
        <time>2019-06-21T11:56:18Z</time>
      </trkpt>
      <trkpt lat="43.87456" lon="6.28111">
        <ele>1197.519</ele>
        <time>2019-06-21T11:56:19Z</time>
      </trkpt>
      <trkpt lat="43.87443" lon="6.28113">
        <ele>1197.573</ele>
        <time>2019-06-21T11:56:20Z</time>
      </trkpt>
      <trkpt lat="43.87435" lon="6.28114">
        <ele>1197.585</ele>
        <time>2019-06-21T11:56:21Z</time>
      </trkpt>
      <trkpt lat="43.87428" lon="6.28122">
        <ele>1197.513</ele>
        <time>2019-06-21T11:56:22Z</time>
      </trkpt>
      <trkpt lat="43.87422" lon="6.28126">
        <ele>1197.508</ele>
        <time>2019-06-21T11:56:23Z</time>
      </trkpt>
      <trkpt lat="43.87414" lon="6.28132">
        <ele>1197.58</ele>
        <time>2019-06-21T11:56:24Z</time>
      </trkpt>
      <trkpt lat="43.87406" lon="6.28135">
        <ele>1197.524</ele>
        <time>2019-06-21T11:56:25Z</time>
      </trkpt>
      <trkpt lat="43.87399" lon="6.28141">
        <ele>1197.535</ele>
        <time>2019-06-21T11:56:26Z</time>
      </trkpt>
      <trkpt lat="43.87394" lon="6.28147">
        <ele>1197.562</ele>
        <time>2019-06-21T11:56:27Z</time>
      </trkpt>
      <trkpt lat="43.87386" lon="6.28151">
        <ele>1197.558</ele>
        <time>2019-06-21T11:56:28Z</time>
      </trkpt>
      <trkpt lat="43.87379" lon="6.28155">
        <ele>1197.583</ele>
        <time>2019-06-21T11:56:29Z</time>
      </trkpt>
      <trkpt lat="43.87369" lon="6.28159">
        <ele>1197.574</ele>
        <time>2019-06-21T11:56:30Z</time>
      </trkpt>
      <trkpt lat="43.8736" lon="6.28164">
        <ele>1197.678</ele>
        <time>2019-06-21T11:56:31Z</time>
      </trkpt>
      <trkpt lat="43.87354" lon="6.28168">
        <ele>1197.646</ele>
        <time>2019-06-21T11:56:32Z</time>
      </trkpt>
      <trkpt lat="43.87346" lon="6.28174">
        <ele>1197.688</ele>
        <time>2019-06-21T11:56:33Z</time>
      </trkpt>
      <trkpt lat="43.87337" lon="6.28179">
        <ele>1197.516</ele>
        <time>2019-06-21T11:56:34Z</time>
      </trkpt>
      <trkpt lat="43.87327" lon="6.28185">
        <ele>1197.508</ele>
        <time>2019-06-21T11:56:35Z</time>
      </trkpt>
      <trkpt lat="43.87317" lon="6.2819">
        <ele>1197.487</ele>
        <time>2019-06-21T11:56:36Z</time>
      </trkpt>
      <trkpt lat="43.87308" lon="6.28196">
        <ele>1197.461</ele>
        <time>2019-06-21T11:56:37Z</time>
      </trkpt>
      <trkpt lat="43.87301" lon="6.28203">
        <ele>1197.542</ele>
        <time>2019-06-21T11:56:38Z</time>
      </trkpt>
      <trkpt lat="43.87293" lon="6.2821">
        <ele>1197.579</ele>
        <time>2019-06-21T11:56:39Z</time>
      </trkpt>
      <trkpt lat="43.87287" lon="6.28217">
        <ele>1197.565</ele>
        <time>2019-06-21T11:56:40Z</time>
      </trkpt>
      <trkpt lat="43.87279" lon="6.28224">
        <ele>1197.37</ele>
        <time>2019-06-21T11:56:41Z</time>
      </trkpt>
      <trkpt lat="43.87272" lon="6.2823">
        <ele>1197.241</ele>
        <time>2019-06-21T11:56:42Z</time>
      </trkpt>
      <trkpt lat="43.87264" lon="6.28236">
        <ele>1196.815</ele>
        <time>2019-06-21T11:56:43Z</time>
      </trkpt>
      <trkpt lat="43.87257" lon="6.28243">
        <ele>1196.545</ele>
        <time>2019-06-21T11:56:44Z</time>
      </trkpt>
      <trkpt lat="43.8725" lon="6.2825">
        <ele>1196.547</ele>
        <time>2019-06-21T11:56:45Z</time>
      </trkpt>
      <trkpt lat="43.87242" lon="6.28258">
        <ele>1196.411</ele>
        <time>2019-06-21T11:56:46Z</time>
      </trkpt>
      <trkpt lat="43.87234" lon="6.28266">
        <ele>1196.308</ele>
        <time>2019-06-21T11:56:47Z</time>
      </trkpt>
      <trkpt lat="43.87229" lon="6.28275">
        <ele>1196.317</ele>
        <time>2019-06-21T11:56:48Z</time>
      </trkpt>
      <trkpt lat="43.87222" lon="6.28284">
        <ele>1196.351</ele>
        <time>2019-06-21T11:56:49Z</time>
      </trkpt>
      <trkpt lat="43.87215" lon="6.28293">
        <ele>1196.332</ele>
        <time>2019-06-21T11:56:50Z</time>
      </trkpt>
      <trkpt lat="43.87208" lon="6.28301">
        <ele>1196.249</ele>
        <time>2019-06-21T11:56:51Z</time>
      </trkpt>
      <trkpt lat="43.87203" lon="6.28309">
        <ele>1196.255</ele>
        <time>2019-06-21T11:56:52Z</time>
      </trkpt>
      <trkpt lat="43.87199" lon="6.28319">
        <ele>1196.28</ele>
        <time>2019-06-21T11:56:53Z</time>
      </trkpt>
      <trkpt lat="43.87193" lon="6.28327">
        <ele>1196.281</ele>
        <time>2019-06-21T11:56:54Z</time>
      </trkpt>
      <trkpt lat="43.87187" lon="6.28334">
        <ele>1196.255</ele>
        <time>2019-06-21T11:56:55Z</time>
      </trkpt>
      <trkpt lat="43.87181" lon="6.28342">
        <ele>1196.272</ele>
        <time>2019-06-21T11:56:56Z</time>
      </trkpt>
      <trkpt lat="43.87179" lon="6.28351">
        <ele>1196.213</ele>
        <time>2019-06-21T11:56:57Z</time>
      </trkpt>
      <trkpt lat="43.87172" lon="6.28359">
        <ele>1196.214</ele>
        <time>2019-06-21T11:56:58Z</time>
      </trkpt>
      <trkpt lat="43.87164" lon="6.28366">
        <ele>1196.208</ele>
        <time>2019-06-21T11:56:59Z</time>
      </trkpt>
      <trkpt lat="43.87156" lon="6.28373">
        <ele>1196.23</ele>
        <time>2019-06-21T11:57:00Z</time>
      </trkpt>
      <trkpt lat="43.87149" lon="6.28381">
        <ele>1196.264</ele>
        <time>2019-06-21T11:57:01Z</time>
      </trkpt>
      <trkpt lat="43.87142" lon="6.28388">
        <ele>1196.325</ele>
        <time>2019-06-21T11:57:02Z</time>
      </trkpt>
      <trkpt lat="43.87136" lon="6.28391">
        <ele>1196.372</ele>
        <time>2019-06-21T11:57:03Z</time>
      </trkpt>
      <trkpt lat="43.87122" lon="6.28392">
        <ele>1196.228</ele>
        <time>2019-06-21T11:57:04Z</time>
      </trkpt>
      <trkpt lat="43.87115" lon="6.28396">
        <ele>1196.013</ele>
        <time>2019-06-21T11:57:05Z</time>
      </trkpt>
      <trkpt lat="43.871" lon="6.28398">
        <ele>1196.014</ele>
        <time>2019-06-21T11:57:06Z</time>
      </trkpt>
      <trkpt lat="43.8709" lon="6.28403">
        <ele>1195.988</ele>
        <time>2019-06-21T11:57:07Z</time>
      </trkpt>
      <trkpt lat="43.87082" lon="6.28406">
        <ele>1195.872</ele>
        <time>2019-06-21T11:57:08Z</time>
      </trkpt>
      <trkpt lat="43.87073" lon="6.28408">
        <ele>1195.813</ele>
        <time>2019-06-21T11:57:09Z</time>
      </trkpt>
      <trkpt lat="43.87065" lon="6.28414">
        <ele>1195.714</ele>
        <time>2019-06-21T11:57:10Z</time>
      </trkpt>
      <trkpt lat="43.87057" lon="6.28417">
        <ele>1195.308</ele>
        <time>2019-06-21T11:57:11Z</time>
      </trkpt>
      <trkpt lat="43.87047" lon="6.28421">
        <ele>1194.87</ele>
        <time>2019-06-21T11:57:12Z</time>
      </trkpt>
      <trkpt lat="43.87038" lon="6.28424">
        <ele>1194.774</ele>
        <time>2019-06-21T11:57:13Z</time>
      </trkpt>
      <trkpt lat="43.87029" lon="6.28425">
        <ele>1194.585</ele>
        <time>2019-06-21T11:57:14Z</time>
      </trkpt>
      <trkpt lat="43.8702" lon="6.28426">
        <ele>1194.372</ele>
        <time>2019-06-21T11:57:15Z</time>
      </trkpt>
      <trkpt lat="43.87013" lon="6.28428">
        <ele>1194.318</ele>
        <time>2019-06-21T11:57:16Z</time>
      </trkpt>
      <trkpt lat="43.87005" lon="6.2843">
        <ele>1194.363</ele>
        <time>2019-06-21T11:57:17Z</time>
      </trkpt>
      <trkpt lat="43.86996" lon="6.28431">
        <ele>1194.124</ele>
        <time>2019-06-21T11:57:18Z</time>
      </trkpt>
      <trkpt lat="43.86988" lon="6.28432">
        <ele>1193.828</ele>
        <time>2019-06-21T11:57:19Z</time>
      </trkpt>
      <trkpt lat="43.86979" lon="6.28435">
        <ele>1193.577</ele>
        <time>2019-06-21T11:57:20Z</time>
      </trkpt>
      <trkpt lat="43.8697" lon="6.28438">
        <ele>1193.161</ele>
        <time>2019-06-21T11:57:21Z</time>
      </trkpt>
      <trkpt lat="43.86962" lon="6.28441">
        <ele>1192.727</ele>
        <time>2019-06-21T11:57:22Z</time>
      </trkpt>
      <trkpt lat="43.86957" lon="6.28448">
        <ele>1192.308</ele>
        <time>2019-06-21T11:57:23Z</time>
      </trkpt>
      <trkpt lat="43.86953" lon="6.28454">
        <ele>1192.01</ele>
        <time>2019-06-21T11:57:24Z</time>
      </trkpt>
      <trkpt lat="43.86952" lon="6.28463">
        <ele>1191.824</ele>
        <time>2019-06-21T11:57:25Z</time>
      </trkpt>
      <trkpt lat="43.8694" lon="6.28473">
        <ele>1191.795</ele>
        <time>2019-06-21T11:57:26Z</time>
      </trkpt>
      <trkpt lat="43.86937" lon="6.28484">
        <ele>1191.622</ele>
        <time>2019-06-21T11:57:27Z</time>
      </trkpt>
      <trkpt lat="43.86934" lon="6.28496">
        <ele>1191.618</ele>
        <time>2019-06-21T11:57:28Z</time>
      </trkpt>
      <trkpt lat="43.8693" lon="6.28507">
        <ele>1191.653</ele>
        <time>2019-06-21T11:57:29Z</time>
      </trkpt>
      <trkpt lat="43.86929" lon="6.2852">
        <ele>1191.514</ele>
        <time>2019-06-21T11:57:30Z</time>
      </trkpt>
      <trkpt lat="43.86925" lon="6.28531">
        <ele>1191.468</ele>
        <time>2019-06-21T11:57:31Z</time>
      </trkpt>
      <trkpt lat="43.86918" lon="6.28541">
        <ele>1191.341</ele>
        <time>2019-06-21T11:57:32Z</time>
      </trkpt>
      <trkpt lat="43.86914" lon="6.28551">
        <ele>1191.381</ele>
        <time>2019-06-21T11:57:33Z</time>
      </trkpt>
      <trkpt lat="43.86908" lon="6.28559">
        <ele>1191.109</ele>
        <time>2019-06-21T11:57:34Z</time>
      </trkpt>
      <trkpt lat="43.869" lon="6.28565">
        <ele>1191.008</ele>
        <time>2019-06-21T11:57:35Z</time>
      </trkpt>
      <trkpt lat="43.86893" lon="6.2857">
        <ele>1190.957</ele>
        <time>2019-06-21T11:57:36Z</time>
      </trkpt>
      <trkpt lat="43.86888" lon="6.28576">
        <ele>1190.881</ele>
        <time>2019-06-21T11:57:37Z</time>
      </trkpt>
      <trkpt lat="43.86878" lon="6.28581">
        <ele>1190.672</ele>
        <time>2019-06-21T11:57:38Z</time>
      </trkpt>
      <trkpt lat="43.8687" lon="6.28584">
        <ele>1190.639</ele>
        <time>2019-06-21T11:57:39Z</time>
      </trkpt>
      <trkpt lat="43.86862" lon="6.28586">
        <ele>1190.645</ele>
        <time>2019-06-21T11:57:40Z</time>
      </trkpt>
      <trkpt lat="43.86854" lon="6.2859">
        <ele>1190.68</ele>
        <time>2019-06-21T11:57:41Z</time>
      </trkpt>
      <trkpt lat="43.86843" lon="6.28596">
        <ele>1190.591</ele>
        <time>2019-06-21T11:57:42Z</time>
      </trkpt>
      <trkpt lat="43.86836" lon="6.28601">
        <ele>1190.525</ele>
        <time>2019-06-21T11:57:43Z</time>
      </trkpt>
      <trkpt lat="43.86829" lon="6.28606">
        <ele>1190.497</ele>
        <time>2019-06-21T11:57:44Z</time>
      </trkpt>
      <trkpt lat="43.8682" lon="6.28611">
        <ele>1190.323</ele>
        <time>2019-06-21T11:57:45Z</time>
      </trkpt>
      <trkpt lat="43.86811" lon="6.28615">
        <ele>1190.225</ele>
        <time>2019-06-21T11:57:46Z</time>
      </trkpt>
      <trkpt lat="43.86802" lon="6.28619">
        <ele>1190.008</ele>
        <time>2019-06-21T11:57:47Z</time>
      </trkpt>
      <trkpt lat="43.86793" lon="6.28623">
        <ele>1189.852</ele>
        <time>2019-06-21T11:57:48Z</time>
      </trkpt>
      <trkpt lat="43.86784" lon="6.28623">
        <ele>1189.636</ele>
        <time>2019-06-21T11:57:49Z</time>
      </trkpt>
      <trkpt lat="43.86775" lon="6.28623">
        <ele>1189.487</ele>
        <time>2019-06-21T11:57:50Z</time>
      </trkpt>
      <trkpt lat="43.86765" lon="6.28626">
        <ele>1189.124</ele>
        <time>2019-06-21T11:57:51Z</time>
      </trkpt>
      <trkpt lat="43.86756" lon="6.28628">
        <ele>1189.14</ele>
        <time>2019-06-21T11:57:52Z</time>
      </trkpt>
      <trkpt lat="43.86749" lon="6.28631">
        <ele>1189.035</ele>
        <time>2019-06-21T11:57:53Z</time>
      </trkpt>
      <trkpt lat="43.86739" lon="6.28634">
        <ele>1188.976</ele>
        <time>2019-06-21T11:57:54Z</time>
      </trkpt>
      <trkpt lat="43.86731" lon="6.28638">
        <ele>1188.95</ele>
        <time>2019-06-21T11:57:55Z</time>
      </trkpt>
      <trkpt lat="43.86726" lon="6.28646">
        <ele>1189.193</ele>
        <time>2019-06-21T11:57:56Z</time>
      </trkpt>
      <trkpt lat="43.86718" lon="6.2865">
        <ele>1189.165</ele>
        <time>2019-06-21T11:57:57Z</time>
      </trkpt>
      <trkpt lat="43.86708" lon="6.28655">
        <ele>1189.221</ele>
        <time>2019-06-21T11:57:58Z</time>
      </trkpt>
      <trkpt lat="43.86696" lon="6.2866">
        <ele>1189.208</ele>
        <time>2019-06-21T11:57:59Z</time>
      </trkpt>
      <trkpt lat="43.8669" lon="6.28667">
        <ele>1189.032</ele>
        <time>2019-06-21T11:58:01Z</time>
      </trkpt>
      <trkpt lat="43.86683" lon="6.2868">
        <ele>1188.826</ele>
        <time>2019-06-21T11:58:02Z</time>
      </trkpt>
      <trkpt lat="43.86675" lon="6.28692">
        <ele>1188.717</ele>
        <time>2019-06-21T11:58:03Z</time>
      </trkpt>
      <trkpt lat="43.86668" lon="6.28702">
        <ele>1188.744</ele>
        <time>2019-06-21T11:58:04Z</time>
      </trkpt>
      <trkpt lat="43.86665" lon="6.28714">
        <ele>1188.74</ele>
        <time>2019-06-21T11:58:05Z</time>
      </trkpt>
      <trkpt lat="43.8666" lon="6.28724">
        <ele>1189.095</ele>
        <time>2019-06-21T11:58:06Z</time>
      </trkpt>
      <trkpt lat="43.86656" lon="6.28734">
        <ele>1189.126</ele>
        <time>2019-06-21T11:58:07Z</time>
      </trkpt>
      <trkpt lat="43.8665" lon="6.28743">
        <ele>1189.16</ele>
        <time>2019-06-21T11:58:08Z</time>
      </trkpt>
      <trkpt lat="43.86642" lon="6.28752">
        <ele>1189.117</ele>
        <time>2019-06-21T11:58:09Z</time>
      </trkpt>
      <trkpt lat="43.86631" lon="6.28754">
        <ele>1189.187</ele>
        <time>2019-06-21T11:58:10Z</time>
      </trkpt>
      <trkpt lat="43.86623" lon="6.28758">
        <ele>1188.815</ele>
        <time>2019-06-21T11:58:11Z</time>
      </trkpt>
      <trkpt lat="43.86614" lon="6.28762">
        <ele>1188.608</ele>
        <time>2019-06-21T11:58:12Z</time>
      </trkpt>
      <trkpt lat="43.86605" lon="6.28765">
        <ele>1188.334</ele>
        <time>2019-06-21T11:58:13Z</time>
      </trkpt>
      <trkpt lat="43.86595" lon="6.2877">
        <ele>1188.038</ele>
        <time>2019-06-21T11:58:14Z</time>
      </trkpt>
      <trkpt lat="43.86587" lon="6.28774">
        <ele>1187.559</ele>
        <time>2019-06-21T11:58:15Z</time>
      </trkpt>
      <trkpt lat="43.86577" lon="6.28778">
        <ele>1187.256</ele>
        <time>2019-06-21T11:58:16Z</time>
      </trkpt>
      <trkpt lat="43.86566" lon="6.28783">
        <ele>1187.022</ele>
        <time>2019-06-21T11:58:17Z</time>
      </trkpt>
      <trkpt lat="43.8656" lon="6.28791">
        <ele>1186.977</ele>
        <time>2019-06-21T11:58:18Z</time>
      </trkpt>
      <trkpt lat="43.86558" lon="6.28803">
        <ele>1186.918</ele>
        <time>2019-06-21T11:58:19Z</time>
      </trkpt>
      <trkpt lat="43.86554" lon="6.2881">
        <ele>1186.952</ele>
        <time>2019-06-21T11:58:20Z</time>
      </trkpt>
      <trkpt lat="43.86548" lon="6.2882">
        <ele>1187.082</ele>
        <time>2019-06-21T11:58:21Z</time>
      </trkpt>
      <trkpt lat="43.86544" lon="6.28832">
        <ele>1187.043</ele>
        <time>2019-06-21T11:58:22Z</time>
      </trkpt>
      <trkpt lat="43.86536" lon="6.2884">
        <ele>1186.917</ele>
        <time>2019-06-21T11:58:23Z</time>
      </trkpt>
      <trkpt lat="43.86529" lon="6.28848">
        <ele>1186.808</ele>
        <time>2019-06-21T11:58:24Z</time>
      </trkpt>
      <trkpt lat="43.86519" lon="6.28854">
        <ele>1186.861</ele>
        <time>2019-06-21T11:58:25Z</time>
      </trkpt>
      <trkpt lat="43.86512" lon="6.28859">
        <ele>1186.815</ele>
        <time>2019-06-21T11:58:26Z</time>
      </trkpt>
      <trkpt lat="43.86509" lon="6.28866">
        <ele>1186.976</ele>
        <time>2019-06-21T11:58:27Z</time>
      </trkpt>
      <trkpt lat="43.86502" lon="6.28869">
        <ele>1187.153</ele>
        <time>2019-06-21T11:58:28Z</time>
      </trkpt>
      <trkpt lat="43.86493" lon="6.2888">
        <ele>1187.179</ele>
        <time>2019-06-21T11:58:29Z</time>
      </trkpt>
      <trkpt lat="43.86483" lon="6.28888">
        <ele>1187.394</ele>
        <time>2019-06-21T11:58:30Z</time>
      </trkpt>
      <trkpt lat="43.86476" lon="6.28896">
        <ele>1187.345</ele>
        <time>2019-06-21T11:58:31Z</time>
      </trkpt>
      <trkpt lat="43.86467" lon="6.28904">
        <ele>1187.499</ele>
        <time>2019-06-21T11:58:32Z</time>
      </trkpt>
      <trkpt lat="43.86461" lon="6.28911">
        <ele>1187.674</ele>
        <time>2019-06-21T11:58:33Z</time>
      </trkpt>
      <trkpt lat="43.86453" lon="6.28919">
        <ele>1187.856</ele>
        <time>2019-06-21T11:58:34Z</time>
      </trkpt>
      <trkpt lat="43.86447" lon="6.28928">
        <ele>1187.921</ele>
        <time>2019-06-21T11:58:35Z</time>
      </trkpt>
      <trkpt lat="43.86441" lon="6.28937">
        <ele>1188.008</ele>
        <time>2019-06-21T11:58:36Z</time>
      </trkpt>
      <trkpt lat="43.86435" lon="6.28948">
        <ele>1188.18</ele>
        <time>2019-06-21T11:58:37Z</time>
      </trkpt>
      <trkpt lat="43.86426" lon="6.28954">
        <ele>1188.394</ele>
        <time>2019-06-21T11:58:38Z</time>
      </trkpt>
      <trkpt lat="43.86419" lon="6.28962">
        <ele>1188.325</ele>
        <time>2019-06-21T11:58:39Z</time>
      </trkpt>
      <trkpt lat="43.86409" lon="6.28969">
        <ele>1188.242</ele>
        <time>2019-06-21T11:58:40Z</time>
      </trkpt>
      <trkpt lat="43.86402" lon="6.28977">
        <ele>1188.238</ele>
        <time>2019-06-21T11:58:41Z</time>
      </trkpt>
      <trkpt lat="43.86396" lon="6.2898">
        <ele>1188.033</ele>
        <time>2019-06-21T11:58:42Z</time>
      </trkpt>
      <trkpt lat="43.86389" lon="6.28987">
        <ele>1187.624</ele>
        <time>2019-06-21T11:58:43Z</time>
      </trkpt>
      <trkpt lat="43.86382" lon="6.28994">
        <ele>1187.358</ele>
        <time>2019-06-21T11:58:44Z</time>
      </trkpt>
      <trkpt lat="43.86377" lon="6.29001">
        <ele>1187.359</ele>
        <time>2019-06-21T11:58:45Z</time>
      </trkpt>
      <trkpt lat="43.8637" lon="6.29006">
        <ele>1187.203</ele>
        <time>2019-06-21T11:58:46Z</time>
      </trkpt>
      <trkpt lat="43.86359" lon="6.29001">
        <ele>1187.123</ele>
        <time>2019-06-21T11:58:48Z</time>
      </trkpt>
      <trkpt lat="43.86352" lon="6.28999">
        <ele>1187.008</ele>
        <time>2019-06-21T11:58:49Z</time>
      </trkpt>
      <trkpt lat="43.86349" lon="6.2899">
        <ele>1186.898</ele>
        <time>2019-06-21T11:58:50Z</time>
      </trkpt>
      <trkpt lat="43.86345" lon="6.28987">
        <ele>1186.642</ele>
        <time>2019-06-21T11:58:51Z</time>
      </trkpt>
      <trkpt lat="43.86341" lon="6.28983">
        <ele>1186.523</ele>
        <time>2019-06-21T11:58:52Z</time>
      </trkpt>
      <trkpt lat="43.86337" lon="6.28981">
        <ele>1204.9</ele>
      </trkpt>
      <trkpt lat="43.8633" lon="6.28989">
        <ele>1203.9</ele>
      </trkpt>
      <trkpt lat="43.86309" lon="6.29013">
        <ele>1204.7</ele>
      </trkpt>
      <trkpt lat="43.86287" lon="6.29048">
        <ele>1204.5</ele>
      </trkpt>
      <trkpt lat="43.8628" lon="6.29063">
        <ele>1203.5</ele>
      </trkpt>
      <trkpt lat="43.86275" lon="6.29059">
        <ele>1184.879</ele>
        <time>2019-06-21T12:03:02Z</time>
      </trkpt>
      <trkpt lat="43.86272" lon="6.29066">
        <ele>1184.86</ele>
        <time>2019-06-21T12:03:03Z</time>
      </trkpt>
      <trkpt lat="43.86268" lon="6.29074">
        <ele>1184.767</ele>
        <time>2019-06-21T12:03:04Z</time>
      </trkpt>
      <trkpt lat="43.86264" lon="6.29081">
        <ele>1184.763</ele>
        <time>2019-06-21T12:03:05Z</time>
      </trkpt>
      <trkpt lat="43.86263" lon="6.29092">
        <ele>1184.678</ele>
        <time>2019-06-21T12:03:06Z</time>
      </trkpt>
      <trkpt lat="43.8626" lon="6.29101">
        <ele>1184.489</ele>
        <time>2019-06-21T12:03:07Z</time>
      </trkpt>
      <trkpt lat="43.86253" lon="6.2911">
        <ele>1184.423</ele>
        <time>2019-06-21T12:03:08Z</time>
      </trkpt>
      <trkpt lat="43.86249" lon="6.29117">
        <ele>1184.464</ele>
        <time>2019-06-21T12:03:09Z</time>
      </trkpt>
      <trkpt lat="43.86245" lon="6.29124">
        <ele>1184.406</ele>
        <time>2019-06-21T12:03:10Z</time>
      </trkpt>
      <trkpt lat="43.86238" lon="6.29131">
        <ele>1184.416</ele>
        <time>2019-06-21T12:03:11Z</time>
      </trkpt>
      <trkpt lat="43.86232" lon="6.29139">
        <ele>1184.508</ele>
        <time>2019-06-21T12:03:12Z</time>
      </trkpt>
      <trkpt lat="43.86227" lon="6.29146">
        <ele>1184.589</ele>
        <time>2019-06-21T12:03:13Z</time>
      </trkpt>
      <trkpt lat="43.86224" lon="6.29154">
        <ele>1184.353</ele>
        <time>2019-06-21T12:03:14Z</time>
      </trkpt>
      <trkpt lat="43.86219" lon="6.29161">
        <ele>1184.194</ele>
        <time>2019-06-21T12:03:15Z</time>
      </trkpt>
      <trkpt lat="43.86208" lon="6.29167">
        <ele>1184.181</ele>
        <time>2019-06-21T12:03:16Z</time>
      </trkpt>
      <trkpt lat="43.86202" lon="6.29172">
        <ele>1184.187</ele>
        <time>2019-06-21T12:03:17Z</time>
      </trkpt>
      <trkpt lat="43.86195" lon="6.2918">
        <ele>1184.112</ele>
        <time>2019-06-21T12:03:18Z</time>
      </trkpt>
      <trkpt lat="43.86188" lon="6.29185">
        <ele>1184.233</ele>
        <time>2019-06-21T12:03:19Z</time>
      </trkpt>
      <trkpt lat="43.86184" lon="6.29193">
        <ele>1184.277</ele>
        <time>2019-06-21T12:03:20Z</time>
      </trkpt>
      <trkpt lat="43.8618" lon="6.29201">
        <ele>1184.245</ele>
        <time>2019-06-21T12:03:21Z</time>
      </trkpt>
      <trkpt lat="43.86173" lon="6.2921">
        <ele>1184.247</ele>
        <time>2019-06-21T12:03:22Z</time>
      </trkpt>
      <trkpt lat="43.86171" lon="6.29218">
        <ele>1184.211</ele>
        <time>2019-06-21T12:03:23Z</time>
      </trkpt>
      <trkpt lat="43.86166" lon="6.29232">
        <ele>1184.008</ele>
        <time>2019-06-21T12:03:24Z</time>
      </trkpt>
      <trkpt lat="43.86162" lon="6.29241">
        <ele>1183.957</ele>
        <time>2019-06-21T12:03:25Z</time>
      </trkpt>
      <trkpt lat="43.86158" lon="6.29251">
        <ele>1183.841</ele>
        <time>2019-06-21T12:03:26Z</time>
      </trkpt>
      <trkpt lat="43.86156" lon="6.29263">
        <ele>1183.882</ele>
        <time>2019-06-21T12:03:27Z</time>
      </trkpt>
      <trkpt lat="43.86154" lon="6.29274">
        <ele>1183.999</ele>
        <time>2019-06-21T12:03:28Z</time>
      </trkpt>
      <trkpt lat="43.86152" lon="6.29284">
        <ele>1183.935</ele>
        <time>2019-06-21T12:03:29Z</time>
      </trkpt>
      <trkpt lat="43.86151" lon="6.29293">
        <ele>1183.99</ele>
        <time>2019-06-21T12:03:30Z</time>
      </trkpt>
      <trkpt lat="43.86145" lon="6.29301">
        <ele>1183.821</ele>
        <time>2019-06-21T12:03:31Z</time>
      </trkpt>
      <trkpt lat="43.8614" lon="6.29309">
        <ele>1183.635</ele>
        <time>2019-06-21T12:03:32Z</time>
      </trkpt>
      <trkpt lat="43.86135" lon="6.29317">
        <ele>1183.273</ele>
        <time>2019-06-21T12:03:33Z</time>
      </trkpt>
      <trkpt lat="43.86132" lon="6.29324">
        <ele>1182.885</ele>
        <time>2019-06-21T12:03:34Z</time>
      </trkpt>
      <trkpt lat="43.86127" lon="6.29328">
        <ele>1182.613</ele>
        <time>2019-06-21T12:03:35Z</time>
      </trkpt>
      <trkpt lat="43.86122" lon="6.29332">
        <ele>1182.308</ele>
        <time>2019-06-21T12:03:36Z</time>
      </trkpt>
      <trkpt lat="43.86114" lon="6.29334">
        <ele>1182.15</ele>
        <time>2019-06-21T12:03:37Z</time>
      </trkpt>
      <trkpt lat="43.86106" lon="6.29337">
        <ele>1182.044</ele>
        <time>2019-06-21T12:03:38Z</time>
      </trkpt>
      <trkpt lat="43.861" lon="6.2934">
        <ele>1181.845</ele>
        <time>2019-06-21T12:03:39Z</time>
      </trkpt>
      <trkpt lat="43.86098" lon="6.2935">
        <ele>1181.642</ele>
        <time>2019-06-21T12:03:40Z</time>
      </trkpt>
      <trkpt lat="43.86093" lon="6.29357">
        <ele>1181.458</ele>
        <time>2019-06-21T12:03:41Z</time>
      </trkpt>
      <trkpt lat="43.86092" lon="6.29368">
        <ele>1181.293</ele>
        <time>2019-06-21T12:03:42Z</time>
      </trkpt>
      <trkpt lat="43.86088" lon="6.29379">
        <ele>1181.084</ele>
        <time>2019-06-21T12:03:43Z</time>
      </trkpt>
      <trkpt lat="43.86083" lon="6.29385">
        <ele>1180.998</ele>
        <time>2019-06-21T12:03:44Z</time>
      </trkpt>
      <trkpt lat="43.86079" lon="6.29392">
        <ele>1180.954</ele>
        <time>2019-06-21T12:03:45Z</time>
      </trkpt>
      <trkpt lat="43.86071" lon="6.29399">
        <ele>1180.856</ele>
        <time>2019-06-21T12:03:46Z</time>
      </trkpt>
      <trkpt lat="43.86066" lon="6.29402">
        <ele>1180.711</ele>
        <time>2019-06-21T12:03:47Z</time>
      </trkpt>
      <trkpt lat="43.86062" lon="6.29407">
        <ele>1180.708</ele>
        <time>2019-06-21T12:03:48Z</time>
      </trkpt>
      <trkpt lat="43.86056" lon="6.29412">
        <ele>1180.798</ele>
        <time>2019-06-21T12:03:49Z</time>
      </trkpt>
      <trkpt lat="43.86049" lon="6.29418">
        <ele>1180.882</ele>
        <time>2019-06-21T12:03:50Z</time>
      </trkpt>
      <trkpt lat="43.86044" lon="6.29423">
        <ele>1180.883</ele>
        <time>2019-06-21T12:03:51Z</time>
      </trkpt>
      <trkpt lat="43.8604" lon="6.29429">
        <ele>1180.94</ele>
        <time>2019-06-21T12:03:52Z</time>
      </trkpt>
      <trkpt lat="43.86037" lon="6.29437">
        <ele>1181.126</ele>
        <time>2019-06-21T12:03:53Z</time>
      </trkpt>
      <trkpt lat="43.86034" lon="6.29444">
        <ele>1181.231</ele>
        <time>2019-06-21T12:03:54Z</time>
      </trkpt>
      <trkpt lat="43.86038" lon="6.29454">
        <ele>1181.342</ele>
        <time>2019-06-21T12:03:55Z</time>
      </trkpt>
      <trkpt lat="43.8604" lon="6.29461">
        <ele>1181.596</ele>
        <time>2019-06-21T12:03:56Z</time>
      </trkpt>
      <trkpt lat="43.86044" lon="6.29466">
        <ele>1181.761</ele>
        <time>2019-06-21T12:03:57Z</time>
      </trkpt>
      <trkpt lat="43.86052" lon="6.29471">
        <ele>1181.921</ele>
        <time>2019-06-21T12:03:58Z</time>
      </trkpt>
      <trkpt lat="43.86059" lon="6.29476">
        <ele>1182.113</ele>
        <time>2019-06-21T12:03:59Z</time>
      </trkpt>
      <trkpt lat="43.86064" lon="6.29477">
        <ele>1182.308</ele>
        <time>2019-06-21T12:04:00Z</time>
      </trkpt>
      <trkpt lat="43.86071" lon="6.2948">
        <ele>1182.679</ele>
        <time>2019-06-21T12:04:01Z</time>
      </trkpt>
      <trkpt lat="43.86077" lon="6.29482">
        <ele>1183.013</ele>
        <time>2019-06-21T12:04:02Z</time>
      </trkpt>
      <trkpt lat="43.86083" lon="6.29485">
        <ele>1183.464</ele>
        <time>2019-06-21T12:04:03Z</time>
      </trkpt>
      <trkpt lat="43.86088" lon="6.2949">
        <ele>1183.971</ele>
        <time>2019-06-21T12:04:04Z</time>
      </trkpt>
      <trkpt lat="43.86093" lon="6.29493">
        <ele>1184.477</ele>
        <time>2019-06-21T12:04:05Z</time>
      </trkpt>
      <trkpt lat="43.86097" lon="6.295">
        <ele>1184.912</ele>
        <time>2019-06-21T12:04:06Z</time>
      </trkpt>
      <trkpt lat="43.86102" lon="6.29511">
        <ele>1185.353</ele>
        <time>2019-06-21T12:04:07Z</time>
      </trkpt>
      <trkpt lat="43.86103" lon="6.29519">
        <ele>1185.887</ele>
        <time>2019-06-21T12:04:08Z</time>
      </trkpt>
      <trkpt lat="43.86105" lon="6.29527">
        <ele>1186.312</ele>
        <time>2019-06-21T12:04:09Z</time>
      </trkpt>
      <trkpt lat="43.86109" lon="6.29533">
        <ele>1186.832</ele>
        <time>2019-06-21T12:04:10Z</time>
      </trkpt>
      <trkpt lat="43.86116" lon="6.29537">
        <ele>1187.405</ele>
        <time>2019-06-21T12:04:11Z</time>
      </trkpt>
      <trkpt lat="43.86122" lon="6.29541">
        <ele>1188.108</ele>
        <time>2019-06-21T12:04:12Z</time>
      </trkpt>
      <trkpt lat="43.86127" lon="6.2954">
        <ele>1188.854</ele>
        <time>2019-06-21T12:04:13Z</time>
      </trkpt>
      <trkpt lat="43.86135" lon="6.29542">
        <ele>1189.448</ele>
        <time>2019-06-21T12:04:14Z</time>
      </trkpt>
      <trkpt lat="43.86142" lon="6.29544">
        <ele>1190.159</ele>
        <time>2019-06-21T12:04:15Z</time>
      </trkpt>
      <trkpt lat="43.86147" lon="6.29546">
        <ele>1190.966</ele>
        <time>2019-06-21T12:04:16Z</time>
      </trkpt>
      <trkpt lat="43.86153" lon="6.29549">
        <ele>1190.962</ele>
        <time>2019-06-21T12:04:17Z</time>
      </trkpt>
      <trkpt lat="43.86158" lon="6.29555">
        <ele>1191.617</ele>
        <time>2019-06-21T12:04:18Z</time>
      </trkpt>
      <trkpt lat="43.86167" lon="6.2956">
        <ele>1192.828</ele>
        <time>2019-06-21T12:04:19Z</time>
      </trkpt>
      <trkpt lat="43.86173" lon="6.29562">
        <ele>1192.822</ele>
        <time>2019-06-21T12:04:20Z</time>
      </trkpt>
      <trkpt lat="43.86177" lon="6.29568">
        <ele>1193.532</ele>
        <time>2019-06-21T12:04:21Z</time>
      </trkpt>
      <trkpt lat="43.86181" lon="6.29573">
        <ele>1194.192</ele>
        <time>2019-06-21T12:04:22Z</time>
      </trkpt>
      <trkpt lat="43.86185" lon="6.2958">
        <ele>1194.711</ele>
        <time>2019-06-21T12:04:23Z</time>
      </trkpt>
      <trkpt lat="43.86189" lon="6.29587">
        <ele>1195.408</ele>
        <time>2019-06-21T12:04:24Z</time>
      </trkpt>
      <trkpt lat="43.8619" lon="6.29595">
        <ele>1196.166</ele>
        <time>2019-06-21T12:04:25Z</time>
      </trkpt>
      <trkpt lat="43.86191" lon="6.29604">
        <ele>1196.98</ele>
        <time>2019-06-21T12:04:26Z</time>
      </trkpt>
      <trkpt lat="43.86188" lon="6.29609">
        <ele>1197.741</ele>
        <time>2019-06-21T12:04:27Z</time>
      </trkpt>
      <trkpt lat="43.86179" lon="6.29613">
        <ele>1199.488</ele>
        <time>2019-06-21T12:04:29Z</time>
      </trkpt>
      <trkpt lat="43.86173" lon="6.29612">
        <ele>1200.154</ele>
        <time>2019-06-21T12:04:30Z</time>
      </trkpt>
      <trkpt lat="43.86168" lon="6.29607">
        <ele>1200.639</ele>
        <time>2019-06-21T12:04:31Z</time>
      </trkpt>
      <trkpt lat="43.86163" lon="6.29602">
        <ele>1201.13</ele>
        <time>2019-06-21T12:04:32Z</time>
      </trkpt>
      <trkpt lat="43.86156" lon="6.29595">
        <ele>1201.514</ele>
        <time>2019-06-21T12:04:33Z</time>
      </trkpt>
      <trkpt lat="43.86149" lon="6.29589">
        <ele>1202.197</ele>
        <time>2019-06-21T12:04:34Z</time>
      </trkpt>
      <trkpt lat="43.86143" lon="6.29586">
        <ele>1202.723</ele>
        <time>2019-06-21T12:04:35Z</time>
      </trkpt>
      <trkpt lat="43.86136" lon="6.29584">
        <ele>1203.325</ele>
        <time>2019-06-21T12:04:36Z</time>
      </trkpt>
      <trkpt lat="43.86129" lon="6.29584">
        <ele>1203.908</ele>
        <time>2019-06-21T12:04:37Z</time>
      </trkpt>
      <trkpt lat="43.86122" lon="6.29586">
        <ele>1204.562</ele>
        <time>2019-06-21T12:04:38Z</time>
      </trkpt>
      <trkpt lat="43.86114" lon="6.29587">
        <ele>1205.116</ele>
        <time>2019-06-21T12:04:39Z</time>
      </trkpt>
      <trkpt lat="43.86108" lon="6.29591">
        <ele>1205.857</ele>
        <time>2019-06-21T12:04:40Z</time>
      </trkpt>
      <trkpt lat="43.86101" lon="6.29594">
        <ele>1206.414</ele>
        <time>2019-06-21T12:04:41Z</time>
      </trkpt>
      <trkpt lat="43.86094" lon="6.29597">
        <ele>1206.99</ele>
        <time>2019-06-21T12:04:42Z</time>
      </trkpt>
      <trkpt lat="43.8609" lon="6.29602">
        <ele>1207.545</ele>
        <time>2019-06-21T12:04:43Z</time>
      </trkpt>
      <trkpt lat="43.86083" lon="6.29606">
        <ele>1208.046</ele>
        <time>2019-06-21T12:04:44Z</time>
      </trkpt>
      <trkpt lat="43.86078" lon="6.29609">
        <ele>1208.57</ele>
        <time>2019-06-21T12:04:45Z</time>
      </trkpt>
      <trkpt lat="43.86072" lon="6.29611">
        <ele>1209.023</ele>
        <time>2019-06-21T12:04:46Z</time>
      </trkpt>
      <trkpt lat="43.86066" lon="6.29611">
        <ele>1209.683</ele>
        <time>2019-06-21T12:04:47Z</time>
      </trkpt>
      <trkpt lat="43.8606" lon="6.29613">
        <ele>1210.211</ele>
        <time>2019-06-21T12:04:48Z</time>
      </trkpt>
      <trkpt lat="43.86054" lon="6.29612">
        <ele>1210.808</ele>
        <time>2019-06-21T12:04:49Z</time>
      </trkpt>
      <trkpt lat="43.86047" lon="6.29612">
        <ele>1211.445</ele>
        <time>2019-06-21T12:04:50Z</time>
      </trkpt>
      <trkpt lat="43.86041" lon="6.29615">
        <ele>1212.129</ele>
        <time>2019-06-21T12:04:51Z</time>
      </trkpt>
      <trkpt lat="43.86039" lon="6.29625">
        <ele>1213.15</ele>
        <time>2019-06-21T12:04:53Z</time>
      </trkpt>
      <trkpt lat="43.86041" lon="6.29632">
        <ele>1214.387</ele>
        <time>2019-06-21T12:04:56Z</time>
      </trkpt>
      <trkpt lat="43.86054" lon="6.29632">
        <ele>1214.813</ele>
        <time>2019-06-21T12:04:57Z</time>
      </trkpt>
      <trkpt lat="43.86066" lon="6.29635">
        <ele>1215.378</ele>
        <time>2019-06-21T12:04:58Z</time>
      </trkpt>
      <trkpt lat="43.86074" lon="6.29636">
        <ele>1215.889</ele>
        <time>2019-06-21T12:04:59Z</time>
      </trkpt>
      <trkpt lat="43.86081" lon="6.29637">
        <ele>1216.313</ele>
        <time>2019-06-21T12:05:00Z</time>
      </trkpt>
      <trkpt lat="43.86092" lon="6.29641">
        <ele>1217.099</ele>
        <time>2019-06-21T12:05:01Z</time>
      </trkpt>
      <trkpt lat="43.86099" lon="6.29642">
        <ele>1217.707</ele>
        <time>2019-06-21T12:05:02Z</time>
      </trkpt>
      <trkpt lat="43.86108" lon="6.29646">
        <ele>1218.427</ele>
        <time>2019-06-21T12:05:03Z</time>
      </trkpt>
      <trkpt lat="43.86116" lon="6.2965">
        <ele>1219.108</ele>
        <time>2019-06-21T12:05:04Z</time>
      </trkpt>
      <trkpt lat="43.86124" lon="6.29656">
        <ele>1219.722</ele>
        <time>2019-06-21T12:05:05Z</time>
      </trkpt>
      <trkpt lat="43.86132" lon="6.29662">
        <ele>1220.326</ele>
        <time>2019-06-21T12:05:06Z</time>
      </trkpt>
      <trkpt lat="43.86138" lon="6.29669">
        <ele>1220.877</ele>
        <time>2019-06-21T12:05:07Z</time>
      </trkpt>
      <trkpt lat="43.86147" lon="6.29676">
        <ele>1221.354</ele>
        <time>2019-06-21T12:05:08Z</time>
      </trkpt>
      <trkpt lat="43.86153" lon="6.29684">
        <ele>1221.88</ele>
        <time>2019-06-21T12:05:09Z</time>
      </trkpt>
      <trkpt lat="43.8616" lon="6.29689">
        <ele>1222.455</ele>
        <time>2019-06-21T12:05:10Z</time>
      </trkpt>
      <trkpt lat="43.86169" lon="6.29695">
        <ele>1223.186</ele>
        <time>2019-06-21T12:05:11Z</time>
      </trkpt>
      <trkpt lat="43.86176" lon="6.29701">
        <ele>1223.76</ele>
        <time>2019-06-21T12:05:12Z</time>
      </trkpt>
      <trkpt lat="43.86184" lon="6.29707">
        <ele>1224.452</ele>
        <time>2019-06-21T12:05:13Z</time>
      </trkpt>
      <trkpt lat="43.86191" lon="6.29714">
        <ele>1225.253</ele>
        <time>2019-06-21T12:05:14Z</time>
      </trkpt>
      <trkpt lat="43.86197" lon="6.29722">
        <ele>1226.108</ele>
        <time>2019-06-21T12:05:15Z</time>
      </trkpt>
      <trkpt lat="43.86203" lon="6.29729">
        <ele>1227.008</ele>
        <time>2019-06-21T12:05:16Z</time>
      </trkpt>
      <trkpt lat="43.86209" lon="6.29736">
        <ele>1227.968</ele>
        <time>2019-06-21T12:05:17Z</time>
      </trkpt>
      <trkpt lat="43.86215" lon="6.29744">
        <ele>1228.612</ele>
        <time>2019-06-21T12:05:18Z</time>
      </trkpt>
      <trkpt lat="43.86215" lon="6.29756">
        <ele>1229.243</ele>
        <time>2019-06-21T12:05:19Z</time>
      </trkpt>
      <trkpt lat="43.86215" lon="6.29769">
        <ele>1229.97</ele>
        <time>2019-06-21T12:05:20Z</time>
      </trkpt>
      <trkpt lat="43.86213" lon="6.29778">
        <ele>1230.576</ele>
        <time>2019-06-21T12:05:21Z</time>
      </trkpt>
      <trkpt lat="43.86213" lon="6.29789">
        <ele>1231.081</ele>
        <time>2019-06-21T12:05:22Z</time>
      </trkpt>
      <trkpt lat="43.86214" lon="6.29799">
        <ele>1231.822</ele>
        <time>2019-06-21T12:05:23Z</time>
      </trkpt>
      <trkpt lat="43.86219" lon="6.29807">
        <ele>1232.696</ele>
        <time>2019-06-21T12:05:24Z</time>
      </trkpt>
      <trkpt lat="43.86223" lon="6.29816">
        <ele>1233.294</ele>
        <time>2019-06-21T12:05:25Z</time>
      </trkpt>
      <trkpt lat="43.86228" lon="6.29822">
        <ele>1233.957</ele>
        <time>2019-06-21T12:05:26Z</time>
      </trkpt>
      <trkpt lat="43.86235" lon="6.29827">
        <ele>1234.622</ele>
        <time>2019-06-21T12:05:27Z</time>
      </trkpt>
      <trkpt lat="43.86241" lon="6.29834">
        <ele>1235.308</ele>
        <time>2019-06-21T12:05:28Z</time>
      </trkpt>
      <trkpt lat="43.86246" lon="6.29841">
        <ele>1236.082</ele>
        <time>2019-06-21T12:05:29Z</time>
      </trkpt>
      <trkpt lat="43.86253" lon="6.29848">
        <ele>1236.776</ele>
        <time>2019-06-21T12:05:30Z</time>
      </trkpt>
      <trkpt lat="43.86257" lon="6.29857">
        <ele>1237.427</ele>
        <time>2019-06-21T12:05:31Z</time>
      </trkpt>
      <trkpt lat="43.86262" lon="6.29864">
        <ele>1238.094</ele>
        <time>2019-06-21T12:05:32Z</time>
      </trkpt>
      <trkpt lat="43.86268" lon="6.2987">
        <ele>1238.52</ele>
        <time>2019-06-21T12:05:33Z</time>
      </trkpt>
      <trkpt lat="43.86274" lon="6.29872">
        <ele>1239.045</ele>
        <time>2019-06-21T12:05:34Z</time>
      </trkpt>
      <trkpt lat="43.8628" lon="6.29868">
        <ele>1239.296</ele>
        <time>2019-06-21T12:05:35Z</time>
      </trkpt>
      <trkpt lat="43.86287" lon="6.29867">
        <ele>1239.23</ele>
        <time>2019-06-21T12:05:36Z</time>
      </trkpt>
      <trkpt lat="43.86294" lon="6.29865">
        <ele>1239.385</ele>
        <time>2019-06-21T12:05:37Z</time>
      </trkpt>
      <trkpt lat="43.86295" lon="6.29859">
        <ele>1239.589</ele>
        <time>2019-06-21T12:05:38Z</time>
      </trkpt>
      <trkpt lat="43.86296" lon="6.29841">
        <ele>1239.517</ele>
        <time>2019-06-21T12:05:39Z</time>
      </trkpt>
      <trkpt lat="43.86298" lon="6.29827">
        <ele>1239.808</ele>
        <time>2019-06-21T12:05:40Z</time>
      </trkpt>
      <trkpt lat="43.863" lon="6.29814">
        <ele>1240.161</ele>
        <time>2019-06-21T12:05:41Z</time>
      </trkpt>
      <trkpt lat="43.86302" lon="6.29804">
        <ele>1240.635</ele>
        <time>2019-06-21T12:05:42Z</time>
      </trkpt>
      <trkpt lat="43.86305" lon="6.29795">
        <ele>1241.136</ele>
        <time>2019-06-21T12:05:43Z</time>
      </trkpt>
      <trkpt lat="43.86311" lon="6.29786">
        <ele>1241.673</ele>
        <time>2019-06-21T12:05:44Z</time>
      </trkpt>
      <trkpt lat="43.86315" lon="6.29777">
        <ele>1242.399</ele>
        <time>2019-06-21T12:05:45Z</time>
      </trkpt>
      <trkpt lat="43.8632" lon="6.29768">
        <ele>1243.074</ele>
        <time>2019-06-21T12:05:46Z</time>
      </trkpt>
      <trkpt lat="43.86328" lon="6.29765">
        <ele>1243.575</ele>
        <time>2019-06-21T12:05:47Z</time>
      </trkpt>
      <trkpt lat="43.86334" lon="6.29759">
        <ele>1244.219</ele>
        <time>2019-06-21T12:05:48Z</time>
      </trkpt>
      <trkpt lat="43.86339" lon="6.29751">
        <ele>1244.823</ele>
        <time>2019-06-21T12:05:49Z</time>
      </trkpt>
      <trkpt lat="43.86349" lon="6.2975">
        <ele>1245.383</ele>
        <time>2019-06-21T12:05:50Z</time>
      </trkpt>
      <trkpt lat="43.86357" lon="6.29749">
        <ele>1245.811</ele>
        <time>2019-06-21T12:05:51Z</time>
      </trkpt>
      <trkpt lat="43.86365" lon="6.29748">
        <ele>1246.408</ele>
        <time>2019-06-21T12:05:52Z</time>
      </trkpt>
      <trkpt lat="43.86372" lon="6.29746">
        <ele>1246.985</ele>
        <time>2019-06-21T12:05:53Z</time>
      </trkpt>
      <trkpt lat="43.86379" lon="6.29746">
        <ele>1247.379</ele>
        <time>2019-06-21T12:05:54Z</time>
      </trkpt>
      <trkpt lat="43.86388" lon="6.29743">
        <ele>1247.59</ele>
        <time>2019-06-21T12:05:55Z</time>
      </trkpt>
      <trkpt lat="43.86397" lon="6.29743">
        <ele>1247.737</ele>
        <time>2019-06-21T12:05:56Z</time>
      </trkpt>
      <trkpt lat="43.86405" lon="6.29741">
        <ele>1247.843</ele>
        <time>2019-06-21T12:05:57Z</time>
      </trkpt>
      <trkpt lat="43.86413" lon="6.29743">
        <ele>1247.978</ele>
        <time>2019-06-21T12:05:58Z</time>
      </trkpt>
      <trkpt lat="43.8642" lon="6.29743">
        <ele>1247.919</ele>
        <time>2019-06-21T12:05:59Z</time>
      </trkpt>
      <trkpt lat="43.86428" lon="6.29743">
        <ele>1248.273</ele>
        <time>2019-06-21T12:06:00Z</time>
      </trkpt>
      <trkpt lat="43.86437" lon="6.29742">
        <ele>1248.484</ele>
        <time>2019-06-21T12:06:01Z</time>
      </trkpt>
      <trkpt lat="43.86444" lon="6.2974">
        <ele>1248.707</ele>
        <time>2019-06-21T12:06:02Z</time>
      </trkpt>
      <trkpt lat="43.86452" lon="6.29738">
        <ele>1249.017</ele>
        <time>2019-06-21T12:06:03Z</time>
      </trkpt>
      <trkpt lat="43.86458" lon="6.29736">
        <ele>1249.508</ele>
        <time>2019-06-21T12:06:04Z</time>
      </trkpt>
      <trkpt lat="43.86465" lon="6.29734">
        <ele>1250.071</ele>
        <time>2019-06-21T12:06:05Z</time>
      </trkpt>
      <trkpt lat="43.86471" lon="6.29732">
        <ele>1250.545</ele>
        <time>2019-06-21T12:06:06Z</time>
      </trkpt>
      <trkpt lat="43.86477" lon="6.2973">
        <ele>1251.046</ele>
        <time>2019-06-21T12:06:07Z</time>
      </trkpt>
      <trkpt lat="43.86478" lon="6.2972">
        <ele>1251.513</ele>
        <time>2019-06-21T12:06:08Z</time>
      </trkpt>
      <trkpt lat="43.86477" lon="6.29707">
        <ele>1251.929</ele>
        <time>2019-06-21T12:06:09Z</time>
      </trkpt>
      <trkpt lat="43.86475" lon="6.29694">
        <ele>1252.244</ele>
        <time>2019-06-21T12:06:10Z</time>
      </trkpt>
      <trkpt lat="43.8647" lon="6.29683">
        <ele>1252.495</ele>
        <time>2019-06-21T12:06:11Z</time>
      </trkpt>
      <trkpt lat="43.86467" lon="6.29672">
        <ele>1252.669</ele>
        <time>2019-06-21T12:06:12Z</time>
      </trkpt>
      <trkpt lat="43.86464" lon="6.2966">
        <ele>1252.743</ele>
        <time>2019-06-21T12:06:13Z</time>
      </trkpt>
      <trkpt lat="43.86461" lon="6.2965">
        <ele>1252.764</ele>
        <time>2019-06-21T12:06:14Z</time>
      </trkpt>
      <trkpt lat="43.86457" lon="6.29641">
        <ele>1252.71</ele>
        <time>2019-06-21T12:06:15Z</time>
      </trkpt>
      <trkpt lat="43.86454" lon="6.29632">
        <ele>1252.908</ele>
        <time>2019-06-21T12:06:16Z</time>
      </trkpt>
      <trkpt lat="43.86454" lon="6.29622">
        <ele>1253.267</ele>
        <time>2019-06-21T12:06:17Z</time>
      </trkpt>
      <trkpt lat="43.86454" lon="6.29612">
        <ele>1253.531</ele>
        <time>2019-06-21T12:06:18Z</time>
      </trkpt>
      <trkpt lat="43.86454" lon="6.29604">
        <ele>1254.062</ele>
        <time>2019-06-21T12:06:19Z</time>
      </trkpt>
      <trkpt lat="43.86453" lon="6.29594">
        <ele>1254.439</ele>
        <time>2019-06-21T12:06:20Z</time>
      </trkpt>
      <trkpt lat="43.86452" lon="6.29585">
        <ele>1254.925</ele>
        <time>2019-06-21T12:06:21Z</time>
      </trkpt>
      <trkpt lat="43.86449" lon="6.29575">
        <ele>1255.43</ele>
        <time>2019-06-21T12:06:22Z</time>
      </trkpt>
      <trkpt lat="43.86443" lon="6.29566">
        <ele>1255.851</ele>
        <time>2019-06-21T12:06:23Z</time>
      </trkpt>
      <trkpt lat="43.86439" lon="6.29557">
        <ele>1256.265</ele>
        <time>2019-06-21T12:06:24Z</time>
      </trkpt>
      <trkpt lat="43.86436" lon="6.29548">
        <ele>1256.767</ele>
        <time>2019-06-21T12:06:25Z</time>
      </trkpt>
      <trkpt lat="43.86434" lon="6.29539">
        <ele>1257.181</ele>
        <time>2019-06-21T12:06:26Z</time>
      </trkpt>
      <trkpt lat="43.86438" lon="6.2953">
        <ele>1257.519</ele>
        <time>2019-06-21T12:06:27Z</time>
      </trkpt>
      <trkpt lat="43.86441" lon="6.29521">
        <ele>1258.008</ele>
        <time>2019-06-21T12:06:28Z</time>
      </trkpt>
      <trkpt lat="43.86445" lon="6.29514">
        <ele>1258.489</ele>
        <time>2019-06-21T12:06:29Z</time>
      </trkpt>
      <trkpt lat="43.86453" lon="6.29513">
        <ele>1258.873</ele>
        <time>2019-06-21T12:06:30Z</time>
      </trkpt>
      <trkpt lat="43.86459" lon="6.29511">
        <ele>1259.354</ele>
        <time>2019-06-21T12:06:31Z</time>
      </trkpt>
      <trkpt lat="43.86471" lon="6.29511">
        <ele>1260.091</ele>
        <time>2019-06-21T12:06:33Z</time>
      </trkpt>
      <trkpt lat="43.86479" lon="6.29511">
        <ele>1260.397</ele>
        <time>2019-06-21T12:06:34Z</time>
      </trkpt>
      <trkpt lat="43.86491" lon="6.29512">
        <ele>1260.682</ele>
        <time>2019-06-21T12:06:35Z</time>
      </trkpt>
      <trkpt lat="43.86499" lon="6.29512">
        <ele>1260.853</ele>
        <time>2019-06-21T12:06:36Z</time>
      </trkpt>
      <trkpt lat="43.8651" lon="6.29516">
        <ele>1261.117</ele>
        <time>2019-06-21T12:06:37Z</time>
      </trkpt>
      <trkpt lat="43.86519" lon="6.29516">
        <ele>1261.423</ele>
        <time>2019-06-21T12:06:38Z</time>
      </trkpt>
      <trkpt lat="43.86526" lon="6.29516">
        <ele>1261.883</ele>
        <time>2019-06-21T12:06:39Z</time>
      </trkpt>
      <trkpt lat="43.86534" lon="6.29517">
        <ele>1262.211</ele>
        <time>2019-06-21T12:06:40Z</time>
      </trkpt>
      <trkpt lat="43.86545" lon="6.29516">
        <ele>1262.908</ele>
        <time>2019-06-21T12:06:42Z</time>
      </trkpt>
      <trkpt lat="43.8655" lon="6.29517">
        <ele>1263.255</ele>
        <time>2019-06-21T12:06:43Z</time>
      </trkpt>
      <trkpt lat="43.86559" lon="6.29521">
        <ele>1263.639</ele>
        <time>2019-06-21T12:06:45Z</time>
      </trkpt>
      <trkpt lat="43.86569" lon="6.29524">
        <ele>1263.98</ele>
        <time>2019-06-21T12:06:46Z</time>
      </trkpt>
      <trkpt lat="43.86575" lon="6.29527">
        <ele>1264.287</ele>
        <time>2019-06-21T12:06:47Z</time>
      </trkpt>
      <trkpt lat="43.86583" lon="6.29529">
        <ele>1264.583</ele>
        <time>2019-06-21T12:06:48Z</time>
      </trkpt>
      <trkpt lat="43.86594" lon="6.29533">
        <ele>1264.818</ele>
        <time>2019-06-21T12:06:49Z</time>
      </trkpt>
      <trkpt lat="43.86603" lon="6.29536">
        <ele>1265.169</ele>
        <time>2019-06-21T12:06:50Z</time>
      </trkpt>
      <trkpt lat="43.8661" lon="6.29541">
        <ele>1265.463</ele>
        <time>2019-06-21T12:06:51Z</time>
      </trkpt>
      <trkpt lat="43.86617" lon="6.29546">
        <ele>1265.749</ele>
        <time>2019-06-21T12:06:52Z</time>
      </trkpt>
      <trkpt lat="43.86625" lon="6.29552">
        <ele>1266.102</ele>
        <time>2019-06-21T12:06:53Z</time>
      </trkpt>
      <trkpt lat="43.86627" lon="6.29561">
        <ele>1266.622</ele>
        <time>2019-06-21T12:06:54Z</time>
      </trkpt>
      <trkpt lat="43.8663" lon="6.29569">
        <ele>1267.008</ele>
        <time>2019-06-21T12:06:55Z</time>
      </trkpt>
      <trkpt lat="43.86634" lon="6.29578">
        <ele>1267.537</ele>
        <time>2019-06-21T12:06:56Z</time>
      </trkpt>
      <trkpt lat="43.86639" lon="6.29584">
        <ele>1268.061</ele>
        <time>2019-06-21T12:06:57Z</time>
      </trkpt>
      <trkpt lat="43.86647" lon="6.29587">
        <ele>1268.442</ele>
        <time>2019-06-21T12:06:58Z</time>
      </trkpt>
      <trkpt lat="43.86652" lon="6.2959">
        <ele>1268.759</ele>
        <time>2019-06-21T12:06:59Z</time>
      </trkpt>
      <trkpt lat="43.8666" lon="6.29592">
        <ele>1269.275</ele>
        <time>2019-06-21T12:07:00Z</time>
      </trkpt>
      <trkpt lat="43.86667" lon="6.29593">
        <ele>1269.64</ele>
        <time>2019-06-21T12:07:01Z</time>
      </trkpt>
      <trkpt lat="43.86678" lon="6.29592">
        <ele>1270.071</ele>
        <time>2019-06-21T12:07:02Z</time>
      </trkpt>
      <trkpt lat="43.86687" lon="6.29589">
        <ele>1270.455</ele>
        <time>2019-06-21T12:07:03Z</time>
      </trkpt>
      <trkpt lat="43.86696" lon="6.29587">
        <ele>1270.922</ele>
        <time>2019-06-21T12:07:04Z</time>
      </trkpt>
      <trkpt lat="43.86705" lon="6.29584">
        <ele>1270.962</ele>
        <time>2019-06-21T12:07:05Z</time>
      </trkpt>
      <trkpt lat="43.86713" lon="6.29583">
        <ele>1271.208</ele>
        <time>2019-06-21T12:07:06Z</time>
      </trkpt>
      <trkpt lat="43.8672" lon="6.29585">
        <ele>1271.508</ele>
        <time>2019-06-21T12:07:07Z</time>
      </trkpt>
      <trkpt lat="43.86727" lon="6.29587">
        <ele>1271.865</ele>
        <time>2019-06-21T12:07:08Z</time>
      </trkpt>
      <trkpt lat="43.86734" lon="6.29588">
        <ele>1272.199</ele>
        <time>2019-06-21T12:07:09Z</time>
      </trkpt>
      <trkpt lat="43.86742" lon="6.29589">
        <ele>1272.44</ele>
        <time>2019-06-21T12:07:10Z</time>
      </trkpt>
      <trkpt lat="43.86749" lon="6.29594">
        <ele>1272.727</ele>
        <time>2019-06-21T12:07:11Z</time>
      </trkpt>
      <trkpt lat="43.86756" lon="6.29597">
        <ele>1273.153</ele>
        <time>2019-06-21T12:07:12Z</time>
      </trkpt>
      <trkpt lat="43.86768" lon="6.29602">
        <ele>1273.658</ele>
        <time>2019-06-21T12:07:14Z</time>
      </trkpt>
      <trkpt lat="43.86775" lon="6.296">
        <ele>1273.729</ele>
        <time>2019-06-21T12:07:15Z</time>
      </trkpt>
      <trkpt lat="43.86781" lon="6.29596">
        <ele>1273.883</ele>
        <time>2019-06-21T12:07:16Z</time>
      </trkpt>
      <trkpt lat="43.86789" lon="6.29593">
        <ele>1273.873</ele>
        <time>2019-06-21T12:07:17Z</time>
      </trkpt>
      <trkpt lat="43.86796" lon="6.29589">
        <ele>1273.985</ele>
        <time>2019-06-21T12:07:18Z</time>
      </trkpt>
      <trkpt lat="43.86801" lon="6.29581">
        <ele>1274.013</ele>
        <time>2019-06-21T12:07:19Z</time>
      </trkpt>
      <trkpt lat="43.86807" lon="6.29575">
        <ele>1274.208</ele>
        <time>2019-06-21T12:07:20Z</time>
      </trkpt>
      <trkpt lat="43.86814" lon="6.2957">
        <ele>1274.55</ele>
        <time>2019-06-21T12:07:21Z</time>
      </trkpt>
      <trkpt lat="43.86821" lon="6.29567">
        <ele>1274.834</ele>
        <time>2019-06-21T12:07:22Z</time>
      </trkpt>
      <trkpt lat="43.86828" lon="6.29566">
        <ele>1275.195</ele>
        <time>2019-06-21T12:07:23Z</time>
      </trkpt>
      <trkpt lat="43.86835" lon="6.2957">
        <ele>1275.412</ele>
        <time>2019-06-21T12:07:24Z</time>
      </trkpt>
      <trkpt lat="43.86841" lon="6.29575">
        <ele>1275.628</ele>
        <time>2019-06-21T12:07:25Z</time>
      </trkpt>
      <trkpt lat="43.86849" lon="6.29578">
        <ele>1275.893</ele>
        <time>2019-06-21T12:07:26Z</time>
      </trkpt>
      <trkpt lat="43.86855" lon="6.29583">
        <ele>1276.134</ele>
        <time>2019-06-21T12:07:27Z</time>
      </trkpt>
      <trkpt lat="43.86862" lon="6.29589">
        <ele>1276.278</ele>
        <time>2019-06-21T12:07:28Z</time>
      </trkpt>
      <trkpt lat="43.86867" lon="6.29595">
        <ele>1276.456</ele>
        <time>2019-06-21T12:07:29Z</time>
      </trkpt>
      <trkpt lat="43.86872" lon="6.29602">
        <ele>1276.559</ele>
        <time>2019-06-21T12:07:30Z</time>
      </trkpt>
      <trkpt lat="43.86877" lon="6.2961">
        <ele>1276.614</ele>
        <time>2019-06-21T12:07:31Z</time>
      </trkpt>
      <trkpt lat="43.8688" lon="6.29618">
        <ele>1276.708</ele>
        <time>2019-06-21T12:07:32Z</time>
      </trkpt>
      <trkpt lat="43.86884" lon="6.29628">
        <ele>1276.838</ele>
        <time>2019-06-21T12:07:33Z</time>
      </trkpt>
      <trkpt lat="43.8689" lon="6.29637">
        <ele>1276.912</ele>
        <time>2019-06-21T12:07:34Z</time>
      </trkpt>
      <trkpt lat="43.86898" lon="6.29646">
        <ele>1276.973</ele>
        <time>2019-06-21T12:07:35Z</time>
      </trkpt>
      <trkpt lat="43.86904" lon="6.29653">
        <ele>1276.81</ele>
        <time>2019-06-21T12:07:36Z</time>
      </trkpt>
      <trkpt lat="43.8691" lon="6.29658">
        <ele>1276.636</ele>
        <time>2019-06-21T12:07:37Z</time>
      </trkpt>
      <trkpt lat="43.86916" lon="6.29665">
        <ele>1276.541</ele>
        <time>2019-06-21T12:07:38Z</time>
      </trkpt>
      <trkpt lat="43.86923" lon="6.29672">
        <ele>1276.372</ele>
        <time>2019-06-21T12:07:39Z</time>
      </trkpt>
      <trkpt lat="43.86931" lon="6.29679">
        <ele>1276.126</ele>
        <time>2019-06-21T12:07:40Z</time>
      </trkpt>
      <trkpt lat="43.86936" lon="6.29687">
        <ele>1276.066</ele>
        <time>2019-06-21T12:07:41Z</time>
      </trkpt>
      <trkpt lat="43.86941" lon="6.29696">
        <ele>1276.029</ele>
        <time>2019-06-21T12:07:42Z</time>
      </trkpt>
      <trkpt lat="43.86946" lon="6.29705">
        <ele>1275.921</ele>
        <time>2019-06-21T12:07:43Z</time>
      </trkpt>
      <trkpt lat="43.86947" lon="6.29714">
        <ele>1275.908</ele>
        <time>2019-06-21T12:07:44Z</time>
      </trkpt>
      <trkpt lat="43.86951" lon="6.29724">
        <ele>1275.939</ele>
        <time>2019-06-21T12:07:45Z</time>
      </trkpt>
      <trkpt lat="43.86956" lon="6.29732">
        <ele>1276.043</ele>
        <time>2019-06-21T12:07:46Z</time>
      </trkpt>
      <trkpt lat="43.86962" lon="6.29737">
        <ele>1276.224</ele>
        <time>2019-06-21T12:07:47Z</time>
      </trkpt>
      <trkpt lat="43.86967" lon="6.29724">
        <ele>1276.571</ele>
        <time>2019-06-21T12:07:50Z</time>
      </trkpt>
      <trkpt lat="43.8697" lon="6.29716">
        <ele>1276.787</ele>
        <time>2019-06-21T12:07:51Z</time>
      </trkpt>
      <trkpt lat="43.86973" lon="6.29707">
        <ele>1276.942</ele>
        <time>2019-06-21T12:07:52Z</time>
      </trkpt>
      <trkpt lat="43.86978" lon="6.29698">
        <ele>1277.293</ele>
        <time>2019-06-21T12:07:53Z</time>
      </trkpt>
      <trkpt lat="43.86984" lon="6.29691">
        <ele>1277.627</ele>
        <time>2019-06-21T12:07:54Z</time>
      </trkpt>
      <trkpt lat="43.8699" lon="6.29686">
        <ele>1277.614</ele>
        <time>2019-06-21T12:07:55Z</time>
      </trkpt>
      <trkpt lat="43.86996" lon="6.29681">
        <ele>1278.454</ele>
        <time>2019-06-21T12:07:56Z</time>
      </trkpt>
      <trkpt lat="43.87001" lon="6.29679">
        <ele>1278.909</ele>
        <time>2019-06-21T12:07:57Z</time>
      </trkpt>
      <trkpt lat="43.87009" lon="6.29676">
        <ele>1279.408</ele>
        <time>2019-06-21T12:07:58Z</time>
      </trkpt>
      <trkpt lat="43.87013" lon="6.29671">
        <ele>1280.044</ele>
        <time>2019-06-21T12:07:59Z</time>
      </trkpt>
      <trkpt lat="43.87017" lon="6.29664">
        <ele>1280.568</ele>
        <time>2019-06-21T12:08:00Z</time>
      </trkpt>
      <trkpt lat="43.87022" lon="6.29659">
        <ele>1281.159</ele>
        <time>2019-06-21T12:08:01Z</time>
      </trkpt>
      <trkpt lat="43.87028" lon="6.29654">
        <ele>1281.656</ele>
        <time>2019-06-21T12:08:02Z</time>
      </trkpt>
      <trkpt lat="43.87033" lon="6.29647">
        <ele>1282.282</ele>
        <time>2019-06-21T12:08:03Z</time>
      </trkpt>
      <trkpt lat="43.87038" lon="6.29642">
        <ele>1282.757</ele>
        <time>2019-06-21T12:08:04Z</time>
      </trkpt>
      <trkpt lat="43.87043" lon="6.29638">
        <ele>1283.218</ele>
        <time>2019-06-21T12:08:05Z</time>
      </trkpt>
      <trkpt lat="43.87053" lon="6.29639">
        <ele>1283.782</ele>
        <time>2019-06-21T12:08:06Z</time>
      </trkpt>
      <trkpt lat="43.87057" lon="6.29639">
        <ele>1284.332</ele>
        <time>2019-06-21T12:08:07Z</time>
      </trkpt>
      <trkpt lat="43.87064" lon="6.2964">
        <ele>1284.892</ele>
        <time>2019-06-21T12:08:08Z</time>
      </trkpt>
      <trkpt lat="43.87072" lon="6.29641">
        <ele>1285.111</ele>
        <time>2019-06-21T12:08:09Z</time>
      </trkpt>
      <trkpt lat="43.87077" lon="6.29643">
        <ele>1285.508</ele>
        <time>2019-06-21T12:08:10Z</time>
      </trkpt>
      <trkpt lat="43.87085" lon="6.29645">
        <ele>1285.836</ele>
        <time>2019-06-21T12:08:11Z</time>
      </trkpt>
      <trkpt lat="43.87094" lon="6.29641">
        <ele>1286.29</ele>
        <time>2019-06-21T12:08:12Z</time>
      </trkpt>
      <trkpt lat="43.871" lon="6.29639">
        <ele>1286.631</ele>
        <time>2019-06-21T12:08:13Z</time>
      </trkpt>
      <trkpt lat="43.87108" lon="6.29637">
        <ele>1287.168</ele>
        <time>2019-06-21T12:08:14Z</time>
      </trkpt>
      <trkpt lat="43.87115" lon="6.29635">
        <ele>1287.654</ele>
        <time>2019-06-21T12:08:15Z</time>
      </trkpt>
      <trkpt lat="43.87122" lon="6.29634">
        <ele>1288.069</ele>
        <time>2019-06-21T12:08:16Z</time>
      </trkpt>
      <trkpt lat="43.8713" lon="6.29632">
        <ele>1288.22</ele>
        <time>2019-06-21T12:08:17Z</time>
      </trkpt>
      <trkpt lat="43.87136" lon="6.2963">
        <ele>1288.414</ele>
        <time>2019-06-21T12:08:18Z</time>
      </trkpt>
      <trkpt lat="43.87145" lon="6.29629">
        <ele>1288.615</ele>
        <time>2019-06-21T12:08:19Z</time>
      </trkpt>
      <trkpt lat="43.87153" lon="6.29627">
        <ele>1288.765</ele>
        <time>2019-06-21T12:08:20Z</time>
      </trkpt>
      <trkpt lat="43.87159" lon="6.29627">
        <ele>1288.911</ele>
        <time>2019-06-21T12:08:21Z</time>
      </trkpt>
      <trkpt lat="43.87165" lon="6.29625">
        <ele>1289.008</ele>
        <time>2019-06-21T12:08:22Z</time>
      </trkpt>
      <trkpt lat="43.8717" lon="6.29627">
        <ele>1289.244</ele>
        <time>2019-06-21T12:08:23Z</time>
      </trkpt>
      <trkpt lat="43.87177" lon="6.29629">
        <ele>1289.388</ele>
        <time>2019-06-21T12:08:24Z</time>
      </trkpt>
      <trkpt lat="43.87182" lon="6.29631">
        <ele>1289.339</ele>
        <time>2019-06-21T12:08:25Z</time>
      </trkpt>
      <trkpt lat="43.87188" lon="6.29635">
        <ele>1289.446</ele>
        <time>2019-06-21T12:08:26Z</time>
      </trkpt>
      <trkpt lat="43.87191" lon="6.2964">
        <ele>1289.522</ele>
        <time>2019-06-21T12:08:27Z</time>
      </trkpt>
      <trkpt lat="43.87198" lon="6.2965">
        <ele>1289.937</ele>
        <time>2019-06-21T12:08:29Z</time>
      </trkpt>
      <trkpt lat="43.87203" lon="6.29656">
        <ele>1290.058</ele>
        <time>2019-06-21T12:08:30Z</time>
      </trkpt>
      <trkpt lat="43.87208" lon="6.29663">
        <ele>1290.232</ele>
        <time>2019-06-21T12:08:31Z</time>
      </trkpt>
      <trkpt lat="43.87214" lon="6.29668">
        <ele>1290.424</ele>
        <time>2019-06-21T12:08:32Z</time>
      </trkpt>
      <trkpt lat="43.87222" lon="6.29672">
        <ele>1290.604</ele>
        <time>2019-06-21T12:08:33Z</time>
      </trkpt>
      <trkpt lat="43.87227" lon="6.29676">
        <ele>1290.914</ele>
        <time>2019-06-21T12:08:34Z</time>
      </trkpt>
      <trkpt lat="43.87232" lon="6.29677">
        <ele>1291.208</ele>
        <time>2019-06-21T12:08:35Z</time>
      </trkpt>
      <trkpt lat="43.8724" lon="6.29679">
        <ele>1291.545</ele>
        <time>2019-06-21T12:08:36Z</time>
      </trkpt>
      <trkpt lat="43.87247" lon="6.29679">
        <ele>1291.739</ele>
        <time>2019-06-21T12:08:37Z</time>
      </trkpt>
      <trkpt lat="43.87253" lon="6.29678">
        <ele>1292.04</ele>
        <time>2019-06-21T12:08:38Z</time>
      </trkpt>
      <trkpt lat="43.87261" lon="6.29676">
        <ele>1292.427</ele>
        <time>2019-06-21T12:08:39Z</time>
      </trkpt>
      <trkpt lat="43.87267" lon="6.29673">
        <ele>1293.023</ele>
        <time>2019-06-21T12:08:40Z</time>
      </trkpt>
      <trkpt lat="43.87276" lon="6.29671">
        <ele>1293.438</ele>
        <time>2019-06-21T12:08:41Z</time>
      </trkpt>
      <trkpt lat="43.87284" lon="6.29666">
        <ele>1294.089</ele>
        <time>2019-06-21T12:08:42Z</time>
      </trkpt>
      <trkpt lat="43.8729" lon="6.29662">
        <ele>1294.663</ele>
        <time>2019-06-21T12:08:43Z</time>
      </trkpt>
      <trkpt lat="43.87296" lon="6.29659">
        <ele>1295.012</ele>
        <time>2019-06-21T12:08:44Z</time>
      </trkpt>
      <trkpt lat="43.87302" lon="6.29655">
        <ele>1295.432</ele>
        <time>2019-06-21T12:08:45Z</time>
      </trkpt>
      <trkpt lat="43.87309" lon="6.29652">
        <ele>1295.905</ele>
        <time>2019-06-21T12:08:46Z</time>
      </trkpt>
      <trkpt lat="43.87314" lon="6.2965">
        <ele>1296.308</ele>
        <time>2019-06-21T12:08:47Z</time>
      </trkpt>
      <trkpt lat="43.87319" lon="6.29648">
        <ele>1296.774</ele>
        <time>2019-06-21T12:08:48Z</time>
      </trkpt>
      <trkpt lat="43.87327" lon="6.29651">
        <ele>1297.118</ele>
        <time>2019-06-21T12:08:49Z</time>
      </trkpt>
      <trkpt lat="43.8733" lon="6.29655">
        <ele>1297.549</ele>
        <time>2019-06-21T12:08:50Z</time>
      </trkpt>
      <trkpt lat="43.87333" lon="6.2966">
        <ele>1297.936</ele>
        <time>2019-06-21T12:08:51Z</time>
      </trkpt>
      <trkpt lat="43.8733" lon="6.29671">
        <ele>1298.532</ele>
        <time>2019-06-21T12:08:52Z</time>
      </trkpt>
      <trkpt lat="43.87326" lon="6.29676">
        <ele>1299.147</ele>
        <time>2019-06-21T12:08:53Z</time>
      </trkpt>
      <trkpt lat="43.87323" lon="6.29682">
        <ele>1299.758</ele>
        <time>2019-06-21T12:08:54Z</time>
      </trkpt>
      <trkpt lat="43.87319" lon="6.29688">
        <ele>1300.392</ele>
        <time>2019-06-21T12:08:55Z</time>
      </trkpt>
      <trkpt lat="43.87316" lon="6.29694">
        <ele>1300.928</ele>
        <time>2019-06-21T12:08:56Z</time>
      </trkpt>
      <trkpt lat="43.87312" lon="6.29701">
        <ele>1301.589</ele>
        <time>2019-06-21T12:08:57Z</time>
      </trkpt>
      <trkpt lat="43.87307" lon="6.29703">
        <ele>1302.017</ele>
        <time>2019-06-21T12:08:58Z</time>
      </trkpt>
      <trkpt lat="43.87304" lon="6.2971">
        <ele>1302.608</ele>
        <time>2019-06-21T12:08:59Z</time>
      </trkpt>
      <trkpt lat="43.873" lon="6.29716">
        <ele>1303.155</ele>
        <time>2019-06-21T12:09:00Z</time>
      </trkpt>
      <trkpt lat="43.87294" lon="6.29725">
        <ele>1303.739</ele>
        <time>2019-06-21T12:09:01Z</time>
      </trkpt>
      <trkpt lat="43.87288" lon="6.2973">
        <ele>1304.35</ele>
        <time>2019-06-21T12:09:02Z</time>
      </trkpt>
      <trkpt lat="43.87283" lon="6.29736">
        <ele>1305.047</ele>
        <time>2019-06-21T12:09:03Z</time>
      </trkpt>
      <trkpt lat="43.87278" lon="6.29742">
        <ele>1305.743</ele>
        <time>2019-06-21T12:09:04Z</time>
      </trkpt>
      <trkpt lat="43.87274" lon="6.29747">
        <ele>1306.448</ele>
        <time>2019-06-21T12:09:05Z</time>
      </trkpt>
      <trkpt lat="43.87271" lon="6.29753">
        <ele>1307.069</ele>
        <time>2019-06-21T12:09:06Z</time>
      </trkpt>
      <trkpt lat="43.87267" lon="6.29757">
        <ele>1307.743</ele>
        <time>2019-06-21T12:09:07Z</time>
      </trkpt>
      <trkpt lat="43.87263" lon="6.29764">
        <ele>1308.467</ele>
        <time>2019-06-21T12:09:08Z</time>
      </trkpt>
      <trkpt lat="43.87263" lon="6.29778">
        <ele>1309.781</ele>
        <time>2019-06-21T12:09:10Z</time>
      </trkpt>
      <trkpt lat="43.87265" lon="6.29784">
        <ele>1310.919</ele>
        <time>2019-06-21T12:09:13Z</time>
      </trkpt>
      <trkpt lat="43.8727" lon="6.29781">
        <ele>1311.708</ele>
        <time>2019-06-21T12:09:15Z</time>
      </trkpt>
      <trkpt lat="43.8728" lon="6.29781">
        <ele>1312.249</ele>
        <time>2019-06-21T12:09:16Z</time>
      </trkpt>
      <trkpt lat="43.87288" lon="6.29781">
        <ele>1312.853</ele>
        <time>2019-06-21T12:09:17Z</time>
      </trkpt>
      <trkpt lat="43.87294" lon="6.2978">
        <ele>1313.544</ele>
        <time>2019-06-21T12:09:18Z</time>
      </trkpt>
      <trkpt lat="43.87299" lon="6.29778">
        <ele>1314.121</ele>
        <time>2019-06-21T12:09:19Z</time>
      </trkpt>
      <trkpt lat="43.87304" lon="6.29777">
        <ele>1314.797</ele>
        <time>2019-06-21T12:09:20Z</time>
      </trkpt>
      <trkpt lat="43.87312" lon="6.29776">
        <ele>1315.492</ele>
        <time>2019-06-21T12:09:21Z</time>
      </trkpt>
      <trkpt lat="43.87319" lon="6.29776">
        <ele>1316.083</ele>
        <time>2019-06-21T12:09:22Z</time>
      </trkpt>
      <trkpt lat="43.87326" lon="6.29775">
        <ele>1316.557</ele>
        <time>2019-06-21T12:09:23Z</time>
      </trkpt>
      <trkpt lat="43.87331" lon="6.2977">
        <ele>1317.156</ele>
        <time>2019-06-21T12:09:24Z</time>
      </trkpt>
      <trkpt lat="43.87338" lon="6.29767">
        <ele>1317.659</ele>
        <time>2019-06-21T12:09:25Z</time>
      </trkpt>
      <trkpt lat="43.87344" lon="6.29764">
        <ele>1318.114</ele>
        <time>2019-06-21T12:09:26Z</time>
      </trkpt>
      <trkpt lat="43.87349" lon="6.29758">
        <ele>1318.508</ele>
        <time>2019-06-21T12:09:27Z</time>
      </trkpt>
      <trkpt lat="43.87354" lon="6.29751">
        <ele>1318.978</ele>
        <time>2019-06-21T12:09:28Z</time>
      </trkpt>
      <trkpt lat="43.87358" lon="6.29739">
        <ele>1319.422</ele>
        <time>2019-06-21T12:09:30Z</time>
      </trkpt>
      <trkpt lat="43.87361" lon="6.29733">
        <ele>1319.693</ele>
        <time>2019-06-21T12:09:31Z</time>
      </trkpt>
      <trkpt lat="43.87364" lon="6.29726">
        <ele>1319.93</ele>
        <time>2019-06-21T12:09:32Z</time>
      </trkpt>
      <trkpt lat="43.87368" lon="6.29718">
        <ele>1320.146</ele>
        <time>2019-06-21T12:09:33Z</time>
      </trkpt>
      <trkpt lat="43.87373" lon="6.29714">
        <ele>1320.361</ele>
        <time>2019-06-21T12:09:34Z</time>
      </trkpt>
      <trkpt lat="43.87378" lon="6.29711">
        <ele>1320.662</ele>
        <time>2019-06-21T12:09:35Z</time>
      </trkpt>
      <trkpt lat="43.87387" lon="6.29711">
        <ele>1320.986</ele>
        <time>2019-06-21T12:09:36Z</time>
      </trkpt>
      <trkpt lat="43.87393" lon="6.2971">
        <ele>1321.062</ele>
        <time>2019-06-21T12:09:37Z</time>
      </trkpt>
      <trkpt lat="43.87399" lon="6.29711">
        <ele>1321.283</ele>
        <time>2019-06-21T12:09:38Z</time>
      </trkpt>
      <trkpt lat="43.87405" lon="6.29712">
        <ele>1321.511</ele>
        <time>2019-06-21T12:09:39Z</time>
      </trkpt>
      <trkpt lat="43.8741" lon="6.29715">
        <ele>1322.008</ele>
        <time>2019-06-21T12:09:40Z</time>
      </trkpt>
      <trkpt lat="43.87415" lon="6.29718">
        <ele>1322.519</ele>
        <time>2019-06-21T12:09:41Z</time>
      </trkpt>
      <trkpt lat="43.87421" lon="6.29723">
        <ele>1323.173</ele>
        <time>2019-06-21T12:09:42Z</time>
      </trkpt>
      <trkpt lat="43.87426" lon="6.29728">
        <ele>1323.974</ele>
        <time>2019-06-21T12:09:43Z</time>
      </trkpt>
      <trkpt lat="43.87432" lon="6.29733">
        <ele>1324.631</ele>
        <time>2019-06-21T12:09:44Z</time>
      </trkpt>
      <trkpt lat="43.87438" lon="6.29738">
        <ele>1325.217</ele>
        <time>2019-06-21T12:09:45Z</time>
      </trkpt>
      <trkpt lat="43.87443" lon="6.29744">
        <ele>1325.792</ele>
        <time>2019-06-21T12:09:46Z</time>
      </trkpt>
      <trkpt lat="43.87449" lon="6.29752">
        <ele>1326.283</ele>
        <time>2019-06-21T12:09:47Z</time>
      </trkpt>
      <trkpt lat="43.87454" lon="6.29759">
        <ele>1326.297</ele>
        <time>2019-06-21T12:09:48Z</time>
      </trkpt>
      <trkpt lat="43.8746" lon="6.29765">
        <ele>1327.232</ele>
        <time>2019-06-21T12:09:49Z</time>
      </trkpt>
      <trkpt lat="43.87464" lon="6.29769">
        <ele>1327.792</ele>
        <time>2019-06-21T12:09:50Z</time>
      </trkpt>
      <trkpt lat="43.8747" lon="6.29772">
        <ele>1327.711</ele>
        <time>2019-06-21T12:09:51Z</time>
      </trkpt>
      <trkpt lat="43.87476" lon="6.29775">
        <ele>1328.308</ele>
        <time>2019-06-21T12:09:52Z</time>
      </trkpt>
      <trkpt lat="43.87484" lon="6.29774">
        <ele>1328.946</ele>
        <time>2019-06-21T12:09:53Z</time>
      </trkpt>
      <trkpt lat="43.8749" lon="6.29771">
        <ele>1329.42</ele>
        <time>2019-06-21T12:09:54Z</time>
      </trkpt>
      <trkpt lat="43.87496" lon="6.29768">
        <ele>1330.021</ele>
        <time>2019-06-21T12:09:55Z</time>
      </trkpt>
      <trkpt lat="43.87503" lon="6.29763">
        <ele>1330.598</ele>
        <time>2019-06-21T12:09:56Z</time>
      </trkpt>
      <trkpt lat="43.87509" lon="6.29758">
        <ele>1331.134</ele>
        <time>2019-06-21T12:09:57Z</time>
      </trkpt>
      <trkpt lat="43.87513" lon="6.2975">
        <ele>1331.649</ele>
        <time>2019-06-21T12:09:58Z</time>
      </trkpt>
      <trkpt lat="43.87517" lon="6.29743">
        <ele>1332.29</ele>
        <time>2019-06-21T12:09:59Z</time>
      </trkpt>
      <trkpt lat="43.87521" lon="6.29735">
        <ele>1332.854</ele>
        <time>2019-06-21T12:10:00Z</time>
      </trkpt>
      <trkpt lat="43.87525" lon="6.29728">
        <ele>1333.544</ele>
        <time>2019-06-21T12:10:01Z</time>
      </trkpt>
      <trkpt lat="43.87532" lon="6.29729">
        <ele>1334.005</ele>
        <time>2019-06-21T12:10:02Z</time>
      </trkpt>
      <trkpt lat="43.87538" lon="6.29731">
        <ele>1334.515</ele>
        <time>2019-06-21T12:10:03Z</time>
      </trkpt>
      <trkpt lat="43.87546" lon="6.29734">
        <ele>1334.808</ele>
        <time>2019-06-21T12:10:04Z</time>
      </trkpt>
      <trkpt lat="43.87551" lon="6.29738">
        <ele>1335.127</ele>
        <time>2019-06-21T12:10:05Z</time>
      </trkpt>
      <trkpt lat="43.87557" lon="6.29741">
        <ele>1335.251</ele>
        <time>2019-06-21T12:10:06Z</time>
      </trkpt>
      <trkpt lat="43.87562" lon="6.29745">
        <ele>1335.352</ele>
        <time>2019-06-21T12:10:07Z</time>
      </trkpt>
      <trkpt lat="43.87568" lon="6.29748">
        <ele>1335.619</ele>
        <time>2019-06-21T12:10:08Z</time>
      </trkpt>
      <trkpt lat="43.87575" lon="6.29745">
        <ele>1336.165</ele>
        <time>2019-06-21T12:10:09Z</time>
      </trkpt>
      <trkpt lat="43.87581" lon="6.29742">
        <ele>1336.77</ele>
        <time>2019-06-21T12:10:10Z</time>
      </trkpt>
      <trkpt lat="43.87587" lon="6.29736">
        <ele>1337.521</ele>
        <time>2019-06-21T12:10:11Z</time>
      </trkpt>
      <trkpt lat="43.87593" lon="6.29731">
        <ele>1338.385</ele>
        <time>2019-06-21T12:10:12Z</time>
      </trkpt>
      <trkpt lat="43.87597" lon="6.29725">
        <ele>1339.036</ele>
        <time>2019-06-21T12:10:13Z</time>
      </trkpt>
      <trkpt lat="43.87603" lon="6.29716">
        <ele>1339.717</ele>
        <time>2019-06-21T12:10:14Z</time>
      </trkpt>
      <trkpt lat="43.87608" lon="6.29708">
        <ele>1340.218</ele>
        <time>2019-06-21T12:10:15Z</time>
      </trkpt>
      <trkpt lat="43.87615" lon="6.297">
        <ele>1340.508</ele>
        <time>2019-06-21T12:10:16Z</time>
      </trkpt>
      <trkpt lat="43.87619" lon="6.29691">
        <ele>1340.736</ele>
        <time>2019-06-21T12:10:17Z</time>
      </trkpt>
      <trkpt lat="43.87622" lon="6.29682">
        <ele>1340.77</ele>
        <time>2019-06-21T12:10:18Z</time>
      </trkpt>
      <trkpt lat="43.87622" lon="6.29673">
        <ele>1340.531</ele>
        <time>2019-06-21T12:10:19Z</time>
      </trkpt>
      <trkpt lat="43.87622" lon="6.29663">
        <ele>1340.268</ele>
        <time>2019-06-21T12:10:20Z</time>
      </trkpt>
      <trkpt lat="43.8762" lon="6.29653">
        <ele>1339.954</ele>
        <time>2019-06-21T12:10:21Z</time>
      </trkpt>
      <trkpt lat="43.87619" lon="6.29643">
        <ele>1339.679</ele>
        <time>2019-06-21T12:10:22Z</time>
      </trkpt>
      <trkpt lat="43.87619" lon="6.29633">
        <ele>1339.43</ele>
        <time>2019-06-21T12:10:23Z</time>
      </trkpt>
      <trkpt lat="43.87619" lon="6.29622">
        <ele>1339.154</ele>
        <time>2019-06-21T12:10:24Z</time>
      </trkpt>
      <trkpt lat="43.8762" lon="6.29612">
        <ele>1338.767</ele>
        <time>2019-06-21T12:10:25Z</time>
      </trkpt>
      <trkpt lat="43.87621" lon="6.29602">
        <ele>1338.381</ele>
        <time>2019-06-21T12:10:26Z</time>
      </trkpt>
      <trkpt lat="43.87622" lon="6.29594">
        <ele>1337.819</ele>
        <time>2019-06-21T12:10:27Z</time>
      </trkpt>
      <trkpt lat="43.87624" lon="6.29586">
        <ele>1337.208</ele>
        <time>2019-06-21T12:10:28Z</time>
      </trkpt>
      <trkpt lat="43.87626" lon="6.29578">
        <ele>1336.619</ele>
        <time>2019-06-21T12:10:29Z</time>
      </trkpt>
      <trkpt lat="43.87628" lon="6.29569">
        <ele>1336.113</ele>
        <time>2019-06-21T12:10:30Z</time>
      </trkpt>
      <trkpt lat="43.87631" lon="6.29559">
        <ele>1335.614</ele>
        <time>2019-06-21T12:10:31Z</time>
      </trkpt>
      <trkpt lat="43.87633" lon="6.2955">
        <ele>1335.111</ele>
        <time>2019-06-21T12:10:32Z</time>
      </trkpt>
      <trkpt lat="43.87636" lon="6.29541">
        <ele>1334.727</ele>
        <time>2019-06-21T12:10:33Z</time>
      </trkpt>
      <trkpt lat="43.8764" lon="6.29532">
        <ele>1334.282</ele>
        <time>2019-06-21T12:10:34Z</time>
      </trkpt>
      <trkpt lat="43.87643" lon="6.29524">
        <ele>1333.853</ele>
        <time>2019-06-21T12:10:35Z</time>
      </trkpt>
      <trkpt lat="43.87645" lon="6.29516">
        <ele>1333.327</ele>
        <time>2019-06-21T12:10:36Z</time>
      </trkpt>
      <trkpt lat="43.87648" lon="6.29507">
        <ele>1332.869</ele>
        <time>2019-06-21T12:10:37Z</time>
      </trkpt>
      <trkpt lat="43.87652" lon="6.29498">
        <ele>1332.204</ele>
        <time>2019-06-21T12:10:38Z</time>
      </trkpt>
      <trkpt lat="43.87654" lon="6.29492">
        <ele>1331.624</ele>
        <time>2019-06-21T12:10:39Z</time>
      </trkpt>
      <trkpt lat="43.87659" lon="6.29488">
        <ele>1331.008</ele>
        <time>2019-06-21T12:10:40Z</time>
      </trkpt>
      <trkpt lat="43.87666" lon="6.29488">
        <ele>1330.489</ele>
        <time>2019-06-21T12:10:41Z</time>
      </trkpt>
      <trkpt lat="43.87671" lon="6.29484">
        <ele>1329.943</ele>
        <time>2019-06-21T12:10:42Z</time>
      </trkpt>
      <trkpt lat="43.87678" lon="6.29484">
        <ele>1329.354</ele>
        <time>2019-06-21T12:10:43Z</time>
      </trkpt>
      <trkpt lat="43.87682" lon="6.29486">
        <ele>1328.931</ele>
        <time>2019-06-21T12:10:44Z</time>
      </trkpt>
      <trkpt lat="43.87688" lon="6.29489">
        <ele>1328.487</ele>
        <time>2019-06-21T12:10:45Z</time>
      </trkpt>
      <trkpt lat="43.87692" lon="6.29497">
        <ele>1328.072</ele>
        <time>2019-06-21T12:10:46Z</time>
      </trkpt>
      <trkpt lat="43.87694" lon="6.29504">
        <ele>1327.513</ele>
        <time>2019-06-21T12:10:47Z</time>
      </trkpt>
      <trkpt lat="43.87701" lon="6.29511">
        <ele>1327.067</ele>
        <time>2019-06-21T12:10:48Z</time>
      </trkpt>
      <trkpt lat="43.87705" lon="6.29518">
        <ele>1326.534</ele>
        <time>2019-06-21T12:10:49Z</time>
      </trkpt>
      <trkpt lat="43.87709" lon="6.29523">
        <ele>1326.155</ele>
        <time>2019-06-21T12:10:50Z</time>
      </trkpt>
      <trkpt lat="43.87718" lon="6.29526">
        <ele>1325.61</ele>
        <time>2019-06-21T12:10:51Z</time>
      </trkpt>
      <trkpt lat="43.87723" lon="6.29528">
        <ele>1325.208</ele>
        <time>2019-06-21T12:10:52Z</time>
      </trkpt>
      <trkpt lat="43.87732" lon="6.29529">
        <ele>1324.856</ele>
        <time>2019-06-21T12:10:53Z</time>
      </trkpt>
      <trkpt lat="43.87738" lon="6.29532">
        <ele>1324.47</ele>
        <time>2019-06-21T12:10:54Z</time>
      </trkpt>
      <trkpt lat="43.87745" lon="6.29539">
        <ele>1323.931</ele>
        <time>2019-06-21T12:10:55Z</time>
      </trkpt>
      <trkpt lat="43.87752" lon="6.29546">
        <ele>1323.618</ele>
        <time>2019-06-21T12:10:56Z</time>
      </trkpt>
      <trkpt lat="43.87762" lon="6.29551">
        <ele>1323.354</ele>
        <time>2019-06-21T12:10:57Z</time>
      </trkpt>
      <trkpt lat="43.87771" lon="6.29556">
        <ele>1322.999</ele>
        <time>2019-06-21T12:10:58Z</time>
      </trkpt>
      <trkpt lat="43.8778" lon="6.29559">
        <ele>1322.68</ele>
        <time>2019-06-21T12:10:59Z</time>
      </trkpt>
      <trkpt lat="43.87788" lon="6.29561">
        <ele>1322.314</ele>
        <time>2019-06-21T12:11:00Z</time>
      </trkpt>
      <trkpt lat="43.87798" lon="6.29563">
        <ele>1322.087</ele>
        <time>2019-06-21T12:11:01Z</time>
      </trkpt>
      <trkpt lat="43.87806" lon="6.29566">
        <ele>1321.742</ele>
        <time>2019-06-21T12:11:02Z</time>
      </trkpt>
      <trkpt lat="43.87811" lon="6.29558">
        <ele>1321.426</ele>
        <time>2019-06-21T12:11:03Z</time>
      </trkpt>
      <trkpt lat="43.87819" lon="6.29553">
        <ele>1321.008</ele>
        <time>2019-06-21T12:11:04Z</time>
      </trkpt>
      <trkpt lat="43.87824" lon="6.29546">
        <ele>1320.661</ele>
        <time>2019-06-21T12:11:05Z</time>
      </trkpt>
      <trkpt lat="43.87831" lon="6.2954">
        <ele>1320.025</ele>
        <time>2019-06-21T12:11:06Z</time>
      </trkpt>
      <trkpt lat="43.87839" lon="6.29533">
        <ele>1319.436</ele>
        <time>2019-06-21T12:11:07Z</time>
      </trkpt>
      <trkpt lat="43.87847" lon="6.29528">
        <ele>1318.773</ele>
        <time>2019-06-21T12:11:08Z</time>
      </trkpt>
      <trkpt lat="43.87853" lon="6.29525">
        <ele>1317.939</ele>
        <time>2019-06-21T12:11:09Z</time>
      </trkpt>
      <trkpt lat="43.87861" lon="6.29522">
        <ele>1317.154</ele>
        <time>2019-06-21T12:11:10Z</time>
      </trkpt>
      <trkpt lat="43.8787" lon="6.29529">
        <ele>1317.195</ele>
        <time>2019-06-21T12:11:11Z</time>
      </trkpt>
      <trkpt lat="43.87878" lon="6.29526">
        <ele>1316.359</ele>
        <time>2019-06-21T12:11:12Z</time>
      </trkpt>
      <trkpt lat="43.87885" lon="6.29522">
        <ele>1315.614</ele>
        <time>2019-06-21T12:11:13Z</time>
      </trkpt>
      <trkpt lat="43.87894" lon="6.29519">
        <ele>1315.054</ele>
        <time>2019-06-21T12:11:14Z</time>
      </trkpt>
      <trkpt lat="43.87901" lon="6.29513">
        <ele>1314.509</ele>
        <time>2019-06-21T12:11:15Z</time>
      </trkpt>
      <trkpt lat="43.87906" lon="6.29501">
        <ele>1314.008</ele>
        <time>2019-06-21T12:11:16Z</time>
      </trkpt>
      <trkpt lat="43.87912" lon="6.29494">
        <ele>1313.574</ele>
        <time>2019-06-21T12:11:17Z</time>
      </trkpt>
      <trkpt lat="43.87918" lon="6.29488">
        <ele>1313.088</ele>
        <time>2019-06-21T12:11:18Z</time>
      </trkpt>
      <trkpt lat="43.87924" lon="6.29479">
        <ele>1312.459</ele>
        <time>2019-06-21T12:11:19Z</time>
      </trkpt>
      <trkpt lat="43.8793" lon="6.29471">
        <ele>1311.836</ele>
        <time>2019-06-21T12:11:20Z</time>
      </trkpt>
      <trkpt lat="43.87935" lon="6.29468">
        <ele>1311.342</ele>
        <time>2019-06-21T12:11:21Z</time>
      </trkpt>
      <trkpt lat="43.8794" lon="6.29464">
        <ele>1310.687</ele>
        <time>2019-06-21T12:11:22Z</time>
      </trkpt>
      <trkpt lat="43.87946" lon="6.29465">
        <ele>1310.018</ele>
        <time>2019-06-21T12:11:23Z</time>
      </trkpt>
      <trkpt lat="43.87954" lon="6.29474">
        <ele>1308.942</ele>
        <time>2019-06-21T12:11:25Z</time>
      </trkpt>
      <trkpt lat="43.87957" lon="6.29481">
        <ele>1308.342</ele>
        <time>2019-06-21T12:11:26Z</time>
      </trkpt>
      <trkpt lat="43.87961" lon="6.29489">
        <ele>1307.822</ele>
        <time>2019-06-21T12:11:27Z</time>
      </trkpt>
      <trkpt lat="43.87965" lon="6.29496">
        <ele>1307.414</ele>
        <time>2019-06-21T12:11:28Z</time>
      </trkpt>
      <trkpt lat="43.87968" lon="6.29502">
        <ele>1307.008</ele>
        <time>2019-06-21T12:11:29Z</time>
      </trkpt>
      <trkpt lat="43.87977" lon="6.29505">
        <ele>1306.237</ele>
        <time>2019-06-21T12:11:31Z</time>
      </trkpt>
      <trkpt lat="43.8799" lon="6.29495">
        <ele>1305.391</ele>
        <time>2019-06-21T12:11:33Z</time>
      </trkpt>
      <trkpt lat="43.87997" lon="6.2949">
        <ele>1304.862</ele>
        <time>2019-06-21T12:11:34Z</time>
      </trkpt>
      <trkpt lat="43.88003" lon="6.29487">
        <ele>1304.269</ele>
        <time>2019-06-21T12:11:35Z</time>
      </trkpt>
      <trkpt lat="43.88015" lon="6.29484">
        <ele>1302.835</ele>
        <time>2019-06-21T12:11:37Z</time>
      </trkpt>
      <trkpt lat="43.88022" lon="6.29483">
        <ele>1302.05</ele>
        <time>2019-06-21T12:11:38Z</time>
      </trkpt>
      <trkpt lat="43.88029" lon="6.2948">
        <ele>1301.321</ele>
        <time>2019-06-21T12:11:39Z</time>
      </trkpt>
      <trkpt lat="43.88035" lon="6.29477">
        <ele>1300.775</ele>
        <time>2019-06-21T12:11:40Z</time>
      </trkpt>
      <trkpt lat="43.88041" lon="6.29473">
        <ele>1300.247</ele>
        <time>2019-06-21T12:11:41Z</time>
      </trkpt>
      <trkpt lat="43.88046" lon="6.29469">
        <ele>1299.829</ele>
        <time>2019-06-21T12:11:42Z</time>
      </trkpt>
      <trkpt lat="43.88051" lon="6.29466">
        <ele>1299.421</ele>
        <time>2019-06-21T12:11:43Z</time>
      </trkpt>
      <trkpt lat="43.88056" lon="6.29464">
        <ele>1299.008</ele>
        <time>2019-06-21T12:11:44Z</time>
      </trkpt>
      <trkpt lat="43.88066" lon="6.29463">
        <ele>1298.647</ele>
        <time>2019-06-21T12:11:45Z</time>
      </trkpt>
      <trkpt lat="43.88074" lon="6.29458">
        <ele>1298.141</ele>
        <time>2019-06-21T12:11:46Z</time>
      </trkpt>
      <trkpt lat="43.8808" lon="6.29458">
        <ele>1297.762</ele>
        <time>2019-06-21T12:11:47Z</time>
      </trkpt>
      <trkpt lat="43.88087" lon="6.29457">
        <ele>1297.389</ele>
        <time>2019-06-21T12:11:48Z</time>
      </trkpt>
      <trkpt lat="43.88094" lon="6.29459">
        <ele>1296.965</ele>
        <time>2019-06-21T12:11:49Z</time>
      </trkpt>
      <trkpt lat="43.881" lon="6.2946">
        <ele>1296.54</ele>
        <time>2019-06-21T12:11:50Z</time>
      </trkpt>
      <trkpt lat="43.88106" lon="6.29463">
        <ele>1296.021</ele>
        <time>2019-06-21T12:11:51Z</time>
      </trkpt>
      <trkpt lat="43.88113" lon="6.2947">
        <ele>1295.485</ele>
        <time>2019-06-21T12:11:52Z</time>
      </trkpt>
      <trkpt lat="43.88118" lon="6.29475">
        <ele>1294.888</ele>
        <time>2019-06-21T12:11:53Z</time>
      </trkpt>
      <trkpt lat="43.88124" lon="6.29481">
        <ele>1294.024</ele>
        <time>2019-06-21T12:11:54Z</time>
      </trkpt>
      <trkpt lat="43.88129" lon="6.29489">
        <ele>1293.226</ele>
        <time>2019-06-21T12:11:55Z</time>
      </trkpt>
      <trkpt lat="43.88136" lon="6.29497">
        <ele>1292.608</ele>
        <time>2019-06-21T12:11:56Z</time>
      </trkpt>
      <trkpt lat="43.88142" lon="6.29502">
        <ele>1292.041</ele>
        <time>2019-06-21T12:11:57Z</time>
      </trkpt>
      <trkpt lat="43.88148" lon="6.29506">
        <ele>1291.335</ele>
        <time>2019-06-21T12:11:58Z</time>
      </trkpt>
      <trkpt lat="43.88156" lon="6.29508">
        <ele>1290.726</ele>
        <time>2019-06-21T12:11:59Z</time>
      </trkpt>
      <trkpt lat="43.88164" lon="6.29508">
        <ele>1290.343</ele>
        <time>2019-06-21T12:12:00Z</time>
      </trkpt>
      <trkpt lat="43.88172" lon="6.29506">
        <ele>1289.849</ele>
        <time>2019-06-21T12:12:01Z</time>
      </trkpt>
      <trkpt lat="43.88178" lon="6.29504">
        <ele>1289.894</ele>
        <time>2019-06-21T12:12:02Z</time>
      </trkpt>
      <trkpt lat="43.88183" lon="6.29496">
        <ele>1289.055</ele>
        <time>2019-06-21T12:12:03Z</time>
      </trkpt>
      <trkpt lat="43.88188" lon="6.29489">
        <ele>1288.619</ele>
        <time>2019-06-21T12:12:04Z</time>
      </trkpt>
      <trkpt lat="43.88193" lon="6.29483">
        <ele>1288.246</ele>
        <time>2019-06-21T12:12:05Z</time>
      </trkpt>
      <trkpt lat="43.88198" lon="6.29476">
        <ele>1287.688</ele>
        <time>2019-06-21T12:12:06Z</time>
      </trkpt>
      <trkpt lat="43.88203" lon="6.29467">
        <ele>1287.016</ele>
        <time>2019-06-21T12:12:07Z</time>
      </trkpt>
      <trkpt lat="43.88208" lon="6.29459">
        <ele>1286.208</ele>
        <time>2019-06-21T12:12:08Z</time>
      </trkpt>
      <trkpt lat="43.88213" lon="6.29454">
        <ele>1285.587</ele>
        <time>2019-06-21T12:12:09Z</time>
      </trkpt>
      <trkpt lat="43.88219" lon="6.2945">
        <ele>1284.821</ele>
        <time>2019-06-21T12:12:10Z</time>
      </trkpt>
      <trkpt lat="43.88225" lon="6.29444">
        <ele>1284.062</ele>
        <time>2019-06-21T12:12:11Z</time>
      </trkpt>
      <trkpt lat="43.88231" lon="6.29438">
        <ele>1283.229</ele>
        <time>2019-06-21T12:12:12Z</time>
      </trkpt>
      <trkpt lat="43.88238" lon="6.29434">
        <ele>1282.455</ele>
        <time>2019-06-21T12:12:13Z</time>
      </trkpt>
      <trkpt lat="43.88244" lon="6.2943">
        <ele>1281.72</ele>
        <time>2019-06-21T12:12:14Z</time>
      </trkpt>
      <trkpt lat="43.8825" lon="6.29426">
        <ele>1280.931</ele>
        <time>2019-06-21T12:12:15Z</time>
      </trkpt>
      <trkpt lat="43.88256" lon="6.29421">
        <ele>1280.995</ele>
        <time>2019-06-21T12:12:16Z</time>
      </trkpt>
      <trkpt lat="43.88263" lon="6.29419">
        <ele>1280.232</ele>
        <time>2019-06-21T12:12:17Z</time>
      </trkpt>
      <trkpt lat="43.88272" lon="6.29415">
        <ele>1279.592</ele>
        <time>2019-06-21T12:12:18Z</time>
      </trkpt>
      <trkpt lat="43.88278" lon="6.29409">
        <ele>1278.111</ele>
        <time>2019-06-21T12:12:19Z</time>
      </trkpt>
      <trkpt lat="43.88283" lon="6.29403">
        <ele>1277.408</ele>
        <time>2019-06-21T12:12:20Z</time>
      </trkpt>
      <trkpt lat="43.88287" lon="6.29398">
        <ele>1277.496</ele>
        <time>2019-06-21T12:12:21Z</time>
      </trkpt>
      <trkpt lat="43.8829" lon="6.29391">
        <ele>1276.79</ele>
        <time>2019-06-21T12:12:22Z</time>
      </trkpt>
      <trkpt lat="43.88294" lon="6.29383">
        <ele>1276.071</ele>
        <time>2019-06-21T12:12:23Z</time>
      </trkpt>
      <trkpt lat="43.88294" lon="6.2937">
        <ele>1275.368</ele>
        <time>2019-06-21T12:12:24Z</time>
      </trkpt>
      <trkpt lat="43.88297" lon="6.29364">
        <ele>1274.714</ele>
        <time>2019-06-21T12:12:25Z</time>
      </trkpt>
      <trkpt lat="43.88299" lon="6.29353">
        <ele>1273.359</ele>
        <time>2019-06-21T12:12:26Z</time>
      </trkpt>
      <trkpt lat="43.88302" lon="6.29347">
        <ele>1272.78</ele>
        <time>2019-06-21T12:12:27Z</time>
      </trkpt>
      <trkpt lat="43.88305" lon="6.29338">
        <ele>1272.114</ele>
        <time>2019-06-21T12:12:28Z</time>
      </trkpt>
      <trkpt lat="43.88308" lon="6.29327">
        <ele>1271.457</ele>
        <time>2019-06-21T12:12:29Z</time>
      </trkpt>
      <trkpt lat="43.88313" lon="6.29322">
        <ele>1270.8</ele>
        <time>2019-06-21T12:12:30Z</time>
      </trkpt>
      <trkpt lat="43.88318" lon="6.29317">
        <ele>1270.82</ele>
        <time>2019-06-21T12:12:31Z</time>
      </trkpt>
      <trkpt lat="43.88323" lon="6.29311">
        <ele>1270.408</ele>
        <time>2019-06-21T12:12:32Z</time>
      </trkpt>
      <trkpt lat="43.88328" lon="6.29306">
        <ele>1270.118</ele>
        <time>2019-06-21T12:12:33Z</time>
      </trkpt>
      <trkpt lat="43.88332" lon="6.29301">
        <ele>1269.892</ele>
        <time>2019-06-21T12:12:34Z</time>
      </trkpt>
      <trkpt lat="43.88338" lon="6.293">
        <ele>1269.833</ele>
        <time>2019-06-21T12:12:35Z</time>
      </trkpt>
      <trkpt lat="43.88343" lon="6.29296">
        <ele>1269.82</ele>
        <time>2019-06-21T12:12:36Z</time>
      </trkpt>
      <trkpt lat="43.88348" lon="6.29292">
        <ele>1269.296</ele>
        <time>2019-06-21T12:12:37Z</time>
      </trkpt>
      <trkpt lat="43.88354" lon="6.29288">
        <ele>1269.241</ele>
        <time>2019-06-21T12:12:38Z</time>
      </trkpt>
      <trkpt lat="43.88359" lon="6.29284">
        <ele>1268.332</ele>
        <time>2019-06-21T12:12:39Z</time>
      </trkpt>
      <trkpt lat="43.88364" lon="6.29277">
        <ele>1268.396</ele>
        <time>2019-06-21T12:12:40Z</time>
      </trkpt>
      <trkpt lat="43.8837" lon="6.29271">
        <ele>1267.249</ele>
        <time>2019-06-21T12:12:41Z</time>
      </trkpt>
      <trkpt lat="43.88375" lon="6.29263">
        <ele>1267.202</ele>
        <time>2019-06-21T12:12:42Z</time>
      </trkpt>
      <trkpt lat="43.88381" lon="6.29259">
        <ele>1265.922</ele>
        <time>2019-06-21T12:12:43Z</time>
      </trkpt>
      <trkpt lat="43.88387" lon="6.29257">
        <ele>1265.908</ele>
        <time>2019-06-21T12:12:44Z</time>
      </trkpt>
      <trkpt lat="43.88394" lon="6.29255">
        <ele>1264.687</ele>
        <time>2019-06-21T12:12:45Z</time>
      </trkpt>
      <trkpt lat="43.88402" lon="6.29255">
        <ele>1264.021</ele>
        <time>2019-06-21T12:12:46Z</time>
      </trkpt>
      <trkpt lat="43.88409" lon="6.29253">
        <ele>1264.092</ele>
        <time>2019-06-21T12:12:47Z</time>
      </trkpt>
      <trkpt lat="43.88417" lon="6.29251">
        <ele>1264.089</ele>
        <time>2019-06-21T12:12:48Z</time>
      </trkpt>
      <trkpt lat="43.88423" lon="6.29247">
        <ele>1262.655</ele>
        <time>2019-06-21T12:12:49Z</time>
      </trkpt>
      <trkpt lat="43.8843" lon="6.29244">
        <ele>1262.66</ele>
        <time>2019-06-21T12:12:50Z</time>
      </trkpt>
      <trkpt lat="43.88437" lon="6.29239">
        <ele>1262.691</ele>
        <time>2019-06-21T12:12:51Z</time>
      </trkpt>
      <trkpt lat="43.88444" lon="6.29235">
        <ele>1261.845</ele>
        <time>2019-06-21T12:12:52Z</time>
      </trkpt>
      <trkpt lat="43.88451" lon="6.29234">
        <ele>1261.864</ele>
        <time>2019-06-21T12:12:53Z</time>
      </trkpt>
      <trkpt lat="43.88459" lon="6.29233">
        <ele>1261.806</ele>
        <time>2019-06-21T12:12:54Z</time>
      </trkpt>
      <trkpt lat="43.88466" lon="6.29234">
        <ele>1261.816</ele>
        <time>2019-06-21T12:12:55Z</time>
      </trkpt>
      <trkpt lat="43.88473" lon="6.29234">
        <ele>1261.008</ele>
        <time>2019-06-21T12:12:56Z</time>
      </trkpt>
      <trkpt lat="43.8848" lon="6.29235">
        <ele>1261.079</ele>
        <time>2019-06-21T12:12:57Z</time>
      </trkpt>
      <trkpt lat="43.88488" lon="6.29237">
        <ele>1261.033</ele>
        <time>2019-06-21T12:12:58Z</time>
      </trkpt>
      <trkpt lat="43.88495" lon="6.29239">
        <ele>1260.234</ele>
        <time>2019-06-21T12:12:59Z</time>
      </trkpt>
      <trkpt lat="43.88503" lon="6.2924">
        <ele>1260.251</ele>
        <time>2019-06-21T12:13:00Z</time>
      </trkpt>
      <trkpt lat="43.8851" lon="6.29243">
        <ele>1260.277</ele>
        <time>2019-06-21T12:13:01Z</time>
      </trkpt>
      <trkpt lat="43.88517" lon="6.29247">
        <ele>1260.272</ele>
        <time>2019-06-21T12:13:02Z</time>
      </trkpt>
      <trkpt lat="43.88524" lon="6.29252">
        <ele>1260.273</ele>
        <time>2019-06-21T12:13:03Z</time>
      </trkpt>
      <trkpt lat="43.8853" lon="6.29257">
        <ele>1259.357</ele>
        <time>2019-06-21T12:13:04Z</time>
      </trkpt>
      <trkpt lat="43.88537" lon="6.29262">
        <ele>1259.326</ele>
        <time>2019-06-21T12:13:05Z</time>
      </trkpt>
      <trkpt lat="43.88543" lon="6.29267">
        <ele>1259.347</ele>
        <time>2019-06-21T12:13:06Z</time>
      </trkpt>
      <trkpt lat="43.88549" lon="6.29272">
        <ele>1259.311</ele>
        <time>2019-06-21T12:13:07Z</time>
      </trkpt>
      <trkpt lat="43.88555" lon="6.29274">
        <ele>1259.308</ele>
        <time>2019-06-21T12:13:08Z</time>
      </trkpt>
      <trkpt lat="43.8856" lon="6.29278">
        <ele>1260.195</ele>
        <time>2019-06-21T12:13:09Z</time>
      </trkpt>
      <trkpt lat="43.88565" lon="6.29279">
        <ele>1260.179</ele>
        <time>2019-06-21T12:13:10Z</time>
      </trkpt>
      <trkpt lat="43.8857" lon="6.29284">
        <ele>1260.14</ele>
        <time>2019-06-21T12:13:11Z</time>
      </trkpt>
      <trkpt lat="43.88575" lon="6.29286">
        <ele>1260.167</ele>
        <time>2019-06-21T12:13:12Z</time>
      </trkpt>
      <trkpt lat="43.88583" lon="6.29289">
        <ele>1260.193</ele>
        <time>2019-06-21T12:13:13Z</time>
      </trkpt>
      <trkpt lat="43.88589" lon="6.29283">
        <ele>1259.698</ele>
        <time>2019-06-21T12:13:14Z</time>
      </trkpt>
      <trkpt lat="43.88593" lon="6.29279">
        <ele>1259.669</ele>
        <time>2019-06-21T12:13:15Z</time>
      </trkpt>
      <trkpt lat="43.88596" lon="6.29272">
        <ele>1259.633</ele>
        <time>2019-06-21T12:13:16Z</time>
      </trkpt>
      <trkpt lat="43.88597" lon="6.29265">
        <ele>1259.651</ele>
        <time>2019-06-21T12:13:17Z</time>
      </trkpt>
      <trkpt lat="43.88598" lon="6.29256">
        <ele>1259.601</ele>
        <time>2019-06-21T12:13:18Z</time>
      </trkpt>
      <trkpt lat="43.88599" lon="6.29247">
        <ele>1258.911</ele>
        <time>2019-06-21T12:13:19Z</time>
      </trkpt>
      <trkpt lat="43.886" lon="6.29236">
        <ele>1258.908</ele>
        <time>2019-06-21T12:13:20Z</time>
      </trkpt>
      <trkpt lat="43.88601" lon="6.29227">
        <ele>1258.918</ele>
        <time>2019-06-21T12:13:21Z</time>
      </trkpt>
      <trkpt lat="43.88605" lon="6.29221">
        <ele>1258.952</ele>
        <time>2019-06-21T12:13:22Z</time>
      </trkpt>
      <trkpt lat="43.8861" lon="6.29214">
        <ele>1258.963</ele>
        <time>2019-06-21T12:13:23Z</time>
      </trkpt>
      <trkpt lat="43.88618" lon="6.29208">
        <ele>1258.52</ele>
        <time>2019-06-21T12:13:24Z</time>
      </trkpt>
      <trkpt lat="43.88624" lon="6.29206">
        <ele>1258.576</ele>
        <time>2019-06-21T12:13:25Z</time>
      </trkpt>
      <trkpt lat="43.8863" lon="6.29196">
        <ele>1258.531</ele>
        <time>2019-06-21T12:13:26Z</time>
      </trkpt>
      <trkpt lat="43.88637" lon="6.29187">
        <ele>1258.562</ele>
        <time>2019-06-21T12:13:27Z</time>
      </trkpt>
      <trkpt lat="43.88644" lon="6.29179">
        <ele>1258.536</ele>
        <time>2019-06-21T12:13:28Z</time>
      </trkpt>
      <trkpt lat="43.88652" lon="6.29171">
        <ele>1256.558</ele>
        <time>2019-06-21T12:13:29Z</time>
      </trkpt>
      <trkpt lat="43.88659" lon="6.29163">
        <ele>1256.552</ele>
        <time>2019-06-21T12:13:30Z</time>
      </trkpt>
      <trkpt lat="43.88667" lon="6.29159">
        <ele>1256.517</ele>
        <time>2019-06-21T12:13:31Z</time>
      </trkpt>
      <trkpt lat="43.88674" lon="6.2915">
        <ele>1256.508</ele>
        <time>2019-06-21T12:13:32Z</time>
      </trkpt>
      <trkpt lat="43.88681" lon="6.29142">
        <ele>1256.598</ele>
        <time>2019-06-21T12:13:33Z</time>
      </trkpt>
      <trkpt lat="43.88685" lon="6.2913">
        <ele>1256.582</ele>
        <time>2019-06-21T12:13:34Z</time>
      </trkpt>
      <trkpt lat="43.88692" lon="6.29122">
        <ele>1253.793</ele>
        <time>2019-06-21T12:13:35Z</time>
      </trkpt>
      <trkpt lat="43.88697" lon="6.29113">
        <ele>1253.79</ele>
        <time>2019-06-21T12:13:36Z</time>
      </trkpt>
      <trkpt lat="43.88701" lon="6.29104">
        <ele>1253.736</ele>
        <time>2019-06-21T12:13:37Z</time>
      </trkpt>
      <trkpt lat="43.88709" lon="6.29099">
        <ele>1253.711</ele>
        <time>2019-06-21T12:13:38Z</time>
      </trkpt>
      <trkpt lat="43.88716" lon="6.29092">
        <ele>1253.742</ele>
        <time>2019-06-21T12:13:39Z</time>
      </trkpt>
      <trkpt lat="43.88722" lon="6.29085">
        <ele>1253.766</ele>
        <time>2019-06-21T12:13:40Z</time>
      </trkpt>
      <trkpt lat="43.88728" lon="6.29079">
        <ele>1253.789</ele>
        <time>2019-06-21T12:13:41Z</time>
      </trkpt>
      <trkpt lat="43.88734" lon="6.29071">
        <ele>1252.406</ele>
        <time>2019-06-21T12:13:42Z</time>
      </trkpt>
      <trkpt lat="43.8874" lon="6.29065">
        <ele>1252.426</ele>
        <time>2019-06-21T12:13:43Z</time>
      </trkpt>
      <trkpt lat="43.88745" lon="6.29059">
        <ele>1252.408</ele>
        <time>2019-06-21T12:13:44Z</time>
      </trkpt>
      <trkpt lat="43.88751" lon="6.29052">
        <ele>1252.491</ele>
        <time>2019-06-21T12:13:45Z</time>
      </trkpt>
      <trkpt lat="43.88756" lon="6.29045">
        <ele>1252.495</ele>
        <time>2019-06-21T12:13:46Z</time>
      </trkpt>
      <trkpt lat="43.88762" lon="6.29037">
        <ele>1252.416</ele>
        <time>2019-06-21T12:13:47Z</time>
      </trkpt>
      <trkpt lat="43.88767" lon="6.29029">
        <ele>1252.443</ele>
        <time>2019-06-21T12:13:48Z</time>
      </trkpt>
      <trkpt lat="43.88773" lon="6.29021">
        <ele>1250.559</ele>
        <time>2019-06-21T12:13:49Z</time>
      </trkpt>
      <trkpt lat="43.88779" lon="6.29014">
        <ele>1250.514</ele>
        <time>2019-06-21T12:13:50Z</time>
      </trkpt>
      <trkpt lat="43.88786" lon="6.2901">
        <ele>1250.525</ele>
        <time>2019-06-21T12:13:51Z</time>
      </trkpt>
      <trkpt lat="43.88794" lon="6.29006">
        <ele>1250.569</ele>
        <time>2019-06-21T12:13:52Z</time>
      </trkpt>
      <trkpt lat="43.88803" lon="6.29004">
        <ele>1250.543</ele>
        <time>2019-06-21T12:13:53Z</time>
      </trkpt>
      <trkpt lat="43.88811" lon="6.29002">
        <ele>1250.564</ele>
        <time>2019-06-21T12:13:54Z</time>
      </trkpt>
      <trkpt lat="43.88818" lon="6.28997">
        <ele>1250.51</ele>
        <time>2019-06-21T12:13:55Z</time>
      </trkpt>
      <trkpt lat="43.88828" lon="6.29">
        <ele>1250.508</ele>
        <time>2019-06-21T12:13:56Z</time>
      </trkpt>
      <trkpt lat="43.88836" lon="6.28997">
        <ele>1247.717</ele>
        <time>2019-06-21T12:13:57Z</time>
      </trkpt>
      <trkpt lat="43.88843" lon="6.28994">
        <ele>1247.761</ele>
        <time>2019-06-21T12:13:58Z</time>
      </trkpt>
      <trkpt lat="43.88851" lon="6.28992">
        <ele>1247.712</ele>
        <time>2019-06-21T12:13:59Z</time>
      </trkpt>
      <trkpt lat="43.88859" lon="6.28988">
        <ele>1247.739</ele>
        <time>2019-06-21T12:14:00Z</time>
      </trkpt>
      <trkpt lat="43.88867" lon="6.28986">
        <ele>1247.785</ele>
        <time>2019-06-21T12:14:01Z</time>
      </trkpt>
      <trkpt lat="43.88874" lon="6.28982">
        <ele>1247.71</ele>
        <time>2019-06-21T12:14:02Z</time>
      </trkpt>
      <trkpt lat="43.88884" lon="6.28979">
        <ele>1247.791</ele>
        <time>2019-06-21T12:14:03Z</time>
      </trkpt>
      <trkpt lat="43.88893" lon="6.28977">
        <ele>1245.185</ele>
        <time>2019-06-21T12:14:04Z</time>
      </trkpt>
      <trkpt lat="43.889" lon="6.28973">
        <ele>1245.188</ele>
        <time>2019-06-21T12:14:05Z</time>
      </trkpt>
      <trkpt lat="43.88908" lon="6.28969">
        <ele>1245.124</ele>
        <time>2019-06-21T12:14:06Z</time>
      </trkpt>
      <trkpt lat="43.88915" lon="6.28962">
        <ele>1245.126</ele>
        <time>2019-06-21T12:14:07Z</time>
      </trkpt>
      <trkpt lat="43.88923" lon="6.28961">
        <ele>1245.108</ele>
        <time>2019-06-21T12:14:08Z</time>
      </trkpt>
      <trkpt lat="43.88932" lon="6.28959">
        <ele>1244.131</ele>
        <time>2019-06-21T12:14:09Z</time>
      </trkpt>
      <trkpt lat="43.8894" lon="6.28957">
        <ele>1244.185</ele>
        <time>2019-06-21T12:14:10Z</time>
      </trkpt>
      <trkpt lat="43.88947" lon="6.28956">
        <ele>1244.156</ele>
        <time>2019-06-21T12:14:11Z</time>
      </trkpt>
      <trkpt lat="43.88953" lon="6.28955">
        <ele>1244.113</ele>
        <time>2019-06-21T12:14:12Z</time>
      </trkpt>
      <trkpt lat="43.8896" lon="6.28956">
        <ele>1244.199</ele>
        <time>2019-06-21T12:14:13Z</time>
      </trkpt>
      <trkpt lat="43.88966" lon="6.28958">
        <ele>1244.134</ele>
        <time>2019-06-21T12:14:14Z</time>
      </trkpt>
      <trkpt lat="43.88973" lon="6.2896">
        <ele>1244.115</ele>
        <time>2019-06-21T12:14:15Z</time>
      </trkpt>
      <trkpt lat="43.88979" lon="6.28963">
        <ele>1244.149</ele>
        <time>2019-06-21T12:14:16Z</time>
      </trkpt>
      <trkpt lat="43.88986" lon="6.28966">
        <ele>1243.487</ele>
        <time>2019-06-21T12:14:17Z</time>
      </trkpt>
      <trkpt lat="43.88992" lon="6.2897">
        <ele>1243.442</ele>
        <time>2019-06-21T12:14:18Z</time>
      </trkpt>
      <trkpt lat="43.88999" lon="6.28974">
        <ele>1243.426</ele>
        <time>2019-06-21T12:14:19Z</time>
      </trkpt>
      <trkpt lat="43.89005" lon="6.28979">
        <ele>1243.408</ele>
        <time>2019-06-21T12:14:20Z</time>
      </trkpt>
      <trkpt lat="43.89013" lon="6.28985">
        <ele>1243.411</ele>
        <time>2019-06-21T12:14:21Z</time>
      </trkpt>
      <trkpt lat="43.89019" lon="6.28992">
        <ele>1243.425</ele>
        <time>2019-06-21T12:14:22Z</time>
      </trkpt>
      <trkpt lat="43.89027" lon="6.28997">
        <ele>1243.786</ele>
        <time>2019-06-21T12:14:23Z</time>
      </trkpt>
      <trkpt lat="43.89034" lon="6.29">
        <ele>1243.783</ele>
        <time>2019-06-21T12:14:24Z</time>
      </trkpt>
      <trkpt lat="43.89044" lon="6.28999">
        <ele>1243.719</ele>
        <time>2019-06-21T12:14:25Z</time>
      </trkpt>
      <trkpt lat="43.89052" lon="6.28995">
        <ele>1243.744</ele>
        <time>2019-06-21T12:14:26Z</time>
      </trkpt>
      <trkpt lat="43.89061" lon="6.28994">
        <ele>1243.765</ele>
        <time>2019-06-21T12:14:27Z</time>
      </trkpt>
      <trkpt lat="43.8907" lon="6.2899">
        <ele>1243.749</ele>
        <time>2019-06-21T12:14:28Z</time>
      </trkpt>
      <trkpt lat="43.89077" lon="6.28986">
        <ele>1243.718</ele>
        <time>2019-06-21T12:14:29Z</time>
      </trkpt>
      <trkpt lat="43.89085" lon="6.28979">
        <ele>1243.798</ele>
        <time>2019-06-21T12:14:30Z</time>
      </trkpt>
      <trkpt lat="43.89093" lon="6.28973">
        <ele>1243.717</ele>
        <time>2019-06-21T12:14:31Z</time>
      </trkpt>
      <trkpt lat="43.89101" lon="6.28968">
        <ele>1242.908</ele>
        <time>2019-06-21T12:14:32Z</time>
      </trkpt>
      <trkpt lat="43.89108" lon="6.28964">
        <ele>1242.954</ele>
        <time>2019-06-21T12:14:33Z</time>
      </trkpt>
      <trkpt lat="43.89116" lon="6.2896">
        <ele>1242.968</ele>
        <time>2019-06-21T12:14:34Z</time>
      </trkpt>
      <trkpt lat="43.89123" lon="6.28957">
        <ele>1242.979</ele>
        <time>2019-06-21T12:14:35Z</time>
      </trkpt>
      <trkpt lat="43.89129" lon="6.28957">
        <ele>1242.946</ele>
        <time>2019-06-21T12:14:36Z</time>
      </trkpt>
      <trkpt lat="43.89136" lon="6.28958">
        <ele>1242.922</ele>
        <time>2019-06-21T12:14:37Z</time>
      </trkpt>
      <trkpt lat="43.89142" lon="6.2896">
        <ele>1242.957</ele>
        <time>2019-06-21T12:14:38Z</time>
      </trkpt>
      <trkpt lat="43.89149" lon="6.28961">
        <ele>1244.158</ele>
        <time>2019-06-21T12:14:39Z</time>
      </trkpt>
      <trkpt lat="43.89155" lon="6.28962">
        <ele>1244.172</ele>
        <time>2019-06-21T12:14:40Z</time>
      </trkpt>
      <trkpt lat="43.89162" lon="6.28958">
        <ele>1244.112</ele>
        <time>2019-06-21T12:14:41Z</time>
      </trkpt>
      <trkpt lat="43.89169" lon="6.28955">
        <ele>1244.132</ele>
        <time>2019-06-21T12:14:42Z</time>
      </trkpt>
      <trkpt lat="43.89177" lon="6.28951">
        <ele>1244.105</ele>
        <time>2019-06-21T12:14:43Z</time>
      </trkpt>
      <trkpt lat="43.89184" lon="6.28947">
        <ele>1244.108</ele>
        <time>2019-06-21T12:14:44Z</time>
      </trkpt>
      <trkpt lat="43.89191" lon="6.28945">
        <ele>1244.194</ele>
        <time>2019-06-21T12:14:45Z</time>
      </trkpt>
      <trkpt lat="43.89199" lon="6.28941">
        <ele>1242.968</ele>
        <time>2019-06-21T12:14:46Z</time>
      </trkpt>
      <trkpt lat="43.89207" lon="6.28938">
        <ele>1242.969</ele>
        <time>2019-06-21T12:14:47Z</time>
      </trkpt>
      <trkpt lat="43.89216" lon="6.28935">
        <ele>1242.966</ele>
        <time>2019-06-21T12:14:48Z</time>
      </trkpt>
      <trkpt lat="43.89223" lon="6.28931">
        <ele>1242.972</ele>
        <time>2019-06-21T12:14:49Z</time>
      </trkpt>
      <trkpt lat="43.89231" lon="6.28926">
        <ele>1242.967</ele>
        <time>2019-06-21T12:14:50Z</time>
      </trkpt>
      <trkpt lat="43.89237" lon="6.28916">
        <ele>1242.668</ele>
        <time>2019-06-21T12:14:51Z</time>
      </trkpt>
      <trkpt lat="43.89245" lon="6.28911">
        <ele>1242.642</ele>
        <time>2019-06-21T12:14:52Z</time>
      </trkpt>
      <trkpt lat="43.8925" lon="6.28902">
        <ele>1242.643</ele>
        <time>2019-06-21T12:14:53Z</time>
      </trkpt>
      <trkpt lat="43.89256" lon="6.28892">
        <ele>1242.664</ele>
        <time>2019-06-21T12:14:54Z</time>
      </trkpt>
      <trkpt lat="43.89263" lon="6.28888">
        <ele>1242.61</ele>
        <time>2019-06-21T12:14:55Z</time>
      </trkpt>
      <trkpt lat="43.89269" lon="6.28883">
        <ele>1242.608</ele>
        <time>2019-06-21T12:14:56Z</time>
      </trkpt>
      <trkpt lat="43.89276" lon="6.28877">
        <ele>1242.667</ele>
        <time>2019-06-21T12:14:57Z</time>
      </trkpt>
      <trkpt lat="43.89283" lon="6.28871">
        <ele>1242.681</ele>
        <time>2019-06-21T12:14:58Z</time>
      </trkpt>
      <trkpt lat="43.8929" lon="6.28867">
        <ele>1242.662</ele>
        <time>2019-06-21T12:14:59Z</time>
      </trkpt>
      <trkpt lat="43.89297" lon="6.28862">
        <ele>1245.689</ele>
        <time>2019-06-21T12:15:00Z</time>
      </trkpt>
      <trkpt lat="43.89304" lon="6.28858">
        <ele>1245.695</ele>
        <time>2019-06-21T12:15:01Z</time>
      </trkpt>
      <trkpt lat="43.8931" lon="6.28857">
        <ele>1245.69</ele>
        <time>2019-06-21T12:15:02Z</time>
      </trkpt>
      <trkpt lat="43.89315" lon="6.28857">
        <ele>1245.691</ele>
        <time>2019-06-21T12:15:03Z</time>
      </trkpt>
      <trkpt lat="43.8932" lon="6.28857">
        <ele>1245.615</ele>
        <time>2019-06-21T12:15:05Z</time>
      </trkpt>
      <trkpt lat="43.89327" lon="6.28855">
        <ele>1245.877</ele>
        <time>2019-06-21T12:18:16Z</time>
      </trkpt>
      <trkpt lat="43.89334" lon="6.28857">
        <ele>1245.961</ele>
        <time>2019-06-21T12:18:17Z</time>
      </trkpt>
      <trkpt lat="43.8934" lon="6.28857">
        <ele>1246.027</ele>
        <time>2019-06-21T12:18:18Z</time>
      </trkpt>
      <trkpt lat="43.89346" lon="6.28857">
        <ele>1246.208</ele>
        <time>2019-06-21T12:18:19Z</time>
      </trkpt>
      <trkpt lat="43.89353" lon="6.28856">
        <ele>1246.46</ele>
        <time>2019-06-21T12:18:20Z</time>
      </trkpt>
      <trkpt lat="43.8936" lon="6.28856">
        <ele>1246.784</ele>
        <time>2019-06-21T12:18:21Z</time>
      </trkpt>
      <trkpt lat="43.89365" lon="6.28855">
        <ele>1247.185</ele>
        <time>2019-06-21T12:18:22Z</time>
      </trkpt>
      <trkpt lat="43.89372" lon="6.28854">
        <ele>1247.492</ele>
        <time>2019-06-21T12:18:23Z</time>
      </trkpt>
      <trkpt lat="43.8938" lon="6.28853">
        <ele>1247.748</ele>
        <time>2019-06-21T12:18:24Z</time>
      </trkpt>
      <trkpt lat="43.89386" lon="6.28851">
        <ele>1248.123</ele>
        <time>2019-06-21T12:18:25Z</time>
      </trkpt>
      <trkpt lat="43.89393" lon="6.2885">
        <ele>1248.454</ele>
        <time>2019-06-21T12:18:26Z</time>
      </trkpt>
      <trkpt lat="43.894" lon="6.28848">
        <ele>1248.718</ele>
        <time>2019-06-21T12:18:27Z</time>
      </trkpt>
      <trkpt lat="43.89405" lon="6.28847">
        <ele>1249.065</ele>
        <time>2019-06-21T12:18:28Z</time>
      </trkpt>
      <trkpt lat="43.89411" lon="6.28844">
        <ele>1249.368</ele>
        <time>2019-06-21T12:18:29Z</time>
      </trkpt>
      <trkpt lat="43.89416" lon="6.28841">
        <ele>1249.514</ele>
        <time>2019-06-21T12:18:30Z</time>
      </trkpt>
      <trkpt lat="43.89422" lon="6.28837">
        <ele>1249.508</ele>
        <time>2019-06-21T12:18:31Z</time>
      </trkpt>
      <trkpt lat="43.89428" lon="6.28833">
        <ele>1249.689</ele>
        <time>2019-06-21T12:18:32Z</time>
      </trkpt>
      <trkpt lat="43.89432" lon="6.28829">
        <ele>1249.693</ele>
        <time>2019-06-21T12:18:33Z</time>
      </trkpt>
      <trkpt lat="43.89437" lon="6.28824">
        <ele>1249.444</ele>
        <time>2019-06-21T12:18:34Z</time>
      </trkpt>
      <trkpt lat="43.89442" lon="6.28818">
        <ele>1249.291</ele>
        <time>2019-06-21T12:18:35Z</time>
      </trkpt>
      <trkpt lat="43.89447" lon="6.28814">
        <ele>1248.817</ele>
        <time>2019-06-21T12:18:36Z</time>
      </trkpt>
      <trkpt lat="43.89453" lon="6.28811">
        <ele>1248.862</ele>
        <time>2019-06-21T12:18:37Z</time>
      </trkpt>
      <trkpt lat="43.89459" lon="6.28808">
        <ele>1248.893</ele>
        <time>2019-06-21T12:18:38Z</time>
      </trkpt>
      <trkpt lat="43.89465" lon="6.28807">
        <ele>1248.887</ele>
        <time>2019-06-21T12:18:39Z</time>
      </trkpt>
      <trkpt lat="43.89471" lon="6.28806">
        <ele>1248.836</ele>
        <time>2019-06-21T12:18:40Z</time>
      </trkpt>
      <trkpt lat="43.89479" lon="6.28806">
        <ele>1248.817</ele>
        <time>2019-06-21T12:18:41Z</time>
      </trkpt>
      <trkpt lat="43.89485" lon="6.28805">
        <ele>1248.818</ele>
        <time>2019-06-21T12:18:42Z</time>
      </trkpt>
      <trkpt lat="43.89492" lon="6.28806">
        <ele>1248.808</ele>
        <time>2019-06-21T12:18:43Z</time>
      </trkpt>
      <trkpt lat="43.89499" lon="6.28807">
        <ele>1243.586</ele>
        <time>2019-06-21T12:18:44Z</time>
      </trkpt>
      <trkpt lat="43.89506" lon="6.2881">
        <ele>1243.58</ele>
        <time>2019-06-21T12:18:45Z</time>
      </trkpt>
      <trkpt lat="43.89513" lon="6.28813">
        <ele>1243.581</ele>
        <time>2019-06-21T12:18:46Z</time>
      </trkpt>
      <trkpt lat="43.89521" lon="6.28817">
        <ele>1243.598</ele>
        <time>2019-06-21T12:18:47Z</time>
      </trkpt>
      <trkpt lat="43.89528" lon="6.2882">
        <ele>1243.514</ele>
        <time>2019-06-21T12:18:48Z</time>
      </trkpt>
      <trkpt lat="43.89536" lon="6.28825">
        <ele>1243.599</ele>
        <time>2019-06-21T12:18:49Z</time>
      </trkpt>
      <trkpt lat="43.89545" lon="6.28831">
        <ele>1243.58</ele>
        <time>2019-06-21T12:18:50Z</time>
      </trkpt>
      <trkpt lat="43.89553" lon="6.28835">
        <ele>1243.544</ele>
        <time>2019-06-21T12:18:51Z</time>
      </trkpt>
      <trkpt lat="43.8956" lon="6.2884">
        <ele>1243.578</ele>
        <time>2019-06-21T12:18:52Z</time>
      </trkpt>
      <trkpt lat="43.89566" lon="6.28842">
        <ele>1243.533</ele>
        <time>2019-06-21T12:18:53Z</time>
      </trkpt>
      <trkpt lat="43.89573" lon="6.28846">
        <ele>1243.526</ele>
        <time>2019-06-21T12:18:54Z</time>
      </trkpt>
      <trkpt lat="43.89579" lon="6.2885">
        <ele>1243.508</ele>
        <time>2019-06-21T12:18:55Z</time>
      </trkpt>
      <trkpt lat="43.89586" lon="6.28854">
        <ele>1243.58</ele>
        <time>2019-06-21T12:18:56Z</time>
      </trkpt>
      <trkpt lat="43.89592" lon="6.28859">
        <ele>1243.584</ele>
        <time>2019-06-21T12:18:57Z</time>
      </trkpt>
      <trkpt lat="43.89598" lon="6.28863">
        <ele>1243.525</ele>
        <time>2019-06-21T12:18:58Z</time>
      </trkpt>
      <trkpt lat="43.89605" lon="6.28865">
        <ele>1233.422</ele>
        <time>2019-06-21T12:18:59Z</time>
      </trkpt>
      <trkpt lat="43.89613" lon="6.28865">
        <ele>1233.438</ele>
        <time>2019-06-21T12:19:00Z</time>
      </trkpt>
      <trkpt lat="43.89619" lon="6.28861">
        <ele>1233.453</ele>
        <time>2019-06-21T12:19:01Z</time>
      </trkpt>
      <trkpt lat="43.89624" lon="6.28857">
        <ele>1233.444</ele>
        <time>2019-06-21T12:19:02Z</time>
      </trkpt>
      <trkpt lat="43.8963" lon="6.28854">
        <ele>1233.428</ele>
        <time>2019-06-21T12:19:03Z</time>
      </trkpt>
      <trkpt lat="43.89637" lon="6.28852">
        <ele>1233.491</ele>
        <time>2019-06-21T12:19:04Z</time>
      </trkpt>
      <trkpt lat="43.89643" lon="6.28851">
        <ele>1230.381</ele>
        <time>2019-06-21T12:19:05Z</time>
      </trkpt>
      <trkpt lat="43.8965" lon="6.28851">
        <ele>1230.319</ele>
        <time>2019-06-21T12:19:06Z</time>
      </trkpt>
      <trkpt lat="43.89657" lon="6.28853">
        <ele>1230.308</ele>
        <time>2019-06-21T12:19:07Z</time>
      </trkpt>
      <trkpt lat="43.89665" lon="6.28856">
        <ele>1230.332</ele>
        <time>2019-06-21T12:19:08Z</time>
      </trkpt>
      <trkpt lat="43.89672" lon="6.28859">
        <ele>1230.386</ele>
        <time>2019-06-21T12:19:09Z</time>
      </trkpt>
      <trkpt lat="43.8968" lon="6.28861">
        <ele>1230.397</ele>
        <time>2019-06-21T12:19:10Z</time>
      </trkpt>
      <trkpt lat="43.89688" lon="6.28863">
        <ele>1227.284</ele>
        <time>2019-06-21T12:19:11Z</time>
      </trkpt>
      <trkpt lat="43.89696" lon="6.28866">
        <ele>1227.22</ele>
        <time>2019-06-21T12:19:12Z</time>
      </trkpt>
      <trkpt lat="43.89703" lon="6.28869">
        <ele>1227.225</ele>
        <time>2019-06-21T12:19:13Z</time>
      </trkpt>
      <trkpt lat="43.89709" lon="6.28874">
        <ele>1227.286</ele>
        <time>2019-06-21T12:19:14Z</time>
      </trkpt>
      <trkpt lat="43.89715" lon="6.28879">
        <ele>1227.25</ele>
        <time>2019-06-21T12:19:15Z</time>
      </trkpt>
      <trkpt lat="43.89722" lon="6.28886">
        <ele>1227.299</ele>
        <time>2019-06-21T12:19:16Z</time>
      </trkpt>
      <trkpt lat="43.89728" lon="6.28894">
        <ele>1225.207</ele>
        <time>2019-06-21T12:19:17Z</time>
      </trkpt>
      <trkpt lat="43.89735" lon="6.28901">
        <ele>1225.227</ele>
        <time>2019-06-21T12:19:18Z</time>
      </trkpt>
      <trkpt lat="43.89741" lon="6.28908">
        <ele>1225.208</ele>
        <time>2019-06-21T12:19:19Z</time>
      </trkpt>
      <trkpt lat="43.89744" lon="6.28916">
        <ele>1225.282</ele>
        <time>2019-06-21T12:19:20Z</time>
      </trkpt>
      <trkpt lat="43.89749" lon="6.28925">
        <ele>1225.246</ele>
        <time>2019-06-21T12:19:21Z</time>
      </trkpt>
      <trkpt lat="43.89753" lon="6.28934">
        <ele>1225.247</ele>
        <time>2019-06-21T12:19:22Z</time>
      </trkpt>
      <trkpt lat="43.89761" lon="6.28942">
        <ele>1225.274</ele>
        <time>2019-06-21T12:19:23Z</time>
      </trkpt>
      <trkpt lat="43.89769" lon="6.28946">
        <ele>1225.21</ele>
        <time>2019-06-21T12:19:24Z</time>
      </trkpt>
      <trkpt lat="43.89775" lon="6.28948">
        <ele>1225.295</ele>
        <time>2019-06-21T12:19:25Z</time>
      </trkpt>
      <trkpt lat="43.89781" lon="6.28948">
        <ele>1225.286</ele>
        <time>2019-06-21T12:19:26Z</time>
      </trkpt>
      <trkpt lat="43.89785" lon="6.28945">
        <ele>1225.29</ele>
        <time>2019-06-21T12:19:27Z</time>
      </trkpt>
      <trkpt lat="43.8979" lon="6.28943">
        <ele>1220.147</ele>
        <time>2019-06-21T12:19:28Z</time>
      </trkpt>
      <trkpt lat="43.89796" lon="6.28944">
        <ele>1220.129</ele>
        <time>2019-06-21T12:19:29Z</time>
      </trkpt>
      <trkpt lat="43.89801" lon="6.28947">
        <ele>1220.121</ele>
        <time>2019-06-21T12:19:30Z</time>
      </trkpt>
      <trkpt lat="43.89806" lon="6.28952">
        <ele>1220.108</ele>
        <time>2019-06-21T12:19:31Z</time>
      </trkpt>
      <trkpt lat="43.89811" lon="6.28959">
        <ele>1220.197</ele>
        <time>2019-06-21T12:19:32Z</time>
      </trkpt>
      <trkpt lat="43.89815" lon="6.28966">
        <ele>1220.121</ele>
        <time>2019-06-21T12:19:33Z</time>
      </trkpt>
      <trkpt lat="43.89823" lon="6.28981">
        <ele>1220.142</ele>
        <time>2019-06-21T12:19:35Z</time>
      </trkpt>
      <trkpt lat="43.8983" lon="6.28987">
        <ele>1220.129</ele>
        <time>2019-06-21T12:19:36Z</time>
      </trkpt>
      <trkpt lat="43.89835" lon="6.28989">
        <ele>1216.375</ele>
        <time>2019-06-21T12:19:37Z</time>
      </trkpt>
      <trkpt lat="43.89843" lon="6.28992">
        <ele>1216.38</ele>
        <time>2019-06-21T12:19:38Z</time>
      </trkpt>
      <trkpt lat="43.8985" lon="6.28993">
        <ele>1216.341</ele>
        <time>2019-06-21T12:19:39Z</time>
      </trkpt>
      <trkpt lat="43.89856" lon="6.28993">
        <ele>1216.385</ele>
        <time>2019-06-21T12:19:40Z</time>
      </trkpt>
      <trkpt lat="43.89862" lon="6.28992">
        <ele>1216.376</ele>
        <time>2019-06-21T12:19:41Z</time>
      </trkpt>
      <trkpt lat="43.89868" lon="6.28991">
        <ele>1216.39</ele>
        <time>2019-06-21T12:19:42Z</time>
      </trkpt>
      <trkpt lat="43.89876" lon="6.28992">
        <ele>1216.319</ele>
        <time>2019-06-21T12:19:43Z</time>
      </trkpt>
      <trkpt lat="43.89881" lon="6.28991">
        <ele>1213.708</ele>
        <time>2019-06-21T12:19:44Z</time>
      </trkpt>
      <trkpt lat="43.89889" lon="6.28991">
        <ele>1213.77</ele>
        <time>2019-06-21T12:19:45Z</time>
      </trkpt>
      <trkpt lat="43.89897" lon="6.28993">
        <ele>1213.764</ele>
        <time>2019-06-21T12:19:46Z</time>
      </trkpt>
      <trkpt lat="43.89905" lon="6.28996">
        <ele>1213.715</ele>
        <time>2019-06-21T12:19:47Z</time>
      </trkpt>
      <trkpt lat="43.89911" lon="6.28998">
        <ele>1213.762</ele>
        <time>2019-06-21T12:19:48Z</time>
      </trkpt>
      <trkpt lat="43.8992" lon="6.29001">
        <ele>1213.758</ele>
        <time>2019-06-21T12:19:49Z</time>
      </trkpt>
      <trkpt lat="43.89926" lon="6.29002">
        <ele>1213.773</ele>
        <time>2019-06-21T12:19:50Z</time>
      </trkpt>
      <trkpt lat="43.89934" lon="6.29003">
        <ele>1210.424</ele>
        <time>2019-06-21T12:19:51Z</time>
      </trkpt>
      <trkpt lat="43.89942" lon="6.29004">
        <ele>1210.458</ele>
        <time>2019-06-21T12:19:52Z</time>
      </trkpt>
      <trkpt lat="43.8995" lon="6.29006">
        <ele>1210.422</ele>
        <time>2019-06-21T12:19:53Z</time>
      </trkpt>
      <trkpt lat="43.89958" lon="6.29009">
        <ele>1210.462</ele>
        <time>2019-06-21T12:19:54Z</time>
      </trkpt>
      <trkpt lat="43.89965" lon="6.29014">
        <ele>1210.408</ele>
        <time>2019-06-21T12:19:55Z</time>
      </trkpt>
      <trkpt lat="43.89971" lon="6.29019">
        <ele>1207.308</ele>
        <time>2019-06-21T12:19:56Z</time>
      </trkpt>
      <trkpt lat="43.89977" lon="6.29023">
        <ele>1207.375</ele>
        <time>2019-06-21T12:19:57Z</time>
      </trkpt>
      <trkpt lat="43.89983" lon="6.29027">
        <ele>1207.339</ele>
        <time>2019-06-21T12:19:58Z</time>
      </trkpt>
      <trkpt lat="43.8999" lon="6.29032">
        <ele>1207.35</ele>
        <time>2019-06-21T12:19:59Z</time>
      </trkpt>
      <trkpt lat="43.89992" lon="6.29043">
        <ele>1207.337</ele>
        <time>2019-06-21T12:20:01Z</time>
      </trkpt>
      <trkpt lat="43.89994" lon="6.2905">
        <ele>1207.343</ele>
        <time>2019-06-21T12:20:02Z</time>
      </trkpt>
      <trkpt lat="43.89996" lon="6.29058">
        <ele>1207.328</ele>
        <time>2019-06-21T12:20:03Z</time>
      </trkpt>
      <trkpt lat="43.89999" lon="6.29066">
        <ele>1207.389</ele>
        <time>2019-06-21T12:20:04Z</time>
      </trkpt>
      <trkpt lat="43.90003" lon="6.29072">
        <ele>1204.993</ele>
        <time>2019-06-21T12:20:05Z</time>
      </trkpt>
      <trkpt lat="43.90011" lon="6.29075">
        <ele>1204.882</ele>
        <time>2019-06-21T12:20:06Z</time>
      </trkpt>
      <trkpt lat="43.90016" lon="6.29075">
        <ele>1204.843</ele>
        <time>2019-06-21T12:20:07Z</time>
      </trkpt>
      <trkpt lat="43.90022" lon="6.29073">
        <ele>1204.817</ele>
        <time>2019-06-21T12:20:08Z</time>
      </trkpt>
      <trkpt lat="43.90027" lon="6.29068">
        <ele>1204.808</ele>
        <time>2019-06-21T12:20:09Z</time>
      </trkpt>
      <trkpt lat="43.90031" lon="6.29061">
        <ele>1204.851</ele>
        <time>2019-06-21T12:20:10Z</time>
      </trkpt>
      <trkpt lat="43.90036" lon="6.29055">
        <ele>1204.895</ele>
        <time>2019-06-21T12:20:11Z</time>
      </trkpt>
      <trkpt lat="43.9004" lon="6.29048">
        <ele>1204.846</ele>
        <time>2019-06-21T12:20:12Z</time>
      </trkpt>
      <trkpt lat="43.90045" lon="6.29042">
        <ele>1204.873</ele>
        <time>2019-06-21T12:20:13Z</time>
      </trkpt>
      <trkpt lat="43.90049" lon="6.29037">
        <ele>1204.899</ele>
        <time>2019-06-21T12:20:14Z</time>
      </trkpt>
      <trkpt lat="43.90056" lon="6.29035">
        <ele>1204.894</ele>
        <time>2019-06-21T12:20:15Z</time>
      </trkpt>
      <trkpt lat="43.90061" lon="6.29035">
        <ele>1204.825</ele>
        <time>2019-06-21T12:20:16Z</time>
      </trkpt>
      <trkpt lat="43.90065" lon="6.29037">
        <ele>1204.819</ele>
        <time>2019-06-21T12:20:17Z</time>
      </trkpt>
      <trkpt lat="43.90071" lon="6.29039">
        <ele>1204.897</ele>
        <time>2019-06-21T12:20:18Z</time>
      </trkpt>
      <trkpt lat="43.90076" lon="6.29042">
        <ele>1204.823</ele>
        <time>2019-06-21T12:20:19Z</time>
      </trkpt>
      <trkpt lat="43.90081" lon="6.29046">
        <ele>1204.825</ele>
        <time>2019-06-21T12:20:20Z</time>
      </trkpt>
      <trkpt lat="43.90088" lon="6.29054">
        <ele>1204.808</ele>
        <time>2019-06-21T12:20:22Z</time>
      </trkpt>
      <trkpt lat="43.90093" lon="6.29059">
        <ele>1204.812</ele>
        <time>2019-06-21T12:20:23Z</time>
      </trkpt>
      <trkpt lat="43.90098" lon="6.29065">
        <ele>1204.896</ele>
        <time>2019-06-21T12:20:24Z</time>
      </trkpt>
      <trkpt lat="43.90104" lon="6.29072">
        <ele>1204.897</ele>
        <time>2019-06-21T12:20:25Z</time>
      </trkpt>
      <trkpt lat="43.90109" lon="6.29078">
        <ele>1204.874</ele>
        <time>2019-06-21T12:20:26Z</time>
      </trkpt>
      <trkpt lat="43.90116" lon="6.29084">
        <ele>1204.82</ele>
        <time>2019-06-21T12:20:27Z</time>
      </trkpt>
      <trkpt lat="43.90121" lon="6.2909">
        <ele>1204.885</ele>
        <time>2019-06-21T12:20:28Z</time>
      </trkpt>
      <trkpt lat="43.90129" lon="6.29093">
        <ele>1204.896</ele>
        <time>2019-06-21T12:20:29Z</time>
      </trkpt>
      <trkpt lat="43.90136" lon="6.29096">
        <ele>1204.86</ele>
        <time>2019-06-21T12:20:30Z</time>
      </trkpt>
      <trkpt lat="43.90143" lon="6.29099">
        <ele>1204.814</ele>
        <time>2019-06-21T12:20:31Z</time>
      </trkpt>
      <trkpt lat="43.9015" lon="6.29101">
        <ele>1204.854</ele>
        <time>2019-06-21T12:20:32Z</time>
      </trkpt>
      <trkpt lat="43.90156" lon="6.29103">
        <ele>1204.809</ele>
        <time>2019-06-21T12:20:33Z</time>
      </trkpt>
      <trkpt lat="43.90161" lon="6.29108">
        <ele>1204.808</ele>
        <time>2019-06-21T12:20:34Z</time>
      </trkpt>
      <trkpt lat="43.90167" lon="6.29111">
        <ele>1204.894</ele>
        <time>2019-06-21T12:20:35Z</time>
      </trkpt>
      <trkpt lat="43.90172" lon="6.29114">
        <ele>1204.878</ele>
        <time>2019-06-21T12:20:36Z</time>
      </trkpt>
      <trkpt lat="43.90179" lon="6.29116">
        <ele>1203.389</ele>
        <time>2019-06-21T12:20:37Z</time>
      </trkpt>
      <trkpt lat="43.90186" lon="6.29118">
        <ele>1203.386</ele>
        <time>2019-06-21T12:20:38Z</time>
      </trkpt>
      <trkpt lat="43.90193" lon="6.29122">
        <ele>1203.322</ele>
        <time>2019-06-21T12:20:39Z</time>
      </trkpt>
      <trkpt lat="43.902" lon="6.29128">
        <ele>1203.327</ele>
        <time>2019-06-21T12:20:40Z</time>
      </trkpt>
      <trkpt lat="43.90206" lon="6.29134">
        <ele>1203.368</ele>
        <time>2019-06-21T12:20:41Z</time>
      </trkpt>
      <trkpt lat="43.90213" lon="6.29139">
        <ele>1203.372</ele>
        <time>2019-06-21T12:20:42Z</time>
      </trkpt>
      <trkpt lat="43.90218" lon="6.29143">
        <ele>1203.384</ele>
        <time>2019-06-21T12:20:43Z</time>
      </trkpt>
      <trkpt lat="43.90226" lon="6.29146">
        <ele>1203.307</ele>
        <time>2019-06-21T12:20:44Z</time>
      </trkpt>
      <trkpt lat="43.90233" lon="6.29149">
        <ele>1203.317</ele>
        <time>2019-06-21T12:20:45Z</time>
      </trkpt>
      <trkpt lat="43.9024" lon="6.2915">
        <ele>1203.308</ele>
        <time>2019-06-21T12:20:46Z</time>
      </trkpt>
      <trkpt lat="43.90247" lon="6.2915">
        <ele>1199.251</ele>
        <time>2019-06-21T12:20:47Z</time>
      </trkpt>
      <trkpt lat="43.90255" lon="6.2915">
        <ele>1199.245</ele>
        <time>2019-06-21T12:20:48Z</time>
      </trkpt>
      <trkpt lat="43.90264" lon="6.29149">
        <ele>1199.256</ele>
        <time>2019-06-21T12:20:49Z</time>
      </trkpt>
      <trkpt lat="43.90271" lon="6.29147">
        <ele>1199.223</ele>
        <time>2019-06-21T12:20:50Z</time>
      </trkpt>
      <trkpt lat="43.90278" lon="6.29146">
        <ele>1199.279</ele>
        <time>2019-06-21T12:20:51Z</time>
      </trkpt>
      <trkpt lat="43.90285" lon="6.29142">
        <ele>1199.274</ele>
        <time>2019-06-21T12:20:52Z</time>
      </trkpt>
      <trkpt lat="43.90291" lon="6.29139">
        <ele>1199.295</ele>
        <time>2019-06-21T12:20:53Z</time>
      </trkpt>
      <trkpt lat="43.90299" lon="6.29138">
        <ele>1199.239</ele>
        <time>2019-06-21T12:20:54Z</time>
      </trkpt>
      <trkpt lat="43.90306" lon="6.29137">
        <ele>1199.211</ele>
        <time>2019-06-21T12:20:55Z</time>
      </trkpt>
      <trkpt lat="43.90314" lon="6.29137">
        <ele>1199.221</ele>
        <time>2019-06-21T12:20:56Z</time>
      </trkpt>
      <trkpt lat="43.90321" lon="6.29135">
        <ele>1199.203</ele>
        <time>2019-06-21T12:20:57Z</time>
      </trkpt>
      <trkpt lat="43.9033" lon="6.29133">
        <ele>1199.208</ele>
        <time>2019-06-21T12:20:58Z</time>
      </trkpt>
      <trkpt lat="43.90339" lon="6.29131">
        <ele>1199.284</ele>
        <time>2019-06-21T12:20:59Z</time>
      </trkpt>
      <trkpt lat="43.90346" lon="6.29126">
        <ele>1199.238</ele>
        <time>2019-06-21T12:21:00Z</time>
      </trkpt>
      <trkpt lat="43.90353" lon="6.29123">
        <ele>1199.239</ele>
        <time>2019-06-21T12:21:01Z</time>
      </trkpt>
      <trkpt lat="43.9036" lon="6.29119">
        <ele>1199.226</ele>
        <time>2019-06-21T12:21:02Z</time>
      </trkpt>
      <trkpt lat="43.90368" lon="6.29115">
        <ele>1197.832</ele>
        <time>2019-06-21T12:21:03Z</time>
      </trkpt>
      <trkpt lat="43.90375" lon="6.29111">
        <ele>1197.817</ele>
        <time>2019-06-21T12:21:04Z</time>
      </trkpt>
      <trkpt lat="43.90384" lon="6.29109">
        <ele>1197.858</ele>
        <time>2019-06-21T12:21:05Z</time>
      </trkpt>
      <trkpt lat="43.90392" lon="6.29108">
        <ele>1197.812</ele>
        <time>2019-06-21T12:21:06Z</time>
      </trkpt>
      <trkpt lat="43.904" lon="6.29107">
        <ele>1197.883</ele>
        <time>2019-06-21T12:21:07Z</time>
      </trkpt>
      <trkpt lat="43.90408" lon="6.29109">
        <ele>1197.825</ele>
        <time>2019-06-21T12:21:08Z</time>
      </trkpt>
      <trkpt lat="43.90417" lon="6.2911">
        <ele>1197.817</ele>
        <time>2019-06-21T12:21:09Z</time>
      </trkpt>
      <trkpt lat="43.90424" lon="6.29111">
        <ele>1197.808</ele>
        <time>2019-06-21T12:21:10Z</time>
      </trkpt>
      <trkpt lat="43.90432" lon="6.29112">
        <ele>1195.651</ele>
        <time>2019-06-21T12:21:11Z</time>
      </trkpt>
      <trkpt lat="43.9044" lon="6.29115">
        <ele>1195.635</ele>
        <time>2019-06-21T12:21:12Z</time>
      </trkpt>
      <trkpt lat="43.90446" lon="6.29117">
        <ele>1195.666</ele>
        <time>2019-06-21T12:21:13Z</time>
      </trkpt>
      <trkpt lat="43.90453" lon="6.29121">
        <ele>1195.673</ele>
        <time>2019-06-21T12:21:14Z</time>
      </trkpt>
      <trkpt lat="43.90458" lon="6.29125">
        <ele>1195.659</ele>
        <time>2019-06-21T12:21:15Z</time>
      </trkpt>
      <trkpt lat="43.90463" lon="6.29131">
        <ele>1195.654</ele>
        <time>2019-06-21T12:21:16Z</time>
      </trkpt>
      <trkpt lat="43.9047" lon="6.29137">
        <ele>1195.625</ele>
        <time>2019-06-21T12:21:17Z</time>
      </trkpt>
      <trkpt lat="43.90475" lon="6.29142">
        <ele>1195.649</ele>
        <time>2019-06-21T12:21:18Z</time>
      </trkpt>
      <trkpt lat="43.9048" lon="6.29144">
        <ele>1195.663</ele>
        <time>2019-06-21T12:21:19Z</time>
      </trkpt>
      <trkpt lat="43.90486" lon="6.29146">
        <ele>1193.944</ele>
        <time>2019-06-21T12:21:20Z</time>
      </trkpt>
      <trkpt lat="43.90493" lon="6.29146">
        <ele>1193.918</ele>
        <time>2019-06-21T12:21:21Z</time>
      </trkpt>
      <trkpt lat="43.905" lon="6.29146">
        <ele>1193.908</ele>
        <time>2019-06-21T12:21:22Z</time>
      </trkpt>
      <trkpt lat="43.90508" lon="6.29145">
        <ele>1193.999</ele>
        <time>2019-06-21T12:21:23Z</time>
      </trkpt>
      <trkpt lat="43.90516" lon="6.29143">
        <ele>1193.963</ele>
        <time>2019-06-21T12:21:24Z</time>
      </trkpt>
      <trkpt lat="43.90524" lon="6.29142">
        <ele>1193.984</ele>
        <time>2019-06-21T12:21:25Z</time>
      </trkpt>
      <trkpt lat="43.90533" lon="6.2914">
        <ele>1193.951</ele>
        <time>2019-06-21T12:21:26Z</time>
      </trkpt>
      <trkpt lat="43.90541" lon="6.29136">
        <ele>1193.977</ele>
        <time>2019-06-21T12:21:27Z</time>
      </trkpt>
      <trkpt lat="43.90548" lon="6.29131">
        <ele>1191.212</ele>
        <time>2019-06-21T12:21:28Z</time>
      </trkpt>
      <trkpt lat="43.90556" lon="6.29126">
        <ele>1190.883</ele>
        <time>2019-06-21T12:21:29Z</time>
      </trkpt>
      <trkpt lat="43.90564" lon="6.29121">
        <ele>1190.887</ele>
        <time>2019-06-21T12:21:30Z</time>
      </trkpt>
      <trkpt lat="43.90571" lon="6.29115">
        <ele>1190.895</ele>
        <time>2019-06-21T12:21:31Z</time>
      </trkpt>
      <trkpt lat="43.90578" lon="6.29107">
        <ele>1190.849</ele>
        <time>2019-06-21T12:21:32Z</time>
      </trkpt>
      <trkpt lat="43.90585" lon="6.29101">
        <ele>1190.823</ele>
        <time>2019-06-21T12:21:33Z</time>
      </trkpt>
      <trkpt lat="43.90591" lon="6.29095">
        <ele>1190.808</ele>
        <time>2019-06-21T12:21:34Z</time>
      </trkpt>
      <trkpt lat="43.90598" lon="6.29088">
        <ele>1190.812</ele>
        <time>2019-06-21T12:21:35Z</time>
      </trkpt>
      <trkpt lat="43.90604" lon="6.29081">
        <ele>1190.856</ele>
        <time>2019-06-21T12:21:36Z</time>
      </trkpt>
      <trkpt lat="43.90611" lon="6.29074">
        <ele>1188.787</ele>
        <time>2019-06-21T12:21:37Z</time>
      </trkpt>
      <trkpt lat="43.90617" lon="6.29067">
        <ele>1188.394</ele>
        <time>2019-06-21T12:21:38Z</time>
      </trkpt>
      <trkpt lat="43.90624" lon="6.29061">
        <ele>1188.36</ele>
        <time>2019-06-21T12:21:39Z</time>
      </trkpt>
      <trkpt lat="43.90631" lon="6.29055">
        <ele>1188.325</ele>
        <time>2019-06-21T12:21:40Z</time>
      </trkpt>
      <trkpt lat="43.90639" lon="6.29049">
        <ele>1188.376</ele>
        <time>2019-06-21T12:21:41Z</time>
      </trkpt>
      <trkpt lat="43.90645" lon="6.29042">
        <ele>1188.38</ele>
        <time>2019-06-21T12:21:42Z</time>
      </trkpt>
      <trkpt lat="43.90652" lon="6.29036">
        <ele>1188.392</ele>
        <time>2019-06-21T12:21:43Z</time>
      </trkpt>
      <trkpt lat="43.9066" lon="6.2903">
        <ele>1188.373</ele>
        <time>2019-06-21T12:21:44Z</time>
      </trkpt>
      <trkpt lat="43.90666" lon="6.29023">
        <ele>1188.32</ele>
        <time>2019-06-21T12:21:45Z</time>
      </trkpt>
      <trkpt lat="43.90673" lon="6.29016">
        <ele>1188.308</ele>
        <time>2019-06-21T12:21:46Z</time>
      </trkpt>
      <trkpt lat="43.90679" lon="6.29008">
        <ele>1188.312</ele>
        <time>2019-06-21T12:21:47Z</time>
      </trkpt>
      <trkpt lat="43.90686" lon="6.29001">
        <ele>1182.796</ele>
        <time>2019-06-21T12:21:48Z</time>
      </trkpt>
      <trkpt lat="43.90693" lon="6.28993">
        <ele>1182.797</ele>
        <time>2019-06-21T12:21:49Z</time>
      </trkpt>
      <trkpt lat="43.90699" lon="6.28985">
        <ele>1182.714</ele>
        <time>2019-06-21T12:21:50Z</time>
      </trkpt>
      <trkpt lat="43.90705" lon="6.28978">
        <ele>1182.79</ele>
        <time>2019-06-21T12:21:51Z</time>
      </trkpt>
      <trkpt lat="43.90712" lon="6.2897">
        <ele>1182.735</ele>
        <time>2019-06-21T12:21:52Z</time>
      </trkpt>
      <trkpt lat="43.90718" lon="6.28962">
        <ele>1182.796</ele>
        <time>2019-06-21T12:21:53Z</time>
      </trkpt>
      <trkpt lat="43.90724" lon="6.28955">
        <ele>1182.73</ele>
        <time>2019-06-21T12:21:54Z</time>
      </trkpt>
      <trkpt lat="43.90729" lon="6.28949">
        <ele>1182.781</ele>
        <time>2019-06-21T12:21:55Z</time>
      </trkpt>
      <trkpt lat="43.90735" lon="6.28944">
        <ele>1182.761</ele>
        <time>2019-06-21T12:21:56Z</time>
      </trkpt>
      <trkpt lat="43.90742" lon="6.28939">
        <ele>1182.717</ele>
        <time>2019-06-21T12:21:57Z</time>
      </trkpt>
      <trkpt lat="43.90749" lon="6.28937">
        <ele>1182.708</ele>
        <time>2019-06-21T12:21:58Z</time>
      </trkpt>
      <trkpt lat="43.90757" lon="6.28934">
        <ele>1182.731</ele>
        <time>2019-06-21T12:21:59Z</time>
      </trkpt>
      <trkpt lat="43.90765" lon="6.28932">
        <ele>1177.295</ele>
        <time>2019-06-21T12:22:00Z</time>
      </trkpt>
      <trkpt lat="43.90773" lon="6.2893">
        <ele>1177.266</ele>
        <time>2019-06-21T12:22:01Z</time>
      </trkpt>
      <trkpt lat="43.90781" lon="6.28928">
        <ele>1177.233</ele>
        <time>2019-06-21T12:22:02Z</time>
      </trkpt>
      <trkpt lat="43.9079" lon="6.28926">
        <ele>1177.259</ele>
        <time>2019-06-21T12:22:03Z</time>
      </trkpt>
      <trkpt lat="43.90798" lon="6.28922">
        <ele>1177.254</ele>
        <time>2019-06-21T12:22:04Z</time>
      </trkpt>
      <trkpt lat="43.90805" lon="6.28917">
        <ele>1177.245</ele>
        <time>2019-06-21T12:22:05Z</time>
      </trkpt>
      <trkpt lat="43.90811" lon="6.2891">
        <ele>1177.279</ele>
        <time>2019-06-21T12:22:06Z</time>
      </trkpt>
      <trkpt lat="43.90819" lon="6.28904">
        <ele>1177.248</ele>
        <time>2019-06-21T12:22:07Z</time>
      </trkpt>
      <trkpt lat="43.90827" lon="6.289">
        <ele>1177.261</ele>
        <time>2019-06-21T12:22:08Z</time>
      </trkpt>
      <trkpt lat="43.90835" lon="6.28896">
        <ele>1177.217</ele>
        <time>2019-06-21T12:22:09Z</time>
      </trkpt>
      <trkpt lat="43.90842" lon="6.28894">
        <ele>1177.208</ele>
        <time>2019-06-21T12:22:10Z</time>
      </trkpt>
      <trkpt lat="43.9085" lon="6.28893">
        <ele>1175.367</ele>
        <time>2019-06-21T12:22:11Z</time>
      </trkpt>
      <trkpt lat="43.90858" lon="6.28892">
        <ele>1175.321</ele>
        <time>2019-06-21T12:22:12Z</time>
      </trkpt>
      <trkpt lat="43.90865" lon="6.28889">
        <ele>1175.332</ele>
        <time>2019-06-21T12:22:13Z</time>
      </trkpt>
      <trkpt lat="43.90873" lon="6.28884">
        <ele>1175.389</ele>
        <time>2019-06-21T12:22:14Z</time>
      </trkpt>
      <trkpt lat="43.90879" lon="6.28877">
        <ele>1175.395</ele>
        <time>2019-06-21T12:22:15Z</time>
      </trkpt>
      <trkpt lat="43.90886" lon="6.2887">
        <ele>1175.39</ele>
        <time>2019-06-21T12:22:16Z</time>
      </trkpt>
      <trkpt lat="43.90893" lon="6.28863">
        <ele>1175.321</ele>
        <time>2019-06-21T12:22:17Z</time>
      </trkpt>
      <trkpt lat="43.90898" lon="6.28854">
        <ele>1175.335</ele>
        <time>2019-06-21T12:22:18Z</time>
      </trkpt>
      <trkpt lat="43.90902" lon="6.28845">
        <ele>1175.327</ele>
        <time>2019-06-21T12:22:19Z</time>
      </trkpt>
      <trkpt lat="43.90905" lon="6.28836">
        <ele>1175.368</ele>
        <time>2019-06-21T12:22:20Z</time>
      </trkpt>
      <trkpt lat="43.90907" lon="6.28826">
        <ele>1175.314</ele>
        <time>2019-06-21T12:22:21Z</time>
      </trkpt>
      <trkpt lat="43.90909" lon="6.28818">
        <ele>1175.308</ele>
        <time>2019-06-21T12:22:22Z</time>
      </trkpt>
      <trkpt lat="43.90912" lon="6.28812">
        <ele>1169.535</ele>
        <time>2019-06-21T12:22:23Z</time>
      </trkpt>
      <trkpt lat="43.90917" lon="6.28805">
        <ele>1169.519</ele>
        <time>2019-06-21T12:22:24Z</time>
      </trkpt>
      <trkpt lat="43.90922" lon="6.28802">
        <ele>1169.54</ele>
        <time>2019-06-21T12:22:25Z</time>
      </trkpt>
      <trkpt lat="43.90929" lon="6.28798">
        <ele>1169.527</ele>
        <time>2019-06-21T12:22:26Z</time>
      </trkpt>
      <trkpt lat="43.90936" lon="6.28796">
        <ele>1169.513</ele>
        <time>2019-06-21T12:22:27Z</time>
      </trkpt>
      <trkpt lat="43.90943" lon="6.28796">
        <ele>1169.528</ele>
        <time>2019-06-21T12:22:28Z</time>
      </trkpt>
      <trkpt lat="43.90951" lon="6.28794">
        <ele>1169.549</ele>
        <time>2019-06-21T12:22:29Z</time>
      </trkpt>
      <trkpt lat="43.90958" lon="6.28792">
        <ele>1169.563</ele>
        <time>2019-06-21T12:22:30Z</time>
      </trkpt>
      <trkpt lat="43.90964" lon="6.28792">
        <ele>1169.528</ele>
        <time>2019-06-21T12:22:31Z</time>
      </trkpt>
      <trkpt lat="43.90972" lon="6.28792">
        <ele>1169.589</ele>
        <time>2019-06-21T12:22:32Z</time>
      </trkpt>
      <trkpt lat="43.90978" lon="6.28794">
        <ele>1169.517</ele>
        <time>2019-06-21T12:22:33Z</time>
      </trkpt>
      <trkpt lat="43.90984" lon="6.28796">
        <ele>1169.508</ele>
        <time>2019-06-21T12:22:34Z</time>
      </trkpt>
      <trkpt lat="43.90988" lon="6.28802">
        <ele>1169.525</ele>
        <time>2019-06-21T12:22:35Z</time>
      </trkpt>
      <trkpt lat="43.90992" lon="6.2881">
        <ele>1165.179</ele>
        <time>2019-06-21T12:22:36Z</time>
      </trkpt>
      <trkpt lat="43.90995" lon="6.28816">
        <ele>1165.19</ele>
        <time>2019-06-21T12:22:37Z</time>
      </trkpt>
      <trkpt lat="43.90998" lon="6.28824">
        <ele>1165.197</ele>
        <time>2019-06-21T12:22:38Z</time>
      </trkpt>
      <trkpt lat="43.91001" lon="6.28831">
        <ele>1165.143</ele>
        <time>2019-06-21T12:22:39Z</time>
      </trkpt>
      <trkpt lat="43.91004" lon="6.28836">
        <ele>1165.158</ele>
        <time>2019-06-21T12:22:40Z</time>
      </trkpt>
      <trkpt lat="43.91009" lon="6.2884">
        <ele>1165.149</ele>
        <time>2019-06-21T12:22:41Z</time>
      </trkpt>
      <trkpt lat="43.91014" lon="6.28845">
        <ele>1165.163</ele>
        <time>2019-06-21T12:22:42Z</time>
      </trkpt>
      <trkpt lat="43.91019" lon="6.28849">
        <ele>1165.166</ele>
        <time>2019-06-21T12:22:43Z</time>
      </trkpt>
      <trkpt lat="43.91024" lon="6.28853">
        <ele>1162.129</ele>
        <time>2019-06-21T12:22:44Z</time>
      </trkpt>
      <trkpt lat="43.91028" lon="6.28856">
        <ele>1162.121</ele>
        <time>2019-06-21T12:22:45Z</time>
      </trkpt>
      <trkpt lat="43.91033" lon="6.2886">
        <ele>1162.108</ele>
        <time>2019-06-21T12:22:46Z</time>
      </trkpt>
      <trkpt lat="43.91039" lon="6.28869">
        <ele>1162.179</ele>
        <time>2019-06-21T12:22:48Z</time>
      </trkpt>
      <trkpt lat="43.91043" lon="6.28873">
        <ele>1162.173</ele>
        <time>2019-06-21T12:22:49Z</time>
      </trkpt>
      <trkpt lat="43.91047" lon="6.28878">
        <ele>1162.194</ele>
        <time>2019-06-21T12:22:50Z</time>
      </trkpt>
      <trkpt lat="43.91053" lon="6.28888">
        <ele>1162.181</ele>
        <time>2019-06-21T12:22:52Z</time>
      </trkpt>
      <trkpt lat="43.91059" lon="6.28897">
        <ele>1162.177</ele>
        <time>2019-06-21T12:22:54Z</time>
      </trkpt>
      <trkpt lat="43.91063" lon="6.289">
        <ele>1160.042</ele>
        <time>2019-06-21T12:22:55Z</time>
      </trkpt>
      <trkpt lat="43.91072" lon="6.28904">
        <ele>1160.023</ele>
        <time>2019-06-21T12:22:57Z</time>
      </trkpt>
      <trkpt lat="43.91078" lon="6.28905">
        <ele>1160.057</ele>
        <time>2019-06-21T12:22:58Z</time>
      </trkpt>
      <trkpt lat="43.91083" lon="6.28906">
        <ele>1160.079</ele>
        <time>2019-06-21T12:22:59Z</time>
      </trkpt>
      <trkpt lat="43.91091" lon="6.2891">
        <ele>1160.005</ele>
        <time>2019-06-21T12:23:01Z</time>
      </trkpt>
      <trkpt lat="43.91097" lon="6.28917">
        <ele>1160.025</ele>
        <time>2019-06-21T12:23:03Z</time>
      </trkpt>
      <trkpt lat="43.91103" lon="6.28923">
        <ele>1157.208</ele>
        <time>2019-06-21T12:23:05Z</time>
      </trkpt>
      <trkpt lat="43.91108" lon="6.28928">
        <ele>1157.22</ele>
        <time>2019-06-21T12:23:06Z</time>
      </trkpt>
      <trkpt lat="43.91115" lon="6.28933">
        <ele>1157.244</ele>
        <time>2019-06-21T12:23:08Z</time>
      </trkpt>
      <trkpt lat="43.91119" lon="6.28936">
        <ele>1157.225</ele>
        <time>2019-06-21T12:23:09Z</time>
      </trkpt>
      <trkpt lat="43.91124" lon="6.28939">
        <ele>1157.212</ele>
        <time>2019-06-21T12:23:10Z</time>
      </trkpt>
      <trkpt lat="43.91129" lon="6.28944">
        <ele>1157.228</ele>
        <time>2019-06-21T12:23:11Z</time>
      </trkpt>
      <trkpt lat="43.91134" lon="6.28947">
        <ele>1157.253</ele>
        <time>2019-06-21T12:23:12Z</time>
      </trkpt>
      <trkpt lat="43.91139" lon="6.28952">
        <ele>1157.264</ele>
        <time>2019-06-21T12:23:13Z</time>
      </trkpt>
      <trkpt lat="43.91145" lon="6.28955">
        <ele>1157.288</ele>
        <time>2019-06-21T12:23:14Z</time>
      </trkpt>
      <trkpt lat="43.91149" lon="6.28958">
        <ele>1156.114</ele>
        <time>2019-06-21T12:23:15Z</time>
      </trkpt>
      <trkpt lat="43.91154" lon="6.28961">
        <ele>1156.154</ele>
        <time>2019-06-21T12:23:16Z</time>
      </trkpt>
      <trkpt lat="43.9116" lon="6.28966">
        <ele>1156.109</ele>
        <time>2019-06-21T12:23:17Z</time>
      </trkpt>
      <trkpt lat="43.91164" lon="6.2897">
        <ele>1156.108</ele>
        <time>2019-06-21T12:23:18Z</time>
      </trkpt>
      <trkpt lat="43.91168" lon="6.28975">
        <ele>1156.114</ele>
        <time>2019-06-21T12:23:19Z</time>
      </trkpt>
      <trkpt lat="43.91173" lon="6.2898">
        <ele>1156.148</ele>
        <time>2019-06-21T12:23:20Z</time>
      </trkpt>
      <trkpt lat="43.91178" lon="6.28986">
        <ele>1156.199</ele>
        <time>2019-06-21T12:23:21Z</time>
      </trkpt>
      <trkpt lat="43.91181" lon="6.28991">
        <ele>1154.766</ele>
        <time>2019-06-21T12:23:22Z</time>
      </trkpt>
      <trkpt lat="43.91186" lon="6.28997">
        <ele>1154.782</ele>
        <time>2019-06-21T12:23:23Z</time>
      </trkpt>
      <trkpt lat="43.9119" lon="6.29001">
        <ele>1154.767</ele>
        <time>2019-06-21T12:23:24Z</time>
      </trkpt>
      <trkpt lat="43.91197" lon="6.29007">
        <ele>1154.788</ele>
        <time>2019-06-21T12:23:26Z</time>
      </trkpt>
      <trkpt lat="43.91204" lon="6.29014">
        <ele>1154.742</ele>
        <time>2019-06-21T12:23:28Z</time>
      </trkpt>
      <trkpt lat="43.91209" lon="6.29019">
        <ele>1154.718</ele>
        <time>2019-06-21T12:23:29Z</time>
      </trkpt>
      <trkpt lat="43.91212" lon="6.29024">
        <ele>1152.798</ele>
        <time>2019-06-21T12:23:30Z</time>
      </trkpt>
      <trkpt lat="43.91215" lon="6.29034">
        <ele>1152.717</ele>
        <time>2019-06-21T12:23:32Z</time>
      </trkpt>
      <trkpt lat="43.91218" lon="6.29043">
        <ele>1152.708</ele>
        <time>2019-06-21T12:23:34Z</time>
      </trkpt>
      <trkpt lat="43.91223" lon="6.29055">
        <ele>1152.764</ele>
        <time>2019-06-21T12:23:36Z</time>
      </trkpt>
      <trkpt lat="43.91226" lon="6.2906">
        <ele>1152.788</ele>
        <time>2019-06-21T12:23:37Z</time>
      </trkpt>
      <trkpt lat="43.91231" lon="6.29063">
        <ele>1152.799</ele>
        <time>2019-06-21T12:23:38Z</time>
      </trkpt>
      <trkpt lat="43.91236" lon="6.29067">
        <ele>1152.746</ele>
        <time>2019-06-21T12:23:39Z</time>
      </trkpt>
      <trkpt lat="43.91241" lon="6.29068">
        <ele>1152.772</ele>
        <time>2019-06-21T12:23:40Z</time>
      </trkpt>
      <trkpt lat="43.91246" lon="6.29067">
        <ele>1152.727</ele>
        <time>2019-06-21T12:23:41Z</time>
      </trkpt>
      <trkpt lat="43.91252" lon="6.29063">
        <ele>1150.888</ele>
        <time>2019-06-21T12:23:42Z</time>
      </trkpt>
      <trkpt lat="43.91258" lon="6.2906">
        <ele>1150.822</ele>
        <time>2019-06-21T12:23:43Z</time>
      </trkpt>
      <trkpt lat="43.91264" lon="6.29055">
        <ele>1150.826</ele>
        <time>2019-06-21T12:23:44Z</time>
      </trkpt>
      <trkpt lat="43.91271" lon="6.2905">
        <ele>1150.847</ele>
        <time>2019-06-21T12:23:45Z</time>
      </trkpt>
      <trkpt lat="43.91277" lon="6.29044">
        <ele>1150.811</ele>
        <time>2019-06-21T12:23:46Z</time>
      </trkpt>
      <trkpt lat="43.91282" lon="6.29035">
        <ele>1150.808</ele>
        <time>2019-06-21T12:23:47Z</time>
      </trkpt>
      <trkpt lat="43.91287" lon="6.29027">
        <ele>1150.865</ele>
        <time>2019-06-21T12:23:48Z</time>
      </trkpt>
      <trkpt lat="43.91292" lon="6.29019">
        <ele>1150.829</ele>
        <time>2019-06-21T12:23:49Z</time>
      </trkpt>
      <trkpt lat="43.91297" lon="6.29009">
        <ele>1150.87</ele>
        <time>2019-06-21T12:23:50Z</time>
      </trkpt>
      <trkpt lat="43.91301" lon="6.28999">
        <ele>1149.197</ele>
        <time>2019-06-21T12:23:51Z</time>
      </trkpt>
      <trkpt lat="43.91303" lon="6.28988">
        <ele>1148.323</ele>
        <time>2019-06-21T12:23:52Z</time>
      </trkpt>
      <trkpt lat="43.91305" lon="6.28977">
        <ele>1148.338</ele>
        <time>2019-06-21T12:23:53Z</time>
      </trkpt>
      <trkpt lat="43.91308" lon="6.28966">
        <ele>1148.379</ele>
        <time>2019-06-21T12:23:54Z</time>
      </trkpt>
      <trkpt lat="43.91311" lon="6.28955">
        <ele>1148.313</ele>
        <time>2019-06-21T12:23:55Z</time>
      </trkpt>
      <trkpt lat="43.91315" lon="6.28945">
        <ele>1148.379</ele>
        <time>2019-06-21T12:23:56Z</time>
      </trkpt>
      <trkpt lat="43.91319" lon="6.28936">
        <ele>1148.305</ele>
        <time>2019-06-21T12:23:57Z</time>
      </trkpt>
      <trkpt lat="43.91326" lon="6.28933">
        <ele>1148.325</ele>
        <time>2019-06-21T12:23:58Z</time>
      </trkpt>
      <trkpt lat="43.9133" lon="6.28928">
        <ele>1148.308</ele>
        <time>2019-06-21T12:23:59Z</time>
      </trkpt>
      <trkpt lat="43.91336" lon="6.28924">
        <ele>1148.38</ele>
        <time>2019-06-21T12:24:00Z</time>
      </trkpt>
      <trkpt lat="43.91343" lon="6.28921">
        <ele>1148.384</ele>
        <time>2019-06-21T12:24:01Z</time>
      </trkpt>
      <trkpt lat="43.9135" lon="6.28918">
        <ele>1148.345</ele>
        <time>2019-06-21T12:24:02Z</time>
      </trkpt>
      <trkpt lat="43.91356" lon="6.28914">
        <ele>1144.532</ele>
        <time>2019-06-21T12:24:03Z</time>
      </trkpt>
      <trkpt lat="43.91363" lon="6.28909">
        <ele>1144.538</ele>
        <time>2019-06-21T12:24:04Z</time>
      </trkpt>
      <trkpt lat="43.91369" lon="6.28905">
        <ele>1144.533</ele>
        <time>2019-06-21T12:24:05Z</time>
      </trkpt>
      <trkpt lat="43.91375" lon="6.28901">
        <ele>1144.584</ele>
        <time>2019-06-21T12:24:06Z</time>
      </trkpt>
      <trkpt lat="43.9138" lon="6.28898">
        <ele>1144.578</ele>
        <time>2019-06-21T12:24:07Z</time>
      </trkpt>
      <trkpt lat="43.91387" lon="6.289">
        <ele>1144.535</ele>
        <time>2019-06-21T12:24:08Z</time>
      </trkpt>
      <trkpt lat="43.91393" lon="6.28899">
        <ele>1144.586</ele>
        <time>2019-06-21T12:24:09Z</time>
      </trkpt>
      <trkpt lat="43.91399" lon="6.28897">
        <ele>1144.514</ele>
        <time>2019-06-21T12:24:10Z</time>
      </trkpt>
      <trkpt lat="43.91409" lon="6.28896">
        <ele>1144.508</ele>
        <time>2019-06-21T12:24:11Z</time>
      </trkpt>
      <trkpt lat="43.91416" lon="6.28891">
        <ele>1144.446</ele>
        <time>2019-06-21T12:24:12Z</time>
      </trkpt>
      <trkpt lat="43.91423" lon="6.28884">
        <ele>1144.46</ele>
        <time>2019-06-21T12:24:13Z</time>
      </trkpt>
      <trkpt lat="43.91431" lon="6.28878">
        <ele>1144.431</ele>
        <time>2019-06-21T12:24:14Z</time>
      </trkpt>
      <trkpt lat="43.91438" lon="6.2887">
        <ele>1144.428</ele>
        <time>2019-06-21T12:24:15Z</time>
      </trkpt>
      <trkpt lat="43.91446" lon="6.28862">
        <ele>1144.424</ele>
        <time>2019-06-21T12:24:16Z</time>
      </trkpt>
      <trkpt lat="43.91452" lon="6.28854">
        <ele>1144.439</ele>
        <time>2019-06-21T12:24:17Z</time>
      </trkpt>
      <trkpt lat="43.91461" lon="6.28847">
        <ele>1144.41</ele>
        <time>2019-06-21T12:24:18Z</time>
      </trkpt>
      <trkpt lat="43.91469" lon="6.28837">
        <ele>1144.484</ele>
        <time>2019-06-21T12:24:19Z</time>
      </trkpt>
      <trkpt lat="43.91477" lon="6.2883">
        <ele>1144.462</ele>
        <time>2019-06-21T12:24:20Z</time>
      </trkpt>
      <trkpt lat="43.91484" lon="6.28821">
        <ele>1146.883</ele>
        <time>2019-06-21T12:24:21Z</time>
      </trkpt>
      <trkpt lat="43.91491" lon="6.28812">
        <ele>1146.811</ele>
        <time>2019-06-21T12:24:22Z</time>
      </trkpt>
      <trkpt lat="43.91498" lon="6.28804">
        <ele>1146.808</ele>
        <time>2019-06-21T12:24:23Z</time>
      </trkpt>
      <trkpt lat="43.91506" lon="6.28796">
        <ele>1146.829</ele>
        <time>2019-06-21T12:24:24Z</time>
      </trkpt>
      <trkpt lat="43.91513" lon="6.28791">
        <ele>1146.823</ele>
        <time>2019-06-21T12:24:25Z</time>
      </trkpt>
      <trkpt lat="43.91521" lon="6.28788">
        <ele>1146.884</ele>
        <time>2019-06-21T12:24:26Z</time>
      </trkpt>
      <trkpt lat="43.91527" lon="6.28782">
        <ele>1146.811</ele>
        <time>2019-06-21T12:24:27Z</time>
      </trkpt>
      <trkpt lat="43.91533" lon="6.28776">
        <ele>1146.827</ele>
        <time>2019-06-21T12:24:28Z</time>
      </trkpt>
      <trkpt lat="43.91537" lon="6.28767">
        <ele>1146.872</ele>
        <time>2019-06-21T12:24:29Z</time>
      </trkpt>
      <trkpt lat="43.9154" lon="6.28757">
        <ele>1146.843</ele>
        <time>2019-06-21T12:24:30Z</time>
      </trkpt>
      <trkpt lat="43.91541" lon="6.28746">
        <ele>1146.847</ele>
        <time>2019-06-21T12:24:31Z</time>
      </trkpt>
      <trkpt lat="43.9154" lon="6.28734">
        <ele>1147.527</ele>
        <time>2019-06-21T12:24:32Z</time>
      </trkpt>
      <trkpt lat="43.91539" lon="6.28722">
        <ele>1147.568</ele>
        <time>2019-06-21T12:24:33Z</time>
      </trkpt>
      <trkpt lat="43.91532" lon="6.2871">
        <ele>1147.514</ele>
        <time>2019-06-21T12:24:34Z</time>
      </trkpt>
      <trkpt lat="43.91527" lon="6.28698">
        <ele>1147.508</ele>
        <time>2019-06-21T12:24:35Z</time>
      </trkpt>
      <trkpt lat="43.91524" lon="6.28687">
        <ele>1147.585</ele>
        <time>2019-06-21T12:24:36Z</time>
      </trkpt>
      <trkpt lat="43.91523" lon="6.28675">
        <ele>1147.569</ele>
        <time>2019-06-21T12:24:37Z</time>
      </trkpt>
      <trkpt lat="43.91522" lon="6.28664">
        <ele>1147.55</ele>
        <time>2019-06-21T12:24:38Z</time>
      </trkpt>
      <trkpt lat="43.91524" lon="6.2865">
        <ele>1146.817</ele>
        <time>2019-06-21T12:24:39Z</time>
      </trkpt>
      <trkpt lat="43.91524" lon="6.28637">
        <ele>1146.813</ele>
        <time>2019-06-21T12:24:40Z</time>
      </trkpt>
      <trkpt lat="43.91524" lon="6.28623">
        <ele>1146.838</ele>
        <time>2019-06-21T12:24:41Z</time>
      </trkpt>
      <trkpt lat="43.91523" lon="6.28611">
        <ele>1146.879</ele>
        <time>2019-06-21T12:24:42Z</time>
      </trkpt>
      <trkpt lat="43.91522" lon="6.28596">
        <ele>1146.823</ele>
        <time>2019-06-21T12:24:43Z</time>
      </trkpt>
      <trkpt lat="43.9152" lon="6.28582">
        <ele>1146.862</ele>
        <time>2019-06-21T12:24:44Z</time>
      </trkpt>
      <trkpt lat="43.91519" lon="6.28568">
        <ele>1146.883</ele>
        <time>2019-06-21T12:24:45Z</time>
      </trkpt>
      <trkpt lat="43.91517" lon="6.28554">
        <ele>1146.811</ele>
        <time>2019-06-21T12:24:46Z</time>
      </trkpt>
      <trkpt lat="43.91515" lon="6.28539">
        <ele>1146.408</ele>
        <time>2019-06-21T12:24:47Z</time>
      </trkpt>
      <trkpt lat="43.91514" lon="6.28525">
        <ele>1146.489</ele>
        <time>2019-06-21T12:24:48Z</time>
      </trkpt>
      <trkpt lat="43.91513" lon="6.28512">
        <ele>1146.463</ele>
        <time>2019-06-21T12:24:49Z</time>
      </trkpt>
      <trkpt lat="43.91514" lon="6.28498">
        <ele>1146.484</ele>
        <time>2019-06-21T12:24:50Z</time>
      </trkpt>
      <trkpt lat="43.91516" lon="6.28484">
        <ele>1146.491</ele>
        <time>2019-06-21T12:24:51Z</time>
      </trkpt>
      <trkpt lat="43.91518" lon="6.2847">
        <ele>1146.427</ele>
        <time>2019-06-21T12:24:52Z</time>
      </trkpt>
      <trkpt lat="43.91523" lon="6.28456">
        <ele>1146.462</ele>
        <time>2019-06-21T12:24:53Z</time>
      </trkpt>
      <trkpt lat="43.91527" lon="6.28442">
        <ele>1146.493</ele>
        <time>2019-06-21T12:24:54Z</time>
      </trkpt>
      <trkpt lat="43.91533" lon="6.28429">
        <ele>1146.427</ele>
        <time>2019-06-21T12:24:55Z</time>
      </trkpt>
      <trkpt lat="43.9154" lon="6.28416">
        <ele>1145.189</ele>
        <time>2019-06-21T12:24:56Z</time>
      </trkpt>
      <trkpt lat="43.91546" lon="6.28404">
        <ele>1145.106</ele>
        <time>2019-06-21T12:24:57Z</time>
      </trkpt>
      <trkpt lat="43.91552" lon="6.2839">
        <ele>1145.126</ele>
        <time>2019-06-21T12:24:58Z</time>
      </trkpt>
      <trkpt lat="43.91557" lon="6.28376">
        <ele>1145.108</ele>
        <time>2019-06-21T12:24:59Z</time>
      </trkpt>
      <trkpt lat="43.91563" lon="6.28366">
        <ele>1145.151</ele>
        <time>2019-06-21T12:25:00Z</time>
      </trkpt>
      <trkpt lat="43.91568" lon="6.28354">
        <ele>1145.125</ele>
        <time>2019-06-21T12:25:01Z</time>
      </trkpt>
      <trkpt lat="43.91573" lon="6.28343">
        <ele>1145.196</ele>
        <time>2019-06-21T12:25:02Z</time>
      </trkpt>
      <trkpt lat="43.91578" lon="6.2833">
        <ele>1144.413</ele>
        <time>2019-06-21T12:25:03Z</time>
      </trkpt>
      <trkpt lat="43.91581" lon="6.28319">
        <ele>1144.479</ele>
        <time>2019-06-21T12:25:04Z</time>
      </trkpt>
      <trkpt lat="43.91584" lon="6.28307">
        <ele>1144.444</ele>
        <time>2019-06-21T12:25:05Z</time>
      </trkpt>
      <trkpt lat="43.91588" lon="6.28296">
        <ele>1144.475</ele>
        <time>2019-06-21T12:25:06Z</time>
      </trkpt>
      <trkpt lat="43.91594" lon="6.28286">
        <ele>1144.469</ele>
        <time>2019-06-21T12:25:07Z</time>
      </trkpt>
      <trkpt lat="43.91598" lon="6.28277">
        <ele>1144.465</ele>
        <time>2019-06-21T12:25:08Z</time>
      </trkpt>
      <trkpt lat="43.91603" lon="6.28266">
        <ele>1144.468</ele>
        <time>2019-06-21T12:25:09Z</time>
      </trkpt>
      <trkpt lat="43.91609" lon="6.28255">
        <ele>1142.214</ele>
        <time>2019-06-21T12:25:10Z</time>
      </trkpt>
      <trkpt lat="43.91615" lon="6.28245">
        <ele>1142.208</ele>
        <time>2019-06-21T12:25:11Z</time>
      </trkpt>
      <trkpt lat="43.91621" lon="6.28233">
        <ele>1142.249</ele>
        <time>2019-06-21T12:25:12Z</time>
      </trkpt>
      <trkpt lat="43.91628" lon="6.28224">
        <ele>1142.263</ele>
        <time>2019-06-21T12:25:13Z</time>
      </trkpt>
      <trkpt lat="43.91636" lon="6.28217">
        <ele>1142.264</ele>
        <time>2019-06-21T12:25:14Z</time>
      </trkpt>
      <trkpt lat="43.91643" lon="6.28209">
        <ele>1142.281</ele>
        <time>2019-06-21T12:25:15Z</time>
      </trkpt>
      <trkpt lat="43.91651" lon="6.28202">
        <ele>1142.247</ele>
        <time>2019-06-21T12:25:16Z</time>
      </trkpt>
      <trkpt lat="43.91661" lon="6.28199">
        <ele>1142.232</ele>
        <time>2019-06-21T12:25:17Z</time>
      </trkpt>
      <trkpt lat="43.9167" lon="6.28195">
        <ele>1142.133</ele>
        <time>2019-06-21T12:25:18Z</time>
      </trkpt>
      <trkpt lat="43.91676" lon="6.28191">
        <ele>1142.197</ele>
        <time>2019-06-21T12:25:19Z</time>
      </trkpt>
      <trkpt lat="43.91684" lon="6.28187">
        <ele>1142.183</ele>
        <time>2019-06-21T12:25:20Z</time>
      </trkpt>
      <trkpt lat="43.91692" lon="6.28181">
        <ele>1142.125</ele>
        <time>2019-06-21T12:25:21Z</time>
      </trkpt>
      <trkpt lat="43.91699" lon="6.28173">
        <ele>1142.117</ele>
        <time>2019-06-21T12:25:22Z</time>
      </trkpt>
      <trkpt lat="43.91706" lon="6.28164">
        <ele>1142.108</ele>
        <time>2019-06-21T12:25:23Z</time>
      </trkpt>
      <trkpt lat="43.91713" lon="6.28153">
        <ele>1142.161</ele>
        <time>2019-06-21T12:25:24Z</time>
      </trkpt>
      <trkpt lat="43.91719" lon="6.28142">
        <ele>1142.175</ele>
        <time>2019-06-21T12:25:25Z</time>
      </trkpt>
      <trkpt lat="43.91724" lon="6.2813">
        <ele>1140.736</ele>
        <time>2019-06-21T12:25:26Z</time>
      </trkpt>
      <trkpt lat="43.91728" lon="6.28119">
        <ele>1140.763</ele>
        <time>2019-06-21T12:25:27Z</time>
      </trkpt>
      <trkpt lat="43.91734" lon="6.28107">
        <ele>1140.749</ele>
        <time>2019-06-21T12:25:28Z</time>
      </trkpt>
      <trkpt lat="43.91736" lon="6.28097">
        <ele>1140.734</ele>
        <time>2019-06-21T12:25:29Z</time>
      </trkpt>
      <trkpt lat="43.91739" lon="6.28084">
        <ele>1140.755</ele>
        <time>2019-06-21T12:25:30Z</time>
      </trkpt>
      <trkpt lat="43.91743" lon="6.28072">
        <ele>1140.769</ele>
        <time>2019-06-21T12:25:31Z</time>
      </trkpt>
      <trkpt lat="43.91747" lon="6.2806">
        <ele>1140.774</ele>
        <time>2019-06-21T12:25:32Z</time>
      </trkpt>
      <trkpt lat="43.9175" lon="6.28049">
        <ele>1139.956</ele>
        <time>2019-06-21T12:25:33Z</time>
      </trkpt>
      <trkpt lat="43.91754" lon="6.28038">
        <ele>1139.921</ele>
        <time>2019-06-21T12:25:34Z</time>
      </trkpt>
      <trkpt lat="43.91755" lon="6.28027">
        <ele>1139.908</ele>
        <time>2019-06-21T12:25:35Z</time>
      </trkpt>
      <trkpt lat="43.91755" lon="6.28016">
        <ele>1139.96</ele>
        <time>2019-06-21T12:25:36Z</time>
      </trkpt>
      <trkpt lat="43.91752" lon="6.28003">
        <ele>1139.934</ele>
        <time>2019-06-21T12:25:37Z</time>
      </trkpt>
      <trkpt lat="43.91749" lon="6.2799">
        <ele>1139.995</ele>
        <time>2019-06-21T12:25:38Z</time>
      </trkpt>
      <trkpt lat="43.91745" lon="6.27979">
        <ele>1139.912</ele>
        <time>2019-06-21T12:25:39Z</time>
      </trkpt>
      <trkpt lat="43.9174" lon="6.27967">
        <ele>1139.948</ele>
        <time>2019-06-21T12:25:40Z</time>
      </trkpt>
      <trkpt lat="43.91736" lon="6.27953">
        <ele>1139.993</ele>
        <time>2019-06-21T12:25:41Z</time>
      </trkpt>
      <trkpt lat="43.91734" lon="6.27941">
        <ele>1138.334</ele>
        <time>2019-06-21T12:25:42Z</time>
      </trkpt>
      <trkpt lat="43.91731" lon="6.27927">
        <ele>1138.358</ele>
        <time>2019-06-21T12:25:43Z</time>
      </trkpt>
      <trkpt lat="43.91729" lon="6.27913">
        <ele>1138.385</ele>
        <time>2019-06-21T12:25:44Z</time>
      </trkpt>
      <trkpt lat="43.91726" lon="6.279">
        <ele>1138.389</ele>
        <time>2019-06-21T12:25:45Z</time>
      </trkpt>
      <trkpt lat="43.91725" lon="6.27888">
        <ele>1138.317</ele>
        <time>2019-06-21T12:25:46Z</time>
      </trkpt>
      <trkpt lat="43.91723" lon="6.27876">
        <ele>1138.308</ele>
        <time>2019-06-21T12:25:47Z</time>
      </trkpt>
      <trkpt lat="43.91723" lon="6.27864">
        <ele>1138.391</ele>
        <time>2019-06-21T12:25:48Z</time>
      </trkpt>
      <trkpt lat="43.91724" lon="6.27853">
        <ele>1138.375</ele>
        <time>2019-06-21T12:25:49Z</time>
      </trkpt>
      <trkpt lat="43.91724" lon="6.2784">
        <ele>1138.366</ele>
        <time>2019-06-21T12:25:50Z</time>
      </trkpt>
      <trkpt lat="43.91725" lon="6.27827">
        <ele>1138.363</ele>
        <time>2019-06-21T12:25:51Z</time>
      </trkpt>
      <trkpt lat="43.91726" lon="6.27813">
        <ele>1137.689</ele>
        <time>2019-06-21T12:25:52Z</time>
      </trkpt>
      <trkpt lat="43.91728" lon="6.27799">
        <ele>1137.674</ele>
        <time>2019-06-21T12:25:53Z</time>
      </trkpt>
      <trkpt lat="43.9173" lon="6.27785">
        <ele>1137.685</ele>
        <time>2019-06-21T12:25:54Z</time>
      </trkpt>
      <trkpt lat="43.91735" lon="6.27773">
        <ele>1137.639</ele>
        <time>2019-06-21T12:25:55Z</time>
      </trkpt>
      <trkpt lat="43.9174" lon="6.27762">
        <ele>1137.645</ele>
        <time>2019-06-21T12:25:56Z</time>
      </trkpt>
      <trkpt lat="43.91747" lon="6.27751">
        <ele>1137.647</ele>
        <time>2019-06-21T12:25:57Z</time>
      </trkpt>
      <trkpt lat="43.91756" lon="6.27742">
        <ele>1137.611</ele>
        <time>2019-06-21T12:25:58Z</time>
      </trkpt>
      <trkpt lat="43.91765" lon="6.27733">
        <ele>1137.608</ele>
        <time>2019-06-21T12:25:59Z</time>
      </trkpt>
      <trkpt lat="43.91774" lon="6.27724">
        <ele>1137.877</ele>
        <time>2019-06-21T12:26:00Z</time>
      </trkpt>
      <trkpt lat="43.91782" lon="6.27714">
        <ele>1137.851</ele>
        <time>2019-06-21T12:26:01Z</time>
      </trkpt>
      <trkpt lat="43.91789" lon="6.27705">
        <ele>1137.822</ele>
        <time>2019-06-21T12:26:02Z</time>
      </trkpt>
      <trkpt lat="43.91796" lon="6.27694">
        <ele>1137.879</ele>
        <time>2019-06-21T12:26:03Z</time>
      </trkpt>
      <trkpt lat="43.91805" lon="6.27686">
        <ele>1137.875</ele>
        <time>2019-06-21T12:26:04Z</time>
      </trkpt>
      <trkpt lat="43.91813" lon="6.27676">
        <ele>1137.88</ele>
        <time>2019-06-21T12:26:05Z</time>
      </trkpt>
      <trkpt lat="43.91823" lon="6.27668">
        <ele>1137.851</ele>
        <time>2019-06-21T12:26:06Z</time>
      </trkpt>
      <trkpt lat="43.91833" lon="6.2766">
        <ele>1137.845</ele>
        <time>2019-06-21T12:26:07Z</time>
      </trkpt>
      <trkpt lat="43.91842" lon="6.27652">
        <ele>1137.847</ele>
        <time>2019-06-21T12:26:08Z</time>
      </trkpt>
      <trkpt lat="43.91851" lon="6.27644">
        <ele>1137.829</ele>
        <time>2019-06-21T12:26:09Z</time>
      </trkpt>
      <trkpt lat="43.91859" lon="6.27634">
        <ele>1135.421</ele>
        <time>2019-06-21T12:26:10Z</time>
      </trkpt>
      <trkpt lat="43.91867" lon="6.27623">
        <ele>1135.408</ele>
        <time>2019-06-21T12:26:11Z</time>
      </trkpt>
      <trkpt lat="43.91872" lon="6.27611">
        <ele>1135.477</ele>
        <time>2019-06-21T12:26:12Z</time>
      </trkpt>
      <trkpt lat="43.91875" lon="6.27597">
        <ele>1135.431</ele>
        <time>2019-06-21T12:26:13Z</time>
      </trkpt>
      <trkpt lat="43.91877" lon="6.27584">
        <ele>1135.472</ele>
        <time>2019-06-21T12:26:14Z</time>
      </trkpt>
      <trkpt lat="43.9188" lon="6.27571">
        <ele>1135.429</ele>
        <time>2019-06-21T12:26:15Z</time>
      </trkpt>
      <trkpt lat="43.91887" lon="6.27562">
        <ele>1135.435</ele>
        <time>2019-06-21T12:26:16Z</time>
      </trkpt>
      <trkpt lat="43.91893" lon="6.27553">
        <ele>1135.41</ele>
        <time>2019-06-21T12:26:17Z</time>
      </trkpt>
      <trkpt lat="43.91902" lon="6.27548">
        <ele>1135.481</ele>
        <time>2019-06-21T12:26:18Z</time>
      </trkpt>
      <trkpt lat="43.91912" lon="6.27543">
        <ele>1135.425</ele>
        <time>2019-06-21T12:26:19Z</time>
      </trkpt>
      <trkpt lat="43.91919" lon="6.27535">
        <ele>1135.439</ele>
        <time>2019-06-21T12:26:20Z</time>
      </trkpt>
      <trkpt lat="43.91926" lon="6.27526">
        <ele>1132.801</ele>
        <time>2019-06-21T12:26:21Z</time>
      </trkpt>
      <trkpt lat="43.91931" lon="6.27516">
        <ele>1132.821</ele>
        <time>2019-06-21T12:26:22Z</time>
      </trkpt>
      <trkpt lat="43.91935" lon="6.27504">
        <ele>1132.808</ele>
        <time>2019-06-21T12:26:23Z</time>
      </trkpt>
      <trkpt lat="43.91941" lon="6.27494">
        <ele>1132.816</ele>
        <time>2019-06-21T12:26:24Z</time>
      </trkpt>
      <trkpt lat="43.91948" lon="6.27486">
        <ele>1132.87</ele>
        <time>2019-06-21T12:26:25Z</time>
      </trkpt>
      <trkpt lat="43.91957" lon="6.27481">
        <ele>1132.871</ele>
        <time>2019-06-21T12:26:26Z</time>
      </trkpt>
      <trkpt lat="43.91966" lon="6.27475">
        <ele>1132.818</ele>
        <time>2019-06-21T12:26:27Z</time>
      </trkpt>
      <trkpt lat="43.91976" lon="6.27469">
        <ele>1132.884</ele>
        <time>2019-06-21T12:26:28Z</time>
      </trkpt>
      <trkpt lat="43.91984" lon="6.27461">
        <ele>1131.529</ele>
        <time>2019-06-21T12:26:29Z</time>
      </trkpt>
      <trkpt lat="43.91992" lon="6.27454">
        <ele>1131.51</ele>
        <time>2019-06-21T12:26:30Z</time>
      </trkpt>
      <trkpt lat="43.91998" lon="6.27443">
        <ele>1131.594</ele>
        <time>2019-06-21T12:26:31Z</time>
      </trkpt>
      <trkpt lat="43.92004" lon="6.27434">
        <ele>1131.524</ele>
        <time>2019-06-21T12:26:32Z</time>
      </trkpt>
      <trkpt lat="43.9201" lon="6.27428">
        <ele>1131.504</ele>
        <time>2019-06-21T12:26:33Z</time>
      </trkpt>
      <trkpt lat="43.92016" lon="6.27424">
        <ele>1131.514</ele>
        <time>2019-06-21T12:26:34Z</time>
      </trkpt>
      <trkpt lat="43.92021" lon="6.27421">
        <ele>1131.508</ele>
        <time>2019-06-21T12:26:35Z</time>
      </trkpt>
      <trkpt lat="43.92027" lon="6.27421">
        <ele>1130.415</ele>
        <time>2019-06-21T12:26:36Z</time>
      </trkpt>
      <trkpt lat="43.92031" lon="6.27427">
        <ele>1130.469</ele>
        <time>2019-06-21T12:26:38Z</time>
      </trkpt>
      <trkpt lat="43.92032" lon="6.27439">
        <ele>1130.44</ele>
        <time>2019-06-21T12:26:40Z</time>
      </trkpt>
      <trkpt lat="43.92029" lon="6.27446">
        <ele>1130.497</ele>
        <time>2019-06-21T12:26:41Z</time>
      </trkpt>
      <trkpt lat="43.92024" lon="6.27451">
        <ele>1130.473</ele>
        <time>2019-06-21T12:26:42Z</time>
      </trkpt>
      <trkpt lat="43.92019" lon="6.27458">
        <ele>1130.418</ele>
        <time>2019-06-21T12:26:43Z</time>
      </trkpt>
      <trkpt lat="43.92015" lon="6.27464">
        <ele>1130.479</ele>
        <time>2019-06-21T12:26:44Z</time>
      </trkpt>
      <trkpt lat="43.92009" lon="6.2747">
        <ele>1130.983</ele>
        <time>2019-06-21T12:26:45Z</time>
      </trkpt>
      <trkpt lat="43.92004" lon="6.27475">
        <ele>1130.917</ele>
        <time>2019-06-21T12:26:46Z</time>
      </trkpt>
      <trkpt lat="43.91999" lon="6.27481">
        <ele>1130.987</ele>
        <time>2019-06-21T12:26:47Z</time>
      </trkpt>
      <trkpt lat="43.91994" lon="6.27486">
        <ele>1130.915</ele>
        <time>2019-06-21T12:26:48Z</time>
      </trkpt>
      <trkpt lat="43.91988" lon="6.27493">
        <ele>1130.908</ele>
        <time>2019-06-21T12:26:49Z</time>
      </trkpt>
      <trkpt lat="43.91983" lon="6.27499">
        <ele>1130.994</ele>
        <time>2019-06-21T12:26:50Z</time>
      </trkpt>
      <trkpt lat="43.91977" lon="6.27503">
        <ele>1130.998</ele>
        <time>2019-06-21T12:26:51Z</time>
      </trkpt>
      <trkpt lat="43.91972" lon="6.27507">
        <ele>1130.929</ele>
        <time>2019-06-21T12:26:52Z</time>
      </trkpt>
      <trkpt lat="43.91966" lon="6.27512">
        <ele>1135.796</ele>
        <time>2019-06-21T12:26:53Z</time>
      </trkpt>
      <trkpt lat="43.91961" lon="6.27517">
        <ele>1135.762</ele>
        <time>2019-06-21T12:26:54Z</time>
      </trkpt>
      <trkpt lat="43.91955" lon="6.27523">
        <ele>1135.777</ele>
        <time>2019-06-21T12:26:55Z</time>
      </trkpt>
      <trkpt lat="43.91951" lon="6.2753">
        <ele>1135.798</ele>
        <time>2019-06-21T12:26:56Z</time>
      </trkpt>
      <trkpt lat="43.91949" lon="6.27538">
        <ele>1135.732</ele>
        <time>2019-06-21T12:26:57Z</time>
      </trkpt>
      <trkpt lat="43.91948" lon="6.27546">
        <ele>1135.723</ele>
        <time>2019-06-21T12:26:58Z</time>
      </trkpt>
      <trkpt lat="43.91946" lon="6.27555">
        <ele>1135.783</ele>
        <time>2019-06-21T12:26:59Z</time>
      </trkpt>
      <trkpt lat="43.91943" lon="6.27562">
        <ele>1135.711</ele>
        <time>2019-06-21T12:27:00Z</time>
      </trkpt>
      <trkpt lat="43.91936" lon="6.2757">
        <ele>1141.208</ele>
        <time>2019-06-21T12:27:02Z</time>
      </trkpt>
      <trkpt lat="43.91932" lon="6.27573">
        <ele>1141.265</ele>
        <time>2019-06-21T12:27:03Z</time>
      </trkpt>
      <trkpt lat="43.91927" lon="6.27577">
        <ele>1141.259</ele>
        <time>2019-06-21T12:27:04Z</time>
      </trkpt>
      <trkpt lat="43.91923" lon="6.27582">
        <ele>1141.23</ele>
        <time>2019-06-21T12:27:05Z</time>
      </trkpt>
      <trkpt lat="43.91918" lon="6.27588">
        <ele>1141.257</ele>
        <time>2019-06-21T12:27:06Z</time>
      </trkpt>
      <trkpt lat="43.91915" lon="6.27596">
        <ele>1141.243</ele>
        <time>2019-06-21T12:27:07Z</time>
      </trkpt>
      <trkpt lat="43.91913" lon="6.27604">
        <ele>1141.288</ele>
        <time>2019-06-21T12:27:08Z</time>
      </trkpt>
      <trkpt lat="43.91911" lon="6.27613">
        <ele>1145.579</ele>
        <time>2019-06-21T12:27:09Z</time>
      </trkpt>
      <trkpt lat="43.91909" lon="6.27621">
        <ele>1145.513</ele>
        <time>2019-06-21T12:27:10Z</time>
      </trkpt>
      <trkpt lat="43.91907" lon="6.27629">
        <ele>1145.592</ele>
        <time>2019-06-21T12:27:11Z</time>
      </trkpt>
      <trkpt lat="43.91906" lon="6.27638">
        <ele>1145.573</ele>
        <time>2019-06-21T12:27:12Z</time>
      </trkpt>
      <trkpt lat="43.91903" lon="6.27646">
        <ele>1145.52</ele>
        <time>2019-06-21T12:27:13Z</time>
      </trkpt>
      <trkpt lat="43.91901" lon="6.27653">
        <ele>1145.508</ele>
        <time>2019-06-21T12:27:14Z</time>
      </trkpt>
      <trkpt lat="43.91898" lon="6.27659">
        <ele>1148.712</ele>
        <time>2019-06-21T12:27:15Z</time>
      </trkpt>
      <trkpt lat="43.91896" lon="6.27666">
        <ele>1148.756</ele>
        <time>2019-06-21T12:27:16Z</time>
      </trkpt>
      <trkpt lat="43.91894" lon="6.27674">
        <ele>1148.767</ele>
        <time>2019-06-21T12:27:17Z</time>
      </trkpt>
      <trkpt lat="43.91892" lon="6.27681">
        <ele>1148.754</ele>
        <time>2019-06-21T12:27:18Z</time>
      </trkpt>
      <trkpt lat="43.91888" lon="6.27687">
        <ele>1148.72</ele>
        <time>2019-06-21T12:27:19Z</time>
      </trkpt>
      <trkpt lat="43.91883" lon="6.27691">
        <ele>1148.755</ele>
        <time>2019-06-21T12:27:20Z</time>
      </trkpt>
      <trkpt lat="43.91877" lon="6.27694">
        <ele>1148.756</ele>
        <time>2019-06-21T12:27:21Z</time>
      </trkpt>
      <trkpt lat="43.91873" lon="6.27696">
        <ele>1151.97</ele>
        <time>2019-06-21T12:27:22Z</time>
      </trkpt>
      <trkpt lat="43.91868" lon="6.27699">
        <ele>1151.923</ele>
        <time>2019-06-21T12:27:23Z</time>
      </trkpt>
      <trkpt lat="43.91863" lon="6.27703">
        <ele>1151.983</ele>
        <time>2019-06-21T12:27:24Z</time>
      </trkpt>
      <trkpt lat="43.91858" lon="6.27707">
        <ele>1151.911</ele>
        <time>2019-06-21T12:27:25Z</time>
      </trkpt>
      <trkpt lat="43.91854" lon="6.27713">
        <ele>1151.908</ele>
        <time>2019-06-21T12:27:26Z</time>
      </trkpt>
      <trkpt lat="43.9185" lon="6.2772">
        <ele>1151.955</ele>
        <time>2019-06-21T12:27:27Z</time>
      </trkpt>
      <trkpt lat="43.91845" lon="6.27726">
        <ele>1151.969</ele>
        <time>2019-06-21T12:27:28Z</time>
      </trkpt>
      <trkpt lat="43.91841" lon="6.27732">
        <ele>1151.91</ele>
        <time>2019-06-21T12:27:29Z</time>
      </trkpt>
      <trkpt lat="43.91837" lon="6.27738">
        <ele>1155.477</ele>
        <time>2019-06-21T12:27:30Z</time>
      </trkpt>
      <trkpt lat="43.91834" lon="6.27744">
        <ele>1155.493</ele>
        <time>2019-06-21T12:27:31Z</time>
      </trkpt>
      <trkpt lat="43.91829" lon="6.27749">
        <ele>1155.488</ele>
        <time>2019-06-21T12:27:32Z</time>
      </trkpt>
      <trkpt lat="43.91825" lon="6.27755">
        <ele>1155.489</ele>
        <time>2019-06-21T12:27:33Z</time>
      </trkpt>
      <trkpt lat="43.91819" lon="6.2776">
        <ele>1155.483</ele>
        <time>2019-06-21T12:27:34Z</time>
      </trkpt>
      <trkpt lat="43.91814" lon="6.27766">
        <ele>1158.745</ele>
        <time>2019-06-21T12:27:35Z</time>
      </trkpt>
      <trkpt lat="43.9181" lon="6.27771">
        <ele>1158.747</ele>
        <time>2019-06-21T12:27:36Z</time>
      </trkpt>
      <trkpt lat="43.91805" lon="6.27777">
        <ele>1158.711</ele>
        <time>2019-06-21T12:27:37Z</time>
      </trkpt>
      <trkpt lat="43.918" lon="6.27782">
        <ele>1158.708</ele>
        <time>2019-06-21T12:27:38Z</time>
      </trkpt>
      <trkpt lat="43.91796" lon="6.27788">
        <ele>1158.727</ele>
        <time>2019-06-21T12:27:39Z</time>
      </trkpt>
      <trkpt lat="43.91792" lon="6.27796">
        <ele>1158.791</ele>
        <time>2019-06-21T12:27:40Z</time>
      </trkpt>
      <trkpt lat="43.91789" lon="6.27804">
        <ele>1158.732</ele>
        <time>2019-06-21T12:27:41Z</time>
      </trkpt>
      <trkpt lat="43.91788" lon="6.27811">
        <ele>1158.769</ele>
        <time>2019-06-21T12:27:42Z</time>
      </trkpt>
      <trkpt lat="43.91786" lon="6.27819">
        <ele>1163.055</ele>
        <time>2019-06-21T12:27:43Z</time>
      </trkpt>
      <trkpt lat="43.91784" lon="6.27827">
        <ele>1163.06</ele>
        <time>2019-06-21T12:27:44Z</time>
      </trkpt>
      <trkpt lat="43.91784" lon="6.27836">
        <ele>1163.031</ele>
        <time>2019-06-21T12:27:45Z</time>
      </trkpt>
      <trkpt lat="43.91785" lon="6.27844">
        <ele>1163.025</ele>
        <time>2019-06-21T12:27:46Z</time>
      </trkpt>
      <trkpt lat="43.91787" lon="6.27851">
        <ele>1163.031</ele>
        <time>2019-06-21T12:27:47Z</time>
      </trkpt>
      <trkpt lat="43.9179" lon="6.27859">
        <ele>1163.061</ele>
        <time>2019-06-21T12:27:48Z</time>
      </trkpt>
      <trkpt lat="43.91792" lon="6.27867">
        <ele>1163.007</ele>
        <time>2019-06-21T12:27:49Z</time>
      </trkpt>
      <trkpt lat="43.91794" lon="6.27875">
        <ele>1163.008</ele>
        <time>2019-06-21T12:27:50Z</time>
      </trkpt>
      <trkpt lat="43.91796" lon="6.27882">
        <ele>1167.476</ele>
        <time>2019-06-21T12:27:51Z</time>
      </trkpt>
      <trkpt lat="43.91798" lon="6.27888">
        <ele>1167.42</ele>
        <time>2019-06-21T12:27:52Z</time>
      </trkpt>
      <trkpt lat="43.918" lon="6.27894">
        <ele>1167.431</ele>
        <time>2019-06-21T12:27:53Z</time>
      </trkpt>
      <trkpt lat="43.91803" lon="6.27899">
        <ele>1167.428</ele>
        <time>2019-06-21T12:27:54Z</time>
      </trkpt>
      <trkpt lat="43.91808" lon="6.27903">
        <ele>1167.414</ele>
        <time>2019-06-21T12:27:55Z</time>
      </trkpt>
      <trkpt lat="43.91813" lon="6.27907">
        <ele>1167.489</ele>
        <time>2019-06-21T12:27:56Z</time>
      </trkpt>
      <trkpt lat="43.91818" lon="6.27909">
        <ele>1167.46</ele>
        <time>2019-06-21T12:27:57Z</time>
      </trkpt>
      <trkpt lat="43.91824" lon="6.27911">
        <ele>1167.474</ele>
        <time>2019-06-21T12:27:58Z</time>
      </trkpt>
      <trkpt lat="43.91834" lon="6.27913">
        <ele>1172.688</ele>
        <time>2019-06-21T12:28:00Z</time>
      </trkpt>
      <trkpt lat="43.91839" lon="6.27917">
        <ele>1172.624</ele>
        <time>2019-06-21T12:28:01Z</time>
      </trkpt>
      <trkpt lat="43.91845" lon="6.27921">
        <ele>1172.626</ele>
        <time>2019-06-21T12:28:02Z</time>
      </trkpt>
      <trkpt lat="43.91849" lon="6.27928">
        <ele>1172.608</ele>
        <time>2019-06-21T12:28:03Z</time>
      </trkpt>
      <trkpt lat="43.91853" lon="6.27933">
        <ele>1172.681</ele>
        <time>2019-06-21T12:28:04Z</time>
      </trkpt>
      <trkpt lat="43.91858" lon="6.27936">
        <ele>1172.635</ele>
        <time>2019-06-21T12:28:05Z</time>
      </trkpt>
      <trkpt lat="43.91865" lon="6.27939">
        <ele>1176.546</ele>
        <time>2019-06-21T12:28:07Z</time>
      </trkpt>
      <trkpt lat="43.91864" lon="6.27929">
        <ele>1176.543</ele>
        <time>2019-06-21T12:28:16Z</time>
      </trkpt>
      <trkpt lat="43.91861" lon="6.27924">
        <ele>1176.549</ele>
        <time>2019-06-21T12:28:17Z</time>
      </trkpt>
      <trkpt lat="43.91858" lon="6.27918">
        <ele>1178.054</ele>
        <time>2019-06-21T12:28:18Z</time>
      </trkpt>
      <trkpt lat="43.9185" lon="6.27912">
        <ele>1178.085</ele>
        <time>2019-06-21T12:28:20Z</time>
      </trkpt>
      <trkpt lat="43.91845" lon="6.27909">
        <ele>1178.059</ele>
        <time>2019-06-21T12:28:21Z</time>
      </trkpt>
      <trkpt lat="43.91841" lon="6.27905">
        <ele>1178.019</ele>
        <time>2019-06-21T12:28:22Z</time>
      </trkpt>
      <trkpt lat="43.91836" lon="6.27895">
        <ele>1178.009</ele>
        <time>2019-06-21T12:28:24Z</time>
      </trkpt>
      <trkpt lat="43.91835" lon="6.27887">
        <ele>1178.019</ele>
        <time>2019-06-21T12:28:25Z</time>
      </trkpt>
      <trkpt lat="43.91834" lon="6.27879">
        <ele>1178.008</ele>
        <time>2019-06-21T12:28:26Z</time>
      </trkpt>
      <trkpt lat="43.91835" lon="6.27872">
        <ele>1178.064</ele>
        <time>2019-06-21T12:28:27Z</time>
      </trkpt>
      <trkpt lat="43.91836" lon="6.27863">
        <ele>1180.828</ele>
        <time>2019-06-21T12:28:28Z</time>
      </trkpt>
      <trkpt lat="43.91839" lon="6.27855">
        <ele>1180.849</ele>
        <time>2019-06-21T12:28:29Z</time>
      </trkpt>
      <trkpt lat="43.91843" lon="6.27849">
        <ele>1180.826</ele>
        <time>2019-06-21T12:28:30Z</time>
      </trkpt>
      <trkpt lat="43.91846" lon="6.27842">
        <ele>1180.882</ele>
        <time>2019-06-21T12:28:31Z</time>
      </trkpt>
      <trkpt lat="43.91851" lon="6.27837">
        <ele>1180.817</ele>
        <time>2019-06-21T12:28:32Z</time>
      </trkpt>
      <trkpt lat="43.91855" lon="6.2783">
        <ele>1180.828</ele>
        <time>2019-06-21T12:28:33Z</time>
      </trkpt>
      <trkpt lat="43.91859" lon="6.27824">
        <ele>1180.882</ele>
        <time>2019-06-21T12:28:34Z</time>
      </trkpt>
      <trkpt lat="43.91864" lon="6.27817">
        <ele>1180.897</ele>
        <time>2019-06-21T12:28:35Z</time>
      </trkpt>
      <trkpt lat="43.91868" lon="6.2781">
        <ele>1180.823</ele>
        <time>2019-06-21T12:28:36Z</time>
      </trkpt>
      <trkpt lat="43.91873" lon="6.27804">
        <ele>1184.725</ele>
        <time>2019-06-21T12:28:37Z</time>
      </trkpt>
      <trkpt lat="43.91878" lon="6.27799">
        <ele>1184.708</ele>
        <time>2019-06-21T12:28:38Z</time>
      </trkpt>
      <trkpt lat="43.91884" lon="6.27796">
        <ele>1184.742</ele>
        <time>2019-06-21T12:28:39Z</time>
      </trkpt>
      <trkpt lat="43.9189" lon="6.27795">
        <ele>1184.786</ele>
        <time>2019-06-21T12:28:40Z</time>
      </trkpt>
      <trkpt lat="43.91895" lon="6.27795">
        <ele>1184.767</ele>
        <time>2019-06-21T12:28:41Z</time>
      </trkpt>
      <trkpt lat="43.919" lon="6.27798">
        <ele>1184.774</ele>
        <time>2019-06-21T12:28:42Z</time>
      </trkpt>
      <trkpt lat="43.91905" lon="6.27802">
        <ele>1184.72</ele>
        <time>2019-06-21T12:28:43Z</time>
      </trkpt>
      <trkpt lat="43.91909" lon="6.27807">
        <ele>1184.725</ele>
        <time>2019-06-21T12:28:44Z</time>
      </trkpt>
      <trkpt lat="43.91913" lon="6.27814">
        <ele>1184.786</ele>
        <time>2019-06-21T12:28:45Z</time>
      </trkpt>
      <trkpt lat="43.91918" lon="6.2782">
        <ele>1184.76</ele>
        <time>2019-06-21T12:28:46Z</time>
      </trkpt>
      <trkpt lat="43.91922" lon="6.27828">
        <ele>1188.396</ele>
        <time>2019-06-21T12:28:47Z</time>
      </trkpt>
      <trkpt lat="43.91926" lon="6.27834">
        <ele>1188.331</ele>
        <time>2019-06-21T12:28:48Z</time>
      </trkpt>
      <trkpt lat="43.9193" lon="6.2784">
        <ele>1188.324</ele>
        <time>2019-06-21T12:28:49Z</time>
      </trkpt>
      <trkpt lat="43.91937" lon="6.27843">
        <ele>1188.308</ele>
        <time>2019-06-21T12:28:50Z</time>
      </trkpt>
      <trkpt lat="43.91943" lon="6.27846">
        <ele>1188.312</ele>
        <time>2019-06-21T12:28:51Z</time>
      </trkpt>
      <trkpt lat="43.91949" lon="6.27848">
        <ele>1188.386</ele>
        <time>2019-06-21T12:28:52Z</time>
      </trkpt>
      <trkpt lat="43.91956" lon="6.27848">
        <ele>1188.367</ele>
        <time>2019-06-21T12:28:53Z</time>
      </trkpt>
      <trkpt lat="43.91962" lon="6.27846">
        <ele>1188.324</ele>
        <time>2019-06-21T12:28:54Z</time>
      </trkpt>
      <trkpt lat="43.91968" lon="6.27842">
        <ele>1188.36</ele>
        <time>2019-06-21T12:28:55Z</time>
      </trkpt>
      <trkpt lat="43.91974" lon="6.27839">
        <ele>1188.375</ele>
        <time>2019-06-21T12:28:56Z</time>
      </trkpt>
      <trkpt lat="43.9198" lon="6.27836">
        <ele>1192.916</ele>
        <time>2019-06-21T12:28:57Z</time>
      </trkpt>
      <trkpt lat="43.91985" lon="6.27834">
        <ele>1192.93</ele>
        <time>2019-06-21T12:28:58Z</time>
      </trkpt>
      <trkpt lat="43.91991" lon="6.27835">
        <ele>1192.971</ele>
        <time>2019-06-21T12:28:59Z</time>
      </trkpt>
      <trkpt lat="43.91996" lon="6.27838">
        <ele>1192.941</ele>
        <time>2019-06-21T12:29:00Z</time>
      </trkpt>
      <trkpt lat="43.92002" lon="6.27842">
        <ele>1192.915</ele>
        <time>2019-06-21T12:29:01Z</time>
      </trkpt>
      <trkpt lat="43.92008" lon="6.27845">
        <ele>1192.908</ele>
        <time>2019-06-21T12:29:02Z</time>
      </trkpt>
      <trkpt lat="43.92014" lon="6.27847">
        <ele>1192.99</ele>
        <time>2019-06-21T12:29:03Z</time>
      </trkpt>
      <trkpt lat="43.9202" lon="6.27849">
        <ele>1192.954</ele>
        <time>2019-06-21T12:29:04Z</time>
      </trkpt>
      <trkpt lat="43.92027" lon="6.27849">
        <ele>1196.155</ele>
        <time>2019-06-21T12:29:05Z</time>
      </trkpt>
      <trkpt lat="43.92034" lon="6.27849">
        <ele>1196.172</ele>
        <time>2019-06-21T12:29:06Z</time>
      </trkpt>
      <trkpt lat="43.92041" lon="6.27845">
        <ele>1196.148</ele>
        <time>2019-06-21T12:29:07Z</time>
      </trkpt>
      <trkpt lat="43.92046" lon="6.27845">
        <ele>1196.113</ele>
        <time>2019-06-21T12:29:08Z</time>
      </trkpt>
      <trkpt lat="43.92052" lon="6.27843">
        <ele>1196.154</ele>
        <time>2019-06-21T12:29:09Z</time>
      </trkpt>
      <trkpt lat="43.92057" lon="6.27837">
        <ele>1196.138</ele>
        <time>2019-06-21T12:29:10Z</time>
      </trkpt>
      <trkpt lat="43.92064" lon="6.27834">
        <ele>1196.118</ele>
        <time>2019-06-21T12:29:11Z</time>
      </trkpt>
      <trkpt lat="43.9207" lon="6.2783">
        <ele>1196.198</ele>
        <time>2019-06-21T12:29:12Z</time>
      </trkpt>
      <trkpt lat="43.92077" lon="6.27825">
        <ele>1199.817</ele>
        <time>2019-06-21T12:29:13Z</time>
      </trkpt>
      <trkpt lat="43.92082" lon="6.2782">
        <ele>1199.808</ele>
        <time>2019-06-21T12:29:14Z</time>
      </trkpt>
      <trkpt lat="43.92086" lon="6.27815">
        <ele>1199.834</ele>
        <time>2019-06-21T12:29:15Z</time>
      </trkpt>
      <trkpt lat="43.92093" lon="6.27806">
        <ele>1199.838</ele>
        <time>2019-06-21T12:29:17Z</time>
      </trkpt>
      <trkpt lat="43.92097" lon="6.27802">
        <ele>1199.899</ele>
        <time>2019-06-21T12:29:18Z</time>
      </trkpt>
      <trkpt lat="43.92102" lon="6.27804">
        <ele>1199.856</ele>
        <time>2019-06-21T12:29:20Z</time>
      </trkpt>
      <trkpt lat="43.92104" lon="6.27811">
        <ele>1199.872</ele>
        <time>2019-06-21T12:29:21Z</time>
      </trkpt>
      <trkpt lat="43.92101" lon="6.27822">
        <ele>1199.837</ele>
        <time>2019-06-21T12:29:23Z</time>
      </trkpt>
      <trkpt lat="43.92098" lon="6.27828">
        <ele>1204.268</ele>
        <time>2019-06-21T12:29:24Z</time>
      </trkpt>
      <trkpt lat="43.92095" lon="6.27833">
        <ele>1204.282</ele>
        <time>2019-06-21T12:29:25Z</time>
      </trkpt>
      <trkpt lat="43.92092" lon="6.2784">
        <ele>1204.287</ele>
        <time>2019-06-21T12:29:26Z</time>
      </trkpt>
      <trkpt lat="43.92089" lon="6.27847">
        <ele>1204.242</ele>
        <time>2019-06-21T12:29:27Z</time>
      </trkpt>
      <trkpt lat="43.92085" lon="6.27853">
        <ele>1204.226</ele>
        <time>2019-06-21T12:29:28Z</time>
      </trkpt>
      <trkpt lat="43.92082" lon="6.2786">
        <ele>1204.208</ele>
        <time>2019-06-21T12:29:29Z</time>
      </trkpt>
      <trkpt lat="43.9208" lon="6.27866">
        <ele>1204.211</ele>
        <time>2019-06-21T12:29:30Z</time>
      </trkpt>
      <trkpt lat="43.92076" lon="6.27876">
        <ele>1207.075</ele>
        <time>2019-06-21T12:29:32Z</time>
      </trkpt>
      <trkpt lat="43.92073" lon="6.27881">
        <ele>1207.016</ele>
        <time>2019-06-21T12:29:33Z</time>
      </trkpt>
      <trkpt lat="43.92069" lon="6.27887">
        <ele>1207.073</ele>
        <time>2019-06-21T12:29:34Z</time>
      </trkpt>
      <trkpt lat="43.92062" lon="6.27891">
        <ele>1207.099</ele>
        <time>2019-06-21T12:29:35Z</time>
      </trkpt>
      <trkpt lat="43.92056" lon="6.27893">
        <ele>1207.084</ele>
        <time>2019-06-21T12:29:36Z</time>
      </trkpt>
      <trkpt lat="43.92049" lon="6.27893">
        <ele>1207.045</ele>
        <time>2019-06-21T12:29:37Z</time>
      </trkpt>
      <trkpt lat="43.92042" lon="6.27893">
        <ele>1207.039</ele>
        <time>2019-06-21T12:29:38Z</time>
      </trkpt>
      <trkpt lat="43.92036" lon="6.27895">
        <ele>1207.064</ele>
        <time>2019-06-21T12:29:39Z</time>
      </trkpt>
      <trkpt lat="43.92029" lon="6.27896">
        <ele>1207.006</ele>
        <time>2019-06-21T12:29:40Z</time>
      </trkpt>
      <trkpt lat="43.92023" lon="6.27898">
        <ele>1211.216</ele>
        <time>2019-06-21T12:29:41Z</time>
      </trkpt>
      <trkpt lat="43.92018" lon="6.27899">
        <ele>1211.208</ele>
        <time>2019-06-21T12:29:42Z</time>
      </trkpt>
      <trkpt lat="43.92012" lon="6.27901">
        <ele>1211.279</ele>
        <time>2019-06-21T12:29:43Z</time>
      </trkpt>
      <trkpt lat="43.92011" lon="6.2791">
        <ele>1211.213</ele>
        <time>2019-06-21T12:29:44Z</time>
      </trkpt>
      <trkpt lat="43.9201" lon="6.2792">
        <ele>1211.234</ele>
        <time>2019-06-21T12:29:45Z</time>
      </trkpt>
      <trkpt lat="43.92008" lon="6.27929">
        <ele>1211.281</ele>
        <time>2019-06-21T12:29:46Z</time>
      </trkpt>
      <trkpt lat="43.92007" lon="6.27938">
        <ele>1211.247</ele>
        <time>2019-06-21T12:29:47Z</time>
      </trkpt>
      <trkpt lat="43.92006" lon="6.27948">
        <ele>1211.222</ele>
        <time>2019-06-21T12:29:48Z</time>
      </trkpt>
      <trkpt lat="43.92004" lon="6.27958">
        <ele>1211.233</ele>
        <time>2019-06-21T12:29:49Z</time>
      </trkpt>
      <trkpt lat="43.92004" lon="6.27967">
        <ele>1211.287</ele>
        <time>2019-06-21T12:29:50Z</time>
      </trkpt>
      <trkpt lat="43.92004" lon="6.27976">
        <ele>1216.149</ele>
        <time>2019-06-21T12:29:51Z</time>
      </trkpt>
      <trkpt lat="43.92003" lon="6.27985">
        <ele>1216.102</ele>
        <time>2019-06-21T12:29:52Z</time>
      </trkpt>
      <trkpt lat="43.92003" lon="6.27994">
        <ele>1216.122</ele>
        <time>2019-06-21T12:29:53Z</time>
      </trkpt>
      <trkpt lat="43.92003" lon="6.28004">
        <ele>1216.108</ele>
        <time>2019-06-21T12:29:54Z</time>
      </trkpt>
      <trkpt lat="43.92003" lon="6.28014">
        <ele>1216.197</ele>
        <time>2019-06-21T12:29:55Z</time>
      </trkpt>
      <trkpt lat="43.92001" lon="6.28025">
        <ele>1216.161</ele>
        <time>2019-06-21T12:29:56Z</time>
      </trkpt>
      <trkpt lat="43.91998" lon="6.28035">
        <ele>1216.162</ele>
        <time>2019-06-21T12:29:57Z</time>
      </trkpt>
      <trkpt lat="43.91996" lon="6.28045">
        <ele>1216.119</ele>
        <time>2019-06-21T12:29:57Z</time>
      </trkpt>
      <trkpt lat="43.91995" lon="6.28056">
        <ele>1220.625</ele>
        <time>2019-06-21T12:29:58Z</time>
      </trkpt>
      <trkpt lat="43.91993" lon="6.28067">
        <ele>1220.64</ele>
        <time>2019-06-21T12:29:59Z</time>
      </trkpt>
      <trkpt lat="43.91991" lon="6.28076">
        <ele>1220.611</ele>
        <time>2019-06-21T12:30:00Z</time>
      </trkpt>
      <trkpt lat="43.91988" lon="6.28087">
        <ele>1220.625</ele>
        <time>2019-06-21T12:30:01Z</time>
      </trkpt>
      <trkpt lat="43.91985" lon="6.28097">
        <ele>1220.687</ele>
        <time>2019-06-21T12:30:02Z</time>
      </trkpt>
      <trkpt lat="43.91982" lon="6.28107">
        <ele>1220.642</ele>
        <time>2019-06-21T12:30:03Z</time>
      </trkpt>
      <trkpt lat="43.91978" lon="6.28116">
        <ele>1220.626</ele>
        <time>2019-06-21T12:30:04Z</time>
      </trkpt>
      <trkpt lat="43.91976" lon="6.28126">
        <ele>1220.608</ele>
        <time>2019-06-21T12:30:05Z</time>
      </trkpt>
      <trkpt lat="43.91975" lon="6.28136">
        <ele>1225.331</ele>
        <time>2019-06-21T12:30:06Z</time>
      </trkpt>
      <trkpt lat="43.91973" lon="6.28145">
        <ele>1225.335</ele>
        <time>2019-06-21T12:30:07Z</time>
      </trkpt>
      <trkpt lat="43.9197" lon="6.28154">
        <ele>1225.326</ele>
        <time>2019-06-21T12:30:08Z</time>
      </trkpt>
      <trkpt lat="43.91967" lon="6.28163">
        <ele>1225.393</ele>
        <time>2019-06-21T12:30:09Z</time>
      </trkpt>
      <trkpt lat="43.91963" lon="6.28171">
        <ele>1225.379</ele>
        <time>2019-06-21T12:30:10Z</time>
      </trkpt>
      <trkpt lat="43.91959" lon="6.28179">
        <ele>1225.344</ele>
        <time>2019-06-21T12:30:11Z</time>
      </trkpt>
      <trkpt lat="43.91956" lon="6.28187">
        <ele>1228.095</ele>
        <time>2019-06-21T12:30:12Z</time>
      </trkpt>
      <trkpt lat="43.91953" lon="6.28196">
        <ele>1228.069</ele>
        <time>2019-06-21T12:30:13Z</time>
      </trkpt>
      <trkpt lat="43.91951" lon="6.28206">
        <ele>1228.049</ele>
        <time>2019-06-21T12:30:14Z</time>
      </trkpt>
      <trkpt lat="43.9195" lon="6.28217">
        <ele>1228.002</ele>
        <time>2019-06-21T12:30:15Z</time>
      </trkpt>
      <trkpt lat="43.91947" lon="6.28226">
        <ele>1228.022</ele>
        <time>2019-06-21T12:30:16Z</time>
      </trkpt>
      <trkpt lat="43.91944" lon="6.28236">
        <ele>1228.008</ele>
        <time>2019-06-21T12:30:17Z</time>
      </trkpt>
      <trkpt lat="43.9194" lon="6.28245">
        <ele>1228.077</ele>
        <time>2019-06-21T12:30:18Z</time>
      </trkpt>
      <trkpt lat="43.91936" lon="6.28256">
        <ele>1229.741</ele>
        <time>2019-06-21T12:30:19Z</time>
      </trkpt>
      <trkpt lat="43.91932" lon="6.28266">
        <ele>1229.762</ele>
        <time>2019-06-21T12:30:20Z</time>
      </trkpt>
      <trkpt lat="43.91928" lon="6.28273">
        <ele>1229.749</ele>
        <time>2019-06-21T12:30:21Z</time>
      </trkpt>
      <trkpt lat="43.91923" lon="6.28282">
        <ele>1229.735</ele>
        <time>2019-06-21T12:30:22Z</time>
      </trkpt>
      <trkpt lat="43.91918" lon="6.2829">
        <ele>1229.76</ele>
        <time>2019-06-21T12:30:23Z</time>
      </trkpt>
      <trkpt lat="43.91913" lon="6.28294">
        <ele>1229.761</ele>
        <time>2019-06-21T12:30:24Z</time>
      </trkpt>
      <trkpt lat="43.91907" lon="6.28302">
        <ele>1229.785</ele>
        <time>2019-06-21T12:30:25Z</time>
      </trkpt>
      <trkpt lat="43.91902" lon="6.28308">
        <ele>1229.745</ele>
        <time>2019-06-21T12:30:26Z</time>
      </trkpt>
      <trkpt lat="43.91898" lon="6.28314">
        <ele>1231.747</ele>
        <time>2019-06-21T12:30:27Z</time>
      </trkpt>
      <trkpt lat="43.91895" lon="6.2832">
        <ele>1231.711</ele>
        <time>2019-06-21T12:30:28Z</time>
      </trkpt>
      <trkpt lat="43.91891" lon="6.28329">
        <ele>1231.708</ele>
        <time>2019-06-21T12:30:29Z</time>
      </trkpt>
      <trkpt lat="43.91888" lon="6.28339">
        <ele>1231.777</ele>
        <time>2019-06-21T12:30:30Z</time>
      </trkpt>
      <trkpt lat="43.91885" lon="6.28349">
        <ele>1231.781</ele>
        <time>2019-06-21T12:30:31Z</time>
      </trkpt>
      <trkpt lat="43.91882" lon="6.28358">
        <ele>1231.722</ele>
        <time>2019-06-21T12:30:32Z</time>
      </trkpt>
      <trkpt lat="43.9188" lon="6.28368">
        <ele>1231.769</ele>
        <time>2019-06-21T12:30:33Z</time>
      </trkpt>
      <trkpt lat="43.91877" lon="6.28378">
        <ele>1233.715</ele>
        <time>2019-06-21T12:30:34Z</time>
      </trkpt>
      <trkpt lat="43.91871" lon="6.28386">
        <ele>1233.76</ele>
        <time>2019-06-21T12:30:35Z</time>
      </trkpt>
      <trkpt lat="43.91866" lon="6.28394">
        <ele>1233.781</ele>
        <time>2019-06-21T12:30:36Z</time>
      </trkpt>
      <trkpt lat="43.91859" lon="6.28401">
        <ele>1233.765</ele>
        <time>2019-06-21T12:30:37Z</time>
      </trkpt>
      <trkpt lat="43.91854" lon="6.28408">
        <ele>1233.725</ele>
        <time>2019-06-21T12:30:38Z</time>
      </trkpt>
      <trkpt lat="43.91848" lon="6.28414">
        <ele>1233.726</ele>
        <time>2019-06-21T12:30:39Z</time>
      </trkpt>
      <trkpt lat="43.9184" lon="6.28421">
        <ele>1233.708</ele>
        <time>2019-06-21T12:30:40Z</time>
      </trkpt>
      <trkpt lat="43.91835" lon="6.28431">
        <ele>1235.008</ele>
        <time>2019-06-21T12:30:41Z</time>
      </trkpt>
      <trkpt lat="43.91829" lon="6.28439">
        <ele>1235.015</ele>
        <time>2019-06-21T12:30:42Z</time>
      </trkpt>
      <trkpt lat="43.91823" lon="6.28445">
        <ele>1235.099</ele>
        <time>2019-06-21T12:30:43Z</time>
      </trkpt>
      <trkpt lat="43.91818" lon="6.28451">
        <ele>1235.09</ele>
        <time>2019-06-21T12:30:44Z</time>
      </trkpt>
      <trkpt lat="43.91813" lon="6.28459">
        <ele>1235.067</ele>
        <time>2019-06-21T12:30:45Z</time>
      </trkpt>
      <trkpt lat="43.91812" lon="6.2847">
        <ele>1235.033</ele>
        <time>2019-06-21T12:30:46Z</time>
      </trkpt>
      <trkpt lat="43.91811" lon="6.2848">
        <ele>1235.098</ele>
        <time>2019-06-21T12:30:47Z</time>
      </trkpt>
      <trkpt lat="43.91809" lon="6.2849">
        <ele>1235.049</ele>
        <time>2019-06-21T12:30:48Z</time>
      </trkpt>
      <trkpt lat="43.91807" lon="6.28499">
        <ele>1235.013</ele>
        <time>2019-06-21T12:30:49Z</time>
      </trkpt>
      <trkpt lat="43.91807" lon="6.2851">
        <ele>1235.976</ele>
        <time>2019-06-21T12:30:50Z</time>
      </trkpt>
      <trkpt lat="43.91807" lon="6.28519">
        <ele>1235.99</ele>
        <time>2019-06-21T12:30:51Z</time>
      </trkpt>
      <trkpt lat="43.91808" lon="6.28528">
        <ele>1235.919</ele>
        <time>2019-06-21T12:30:52Z</time>
      </trkpt>
      <trkpt lat="43.91811" lon="6.28536">
        <ele>1235.908</ele>
        <time>2019-06-21T12:30:53Z</time>
      </trkpt>
      <trkpt lat="43.91813" lon="6.28544">
        <ele>1235.97</ele>
        <time>2019-06-21T12:30:54Z</time>
      </trkpt>
      <trkpt lat="43.91815" lon="6.28553">
        <ele>1235.954</ele>
        <time>2019-06-21T12:30:55Z</time>
      </trkpt>
      <trkpt lat="43.91815" lon="6.28562">
        <ele>1235.995</ele>
        <time>2019-06-21T12:30:56Z</time>
      </trkpt>
      <trkpt lat="43.91814" lon="6.28572">
        <ele>1235.922</ele>
        <time>2019-06-21T12:30:57Z</time>
      </trkpt>
      <trkpt lat="43.91813" lon="6.28581">
        <ele>1235.948</ele>
        <time>2019-06-21T12:30:58Z</time>
      </trkpt>
      <trkpt lat="43.91811" lon="6.28589">
        <ele>1235.743</ele>
        <time>2019-06-21T12:30:59Z</time>
      </trkpt>
      <trkpt lat="43.91809" lon="6.28597">
        <ele>1235.754</ele>
        <time>2019-06-21T12:31:00Z</time>
      </trkpt>
      <trkpt lat="43.91806" lon="6.28606">
        <ele>1235.728</ele>
        <time>2019-06-21T12:31:01Z</time>
      </trkpt>
      <trkpt lat="43.91803" lon="6.28615">
        <ele>1235.714</ele>
        <time>2019-06-21T12:31:02Z</time>
      </trkpt>
      <trkpt lat="43.91799" lon="6.28623">
        <ele>1235.754</ele>
        <time>2019-06-21T12:31:03Z</time>
      </trkpt>
      <trkpt lat="43.91795" lon="6.28632">
        <ele>1235.709</ele>
        <time>2019-06-21T12:31:04Z</time>
      </trkpt>
      <trkpt lat="43.91792" lon="6.28639">
        <ele>1235.708</ele>
        <time>2019-06-21T12:31:05Z</time>
      </trkpt>
      <trkpt lat="43.9179" lon="6.28647">
        <ele>1235.614</ele>
        <time>2019-06-21T12:31:06Z</time>
      </trkpt>
      <trkpt lat="43.91788" lon="6.28656">
        <ele>1235.688</ele>
        <time>2019-06-21T12:31:07Z</time>
      </trkpt>
      <trkpt lat="43.91787" lon="6.28666">
        <ele>1235.619</ele>
        <time>2019-06-21T12:31:08Z</time>
      </trkpt>
      <trkpt lat="43.91785" lon="6.28676">
        <ele>1235.666</ele>
        <time>2019-06-21T12:31:09Z</time>
      </trkpt>
      <trkpt lat="43.91783" lon="6.28686">
        <ele>1235.622</ele>
        <time>2019-06-21T12:31:10Z</time>
      </trkpt>
      <trkpt lat="43.9178" lon="6.28695">
        <ele>1235.647</ele>
        <time>2019-06-21T12:31:11Z</time>
      </trkpt>
      <trkpt lat="43.91776" lon="6.28703">
        <ele>1235.658</ele>
        <time>2019-06-21T12:31:12Z</time>
      </trkpt>
      <trkpt lat="43.91771" lon="6.28711">
        <ele>1234.422</ele>
        <time>2019-06-21T12:31:13Z</time>
      </trkpt>
      <trkpt lat="43.91768" lon="6.2872">
        <ele>1234.466</ele>
        <time>2019-06-21T12:31:14Z</time>
      </trkpt>
      <trkpt lat="43.91765" lon="6.28728">
        <ele>1234.429</ele>
        <time>2019-06-21T12:31:15Z</time>
      </trkpt>
      <trkpt lat="43.91764" lon="6.28738">
        <ele>1234.421</ele>
        <time>2019-06-21T12:31:16Z</time>
      </trkpt>
      <trkpt lat="43.91761" lon="6.28748">
        <ele>1234.408</ele>
        <time>2019-06-21T12:31:17Z</time>
      </trkpt>
      <trkpt lat="43.91759" lon="6.28758">
        <ele>1234.449</ele>
        <time>2019-06-21T12:31:18Z</time>
      </trkpt>
      <trkpt lat="43.91757" lon="6.28767">
        <ele>1234.453</ele>
        <time>2019-06-21T12:31:19Z</time>
      </trkpt>
      <trkpt lat="43.91756" lon="6.28777">
        <ele>1232.674</ele>
        <time>2019-06-21T12:31:20Z</time>
      </trkpt>
      <trkpt lat="43.91755" lon="6.28786">
        <ele>1232.681</ele>
        <time>2019-06-21T12:31:21Z</time>
      </trkpt>
      <trkpt lat="43.91754" lon="6.28796">
        <ele>1232.627</ele>
        <time>2019-06-21T12:31:22Z</time>
      </trkpt>
      <trkpt lat="43.9175" lon="6.28806">
        <ele>1232.622</ele>
        <time>2019-06-21T12:31:23Z</time>
      </trkpt>
      <trkpt lat="43.91747" lon="6.28815">
        <ele>1232.663</ele>
        <time>2019-06-21T12:31:24Z</time>
      </trkpt>
      <trkpt lat="43.91744" lon="6.28825">
        <ele>1232.627</ele>
        <time>2019-06-21T12:31:25Z</time>
      </trkpt>
      <trkpt lat="43.91741" lon="6.28834">
        <ele>1232.686</ele>
        <time>2019-06-21T12:31:26Z</time>
      </trkpt>
      <trkpt lat="43.91739" lon="6.28842">
        <ele>1232.66</ele>
        <time>2019-06-21T12:31:27Z</time>
      </trkpt>
      <trkpt lat="43.91737" lon="6.28852">
        <ele>1230.126</ele>
        <time>2019-06-21T12:31:28Z</time>
      </trkpt>
      <trkpt lat="43.91736" lon="6.28864">
        <ele>1230.108</ele>
        <time>2019-06-21T12:31:29Z</time>
      </trkpt>
      <trkpt lat="43.91734" lon="6.28876">
        <ele>1230.181</ele>
        <time>2019-06-21T12:31:30Z</time>
      </trkpt>
      <trkpt lat="43.91733" lon="6.28887">
        <ele>1230.175</ele>
        <time>2019-06-21T12:31:31Z</time>
      </trkpt>
      <trkpt lat="43.91732" lon="6.28899">
        <ele>1230.166</ele>
        <time>2019-06-21T12:31:32Z</time>
      </trkpt>
      <trkpt lat="43.9173" lon="6.28908">
        <ele>1230.123</ele>
        <time>2019-06-21T12:31:33Z</time>
      </trkpt>
      <trkpt lat="43.91729" lon="6.28919">
        <ele>1230.179</ele>
        <time>2019-06-21T12:31:34Z</time>
      </trkpt>
      <trkpt lat="43.91727" lon="6.2893">
        <ele>1230.194</ele>
        <time>2019-06-21T12:31:35Z</time>
      </trkpt>
      <trkpt lat="43.91725" lon="6.2894">
        <ele>1228.435</ele>
        <time>2019-06-21T12:31:36Z</time>
      </trkpt>
      <trkpt lat="43.91723" lon="6.2895">
        <ele>1228.469</ele>
        <time>2019-06-21T12:31:37Z</time>
      </trkpt>
      <trkpt lat="43.9172" lon="6.28962">
        <ele>1228.462</ele>
        <time>2019-06-21T12:31:38Z</time>
      </trkpt>
      <trkpt lat="43.91716" lon="6.28971">
        <ele>1228.483</ele>
        <time>2019-06-21T12:31:39Z</time>
      </trkpt>
      <trkpt lat="43.9171" lon="6.2898">
        <ele>1228.411</ele>
        <time>2019-06-21T12:31:40Z</time>
      </trkpt>
      <trkpt lat="43.91704" lon="6.28988">
        <ele>1228.408</ele>
        <time>2019-06-21T12:31:41Z</time>
      </trkpt>
      <trkpt lat="43.91699" lon="6.28996">
        <ele>1228.499</ele>
        <time>2019-06-21T12:31:42Z</time>
      </trkpt>
      <trkpt lat="43.91696" lon="6.29006">
        <ele>1228.473</ele>
        <time>2019-06-21T12:31:43Z</time>
      </trkpt>
      <trkpt lat="43.91692" lon="6.29016">
        <ele>1225.654</ele>
        <time>2019-06-21T12:31:44Z</time>
      </trkpt>
      <trkpt lat="43.91689" lon="6.29024">
        <ele>1225.681</ele>
        <time>2019-06-21T12:31:45Z</time>
      </trkpt>
      <trkpt lat="43.91686" lon="6.29033">
        <ele>1225.647</ele>
        <time>2019-06-21T12:31:46Z</time>
      </trkpt>
      <trkpt lat="43.91683" lon="6.29042">
        <ele>1225.682</ele>
        <time>2019-06-21T12:31:47Z</time>
      </trkpt>
      <trkpt lat="43.91681" lon="6.29052">
        <ele>1225.653</ele>
        <time>2019-06-21T12:31:48Z</time>
      </trkpt>
      <trkpt lat="43.91697" lon="6.29052">
        <ele>1229.737</ele>
        <time>2021-05-09T16:09:44Z</time>
      </trkpt>
      <trkpt lat="43.917" lon="6.29056">
        <ele>1229.861</ele>
        <time>2021-05-09T16:09:43Z</time>
      </trkpt>
      <trkpt lat="43.91707" lon="6.2906">
        <ele>1229.549</ele>
        <time>2021-05-09T16:09:41Z</time>
      </trkpt>
      <trkpt lat="43.91715" lon="6.29064">
        <ele>1228.937</ele>
        <time>2021-05-09T16:09:39Z</time>
      </trkpt>
      <trkpt lat="43.91722" lon="6.29068">
        <ele>1228.114</ele>
        <time>2021-05-09T16:09:37Z</time>
      </trkpt>
      <trkpt lat="43.9173" lon="6.29079">
        <ele>1227.099</ele>
        <time>2021-05-09T16:09:35Z</time>
      </trkpt>
      <trkpt lat="43.91734" lon="6.29084">
        <ele>1226.162</ele>
        <time>2021-05-09T16:09:34Z</time>
      </trkpt>
      <trkpt lat="43.91743" lon="6.2909">
        <ele>1224.548</ele>
        <time>2021-05-09T16:09:32Z</time>
      </trkpt>
      <trkpt lat="43.91752" lon="6.29096">
        <ele>1222.713</ele>
        <time>2021-05-09T16:09:30Z</time>
      </trkpt>
      <trkpt lat="43.91765" lon="6.29101">
        <ele>1221.308</ele>
        <time>2021-05-09T16:09:28Z</time>
      </trkpt>
      <trkpt lat="43.91779" lon="6.29106">
        <ele>1218.816</ele>
        <time>2021-05-09T16:09:26Z</time>
      </trkpt>
      <trkpt lat="43.91787" lon="6.29108">
        <ele>1218.006</ele>
        <time>2021-05-09T16:09:25Z</time>
      </trkpt>
      <trkpt lat="43.91794" lon="6.29108">
        <ele>1217.664</ele>
        <time>2021-05-09T16:09:24Z</time>
      </trkpt>
      <trkpt lat="43.91801" lon="6.29108">
        <ele>1217.517</ele>
        <time>2021-05-09T16:09:23Z</time>
      </trkpt>
      <trkpt lat="43.91807" lon="6.29106">
        <ele>1217.725</ele>
        <time>2021-05-09T16:09:22Z</time>
      </trkpt>
      <trkpt lat="43.91813" lon="6.29104">
        <ele>1217.713</ele>
        <time>2021-05-09T16:09:21Z</time>
      </trkpt>
      <trkpt lat="43.91824" lon="6.29098">
        <ele>1218.55</ele>
        <time>2021-05-09T16:09:19Z</time>
      </trkpt>
      <trkpt lat="43.9183" lon="6.29096">
        <ele>1218.615</ele>
        <time>2021-05-09T16:09:18Z</time>
      </trkpt>
      <trkpt lat="43.91836" lon="6.29095">
        <ele>1217.878</ele>
        <time>2021-05-09T16:09:17Z</time>
      </trkpt>
      <trkpt lat="43.91842" lon="6.29094">
        <ele>1216.294</ele>
        <time>2021-05-09T16:09:16Z</time>
      </trkpt>
      <trkpt lat="43.91853" lon="6.29092">
        <ele>1213.359</ele>
        <time>2021-05-09T16:09:14Z</time>
      </trkpt>
      <trkpt lat="43.91864" lon="6.29086">
        <ele>1212.308</ele>
        <time>2021-05-09T16:09:12Z</time>
      </trkpt>
      <trkpt lat="43.9187" lon="6.29083">
        <ele>1212.417</ele>
        <time>2021-05-09T16:09:11Z</time>
      </trkpt>
      <trkpt lat="43.91881" lon="6.29076">
        <ele>1212.389</ele>
        <time>2021-05-09T16:09:09Z</time>
      </trkpt>
      <trkpt lat="43.91887" lon="6.29071">
        <ele>1212.028</ele>
        <time>2021-05-09T16:09:08Z</time>
      </trkpt>
      <trkpt lat="43.91893" lon="6.29067">
        <ele>1211.62</ele>
        <time>2021-05-09T16:09:07Z</time>
      </trkpt>
      <trkpt lat="43.91903" lon="6.29057">
        <ele>1212.018</ele>
        <time>2021-05-09T16:09:05Z</time>
      </trkpt>
      <trkpt lat="43.91909" lon="6.29051">
        <ele>1212.176</ele>
        <time>2021-05-09T16:09:04Z</time>
      </trkpt>
      <trkpt lat="43.91921" lon="6.29038">
        <ele>1211.583</ele>
        <time>2021-05-09T16:09:02Z</time>
      </trkpt>
      <trkpt lat="43.91927" lon="6.29032">
        <ele>1211.468</ele>
        <time>2021-05-09T16:09:01Z</time>
      </trkpt>
      <trkpt lat="43.91939" lon="6.29019">
        <ele>1211.031</ele>
        <time>2021-05-09T16:08:59Z</time>
      </trkpt>
      <trkpt lat="43.91946" lon="6.29012">
        <ele>1210.377</ele>
        <time>2021-05-09T16:08:58Z</time>
      </trkpt>
      <trkpt lat="43.91958" lon="6.29">
        <ele>1208.222</ele>
        <time>2021-05-09T16:08:56Z</time>
      </trkpt>
      <trkpt lat="43.91964" lon="6.28994">
        <ele>1207.008</ele>
        <time>2021-05-09T16:08:55Z</time>
      </trkpt>
      <trkpt lat="43.91978" lon="6.28986">
        <ele>1204.314</ele>
        <time>2021-05-09T16:08:53Z</time>
      </trkpt>
      <trkpt lat="43.91991" lon="6.28983">
        <ele>1201.959</ele>
        <time>2021-05-09T16:08:51Z</time>
      </trkpt>
      <trkpt lat="43.91996" lon="6.28981">
        <ele>1200.956</ele>
        <time>2021-05-09T16:08:50Z</time>
      </trkpt>
      <trkpt lat="43.92007" lon="6.28977">
        <ele>1200.158</ele>
        <time>2021-05-09T16:08:48Z</time>
      </trkpt>
      <trkpt lat="43.92019" lon="6.28974">
        <ele>1199.526</ele>
        <time>2021-05-09T16:08:46Z</time>
      </trkpt>
      <trkpt lat="43.9203" lon="6.28972">
        <ele>1198.874</ele>
        <time>2021-05-09T16:08:44Z</time>
      </trkpt>
      <trkpt lat="43.92042" lon="6.28971">
        <ele>1198.121</ele>
        <time>2021-05-09T16:08:42Z</time>
      </trkpt>
      <trkpt lat="43.92054" lon="6.28971">
        <ele>1197.436</ele>
        <time>2021-05-09T16:08:40Z</time>
      </trkpt>
      <trkpt lat="43.9206" lon="6.28971">
        <ele>1197.469</ele>
        <time>2021-05-09T16:08:39Z</time>
      </trkpt>
      <trkpt lat="43.92066" lon="6.28972">
        <ele>1197.235</ele>
        <time>2021-05-09T16:08:38Z</time>
      </trkpt>
      <trkpt lat="43.92071" lon="6.28973">
        <ele>1196.71</ele>
        <time>2021-05-09T16:08:37Z</time>
      </trkpt>
      <trkpt lat="43.92075" lon="6.28977">
        <ele>1195.708</ele>
        <time>2021-05-09T16:08:36Z</time>
      </trkpt>
      <trkpt lat="43.92084" lon="6.28987">
        <ele>1192.807</ele>
        <time>2021-05-09T16:08:34Z</time>
      </trkpt>
      <trkpt lat="43.92089" lon="6.28993">
        <ele>1191.461</ele>
        <time>2021-05-09T16:08:33Z</time>
      </trkpt>
      <trkpt lat="43.92098" lon="6.29003">
        <ele>1189.531</ele>
        <time>2021-05-09T16:08:31Z</time>
      </trkpt>
      <trkpt lat="43.92104" lon="6.29006">
        <ele>1189.114</ele>
        <time>2021-05-09T16:08:30Z</time>
      </trkpt>
      <trkpt lat="43.92112" lon="6.2901">
        <ele>1188.852</ele>
        <time>2021-05-09T16:08:28Z</time>
      </trkpt>
      <trkpt lat="43.92119" lon="6.29012">
        <ele>1188.32</ele>
        <time>2021-05-09T16:08:27Z</time>
      </trkpt>
      <trkpt lat="43.92127" lon="6.29014">
        <ele>1187.847</ele>
        <time>2021-05-09T16:08:26Z</time>
      </trkpt>
      <trkpt lat="43.92143" lon="6.29017">
        <ele>1186.662</ele>
        <time>2021-05-09T16:08:24Z</time>
      </trkpt>
      <trkpt lat="43.92151" lon="6.29019">
        <ele>1186.365</ele>
        <time>2021-05-09T16:08:23Z</time>
      </trkpt>
      <trkpt lat="43.92167" lon="6.2902">
        <ele>1185.981</ele>
        <time>2021-05-09T16:08:21Z</time>
      </trkpt>
      <trkpt lat="43.92173" lon="6.29021">
        <ele>1185.916</ele>
        <time>2021-05-09T16:08:20Z</time>
      </trkpt>
      <trkpt lat="43.92187" lon="6.29019">
        <ele>1186.408</ele>
        <time>2021-05-09T16:08:18Z</time>
      </trkpt>
      <trkpt lat="43.92201" lon="6.29021">
        <ele>1185.623</ele>
        <time>2021-05-09T16:08:16Z</time>
      </trkpt>
      <trkpt lat="43.92209" lon="6.29023">
        <ele>1184.349</ele>
        <time>2021-05-09T16:08:15Z</time>
      </trkpt>
      <trkpt lat="43.92217" lon="6.29026">
        <ele>1182.395</ele>
        <time>2021-05-09T16:08:14Z</time>
      </trkpt>
      <trkpt lat="43.92225" lon="6.2903">
        <ele>1180.051</ele>
        <time>2021-05-09T16:08:13Z</time>
      </trkpt>
      <trkpt lat="43.92232" lon="6.29032">
        <ele>1178.759</ele>
        <time>2021-05-09T16:08:12Z</time>
      </trkpt>
      <trkpt lat="43.92245" lon="6.29033">
        <ele>1177.437</ele>
        <time>2021-05-09T16:08:10Z</time>
      </trkpt>
      <trkpt lat="43.9226" lon="6.29031">
        <ele>1176.944</ele>
        <time>2021-05-09T16:08:08Z</time>
      </trkpt>
      <trkpt lat="43.92267" lon="6.2903">
        <ele>1176.999</ele>
        <time>2021-05-09T16:08:07Z</time>
      </trkpt>
      <trkpt lat="43.92281" lon="6.29025">
        <ele>1178.432</ele>
        <time>2021-05-09T16:08:05Z</time>
      </trkpt>
      <trkpt lat="43.92296" lon="6.29019">
        <ele>1180.248</ele>
        <time>2021-05-09T16:08:03Z</time>
      </trkpt>
      <trkpt lat="43.92304" lon="6.29017">
        <ele>1180.273</ele>
        <time>2021-05-09T16:08:02Z</time>
      </trkpt>
      <trkpt lat="43.92312" lon="6.29016">
        <ele>1179.208</ele>
        <time>2021-05-09T16:08:01Z</time>
      </trkpt>
      <trkpt lat="43.92329" lon="6.29016">
        <ele>1175.914</ele>
        <time>2021-05-09T16:07:59Z</time>
      </trkpt>
      <trkpt lat="43.92345" lon="6.29017">
        <ele>1172.568</ele>
        <time>2021-05-09T16:07:57Z</time>
      </trkpt>
      <trkpt lat="43.92353" lon="6.29019">
        <ele>1170.365</ele>
        <time>2021-05-09T16:07:56Z</time>
      </trkpt>
      <trkpt lat="43.92369" lon="6.29023">
        <ele>1166.439</ele>
        <time>2021-05-09T16:07:54Z</time>
      </trkpt>
      <trkpt lat="43.92385" lon="6.29027">
        <ele>1163.517</ele>
        <time>2021-05-09T16:07:52Z</time>
      </trkpt>
      <trkpt lat="43.92393" lon="6.29028">
        <ele>1162.735</ele>
        <time>2021-05-09T16:07:51Z</time>
      </trkpt>
      <trkpt lat="43.92406" lon="6.29029">
        <ele>1161.512</ele>
        <time>2021-05-09T16:07:49Z</time>
      </trkpt>
      <trkpt lat="43.92413" lon="6.29029">
        <ele>1161.157</ele>
        <time>2021-05-09T16:07:48Z</time>
      </trkpt>
      <trkpt lat="43.92428" lon="6.29029">
        <ele>1159.94</ele>
        <time>2021-05-09T16:07:46Z</time>
      </trkpt>
      <trkpt lat="43.92443" lon="6.2903">
        <ele>1158.576</ele>
        <time>2021-05-09T16:07:44Z</time>
      </trkpt>
      <trkpt lat="43.9245" lon="6.2903">
        <ele>1157.771</ele>
        <time>2021-05-09T16:07:43Z</time>
      </trkpt>
      <trkpt lat="43.92463" lon="6.29028">
        <ele>1157.208</ele>
        <time>2021-05-09T16:07:41Z</time>
      </trkpt>
      <trkpt lat="43.92468" lon="6.29024">
        <ele>1158.016</ele>
        <time>2021-05-09T16:07:40Z</time>
      </trkpt>
      <trkpt lat="43.92473" lon="6.29019">
        <ele>1159.288</ele>
        <time>2021-05-09T16:07:39Z</time>
      </trkpt>
      <trkpt lat="43.92479" lon="6.29015">
        <ele>1159.646</ele>
        <time>2021-05-09T16:07:38Z</time>
      </trkpt>
      <trkpt lat="43.92485" lon="6.29011">
        <ele>1159.44</ele>
        <time>2021-05-09T16:07:37Z</time>
      </trkpt>
      <trkpt lat="43.92499" lon="6.29006">
        <ele>1157.758</ele>
        <time>2021-05-09T16:07:35Z</time>
      </trkpt>
      <trkpt lat="43.92516" lon="6.29002">
        <ele>1154.156</ele>
        <time>2021-05-09T16:07:33Z</time>
      </trkpt>
      <trkpt lat="43.92525" lon="6.29001">
        <ele>1151.743</ele>
        <time>2021-05-09T16:07:32Z</time>
      </trkpt>
      <trkpt lat="43.9254" lon="6.28999">
        <ele>1150.338</ele>
        <time>2021-05-09T16:07:30Z</time>
      </trkpt>
      <trkpt lat="43.92548" lon="6.28997">
        <ele>1150.171</ele>
        <time>2021-05-09T16:07:29Z</time>
      </trkpt>
      <trkpt lat="43.92555" lon="6.28994">
        <ele>1149.797</ele>
        <time>2021-05-09T16:07:28Z</time>
      </trkpt>
      <trkpt lat="43.92568" lon="6.28989">
        <ele>1149.062</ele>
        <time>2021-05-09T16:07:26Z</time>
      </trkpt>
      <trkpt lat="43.92575" lon="6.28986">
        <ele>1148.508</ele>
        <time>2021-05-09T16:07:25Z</time>
      </trkpt>
      <trkpt lat="43.92581" lon="6.28981">
        <ele>1147.714</ele>
        <time>2021-05-09T16:07:24Z</time>
      </trkpt>
      <trkpt lat="43.9259" lon="6.28969">
        <ele>1146.059</ele>
        <time>2021-05-09T16:07:22Z</time>
      </trkpt>
      <trkpt lat="43.92596" lon="6.28961">
        <ele>1145.956</ele>
        <time>2021-05-09T16:07:21Z</time>
      </trkpt>
      <trkpt lat="43.92608" lon="6.28942">
        <ele>1143.877</ele>
        <time>2021-05-09T16:07:19Z</time>
      </trkpt>
      <trkpt lat="43.92621" lon="6.28922">
        <ele>1144.015</ele>
        <time>2021-05-09T16:07:17Z</time>
      </trkpt>
      <trkpt lat="43.92633" lon="6.28902">
        <ele>1143.093</ele>
        <time>2021-05-09T16:07:15Z</time>
      </trkpt>
      <trkpt lat="43.92645" lon="6.28886">
        <ele>1141.59</ele>
        <time>2021-05-09T16:07:13Z</time>
      </trkpt>
      <trkpt lat="43.92655" lon="6.28875">
        <ele>1142.295</ele>
        <time>2021-05-09T16:07:11Z</time>
      </trkpt>
      <trkpt lat="43.92662" lon="6.28869">
        <ele>1141.398</ele>
        <time>2021-05-09T16:07:10Z</time>
      </trkpt>
      <trkpt lat="43.92669" lon="6.28862">
        <ele>1140.064</ele>
        <time>2021-05-09T16:07:09Z</time>
      </trkpt>
      <trkpt lat="43.92677" lon="6.28855">
        <ele>1140.559</ele>
        <time>2021-05-09T16:07:08Z</time>
      </trkpt>
      <trkpt lat="43.92694" lon="6.28843">
        <ele>1139.408</ele>
        <time>2021-05-09T16:07:06Z</time>
      </trkpt>
      <trkpt lat="43.92701" lon="6.28838">
        <ele>1139.211</ele>
        <time>2021-05-09T16:07:05Z</time>
      </trkpt>
      <trkpt lat="43.92709" lon="6.28833">
        <ele>1139.083</ele>
        <time>2021-05-09T16:07:04Z</time>
      </trkpt>
      <trkpt lat="43.92715" lon="6.28829">
        <ele>1139.223</ele>
        <time>2021-05-09T16:07:03Z</time>
      </trkpt>
      <trkpt lat="43.92722" lon="6.28825">
        <ele>1139.03</ele>
        <time>2021-05-09T16:07:02Z</time>
      </trkpt>
      <trkpt lat="43.9273" lon="6.2882">
        <ele>1139.068</ele>
        <time>2021-05-09T16:07:01Z</time>
      </trkpt>
      <trkpt lat="43.92741" lon="6.28815">
        <ele>1139.076</ele>
        <time>2021-05-09T16:07:00Z</time>
      </trkpt>
      <trkpt lat="43.92748" lon="6.28812">
        <ele>1139.053</ele>
        <time>2021-05-09T16:06:58Z</time>
      </trkpt>
      <trkpt lat="43.92753" lon="6.28818">
        <ele>1139.058</ele>
        <time>2021-05-09T16:06:55Z</time>
      </trkpt>
      <trkpt lat="43.92758" lon="6.2882">
        <ele>1139.021</ele>
        <time>2021-05-09T16:06:52Z</time>
      </trkpt>
      <trkpt lat="43.92765" lon="6.28821">
        <ele>1139.167</ele>
        <time>2021-05-09T16:06:50Z</time>
      </trkpt>
      <trkpt lat="43.92772" lon="6.2882">
        <ele>1139.092</ele>
        <time>2021-05-09T16:06:48Z</time>
      </trkpt>
      <trkpt lat="43.92782" lon="6.28819">
        <ele>1139.208</ele>
        <time>2021-05-09T16:06:46Z</time>
      </trkpt>
      <trkpt lat="43.92788" lon="6.28819">
        <ele>1139.517</ele>
        <time>2021-05-09T16:06:45Z</time>
      </trkpt>
      <trkpt lat="43.92799" lon="6.28825">
        <ele>1140.452</ele>
        <time>2021-05-09T16:06:43Z</time>
      </trkpt>
      <trkpt lat="43.92805" lon="6.28831">
        <ele>1140.958</ele>
        <time>2021-05-09T16:06:42Z</time>
      </trkpt>
      <trkpt lat="43.9281" lon="6.28837">
        <ele>1141.782</ele>
        <time>2021-05-09T16:06:41Z</time>
      </trkpt>
      <trkpt lat="43.92815" lon="6.28844">
        <ele>1143.01</ele>
        <time>2021-05-09T16:06:40Z</time>
      </trkpt>
      <trkpt lat="43.92826" lon="6.28858">
        <ele>1144.418</ele>
        <time>2021-05-09T16:06:38Z</time>
      </trkpt>
      <trkpt lat="43.92833" lon="6.28863">
        <ele>1144.485</ele>
        <time>2021-05-09T16:06:37Z</time>
      </trkpt>
      <trkpt lat="43.92846" lon="6.28872">
        <ele>1144.31</ele>
        <time>2021-05-09T16:06:35Z</time>
      </trkpt>
      <trkpt lat="43.92853" lon="6.28876">
        <ele>1144.063</ele>
        <time>2021-05-09T16:06:34Z</time>
      </trkpt>
      <trkpt lat="43.92863" lon="6.28884">
        <ele>1144.089</ele>
        <time>2021-05-09T16:06:32Z</time>
      </trkpt>
      <trkpt lat="43.92867" lon="6.28889">
        <ele>1144.334</ele>
        <time>2021-05-09T16:06:31Z</time>
      </trkpt>
      <trkpt lat="43.92874" lon="6.289">
        <ele>1145.208</ele>
        <time>2021-05-09T16:06:29Z</time>
      </trkpt>
      <trkpt lat="43.92871" lon="6.28909">
        <ele>1147.113</ele>
        <time>2021-05-09T16:06:26Z</time>
      </trkpt>
      <trkpt lat="43.92866" lon="6.28907">
        <ele>1147.585</ele>
        <time>2021-05-09T16:06:25Z</time>
      </trkpt>
      <trkpt lat="43.92861" lon="6.28903">
        <ele>1147.573</ele>
        <time>2021-05-09T16:06:24Z</time>
      </trkpt>
      <trkpt lat="43.92849" lon="6.28895">
        <ele>1148.119</ele>
        <time>2021-05-09T16:06:22Z</time>
      </trkpt>
      <trkpt lat="43.92842" lon="6.28892">
        <ele>1148.867</ele>
        <time>2021-05-09T16:06:21Z</time>
      </trkpt>
      <trkpt lat="43.92828" lon="6.28884">
        <ele>1149.635</ele>
        <time>2021-05-09T16:06:19Z</time>
      </trkpt>
      <trkpt lat="43.92815" lon="6.2888">
        <ele>1150.232</ele>
        <time>2021-05-09T16:06:17Z</time>
      </trkpt>
      <trkpt lat="43.92809" lon="6.28878">
        <ele>1150.547</ele>
        <time>2021-05-09T16:06:16Z</time>
      </trkpt>
      <trkpt lat="43.92798" lon="6.28876">
        <ele>1151.12</ele>
        <time>2021-05-09T16:06:14Z</time>
      </trkpt>
      <trkpt lat="43.92793" lon="6.28878">
        <ele>1151.746</ele>
        <time>2021-05-09T16:06:13Z</time>
      </trkpt>
      <trkpt lat="43.92787" lon="6.28882">
        <ele>1152.971</ele>
        <time>2021-05-09T16:06:12Z</time>
      </trkpt>
      <trkpt lat="43.92782" lon="6.28887">
        <ele>1154.308</ele>
        <time>2021-05-09T16:06:11Z</time>
      </trkpt>
      <trkpt lat="43.92769" lon="6.28897">
        <ele>1155.621</ele>
        <time>2021-05-09T16:06:09Z</time>
      </trkpt>
      <trkpt lat="43.92763" lon="6.28902">
        <ele>1155.929</ele>
        <time>2021-05-09T16:06:08Z</time>
      </trkpt>
      <trkpt lat="43.92752" lon="6.28911">
        <ele>1156.847</ele>
        <time>2021-05-09T16:06:06Z</time>
      </trkpt>
      <trkpt lat="43.92744" lon="6.28922">
        <ele>1156.89</ele>
        <time>2021-05-09T16:06:04Z</time>
      </trkpt>
      <trkpt lat="43.92742" lon="6.2893">
        <ele>1156.638</ele>
        <time>2021-05-09T16:06:03Z</time>
      </trkpt>
      <trkpt lat="43.92741" lon="6.28938">
        <ele>1156.866</ele>
        <time>2021-05-09T16:06:02Z</time>
      </trkpt>
      <trkpt lat="43.92742" lon="6.28955">
        <ele>1158.183</ele>
        <time>2021-05-09T16:06:00Z</time>
      </trkpt>
      <trkpt lat="43.92747" lon="6.28973">
        <ele>1160.118</ele>
        <time>2021-05-09T16:05:58Z</time>
      </trkpt>
      <trkpt lat="43.92754" lon="6.28991">
        <ele>1161.921</ele>
        <time>2021-05-09T16:05:56Z</time>
      </trkpt>
      <trkpt lat="43.92758" lon="6.29">
        <ele>1162.947</ele>
        <time>2021-05-09T16:05:55Z</time>
      </trkpt>
      <trkpt lat="43.92763" lon="6.29019">
        <ele>1164.032</ele>
        <time>2021-05-09T16:05:53Z</time>
      </trkpt>
      <trkpt lat="43.9277" lon="6.29038">
        <ele>1164.908</ele>
        <time>2021-05-09T16:05:51Z</time>
      </trkpt>
      <trkpt lat="43.92774" lon="6.29046">
        <ele>1165.511</ele>
        <time>2021-05-09T16:05:50Z</time>
      </trkpt>
      <trkpt lat="43.92784" lon="6.29061">
        <ele>1167.001</ele>
        <time>2021-05-09T16:05:48Z</time>
      </trkpt>
      <trkpt lat="43.92795" lon="6.29076">
        <ele>1169.351</ele>
        <time>2021-05-09T16:05:46Z</time>
      </trkpt>
      <trkpt lat="43.92805" lon="6.29091">
        <ele>1172.772</ele>
        <time>2021-05-09T16:05:44Z</time>
      </trkpt>
      <trkpt lat="43.9281" lon="6.29099">
        <ele>1173.63</ele>
        <time>2021-05-09T16:05:43Z</time>
      </trkpt>
      <trkpt lat="43.92817" lon="6.29114">
        <ele>1175.088</ele>
        <time>2021-05-09T16:05:41Z</time>
      </trkpt>
      <trkpt lat="43.92822" lon="6.29134">
        <ele>1176.235</ele>
        <time>2021-05-09T16:05:39Z</time>
      </trkpt>
      <trkpt lat="43.92827" lon="6.29157">
        <ele>1178.58</ele>
        <time>2021-05-09T16:05:37Z</time>
      </trkpt>
      <trkpt lat="43.92827" lon="6.29169">
        <ele>1179.333</ele>
        <time>2021-05-09T16:05:36Z</time>
      </trkpt>
      <trkpt lat="43.92825" lon="6.2919">
        <ele>1179.789</ele>
        <time>2021-05-09T16:05:34Z</time>
      </trkpt>
      <trkpt lat="43.92824" lon="6.2921">
        <ele>1180.164</ele>
        <time>2021-05-09T16:05:32Z</time>
      </trkpt>
      <trkpt lat="43.92825" lon="6.29219">
        <ele>1180.908</ele>
        <time>2021-05-09T16:05:31Z</time>
      </trkpt>
      <trkpt lat="43.92829" lon="6.29234">
        <ele>1182.821</ele>
        <time>2021-05-09T16:05:29Z</time>
      </trkpt>
      <trkpt lat="43.92836" lon="6.29249">
        <ele>1184.956</ele>
        <time>2021-05-09T16:05:27Z</time>
      </trkpt>
      <trkpt lat="43.9284" lon="6.29257">
        <ele>1185.774</ele>
        <time>2021-05-09T16:05:26Z</time>
      </trkpt>
      <trkpt lat="43.92847" lon="6.29272">
        <ele>1186.979</ele>
        <time>2021-05-09T16:05:24Z</time>
      </trkpt>
      <trkpt lat="43.92855" lon="6.29287">
        <ele>1187.827</ele>
        <time>2021-05-09T16:05:22Z</time>
      </trkpt>
      <trkpt lat="43.92865" lon="6.29306">
        <ele>1188.765</ele>
        <time>2021-05-09T16:05:20Z</time>
      </trkpt>
      <trkpt lat="43.92871" lon="6.29316">
        <ele>1189.952</ele>
        <time>2021-05-09T16:05:19Z</time>
      </trkpt>
      <trkpt lat="43.92881" lon="6.29331">
        <ele>1192.247</ele>
        <time>2021-05-09T16:05:17Z</time>
      </trkpt>
      <trkpt lat="43.92894" lon="6.29343">
        <ele>1195.28</ele>
        <time>2021-05-09T16:05:15Z</time>
      </trkpt>
      <trkpt lat="43.92901" lon="6.29348">
        <ele>1197.596</ele>
        <time>2021-05-09T16:05:14Z</time>
      </trkpt>
      <trkpt lat="43.92917" lon="6.29359">
        <ele>1203.391</ele>
        <time>2021-05-09T16:05:12Z</time>
      </trkpt>
      <trkpt lat="43.92928" lon="6.29377">
        <ele>1204.708</ele>
        <time>2021-05-09T16:05:10Z</time>
      </trkpt>
      <trkpt lat="43.92938" lon="6.29397">
        <ele>1205.821</ele>
        <time>2021-05-09T16:05:08Z</time>
      </trkpt>
      <trkpt lat="43.92943" lon="6.29409">
        <ele>1206.529</ele>
        <time>2021-05-09T16:05:07Z</time>
      </trkpt>
      <trkpt lat="43.92955" lon="6.29434">
        <ele>1208.747</ele>
        <time>2021-05-09T16:05:05Z</time>
      </trkpt>
      <trkpt lat="43.9296" lon="6.29447">
        <ele>1210.159</ele>
        <time>2021-05-09T16:05:04Z</time>
      </trkpt>
      <trkpt lat="43.92966" lon="6.2947">
        <ele>1213.297</ele>
        <time>2021-05-09T16:05:02Z</time>
      </trkpt>
      <trkpt lat="43.92967" lon="6.29481">
        <ele>1214.535</ele>
        <time>2021-05-09T16:05:01Z</time>
      </trkpt>
      <trkpt lat="43.92969" lon="6.29492">
        <ele>1215.512</ele>
        <time>2021-05-09T16:05:00Z</time>
      </trkpt>
      <trkpt lat="43.92973" lon="6.29512">
        <ele>1217.817</ele>
        <time>2021-05-09T16:04:58Z</time>
      </trkpt>
      <trkpt lat="43.92976" lon="6.29533">
        <ele>1219.94</ele>
        <time>2021-05-09T16:04:56Z</time>
      </trkpt>
      <trkpt lat="43.92977" lon="6.29545">
        <ele>1220.776</ele>
        <time>2021-05-09T16:04:55Z</time>
      </trkpt>
      <trkpt lat="43.92979" lon="6.2957">
        <ele>1221.361</ele>
        <time>2021-05-09T16:04:53Z</time>
      </trkpt>
      <trkpt lat="43.92979" lon="6.29583">
        <ele>1221.708</ele>
        <time>2021-05-09T16:04:52Z</time>
      </trkpt>
      <trkpt lat="43.92982" lon="6.29603">
        <ele>1221.214</ele>
        <time>2021-05-09T16:04:50Z</time>
      </trkpt>
      <trkpt lat="43.92984" lon="6.29612">
        <ele>1221.422</ele>
        <time>2021-05-09T16:04:49Z</time>
      </trkpt>
      <trkpt lat="43.92987" lon="6.29619">
        <ele>1222.042</ele>
        <time>2021-05-09T16:04:48Z</time>
      </trkpt>
      <trkpt lat="43.92997" lon="6.2963">
        <ele>1224.271</ele>
        <time>2021-05-09T16:04:46Z</time>
      </trkpt>
      <trkpt lat="43.93002" lon="6.29635">
        <ele>1225.339</ele>
        <time>2021-05-09T16:04:45Z</time>
      </trkpt>
      <trkpt lat="43.93014" lon="6.29639">
        <ele>1226.947</ele>
        <time>2021-05-09T16:04:43Z</time>
      </trkpt>
      <trkpt lat="43.93018" lon="6.29643">
        <ele>1227.914</ele>
        <time>2021-05-09T16:04:42Z</time>
      </trkpt>
      <trkpt lat="43.93025" lon="6.29658">
        <ele>1229.429</ele>
        <time>2021-05-09T16:04:40Z</time>
      </trkpt>
      <trkpt lat="43.93031" lon="6.29676">
        <ele>1231.342</ele>
        <time>2021-05-09T16:04:38Z</time>
      </trkpt>
      <trkpt lat="43.93037" lon="6.29694">
        <ele>1233.828</ele>
        <time>2021-05-09T16:04:36Z</time>
      </trkpt>
      <trkpt lat="43.93045" lon="6.29707">
        <ele>1235.633</ele>
        <time>2021-05-09T16:04:34Z</time>
      </trkpt>
      <trkpt lat="43.93055" lon="6.29718">
        <ele>1238.008</ele>
        <time>2021-05-09T16:04:32Z</time>
      </trkpt>
      <trkpt lat="43.93061" lon="6.29723">
        <ele>1239.226</ele>
        <time>2021-05-09T16:04:31Z</time>
      </trkpt>
      <trkpt lat="43.93065" lon="6.29727">
        <ele>1240.442</ele>
        <time>2021-05-09T16:04:30Z</time>
      </trkpt>
      <trkpt lat="43.93075" lon="6.2973">
        <ele>1243.268</ele>
        <time>2021-05-09T16:04:28Z</time>
      </trkpt>
      <trkpt lat="43.9308" lon="6.29736">
        <ele>1245.046</ele>
        <time>2021-05-09T16:04:26Z</time>
      </trkpt>
      <trkpt lat="43.93081" lon="6.29749">
        <ele>1246.014</ele>
        <time>2021-05-09T16:04:24Z</time>
      </trkpt>
      <trkpt lat="43.93078" lon="6.29763">
        <ele>1247.312</ele>
        <time>2021-05-09T16:04:22Z</time>
      </trkpt>
      <trkpt lat="43.93074" lon="6.29771">
        <ele>1247.139</ele>
        <time>2021-05-09T16:04:21Z</time>
      </trkpt>
      <trkpt lat="43.93066" lon="6.29787">
        <ele>1245.974</ele>
        <time>2021-05-09T16:04:19Z</time>
      </trkpt>
      <trkpt lat="43.93058" lon="6.29804">
        <ele>1245.697</ele>
        <time>2021-05-09T16:04:17Z</time>
      </trkpt>
      <trkpt lat="43.93055" lon="6.29813">
        <ele>1246.383</ele>
        <time>2021-05-09T16:04:16Z</time>
      </trkpt>
      <trkpt lat="43.93051" lon="6.29833">
        <ele>1248.598</ele>
        <time>2021-05-09T16:04:14Z</time>
      </trkpt>
      <trkpt lat="43.9305" lon="6.29844">
        <ele>1249.008</ele>
        <time>2021-05-09T16:04:13Z</time>
      </trkpt>
      <trkpt lat="43.93048" lon="6.29863">
        <ele>1250.209</ele>
        <time>2021-05-09T16:04:11Z</time>
      </trkpt>
      <trkpt lat="43.9305" lon="6.29872">
        <ele>1250.054</ele>
        <time>2021-05-09T16:04:10Z</time>
      </trkpt>
      <trkpt lat="43.93058" lon="6.2989">
        <ele>1250.814</ele>
        <time>2021-05-09T16:04:08Z</time>
      </trkpt>
      <trkpt lat="43.9307" lon="6.2991">
        <ele>1252.321</ele>
        <time>2021-05-09T16:04:06Z</time>
      </trkpt>
      <trkpt lat="43.93081" lon="6.29931">
        <ele>1254.339</ele>
        <time>2021-05-09T16:04:04Z</time>
      </trkpt>
      <trkpt lat="43.9309" lon="6.29952">
        <ele>1254.537</ele>
        <time>2021-05-09T16:04:02Z</time>
      </trkpt>
      <trkpt lat="43.93093" lon="6.29961">
        <ele>1254.254</ele>
        <time>2021-05-09T16:04:01Z</time>
      </trkpt>
      <trkpt lat="43.93097" lon="6.29977">
        <ele>1253.649</ele>
        <time>2021-05-09T16:03:59Z</time>
      </trkpt>
      <trkpt lat="43.931" lon="6.29983">
        <ele>1253.612</ele>
        <time>2021-05-09T16:03:58Z</time>
      </trkpt>
      <trkpt lat="43.93108" lon="6.29993">
        <ele>1253.828</ele>
        <time>2021-05-09T16:03:56Z</time>
      </trkpt>
      <trkpt lat="43.9312" lon="6.29994">
        <ele>1255.583</ele>
        <time>2021-05-09T16:03:54Z</time>
      </trkpt>
      <trkpt lat="43.93126" lon="6.29994">
        <ele>1256.708</ele>
        <time>2021-05-09T16:03:53Z</time>
      </trkpt>
      <trkpt lat="43.93138" lon="6.2999">
        <ele>1259.213</ele>
        <time>2021-05-09T16:03:51Z</time>
      </trkpt>
      <trkpt lat="43.93142" lon="6.29988">
        <ele>1261.021</ele>
        <time>2021-05-09T16:03:50Z</time>
      </trkpt>
      <trkpt lat="43.93146" lon="6.29984">
        <ele>1262.861</ele>
        <time>2021-05-09T16:03:49Z</time>
      </trkpt>
      <trkpt lat="43.9315" lon="6.29979">
        <ele>1265.14</ele>
        <time>2021-05-09T16:03:46Z</time>
      </trkpt>
      <trkpt lat="43.93149" lon="6.29971">
        <ele>1265.398</ele>
        <time>2021-05-09T16:03:44Z</time>
      </trkpt>
      <trkpt lat="43.93145" lon="6.29956">
        <ele>1266.356</ele>
        <time>2021-05-09T16:03:42Z</time>
      </trkpt>
      <trkpt lat="43.93142" lon="6.29939">
        <ele>1267.873</ele>
        <time>2021-05-09T16:03:40Z</time>
      </trkpt>
      <trkpt lat="43.93141" lon="6.29929">
        <ele>1268.828</ele>
        <time>2021-05-09T16:03:39Z</time>
      </trkpt>
      <trkpt lat="43.9314" lon="6.2991">
        <ele>1271.181</ele>
        <time>2021-05-09T16:03:37Z</time>
      </trkpt>
      <trkpt lat="43.9314" lon="6.29891">
        <ele>1273.157</ele>
        <time>2021-05-09T16:03:35Z</time>
      </trkpt>
      <trkpt lat="43.93142" lon="6.29874">
        <ele>1275.532</ele>
        <time>2021-05-09T16:03:33Z</time>
      </trkpt>
      <trkpt lat="43.93143" lon="6.29866">
        <ele>1277.008</ele>
        <time>2021-05-09T16:03:32Z</time>
      </trkpt>
      <trkpt lat="43.93145" lon="6.29857">
        <ele>1278.723</ele>
        <time>2021-05-09T16:03:31Z</time>
      </trkpt>
      <trkpt lat="43.93146" lon="6.29848">
        <ele>1280.403</ele>
        <time>2021-05-09T16:03:30Z</time>
      </trkpt>
      <trkpt lat="43.93149" lon="6.2983">
        <ele>1283.859</ele>
        <time>2021-05-09T16:03:28Z</time>
      </trkpt>
      <trkpt lat="43.93153" lon="6.29812">
        <ele>1285.058</ele>
        <time>2021-05-09T16:03:26Z</time>
      </trkpt>
      <trkpt lat="43.93155" lon="6.29805">
        <ele>1285.766</ele>
        <time>2021-05-09T16:03:25Z</time>
      </trkpt>
      <trkpt lat="43.93158" lon="6.29797">
        <ele>1285.794</ele>
        <time>2021-05-09T16:03:24Z</time>
      </trkpt>
      <trkpt lat="43.93167" lon="6.29782">
        <ele>1286.311</ele>
        <time>2021-05-09T16:03:22Z</time>
      </trkpt>
      <trkpt lat="43.93174" lon="6.29776">
        <ele>1287.086</ele>
        <time>2021-05-09T16:03:21Z</time>
      </trkpt>
      <trkpt lat="43.93187" lon="6.29771">
        <ele>1289.969</ele>
        <time>2021-05-09T16:03:19Z</time>
      </trkpt>
      <trkpt lat="43.93201" lon="6.29768">
        <ele>1293.145</ele>
        <time>2021-05-09T16:03:17Z</time>
      </trkpt>
      <trkpt lat="43.93212" lon="6.29757">
        <ele>1291.71</ele>
        <time>2021-05-09T16:03:15Z</time>
      </trkpt>
      <trkpt lat="43.93218" lon="6.29749">
        <ele>1290.208</ele>
        <time>2021-05-09T16:03:14Z</time>
      </trkpt>
      <trkpt lat="43.93232" lon="6.29737">
        <ele>1291.51</ele>
        <time>2021-05-09T16:03:12Z</time>
      </trkpt>
      <trkpt lat="43.93239" lon="6.29732">
        <ele>1292.255</ele>
        <time>2021-05-09T16:03:11Z</time>
      </trkpt>
      <trkpt lat="43.93252" lon="6.29726">
        <ele>1293.434</ele>
        <time>2021-05-09T16:03:09Z</time>
      </trkpt>
      <trkpt lat="43.93267" lon="6.29726">
        <ele>1295.821</ele>
        <time>2021-05-09T16:03:07Z</time>
      </trkpt>
      <trkpt lat="43.93285" lon="6.29722">
        <ele>1295.849</ele>
        <time>2021-05-09T16:03:05Z</time>
      </trkpt>
      <trkpt lat="43.93303" lon="6.29713">
        <ele>1292.937</ele>
        <time>2021-05-09T16:03:03Z</time>
      </trkpt>
      <trkpt lat="43.93312" lon="6.2971">
        <ele>1292.824</ele>
        <time>2021-05-09T16:03:02Z</time>
      </trkpt>
      <trkpt lat="43.9333" lon="6.29707">
        <ele>1294.349</ele>
        <time>2021-05-09T16:03:00Z</time>
      </trkpt>
      <trkpt lat="43.93339" lon="6.29705">
        <ele>1295.232</ele>
        <time>2021-05-09T16:02:59Z</time>
      </trkpt>
      <trkpt lat="43.93347" lon="6.29702">
        <ele>1295.528</ele>
        <time>2021-05-09T16:02:58Z</time>
      </trkpt>
      <trkpt lat="43.9336" lon="6.29692">
        <ele>1294.073</ele>
        <time>2021-05-09T16:02:56Z</time>
      </trkpt>
      <trkpt lat="43.93366" lon="6.29684">
        <ele>1294.108</ele>
        <time>2021-05-09T16:02:55Z</time>
      </trkpt>
      <trkpt lat="43.93371" lon="6.29675">
        <ele>1293.611</ele>
        <time>2021-05-09T16:02:54Z</time>
      </trkpt>
      <trkpt lat="43.9338" lon="6.29658">
        <ele>1292.583</ele>
        <time>2021-05-09T16:02:52Z</time>
      </trkpt>
      <trkpt lat="43.93385" lon="6.29652">
        <ele>1293.262</ele>
        <time>2021-05-09T16:02:51Z</time>
      </trkpt>
      <trkpt lat="43.934" lon="6.29643">
        <ele>1295.08</ele>
        <time>2021-05-09T16:02:49Z</time>
      </trkpt>
      <trkpt lat="43.93409" lon="6.29638">
        <ele>1295.488</ele>
        <time>2021-05-09T16:02:48Z</time>
      </trkpt>
      <trkpt lat="43.93416" lon="6.29632">
        <ele>1295.346</ele>
        <time>2021-05-09T16:02:47Z</time>
      </trkpt>
      <trkpt lat="43.93426" lon="6.29615">
        <ele>1294.023</ele>
        <time>2021-05-09T16:02:45Z</time>
      </trkpt>
      <trkpt lat="43.9343" lon="6.29606">
        <ele>1293.388</ele>
        <time>2021-05-09T16:02:44Z</time>
      </trkpt>
      <trkpt lat="43.93436" lon="6.29598">
        <ele>1293.171</ele>
        <time>2021-05-09T16:02:43Z</time>
      </trkpt>
      <trkpt lat="43.93449" lon="6.29583">
        <ele>1293.627</ele>
        <time>2021-05-09T16:02:41Z</time>
      </trkpt>
      <trkpt lat="43.93464" lon="6.29573">
        <ele>1295.772</ele>
        <time>2021-05-09T16:02:39Z</time>
      </trkpt>
      <trkpt lat="43.9348" lon="6.29569">
        <ele>1297.608</ele>
        <time>2021-05-09T16:02:37Z</time>
      </trkpt>
      <trkpt lat="43.93487" lon="6.2957">
        <ele>1298.623</ele>
        <time>2021-05-09T16:02:36Z</time>
      </trkpt>
      <trkpt lat="43.93495" lon="6.29571">
        <ele>1299.803</ele>
        <time>2021-05-09T16:02:35Z</time>
      </trkpt>
      <trkpt lat="43.93502" lon="6.29572">
        <ele>1301.259</ele>
        <time>2021-05-09T16:02:34Z</time>
      </trkpt>
      <trkpt lat="43.93519" lon="6.29579">
        <ele>1303.442</ele>
        <time>2021-05-09T16:02:32Z</time>
      </trkpt>
      <trkpt lat="43.93527" lon="6.29585">
        <ele>1305.76</ele>
        <time>2021-05-09T16:02:31Z</time>
      </trkpt>
      <trkpt lat="43.93535" lon="6.29589">
        <ele>1306.898</ele>
        <time>2021-05-09T16:02:30Z</time>
      </trkpt>
      <trkpt lat="43.93542" lon="6.29589">
        <ele>1305.725</ele>
        <time>2021-05-09T16:02:29Z</time>
      </trkpt>
      <trkpt lat="43.93548" lon="6.29585">
        <ele>1303.08</ele>
        <time>2021-05-09T16:02:28Z</time>
      </trkpt>
      <trkpt lat="43.93557" lon="6.29569">
        <ele>1297.853</ele>
        <time>2021-05-09T16:02:26Z</time>
      </trkpt>
      <trkpt lat="43.93564" lon="6.29561">
        <ele>1298.499</ele>
        <time>2021-05-09T16:02:25Z</time>
      </trkpt>
      <trkpt lat="43.9358" lon="6.29547">
        <ele>1301.744</ele>
        <time>2021-05-09T16:02:23Z</time>
      </trkpt>
      <trkpt lat="43.93598" lon="6.29534">
        <ele>1305.608</ele>
        <time>2021-05-09T16:02:21Z</time>
      </trkpt>
      <trkpt lat="43.93614" lon="6.29516">
        <ele>1306.719</ele>
        <time>2021-05-09T16:02:19Z</time>
      </trkpt>
      <trkpt lat="43.93623" lon="6.29505">
        <ele>1306.79</ele>
        <time>2021-05-09T16:02:18Z</time>
      </trkpt>
      <trkpt lat="43.9364" lon="6.29487">
        <ele>1308.376</ele>
        <time>2021-05-09T16:02:16Z</time>
      </trkpt>
      <trkpt lat="43.93648" lon="6.29481">
        <ele>1308.753</ele>
        <time>2021-05-09T16:02:15Z</time>
      </trkpt>
      <trkpt lat="43.93655" lon="6.29475">
        <ele>1309.461</ele>
        <time>2021-05-09T16:02:14Z</time>
      </trkpt>
      <trkpt lat="43.93669" lon="6.29469">
        <ele>1312.319</ele>
        <time>2021-05-09T16:02:12Z</time>
      </trkpt>
      <trkpt lat="43.93687" lon="6.2947">
        <ele>1315.536</ele>
        <time>2021-05-09T16:02:10Z</time>
      </trkpt>
      <trkpt lat="43.93703" lon="6.29471">
        <ele>1318.071</ele>
        <time>2021-05-09T16:02:08Z</time>
      </trkpt>
      <trkpt lat="43.93708" lon="6.29467">
        <ele>1317.324</ele>
        <time>2021-05-09T16:02:07Z</time>
      </trkpt>
      <trkpt lat="43.93712" lon="6.29461">
        <ele>1315.54</ele>
        <time>2021-05-09T16:02:06Z</time>
      </trkpt>
      <trkpt lat="43.93715" lon="6.29444">
        <ele>1311.075</ele>
        <time>2021-05-09T16:02:04Z</time>
      </trkpt>
      <trkpt lat="43.93723" lon="6.29428">
        <ele>1311.208</ele>
        <time>2021-05-09T16:02:02Z</time>
      </trkpt>
      <trkpt lat="43.9373" lon="6.2942">
        <ele>1312.726</ele>
        <time>2021-05-09T16:02:01Z</time>
      </trkpt>
      <trkpt lat="43.93744" lon="6.294">
        <ele>1314.742</ele>
        <time>2021-05-09T16:01:59Z</time>
      </trkpt>
      <trkpt lat="43.93752" lon="6.29391">
        <ele>1315.287</ele>
        <time>2021-05-09T16:01:58Z</time>
      </trkpt>
      <trkpt lat="43.93767" lon="6.29378">
        <ele>1316.139</ele>
        <time>2021-05-09T16:01:56Z</time>
      </trkpt>
      <trkpt lat="43.93781" lon="6.2937">
        <ele>1317.477</ele>
        <time>2021-05-09T16:01:54Z</time>
      </trkpt>
      <trkpt lat="43.93787" lon="6.29369">
        <ele>1317.885</ele>
        <time>2021-05-09T16:01:53Z</time>
      </trkpt>
      <trkpt lat="43.938" lon="6.29368">
        <ele>1319.442</ele>
        <time>2021-05-09T16:01:51Z</time>
      </trkpt>
      <trkpt lat="43.93814" lon="6.29368">
        <ele>1319.877</ele>
        <time>2021-05-09T16:01:49Z</time>
      </trkpt>
      <trkpt lat="43.93828" lon="6.29369">
        <ele>1319.58</ele>
        <time>2021-05-09T16:01:47Z</time>
      </trkpt>
      <trkpt lat="43.93842" lon="6.29367">
        <ele>1318.276</ele>
        <time>2021-05-09T16:01:45Z</time>
      </trkpt>
      <trkpt lat="43.93849" lon="6.29362">
        <ele>1316.311</ele>
        <time>2021-05-09T16:01:44Z</time>
      </trkpt>
      <trkpt lat="43.93856" lon="6.29356">
        <ele>1315.308</ele>
        <time>2021-05-09T16:01:43Z</time>
      </trkpt>
      <trkpt lat="43.93863" lon="6.29349">
        <ele>1315.022</ele>
        <time>2021-05-09T16:01:42Z</time>
      </trkpt>
      <trkpt lat="43.93875" lon="6.29336">
        <ele>1315.402</ele>
        <time>2021-05-09T16:01:40Z</time>
      </trkpt>
      <trkpt lat="43.93881" lon="6.29332">
        <ele>1315.849</ele>
        <time>2021-05-09T16:01:39Z</time>
      </trkpt>
      <trkpt lat="43.93895" lon="6.29328">
        <ele>1316.439</ele>
        <time>2021-05-09T16:01:37Z</time>
      </trkpt>
      <trkpt lat="43.9391" lon="6.2933">
        <ele>1316.567</ele>
        <time>2021-05-09T16:01:35Z</time>
      </trkpt>
      <trkpt lat="43.93917" lon="6.29333">
        <ele>1317.045</ele>
        <time>2021-05-09T16:01:34Z</time>
      </trkpt>
      <trkpt lat="43.93932" lon="6.29341">
        <ele>1318.362</ele>
        <time>2021-05-09T16:01:32Z</time>
      </trkpt>
      <trkpt lat="43.93948" lon="6.29347">
        <ele>1319.687</ele>
        <time>2021-05-09T16:01:30Z</time>
      </trkpt>
      <trkpt lat="43.93956" lon="6.29347">
        <ele>1319.21</ele>
        <time>2021-05-09T16:01:29Z</time>
      </trkpt>
      <trkpt lat="43.93964" lon="6.29351">
        <ele>1319.666</ele>
        <time>2021-05-09T16:01:28Z</time>
      </trkpt>
      <trkpt lat="43.93981" lon="6.29362">
        <ele>1321.761</ele>
        <time>2021-05-09T16:01:26Z</time>
      </trkpt>
      <trkpt lat="43.93989" lon="6.29369">
        <ele>1322.308</ele>
        <time>2021-05-09T16:01:25Z</time>
      </trkpt>
      <trkpt lat="43.94004" lon="6.2938">
        <ele>1322.014</ele>
        <time>2021-05-09T16:01:23Z</time>
      </trkpt>
      <trkpt lat="43.94009" lon="6.29387">
        <ele>1322.522</ele>
        <time>2021-05-09T16:01:22Z</time>
      </trkpt>
      <trkpt lat="43.94014" lon="6.29401">
        <ele>1324.042</ele>
        <time>2021-05-09T16:01:20Z</time>
      </trkpt>
      <trkpt lat="43.94014" lon="6.29418">
        <ele>1326.043</ele>
        <time>2021-05-09T16:01:18Z</time>
      </trkpt>
      <trkpt lat="43.94014" lon="6.29428">
        <ele>1326.931</ele>
        <time>2021-05-09T16:01:17Z</time>
      </trkpt>
      <trkpt lat="43.94013" lon="6.29438">
        <ele>1328.129</ele>
        <time>2021-05-09T16:01:16Z</time>
      </trkpt>
      <trkpt lat="43.94012" lon="6.29448">
        <ele>1329.326</ele>
        <time>2021-05-09T16:01:15Z</time>
      </trkpt>
      <trkpt lat="43.94012" lon="6.29456">
        <ele>1330.351</ele>
        <time>2021-05-09T16:01:14Z</time>
      </trkpt>
      <trkpt lat="43.94012" lon="6.29474">
        <ele>1331.574</ele>
        <time>2021-05-09T16:01:10Z</time>
      </trkpt>
      <trkpt lat="43.94012" lon="6.29488">
        <ele>1329.74</ele>
        <time>2021-05-09T16:01:08Z</time>
      </trkpt>
      <trkpt lat="43.94012" lon="6.29498">
        <ele>1328.365</ele>
        <time>2021-05-09T16:01:07Z</time>
      </trkpt>
      <trkpt lat="43.94014" lon="6.2952">
        <ele>1323.008</ele>
        <time>2021-05-09T16:01:05Z</time>
      </trkpt>
      <trkpt lat="43.94015" lon="6.2953">
        <ele>1320.426</ele>
        <time>2021-05-09T16:01:04Z</time>
      </trkpt>
      <trkpt lat="43.94017" lon="6.2954">
        <ele>1319.306</ele>
        <time>2021-05-09T16:01:03Z</time>
      </trkpt>
      <trkpt lat="43.94019" lon="6.29559">
        <ele>1317.489</ele>
        <time>2021-05-09T16:01:01Z</time>
      </trkpt>
      <trkpt lat="43.94019" lon="6.29567">
        <ele>1316.862</ele>
        <time>2021-05-09T16:01:00Z</time>
      </trkpt>
      <trkpt lat="43.94018" lon="6.29578">
        <ele>1316.46</ele>
        <time>2021-05-09T16:00:58Z</time>
      </trkpt>
      <trkpt lat="43.9401" lon="6.29583">
        <ele>1318.268</ele>
        <time>2021-05-09T16:00:56Z</time>
      </trkpt>
      <trkpt lat="43.93994" lon="6.29586">
        <ele>1320.625</ele>
        <time>2021-05-09T16:00:54Z</time>
      </trkpt>
      <trkpt lat="43.93984" lon="6.29587">
        <ele>1321.28</ele>
        <time>2021-05-09T16:00:53Z</time>
      </trkpt>
      <trkpt lat="43.93974" lon="6.29588">
        <ele>1321.933</ele>
        <time>2021-05-09T16:00:52Z</time>
      </trkpt>
      <trkpt lat="43.93955" lon="6.29594">
        <ele>1320.179</ele>
        <time>2021-05-09T16:00:50Z</time>
      </trkpt>
      <trkpt lat="43.93935" lon="6.29604">
        <ele>1318.914</ele>
        <time>2021-05-09T16:00:48Z</time>
      </trkpt>
      <trkpt lat="43.93924" lon="6.29608">
        <ele>1319.208</ele>
        <time>2021-05-09T16:00:47Z</time>
      </trkpt>
      <trkpt lat="43.93903" lon="6.29615">
        <ele>1320.215</ele>
        <time>2021-05-09T16:00:45Z</time>
      </trkpt>
      <trkpt lat="43.93884" lon="6.29628">
        <ele>1319.841</ele>
        <time>2021-05-09T16:00:43Z</time>
      </trkpt>
      <trkpt lat="43.93876" lon="6.29637">
        <ele>1319.771</ele>
        <time>2021-05-09T16:00:42Z</time>
      </trkpt>
      <trkpt lat="43.93859" lon="6.29658">
        <ele>1321.184</ele>
        <time>2021-05-09T16:00:40Z</time>
      </trkpt>
      <trkpt lat="43.93844" lon="6.29682">
        <ele>1321.122</ele>
        <time>2021-05-09T16:00:38Z</time>
      </trkpt>
      <trkpt lat="43.9383" lon="6.29705">
        <ele>1320.99</ele>
        <time>2021-05-09T16:00:36Z</time>
      </trkpt>
      <trkpt lat="43.93815" lon="6.29723">
        <ele>1320.177</ele>
        <time>2021-05-09T16:00:34Z</time>
      </trkpt>
      <trkpt lat="43.93807" lon="6.29729">
        <ele>1319.772</ele>
        <time>2021-05-09T16:00:33Z</time>
      </trkpt>
      <trkpt lat="43.93799" lon="6.29733">
        <ele>1319.955</ele>
        <time>2021-05-09T16:00:32Z</time>
      </trkpt>
      <trkpt lat="43.93783" lon="6.29736">
        <ele>1321.561</ele>
        <time>2021-05-09T16:00:30Z</time>
      </trkpt>
      <trkpt lat="43.93766" lon="6.29736">
        <ele>1324.926</ele>
        <time>2021-05-09T16:00:28Z</time>
      </trkpt>
      <trkpt lat="43.93758" lon="6.29735">
        <ele>1327.008</ele>
        <time>2021-05-09T16:00:27Z</time>
      </trkpt>
      <trkpt lat="43.9375" lon="6.29734">
        <ele>1329.422</ele>
        <time>2021-05-09T16:00:26Z</time>
      </trkpt>
      <trkpt lat="43.93733" lon="6.29731">
        <ele>1333.657</ele>
        <time>2021-05-09T16:00:24Z</time>
      </trkpt>
      <trkpt lat="43.93724" lon="6.29732">
        <ele>1334.494</ele>
        <time>2021-05-09T16:00:23Z</time>
      </trkpt>
      <trkpt lat="43.93705" lon="6.29735">
        <ele>1335.334</ele>
        <time>2021-05-09T16:00:21Z</time>
      </trkpt>
      <trkpt lat="43.93688" lon="6.29741">
        <ele>1336.632</ele>
        <time>2021-05-09T16:00:19Z</time>
      </trkpt>
      <trkpt lat="43.93679" lon="6.29747">
        <ele>1336.71</ele>
        <time>2021-05-09T16:00:18Z</time>
      </trkpt>
      <trkpt lat="43.93664" lon="6.29765">
        <ele>1337.047</ele>
        <time>2021-05-09T16:00:16Z</time>
      </trkpt>
      <trkpt lat="43.93658" lon="6.29776">
        <ele>1336.972</ele>
        <time>2021-05-09T16:00:15Z</time>
      </trkpt>
      <trkpt lat="43.93653" lon="6.29786">
        <ele>1335.615</ele>
        <time>2021-05-09T16:00:14Z</time>
      </trkpt>
      <trkpt lat="43.93648" lon="6.29794">
        <ele>1334.571</ele>
        <time>2021-05-09T16:00:13Z</time>
      </trkpt>
      <trkpt lat="43.93636" lon="6.29802">
        <ele>1335.536</ele>
        <time>2021-05-09T16:00:11Z</time>
      </trkpt>
      <trkpt lat="43.93619" lon="6.29806">
        <ele>1339.308</ele>
        <time>2021-05-09T16:00:09Z</time>
      </trkpt>
      <trkpt lat="43.93603" lon="6.29817">
        <ele>1340.02</ele>
        <time>2021-05-09T16:00:07Z</time>
      </trkpt>
      <trkpt lat="43.93589" lon="6.29834">
        <ele>1337.173</ele>
        <time>2021-05-09T16:00:05Z</time>
      </trkpt>
      <trkpt lat="43.93574" lon="6.29852">
        <ele>1336.392</ele>
        <time>2021-05-09T16:00:03Z</time>
      </trkpt>
      <trkpt lat="43.93563" lon="6.29873">
        <ele>1335.362</ele>
        <time>2021-05-09T16:00:01Z</time>
      </trkpt>
      <trkpt lat="43.93551" lon="6.29898">
        <ele>1334.94</ele>
        <time>2021-05-09T15:59:59Z</time>
      </trkpt>
      <trkpt lat="43.93547" lon="6.2991">
        <ele>1333.838</ele>
        <time>2021-05-09T15:59:58Z</time>
      </trkpt>
      <trkpt lat="43.93541" lon="6.2993">
        <ele>1330.455</ele>
        <time>2021-05-09T15:59:56Z</time>
      </trkpt>
      <trkpt lat="43.93535" lon="6.29939">
        <ele>1329.69</ele>
        <time>2021-05-09T15:59:55Z</time>
      </trkpt>
      <trkpt lat="43.93529" lon="6.29947">
        <ele>1328.923</ele>
        <time>2021-05-09T15:59:54Z</time>
      </trkpt>
      <trkpt lat="43.93518" lon="6.29964">
        <ele>1328.289</ele>
        <time>2021-05-09T15:59:52Z</time>
      </trkpt>
      <trkpt lat="43.93513" lon="6.29969">
        <ele>1329.024</ele>
        <time>2021-05-09T15:59:51Z</time>
      </trkpt>
      <trkpt lat="43.93506" lon="6.29972">
        <ele>1330.608</ele>
        <time>2021-05-09T15:59:50Z</time>
      </trkpt>
      <trkpt lat="43.93499" lon="6.29975">
        <ele>1332.419</ele>
        <time>2021-05-09T15:59:49Z</time>
      </trkpt>
      <trkpt lat="43.9348" lon="6.29985">
        <ele>1332.79</ele>
        <time>2021-05-09T15:59:47Z</time>
      </trkpt>
      <trkpt lat="43.93464" lon="6.29994">
        <ele>1332.976</ele>
        <time>2021-05-09T15:59:45Z</time>
      </trkpt>
      <trkpt lat="43.93457" lon="6.3001">
        <ele>1333.04</ele>
        <time>2021-05-09T15:59:43Z</time>
      </trkpt>
      <trkpt lat="43.93455" lon="6.30021">
        <ele>1333.538</ele>
        <time>2021-05-09T15:59:42Z</time>
      </trkpt>
      <trkpt lat="43.93451" lon="6.30043">
        <ele>1335.116</ele>
        <time>2021-05-09T15:59:40Z</time>
      </trkpt>
      <trkpt lat="43.93449" lon="6.30054">
        <ele>1335.833</ele>
        <time>2021-05-09T15:59:39Z</time>
      </trkpt>
      <trkpt lat="43.93444" lon="6.3007">
        <ele>1339.348</ele>
        <time>2021-05-09T15:59:37Z</time>
      </trkpt>
      <trkpt lat="43.9344" lon="6.30076">
        <ele>1341.171</ele>
        <time>2021-05-09T15:59:36Z</time>
      </trkpt>
      <trkpt lat="43.93434" lon="6.30081">
        <ele>1342.917</ele>
        <time>2021-05-09T15:59:35Z</time>
      </trkpt>
      <trkpt lat="43.93426" lon="6.30089">
        <ele>1345.442</ele>
        <time>2021-05-09T15:59:33Z</time>
      </trkpt>
      <trkpt lat="43.93422" lon="6.30094">
        <ele>1346.408</ele>
        <time>2021-05-09T15:59:31Z</time>
      </trkpt>
      <trkpt lat="43.93425" lon="6.30106">
        <ele>1346.814</ele>
        <time>2021-05-09T15:59:29Z</time>
      </trkpt>
      <trkpt lat="43.93434" lon="6.30113">
        <ele>1346.359</ele>
        <time>2021-05-09T15:59:27Z</time>
      </trkpt>
      <trkpt lat="43.93439" lon="6.30116">
        <ele>1346.256</ele>
        <time>2021-05-09T15:59:26Z</time>
      </trkpt>
      <trkpt lat="43.93444" lon="6.30121">
        <ele>1346.596</ele>
        <time>2021-05-09T15:59:25Z</time>
      </trkpt>
      <trkpt lat="43.93448" lon="6.30128">
        <ele>1346.974</ele>
        <time>2021-05-09T15:59:24Z</time>
      </trkpt>
      <trkpt lat="43.93458" lon="6.30145">
        <ele>1348.212</ele>
        <time>2021-05-09T15:59:22Z</time>
      </trkpt>
      <trkpt lat="43.93469" lon="6.30162">
        <ele>1350.229</ele>
        <time>2021-05-09T15:59:20Z</time>
      </trkpt>
      <trkpt lat="43.93483" lon="6.30173">
        <ele>1351.044</ele>
        <time>2021-05-09T15:59:18Z</time>
      </trkpt>
      <trkpt lat="43.93499" lon="6.30181">
        <ele>1350.187</ele>
        <time>2021-05-09T15:59:16Z</time>
      </trkpt>
      <trkpt lat="43.93511" lon="6.3019">
        <ele>1348.783</ele>
        <time>2021-05-09T15:59:14Z</time>
      </trkpt>
      <trkpt lat="43.93515" lon="6.30196">
        <ele>1348.518</ele>
        <time>2021-05-09T15:59:13Z</time>
      </trkpt>
      <trkpt lat="43.93518" lon="6.3021">
        <ele>1349.808</ele>
        <time>2021-05-09T15:59:11Z</time>
      </trkpt>
      <trkpt lat="43.93517" lon="6.30216">
        <ele>1350.815</ele>
        <time>2021-05-09T15:59:10Z</time>
      </trkpt>
      <trkpt lat="43.9351" lon="6.30223">
        <ele>1353.787</ele>
        <time>2021-05-09T15:59:08Z</time>
      </trkpt>
      <trkpt lat="43.93497" lon="6.3022">
        <ele>1356.317</ele>
        <time>2021-05-09T15:59:06Z</time>
      </trkpt>
      <trkpt lat="43.9348" lon="6.30217">
        <ele>1359.369</ele>
        <time>2021-05-09T15:59:04Z</time>
      </trkpt>
      <trkpt lat="43.93471" lon="6.30217">
        <ele>1360.837</ele>
        <time>2021-05-09T15:59:03Z</time>
      </trkpt>
      <trkpt lat="43.93455" lon="6.30222">
        <ele>1361.295</ele>
        <time>2021-05-09T15:59:01Z</time>
      </trkpt>
      <trkpt lat="43.93449" lon="6.30226">
        <ele>1362.122</ele>
        <time>2021-05-09T15:59:00Z</time>
      </trkpt>
      <trkpt lat="43.93444" lon="6.30231">
        <ele>1363.357</ele>
        <time>2021-05-09T15:58:59Z</time>
      </trkpt>
      <trkpt lat="43.93438" lon="6.30243">
        <ele>1364.73</ele>
        <time>2021-05-09T15:58:57Z</time>
      </trkpt>
      <trkpt lat="43.93434" lon="6.30249">
        <ele>1365.926</ele>
        <time>2021-05-09T15:58:55Z</time>
      </trkpt>
      <trkpt lat="43.9343" lon="6.30253">
        <ele>1366.351</ele>
        <time>2021-05-09T15:58:54Z</time>
      </trkpt>
      <trkpt lat="43.93422" lon="6.30263">
        <ele>1367.908</ele>
        <time>2021-05-09T15:58:52Z</time>
      </trkpt>
      <trkpt lat="43.93417" lon="6.30273">
        <ele>1370.41</ele>
        <time>2021-05-09T15:58:50Z</time>
      </trkpt>
      <trkpt lat="43.93413" lon="6.30279">
        <ele>1370.864</ele>
        <time>2021-05-09T15:58:49Z</time>
      </trkpt>
      <trkpt lat="43.93408" lon="6.30284">
        <ele>1370.443</ele>
        <time>2021-05-09T15:58:48Z</time>
      </trkpt>
      <trkpt lat="43.93401" lon="6.3029">
        <ele>1369.679</ele>
        <time>2021-05-09T15:58:47Z</time>
      </trkpt>
      <trkpt lat="43.93395" lon="6.30295">
        <ele>1369.237</ele>
        <time>2021-05-09T15:58:46Z</time>
      </trkpt>
      <trkpt lat="43.93389" lon="6.30306">
        <ele>1370.065</ele>
        <time>2021-05-09T15:58:44Z</time>
      </trkpt>
      <trkpt lat="43.93386" lon="6.30312">
        <ele>1371.212</ele>
        <time>2021-05-09T15:58:43Z</time>
      </trkpt>
      <trkpt lat="43.93383" lon="6.30318">
        <ele>1372.287</ele>
        <time>2021-05-09T15:58:42Z</time>
      </trkpt>
      <trkpt lat="43.93374" lon="6.30333">
        <ele>1373.08</ele>
        <time>2021-05-09T15:58:40Z</time>
      </trkpt>
      <trkpt lat="43.93363" lon="6.30348">
        <ele>1371.896</ele>
        <time>2021-05-09T15:58:38Z</time>
      </trkpt>
      <trkpt lat="43.93358" lon="6.30358">
        <ele>1372.541</ele>
        <time>2021-05-09T15:58:37Z</time>
      </trkpt>
      <trkpt lat="43.93348" lon="6.30373">
        <ele>1373.208</ele>
        <time>2021-05-09T15:58:35Z</time>
      </trkpt>
      <trkpt lat="43.93338" lon="6.3038">
        <ele>1371.416</ele>
        <time>2021-05-09T15:58:33Z</time>
      </trkpt>
      <trkpt lat="43.93333" lon="6.30381">
        <ele>1369.988</ele>
        <time>2021-05-09T15:58:31Z</time>
      </trkpt>
      <trkpt lat="43.93327" lon="6.30382">
        <ele>1369.546</ele>
        <time>2021-05-09T15:58:29Z</time>
      </trkpt>
      <trkpt lat="43.93315" lon="6.30385">
        <ele>1369.433</ele>
        <time>2021-05-09T15:58:27Z</time>
      </trkpt>
      <trkpt lat="43.93304" lon="6.30392">
        <ele>1370.461</ele>
        <time>2021-05-09T15:58:25Z</time>
      </trkpt>
      <trkpt lat="43.93299" lon="6.30396">
        <ele>1370.689</ele>
        <time>2021-05-09T15:58:24Z</time>
      </trkpt>
      <trkpt lat="43.93293" lon="6.30405">
        <ele>1372.716</ele>
        <time>2021-05-09T15:58:22Z</time>
      </trkpt>
      <trkpt lat="43.93291" lon="6.30415">
        <ele>1376.851</ele>
        <time>2021-05-09T15:58:20Z</time>
      </trkpt>
      <trkpt lat="43.9329" lon="6.30423">
        <ele>1379.724</ele>
        <time>2021-05-09T15:58:17Z</time>
      </trkpt>
      <trkpt lat="43.93286" lon="6.30428">
        <ele>1381.43</ele>
        <time>2021-05-09T15:58:15Z</time>
      </trkpt>
      <trkpt lat="43.93282" lon="6.30433">
        <ele>1382.725</ele>
        <time>2021-05-09T15:58:13Z</time>
      </trkpt>
      <trkpt lat="43.93277" lon="6.30434">
        <ele>1382.608</ele>
        <time>2021-05-09T15:58:10Z</time>
      </trkpt>
      <trkpt lat="43.93273" lon="6.30431">
        <ele>1379.926</ele>
        <time>2021-05-09T15:58:08Z</time>
      </trkpt>
      <trkpt lat="43.93269" lon="6.30427">
        <ele>1377.006</ele>
        <time>2021-05-09T15:58:06Z</time>
      </trkpt>
      <trkpt lat="43.93262" lon="6.30426">
        <ele>1375.089</ele>
        <time>2021-05-09T15:58:04Z</time>
      </trkpt>
      <trkpt lat="43.93257" lon="6.30431">
        <ele>1376.13</ele>
        <time>2021-05-09T15:58:02Z</time>
      </trkpt>
      <trkpt lat="43.93252" lon="6.30436">
        <ele>1377.968</ele>
        <time>2021-05-09T15:58:00Z</time>
      </trkpt>
      <trkpt lat="43.93248" lon="6.30442">
        <ele>1380.616</ele>
        <time>2021-05-09T15:57:57Z</time>
      </trkpt>
      <trkpt lat="43.93243" lon="6.30446">
        <ele>1381.443</ele>
        <time>2021-05-09T15:57:54Z</time>
      </trkpt>
      <trkpt lat="43.93238" lon="6.30447">
        <ele>1381.268</ele>
        <time>2021-05-09T15:57:52Z</time>
      </trkpt>
      <trkpt lat="43.93229" lon="6.30443">
        <ele>1378.481</ele>
        <time>2021-05-09T15:57:50Z</time>
      </trkpt>
      <trkpt lat="43.93224" lon="6.30439">
        <ele>1376.027</ele>
        <time>2021-05-09T15:57:49Z</time>
      </trkpt>
      <trkpt lat="43.93218" lon="6.30436">
        <ele>1374.422</ele>
        <time>2021-05-09T15:57:48Z</time>
      </trkpt>
      <trkpt lat="43.93213" lon="6.30435">
        <ele>1374.108</ele>
        <time>2021-05-09T15:57:47Z</time>
      </trkpt>
      <trkpt lat="43.93209" lon="6.30437">
        <ele>1375.111</ele>
        <time>2021-05-09T15:57:46Z</time>
      </trkpt>
      <trkpt lat="43.93201" lon="6.30452">
        <ele>1378.956</ele>
        <time>2021-05-09T15:57:44Z</time>
      </trkpt>
      <trkpt lat="43.93196" lon="6.30471">
        <ele>1381.354</ele>
        <time>2021-05-09T15:57:42Z</time>
      </trkpt>
      <trkpt lat="43.93189" lon="6.30483">
        <ele>1382.193</ele>
        <time>2021-05-09T15:57:40Z</time>
      </trkpt>
      <trkpt lat="43.93177" lon="6.30487">
        <ele>1381.081</ele>
        <time>2021-05-09T15:57:38Z</time>
      </trkpt>
      <trkpt lat="43.9317" lon="6.30487">
        <ele>1379.949</ele>
        <time>2021-05-09T15:57:37Z</time>
      </trkpt>
      <trkpt lat="43.93157" lon="6.30491">
        <ele>1378.566</ele>
        <time>2021-05-09T15:57:35Z</time>
      </trkpt>
      <trkpt lat="43.93151" lon="6.30494">
        <ele>1378.261</ele>
        <time>2021-05-09T15:57:34Z</time>
      </trkpt>
      <trkpt lat="43.93139" lon="6.30503">
        <ele>1377.694</ele>
        <time>2021-05-09T15:57:32Z</time>
      </trkpt>
      <trkpt lat="43.9313" lon="6.30515">
        <ele>1379.17</ele>
        <time>2021-05-09T15:57:30Z</time>
      </trkpt>
      <trkpt lat="43.93127" lon="6.30522">
        <ele>1380.175</ele>
        <time>2021-05-09T15:57:29Z</time>
      </trkpt>
      <trkpt lat="43.93125" lon="6.30529">
        <ele>1381.408</ele>
        <time>2021-05-09T15:57:28Z</time>
      </trkpt>
      <trkpt lat="43.93121" lon="6.30547">
        <ele>1385.526</ele>
        <time>2021-05-09T15:57:26Z</time>
      </trkpt>
      <trkpt lat="43.93115" lon="6.30567">
        <ele>1389.46</ele>
        <time>2021-05-09T15:57:24Z</time>
      </trkpt>
      <trkpt lat="43.93106" lon="6.30585">
        <ele>1392.486</ele>
        <time>2021-05-09T15:57:22Z</time>
      </trkpt>
      <trkpt lat="43.93094" lon="6.30599">
        <ele>1392.857</ele>
        <time>2021-05-09T15:57:20Z</time>
      </trkpt>
      <trkpt lat="43.93088" lon="6.30605">
        <ele>1392.885</ele>
        <time>2021-05-09T15:57:19Z</time>
      </trkpt>
      <trkpt lat="43.93082" lon="6.30611">
        <ele>1392.513</ele>
        <time>2021-05-09T15:57:18Z</time>
      </trkpt>
      <trkpt lat="43.93072" lon="6.3062">
        <ele>1391.55</ele>
        <time>2021-05-09T15:57:16Z</time>
      </trkpt>
      <trkpt lat="43.93066" lon="6.30632">
        <ele>1391.975</ele>
        <time>2021-05-09T15:57:14Z</time>
      </trkpt>
      <trkpt lat="43.93065" lon="6.3064">
        <ele>1392.928</ele>
        <time>2021-05-09T15:57:13Z</time>
      </trkpt>
      <trkpt lat="43.93064" lon="6.30646">
        <ele>1394.334</ele>
        <time>2021-05-09T15:57:12Z</time>
      </trkpt>
      <trkpt lat="43.93061" lon="6.30656">
        <ele>1396.549</ele>
        <time>2021-05-09T15:57:10Z</time>
      </trkpt>
      <trkpt lat="43.93057" lon="6.30666">
        <ele>1398.708</ele>
        <time>2021-05-09T15:56:03Z</time>
      </trkpt>
      <trkpt lat="43.93061" lon="6.30668">
        <ele>1399.717</ele>
        <time>2021-05-09T15:56:00Z</time>
      </trkpt>
      <trkpt lat="43.93067" lon="6.30668">
        <ele>1399.889</ele>
        <time>2021-05-09T15:55:58Z</time>
      </trkpt>
      <trkpt lat="43.93078" lon="6.3066">
        <ele>1398.628</ele>
        <time>2021-05-09T15:55:56Z</time>
      </trkpt>
      <trkpt lat="43.93083" lon="6.30654">
        <ele>1398.241</ele>
        <time>2021-05-09T15:55:55Z</time>
      </trkpt>
      <trkpt lat="43.93093" lon="6.30643">
        <ele>1398.219</ele>
        <time>2021-05-09T15:55:53Z</time>
      </trkpt>
      <trkpt lat="43.93099" lon="6.30634">
        <ele>1398.257</ele>
        <time>2021-05-09T15:55:52Z</time>
      </trkpt>
      <trkpt lat="43.93103" lon="6.30631">
        <ele>1398.494</ele>
        <time>2021-05-09T15:55:50Z</time>
      </trkpt>
      <trkpt lat="43.93108" lon="6.3063">
        <ele>1399.269</ele>
        <time>2021-05-09T15:55:49Z</time>
      </trkpt>
      <trkpt lat="43.93121" lon="6.30635">
        <ele>1402.612</ele>
        <time>2021-05-09T15:55:47Z</time>
      </trkpt>
      <trkpt lat="43.93127" lon="6.30638">
        <ele>1404.158</ele>
        <time>2021-05-09T15:55:46Z</time>
      </trkpt>
      <trkpt lat="43.93136" lon="6.30638">
        <ele>1406.353</ele>
        <time>2021-05-09T15:55:44Z</time>
      </trkpt>
      <trkpt lat="43.9314" lon="6.30635">
        <ele>1407.008</ele>
        <time>2021-05-09T15:55:43Z</time>
      </trkpt>
      <trkpt lat="43.93144" lon="6.3063">
        <ele>1407.618</ele>
        <time>2021-05-09T15:55:42Z</time>
      </trkpt>
      <trkpt lat="43.93148" lon="6.30624">
        <ele>1408.344</ele>
        <time>2021-05-09T15:55:41Z</time>
      </trkpt>
      <trkpt lat="43.93155" lon="6.30613">
        <ele>1410.063</ele>
        <time>2021-05-09T15:55:39Z</time>
      </trkpt>
      <trkpt lat="43.93161" lon="6.30609">
        <ele>1412.027</ele>
        <time>2021-05-09T15:55:37Z</time>
      </trkpt>
      <trkpt lat="43.93165" lon="6.30612">
        <ele>1414.465</ele>
        <time>2021-05-09T15:55:35Z</time>
      </trkpt>
      <trkpt lat="43.93166" lon="6.3062">
        <ele>1415.053</ele>
        <time>2021-05-09T15:55:33Z</time>
      </trkpt>
      <trkpt lat="43.93166" lon="6.30628">
        <ele>1415.38</ele>
        <time>2021-05-09T15:55:32Z</time>
      </trkpt>
      <trkpt lat="43.93166" lon="6.30638">
        <ele>1415.795</ele>
        <time>2021-05-09T15:55:31Z</time>
      </trkpt>
      <trkpt lat="43.93167" lon="6.30649">
        <ele>1416.148</ele>
        <time>2021-05-09T15:55:30Z</time>
      </trkpt>
      <trkpt lat="43.93168" lon="6.30672">
        <ele>1417.014</ele>
        <time>2021-05-09T15:55:28Z</time>
      </trkpt>
      <trkpt lat="43.93167" lon="6.30695">
        <ele>1418.379</ele>
        <time>2021-05-09T15:55:26Z</time>
      </trkpt>
      <trkpt lat="43.93165" lon="6.30706">
        <ele>1419.308</ele>
        <time>2021-05-09T15:55:25Z</time>
      </trkpt>
      <trkpt lat="43.93158" lon="6.30726">
        <ele>1421.208</ele>
        <time>2021-05-09T15:55:23Z</time>
      </trkpt>
      <trkpt lat="43.93154" lon="6.30736">
        <ele>1422.662</ele>
        <time>2021-05-09T15:55:22Z</time>
      </trkpt>
      <trkpt lat="43.93146" lon="6.30753">
        <ele>1425.022</ele>
        <time>2021-05-09T15:55:20Z</time>
      </trkpt>
      <trkpt lat="43.93141" lon="6.3076">
        <ele>1425.633</ele>
        <time>2021-05-09T15:55:19Z</time>
      </trkpt>
      <trkpt lat="43.93135" lon="6.30767">
        <ele>1426.061</ele>
        <time>2021-05-09T15:55:18Z</time>
      </trkpt>
      <trkpt lat="43.93124" lon="6.3078">
        <ele>1426.879</ele>
        <time>2021-05-09T15:55:16Z</time>
      </trkpt>
      <trkpt lat="43.93113" lon="6.30792">
        <ele>1427.446</ele>
        <time>2021-05-09T15:55:14Z</time>
      </trkpt>
      <trkpt lat="43.93106" lon="6.30801">
        <ele>1428.681</ele>
        <time>2021-05-09T15:55:12Z</time>
      </trkpt>
      <trkpt lat="43.93104" lon="6.3081">
        <ele>1430.444</ele>
        <time>2021-05-09T15:55:10Z</time>
      </trkpt>
      <trkpt lat="43.93108" lon="6.30813">
        <ele>1431.41</ele>
        <time>2021-05-09T15:55:08Z</time>
      </trkpt>
      <trkpt lat="43.93118" lon="6.30812">
        <ele>1432.745</ele>
        <time>2021-05-09T15:55:06Z</time>
      </trkpt>
      <trkpt lat="43.93124" lon="6.3081">
        <ele>1433.908</ele>
        <time>2021-05-09T15:55:05Z</time>
      </trkpt>
      <trkpt lat="43.93131" lon="6.30808">
        <ele>1435.017</ele>
        <time>2021-05-09T15:55:04Z</time>
      </trkpt>
      <trkpt lat="43.93145" lon="6.30805">
        <ele>1437.289</ele>
        <time>2021-05-09T15:55:02Z</time>
      </trkpt>
      <trkpt lat="43.93159" lon="6.308">
        <ele>1439.685</ele>
        <time>2021-05-09T15:55:00Z</time>
      </trkpt>
      <trkpt lat="43.93174" lon="6.30794">
        <ele>1441.42</ele>
        <time>2021-05-09T15:54:58Z</time>
      </trkpt>
      <trkpt lat="43.93186" lon="6.30786">
        <ele>1441.848</ele>
        <time>2021-05-09T15:54:56Z</time>
      </trkpt>
      <trkpt lat="43.93191" lon="6.30782">
        <ele>1441.636</ele>
        <time>2021-05-09T15:54:55Z</time>
      </trkpt>
      <trkpt lat="43.93195" lon="6.30778">
        <ele>1441.163</ele>
        <time>2021-05-09T15:54:54Z</time>
      </trkpt>
      <trkpt lat="43.93203" lon="6.30769">
        <ele>1441.948</ele>
        <time>2021-05-09T15:54:52Z</time>
      </trkpt>
      <trkpt lat="43.93214" lon="6.30762">
        <ele>1443.761</ele>
        <time>2021-05-09T15:54:50Z</time>
      </trkpt>
      <trkpt lat="43.93225" lon="6.30754">
        <ele>1445.817</ele>
        <time>2021-05-09T15:54:48Z</time>
      </trkpt>
      <trkpt lat="43.93235" lon="6.30744">
        <ele>1448.412</ele>
        <time>2021-05-09T15:54:46Z</time>
      </trkpt>
      <trkpt lat="43.93242" lon="6.30731">
        <ele>1449.308</ele>
        <time>2021-05-09T15:54:44Z</time>
      </trkpt>
      <trkpt lat="43.93246" lon="6.30723">
        <ele>1449.114</ele>
        <time>2021-05-09T15:54:43Z</time>
      </trkpt>
      <trkpt lat="43.93249" lon="6.30715">
        <ele>1449.359</ele>
        <time>2021-05-09T15:54:42Z</time>
      </trkpt>
      <trkpt lat="43.93254" lon="6.30698">
        <ele>1449.756</ele>
        <time>2021-05-09T15:54:40Z</time>
      </trkpt>
      <trkpt lat="43.93257" lon="6.30679">
        <ele>1451.042</ele>
        <time>2021-05-09T15:54:38Z</time>
      </trkpt>
      <trkpt lat="43.93259" lon="6.3066">
        <ele>1451.37</ele>
        <time>2021-05-09T15:54:36Z</time>
      </trkpt>
      <trkpt lat="43.93263" lon="6.30644">
        <ele>1450.978</ele>
        <time>2021-05-09T15:54:34Z</time>
      </trkpt>
      <trkpt lat="43.93265" lon="6.30638">
        <ele>1450.515</ele>
        <time>2021-05-09T15:54:33Z</time>
      </trkpt>
      <trkpt lat="43.93268" lon="6.30633">
        <ele>1449.77</ele>
        <time>2021-05-09T15:54:32Z</time>
      </trkpt>
      <trkpt lat="43.93272" lon="6.30628">
        <ele>1449.473</ele>
        <time>2021-05-09T15:54:31Z</time>
      </trkpt>
      <trkpt lat="43.93282" lon="6.30621">
        <ele>1449.999</ele>
        <time>2021-05-09T15:54:29Z</time>
      </trkpt>
      <trkpt lat="43.93293" lon="6.30616">
        <ele>1451.054</ele>
        <time>2021-05-09T15:54:27Z</time>
      </trkpt>
      <trkpt lat="43.93298" lon="6.30614">
        <ele>1451.408</ele>
        <time>2021-05-09T15:54:26Z</time>
      </trkpt>
      <trkpt lat="43.93309" lon="6.30608">
        <ele>1451.913</ele>
        <time>2021-05-09T15:54:24Z</time>
      </trkpt>
      <trkpt lat="43.93321" lon="6.30602">
        <ele>1452.785</ele>
        <time>2021-05-09T15:54:22Z</time>
      </trkpt>
      <trkpt lat="43.93332" lon="6.30595">
        <ele>1453.373</ele>
        <time>2021-05-09T15:54:20Z</time>
      </trkpt>
      <trkpt lat="43.93346" lon="6.30588">
        <ele>1455.014</ele>
        <time>2021-05-09T15:54:18Z</time>
      </trkpt>
      <trkpt lat="43.93352" lon="6.30584">
        <ele>1455.532</ele>
        <time>2021-05-09T15:54:17Z</time>
      </trkpt>
      <trkpt lat="43.93358" lon="6.30581">
        <ele>1455.77</ele>
        <time>2021-05-09T15:54:16Z</time>
      </trkpt>
      <trkpt lat="43.93366" lon="6.30574">
        <ele>1454.337</ele>
        <time>2021-05-09T15:54:14Z</time>
      </trkpt>
      <trkpt lat="43.93373" lon="6.30568">
        <ele>1452.422</ele>
        <time>2021-05-09T15:54:12Z</time>
      </trkpt>
      <trkpt lat="43.93379" lon="6.30565">
        <ele>1451.995</ele>
        <time>2021-05-09T15:54:10Z</time>
      </trkpt>
      <trkpt lat="43.9339" lon="6.30568">
        <ele>1454.711</ele>
        <time>2021-05-09T15:54:08Z</time>
      </trkpt>
      <trkpt lat="43.93405" lon="6.30573">
        <ele>1456.886</ele>
        <time>2021-05-09T15:54:06Z</time>
      </trkpt>
      <trkpt lat="43.93418" lon="6.30576">
        <ele>1458.308</ele>
        <time>2021-05-09T15:53:42Z</time>
      </trkpt>
      <trkpt lat="43.93425" lon="6.30577">
        <ele>1459.427</ele>
        <time>2021-05-09T15:53:40Z</time>
      </trkpt>
      <trkpt lat="43.93432" lon="6.30579">
        <ele>1460.607</ele>
        <time>2021-05-09T15:53:38Z</time>
      </trkpt>
      <trkpt lat="43.93439" lon="6.3058">
        <ele>1461.399</ele>
        <time>2021-05-09T15:53:36Z</time>
      </trkpt>
      <trkpt lat="43.93446" lon="6.30581">
        <ele>1462.031</ele>
        <time>2021-05-09T15:53:34Z</time>
      </trkpt>
      <trkpt lat="43.93452" lon="6.3058">
        <ele>1462.049</ele>
        <time>2021-05-09T15:53:33Z</time>
      </trkpt>
      <trkpt lat="43.93463" lon="6.30579">
        <ele>1462.057</ele>
        <time>2021-05-09T15:53:31Z</time>
      </trkpt>
      <trkpt lat="43.93475" lon="6.30574">
        <ele>1461.154</ele>
        <time>2021-05-09T15:53:29Z</time>
      </trkpt>
      <trkpt lat="43.9348" lon="6.30571">
        <ele>1460.949</ele>
        <time>2021-05-09T15:53:28Z</time>
      </trkpt>
      <trkpt lat="43.9349" lon="6.30564">
        <ele>1460.262</ele>
        <time>2021-05-09T15:53:26Z</time>
      </trkpt>
      <trkpt lat="43.93495" lon="6.30562">
        <ele>1460.128</ele>
        <time>2021-05-09T15:53:25Z</time>
      </trkpt>
      <trkpt lat="43.93504" lon="6.30558">
        <ele>1460.073</ele>
        <time>2021-05-09T15:53:23Z</time>
      </trkpt>
      <trkpt lat="43.9351" lon="6.30559">
        <ele>1460.608</ele>
        <time>2021-05-09T15:53:22Z</time>
      </trkpt>
      <trkpt lat="43.93523" lon="6.30564">
        <ele>1463.321</ele>
        <time>2021-05-09T15:53:20Z</time>
      </trkpt>
      <trkpt lat="43.93531" lon="6.30567">
        <ele>1464.629</ele>
        <time>2021-05-09T15:53:19Z</time>
      </trkpt>
      <trkpt lat="43.93539" lon="6.30567">
        <ele>1464.666</ele>
        <time>2021-05-09T15:53:18Z</time>
      </trkpt>
      <trkpt lat="43.93557" lon="6.30564">
        <ele>1462.667</ele>
        <time>2021-05-09T15:53:16Z</time>
      </trkpt>
      <trkpt lat="43.93575" lon="6.30559">
        <ele>1460.625</ele>
        <time>2021-05-09T15:53:14Z</time>
      </trkpt>
      <trkpt lat="43.93585" lon="6.30556">
        <ele>1459.473</ele>
        <time>2021-05-09T15:53:13Z</time>
      </trkpt>
      <trkpt lat="43.93594" lon="6.30554">
        <ele>1459.16</ele>
        <time>2021-05-09T15:53:12Z</time>
      </trkpt>
      <trkpt lat="43.93603" lon="6.30551">
        <ele>1458.985</ele>
        <time>2021-05-09T15:53:11Z</time>
      </trkpt>
      <trkpt lat="43.93611" lon="6.30549">
        <ele>1458.748</ele>
        <time>2021-05-09T15:53:10Z</time>
      </trkpt>
      <trkpt lat="43.93626" lon="6.30549">
        <ele>1458.494</ele>
        <time>2021-05-09T15:53:08Z</time>
      </trkpt>
      <trkpt lat="43.93641" lon="6.30549">
        <ele>1458.179</ele>
        <time>2021-05-09T15:53:06Z</time>
      </trkpt>
      <trkpt lat="43.93647" lon="6.30547">
        <ele>1457.008</ele>
        <time>2021-05-09T15:53:05Z</time>
      </trkpt>
      <trkpt lat="43.93654" lon="6.30544">
        <ele>1455.705</ele>
        <time>2021-05-09T15:53:04Z</time>
      </trkpt>
      <trkpt lat="43.93669" lon="6.30542">
        <ele>1454.341</ele>
        <time>2021-05-09T15:53:02Z</time>
      </trkpt>
      <trkpt lat="43.93677" lon="6.30543">
        <ele>1454.521</ele>
        <time>2021-05-09T15:53:01Z</time>
      </trkpt>
      <trkpt lat="43.93692" lon="6.30545">
        <ele>1454.664</ele>
        <time>2021-05-09T15:52:59Z</time>
      </trkpt>
      <trkpt lat="43.93699" lon="6.30546">
        <ele>1453.942</ele>
        <time>2021-05-09T15:52:58Z</time>
      </trkpt>
      <trkpt lat="43.93712" lon="6.30549">
        <ele>1452.84</ele>
        <time>2021-05-09T15:52:56Z</time>
      </trkpt>
      <trkpt lat="43.93723" lon="6.30557">
        <ele>1453.447</ele>
        <time>2021-05-09T15:52:54Z</time>
      </trkpt>
      <trkpt lat="43.93732" lon="6.30569">
        <ele>1453.792</ele>
        <time>2021-05-09T15:52:52Z</time>
      </trkpt>
      <trkpt lat="43.93744" lon="6.30579">
        <ele>1453.285</ele>
        <time>2021-05-09T15:52:50Z</time>
      </trkpt>
      <trkpt lat="43.93756" lon="6.30587">
        <ele>1450.891</ele>
        <time>2021-05-09T15:52:48Z</time>
      </trkpt>
      <trkpt lat="43.93766" lon="6.30594">
        <ele>1448.276</ele>
        <time>2021-05-09T15:52:46Z</time>
      </trkpt>
      <trkpt lat="43.93777" lon="6.306">
        <ele>1446.108</ele>
        <time>2021-05-09T15:52:44Z</time>
      </trkpt>
      <trkpt lat="43.93791" lon="6.30607">
        <ele>1443.72</ele>
        <time>2021-05-09T15:52:42Z</time>
      </trkpt>
      <trkpt lat="43.93807" lon="6.30612">
        <ele>1439.973</ele>
        <time>2021-05-09T15:52:40Z</time>
      </trkpt>
      <trkpt lat="43.93822" lon="6.30616">
        <ele>1438.992</ele>
        <time>2021-05-09T15:52:38Z</time>
      </trkpt>
      <trkpt lat="43.93829" lon="6.30617">
        <ele>1438.472</ele>
        <time>2021-05-09T15:52:37Z</time>
      </trkpt>
      <trkpt lat="43.93836" lon="6.30618">
        <ele>1437.51</ele>
        <time>2021-05-09T15:52:36Z</time>
      </trkpt>
      <trkpt lat="43.9385" lon="6.30619">
        <ele>1435.098</ele>
        <time>2021-05-09T15:52:34Z</time>
      </trkpt>
      <trkpt lat="43.93864" lon="6.30618">
        <ele>1432.795</ele>
        <time>2021-05-09T15:52:32Z</time>
      </trkpt>
      <trkpt lat="43.93879" lon="6.30617">
        <ele>1430.35</ele>
        <time>2021-05-09T15:52:30Z</time>
      </trkpt>
      <trkpt lat="43.93891" lon="6.30617">
        <ele>1428.613</ele>
        <time>2021-05-09T15:52:28Z</time>
      </trkpt>
      <trkpt lat="43.93903" lon="6.30617">
        <ele>1428.789</ele>
        <time>2021-05-09T15:52:26Z</time>
      </trkpt>
      <trkpt lat="43.93915" lon="6.30616">
        <ele>1429.024</ele>
        <time>2021-05-09T15:52:24Z</time>
      </trkpt>
      <trkpt lat="43.93925" lon="6.30616">
        <ele>1429.108</ele>
        <time>2021-05-09T15:52:22Z</time>
      </trkpt>
      <trkpt lat="43.93938" lon="6.30616">
        <ele>1429.213</ele>
        <time>2021-05-09T15:52:20Z</time>
      </trkpt>
      <trkpt lat="43.93945" lon="6.30614">
        <ele>1429.485</ele>
        <time>2021-05-09T15:52:19Z</time>
      </trkpt>
      <trkpt lat="43.93953" lon="6.30612">
        <ele>1429.873</ele>
        <time>2021-05-09T15:52:18Z</time>
      </trkpt>
      <trkpt lat="43.93969" lon="6.30607">
        <ele>1428.912</ele>
        <time>2021-05-09T15:51:15Z</time>
      </trkpt>
      <trkpt lat="43.93966" lon="6.30613">
        <ele>1429.63</ele>
        <time>2021-05-09T15:50:44Z</time>
      </trkpt>
      <trkpt lat="43.93971" lon="6.30612">
        <ele>1429.818</ele>
        <time>2021-05-09T15:50:42Z</time>
      </trkpt>
      <trkpt lat="43.93976" lon="6.30612">
        <ele>1429.575</ele>
        <time>2021-05-09T15:50:39Z</time>
      </trkpt>
      <trkpt lat="43.93981" lon="6.30616">
        <ele>1428.45</ele>
        <time>2021-05-09T15:49:21Z</time>
      </trkpt>
      <trkpt lat="43.93977" lon="6.30613">
        <ele>1429.383</ele>
        <time>2021-05-09T15:48:18Z</time>
      </trkpt>
      <trkpt lat="43.93972" lon="6.30615">
        <ele>1429.319</ele>
        <time>2021-05-09T15:48:13Z</time>
      </trkpt>
      <trkpt lat="43.93967" lon="6.30614">
        <ele>1429.684</ele>
        <time>2021-05-09T15:46:45Z</time>
      </trkpt>
      <trkpt lat="43.93968" lon="6.30623">
        <ele>1427.908</ele>
        <time>2021-05-09T15:46:42Z</time>
      </trkpt>
      <trkpt lat="43.93964" lon="6.30624">
        <ele>1427.619</ele>
        <time>2021-05-09T15:46:40Z</time>
      </trkpt>
      <trkpt lat="43.93957" lon="6.30623">
        <ele>1427.99</ele>
        <time>2021-05-09T15:46:38Z</time>
      </trkpt>
      <trkpt lat="43.93951" lon="6.30624">
        <ele>1427.776</ele>
        <time>2021-05-09T15:46:37Z</time>
      </trkpt>
      <trkpt lat="43.93943" lon="6.30626">
        <ele>1427.331</ele>
        <time>2021-05-09T15:46:36Z</time>
      </trkpt>
      <trkpt lat="43.93927" lon="6.30631">
        <ele>1426.139</ele>
        <time>2021-05-09T15:46:34Z</time>
      </trkpt>
      <trkpt lat="43.93918" lon="6.30633">
        <ele>1425.477</ele>
        <time>2021-05-09T15:46:33Z</time>
      </trkpt>
      <trkpt lat="43.9391" lon="6.30635">
        <ele>1425.584</ele>
        <time>2021-05-09T15:46:32Z</time>
      </trkpt>
      <trkpt lat="43.93892" lon="6.30641">
        <ele>1425.889</ele>
        <time>2021-05-09T15:46:30Z</time>
      </trkpt>
      <trkpt lat="43.93874" lon="6.3065">
        <ele>1423.742</ele>
        <time>2021-05-09T15:46:28Z</time>
      </trkpt>
      <trkpt lat="43.93857" lon="6.3066">
        <ele>1421.098</ele>
        <time>2021-05-09T15:46:26Z</time>
      </trkpt>
      <trkpt lat="43.93842" lon="6.30671">
        <ele>1418.363</ele>
        <time>2021-05-09T15:46:24Z</time>
      </trkpt>
      <trkpt lat="43.93834" lon="6.30677">
        <ele>1417.008</ele>
        <time>2021-05-09T15:46:23Z</time>
      </trkpt>
      <trkpt lat="43.93826" lon="6.30682">
        <ele>1416.221</ele>
        <time>2021-05-09T15:46:22Z</time>
      </trkpt>
      <trkpt lat="43.93811" lon="6.30691">
        <ele>1415.529</ele>
        <time>2021-05-09T15:46:20Z</time>
      </trkpt>
      <trkpt lat="43.93796" lon="6.30701">
        <ele>1414.766</ele>
        <time>2021-05-09T15:46:18Z</time>
      </trkpt>
      <trkpt lat="43.9378" lon="6.30713">
        <ele>1413.371</ele>
        <time>2021-05-09T15:46:16Z</time>
      </trkpt>
      <trkpt lat="43.93765" lon="6.30726">
        <ele>1411.979</ele>
        <time>2021-05-09T15:46:14Z</time>
      </trkpt>
      <trkpt lat="43.9375" lon="6.30741">
        <ele>1409.037</ele>
        <time>2021-05-09T15:46:12Z</time>
      </trkpt>
      <trkpt lat="43.93742" lon="6.30749">
        <ele>1407.824</ele>
        <time>2021-05-09T15:46:11Z</time>
      </trkpt>
      <trkpt lat="43.93735" lon="6.30758">
        <ele>1406.969</ele>
        <time>2021-05-09T15:46:10Z</time>
      </trkpt>
      <trkpt lat="43.93722" lon="6.30775">
        <ele>1403.642</ele>
        <time>2021-05-09T15:46:08Z</time>
      </trkpt>
      <trkpt lat="43.93709" lon="6.30791">
        <ele>1402.688</ele>
        <time>2021-05-09T15:46:06Z</time>
      </trkpt>
      <trkpt lat="43.93696" lon="6.30805">
        <ele>1400.993</ele>
        <time>2021-05-09T15:46:04Z</time>
      </trkpt>
      <trkpt lat="43.93685" lon="6.30817">
        <ele>1401.208</ele>
        <time>2021-05-09T15:46:02Z</time>
      </trkpt>
      <trkpt lat="43.9368" lon="6.30823">
        <ele>1400.811</ele>
        <time>2021-05-09T15:46:01Z</time>
      </trkpt>
      <trkpt lat="43.93673" lon="6.30828">
        <ele>1400.583</ele>
        <time>2021-05-09T15:45:59Z</time>
      </trkpt>
      <trkpt lat="43.93667" lon="6.30835">
        <ele>1399.362</ele>
        <time>2021-05-09T15:45:57Z</time>
      </trkpt>
      <trkpt lat="43.93668" lon="6.30842">
        <ele>1397.034</ele>
        <time>2021-05-09T15:45:55Z</time>
      </trkpt>
      <trkpt lat="43.93673" lon="6.30841">
        <ele>1395.762</ele>
        <time>2021-05-09T15:45:52Z</time>
      </trkpt>
      <trkpt lat="43.93682" lon="6.30833">
        <ele>1395.57</ele>
        <time>2021-05-09T15:45:50Z</time>
      </trkpt>
      <trkpt lat="43.93696" lon="6.30822">
        <ele>1395.127</ele>
        <time>2021-05-09T15:45:48Z</time>
      </trkpt>
      <trkpt lat="43.93713" lon="6.30809">
        <ele>1393.972</ele>
        <time>2021-05-09T15:45:46Z</time>
      </trkpt>
      <trkpt lat="43.9373" lon="6.30796">
        <ele>1393.065</ele>
        <time>2021-05-09T15:45:44Z</time>
      </trkpt>
      <trkpt lat="43.93739" lon="6.30789">
        <ele>1392.791</ele>
        <time>2021-05-09T15:45:43Z</time>
      </trkpt>
      <trkpt lat="43.93756" lon="6.30777">
        <ele>1391.776</ele>
        <time>2021-05-09T15:45:41Z</time>
      </trkpt>
      <trkpt lat="43.93764" lon="6.30772">
        <ele>1391.208</ele>
        <time>2021-05-09T15:45:40Z</time>
      </trkpt>
      <trkpt lat="43.93782" lon="6.30763">
        <ele>1389.72</ele>
        <time>2021-05-09T15:45:38Z</time>
      </trkpt>
      <trkpt lat="43.93798" lon="6.30756">
        <ele>1387.673</ele>
        <time>2021-05-09T15:45:36Z</time>
      </trkpt>
      <trkpt lat="43.93815" lon="6.30752">
        <ele>1385.292</ele>
        <time>2021-05-09T15:45:34Z</time>
      </trkpt>
      <trkpt lat="43.9383" lon="6.30749">
        <ele>1383.27</ele>
        <time>2021-05-09T15:45:32Z</time>
      </trkpt>
      <trkpt lat="43.93837" lon="6.30748">
        <ele>1382.258</ele>
        <time>2021-05-09T15:45:31Z</time>
      </trkpt>
      <trkpt lat="43.93848" lon="6.30746">
        <ele>1381.196</ele>
        <time>2021-05-09T15:45:29Z</time>
      </trkpt>
      <trkpt lat="43.93855" lon="6.30744">
        <ele>1380.773</ele>
        <time>2021-05-09T15:45:27Z</time>
      </trkpt>
      <trkpt lat="43.93861" lon="6.3074">
        <ele>1381.228</ele>
        <time>2021-05-09T15:44:15Z</time>
      </trkpt>
      <trkpt lat="43.93868" lon="6.30738">
        <ele>1380.981</ele>
        <time>2021-05-09T15:44:13Z</time>
      </trkpt>
      <trkpt lat="43.93874" lon="6.30742">
        <ele>1378.197</ele>
        <time>2021-05-09T15:44:09Z</time>
      </trkpt>
      <trkpt lat="43.93868" lon="6.30746">
        <ele>1377.412</ele>
        <time>2021-05-09T15:44:07Z</time>
      </trkpt>
      <trkpt lat="43.93862" lon="6.30748">
        <ele>1377.608</ele>
        <time>2021-05-09T15:44:06Z</time>
      </trkpt>
      <trkpt lat="43.9385" lon="6.30755">
        <ele>1376.811</ele>
        <time>2021-05-09T15:44:04Z</time>
      </trkpt>
      <trkpt lat="43.93838" lon="6.30763">
        <ele>1375.456</ele>
        <time>2021-05-09T15:44:02Z</time>
      </trkpt>
      <trkpt lat="43.93825" lon="6.30771">
        <ele>1374.754</ele>
        <time>2021-05-09T15:44:00Z</time>
      </trkpt>
      <trkpt lat="43.9382" lon="6.30775">
        <ele>1374.777</ele>
        <time>2021-05-09T15:43:59Z</time>
      </trkpt>
      <trkpt lat="43.93814" lon="6.30778">
        <ele>1374.885</ele>
        <time>2021-05-09T15:43:58Z</time>
      </trkpt>
      <trkpt lat="43.93801" lon="6.30786">
        <ele>1374.483</ele>
        <time>2021-05-09T15:43:56Z</time>
      </trkpt>
      <trkpt lat="43.93794" lon="6.30791">
        <ele>1374.16</ele>
        <time>2021-05-09T15:43:55Z</time>
      </trkpt>
      <trkpt lat="43.93783" lon="6.30802">
        <ele>1372.435</ele>
        <time>2021-05-09T15:43:53Z</time>
      </trkpt>
      <trkpt lat="43.93778" lon="6.30808">
        <ele>1370.818</ele>
        <time>2021-05-09T15:43:52Z</time>
      </trkpt>
      <trkpt lat="43.93769" lon="6.30821">
        <ele>1368.494</ele>
        <time>2021-05-09T15:43:50Z</time>
      </trkpt>
      <trkpt lat="43.93761" lon="6.30833">
        <ele>1366.379</ele>
        <time>2021-05-09T15:43:48Z</time>
      </trkpt>
      <trkpt lat="43.93753" lon="6.30846">
        <ele>1364.308</ele>
        <time>2021-05-09T15:43:46Z</time>
      </trkpt>
      <trkpt lat="43.93742" lon="6.30864">
        <ele>1361.705</ele>
        <time>2021-05-09T15:43:44Z</time>
      </trkpt>
      <trkpt lat="43.93736" lon="6.30876">
        <ele>1359.941</ele>
        <time>2021-05-09T15:43:43Z</time>
      </trkpt>
      <trkpt lat="43.93726" lon="6.30897">
        <ele>1356.221</ele>
        <time>2021-05-09T15:43:41Z</time>
      </trkpt>
      <trkpt lat="43.93721" lon="6.30908">
        <ele>1354.117</ele>
        <time>2021-05-09T15:43:40Z</time>
      </trkpt>
      <trkpt lat="43.93712" lon="6.30927">
        <ele>1350.645</ele>
        <time>2021-05-09T15:43:38Z</time>
      </trkpt>
      <trkpt lat="43.93706" lon="6.30937">
        <ele>1349.013</ele>
        <time>2021-05-09T15:43:37Z</time>
      </trkpt>
      <trkpt lat="43.93701" lon="6.30947">
        <ele>1347.39</ele>
        <time>2021-05-09T15:43:36Z</time>
      </trkpt>
      <trkpt lat="43.93689" lon="6.30966">
        <ele>1344.765</ele>
        <time>2021-05-09T15:43:34Z</time>
      </trkpt>
      <trkpt lat="43.93676" lon="6.30982">
        <ele>1343.688</ele>
        <time>2021-05-09T15:43:32Z</time>
      </trkpt>
      <trkpt lat="43.93669" lon="6.3099">
        <ele>1343.454</ele>
        <time>2021-05-09T15:43:31Z</time>
      </trkpt>
      <trkpt lat="43.93661" lon="6.30998">
        <ele>1343.139</ele>
        <time>2021-05-09T15:43:30Z</time>
      </trkpt>
      <trkpt lat="43.93647" lon="6.31014">
        <ele>1341.808</ele>
        <time>2021-05-09T15:43:28Z</time>
      </trkpt>
      <trkpt lat="43.93641" lon="6.31021">
        <ele>1340.808</ele>
        <time>2021-05-09T15:43:27Z</time>
      </trkpt>
      <trkpt lat="43.93635" lon="6.31028">
        <ele>1339.626</ele>
        <time>2021-05-09T15:43:26Z</time>
      </trkpt>
      <trkpt lat="43.9362" lon="6.31041">
        <ele>1337.925</ele>
        <time>2021-05-09T15:43:24Z</time>
      </trkpt>
      <trkpt lat="43.93604" lon="6.31051">
        <ele>1336.759</ele>
        <time>2021-05-09T15:43:22Z</time>
      </trkpt>
      <trkpt lat="43.93588" lon="6.31061">
        <ele>1334.697</ele>
        <time>2021-05-09T15:43:20Z</time>
      </trkpt>
      <trkpt lat="43.93574" lon="6.31071">
        <ele>1332.715</ele>
        <time>2021-05-09T15:43:18Z</time>
      </trkpt>
      <trkpt lat="43.93567" lon="6.31076">
        <ele>1332.252</ele>
        <time>2021-05-09T15:43:17Z</time>
      </trkpt>
      <trkpt lat="43.93562" lon="6.3108">
        <ele>1331.847</ele>
        <time>2021-05-09T15:43:16Z</time>
      </trkpt>
      <trkpt lat="43.93552" lon="6.31088">
        <ele>1330.29</ele>
        <time>2021-05-09T15:43:14Z</time>
      </trkpt>
      <trkpt lat="43.93543" lon="6.31096">
        <ele>1328.196</ele>
        <time>2021-05-09T15:43:12Z</time>
      </trkpt>
      <trkpt lat="43.93534" lon="6.31102">
        <ele>1327.211</ele>
        <time>2021-05-09T15:43:10Z</time>
      </trkpt>
      <trkpt lat="43.93528" lon="6.31106">
        <ele>1326.808</ele>
        <time>2021-05-09T15:43:09Z</time>
      </trkpt>
      <trkpt lat="43.93518" lon="6.31113">
        <ele>1326.109</ele>
        <time>2021-05-09T15:43:07Z</time>
      </trkpt>
      <trkpt lat="43.93515" lon="6.31119">
        <ele>1323.881</ele>
        <time>2021-05-09T15:43:05Z</time>
      </trkpt>
      <trkpt lat="43.93509" lon="6.31126">
        <ele>1322.441</ele>
        <time>2021-05-09T15:43:03Z</time>
      </trkpt>
      <trkpt lat="43.93504" lon="6.31132">
        <ele>1321.277</ele>
        <time>2021-05-09T15:43:01Z</time>
      </trkpt>
      <trkpt lat="43.935" lon="6.31136">
        <ele>1320.335</ele>
        <time>2021-05-09T15:42:59Z</time>
      </trkpt>
      <trkpt lat="43.93494" lon="6.31148">
        <ele>1319.853</ele>
        <time>2021-05-09T15:42:57Z</time>
      </trkpt>
      <trkpt lat="43.93489" lon="6.31164">
        <ele>1319.09</ele>
        <time>2021-05-09T15:42:55Z</time>
      </trkpt>
      <trkpt lat="43.93482" lon="6.3118">
        <ele>1318.215</ele>
        <time>2021-05-09T15:42:53Z</time>
      </trkpt>
      <trkpt lat="43.93479" lon="6.31187">
        <ele>1317.718</ele>
        <time>2021-05-09T15:42:52Z</time>
      </trkpt>
      <trkpt lat="43.93472" lon="6.31199">
        <ele>1316.714</ele>
        <time>2021-05-09T15:42:50Z</time>
      </trkpt>
      <trkpt lat="43.93469" lon="6.31205">
        <ele>1316.689</ele>
        <time>2021-05-09T15:42:49Z</time>
      </trkpt>
      <trkpt lat="43.93465" lon="6.31211">
        <ele>1316.608</ele>
        <time>2021-05-09T15:42:48Z</time>
      </trkpt>
      <trkpt lat="43.93458" lon="6.31223">
        <ele>1316.417</ele>
        <time>2021-05-09T15:42:46Z</time>
      </trkpt>
      <trkpt lat="43.9345" lon="6.31237">
        <ele>1317.789</ele>
        <time>2021-05-09T15:42:44Z</time>
      </trkpt>
      <trkpt lat="43.93445" lon="6.31245">
        <ele>1318.828</ele>
        <time>2021-05-09T15:42:43Z</time>
      </trkpt>
      <trkpt lat="43.93432" lon="6.31263">
        <ele>1320.233</ele>
        <time>2021-05-09T15:42:41Z</time>
      </trkpt>
      <trkpt lat="43.93426" lon="6.31273">
        <ele>1321.031</ele>
        <time>2021-05-09T15:42:40Z</time>
      </trkpt>
      <trkpt lat="43.93411" lon="6.31296">
        <ele>1322.159</ele>
        <time>2021-05-09T15:42:38Z</time>
      </trkpt>
      <trkpt lat="43.93395" lon="6.31318">
        <ele>1322.856</ele>
        <time>2021-05-09T15:42:36Z</time>
      </trkpt>
      <trkpt lat="43.93386" lon="6.31328">
        <ele>1323.561</ele>
        <time>2021-05-09T15:42:35Z</time>
      </trkpt>
      <trkpt lat="43.93368" lon="6.3135">
        <ele>1326.424</ele>
        <time>2021-05-09T15:42:33Z</time>
      </trkpt>
      <trkpt lat="43.93349" lon="6.31373">
        <ele>1329.66</ele>
        <time>2021-05-09T15:42:31Z</time>
      </trkpt>
      <trkpt lat="43.9334" lon="6.31385">
        <ele>1330.945</ele>
        <time>2021-05-09T15:42:30Z</time>
      </trkpt>
      <trkpt lat="43.93331" lon="6.31397">
        <ele>1332.308</ele>
        <time>2021-05-09T15:42:29Z</time>
      </trkpt>
      <trkpt lat="43.93323" lon="6.3141">
        <ele>1333.326</ele>
        <time>2021-05-09T15:42:28Z</time>
      </trkpt>
      <trkpt lat="43.93309" lon="6.31436">
        <ele>1334.842</ele>
        <time>2021-05-09T15:42:26Z</time>
      </trkpt>
      <trkpt lat="43.93303" lon="6.31451">
        <ele>1335.987</ele>
        <time>2021-05-09T15:42:25Z</time>
      </trkpt>
      <trkpt lat="43.93292" lon="6.31479">
        <ele>1339.844</ele>
        <time>2021-05-09T15:42:23Z</time>
      </trkpt>
      <trkpt lat="43.93287" lon="6.31493">
        <ele>1341.382</ele>
        <time>2021-05-09T15:42:22Z</time>
      </trkpt>
      <trkpt lat="43.93279" lon="6.31521">
        <ele>1344.66</ele>
        <time>2021-05-09T15:42:20Z</time>
      </trkpt>
      <trkpt lat="43.93274" lon="6.31549">
        <ele>1344.777</ele>
        <time>2021-05-09T15:42:18Z</time>
      </trkpt>
      <trkpt lat="43.93272" lon="6.31562">
        <ele>1344.812</ele>
        <time>2021-05-09T15:42:17Z</time>
      </trkpt>
      <trkpt lat="43.93269" lon="6.31574">
        <ele>1345.575</ele>
        <time>2021-05-09T15:42:16Z</time>
      </trkpt>
      <trkpt lat="43.93262" lon="6.31595">
        <ele>1347.731</ele>
        <time>2021-05-09T15:42:14Z</time>
      </trkpt>
      <trkpt lat="43.93257" lon="6.31606">
        <ele>1349.416</ele>
        <time>2021-05-09T15:42:13Z</time>
      </trkpt>
      <trkpt lat="43.93252" lon="6.31617">
        <ele>1351.208</ele>
        <time>2021-05-09T15:42:12Z</time>
      </trkpt>
      <trkpt lat="43.93247" lon="6.31629">
        <ele>1352.62</ele>
        <time>2021-05-09T15:42:11Z</time>
      </trkpt>
      <trkpt lat="43.93242" lon="6.31642">
        <ele>1354.073</ele>
        <time>2021-05-09T15:42:10Z</time>
      </trkpt>
      <trkpt lat="43.93233" lon="6.31668">
        <ele>1355.592</ele>
        <time>2021-05-09T15:42:08Z</time>
      </trkpt>
      <trkpt lat="43.93229" lon="6.31681">
        <ele>1356.616</ele>
        <time>2021-05-09T15:42:07Z</time>
      </trkpt>
      <trkpt lat="43.93221" lon="6.31705">
        <ele>1359.394</ele>
        <time>2021-05-09T15:42:05Z</time>
      </trkpt>
      <trkpt lat="43.93217" lon="6.31716">
        <ele>1361.442</ele>
        <time>2021-05-09T15:42:04Z</time>
      </trkpt>
      <trkpt lat="43.93207" lon="6.31739">
        <ele>1363.739</ele>
        <time>2021-05-09T15:42:02Z</time>
      </trkpt>
      <trkpt lat="43.93203" lon="6.3175">
        <ele>1363.844</ele>
        <time>2021-05-09T15:42:01Z</time>
      </trkpt>
      <trkpt lat="43.93195" lon="6.31775">
        <ele>1364.077</ele>
        <time>2021-05-09T15:41:59Z</time>
      </trkpt>
      <trkpt lat="43.93192" lon="6.31787">
        <ele>1365.743</ele>
        <time>2021-05-09T15:41:58Z</time>
      </trkpt>
      <trkpt lat="43.93184" lon="6.31811">
        <ele>1370.618</ele>
        <time>2021-05-09T15:41:56Z</time>
      </trkpt>
      <trkpt lat="43.93176" lon="6.31836">
        <ele>1374.008</ele>
        <time>2021-05-09T15:41:54Z</time>
      </trkpt>
      <trkpt lat="43.93172" lon="6.31849">
        <ele>1374.815</ele>
        <time>2021-05-09T15:41:53Z</time>
      </trkpt>
      <trkpt lat="43.93168" lon="6.31863">
        <ele>1375.387</ele>
        <time>2021-05-09T15:41:52Z</time>
      </trkpt>
      <trkpt lat="43.93162" lon="6.3189">
        <ele>1377.417</ele>
        <time>2021-05-09T15:41:50Z</time>
      </trkpt>
      <trkpt lat="43.93156" lon="6.31917">
        <ele>1380.546</ele>
        <time>2021-05-09T15:41:48Z</time>
      </trkpt>
      <trkpt lat="43.93152" lon="6.31942">
        <ele>1381.784</ele>
        <time>2021-05-09T15:41:46Z</time>
      </trkpt>
      <trkpt lat="43.93146" lon="6.31966">
        <ele>1382.392</ele>
        <time>2021-05-09T15:41:44Z</time>
      </trkpt>
      <trkpt lat="43.93143" lon="6.31977">
        <ele>1382.769</ele>
        <time>2021-05-09T15:41:43Z</time>
      </trkpt>
      <trkpt lat="43.93139" lon="6.31988">
        <ele>1382.854</ele>
        <time>2021-05-09T15:41:42Z</time>
      </trkpt>
      <trkpt lat="43.93132" lon="6.32008">
        <ele>1383.687</ele>
        <time>2021-05-09T15:41:40Z</time>
      </trkpt>
      <trkpt lat="43.93123" lon="6.32023">
        <ele>1386.133</ele>
        <time>2021-05-09T15:41:38Z</time>
      </trkpt>
      <trkpt lat="43.93111" lon="6.32044">
        <ele>1391.028</ele>
        <time>2021-05-09T15:41:36Z</time>
      </trkpt>
      <trkpt lat="43.93107" lon="6.32055">
        <ele>1393.108</ele>
        <time>2021-05-09T15:41:35Z</time>
      </trkpt>
      <trkpt lat="43.93104" lon="6.3208">
        <ele>1392.911</ele>
        <time>2021-05-09T15:41:33Z</time>
      </trkpt>
      <trkpt lat="43.93103" lon="6.32105">
        <ele>1392.565</ele>
        <time>2021-05-09T15:41:31Z</time>
      </trkpt>
      <trkpt lat="43.93098" lon="6.32131">
        <ele>1395.015</ele>
        <time>2021-05-09T15:41:29Z</time>
      </trkpt>
      <trkpt lat="43.93097" lon="6.32144">
        <ele>1395.899</ele>
        <time>2021-05-09T15:41:28Z</time>
      </trkpt>
      <trkpt lat="43.93092" lon="6.32166">
        <ele>1398.397</ele>
        <time>2021-05-09T15:41:26Z</time>
      </trkpt>
      <trkpt lat="43.93088" lon="6.32175">
        <ele>1400.135</ele>
        <time>2021-05-09T15:41:25Z</time>
      </trkpt>
      <trkpt lat="43.93079" lon="6.32195">
        <ele>1402.942</ele>
        <time>2021-05-09T15:41:23Z</time>
      </trkpt>
      <trkpt lat="43.93075" lon="6.32207">
        <ele>1403.467</ele>
        <time>2021-05-09T15:41:22Z</time>
      </trkpt>
      <trkpt lat="43.93067" lon="6.32232">
        <ele>1404.36</ele>
        <time>2021-05-09T15:41:20Z</time>
      </trkpt>
      <trkpt lat="43.93064" lon="6.32246">
        <ele>1404.866</ele>
        <time>2021-05-09T15:41:19Z</time>
      </trkpt>
      <trkpt lat="43.9306" lon="6.3226">
        <ele>1405.011</ele>
        <time>2021-05-09T15:41:18Z</time>
      </trkpt>
      <trkpt lat="43.93056" lon="6.32274">
        <ele>1405.108</ele>
        <time>2021-05-09T15:41:17Z</time>
      </trkpt>
      <trkpt lat="43.93053" lon="6.32289">
        <ele>1406.317</ele>
        <time>2021-05-09T15:41:16Z</time>
      </trkpt>
      <trkpt lat="43.9305" lon="6.32316">
        <ele>1408.361</ele>
        <time>2021-05-09T15:41:14Z</time>
      </trkpt>
      <trkpt lat="43.93049" lon="6.32327">
        <ele>1409.948</ele>
        <time>2021-05-09T15:41:13Z</time>
      </trkpt>
      <trkpt lat="43.93047" lon="6.32336">
        <ele>1411.249</ele>
        <time>2021-05-09T15:41:12Z</time>
      </trkpt>
      <trkpt lat="43.9304" lon="6.32355">
        <ele>1414.717</ele>
        <time>2021-05-09T15:41:10Z</time>
      </trkpt>
      <trkpt lat="43.93037" lon="6.32377">
        <ele>1416.645</ele>
        <time>2021-05-09T15:41:08Z</time>
      </trkpt>
      <trkpt lat="43.93037" lon="6.32401">
        <ele>1416.422</ele>
        <time>2021-05-09T15:41:06Z</time>
      </trkpt>
      <trkpt lat="43.93035" lon="6.32427">
        <ele>1415.877</ele>
        <time>2021-05-09T15:41:04Z</time>
      </trkpt>
      <trkpt lat="43.9303" lon="6.3245">
        <ele>1416.61</ele>
        <time>2021-05-09T15:41:02Z</time>
      </trkpt>
      <trkpt lat="43.93027" lon="6.32461">
        <ele>1417.486</ele>
        <time>2021-05-09T15:41:01Z</time>
      </trkpt>
      <trkpt lat="43.93017" lon="6.32482">
        <ele>1420.091</ele>
        <time>2021-05-09T15:40:59Z</time>
      </trkpt>
      <trkpt lat="43.93012" lon="6.32494">
        <ele>1421.208</ele>
        <time>2021-05-09T15:40:58Z</time>
      </trkpt>
      <trkpt lat="43.93003" lon="6.32518">
        <ele>1423.421</ele>
        <time>2021-05-09T15:40:56Z</time>
      </trkpt>
      <trkpt lat="43.92998" lon="6.32531">
        <ele>1424.429</ele>
        <time>2021-05-09T15:40:55Z</time>
      </trkpt>
      <trkpt lat="43.92991" lon="6.32556">
        <ele>1425.147</ele>
        <time>2021-05-09T15:40:53Z</time>
      </trkpt>
      <trkpt lat="43.92987" lon="6.32567">
        <ele>1425.681</ele>
        <time>2021-05-09T15:40:52Z</time>
      </trkpt>
      <trkpt lat="43.92976" lon="6.32587">
        <ele>1427.879</ele>
        <time>2021-05-09T15:40:50Z</time>
      </trkpt>
      <trkpt lat="43.9297" lon="6.32596">
        <ele>1429.027</ele>
        <time>2021-05-09T15:40:49Z</time>
      </trkpt>
      <trkpt lat="43.92956" lon="6.32617">
        <ele>1431.614</ele>
        <time>2021-05-09T15:40:47Z</time>
      </trkpt>
      <trkpt lat="43.9295" lon="6.32629">
        <ele>1432.569</ele>
        <time>2021-05-09T15:40:46Z</time>
      </trkpt>
      <trkpt lat="43.92938" lon="6.32654">
        <ele>1433.662</ele>
        <time>2021-05-09T15:40:44Z</time>
      </trkpt>
      <trkpt lat="43.92933" lon="6.32666">
        <ele>1433.728</ele>
        <time>2021-05-09T15:40:43Z</time>
      </trkpt>
      <trkpt lat="43.92928" lon="6.32679">
        <ele>1434.523</ele>
        <time>2021-05-09T15:40:42Z</time>
      </trkpt>
      <trkpt lat="43.92924" lon="6.32696">
        <ele>1434.621</ele>
        <time>2021-05-09T15:38:39Z</time>
      </trkpt>
      <trkpt lat="43.92919" lon="6.32701">
        <ele>1435.956</ele>
        <time>2021-05-09T15:38:37Z</time>
      </trkpt>
      <trkpt lat="43.92913" lon="6.32708">
        <ele>1437.674</ele>
        <time>2021-05-09T15:38:36Z</time>
      </trkpt>
      <trkpt lat="43.92908" lon="6.32714">
        <ele>1438.848</ele>
        <time>2021-05-09T15:38:34Z</time>
      </trkpt>
      <trkpt lat="43.92904" lon="6.3272">
        <ele>1439.486</ele>
        <time>2021-05-09T15:38:31Z</time>
      </trkpt>
      <trkpt lat="43.929" lon="6.32727">
        <ele>1440.314</ele>
        <time>2021-05-09T15:38:28Z</time>
      </trkpt>
      <trkpt lat="43.92896" lon="6.32735">
        <ele>1441.331</ele>
        <time>2021-05-09T15:38:26Z</time>
      </trkpt>
      <trkpt lat="43.92894" lon="6.32747">
        <ele>1441.996</ele>
        <time>2021-05-09T15:38:24Z</time>
      </trkpt>
      <trkpt lat="43.92902" lon="6.32757">
        <ele>1443.699</ele>
        <time>2021-05-09T15:38:22Z</time>
      </trkpt>
      <trkpt lat="43.92902" lon="6.32757">
        <ele>1443.699</ele>
        <time>2021-05-09T15:38:22Z</time>
      </trkpt>
      <trkpt lat="43.92916" lon="6.32764">
        <ele>1445.815</ele>
        <time>2021-05-09T15:38:20Z</time>
      </trkpt>
      <trkpt lat="43.92924" lon="6.32766">
        <ele>1447.84</ele>
        <time>2021-05-09T15:38:19Z</time>
      </trkpt>
      <trkpt lat="43.92942" lon="6.32768">
        <ele>1451.308</ele>
        <time>2021-05-09T15:38:17Z</time>
      </trkpt>
      <trkpt lat="43.92951" lon="6.32766">
        <ele>1451.914</ele>
        <time>2021-05-09T15:38:16Z</time>
      </trkpt>
      <trkpt lat="43.92966" lon="6.32763">
        <ele>1452.586</ele>
        <time>2021-05-09T15:38:14Z</time>
      </trkpt>
      <trkpt lat="43.92973" lon="6.32762">
        <ele>1452.835</ele>
        <time>2021-05-09T15:38:13Z</time>
      </trkpt>
      <trkpt lat="43.92985" lon="6.32759">
        <ele>1453.158</ele>
        <time>2021-05-09T15:38:11Z</time>
      </trkpt>
      <trkpt lat="43.92991" lon="6.32757">
        <ele>1453.126</ele>
        <time>2021-05-09T15:38:10Z</time>
      </trkpt>
      <trkpt lat="43.93003" lon="6.32754">
        <ele>1452.724</ele>
        <time>2021-05-09T15:38:08Z</time>
      </trkpt>
      <trkpt lat="43.93009" lon="6.32751">
        <ele>1452.161</ele>
        <time>2021-05-09T15:38:07Z</time>
      </trkpt>
      <trkpt lat="43.93016" lon="6.32749">
        <ele>1451.716</ele>
        <time>2021-05-09T15:38:06Z</time>
      </trkpt>
      <trkpt lat="43.93022" lon="6.32746">
        <ele>1451.499</ele>
        <time>2021-05-09T15:38:05Z</time>
      </trkpt>
      <trkpt lat="43.93029" lon="6.32742">
        <ele>1450.955</ele>
        <time>2021-05-09T15:38:04Z</time>
      </trkpt>
      <trkpt lat="43.93042" lon="6.32738">
        <ele>1450.17</ele>
        <time>2021-05-09T15:38:02Z</time>
      </trkpt>
      <trkpt lat="43.93049" lon="6.32736">
        <ele>1449.708</ele>
        <time>2021-05-09T15:38:01Z</time>
      </trkpt>
      <trkpt lat="43.93063" lon="6.32735">
        <ele>1450.317</ele>
        <time>2021-05-09T15:37:59Z</time>
      </trkpt>
      <trkpt lat="43.93072" lon="6.32736">
        <ele>1451.27</ele>
        <time>2021-05-09T15:37:58Z</time>
      </trkpt>
      <trkpt lat="43.93089" lon="6.3274">
        <ele>1454.238</ele>
        <time>2021-05-09T15:37:56Z</time>
      </trkpt>
      <trkpt lat="43.93107" lon="6.32743">
        <ele>1457.94</ele>
        <time>2021-05-09T15:37:54Z</time>
      </trkpt>
      <trkpt lat="43.93125" lon="6.32741">
        <ele>1461.078</ele>
        <time>2021-05-09T15:37:52Z</time>
      </trkpt>
      <trkpt lat="43.9314" lon="6.3274">
        <ele>1463.696</ele>
        <time>2021-05-09T15:37:50Z</time>
      </trkpt>
      <trkpt lat="43.93146" lon="6.32739">
        <ele>1463.343</ele>
        <time>2021-05-09T15:37:49Z</time>
      </trkpt>
      <trkpt lat="43.93157" lon="6.32737">
        <ele>1463.348</ele>
        <time>2021-05-09T15:37:47Z</time>
      </trkpt>
      <trkpt lat="43.93164" lon="6.32736">
        <ele>1463.361</ele>
        <time>2021-05-09T15:37:46Z</time>
      </trkpt>
      <trkpt lat="43.93171" lon="6.32732">
        <ele>1461.057</ele>
        <time>2021-05-09T15:37:45Z</time>
      </trkpt>
      <trkpt lat="43.93177" lon="6.32735">
        <ele>1459.132</ele>
        <time>2021-05-09T15:31:48Z</time>
      </trkpt>
      <trkpt lat="43.93175" lon="6.32741">
        <ele>1460.208</ele>
        <time>2021-05-09T15:31:46Z</time>
      </trkpt>
      <trkpt lat="43.93173" lon="6.32758">
        <ele>1461.117</ele>
        <time>2021-05-09T15:31:44Z</time>
      </trkpt>
      <trkpt lat="43.93174" lon="6.32784">
        <ele>1459.952</ele>
        <time>2021-05-09T15:31:42Z</time>
      </trkpt>
      <trkpt lat="43.93174" lon="6.3281">
        <ele>1459.758</ele>
        <time>2021-05-09T15:31:40Z</time>
      </trkpt>
      <trkpt lat="43.93174" lon="6.32834">
        <ele>1459.526</ele>
        <time>2021-05-09T15:31:38Z</time>
      </trkpt>
      <trkpt lat="43.93174" lon="6.32859">
        <ele>1458.634</ele>
        <time>2021-05-09T15:31:36Z</time>
      </trkpt>
      <trkpt lat="43.93174" lon="6.32885">
        <ele>1458.142</ele>
        <time>2021-05-09T15:31:34Z</time>
      </trkpt>
      <trkpt lat="43.93174" lon="6.32914">
        <ele>1456.789</ele>
        <time>2021-05-09T15:31:32Z</time>
      </trkpt>
      <trkpt lat="43.93174" lon="6.32929">
        <ele>1456.174</ele>
        <time>2021-05-09T15:31:31Z</time>
      </trkpt>
      <trkpt lat="43.93173" lon="6.32961">
        <ele>1455.567</ele>
        <time>2021-05-09T15:31:29Z</time>
      </trkpt>
      <trkpt lat="43.93172" lon="6.32977">
        <ele>1455.273</ele>
        <time>2021-05-09T15:31:28Z</time>
      </trkpt>
      <trkpt lat="43.93172" lon="6.33008">
        <ele>1453.768</ele>
        <time>2021-05-09T15:31:26Z</time>
      </trkpt>
      <trkpt lat="43.93172" lon="6.33025">
        <ele>1452.608</ele>
        <time>2021-05-09T15:31:25Z</time>
      </trkpt>
      <trkpt lat="43.93172" lon="6.33041">
        <ele>1451.905</ele>
        <time>2021-05-09T15:31:24Z</time>
      </trkpt>
      <trkpt lat="43.93172" lon="6.33075">
        <ele>1450.632</ele>
        <time>2021-05-09T15:31:22Z</time>
      </trkpt>
      <trkpt lat="43.93171" lon="6.3311">
        <ele>1448.712</ele>
        <time>2021-05-09T15:31:20Z</time>
      </trkpt>
      <trkpt lat="43.93171" lon="6.33145">
        <ele>1445.054</ele>
        <time>2021-05-09T15:31:18Z</time>
      </trkpt>
      <trkpt lat="43.93172" lon="6.33162">
        <ele>1443.212</ele>
        <time>2021-05-09T15:31:17Z</time>
      </trkpt>
      <trkpt lat="43.93172" lon="6.33179">
        <ele>1441.52</ele>
        <time>2021-05-09T15:31:16Z</time>
      </trkpt>
      <trkpt lat="43.93177" lon="6.3321">
        <ele>1437.597</ele>
        <time>2021-05-09T15:31:14Z</time>
      </trkpt>
      <trkpt lat="43.93181" lon="6.33225">
        <ele>1435.532</ele>
        <time>2021-05-09T15:31:13Z</time>
      </trkpt>
      <trkpt lat="43.93185" lon="6.33241">
        <ele>1434.885</ele>
        <time>2021-05-09T15:31:12Z</time>
      </trkpt>
      <trkpt lat="43.93193" lon="6.33272">
        <ele>1433.251</ele>
        <time>2021-05-09T15:31:10Z</time>
      </trkpt>
      <trkpt lat="43.93199" lon="6.33302">
        <ele>1432.396</ele>
        <time>2021-05-09T15:31:08Z</time>
      </trkpt>
      <trkpt lat="43.93201" lon="6.33318">
        <ele>1432.408</ele>
        <time>2021-05-09T15:31:07Z</time>
      </trkpt>
      <trkpt lat="43.93202" lon="6.33333">
        <ele>1432.619</ele>
        <time>2021-05-09T15:31:06Z</time>
      </trkpt>
      <trkpt lat="43.93208" lon="6.33364">
        <ele>1430.481</ele>
        <time>2021-05-09T15:31:04Z</time>
      </trkpt>
      <trkpt lat="43.93218" lon="6.33393">
        <ele>1426.491</ele>
        <time>2021-05-09T15:31:02Z</time>
      </trkpt>
      <trkpt lat="43.93224" lon="6.33406">
        <ele>1425.319</ele>
        <time>2021-05-09T15:31:01Z</time>
      </trkpt>
      <trkpt lat="43.93241" lon="6.33427">
        <ele>1423.517</ele>
        <time>2021-05-09T15:30:59Z</time>
      </trkpt>
      <trkpt lat="43.9325" lon="6.33436">
        <ele>1422.175</ele>
        <time>2021-05-09T15:30:58Z</time>
      </trkpt>
      <trkpt lat="43.93259" lon="6.33444">
        <ele>1421.262</ele>
        <time>2021-05-09T15:30:57Z</time>
      </trkpt>
      <trkpt lat="43.93279" lon="6.33457">
        <ele>1419.637</ele>
        <time>2021-05-09T15:30:55Z</time>
      </trkpt>
      <trkpt lat="43.93288" lon="6.33463">
        <ele>1418.33</ele>
        <time>2021-05-09T15:30:54Z</time>
      </trkpt>
      <trkpt lat="43.93296" lon="6.3347">
        <ele>1417.146</ele>
        <time>2021-05-09T15:30:53Z</time>
      </trkpt>
      <trkpt lat="43.93304" lon="6.33477">
        <ele>1415.921</ele>
        <time>2021-05-09T15:30:52Z</time>
      </trkpt>
      <trkpt lat="43.93315" lon="6.33495">
        <ele>1414.508</ele>
        <time>2021-05-09T15:30:50Z</time>
      </trkpt>
      <trkpt lat="43.93321" lon="6.33505">
        <ele>1414.315</ele>
        <time>2021-05-09T15:30:49Z</time>
      </trkpt>
      <trkpt lat="43.93332" lon="6.33522">
        <ele>1414.405</ele>
        <time>2021-05-09T15:30:47Z</time>
      </trkpt>
      <trkpt lat="43.9334" lon="6.33529">
        <ele>1413.144</ele>
        <time>2021-05-09T15:30:46Z</time>
      </trkpt>
      <trkpt lat="43.93356" lon="6.33541">
        <ele>1409.612</ele>
        <time>2021-05-09T15:30:44Z</time>
      </trkpt>
      <trkpt lat="43.93362" lon="6.33547">
        <ele>1408.49</ele>
        <time>2021-05-09T15:30:43Z</time>
      </trkpt>
      <trkpt lat="43.93374" lon="6.33556">
        <ele>1406.378</ele>
        <time>2021-05-09T15:30:41Z</time>
      </trkpt>
      <trkpt lat="43.9338" lon="6.33562">
        <ele>1405.845</ele>
        <time>2021-05-09T15:30:40Z</time>
      </trkpt>
      <trkpt lat="43.93391" lon="6.33573">
        <ele>1405.99</ele>
        <time>2021-05-09T15:30:38Z</time>
      </trkpt>
      <trkpt lat="43.93398" lon="6.33574">
        <ele>1406.693</ele>
        <time>2021-05-09T15:30:37Z</time>
      </trkpt>
      <trkpt lat="43.93405" lon="6.33571">
        <ele>1406.679</ele>
        <time>2021-05-09T15:30:36Z</time>
      </trkpt>
      <trkpt lat="43.93419" lon="6.3356">
        <ele>1406.334</ele>
        <time>2021-05-09T15:30:34Z</time>
      </trkpt>
      <trkpt lat="43.93427" lon="6.33558">
        <ele>1405.508</ele>
        <time>2021-05-09T15:30:33Z</time>
      </trkpt>
      <trkpt lat="43.93434" lon="6.33559">
        <ele>1405.127</ele>
        <time>2021-05-09T15:30:32Z</time>
      </trkpt>
      <trkpt lat="43.93448" lon="6.33568">
        <ele>1404.861</ele>
        <time>2021-05-09T15:30:30Z</time>
      </trkpt>
      <trkpt lat="43.93464" lon="6.33585">
        <ele>1402.977</ele>
        <time>2021-05-09T15:30:28Z</time>
      </trkpt>
      <trkpt lat="43.93472" lon="6.33593">
        <ele>1401.474</ele>
        <time>2021-05-09T15:30:27Z</time>
      </trkpt>
      <trkpt lat="43.9348" lon="6.33601">
        <ele>1401.282</ele>
        <time>2021-05-09T15:30:26Z</time>
      </trkpt>
      <trkpt lat="43.93496" lon="6.33617">
        <ele>1400.21</ele>
        <time>2021-05-09T15:30:24Z</time>
      </trkpt>
      <trkpt lat="43.93513" lon="6.33626">
        <ele>1399.737</ele>
        <time>2021-05-09T15:30:22Z</time>
      </trkpt>
      <trkpt lat="43.93531" lon="6.33634">
        <ele>1400.252</ele>
        <time>2021-05-09T15:30:20Z</time>
      </trkpt>
      <trkpt lat="43.93548" lon="6.3364">
        <ele>1402.265</ele>
        <time>2021-05-09T15:30:18Z</time>
      </trkpt>
      <trkpt lat="43.93556" lon="6.33642">
        <ele>1403.221</ele>
        <time>2021-05-09T15:30:17Z</time>
      </trkpt>
      <trkpt lat="43.93563" lon="6.33643">
        <ele>1403.366</ele>
        <time>2021-05-09T15:30:16Z</time>
      </trkpt>
      <trkpt lat="43.93579" lon="6.33644">
        <ele>1403.408</ele>
        <time>2021-05-09T15:30:14Z</time>
      </trkpt>
      <trkpt lat="43.93587" lon="6.33644">
        <ele>1403.021</ele>
        <time>2021-05-09T15:30:13Z</time>
      </trkpt>
      <trkpt lat="43.93594" lon="6.33643">
        <ele>1402.465</ele>
        <time>2021-05-09T15:30:12Z</time>
      </trkpt>
      <trkpt lat="43.93607" lon="6.33643">
        <ele>1401.393</ele>
        <time>2021-05-09T15:30:10Z</time>
      </trkpt>
      <trkpt lat="43.93617" lon="6.33646">
        <ele>1400.068</ele>
        <time>2021-05-09T15:30:09Z</time>
      </trkpt>
      <trkpt lat="43.93621" lon="6.33641">
        <ele>1399.746</ele>
        <time>2021-05-09T15:29:44Z</time>
      </trkpt>
      <trkpt lat="43.93625" lon="6.33647">
        <ele>1398.764</ele>
        <time>2021-05-09T15:29:42Z</time>
      </trkpt>
      <trkpt lat="43.93626" lon="6.33661">
        <ele>1396.721</ele>
        <time>2021-05-09T15:29:40Z</time>
      </trkpt>
      <trkpt lat="43.93625" lon="6.33683">
        <ele>1393.936</ele>
        <time>2021-05-09T15:29:38Z</time>
      </trkpt>
      <trkpt lat="43.93621" lon="6.33706">
        <ele>1391.829</ele>
        <time>2021-05-09T15:29:36Z</time>
      </trkpt>
      <trkpt lat="43.93617" lon="6.33728">
        <ele>1390.275</ele>
        <time>2021-05-09T15:29:34Z</time>
      </trkpt>
      <trkpt lat="43.93612" lon="6.3375">
        <ele>1389.83</ele>
        <time>2021-05-09T15:29:32Z</time>
      </trkpt>
      <trkpt lat="43.93603" lon="6.33769">
        <ele>1388.408</ele>
        <time>2021-05-09T15:29:30Z</time>
      </trkpt>
      <trkpt lat="43.9359" lon="6.33785">
        <ele>1388.01</ele>
        <time>2021-05-09T15:29:28Z</time>
      </trkpt>
      <trkpt lat="43.93583" lon="6.33793">
        <ele>1387.855</ele>
        <time>2021-05-09T15:29:27Z</time>
      </trkpt>
      <trkpt lat="43.93568" lon="6.33803">
        <ele>1385.734</ele>
        <time>2021-05-09T15:29:25Z</time>
      </trkpt>
      <trkpt lat="43.93554" lon="6.33805">
        <ele>1384.968</ele>
        <time>2021-05-09T15:29:23Z</time>
      </trkpt>
      <trkpt lat="43.93547" lon="6.33803">
        <ele>1384.686</ele>
        <time>2021-05-09T15:29:22Z</time>
      </trkpt>
      <trkpt lat="43.93537" lon="6.33803">
        <ele>1383.444</ele>
        <time>2021-05-09T15:29:20Z</time>
      </trkpt>
      <trkpt lat="43.93534" lon="6.33809">
        <ele>1382.291</ele>
        <time>2021-05-09T15:29:19Z</time>
      </trkpt>
      <trkpt lat="43.93532" lon="6.33816">
        <ele>1381.166</ele>
        <time>2021-05-09T15:29:18Z</time>
      </trkpt>
      <trkpt lat="43.93532" lon="6.33836">
        <ele>1378.699</ele>
        <time>2021-05-09T15:29:16Z</time>
      </trkpt>
      <trkpt lat="43.93534" lon="6.33862">
        <ele>1375.465</ele>
        <time>2021-05-09T15:29:14Z</time>
      </trkpt>
      <trkpt lat="43.93537" lon="6.33878">
        <ele>1373.27</ele>
        <time>2021-05-09T15:29:13Z</time>
      </trkpt>
      <trkpt lat="43.93539" lon="6.33893">
        <ele>1371.008</ele>
        <time>2021-05-09T15:29:12Z</time>
      </trkpt>
      <trkpt lat="43.9354" lon="6.33907">
        <ele>1369.707</ele>
        <time>2021-05-09T15:29:11Z</time>
      </trkpt>
      <trkpt lat="43.93538" lon="6.33916">
        <ele>1369.261</ele>
        <time>2021-05-09T15:29:10Z</time>
      </trkpt>
      <trkpt lat="43.9353" lon="6.33929">
        <ele>1369.331</ele>
        <time>2021-05-09T15:29:08Z</time>
      </trkpt>
      <trkpt lat="43.93519" lon="6.33934">
        <ele>1369.472</ele>
        <time>2021-05-09T15:29:06Z</time>
      </trkpt>
      <trkpt lat="43.93512" lon="6.33932">
        <ele>1369.87</ele>
        <time>2021-05-09T15:29:05Z</time>
      </trkpt>
      <trkpt lat="43.93506" lon="6.33929">
        <ele>1370.638</ele>
        <time>2021-05-09T15:29:04Z</time>
      </trkpt>
      <trkpt lat="43.93492" lon="6.33915">
        <ele>1372.615</ele>
        <time>2021-05-09T15:29:02Z</time>
      </trkpt>
      <trkpt lat="43.93485" lon="6.33894">
        <ele>1375.27</ele>
        <time>2021-05-09T15:29:00Z</time>
      </trkpt>
      <trkpt lat="43.93478" lon="6.33877">
        <ele>1378.153</ele>
        <time>2021-05-09T15:28:58Z</time>
      </trkpt>
      <trkpt lat="43.93467" lon="6.33872">
        <ele>1377.559</ele>
        <time>2021-05-09T15:28:56Z</time>
      </trkpt>
      <trkpt lat="43.93462" lon="6.33874">
        <ele>1375.754</ele>
        <time>2021-05-09T15:28:55Z</time>
      </trkpt>
      <trkpt lat="43.93451" lon="6.33883">
        <ele>1371.508</ele>
        <time>2021-05-09T15:28:53Z</time>
      </trkpt>
      <trkpt lat="43.93446" lon="6.33889">
        <ele>1369.313</ele>
        <time>2021-05-09T15:28:52Z</time>
      </trkpt>
      <trkpt lat="43.93436" lon="6.33902">
        <ele>1366.185</ele>
        <time>2021-05-09T15:28:50Z</time>
      </trkpt>
      <trkpt lat="43.9343" lon="6.3391">
        <ele>1364.473</ele>
        <time>2021-05-09T15:28:49Z</time>
      </trkpt>
      <trkpt lat="43.93418" lon="6.33922">
        <ele>1361.656</ele>
        <time>2021-05-09T15:28:47Z</time>
      </trkpt>
      <trkpt lat="43.93414" lon="6.33931">
        <ele>1361.154</ele>
        <time>2021-05-09T15:28:46Z</time>
      </trkpt>
      <trkpt lat="43.93409" lon="6.3395">
        <ele>1360.522</ele>
        <time>2021-05-09T15:28:44Z</time>
      </trkpt>
      <trkpt lat="43.93403" lon="6.33974">
        <ele>1359.249</ele>
        <time>2021-05-09T15:28:42Z</time>
      </trkpt>
      <trkpt lat="43.934" lon="6.33986">
        <ele>1358.654</ele>
        <time>2021-05-09T15:28:41Z</time>
      </trkpt>
      <trkpt lat="43.93396" lon="6.33998">
        <ele>1358.097</ele>
        <time>2021-05-09T15:28:40Z</time>
      </trkpt>
      <trkpt lat="43.9339" lon="6.34023">
        <ele>1356.453</ele>
        <time>2021-05-09T15:28:38Z</time>
      </trkpt>
      <trkpt lat="43.93388" lon="6.34036">
        <ele>1355.348</ele>
        <time>2021-05-09T15:28:37Z</time>
      </trkpt>
      <trkpt lat="43.93381" lon="6.34061">
        <ele>1354.408</ele>
        <time>2021-05-09T15:28:35Z</time>
      </trkpt>
      <trkpt lat="43.93379" lon="6.34084">
        <ele>1352.713</ele>
        <time>2021-05-09T15:28:33Z</time>
      </trkpt>
      <trkpt lat="43.9338" lon="6.34095">
        <ele>1351.676</ele>
        <time>2021-05-09T15:28:32Z</time>
      </trkpt>
      <trkpt lat="43.93387" lon="6.34117">
        <ele>1347.816</ele>
        <time>2021-05-09T15:28:30Z</time>
      </trkpt>
      <trkpt lat="43.93391" lon="6.34127">
        <ele>1345.766</ele>
        <time>2021-05-09T15:28:29Z</time>
      </trkpt>
      <trkpt lat="43.93395" lon="6.34137">
        <ele>1343.794</ele>
        <time>2021-05-09T15:28:28Z</time>
      </trkpt>
      <trkpt lat="43.93401" lon="6.34155">
        <ele>1339.822</ele>
        <time>2021-05-09T15:28:26Z</time>
      </trkpt>
      <trkpt lat="43.93404" lon="6.34177">
        <ele>1336.319</ele>
        <time>2021-05-09T15:28:24Z</time>
      </trkpt>
      <trkpt lat="43.93407" lon="6.34188">
        <ele>1334.394</ele>
        <time>2021-05-09T15:28:23Z</time>
      </trkpt>
      <trkpt lat="43.9341" lon="6.34199">
        <ele>1332.427</ele>
        <time>2021-05-09T15:28:22Z</time>
      </trkpt>
      <trkpt lat="43.93414" lon="6.34222">
        <ele>1330.433</ele>
        <time>2021-05-09T15:28:20Z</time>
      </trkpt>
      <trkpt lat="43.93417" lon="6.34248">
        <ele>1329.968</ele>
        <time>2021-05-09T15:28:18Z</time>
      </trkpt>
      <trkpt lat="43.93418" lon="6.34263">
        <ele>1329.808</ele>
        <time>2021-05-09T15:28:17Z</time>
      </trkpt>
      <trkpt lat="43.93419" lon="6.34278">
        <ele>1329.607</ele>
        <time>2021-05-09T15:28:16Z</time>
      </trkpt>
      <trkpt lat="43.93422" lon="6.34307">
        <ele>1329.143</ele>
        <time>2021-05-09T15:28:14Z</time>
      </trkpt>
      <trkpt lat="43.93428" lon="6.34338">
        <ele>1326.213</ele>
        <time>2021-05-09T15:28:12Z</time>
      </trkpt>
      <trkpt lat="43.9344" lon="6.34367">
        <ele>1320.366</ele>
        <time>2021-05-09T15:28:10Z</time>
      </trkpt>
      <trkpt lat="43.93452" lon="6.34394">
        <ele>1316.744</ele>
        <time>2021-05-09T15:28:08Z</time>
      </trkpt>
      <trkpt lat="43.93464" lon="6.34421">
        <ele>1312.942</ele>
        <time>2021-05-09T15:28:06Z</time>
      </trkpt>
      <trkpt lat="43.93475" lon="6.34445">
        <ele>1310.039</ele>
        <time>2021-05-09T15:28:04Z</time>
      </trkpt>
      <trkpt lat="43.9348" lon="6.34469">
        <ele>1306.464</ele>
        <time>2021-05-09T15:28:02Z</time>
      </trkpt>
      <trkpt lat="43.9348" lon="6.34481">
        <ele>1305.767</ele>
        <time>2021-05-09T15:28:01Z</time>
      </trkpt>
      <trkpt lat="43.93479" lon="6.34492">
        <ele>1305.583</ele>
        <time>2021-05-09T15:28:00Z</time>
      </trkpt>
      <trkpt lat="43.93477" lon="6.34505">
        <ele>1305.248</ele>
        <time>2021-05-09T15:27:59Z</time>
      </trkpt>
      <trkpt lat="43.93476" lon="6.34532">
        <ele>1304.508</ele>
        <time>2021-05-09T15:27:57Z</time>
      </trkpt>
      <trkpt lat="43.93476" lon="6.34544">
        <ele>1305.103</ele>
        <time>2021-05-09T15:27:56Z</time>
      </trkpt>
      <trkpt lat="43.9348" lon="6.34568">
        <ele>1302.821</ele>
        <time>2021-05-09T15:27:54Z</time>
      </trkpt>
      <trkpt lat="43.93488" lon="6.34589">
        <ele>1297.411</ele>
        <time>2021-05-09T15:27:52Z</time>
      </trkpt>
      <trkpt lat="43.93493" lon="6.34608">
        <ele>1294.132</ele>
        <time>2021-05-09T15:27:50Z</time>
      </trkpt>
      <trkpt lat="43.93494" lon="6.34619">
        <ele>1293.52</ele>
        <time>2021-05-09T15:27:49Z</time>
      </trkpt>
      <trkpt lat="43.93495" lon="6.34641">
        <ele>1293.248</ele>
        <time>2021-05-09T15:27:47Z</time>
      </trkpt>
      <trkpt lat="43.93496" lon="6.34653">
        <ele>1293.575</ele>
        <time>2021-05-09T15:27:46Z</time>
      </trkpt>
      <trkpt lat="43.93498" lon="6.34676">
        <ele>1291.84</ele>
        <time>2021-05-09T15:27:44Z</time>
      </trkpt>
      <trkpt lat="43.935" lon="6.3469">
        <ele>1289.833</ele>
        <time>2021-05-09T15:27:43Z</time>
      </trkpt>
      <trkpt lat="43.93502" lon="6.34706">
        <ele>1288.439</ele>
        <time>2021-05-09T15:27:42Z</time>
      </trkpt>
      <trkpt lat="43.93504" lon="6.34721">
        <ele>1287.534</ele>
        <time>2021-05-09T15:27:41Z</time>
      </trkpt>
      <trkpt lat="43.93504" lon="6.34738">
        <ele>1287.308</ele>
        <time>2021-05-09T15:27:40Z</time>
      </trkpt>
      <trkpt lat="43.93504" lon="6.34772">
        <ele>1286.927</ele>
        <time>2021-05-09T15:27:38Z</time>
      </trkpt>
      <trkpt lat="43.93503" lon="6.3479">
        <ele>1287.261</ele>
        <time>2021-05-09T15:27:37Z</time>
      </trkpt>
      <trkpt lat="43.93502" lon="6.34808">
        <ele>1287.477</ele>
        <time>2021-05-09T15:27:36Z</time>
      </trkpt>
      <trkpt lat="43.93503" lon="6.34844">
        <ele>1285.824</ele>
        <time>2021-05-09T15:27:34Z</time>
      </trkpt>
      <trkpt lat="43.93509" lon="6.34875">
        <ele>1282.472</ele>
        <time>2021-05-09T15:27:32Z</time>
      </trkpt>
      <trkpt lat="43.93516" lon="6.34891">
        <ele>1279.31</ele>
        <time>2021-05-09T15:27:31Z</time>
      </trkpt>
      <trkpt lat="43.93523" lon="6.34907">
        <ele>1276.977</ele>
        <time>2021-05-09T15:27:30Z</time>
      </trkpt>
      <trkpt lat="43.93539" lon="6.34937">
        <ele>1272.332</ele>
        <time>2021-05-09T15:27:28Z</time>
      </trkpt>
      <trkpt lat="43.93551" lon="6.3496">
        <ele>1269.265</ele>
        <time>2021-05-09T15:27:26Z</time>
      </trkpt>
      <trkpt lat="43.93553" lon="6.34978">
        <ele>1269.471</ele>
        <time>2021-05-09T15:27:24Z</time>
      </trkpt>
      <trkpt lat="43.9355" lon="6.34986">
        <ele>1269.876</ele>
        <time>2021-05-09T15:27:23Z</time>
      </trkpt>
      <trkpt lat="43.93546" lon="6.34994">
        <ele>1270.308</ele>
        <time>2021-05-09T15:27:22Z</time>
      </trkpt>
      <trkpt lat="43.93535" lon="6.35006">
        <ele>1270.825</ele>
        <time>2021-05-09T15:27:20Z</time>
      </trkpt>
      <trkpt lat="43.93527" lon="6.35012">
        <ele>1271.023</ele>
        <time>2021-05-09T15:27:19Z</time>
      </trkpt>
      <trkpt lat="43.93518" lon="6.35018">
        <ele>1270.297</ele>
        <time>2021-05-09T15:27:18Z</time>
      </trkpt>
      <trkpt lat="43.93499" lon="6.35029">
        <ele>1268.51</ele>
        <time>2021-05-09T15:27:16Z</time>
      </trkpt>
      <trkpt lat="43.93478" lon="6.35035">
        <ele>1266.398</ele>
        <time>2021-05-09T15:27:14Z</time>
      </trkpt>
      <trkpt lat="43.93454" lon="6.3504">
        <ele>1264.596</ele>
        <time>2021-05-09T15:27:12Z</time>
      </trkpt>
      <trkpt lat="43.9343" lon="6.35045">
        <ele>1261.813</ele>
        <time>2021-05-09T15:27:10Z</time>
      </trkpt>
      <trkpt lat="43.93407" lon="6.35047">
        <ele>1258.978</ele>
        <time>2021-05-09T15:27:08Z</time>
      </trkpt>
      <trkpt lat="43.93384" lon="6.35047">
        <ele>1256.111</ele>
        <time>2021-05-09T15:27:06Z</time>
      </trkpt>
      <trkpt lat="43.93372" lon="6.35048">
        <ele>1254.167</ele>
        <time>2021-05-09T15:27:05Z</time>
      </trkpt>
      <trkpt lat="43.93359" lon="6.35048">
        <ele>1252.092</ele>
        <time>2021-05-09T15:27:04Z</time>
      </trkpt>
      <trkpt lat="43.93335" lon="6.35048">
        <ele>1249.608</ele>
        <time>2021-05-09T15:27:02Z</time>
      </trkpt>
      <trkpt lat="43.93323" lon="6.35047">
        <ele>1249.417</ele>
        <time>2021-05-09T15:27:01Z</time>
      </trkpt>
      <trkpt lat="43.93311" lon="6.35046">
        <ele>1249.407</ele>
        <time>2021-05-09T15:27:00Z</time>
      </trkpt>
      <trkpt lat="43.93289" lon="6.35047">
        <ele>1248.555</ele>
        <time>2021-05-09T15:26:58Z</time>
      </trkpt>
      <trkpt lat="43.9327" lon="6.3505">
        <ele>1247.173</ele>
        <time>2021-05-09T15:26:56Z</time>
      </trkpt>
      <trkpt lat="43.9326" lon="6.35052">
        <ele>1246.631</ele>
        <time>2021-05-09T15:26:55Z</time>
      </trkpt>
      <trkpt lat="43.9325" lon="6.35053">
        <ele>1246.349</ele>
        <time>2021-05-09T15:26:54Z</time>
      </trkpt>
      <trkpt lat="43.9323" lon="6.35053">
        <ele>1245.496</ele>
        <time>2021-05-09T15:26:52Z</time>
      </trkpt>
      <trkpt lat="43.93209" lon="6.35056">
        <ele>1244.231</ele>
        <time>2021-05-09T15:26:50Z</time>
      </trkpt>
      <trkpt lat="43.93197" lon="6.35059">
        <ele>1242.034</ele>
        <time>2021-05-09T15:26:49Z</time>
      </trkpt>
      <trkpt lat="43.93187" lon="6.35063">
        <ele>1239.26</ele>
        <time>2021-05-09T15:26:48Z</time>
      </trkpt>
      <trkpt lat="43.93166" lon="6.35071">
        <ele>1234.635</ele>
        <time>2021-05-09T15:26:46Z</time>
      </trkpt>
      <trkpt lat="43.93147" lon="6.35075">
        <ele>1231.508</ele>
        <time>2021-05-09T15:26:44Z</time>
      </trkpt>
      <trkpt lat="43.93136" lon="6.35077">
        <ele>1230.826</ele>
        <time>2021-05-09T15:26:43Z</time>
      </trkpt>
      <trkpt lat="43.93114" lon="6.35081">
        <ele>1228.242</ele>
        <time>2021-05-09T15:26:41Z</time>
      </trkpt>
      <trkpt lat="43.93102" lon="6.35085">
        <ele>1226.587</ele>
        <time>2021-05-09T15:26:40Z</time>
      </trkpt>
      <trkpt lat="43.93081" lon="6.35094">
        <ele>1222.05</ele>
        <time>2021-05-09T15:26:38Z</time>
      </trkpt>
      <trkpt lat="43.93071" lon="6.35099">
        <ele>1220.178</ele>
        <time>2021-05-09T15:26:37Z</time>
      </trkpt>
      <trkpt lat="43.93052" lon="6.35106">
        <ele>1217.566</ele>
        <time>2021-05-09T15:26:35Z</time>
      </trkpt>
      <trkpt lat="43.93042" lon="6.35109">
        <ele>1216.723</ele>
        <time>2021-05-09T15:26:34Z</time>
      </trkpt>
      <trkpt lat="43.93023" lon="6.35115">
        <ele>1215.318</ele>
        <time>2021-05-09T15:26:32Z</time>
      </trkpt>
      <trkpt lat="43.93002" lon="6.35121">
        <ele>1215.311</ele>
        <time>2021-05-09T15:26:30Z</time>
      </trkpt>
      <trkpt lat="43.92982" lon="6.35124">
        <ele>1215.797</ele>
        <time>2021-05-09T15:26:28Z</time>
      </trkpt>
      <trkpt lat="43.92961" lon="6.35127">
        <ele>1216.182</ele>
        <time>2021-05-09T15:26:26Z</time>
      </trkpt>
      <trkpt lat="43.9295" lon="6.3513">
        <ele>1215.508</ele>
        <time>2021-05-09T15:26:25Z</time>
      </trkpt>
      <trkpt lat="43.9294" lon="6.35133">
        <ele>1214.823</ele>
        <time>2021-05-09T15:26:24Z</time>
      </trkpt>
      <trkpt lat="43.92919" lon="6.3514">
        <ele>1212.203</ele>
        <time>2021-05-09T15:26:22Z</time>
      </trkpt>
      <trkpt lat="43.92898" lon="6.3515">
        <ele>1207.759</ele>
        <time>2021-05-09T15:26:20Z</time>
      </trkpt>
      <trkpt lat="43.92888" lon="6.35155">
        <ele>1205.277</ele>
        <time>2021-05-09T15:26:19Z</time>
      </trkpt>
      <trkpt lat="43.92878" lon="6.3516">
        <ele>1203.065</ele>
        <time>2021-05-09T15:26:18Z</time>
      </trkpt>
      <trkpt lat="43.92856" lon="6.35168">
        <ele>1200.363</ele>
        <time>2021-05-09T15:26:16Z</time>
      </trkpt>
      <trkpt lat="43.92835" lon="6.35175">
        <ele>1201.76</ele>
        <time>2021-05-09T15:26:14Z</time>
      </trkpt>
      <trkpt lat="43.92824" lon="6.35177">
        <ele>1202.175</ele>
        <time>2021-05-09T15:26:13Z</time>
      </trkpt>
      <trkpt lat="43.9281" lon="6.35184">
        <ele>1202.248</ele>
        <time>2021-05-09T15:26:11Z</time>
      </trkpt>
      <trkpt lat="43.92803" lon="6.35194">
        <ele>1200.694</ele>
        <time>2021-05-09T15:26:09Z</time>
      </trkpt>
      <trkpt lat="43.92803" lon="6.352">
        <ele>1198.649</ele>
        <time>2021-05-09T15:26:07Z</time>
      </trkpt>
      <trkpt lat="43.92808" lon="6.35199">
        <ele>1198.008</ele>
        <time>2021-05-09T15:26:05Z</time>
      </trkpt>
      <trkpt lat="43.92821" lon="6.35191">
        <ele>1197.811</ele>
        <time>2021-05-09T15:26:03Z</time>
      </trkpt>
      <trkpt lat="43.92832" lon="6.35189">
        <ele>1196.783</ele>
        <time>2021-05-09T15:26:02Z</time>
      </trkpt>
      <trkpt lat="43.92853" lon="6.35191">
        <ele>1192.123</ele>
        <time>2021-05-09T15:26:00Z</time>
      </trkpt>
      <trkpt lat="43.92864" lon="6.35193">
        <ele>1189.486</ele>
        <time>2021-05-09T15:25:59Z</time>
      </trkpt>
      <trkpt lat="43.92875" lon="6.35196">
        <ele>1187.184</ele>
        <time>2021-05-09T15:25:58Z</time>
      </trkpt>
      <trkpt lat="43.92897" lon="6.35203">
        <ele>1182.022</ele>
        <time>2021-05-09T15:25:56Z</time>
      </trkpt>
      <trkpt lat="43.92909" lon="6.35206">
        <ele>1180.159</ele>
        <time>2021-05-09T15:25:55Z</time>
      </trkpt>
      <trkpt lat="43.92929" lon="6.35209">
        <ele>1177.074</ele>
        <time>2021-05-09T15:25:53Z</time>
      </trkpt>
      <trkpt lat="43.92938" lon="6.35209">
        <ele>1175.737</ele>
        <time>2021-05-09T15:25:52Z</time>
      </trkpt>
      <trkpt lat="43.92956" lon="6.35207">
        <ele>1174.773</ele>
        <time>2021-05-09T15:25:50Z</time>
      </trkpt>
      <trkpt lat="43.92965" lon="6.35205">
        <ele>1174.888</ele>
        <time>2021-05-09T15:25:49Z</time>
      </trkpt>
      <trkpt lat="43.92975" lon="6.35202">
        <ele>1174.808</ele>
        <time>2021-05-09T15:25:48Z</time>
      </trkpt>
      <trkpt lat="43.92997" lon="6.35198">
        <ele>1174.007</ele>
        <time>2021-05-09T15:25:46Z</time>
      </trkpt>
      <trkpt lat="43.9302" lon="6.35196">
        <ele>1171.443</ele>
        <time>2021-05-09T15:25:44Z</time>
      </trkpt>
      <trkpt lat="43.93032" lon="6.35199">
        <ele>1168.913</ele>
        <time>2021-05-09T15:25:43Z</time>
      </trkpt>
      <trkpt lat="43.93043" lon="6.35202">
        <ele>1166.767</ele>
        <time>2021-05-09T15:25:42Z</time>
      </trkpt>
      <trkpt lat="43.93066" lon="6.35208">
        <ele>1163.455</ele>
        <time>2021-05-09T15:25:40Z</time>
      </trkpt>
      <trkpt lat="43.93089" lon="6.35212">
        <ele>1161.833</ele>
        <time>2021-05-09T15:25:38Z</time>
      </trkpt>
      <trkpt lat="43.93116" lon="6.35219">
        <ele>1159.56</ele>
        <time>2021-05-09T15:25:36Z</time>
      </trkpt>
      <trkpt lat="43.93141" lon="6.3523">
        <ele>1157.755</ele>
        <time>2021-05-09T15:25:34Z</time>
      </trkpt>
      <trkpt lat="43.93152" lon="6.35236">
        <ele>1156.178</ele>
        <time>2021-05-09T15:25:33Z</time>
      </trkpt>
      <trkpt lat="43.93162" lon="6.35243">
        <ele>1154.444</ele>
        <time>2021-05-09T15:25:32Z</time>
      </trkpt>
      <trkpt lat="43.93172" lon="6.35252">
        <ele>1153.119</ele>
        <time>2021-05-09T15:25:31Z</time>
      </trkpt>
      <trkpt lat="43.93191" lon="6.35273">
        <ele>1150.108</ele>
        <time>2021-05-09T15:25:29Z</time>
      </trkpt>
      <trkpt lat="43.9321" lon="6.3529">
        <ele>1147.711</ele>
        <time>2021-05-09T15:25:27Z</time>
      </trkpt>
      <trkpt lat="43.9322" lon="6.35295">
        <ele>1147.183</ele>
        <time>2021-05-09T15:25:26Z</time>
      </trkpt>
      <trkpt lat="43.93239" lon="6.3531">
        <ele>1145.123</ele>
        <time>2021-05-09T15:25:24Z</time>
      </trkpt>
      <trkpt lat="43.93254" lon="6.35335">
        <ele>1140.266</ele>
        <time>2021-05-09T15:25:22Z</time>
      </trkpt>
      <trkpt lat="43.93267" lon="6.35358">
        <ele>1137.494</ele>
        <time>2021-05-09T15:25:20Z</time>
      </trkpt>
      <trkpt lat="43.93274" lon="6.35368">
        <ele>1136.592</ele>
        <time>2021-05-09T15:25:19Z</time>
      </trkpt>
      <trkpt lat="43.9328" lon="6.35378">
        <ele>1135.849</ele>
        <time>2021-05-09T15:25:18Z</time>
      </trkpt>
      <trkpt lat="43.93285" lon="6.35388">
        <ele>1135.014</ele>
        <time>2021-05-09T15:25:17Z</time>
      </trkpt>
      <trkpt lat="43.9329" lon="6.35399">
        <ele>1133.877</ele>
        <time>2021-05-09T15:25:16Z</time>
      </trkpt>
      <trkpt lat="43.93299" lon="6.35415">
        <ele>1131.953</ele>
        <time>2021-05-09T15:25:14Z</time>
      </trkpt>
      <trkpt lat="43.93311" lon="6.35424">
        <ele>1131.068</ele>
        <time>2021-05-09T15:25:12Z</time>
      </trkpt>
      <trkpt lat="43.9332" lon="6.35425">
        <ele>1131.108</ele>
        <time>2021-05-09T15:25:11Z</time>
      </trkpt>
      <trkpt lat="43.9333" lon="6.35428">
        <ele>1130.709</ele>
        <time>2021-05-09T15:25:10Z</time>
      </trkpt>
      <trkpt lat="43.93349" lon="6.35437">
        <ele>1129.554</ele>
        <time>2021-05-09T15:25:08Z</time>
      </trkpt>
      <trkpt lat="43.93367" lon="6.35453">
        <ele>1127.114</ele>
        <time>2021-05-09T15:25:06Z</time>
      </trkpt>
      <trkpt lat="43.93376" lon="6.35462">
        <ele>1126.54</ele>
        <time>2021-05-09T15:25:05Z</time>
      </trkpt>
      <trkpt lat="43.9339" lon="6.35477">
        <ele>1125.188</ele>
        <time>2021-05-09T15:25:03Z</time>
      </trkpt>
      <trkpt lat="43.93397" lon="6.35484">
        <ele>1124.976</ele>
        <time>2021-05-09T15:25:02Z</time>
      </trkpt>
      <trkpt lat="43.93407" lon="6.35501">
        <ele>1122.873</ele>
        <time>2021-05-09T15:25:00Z</time>
      </trkpt>
      <trkpt lat="43.93411" lon="6.35511">
        <ele>1121.198</ele>
        <time>2021-05-09T15:24:59Z</time>
      </trkpt>
      <trkpt lat="43.93415" lon="6.35521">
        <ele>1119.431</ele>
        <time>2021-05-09T15:24:58Z</time>
      </trkpt>
      <trkpt lat="43.93425" lon="6.3554">
        <ele>1116.837</ele>
        <time>2021-05-09T15:24:56Z</time>
      </trkpt>
      <trkpt lat="43.93431" lon="6.35549">
        <ele>1115.932</ele>
        <time>2021-05-09T15:24:55Z</time>
      </trkpt>
      <trkpt lat="43.93436" lon="6.35558">
        <ele>1114.808</ele>
        <time>2021-05-09T15:24:54Z</time>
      </trkpt>
      <trkpt lat="43.93445" lon="6.35575">
        <ele>1111.517</ele>
        <time>2021-05-09T15:24:52Z</time>
      </trkpt>
      <trkpt lat="43.93455" lon="6.35587">
        <ele>1109.252</ele>
        <time>2021-05-09T15:24:50Z</time>
      </trkpt>
      <trkpt lat="43.93469" lon="6.35596">
        <ele>1108.058</ele>
        <time>2021-05-09T15:24:48Z</time>
      </trkpt>
      <trkpt lat="43.93483" lon="6.35601">
        <ele>1108.551</ele>
        <time>2021-05-09T15:24:46Z</time>
      </trkpt>
      <trkpt lat="43.93495" lon="6.35606">
        <ele>1109.389</ele>
        <time>2021-05-09T15:24:44Z</time>
      </trkpt>
      <trkpt lat="43.93506" lon="6.35618">
        <ele>1107.737</ele>
        <time>2021-05-09T15:24:42Z</time>
      </trkpt>
      <trkpt lat="43.93518" lon="6.35631">
        <ele>1106.194</ele>
        <time>2021-05-09T15:24:40Z</time>
      </trkpt>
      <trkpt lat="43.93533" lon="6.35643">
        <ele>1105.239</ele>
        <time>2021-05-09T15:24:38Z</time>
      </trkpt>
      <trkpt lat="43.93549" lon="6.35657">
        <ele>1103.152</ele>
        <time>2021-05-09T15:24:36Z</time>
      </trkpt>
      <trkpt lat="43.93558" lon="6.35663">
        <ele>1101.828</ele>
        <time>2021-05-09T15:24:35Z</time>
      </trkpt>
      <trkpt lat="43.93566" lon="6.35668">
        <ele>1100.253</ele>
        <time>2021-05-09T15:24:34Z</time>
      </trkpt>
      <trkpt lat="43.9358" lon="6.35672">
        <ele>1098.808</ele>
        <time>2021-05-09T15:24:32Z</time>
      </trkpt>
      <trkpt lat="43.93593" lon="6.35672">
        <ele>1097.416</ele>
        <time>2021-05-09T15:24:30Z</time>
      </trkpt>
      <trkpt lat="43.93602" lon="6.35678">
        <ele>1094.606</ele>
        <time>2021-05-09T15:24:28Z</time>
      </trkpt>
      <trkpt lat="43.93602" lon="6.35688">
        <ele>1092.164</ele>
        <time>2021-05-09T15:24:26Z</time>
      </trkpt>
      <trkpt lat="43.93597" lon="6.3569">
        <ele>1092.141</ele>
        <time>2021-05-09T15:24:25Z</time>
      </trkpt>
      <trkpt lat="43.93591" lon="6.35691">
        <ele>1092.769</ele>
        <time>2021-05-09T15:24:24Z</time>
      </trkpt>
      <trkpt lat="43.93578" lon="6.35688">
        <ele>1094.897</ele>
        <time>2021-05-09T15:24:22Z</time>
      </trkpt>
      <trkpt lat="43.93563" lon="6.35683">
        <ele>1096.784</ele>
        <time>2021-05-09T15:24:20Z</time>
      </trkpt>
      <trkpt lat="43.93554" lon="6.35681">
        <ele>1097.019</ele>
        <time>2021-05-09T15:24:19Z</time>
      </trkpt>
      <trkpt lat="43.93543" lon="6.35681">
        <ele>1095.442</ele>
        <time>2021-05-09T15:24:18Z</time>
      </trkpt>
      <trkpt lat="43.93521" lon="6.35681">
        <ele>1091.468</ele>
        <time>2021-05-09T15:24:16Z</time>
      </trkpt>
      <trkpt lat="43.93498" lon="6.35682">
        <ele>1086.733</ele>
        <time>2021-05-09T15:24:14Z</time>
      </trkpt>
      <trkpt lat="43.93488" lon="6.35684">
        <ele>1084.508</ele>
        <time>2021-05-09T15:24:13Z</time>
      </trkpt>
      <trkpt lat="43.93467" lon="6.35689">
        <ele>1080.811</ele>
        <time>2021-05-09T15:24:11Z</time>
      </trkpt>
      <trkpt lat="43.93457" lon="6.3569">
        <ele>1080.383</ele>
        <time>2021-05-09T15:24:10Z</time>
      </trkpt>
      <trkpt lat="43.93437" lon="6.3569">
        <ele>1079.662</ele>
        <time>2021-05-09T15:24:08Z</time>
      </trkpt>
      <trkpt lat="43.93418" lon="6.35692">
        <ele>1077.84</ele>
        <time>2021-05-09T15:24:06Z</time>
      </trkpt>
      <trkpt lat="43.93408" lon="6.35695">
        <ele>1076.738</ele>
        <time>2021-05-09T15:24:05Z</time>
      </trkpt>
      <trkpt lat="43.9339" lon="6.35701">
        <ele>1074.826</ele>
        <time>2021-05-09T15:24:03Z</time>
      </trkpt>
      <trkpt lat="43.93381" lon="6.35706">
        <ele>1074.833</ele>
        <time>2021-05-09T15:24:02Z</time>
      </trkpt>
      <trkpt lat="43.93373" lon="6.35711">
        <ele>1074.828</ele>
        <time>2021-05-09T15:24:01Z</time>
      </trkpt>
      <trkpt lat="43.93357" lon="6.3572">
        <ele>1074.851</ele>
        <time>2021-05-09T15:23:59Z</time>
      </trkpt>
      <trkpt lat="43.93351" lon="6.35727">
        <ele>1074.327</ele>
        <time>2021-05-09T15:23:58Z</time>
      </trkpt>
      <trkpt lat="43.93342" lon="6.35747">
        <ele>1072.242</ele>
        <time>2021-05-09T15:23:56Z</time>
      </trkpt>
      <trkpt lat="43.93337" lon="6.35771">
        <ele>1070.208</ele>
        <time>2021-05-09T15:23:54Z</time>
      </trkpt>
      <trkpt lat="43.93335" lon="6.35797">
        <ele>1067.617</ele>
        <time>2021-05-09T15:23:52Z</time>
      </trkpt>
      <trkpt lat="43.93333" lon="6.35823">
        <ele>1065.107</ele>
        <time>2021-05-09T15:23:50Z</time>
      </trkpt>
      <trkpt lat="43.93331" lon="6.35848">
        <ele>1063.455</ele>
        <time>2021-05-09T15:23:48Z</time>
      </trkpt>
      <trkpt lat="43.93328" lon="6.35872">
        <ele>1061.653</ele>
        <time>2021-05-09T15:23:46Z</time>
      </trkpt>
      <trkpt lat="43.93325" lon="6.35896">
        <ele>1059.681</ele>
        <time>2021-05-09T15:23:44Z</time>
      </trkpt>
      <trkpt lat="43.93324" lon="6.35908">
        <ele>1058.829</ele>
        <time>2021-05-09T15:23:43Z</time>
      </trkpt>
      <trkpt lat="43.93323" lon="6.3592">
        <ele>1057.916</ele>
        <time>2021-05-09T15:23:42Z</time>
      </trkpt>
      <trkpt lat="43.93322" lon="6.35945">
        <ele>1056.281</ele>
        <time>2021-05-09T15:23:40Z</time>
      </trkpt>
      <trkpt lat="43.93323" lon="6.35969">
        <ele>1054.664</ele>
        <time>2021-05-09T15:23:38Z</time>
      </trkpt>
      <trkpt lat="43.93326" lon="6.3598">
        <ele>1053.76</ele>
        <time>2021-05-09T15:23:37Z</time>
      </trkpt>
      <trkpt lat="43.93333" lon="6.36">
        <ele>1052.065</ele>
        <time>2021-05-09T15:23:35Z</time>
      </trkpt>
      <trkpt lat="43.93339" lon="6.3602">
        <ele>1050.508</ele>
        <time>2021-05-09T15:23:33Z</time>
      </trkpt>
      <trkpt lat="43.93343" lon="6.36042">
        <ele>1049.817</ele>
        <time>2021-05-09T15:23:31Z</time>
      </trkpt>
      <trkpt lat="43.93345" lon="6.36053">
        <ele>1049.607</ele>
        <time>2021-05-09T15:23:30Z</time>
      </trkpt>
      <trkpt lat="43.93351" lon="6.36076">
        <ele>1048.984</ele>
        <time>2021-05-09T15:23:28Z</time>
      </trkpt>
      <trkpt lat="43.93355" lon="6.36085">
        <ele>1048.483</ele>
        <time>2021-05-09T15:23:27Z</time>
      </trkpt>
      <trkpt lat="43.93358" lon="6.36092">
        <ele>1047.991</ele>
        <time>2021-05-09T15:23:26Z</time>
      </trkpt>
      <trkpt lat="43.9337" lon="6.36103">
        <ele>1046.449</ele>
        <time>2021-05-09T15:23:24Z</time>
      </trkpt>
      <trkpt lat="43.93377" lon="6.36108">
        <ele>1045.436</ele>
        <time>2021-05-09T15:23:23Z</time>
      </trkpt>
      <trkpt lat="43.93385" lon="6.3611">
        <ele>1044.561</ele>
        <time>2021-05-09T15:23:22Z</time>
      </trkpt>
      <trkpt lat="43.93401" lon="6.36112">
        <ele>1042.364</ele>
        <time>2021-05-09T15:23:20Z</time>
      </trkpt>
      <trkpt lat="43.93418" lon="6.36111">
        <ele>1039.91</ele>
        <time>2021-05-09T15:23:18Z</time>
      </trkpt>
      <trkpt lat="43.93435" lon="6.36109">
        <ele>1038.755</ele>
        <time>2021-05-09T15:23:16Z</time>
      </trkpt>
      <trkpt lat="43.93453" lon="6.36108">
        <ele>1037.208</ele>
        <time>2021-05-09T15:23:14Z</time>
      </trkpt>
      <trkpt lat="43.93462" lon="6.36108">
        <ele>1036.217</ele>
        <time>2021-05-09T15:23:13Z</time>
      </trkpt>
      <trkpt lat="43.93471" lon="6.36108">
        <ele>1035.389</ele>
        <time>2021-05-09T15:23:12Z</time>
      </trkpt>
      <trkpt lat="43.93479" lon="6.36107">
        <ele>1034.485</ele>
        <time>2021-05-09T15:23:11Z</time>
      </trkpt>
      <trkpt lat="43.93486" lon="6.36107">
        <ele>1033.673</ele>
        <time>2021-05-09T15:23:10Z</time>
      </trkpt>
      <trkpt lat="43.935" lon="6.36107">
        <ele>1032.231</ele>
        <time>2021-05-09T15:23:08Z</time>
      </trkpt>
      <trkpt lat="43.93507" lon="6.36107">
        <ele>1031.619</ele>
        <time>2021-05-09T15:23:07Z</time>
      </trkpt>
      <trkpt lat="43.93515" lon="6.36109">
        <ele>1031.066</ele>
        <time>2021-05-09T15:23:06Z</time>
      </trkpt>
      <trkpt lat="43.93528" lon="6.36114">
        <ele>1030.011</ele>
        <time>2021-05-09T15:23:04Z</time>
      </trkpt>
      <trkpt lat="43.93534" lon="6.36116">
        <ele>1029.684</ele>
        <time>2021-05-09T15:23:03Z</time>
      </trkpt>
      <trkpt lat="43.93545" lon="6.36121">
        <ele>1029.03</ele>
        <time>2021-05-09T15:23:01Z</time>
      </trkpt>
      <trkpt lat="43.9355" lon="6.36122">
        <ele>1028.785</ele>
        <time>2021-05-09T15:23:00Z</time>
      </trkpt>
      <trkpt lat="43.93559" lon="6.36123">
        <ele>1027.808</ele>
        <time>2021-05-09T15:22:49Z</time>
      </trkpt>
      <trkpt lat="43.93568" lon="6.36125">
        <ele>1026.317</ele>
        <time>2021-05-09T15:22:47Z</time>
      </trkpt>
      <trkpt lat="43.93574" lon="6.36126">
        <ele>1025.225</ele>
        <time>2021-05-09T15:22:46Z</time>
      </trkpt>
      <trkpt lat="43.93588" lon="6.36127">
        <ele>1022.983</ele>
        <time>2021-05-09T15:22:44Z</time>
      </trkpt>
      <trkpt lat="43.93596" lon="6.36128">
        <ele>1021.919</ele>
        <time>2021-05-09T15:22:43Z</time>
      </trkpt>
      <trkpt lat="43.93611" lon="6.36131">
        <ele>1020.037</ele>
        <time>2021-05-09T15:22:41Z</time>
      </trkpt>
      <trkpt lat="43.93618" lon="6.36132">
        <ele>1019.225</ele>
        <time>2021-05-09T15:22:40Z</time>
      </trkpt>
      <trkpt lat="43.93633" lon="6.36134">
        <ele>1017.682</ele>
        <time>2021-05-09T15:22:38Z</time>
      </trkpt>
      <trkpt lat="43.9364" lon="6.36135">
        <ele>1016.737</ele>
        <time>2021-05-09T15:22:37Z</time>
      </trkpt>
      <trkpt lat="43.93654" lon="6.36136">
        <ele>1015.32</ele>
        <time>2021-05-09T15:22:35Z</time>
      </trkpt>
      <trkpt lat="43.9366" lon="6.36137">
        <ele>1014.656</ele>
        <time>2021-05-09T15:22:34Z</time>
      </trkpt>
      <trkpt lat="43.93671" lon="6.36137">
        <ele>1013.461</ele>
        <time>2021-05-09T15:22:32Z</time>
      </trkpt>
      <trkpt lat="43.93677" lon="6.36137">
        <ele>1012.908</ele>
        <time>2021-05-09T15:22:31Z</time>
      </trkpt>
      <trkpt lat="43.93684" lon="6.36134">
        <ele>1012.014</ele>
        <time>2021-05-09T15:22:29Z</time>
      </trkpt>
      <trkpt lat="43.93692" lon="6.36132">
        <ele>1011.022</ele>
        <time>2021-05-09T15:22:27Z</time>
      </trkpt>
      <trkpt lat="43.93699" lon="6.36127">
        <ele>1010.242</ele>
        <time>2021-05-09T15:22:25Z</time>
      </trkpt>
      <trkpt lat="43.93703" lon="6.36119">
        <ele>1009.664</ele>
        <time>2021-05-09T15:22:23Z</time>
      </trkpt>
      <trkpt lat="43.93705" lon="6.36111">
        <ele>1009.242</ele>
        <time>2021-05-09T15:22:22Z</time>
      </trkpt>
      <trkpt lat="43.93707" lon="6.36103">
        <ele>1009.23</ele>
        <time>2021-05-09T15:22:21Z</time>
      </trkpt>
      <trkpt lat="43.93709" lon="6.3609">
        <ele>1009.367</ele>
        <time>2021-05-09T15:22:19Z</time>
      </trkpt>
      <trkpt lat="43.93714" lon="6.36087">
        <ele>1009.282</ele>
        <time>2021-05-09T15:22:18Z</time>
      </trkpt>
      <trkpt lat="43.93727" lon="6.3609">
        <ele>1008.185</ele>
        <time>2021-05-09T15:22:16Z</time>
      </trkpt>
      <trkpt lat="43.93744" lon="6.36093">
        <ele>1005.791</ele>
        <time>2021-05-09T15:22:14Z</time>
      </trkpt>
      <trkpt lat="43.93762" lon="6.36097">
        <ele>1004.096</ele>
        <time>2021-05-09T15:22:12Z</time>
      </trkpt>
      <trkpt lat="43.9378" lon="6.36107">
        <ele>1001.008</ele>
        <time>2021-05-09T15:22:10Z</time>
      </trkpt>
      <trkpt lat="43.93797" lon="6.36123">
        <ele>998.927</ele>
        <time>2021-05-09T15:22:08Z</time>
      </trkpt>
      <trkpt lat="43.93805" lon="6.36132">
        <ele>996.907</ele>
        <time>2021-05-09T15:22:07Z</time>
      </trkpt>
      <trkpt lat="43.93811" lon="6.36139">
        <ele>995.399</ele>
        <time>2021-05-09T15:22:06Z</time>
      </trkpt>
      <trkpt lat="43.93823" lon="6.36151">
        <ele>993.821</ele>
        <time>2021-05-09T15:22:04Z</time>
      </trkpt>
      <trkpt lat="43.93836" lon="6.36159">
        <ele>992.659</ele>
        <time>2021-05-09T15:22:02Z</time>
      </trkpt>
      <trkpt lat="43.9385" lon="6.36161">
        <ele>991.567</ele>
        <time>2021-05-09T15:22:00Z</time>
      </trkpt>
      <trkpt lat="43.93862" lon="6.36155">
        <ele>991.814</ele>
        <time>2021-05-09T15:21:58Z</time>
      </trkpt>
      <trkpt lat="43.93872" lon="6.36145">
        <ele>990.679</ele>
        <time>2021-05-09T15:21:56Z</time>
      </trkpt>
      <trkpt lat="43.93879" lon="6.36133">
        <ele>989.212</ele>
        <time>2021-05-09T15:21:54Z</time>
      </trkpt>
      <trkpt lat="43.93882" lon="6.36126">
        <ele>988.118</ele>
        <time>2021-05-09T15:21:53Z</time>
      </trkpt>
      <trkpt lat="43.93885" lon="6.36119">
        <ele>986.963</ele>
        <time>2021-05-09T15:21:52Z</time>
      </trkpt>
      <trkpt lat="43.93889" lon="6.36107">
        <ele>984.808</ele>
        <time>2021-05-09T15:21:50Z</time>
      </trkpt>
      <trkpt lat="43.93893" lon="6.36091">
        <ele>981.016</ele>
        <time>2021-05-09T15:21:48Z</time>
      </trkpt>
      <trkpt lat="43.93895" lon="6.36084">
        <ele>978.906</ele>
        <time>2021-05-09T15:21:47Z</time>
      </trkpt>
      <trkpt lat="43.93899" lon="6.36068">
        <ele>974.864</ele>
        <time>2021-05-09T15:21:45Z</time>
      </trkpt>
      <trkpt lat="43.93901" lon="6.36061">
        <ele>973.124</ele>
        <time>2021-05-09T15:21:44Z</time>
      </trkpt>
      <trkpt lat="43.93903" lon="6.36054">
        <ele>971.332</ele>
        <time>2021-05-09T15:21:43Z</time>
      </trkpt>
      <trkpt lat="43.93906" lon="6.36042">
        <ele>968.69</ele>
        <time>2021-05-09T15:21:41Z</time>
      </trkpt>
      <trkpt lat="43.93908" lon="6.36029">
        <ele>966.477</ele>
        <time>2021-05-09T15:21:40Z</time>
      </trkpt>
      <trkpt lat="43.93909" lon="6.3602">
        <ele>965.942</ele>
        <time>2021-05-09T15:21:38Z</time>
      </trkpt>
      <trkpt lat="43.9391" lon="6.36012">
        <ele>965.875</ele>
        <time>2021-05-09T15:21:37Z</time>
      </trkpt>
      <trkpt lat="43.93911" lon="6.36">
        <ele>965.331</ele>
        <time>2021-05-09T15:21:35Z</time>
      </trkpt>
      <trkpt lat="43.93912" lon="6.35992">
        <ele>964.866</ele>
        <time>2021-05-09T15:21:34Z</time>
      </trkpt>
      <trkpt lat="43.93913" lon="6.35985">
        <ele>964.608</ele>
        <time>2021-05-09T15:21:33Z</time>
      </trkpt>
      <trkpt lat="43.93916" lon="6.35976">
        <ele>963.421</ele>
        <time>2021-05-09T15:21:31Z</time>
      </trkpt>
      <trkpt lat="43.93921" lon="6.35976">
        <ele>963.065</ele>
        <time>2021-05-09T15:21:29Z</time>
      </trkpt>
      <trkpt lat="43.93925" lon="6.35971">
        <ele>963.593</ele>
        <time>2021-05-09T15:21:27Z</time>
      </trkpt>
      <trkpt lat="43.93931" lon="6.35971">
        <ele>963.766</ele>
        <time>2021-05-09T15:21:25Z</time>
      </trkpt>
      <trkpt lat="43.93936" lon="6.35975">
        <ele>963.434</ele>
        <time>2021-05-09T15:21:23Z</time>
      </trkpt>
      <trkpt lat="43.93939" lon="6.3598">
        <ele>962.962</ele>
        <time>2021-05-09T15:21:22Z</time>
      </trkpt>
      <trkpt lat="43.93945" lon="6.35992">
        <ele>961.379</ele>
        <time>2021-05-09T15:21:20Z</time>
      </trkpt>
      <trkpt lat="43.9395" lon="6.36006">
        <ele>962.534</ele>
        <time>2021-05-09T15:21:18Z</time>
      </trkpt>
      <trkpt lat="43.93955" lon="6.36022">
        <ele>962.477</ele>
        <time>2021-05-09T15:21:16Z</time>
      </trkpt>
      <trkpt lat="43.93959" lon="6.3604">
        <ele>962.073</ele>
        <time>2021-05-09T15:21:14Z</time>
      </trkpt>
      <trkpt lat="43.93961" lon="6.3605">
        <ele>961.378</ele>
        <time>2021-05-09T15:21:13Z</time>
      </trkpt>
      <trkpt lat="43.93964" lon="6.36069">
        <ele>960.408</ele>
        <time>2021-05-09T15:21:11Z</time>
      </trkpt>
      <trkpt lat="43.93966" lon="6.36078">
        <ele>960.015</ele>
        <time>2021-05-09T15:21:10Z</time>
      </trkpt>
      <trkpt lat="43.93968" lon="6.36096">
        <ele>958.787</ele>
        <time>2021-05-09T15:21:08Z</time>
      </trkpt>
      <trkpt lat="43.9397" lon="6.36106">
        <ele>957.817</ele>
        <time>2021-05-09T15:21:07Z</time>
      </trkpt>
      <trkpt lat="43.93971" lon="6.36114">
        <ele>957.048</ele>
        <time>2021-05-09T15:21:06Z</time>
      </trkpt>
      <trkpt lat="43.93972" lon="6.36122">
        <ele>956.466</ele>
        <time>2021-05-09T15:21:05Z</time>
      </trkpt>
      <trkpt lat="43.93974" lon="6.36137">
        <ele>954.814</ele>
        <time>2021-05-09T15:21:03Z</time>
      </trkpt>
      <trkpt lat="43.93975" lon="6.36146">
        <ele>953.251</ele>
        <time>2021-05-09T15:21:02Z</time>
      </trkpt>
      <trkpt lat="43.93976" lon="6.36155">
        <ele>951.316</ele>
        <time>2021-05-09T15:21:01Z</time>
      </trkpt>
      <trkpt lat="43.93978" lon="6.36172">
        <ele>947.059</ele>
        <time>2021-05-09T15:20:59Z</time>
      </trkpt>
      <trkpt lat="43.93978" lon="6.36185">
        <ele>942.725</ele>
        <time>2021-05-09T15:20:57Z</time>
      </trkpt>
      <trkpt lat="43.93978" lon="6.36194">
        <ele>939.78</ele>
        <time>2021-05-09T15:20:30Z</time>
      </trkpt>
      <trkpt lat="43.93985" lon="6.362">
        <ele>938.408</ele>
        <time>2021-05-09T15:20:28Z</time>
      </trkpt>
      <trkpt lat="43.93991" lon="6.36201">
        <ele>938.411</ele>
        <time>2021-05-09T15:20:27Z</time>
      </trkpt>
      <trkpt lat="43.94006" lon="6.36195">
        <ele>940.192</ele>
        <time>2021-05-09T15:20:25Z</time>
      </trkpt>
      <trkpt lat="43.94023" lon="6.36183">
        <ele>941.532</ele>
        <time>2021-05-09T15:20:23Z</time>
      </trkpt>
      <trkpt lat="43.94033" lon="6.36176">
        <ele>940.792</ele>
        <time>2021-05-09T15:20:22Z</time>
      </trkpt>
      <trkpt lat="43.94053" lon="6.3616">
        <ele>936.43</ele>
        <time>2021-05-09T15:20:20Z</time>
      </trkpt>
      <trkpt lat="43.94073" lon="6.36141">
        <ele>933.768</ele>
        <time>2021-05-09T15:20:18Z</time>
      </trkpt>
      <trkpt lat="43.9409" lon="6.36122">
        <ele>932.235</ele>
        <time>2021-05-09T15:20:16Z</time>
      </trkpt>
      <trkpt lat="43.94104" lon="6.36106">
        <ele>933.41</ele>
        <time>2021-05-09T15:20:14Z</time>
      </trkpt>
      <trkpt lat="43.94109" lon="6.36102">
        <ele>933.733</ele>
        <time>2021-05-09T15:20:13Z</time>
      </trkpt>
      <trkpt lat="43.94115" lon="6.36101">
        <ele>934.879</ele>
        <time>2021-05-09T15:20:12Z</time>
      </trkpt>
      <trkpt lat="43.94126" lon="6.36109">
        <ele>935.964</ele>
        <time>2021-05-09T15:20:10Z</time>
      </trkpt>
      <trkpt lat="43.94137" lon="6.36126">
        <ele>933.408</ele>
        <time>2021-05-09T15:20:08Z</time>
      </trkpt>
      <trkpt lat="43.94144" lon="6.36135">
        <ele>931.815</ele>
        <time>2021-05-09T15:20:07Z</time>
      </trkpt>
      <trkpt lat="43.94152" lon="6.36143">
        <ele>931.041</ele>
        <time>2021-05-09T15:20:06Z</time>
      </trkpt>
      <trkpt lat="43.94169" lon="6.36155">
        <ele>931.071</ele>
        <time>2021-05-09T15:20:04Z</time>
      </trkpt>
      <trkpt lat="43.94177" lon="6.3616">
        <ele>931.49</ele>
        <time>2021-05-09T15:20:03Z</time>
      </trkpt>
      <trkpt lat="43.94185" lon="6.36167">
        <ele>931.158</ele>
        <time>2021-05-09T15:20:02Z</time>
      </trkpt>
      <trkpt lat="43.94197" lon="6.36183">
        <ele>928.596</ele>
        <time>2021-05-09T15:20:00Z</time>
      </trkpt>
      <trkpt lat="43.94204" lon="6.36199">
        <ele>926.393</ele>
        <time>2021-05-09T15:19:58Z</time>
      </trkpt>
      <trkpt lat="43.9421" lon="6.36214">
        <ele>924.048</ele>
        <time>2021-05-09T15:19:56Z</time>
      </trkpt>
      <trkpt lat="43.94211" lon="6.3622">
        <ele>922.861</ele>
        <time>2021-05-09T15:19:55Z</time>
      </trkpt>
      <trkpt lat="43.94216" lon="6.36231">
        <ele>921.587</ele>
        <time>2021-05-09T15:19:53Z</time>
      </trkpt>
      <trkpt lat="43.94219" lon="6.36236">
        <ele>921.572</ele>
        <time>2021-05-09T15:19:52Z</time>
      </trkpt>
      <trkpt lat="43.94215" lon="6.36241">
        <ele>917.644</ele>
        <time>2021-05-09T15:08:08Z</time>
      </trkpt>
      <trkpt lat="43.94215" lon="6.36248">
        <ele>915.472</ele>
        <time>2021-05-09T15:08:07Z</time>
      </trkpt>
      <trkpt lat="43.94217" lon="6.36264">
        <ele>910.749</ele>
        <time>2021-05-09T15:08:05Z</time>
      </trkpt>
      <trkpt lat="43.94219" lon="6.36283">
        <ele>906.674</ele>
        <time>2021-05-09T15:08:03Z</time>
      </trkpt>
      <trkpt lat="43.94224" lon="6.36299">
        <ele>905.387</ele>
        <time>2021-05-09T15:08:01Z</time>
      </trkpt>
      <trkpt lat="43.94228" lon="6.36306">
        <ele>904.523</ele>
        <time>2021-05-09T15:08:00Z</time>
      </trkpt>
      <trkpt lat="43.94236" lon="6.36318">
        <ele>903.438</ele>
        <time>2021-05-09T15:07:58Z</time>
      </trkpt>
      <trkpt lat="43.94248" lon="6.36327">
        <ele>903.408</ele>
        <time>2021-05-09T15:07:56Z</time>
      </trkpt>
      <trkpt lat="43.94262" lon="6.36335">
        <ele>899.513</ele>
        <time>2021-05-09T15:07:54Z</time>
      </trkpt>
      <trkpt lat="43.94269" lon="6.36339">
        <ele>897.476</ele>
        <time>2021-05-09T15:07:53Z</time>
      </trkpt>
      <trkpt lat="43.94277" lon="6.36344">
        <ele>895.716</ele>
        <time>2021-05-09T15:07:52Z</time>
      </trkpt>
      <trkpt lat="43.9429" lon="6.36355">
        <ele>891.626</ele>
        <time>2021-05-09T15:07:50Z</time>
      </trkpt>
      <trkpt lat="43.94302" lon="6.36365">
        <ele>888.274</ele>
        <time>2021-05-09T15:07:48Z</time>
      </trkpt>
      <trkpt lat="43.94308" lon="6.36371">
        <ele>887.762</ele>
        <time>2021-05-09T15:07:47Z</time>
      </trkpt>
      <trkpt lat="43.94315" lon="6.36376">
        <ele>887.239</ele>
        <time>2021-05-09T15:07:46Z</time>
      </trkpt>
      <trkpt lat="43.94329" lon="6.36386">
        <ele>885.024</ele>
        <time>2021-05-09T15:07:44Z</time>
      </trkpt>
      <trkpt lat="43.94336" lon="6.36391">
        <ele>883.747</ele>
        <time>2021-05-09T15:07:43Z</time>
      </trkpt>
      <trkpt lat="43.94344" lon="6.36396">
        <ele>882.643</ele>
        <time>2021-05-09T15:07:42Z</time>
      </trkpt>
      <trkpt lat="43.94352" lon="6.364">
        <ele>881.268</ele>
        <time>2021-05-09T15:07:41Z</time>
      </trkpt>
      <trkpt lat="43.94361" lon="6.36404">
        <ele>879.508</ele>
        <time>2021-05-09T15:07:40Z</time>
      </trkpt>
      <trkpt lat="43.94378" lon="6.36406">
        <ele>874.909</ele>
        <time>2021-05-09T15:07:38Z</time>
      </trkpt>
      <trkpt lat="43.94387" lon="6.36405">
        <ele>872.754</ele>
        <time>2021-05-09T15:07:37Z</time>
      </trkpt>
      <trkpt lat="43.94405" lon="6.36401">
        <ele>871.114</ele>
        <time>2021-05-09T15:07:35Z</time>
      </trkpt>
      <trkpt lat="43.94414" lon="6.36399">
        <ele>870.397</ele>
        <time>2021-05-09T15:07:34Z</time>
      </trkpt>
      <trkpt lat="43.9443" lon="6.36393">
        <ele>870.085</ele>
        <time>2021-05-09T15:07:32Z</time>
      </trkpt>
      <trkpt lat="43.94437" lon="6.36389">
        <ele>870.093</ele>
        <time>2021-05-09T15:07:31Z</time>
      </trkpt>
      <trkpt lat="43.9445" lon="6.36379">
        <ele>869.64</ele>
        <time>2021-05-09T15:07:29Z</time>
      </trkpt>
      <trkpt lat="43.94455" lon="6.36374">
        <ele>869.395</ele>
        <time>2021-05-09T15:07:28Z</time>
      </trkpt>
      <trkpt lat="43.94468" lon="6.36367">
        <ele>868.518</ele>
        <time>2021-05-09T15:07:26Z</time>
      </trkpt>
      <trkpt lat="43.94484" lon="6.36359">
        <ele>866.794</ele>
        <time>2021-05-09T15:07:24Z</time>
      </trkpt>
      <trkpt lat="43.94501" lon="6.36351">
        <ele>863.769</ele>
        <time>2021-05-09T15:07:22Z</time>
      </trkpt>
      <trkpt lat="43.94517" lon="6.36344">
        <ele>861.208</ele>
        <time>2021-05-09T15:07:20Z</time>
      </trkpt>
      <trkpt lat="43.94525" lon="6.36342">
        <ele>860.011</ele>
        <time>2021-05-09T15:07:19Z</time>
      </trkpt>
      <trkpt lat="43.94541" lon="6.36339">
        <ele>857.247</ele>
        <time>2021-05-09T15:07:17Z</time>
      </trkpt>
      <trkpt lat="43.94549" lon="6.36338">
        <ele>856.026</ele>
        <time>2021-05-09T15:07:16Z</time>
      </trkpt>
      <trkpt lat="43.94566" lon="6.36337">
        <ele>853.533</ele>
        <time>2021-05-09T15:07:14Z</time>
      </trkpt>
      <trkpt lat="43.94574" lon="6.36337">
        <ele>852.191</ele>
        <time>2021-05-09T15:07:13Z</time>
      </trkpt>
      <trkpt lat="43.94582" lon="6.36337">
        <ele>850.859</ele>
        <time>2021-05-09T15:07:12Z</time>
      </trkpt>
      <trkpt lat="43.946" lon="6.36336">
        <ele>846.476</ele>
        <time>2021-05-09T15:07:10Z</time>
      </trkpt>
      <trkpt lat="43.94618" lon="6.36336">
        <ele>842.251</ele>
        <time>2021-05-09T15:07:08Z</time>
      </trkpt>
      <trkpt lat="43.94635" lon="6.36338">
        <ele>838.864</ele>
        <time>2021-05-09T15:07:06Z</time>
      </trkpt>
      <trkpt lat="43.9465" lon="6.3634">
        <ele>836.25</ele>
        <time>2021-05-09T15:07:04Z</time>
      </trkpt>
      <trkpt lat="43.94665" lon="6.3634">
        <ele>833.335</ele>
        <time>2021-05-09T15:07:02Z</time>
      </trkpt>
      <trkpt lat="43.9468" lon="6.36339">
        <ele>831.708</ele>
        <time>2021-05-09T15:07:00Z</time>
      </trkpt>
      <trkpt lat="43.94687" lon="6.36347">
        <ele>831.817</ele>
        <time>2021-05-09T15:06:58Z</time>
      </trkpt>
      <trkpt lat="43.94685" lon="6.36357">
        <ele>833.061</ele>
        <time>2021-05-09T15:06:56Z</time>
      </trkpt>
      <trkpt lat="43.94677" lon="6.3637">
        <ele>833.081</ele>
        <time>2021-05-09T15:06:54Z</time>
      </trkpt>
      <trkpt lat="43.94671" lon="6.36376">
        <ele>833.077</ele>
        <time>2021-05-09T15:06:53Z</time>
      </trkpt>
      <trkpt lat="43.94665" lon="6.36383">
        <ele>833.355</ele>
        <time>2021-05-09T15:06:52Z</time>
      </trkpt>
      <trkpt lat="43.94652" lon="6.36397">
        <ele>832.823</ele>
        <time>2021-05-09T15:06:50Z</time>
      </trkpt>
      <trkpt lat="43.94646" lon="6.36405">
        <ele>832.06</ele>
        <time>2021-05-09T15:06:49Z</time>
      </trkpt>
      <trkpt lat="43.94639" lon="6.36412">
        <ele>831.635</ele>
        <time>2021-05-09T15:06:48Z</time>
      </trkpt>
      <trkpt lat="43.94633" lon="6.36419">
        <ele>831.788</ele>
        <time>2021-05-09T15:06:47Z</time>
      </trkpt>
      <trkpt lat="43.94626" lon="6.36426">
        <ele>831.744</ele>
        <time>2021-05-09T15:06:46Z</time>
      </trkpt>
      <trkpt lat="43.94615" lon="6.36442">
        <ele>831.439</ele>
        <time>2021-05-09T15:06:44Z</time>
      </trkpt>
      <trkpt lat="43.9461" lon="6.3645">
        <ele>830.808</ele>
        <time>2021-05-09T15:06:43Z</time>
      </trkpt>
      <trkpt lat="43.94606" lon="6.36466">
        <ele>828.308</ele>
        <time>2021-05-09T15:06:41Z</time>
      </trkpt>
      <trkpt lat="43.94608" lon="6.36477">
        <ele>824.326</ele>
        <time>2021-05-09T15:06:39Z</time>
      </trkpt>
      <trkpt lat="43.94614" lon="6.36479">
        <ele>821.225</ele>
        <time>2021-05-09T15:06:37Z</time>
      </trkpt>
      <trkpt lat="43.94618" lon="6.36475">
        <ele>820.294</ele>
        <time>2021-05-09T15:06:36Z</time>
      </trkpt>
      <trkpt lat="43.94628" lon="6.36463">
        <ele>819.692</ele>
        <time>2021-05-09T15:06:34Z</time>
      </trkpt>
      <trkpt lat="43.94641" lon="6.36448">
        <ele>818.43</ele>
        <time>2021-05-09T15:06:32Z</time>
      </trkpt>
      <trkpt lat="43.94648" lon="6.36441">
        <ele>817.517</ele>
        <time>2021-05-09T15:06:31Z</time>
      </trkpt>
      <trkpt lat="43.94661" lon="6.3643">
        <ele>816.842</ele>
        <time>2021-05-09T15:06:29Z</time>
      </trkpt>
      <trkpt lat="43.94668" lon="6.36427">
        <ele>815.585</ele>
        <time>2021-05-09T15:06:27Z</time>
      </trkpt>
      <trkpt lat="43.94671" lon="6.36432">
        <ele>812.651</ele>
        <time>2021-05-09T15:06:26Z</time>
      </trkpt>
      <trkpt lat="43.94667" lon="6.36442">
        <ele>809.786</ele>
        <time>2021-05-09T15:06:24Z</time>
      </trkpt>
      <trkpt lat="43.94662" lon="6.36451">
        <ele>809.108</ele>
        <time>2021-05-09T15:06:22Z</time>
      </trkpt>
      <trkpt lat="43.9466" lon="6.36457">
        <ele>808.823</ele>
        <time>2021-05-09T15:06:21Z</time>
      </trkpt>
      <trkpt lat="43.94654" lon="6.36472">
        <ele>807.049</ele>
        <time>2021-05-09T15:06:20Z</time>
      </trkpt>
      <trkpt lat="43.94656" lon="6.36481">
        <ele>803.995</ele>
        <time>2021-05-09T15:06:18Z</time>
      </trkpt>
      <trkpt lat="43.94661" lon="6.36484">
        <ele>801.87</ele>
        <time>2021-05-09T15:06:16Z</time>
      </trkpt>
      <trkpt lat="43.94666" lon="6.3648">
        <ele>801.038</ele>
        <time>2021-05-09T15:06:14Z</time>
      </trkpt>
      <trkpt lat="43.94671" lon="6.36475">
        <ele>800.726</ele>
        <time>2021-05-09T15:06:13Z</time>
      </trkpt>
      <trkpt lat="43.94681" lon="6.36464">
        <ele>799.943</ele>
        <time>2021-05-09T15:06:11Z</time>
      </trkpt>
      <trkpt lat="43.94688" lon="6.36458">
        <ele>799.648</ele>
        <time>2021-05-09T15:06:10Z</time>
      </trkpt>
      <trkpt lat="43.94699" lon="6.36447">
        <ele>799.651</ele>
        <time>2021-05-09T15:06:08Z</time>
      </trkpt>
      <trkpt lat="43.9471" lon="6.36436">
        <ele>799.677</ele>
        <time>2021-05-09T15:06:06Z</time>
      </trkpt>
      <trkpt lat="43.94715" lon="6.36433">
        <ele>799.462</ele>
        <time>2021-05-09T15:06:05Z</time>
      </trkpt>
      <trkpt lat="43.94725" lon="6.36431">
        <ele>797.208</ele>
        <time>2021-05-09T15:06:03Z</time>
      </trkpt>
      <trkpt lat="43.94729" lon="6.36436">
        <ele>793.814</ele>
        <time>2021-05-09T15:06:01Z</time>
      </trkpt>
      <trkpt lat="43.94727" lon="6.36446">
        <ele>790.704</ele>
        <time>2021-05-09T15:05:59Z</time>
      </trkpt>
      <trkpt lat="43.94723" lon="6.36459">
        <ele>787.153</ele>
        <time>2021-05-09T15:05:57Z</time>
      </trkpt>
      <trkpt lat="43.94721" lon="6.36466">
        <ele>784.91</ele>
        <time>2021-05-09T15:05:56Z</time>
      </trkpt>
      <trkpt lat="43.94717" lon="6.36478">
        <ele>782.618</ele>
        <time>2021-05-09T15:05:54Z</time>
      </trkpt>
      <trkpt lat="43.94709" lon="6.36487">
        <ele>783.036</ele>
        <time>2021-05-09T15:05:52Z</time>
      </trkpt>
      <trkpt lat="43.947" lon="6.36494">
        <ele>783.953</ele>
        <time>2021-05-09T15:05:50Z</time>
      </trkpt>
      <trkpt lat="43.94695" lon="6.36499">
        <ele>784.218</ele>
        <time>2021-05-09T15:05:49Z</time>
      </trkpt>
      <trkpt lat="43.94686" lon="6.36512">
        <ele>783.331</ele>
        <time>2021-05-09T15:05:47Z</time>
      </trkpt>
      <trkpt lat="43.94682" lon="6.36519">
        <ele>782.347</ele>
        <time>2021-05-09T15:05:46Z</time>
      </trkpt>
      <trkpt lat="43.94674" lon="6.36534">
        <ele>779.862</ele>
        <time>2021-05-09T15:05:44Z</time>
      </trkpt>
      <trkpt lat="43.94669" lon="6.36542">
        <ele>778.708</ele>
        <time>2021-05-09T15:05:43Z</time>
      </trkpt>
      <trkpt lat="43.94661" lon="6.36558">
        <ele>776.214</ele>
        <time>2021-05-09T15:05:41Z</time>
      </trkpt>
      <trkpt lat="43.94657" lon="6.36565">
        <ele>775.404</ele>
        <time>2021-05-09T15:05:40Z</time>
      </trkpt>
      <trkpt lat="43.94647" lon="6.36578">
        <ele>775.153</ele>
        <time>2021-05-09T15:05:38Z</time>
      </trkpt>
      <trkpt lat="43.94637" lon="6.36587">
        <ele>775.817</ele>
        <time>2021-05-09T15:05:36Z</time>
      </trkpt>
      <trkpt lat="43.94633" lon="6.36602">
        <ele>774.365</ele>
        <time>2021-05-09T15:05:34Z</time>
      </trkpt>
      <trkpt lat="43.94635" lon="6.36618">
        <ele>771.473</ele>
        <time>2021-05-09T15:05:32Z</time>
      </trkpt>
      <trkpt lat="43.94641" lon="6.36627">
        <ele>768.34</ele>
        <time>2021-05-09T15:05:30Z</time>
      </trkpt>
      <trkpt lat="43.94646" lon="6.36626">
        <ele>766.455</ele>
        <time>2021-05-09T15:05:28Z</time>
      </trkpt>
      <trkpt lat="43.94651" lon="6.36616">
        <ele>765.938</ele>
        <time>2021-05-09T15:05:26Z</time>
      </trkpt>
      <trkpt lat="43.94661" lon="6.36601">
        <ele>764.914</ele>
        <time>2021-05-09T15:05:24Z</time>
      </trkpt>
      <trkpt lat="43.94676" lon="6.36591">
        <ele>762.239</ele>
        <time>2021-05-09T15:05:22Z</time>
      </trkpt>
      <trkpt lat="43.94693" lon="6.36585">
        <ele>757.008</ele>
        <time>2021-05-09T15:05:20Z</time>
      </trkpt>
      <trkpt lat="43.94702" lon="6.36583">
        <ele>755.005</ele>
        <time>2021-05-09T15:05:19Z</time>
      </trkpt>
      <trkpt lat="43.94711" lon="6.36579">
        <ele>753.741</ele>
        <time>2021-05-09T15:05:18Z</time>
      </trkpt>
      <trkpt lat="43.94728" lon="6.36566">
        <ele>753.221</ele>
        <time>2021-05-09T15:05:16Z</time>
      </trkpt>
      <trkpt lat="43.94742" lon="6.36558">
        <ele>751.782</ele>
        <time>2021-05-09T15:05:14Z</time>
      </trkpt>
      <trkpt lat="43.94757" lon="6.36559">
        <ele>747.39</ele>
        <time>2021-05-09T15:05:12Z</time>
      </trkpt>
      <trkpt lat="43.94772" lon="6.36558">
        <ele>743.348</ele>
        <time>2021-05-09T15:05:10Z</time>
      </trkpt>
      <trkpt lat="43.94787" lon="6.36549">
        <ele>742.085</ele>
        <time>2021-05-09T15:05:08Z</time>
      </trkpt>
      <trkpt lat="43.94795" lon="6.36543">
        <ele>741.37</ele>
        <time>2021-05-09T15:05:07Z</time>
      </trkpt>
      <trkpt lat="43.94808" lon="6.36532">
        <ele>739.583</ele>
        <time>2021-05-09T15:05:05Z</time>
      </trkpt>
      <trkpt lat="43.94815" lon="6.36527">
        <ele>739.159</ele>
        <time>2021-05-09T15:05:04Z</time>
      </trkpt>
      <trkpt lat="43.94821" lon="6.36521">
        <ele>738.964</ele>
        <time>2021-05-09T15:05:03Z</time>
      </trkpt>
      <trkpt lat="43.94834" lon="6.36511">
        <ele>736.708</ele>
        <time>2021-05-09T15:05:01Z</time>
      </trkpt>
      <trkpt lat="43.94848" lon="6.36504">
        <ele>735.215</ele>
        <time>2021-05-09T15:04:59Z</time>
      </trkpt>
      <trkpt lat="43.94861" lon="6.365">
        <ele>733.041</ele>
        <time>2021-05-09T15:04:57Z</time>
      </trkpt>
      <trkpt lat="43.94874" lon="6.36504">
        <ele>729.671</ele>
        <time>2021-05-09T15:04:55Z</time>
      </trkpt>
      <trkpt lat="43.94886" lon="6.36506">
        <ele>726.687</ele>
        <time>2021-05-09T15:04:53Z</time>
      </trkpt>
      <trkpt lat="43.94892" lon="6.36505">
        <ele>725.555</ele>
        <time>2021-05-09T15:04:52Z</time>
      </trkpt>
      <trkpt lat="43.94902" lon="6.36497">
        <ele>724.223</ele>
        <time>2021-05-09T15:04:50Z</time>
      </trkpt>
      <trkpt lat="43.9491" lon="6.36483">
        <ele>723.55</ele>
        <time>2021-05-09T15:04:48Z</time>
      </trkpt>
      <trkpt lat="43.94913" lon="6.36471">
        <ele>723.765</ele>
        <time>2021-05-09T15:04:47Z</time>
      </trkpt>
      <trkpt lat="43.94916" lon="6.36462">
        <ele>723.618</ele>
        <time>2021-05-09T15:04:45Z</time>
      </trkpt>
      <trkpt lat="43.94919" lon="6.36455">
        <ele>724.284</ele>
        <time>2021-05-09T15:04:44Z</time>
      </trkpt>
      <trkpt lat="43.94923" lon="6.36447">
        <ele>724.659</ele>
        <time>2021-05-09T15:04:42Z</time>
      </trkpt>
      <trkpt lat="43.94927" lon="6.36442">
        <ele>725.108</ele>
        <time>2021-05-09T15:04:40Z</time>
      </trkpt>
      <trkpt lat="43.94932" lon="6.3644">
        <ele>724.917</ele>
        <time>2021-05-09T15:04:39Z</time>
      </trkpt>
      <trkpt lat="43.94937" lon="6.36439">
        <ele>724.389</ele>
        <time>2021-05-09T15:04:37Z</time>
      </trkpt>
      <trkpt lat="43.94944" lon="6.36437">
        <ele>723.728</ele>
        <time>2021-05-09T15:04:35Z</time>
      </trkpt>
      <trkpt lat="43.94952" lon="6.36434">
        <ele>724.041</ele>
        <time>2021-05-09T15:04:33Z</time>
      </trkpt>
      <trkpt lat="43.94959" lon="6.3643">
        <ele>723.929</ele>
        <time>2021-05-09T15:04:31Z</time>
      </trkpt>
      <trkpt lat="43.94966" lon="6.36432">
        <ele>722.747</ele>
        <time>2021-05-09T15:04:29Z</time>
      </trkpt>
      <trkpt lat="43.94971" lon="6.3644">
        <ele>720.884</ele>
        <time>2021-05-09T15:04:27Z</time>
      </trkpt>
      <trkpt lat="43.94978" lon="6.36451">
        <ele>720.059</ele>
        <time>2021-05-09T15:04:25Z</time>
      </trkpt>
      <trkpt lat="43.94985" lon="6.36461">
        <ele>720.012</ele>
        <time>2021-05-09T15:04:23Z</time>
      </trkpt>
      <trkpt lat="43.9499" lon="6.36464">
        <ele>720.078</ele>
        <time>2021-05-09T15:04:22Z</time>
      </trkpt>
      <trkpt lat="43.95002" lon="6.36459">
        <ele>720.063</ele>
        <time>2021-05-09T15:04:20Z</time>
      </trkpt>
      <trkpt lat="43.95014" lon="6.36448">
        <ele>720.008</ele>
        <time>2021-05-09T15:04:18Z</time>
      </trkpt>
      <trkpt lat="43.95026" lon="6.36444">
        <ele>720.018</ele>
        <time>2021-05-09T15:04:16Z</time>
      </trkpt>
      <trkpt lat="43.9504" lon="6.36448">
        <ele>720.044</ele>
        <time>2021-05-09T15:04:14Z</time>
      </trkpt>
      <trkpt lat="43.95047" lon="6.36454">
        <ele>720.063</ele>
        <time>2021-05-09T15:04:13Z</time>
      </trkpt>
      <trkpt lat="43.95053" lon="6.36462">
        <ele>720.056</ele>
        <time>2021-05-09T15:04:12Z</time>
      </trkpt>
      <trkpt lat="43.95066" lon="6.36476">
        <ele>720.074</ele>
        <time>2021-05-09T15:04:10Z</time>
      </trkpt>
      <trkpt lat="43.95079" lon="6.36491">
        <ele>720.052</ele>
        <time>2021-05-09T15:04:08Z</time>
      </trkpt>
      <trkpt lat="43.95086" lon="6.36497">
        <ele>720.099</ele>
        <time>2021-05-09T15:04:07Z</time>
      </trkpt>
      <trkpt lat="43.951" lon="6.36507">
        <ele>720.014</ele>
        <time>2021-05-09T15:04:05Z</time>
      </trkpt>
      <trkpt lat="43.95107" lon="6.3651">
        <ele>720.027</ele>
        <time>2021-05-09T15:04:04Z</time>
      </trkpt>
      <trkpt lat="43.95112" lon="6.36514">
        <ele>720.023</ele>
        <time>2021-05-09T15:04:03Z</time>
      </trkpt>
      <trkpt lat="43.9512" lon="6.36529">
        <ele>720.088</ele>
        <time>2021-05-09T15:04:01Z</time>
      </trkpt>
      <trkpt lat="43.95123" lon="6.36539">
        <ele>720.008</ele>
        <time>2021-05-09T15:04:00Z</time>
      </trkpt>
      <trkpt lat="43.95128" lon="6.36561">
        <ele>720.017</ele>
        <time>2021-05-09T15:03:58Z</time>
      </trkpt>
      <trkpt lat="43.95131" lon="6.3658">
        <ele>720.098</ele>
        <time>2021-05-09T15:03:56Z</time>
      </trkpt>
      <trkpt lat="43.95132" lon="6.36587">
        <ele>720.018</ele>
        <time>2021-05-09T15:03:55Z</time>
      </trkpt>
      <trkpt lat="43.95134" lon="6.36593">
        <ele>720.077</ele>
        <time>2021-05-09T15:03:54Z</time>
      </trkpt>
      <trkpt lat="43.95137" lon="6.36602">
        <ele>720.025</ele>
        <time>2021-05-09T15:03:52Z</time>
      </trkpt>
      <trkpt lat="43.95141" lon="6.3661">
        <ele>720.043</ele>
        <time>2021-05-09T15:03:50Z</time>
      </trkpt>
      <trkpt lat="43.95148" lon="6.36628">
        <ele>720.07</ele>
        <time>2021-05-09T15:03:48Z</time>
      </trkpt>
      <trkpt lat="43.95156" lon="6.36645">
        <ele>720.055</ele>
        <time>2021-05-09T15:03:46Z</time>
      </trkpt>
      <trkpt lat="43.9516" lon="6.36657">
        <ele>720.028</ele>
        <time>2021-05-09T15:03:44Z</time>
      </trkpt>
      <trkpt lat="43.95159" lon="6.36668">
        <ele>720.084</ele>
        <time>2021-05-09T15:03:42Z</time>
      </trkpt>
      <trkpt lat="43.95168" lon="6.36667">
        <ele>993.881</ele>
        <time>2018-09-13T12:44:56Z</time>
      </trkpt>
      <trkpt lat="43.95176" lon="6.36657">
        <ele>993.889</ele>
        <time>2018-09-13T12:44:57Z</time>
      </trkpt>
      <trkpt lat="43.95183" lon="6.36648">
        <ele>993.84</ele>
        <time>2018-09-13T12:44:58Z</time>
      </trkpt>
      <trkpt lat="43.95189" lon="6.36642">
        <ele>993.898</ele>
        <time>2018-09-13T12:44:59Z</time>
      </trkpt>
      <trkpt lat="43.95196" lon="6.36639">
        <ele>993.815</ele>
        <time>2018-09-13T12:45:00Z</time>
      </trkpt>
      <trkpt lat="43.95203" lon="6.36641">
        <ele>992.226</ele>
        <time>2018-09-13T12:45:01Z</time>
      </trkpt>
      <trkpt lat="43.9521" lon="6.36644">
        <ele>992.208</ele>
        <time>2018-09-13T12:45:02Z</time>
      </trkpt>
      <trkpt lat="43.95217" lon="6.36647">
        <ele>992.251</ele>
        <time>2018-09-13T12:45:03Z</time>
      </trkpt>
      <trkpt lat="43.95225" lon="6.36652">
        <ele>992.217</ele>
        <time>2018-09-13T12:45:04Z</time>
      </trkpt>
      <trkpt lat="43.95232" lon="6.36657">
        <ele>992.294</ele>
        <time>2018-09-13T12:45:05Z</time>
      </trkpt>
      <trkpt lat="43.9524" lon="6.36664">
        <ele>992.268</ele>
        <time>2018-09-13T12:45:06Z</time>
      </trkpt>
      <trkpt lat="43.95247" lon="6.36672">
        <ele>992.219</ele>
        <time>2018-09-13T12:45:07Z</time>
      </trkpt>
      <trkpt lat="43.95256" lon="6.36683">
        <ele>990.856</ele>
        <time>2018-09-13T12:45:08Z</time>
      </trkpt>
      <trkpt lat="43.95263" lon="6.36693">
        <ele>990.814</ele>
        <time>2018-09-13T12:45:09Z</time>
      </trkpt>
      <trkpt lat="43.95269" lon="6.367">
        <ele>990.835</ele>
        <time>2018-09-13T12:45:10Z</time>
      </trkpt>
      <trkpt lat="43.95275" lon="6.36707">
        <ele>990.822</ele>
        <time>2018-09-13T12:45:11Z</time>
      </trkpt>
      <trkpt lat="43.95281" lon="6.36716">
        <ele>990.862</ele>
        <time>2018-09-13T12:45:12Z</time>
      </trkpt>
      <trkpt lat="43.95286" lon="6.36725">
        <ele>990.808</ele>
        <time>2018-09-13T12:45:13Z</time>
      </trkpt>
      <trkpt lat="43.95292" lon="6.36734">
        <ele>990.608</ele>
        <time>2018-09-13T12:45:14Z</time>
      </trkpt>
      <trkpt lat="43.95294" lon="6.36746">
        <ele>990.674</ele>
        <time>2018-09-13T12:45:15Z</time>
      </trkpt>
      <trkpt lat="43.95296" lon="6.36757">
        <ele>990.62</ele>
        <time>2018-09-13T12:45:16Z</time>
      </trkpt>
      <trkpt lat="43.95297" lon="6.36767">
        <ele>990.647</ele>
        <time>2018-09-13T12:45:17Z</time>
      </trkpt>
      <trkpt lat="43.953" lon="6.36777">
        <ele>990.641</ele>
        <time>2018-09-13T12:45:18Z</time>
      </trkpt>
      <trkpt lat="43.95304" lon="6.36785">
        <ele>990.682</ele>
        <time>2018-09-13T12:45:19Z</time>
      </trkpt>
      <trkpt lat="43.95307" lon="6.36794">
        <ele>990.229</ele>
        <time>2018-09-13T12:45:20Z</time>
      </trkpt>
      <trkpt lat="43.95318" lon="6.36826">
        <ele>987.408</ele>
        <time>2018-09-13T14:04:56Z</time>
      </trkpt>
      <trkpt lat="43.95321" lon="6.36837">
        <ele>987.581</ele>
        <time>2018-09-13T14:04:58Z</time>
      </trkpt>
      <trkpt lat="43.95323" lon="6.36844">
        <ele>987.567</ele>
        <time>2018-09-13T14:04:59Z</time>
      </trkpt>
      <trkpt lat="43.95326" lon="6.36851">
        <ele>987.524</ele>
        <time>2018-09-13T14:05:00Z</time>
      </trkpt>
      <trkpt lat="43.95329" lon="6.36857">
        <ele>987.578</ele>
        <time>2018-09-13T14:05:01Z</time>
      </trkpt>
      <trkpt lat="43.95332" lon="6.36865">
        <ele>987.569</ele>
        <time>2018-09-13T14:05:02Z</time>
      </trkpt>
      <trkpt lat="43.95335" lon="6.36872">
        <ele>988.236</ele>
        <time>2018-09-13T14:05:03Z</time>
      </trkpt>
      <trkpt lat="43.95337" lon="6.36878">
        <ele>988.254</ele>
        <time>2018-09-13T14:05:04Z</time>
      </trkpt>
      <trkpt lat="43.9534" lon="6.36885">
        <ele>988.235</ele>
        <time>2018-09-13T14:05:05Z</time>
      </trkpt>
      <trkpt lat="43.95343" lon="6.36892">
        <ele>988.245</ele>
        <time>2018-09-13T14:05:06Z</time>
      </trkpt>
      <trkpt lat="43.95347" lon="6.36898">
        <ele>988.447</ele>
        <time>2018-09-13T14:05:07Z</time>
      </trkpt>
      <trkpt lat="43.9535" lon="6.36904">
        <ele>988.411</ele>
        <time>2018-09-13T14:05:08Z</time>
      </trkpt>
      <trkpt lat="43.95356" lon="6.36914">
        <ele>988.408</ele>
        <time>2018-09-13T14:05:10Z</time>
      </trkpt>
      <trkpt lat="43.95359" lon="6.36919">
        <ele>988.436</ele>
        <time>2018-09-13T14:05:11Z</time>
      </trkpt>
      <trkpt lat="43.95363" lon="6.36924">
        <ele>988.942</ele>
        <time>2018-09-13T14:05:12Z</time>
      </trkpt>
      <trkpt lat="43.95364" lon="6.36933">
        <ele>988.969</ele>
        <time>2018-09-13T14:05:13Z</time>
      </trkpt>
      <trkpt lat="43.95367" lon="6.3694">
        <ele>988.993</ele>
        <time>2018-09-13T14:05:14Z</time>
      </trkpt>
      <trkpt lat="43.95367" lon="6.36948">
        <ele>988.984</ele>
        <time>2018-09-13T14:05:15Z</time>
      </trkpt>
      <trkpt lat="43.9537" lon="6.36957">
        <ele>988.961</ele>
        <time>2018-09-13T14:05:16Z</time>
      </trkpt>
      <trkpt lat="43.95375" lon="6.36966">
        <ele>989.759</ele>
        <time>2018-09-13T14:05:17Z</time>
      </trkpt>
      <trkpt lat="43.95379" lon="6.36973">
        <ele>989.79</ele>
        <time>2018-09-13T14:05:18Z</time>
      </trkpt>
      <trkpt lat="43.95382" lon="6.36981">
        <ele>989.784</ele>
        <time>2018-09-13T14:05:19Z</time>
      </trkpt>
      <trkpt lat="43.95385" lon="6.36991">
        <ele>989.707</ele>
        <time>2018-09-13T14:05:20Z</time>
      </trkpt>
      <trkpt lat="43.95388" lon="6.37002">
        <ele>989.717</ele>
        <time>2018-09-13T14:05:21Z</time>
      </trkpt>
      <trkpt lat="43.95393" lon="6.37011">
        <ele>990.308</ele>
        <time>2018-09-13T14:05:22Z</time>
      </trkpt>
      <trkpt lat="43.95396" lon="6.37022">
        <ele>990.38</ele>
        <time>2018-09-13T14:05:23Z</time>
      </trkpt>
      <trkpt lat="43.95399" lon="6.37032">
        <ele>990.326</ele>
        <time>2018-09-13T14:05:24Z</time>
      </trkpt>
      <trkpt lat="43.95403" lon="6.37042">
        <ele>990.333</ele>
        <time>2018-09-13T14:05:25Z</time>
      </trkpt>
      <trkpt lat="43.95407" lon="6.37053">
        <ele>991.017</ele>
        <time>2018-09-13T14:05:26Z</time>
      </trkpt>
      <trkpt lat="43.9541" lon="6.37065">
        <ele>991.068</ele>
        <time>2018-09-13T14:05:27Z</time>
      </trkpt>
      <trkpt lat="43.95414" lon="6.37078">
        <ele>991.055</ele>
        <time>2018-09-13T14:05:28Z</time>
      </trkpt>
      <trkpt lat="43.9542" lon="6.37091">
        <ele>991.013</ele>
        <time>2018-09-13T14:05:29Z</time>
      </trkpt>
      <trkpt lat="43.95425" lon="6.37105">
        <ele>991.984</ele>
        <time>2018-09-13T14:05:30Z</time>
      </trkpt>
      <trkpt lat="43.95432" lon="6.37117">
        <ele>991.949</ele>
        <time>2018-09-13T14:05:31Z</time>
      </trkpt>
      <trkpt lat="43.95438" lon="6.3713">
        <ele>991.902</ele>
        <time>2018-09-13T14:05:32Z</time>
      </trkpt>
      <trkpt lat="43.95445" lon="6.37142">
        <ele>991.922</ele>
        <time>2018-09-13T14:05:33Z</time>
      </trkpt>
      <trkpt lat="43.95452" lon="6.37155">
        <ele>993.908</ele>
        <time>2018-09-13T14:05:34Z</time>
      </trkpt>
      <trkpt lat="43.95459" lon="6.37166">
        <ele>993.966</ele>
        <time>2018-09-13T14:05:35Z</time>
      </trkpt>
      <trkpt lat="43.95466" lon="6.37179">
        <ele>993.992</ele>
        <time>2018-09-13T14:05:36Z</time>
      </trkpt>
      <trkpt lat="43.95474" lon="6.37192">
        <ele>993.959</ele>
        <time>2018-09-13T14:05:37Z</time>
      </trkpt>
      <trkpt lat="43.95482" lon="6.37203">
        <ele>995.283</ele>
        <time>2018-09-13T14:05:38Z</time>
      </trkpt>
      <trkpt lat="43.9549" lon="6.37214">
        <ele>995.214</ele>
        <time>2018-09-13T14:05:39Z</time>
      </trkpt>
      <trkpt lat="43.95498" lon="6.37224">
        <ele>995.261</ele>
        <time>2018-09-13T14:05:40Z</time>
      </trkpt>
      <trkpt lat="43.95507" lon="6.37235">
        <ele>995.299</ele>
        <time>2018-09-13T14:05:41Z</time>
      </trkpt>
      <trkpt lat="43.95516" lon="6.37245">
        <ele>995.24</ele>
        <time>2018-09-13T14:05:42Z</time>
      </trkpt>
      <trkpt lat="43.95524" lon="6.37255">
        <ele>997.781</ele>
        <time>2018-09-13T14:05:43Z</time>
      </trkpt>
      <trkpt lat="43.95533" lon="6.37266">
        <ele>997.761</ele>
        <time>2018-09-13T14:05:44Z</time>
      </trkpt>
      <trkpt lat="43.95542" lon="6.37276">
        <ele>999.117</ele>
        <time>2018-09-13T14:05:45Z</time>
      </trkpt>
      <trkpt lat="43.95551" lon="6.37286">
        <ele>999.108</ele>
        <time>2018-09-13T14:05:46Z</time>
      </trkpt>
      <trkpt lat="43.9556" lon="6.37296">
        <ele>999.12</ele>
        <time>2018-09-13T14:05:47Z</time>
      </trkpt>
      <trkpt lat="43.95569" lon="6.37308">
        <ele>999.196</ele>
        <time>2018-09-13T14:05:48Z</time>
      </trkpt>
      <trkpt lat="43.95577" lon="6.37319">
        <ele>999.163</ele>
        <time>2018-09-13T14:05:49Z</time>
      </trkpt>
      <trkpt lat="43.95584" lon="6.37333">
        <ele>1001.337</ele>
        <time>2018-09-13T14:05:50Z</time>
      </trkpt>
      <trkpt lat="43.95589" lon="6.37348">
        <ele>1001.368</ele>
        <time>2018-09-13T14:05:51Z</time>
      </trkpt>
      <trkpt lat="43.95594" lon="6.37365">
        <ele>1001.395</ele>
        <time>2018-09-13T14:05:52Z</time>
      </trkpt>
      <trkpt lat="43.956" lon="6.3738">
        <ele>1001.343</ele>
        <time>2018-09-13T14:05:53Z</time>
      </trkpt>
      <trkpt lat="43.95605" lon="6.37396">
        <ele>1004.484</ele>
        <time>2018-09-13T14:05:54Z</time>
      </trkpt>
      <trkpt lat="43.95611" lon="6.37411">
        <ele>1004.475</ele>
        <time>2018-09-13T14:05:55Z</time>
      </trkpt>
      <trkpt lat="43.95617" lon="6.37427">
        <ele>1004.428</ele>
        <time>2018-09-13T14:05:56Z</time>
      </trkpt>
      <trkpt lat="43.95624" lon="6.37443">
        <ele>1005.22</ele>
        <time>2018-09-13T14:05:57Z</time>
      </trkpt>
      <trkpt lat="43.95632" lon="6.37458">
        <ele>1005.208</ele>
        <time>2018-09-13T14:05:58Z</time>
      </trkpt>
      <trkpt lat="43.95639" lon="6.37475">
        <ele>1005.269</ele>
        <time>2018-09-13T14:05:59Z</time>
      </trkpt>
      <trkpt lat="43.95648" lon="6.37492">
        <ele>1005.235</ele>
        <time>2018-09-13T14:06:00Z</time>
      </trkpt>
      <trkpt lat="43.95657" lon="6.37508">
        <ele>1004.542</ele>
        <time>2018-09-13T14:06:01Z</time>
      </trkpt>
      <trkpt lat="43.95665" lon="6.37524">
        <ele>1004.566</ele>
        <time>2018-09-13T14:06:02Z</time>
      </trkpt>
      <trkpt lat="43.95674" lon="6.3754">
        <ele>1004.547</ele>
        <time>2018-09-13T14:06:03Z</time>
      </trkpt>
      <trkpt lat="43.95683" lon="6.37556">
        <ele>1003.844</ele>
        <time>2018-09-13T14:06:04Z</time>
      </trkpt>
      <trkpt lat="43.95691" lon="6.37572">
        <ele>1003.872</ele>
        <time>2018-09-13T14:06:05Z</time>
      </trkpt>
      <trkpt lat="43.95701" lon="6.37588">
        <ele>1003.823</ele>
        <time>2018-09-13T14:06:06Z</time>
      </trkpt>
      <trkpt lat="43.95711" lon="6.37601">
        <ele>1004.014</ele>
        <time>2018-09-13T14:06:07Z</time>
      </trkpt>
      <trkpt lat="43.95721" lon="6.37612">
        <ele>1004.054</ele>
        <time>2018-09-13T14:06:08Z</time>
      </trkpt>
      <trkpt lat="43.95733" lon="6.37624">
        <ele>1004.009</ele>
        <time>2018-09-13T14:06:09Z</time>
      </trkpt>
      <trkpt lat="43.95745" lon="6.37636">
        <ele>1004.008</ele>
        <time>2018-09-13T14:06:10Z</time>
      </trkpt>
      <trkpt lat="43.95757" lon="6.37649">
        <ele>1005.483</ele>
        <time>2018-09-13T14:06:11Z</time>
      </trkpt>
      <trkpt lat="43.9577" lon="6.37662">
        <ele>1005.459</ele>
        <time>2018-09-13T14:06:12Z</time>
      </trkpt>
      <trkpt lat="43.95783" lon="6.37674">
        <ele>1005.436</ele>
        <time>2018-09-13T14:06:13Z</time>
      </trkpt>
      <trkpt lat="43.95795" lon="6.37687">
        <ele>1006.55</ele>
        <time>2018-09-13T14:06:14Z</time>
      </trkpt>
      <trkpt lat="43.95808" lon="6.37699">
        <ele>1006.591</ele>
        <time>2018-09-13T14:06:15Z</time>
      </trkpt>
      <trkpt lat="43.95819" lon="6.37711">
        <ele>1006.588</ele>
        <time>2018-09-13T14:06:16Z</time>
      </trkpt>
      <trkpt lat="43.95832" lon="6.37725">
        <ele>1006.566</ele>
        <time>2018-09-13T14:06:17Z</time>
      </trkpt>
      <trkpt lat="43.95845" lon="6.37738">
        <ele>1006.537</ele>
        <time>2018-09-13T14:06:18Z</time>
      </trkpt>
      <trkpt lat="43.95858" lon="6.3775">
        <ele>1006.532</ele>
        <time>2018-09-13T14:06:19Z</time>
      </trkpt>
      <trkpt lat="43.95873" lon="6.37765">
        <ele>1006.592</ele>
        <time>2018-09-13T14:06:20Z</time>
      </trkpt>
      <trkpt lat="43.95887" lon="6.37779">
        <ele>1006.511</ele>
        <time>2018-09-13T14:06:21Z</time>
      </trkpt>
      <trkpt lat="43.95899" lon="6.37793">
        <ele>1006.508</ele>
        <time>2018-09-13T14:06:22Z</time>
      </trkpt>
      <trkpt lat="43.95911" lon="6.37808">
        <ele>1006.475</ele>
        <time>2018-09-13T14:06:23Z</time>
      </trkpt>
      <trkpt lat="43.95922" lon="6.37825">
        <ele>1006.421</ele>
        <time>2018-09-13T14:06:24Z</time>
      </trkpt>
      <trkpt lat="43.95931" lon="6.37843">
        <ele>1006.458</ele>
        <time>2018-09-13T14:06:25Z</time>
      </trkpt>
      <trkpt lat="43.95939" lon="6.37861">
        <ele>1006.452</ele>
        <time>2018-09-13T14:06:26Z</time>
      </trkpt>
      <trkpt lat="43.95946" lon="6.37881">
        <ele>1006.413</ele>
        <time>2018-09-13T14:06:27Z</time>
      </trkpt>
      <trkpt lat="43.95954" lon="6.37902">
        <ele>1006.41</ele>
        <time>2018-09-13T14:06:28Z</time>
      </trkpt>
      <trkpt lat="43.9596" lon="6.37921">
        <ele>1006.668</ele>
        <time>2018-09-13T14:06:29Z</time>
      </trkpt>
      <trkpt lat="43.95967" lon="6.37941">
        <ele>1006.649</ele>
        <time>2018-09-13T14:06:30Z</time>
      </trkpt>
      <trkpt lat="43.95975" lon="6.37961">
        <ele>1006.614</ele>
        <time>2018-09-13T14:06:31Z</time>
      </trkpt>
      <trkpt lat="43.95983" lon="6.37981">
        <ele>1006.654</ele>
        <time>2018-09-13T14:06:32Z</time>
      </trkpt>
      <trkpt lat="43.95991" lon="6.38001">
        <ele>1006.609</ele>
        <time>2018-09-13T14:06:33Z</time>
      </trkpt>
      <trkpt lat="43.95998" lon="6.38022">
        <ele>1006.608</ele>
        <time>2018-09-13T14:06:34Z</time>
      </trkpt>
      <trkpt lat="43.96006" lon="6.38043">
        <ele>1007.513</ele>
        <time>2018-09-13T14:06:35Z</time>
      </trkpt>
      <trkpt lat="43.96014" lon="6.38063">
        <ele>1007.539</ele>
        <time>2018-09-13T14:06:36Z</time>
      </trkpt>
      <trkpt lat="43.96022" lon="6.38084">
        <ele>1007.546</ele>
        <time>2018-09-13T14:06:37Z</time>
      </trkpt>
      <trkpt lat="43.96031" lon="6.38104">
        <ele>1007.56</ele>
        <time>2018-09-13T14:06:38Z</time>
      </trkpt>
      <trkpt lat="43.96038" lon="6.38124">
        <ele>1008.291</ele>
        <time>2018-09-13T14:06:39Z</time>
      </trkpt>
      <trkpt lat="43.96046" lon="6.38146">
        <ele>1008.268</ele>
        <time>2018-09-13T14:06:40Z</time>
      </trkpt>
      <trkpt lat="43.96054" lon="6.38167">
        <ele>1008.276</ele>
        <time>2018-09-13T14:06:41Z</time>
      </trkpt>
      <trkpt lat="43.96063" lon="6.38187">
        <ele>1008.227</ele>
        <time>2018-09-13T14:06:42Z</time>
      </trkpt>
      <trkpt lat="43.96071" lon="6.38209">
        <ele>1008.223</ele>
        <time>2018-09-13T14:06:43Z</time>
      </trkpt>
      <trkpt lat="43.96079" lon="6.38229">
        <ele>1008.183</ele>
        <time>2018-09-13T14:06:44Z</time>
      </trkpt>
      <trkpt lat="43.96087" lon="6.38249">
        <ele>1008.111</ele>
        <time>2018-09-13T14:06:45Z</time>
      </trkpt>
      <trkpt lat="43.96093" lon="6.3827">
        <ele>1008.508</ele>
        <time>2018-09-13T14:06:46Z</time>
      </trkpt>
      <trkpt lat="43.96098" lon="6.3829">
        <ele>1008.614</ele>
        <time>2018-09-13T14:06:47Z</time>
      </trkpt>
      <trkpt lat="43.96102" lon="6.3831">
        <ele>1008.65</ele>
        <time>2018-09-13T14:06:48Z</time>
      </trkpt>
      <trkpt lat="43.96104" lon="6.38331">
        <ele>1008.697</ele>
        <time>2018-09-13T14:06:49Z</time>
      </trkpt>
      <trkpt lat="43.96106" lon="6.3835">
        <ele>1008.681</ele>
        <time>2018-09-13T14:06:50Z</time>
      </trkpt>
      <trkpt lat="43.96106" lon="6.38367">
        <ele>1008.662</ele>
        <time>2018-09-13T14:06:51Z</time>
      </trkpt>
      <trkpt lat="43.96105" lon="6.38382">
        <ele>1008.669</ele>
        <time>2018-09-13T14:06:52Z</time>
      </trkpt>
      <trkpt lat="43.96105" lon="6.38393">
        <ele>1008.697</ele>
        <time>2018-09-13T14:06:53Z</time>
      </trkpt>
      <trkpt lat="43.96106" lon="6.38403">
        <ele>1008.688</ele>
        <time>2018-09-13T14:06:54Z</time>
      </trkpt>
      <trkpt lat="43.9611" lon="6.3841">
        <ele>1008.376</ele>
        <time>2018-09-13T14:06:55Z</time>
      </trkpt>
      <trkpt lat="43.96116" lon="6.38416">
        <ele>1008.39</ele>
        <time>2018-09-13T14:06:56Z</time>
      </trkpt>
      <trkpt lat="43.96123" lon="6.38422">
        <ele>1008.219</ele>
        <time>2018-09-13T14:06:57Z</time>
      </trkpt>
      <trkpt lat="43.96131" lon="6.38429">
        <ele>1008.208</ele>
        <time>2018-09-13T14:06:58Z</time>
      </trkpt>
      <trkpt lat="43.96139" lon="6.38438">
        <ele>1008.269</ele>
        <time>2018-09-13T14:06:59Z</time>
      </trkpt>
      <trkpt lat="43.96149" lon="6.38447">
        <ele>1008.295</ele>
        <time>2018-09-13T14:07:00Z</time>
      </trkpt>
      <trkpt lat="43.9616" lon="6.38454">
        <ele>1008.212</ele>
        <time>2018-09-13T14:07:01Z</time>
      </trkpt>
      <trkpt lat="43.96171" lon="6.38463">
        <ele>1008.246</ele>
        <time>2018-09-13T14:07:02Z</time>
      </trkpt>
      <trkpt lat="43.96181" lon="6.38472">
        <ele>1008.237</ele>
        <time>2018-09-13T14:07:03Z</time>
      </trkpt>
      <trkpt lat="43.96192" lon="6.38482">
        <ele>1008.264</ele>
        <time>2018-09-13T14:07:04Z</time>
      </trkpt>
      <trkpt lat="43.96203" lon="6.38492">
        <ele>1008.272</ele>
        <time>2018-09-13T14:07:05Z</time>
      </trkpt>
      <trkpt lat="43.96214" lon="6.38503">
        <ele>1008.243</ele>
        <time>2018-09-13T14:07:06Z</time>
      </trkpt>
      <trkpt lat="43.96226" lon="6.38513">
        <ele>1008.259</ele>
        <time>2018-09-13T14:07:07Z</time>
      </trkpt>
      <trkpt lat="43.96237" lon="6.38524">
        <ele>1010.903</ele>
        <time>2018-09-13T14:07:08Z</time>
      </trkpt>
      <trkpt lat="43.96249" lon="6.38534">
        <ele>1010.923</ele>
        <time>2018-09-13T14:07:09Z</time>
      </trkpt>
      <trkpt lat="43.96261" lon="6.38545">
        <ele>1010.908</ele>
        <time>2018-09-13T14:07:10Z</time>
      </trkpt>
      <trkpt lat="43.96273" lon="6.38555">
        <ele>1011.187</ele>
        <time>2018-09-13T14:07:11Z</time>
      </trkpt>
      <trkpt lat="43.96283" lon="6.38564">
        <ele>1011.193</ele>
        <time>2018-09-13T14:07:12Z</time>
      </trkpt>
      <trkpt lat="43.96297" lon="6.38573">
        <ele>1011.15</ele>
        <time>2018-09-13T14:07:13Z</time>
      </trkpt>
      <trkpt lat="43.9631" lon="6.38579">
        <ele>1010.974</ele>
        <time>2018-09-13T14:07:14Z</time>
      </trkpt>
      <trkpt lat="43.96324" lon="6.38582">
        <ele>1010.955</ele>
        <time>2018-09-13T14:07:15Z</time>
      </trkpt>
      <trkpt lat="43.96338" lon="6.38582">
        <ele>1010.932</ele>
        <time>2018-09-13T14:07:16Z</time>
      </trkpt>
      <trkpt lat="43.96352" lon="6.38581">
        <ele>1010.91</ele>
        <time>2018-09-13T14:07:17Z</time>
      </trkpt>
      <trkpt lat="43.96367" lon="6.3858">
        <ele>1010.921</ele>
        <time>2018-09-13T14:07:18Z</time>
      </trkpt>
      <trkpt lat="43.96382" lon="6.38582">
        <ele>1010.994</ele>
        <time>2018-09-13T14:07:19Z</time>
      </trkpt>
      <trkpt lat="43.96395" lon="6.38585">
        <ele>1010.957</ele>
        <time>2018-09-13T14:07:20Z</time>
      </trkpt>
      <trkpt lat="43.96409" lon="6.38588">
        <ele>1010.922</ele>
        <time>2018-09-13T14:07:21Z</time>
      </trkpt>
      <trkpt lat="43.96423" lon="6.38592">
        <ele>1010.908</ele>
        <time>2018-09-13T14:07:22Z</time>
      </trkpt>
      <trkpt lat="43.96436" lon="6.38599">
        <ele>1013.231</ele>
        <time>2018-09-13T14:07:23Z</time>
      </trkpt>
      <trkpt lat="43.96448" lon="6.3861">
        <ele>1013.257</ele>
        <time>2018-09-13T14:07:24Z</time>
      </trkpt>
      <trkpt lat="43.96458" lon="6.38622">
        <ele>1013.244</ele>
        <time>2018-09-13T14:07:25Z</time>
      </trkpt>
      <trkpt lat="43.96468" lon="6.38637">
        <ele>1015.568</ele>
        <time>2018-09-13T14:07:26Z</time>
      </trkpt>
      <trkpt lat="43.96477" lon="6.3865">
        <ele>1016.179</ele>
        <time>2018-09-13T14:07:27Z</time>
      </trkpt>
      <trkpt lat="43.96487" lon="6.38661">
        <ele>1016.166</ele>
        <time>2018-09-13T14:07:28Z</time>
      </trkpt>
      <trkpt lat="43.96498" lon="6.38674">
        <ele>1016.124</ele>
        <time>2018-09-13T14:07:29Z</time>
      </trkpt>
      <trkpt lat="43.9651" lon="6.38688">
        <ele>1016.195</ele>
        <time>2018-09-13T14:07:30Z</time>
      </trkpt>
      <trkpt lat="43.96522" lon="6.38699">
        <ele>1016.195</ele>
        <time>2018-09-13T14:07:31Z</time>
      </trkpt>
      <trkpt lat="43.96534" lon="6.38711">
        <ele>1016.149</ele>
        <time>2018-09-13T14:07:32Z</time>
      </trkpt>
      <trkpt lat="43.96547" lon="6.38721">
        <ele>1016.123</ele>
        <time>2018-09-13T14:07:33Z</time>
      </trkpt>
      <trkpt lat="43.96561" lon="6.38731">
        <ele>1016.608</ele>
        <time>2018-09-13T14:07:34Z</time>
      </trkpt>
      <trkpt lat="43.96575" lon="6.38739">
        <ele>1016.641</ele>
        <time>2018-09-13T14:07:35Z</time>
      </trkpt>
      <trkpt lat="43.96589" lon="6.38743">
        <ele>1016.657</ele>
        <time>2018-09-13T14:07:36Z</time>
      </trkpt>
      <trkpt lat="43.96604" lon="6.38748">
        <ele>1016.614</ele>
        <time>2018-09-13T14:07:37Z</time>
      </trkpt>
      <trkpt lat="43.96618" lon="6.38756">
        <ele>1016.628</ele>
        <time>2018-09-13T14:07:38Z</time>
      </trkpt>
      <trkpt lat="43.96632" lon="6.38765">
        <ele>1016.699</ele>
        <time>2018-09-13T14:07:39Z</time>
      </trkpt>
      <trkpt lat="43.96643" lon="6.38776">
        <ele>1016.646</ele>
        <time>2018-09-13T14:07:40Z</time>
      </trkpt>
      <trkpt lat="43.96655" lon="6.38789">
        <ele>1016.474</ele>
        <time>2018-09-13T14:07:41Z</time>
      </trkpt>
      <trkpt lat="43.96668" lon="6.38798">
        <ele>1016.465</ele>
        <time>2018-09-13T14:07:42Z</time>
      </trkpt>
      <trkpt lat="43.96683" lon="6.38803">
        <ele>1016.412</ele>
        <time>2018-09-13T14:07:43Z</time>
      </trkpt>
      <trkpt lat="43.96698" lon="6.38806">
        <ele>1016.432</ele>
        <time>2018-09-13T14:07:44Z</time>
      </trkpt>
      <trkpt lat="43.96713" lon="6.38805">
        <ele>1016.405</ele>
        <time>2018-09-13T14:07:45Z</time>
      </trkpt>
      <trkpt lat="43.96728" lon="6.38802">
        <ele>1018.308</ele>
        <time>2018-09-13T14:07:46Z</time>
      </trkpt>
      <trkpt lat="43.96744" lon="6.38798">
        <ele>1018.343</ele>
        <time>2018-09-13T14:07:47Z</time>
      </trkpt>
      <trkpt lat="43.96759" lon="6.38796">
        <ele>1018.329</ele>
        <time>2018-09-13T14:07:48Z</time>
      </trkpt>
      <trkpt lat="43.96775" lon="6.38795">
        <ele>1018.336</ele>
        <time>2018-09-13T14:07:49Z</time>
      </trkpt>
      <trkpt lat="43.96791" lon="6.38795">
        <ele>1018.32</ele>
        <time>2018-09-13T14:07:50Z</time>
      </trkpt>
      <trkpt lat="43.96808" lon="6.38797">
        <ele>1018.321</ele>
        <time>2018-09-13T14:07:51Z</time>
      </trkpt>
      <trkpt lat="43.96823" lon="6.38799">
        <ele>1018.338</ele>
        <time>2018-09-13T14:07:52Z</time>
      </trkpt>
      <trkpt lat="43.96839" lon="6.38801">
        <ele>1018.336</ele>
        <time>2018-09-13T14:07:53Z</time>
      </trkpt>
      <trkpt lat="43.96855" lon="6.38803">
        <ele>1019.657</ele>
        <time>2018-09-13T14:07:54Z</time>
      </trkpt>
      <trkpt lat="43.96871" lon="6.38804">
        <ele>1019.685</ele>
        <time>2018-09-13T14:07:55Z</time>
      </trkpt>
      <trkpt lat="43.96887" lon="6.38808">
        <ele>1019.689</ele>
        <time>2018-09-13T14:07:56Z</time>
      </trkpt>
      <trkpt lat="43.96902" lon="6.3881">
        <ele>1019.617</ele>
        <time>2018-09-13T14:07:57Z</time>
      </trkpt>
      <trkpt lat="43.96918" lon="6.38812">
        <ele>1019.608</ele>
        <time>2018-09-13T14:07:58Z</time>
      </trkpt>
      <trkpt lat="43.96933" lon="6.38814">
        <ele>1019.62</ele>
        <time>2018-09-13T14:07:59Z</time>
      </trkpt>
      <trkpt lat="43.96949" lon="6.38817">
        <ele>1019.656</ele>
        <time>2018-09-13T14:08:00Z</time>
      </trkpt>
      <trkpt lat="43.96963" lon="6.3882">
        <ele>1020.633</ele>
        <time>2018-09-13T14:08:01Z</time>
      </trkpt>
      <trkpt lat="43.96976" lon="6.38824">
        <ele>1020.667</ele>
        <time>2018-09-13T14:08:02Z</time>
      </trkpt>
      <trkpt lat="43.96989" lon="6.38829">
        <ele>1020.628</ele>
        <time>2018-09-13T14:08:03Z</time>
      </trkpt>
      <trkpt lat="43.97002" lon="6.38838">
        <ele>1020.645</ele>
        <time>2018-09-13T14:08:04Z</time>
      </trkpt>
      <trkpt lat="43.97015" lon="6.38849">
        <ele>1020.693</ele>
        <time>2018-09-13T14:08:05Z</time>
      </trkpt>
      <trkpt lat="43.97028" lon="6.3886">
        <ele>1020.634</ele>
        <time>2018-09-13T14:08:06Z</time>
      </trkpt>
      <trkpt lat="43.97039" lon="6.3887">
        <ele>1020.617</ele>
        <time>2018-09-13T14:08:07Z</time>
      </trkpt>
      <trkpt lat="43.97048" lon="6.3888">
        <ele>1023.587</ele>
        <time>2018-09-13T14:08:08Z</time>
      </trkpt>
      <trkpt lat="43.97055" lon="6.3889">
        <ele>1023.515</ele>
        <time>2018-09-13T14:08:09Z</time>
      </trkpt>
      <trkpt lat="43.97064" lon="6.38898">
        <ele>1023.508</ele>
        <time>2018-09-13T14:08:10Z</time>
      </trkpt>
      <trkpt lat="43.97072" lon="6.38908">
        <ele>1023.583</ele>
        <time>2018-09-13T14:08:11Z</time>
      </trkpt>
      <trkpt lat="43.9708" lon="6.38917">
        <ele>1023.579</ele>
        <time>2018-09-13T14:08:12Z</time>
      </trkpt>
      <trkpt lat="43.97088" lon="6.38926">
        <ele>1023.576</ele>
        <time>2018-09-13T14:08:13Z</time>
      </trkpt>
      <trkpt lat="43.97096" lon="6.38935">
        <ele>1023.57</ele>
        <time>2018-09-13T14:08:14Z</time>
      </trkpt>
      <trkpt lat="43.97103" lon="6.38941">
        <ele>1023.991</ele>
        <time>2018-09-13T14:08:15Z</time>
      </trkpt>
      <trkpt lat="43.9711" lon="6.38946">
        <ele>1025.598</ele>
        <time>2018-09-13T14:08:16Z</time>
      </trkpt>
      <trkpt lat="43.97118" lon="6.38949">
        <ele>1025.556</ele>
        <time>2018-09-13T14:08:17Z</time>
      </trkpt>
      <trkpt lat="43.97127" lon="6.38951">
        <ele>1025.587</ele>
        <time>2018-09-13T14:08:18Z</time>
      </trkpt>
      <trkpt lat="43.97139" lon="6.3895">
        <ele>1025.573</ele>
        <time>2018-09-13T14:08:19Z</time>
      </trkpt>
      <trkpt lat="43.97151" lon="6.38951">
        <ele>1025.585</ele>
        <time>2018-09-13T14:08:20Z</time>
      </trkpt>
      <trkpt lat="43.97164" lon="6.38949">
        <ele>1025.513</ele>
        <time>2018-09-13T14:08:21Z</time>
      </trkpt>
      <trkpt lat="43.97177" lon="6.38947">
        <ele>1025.508</ele>
        <time>2018-09-13T14:08:22Z</time>
      </trkpt>
      <trkpt lat="43.97191" lon="6.38944">
        <ele>1025.579</ele>
        <time>2018-09-13T14:08:23Z</time>
      </trkpt>
      <trkpt lat="43.97206" lon="6.38943">
        <ele>1027.345</ele>
        <time>2018-09-13T14:08:24Z</time>
      </trkpt>
      <trkpt lat="43.9722" lon="6.38948">
        <ele>1026.472</ele>
        <time>2018-09-13T14:08:25Z</time>
      </trkpt>
      <trkpt lat="43.97233" lon="6.38956">
        <ele>1026.486</ele>
        <time>2018-09-13T14:08:26Z</time>
      </trkpt>
      <trkpt lat="43.97245" lon="6.38967">
        <ele>1026.437</ele>
        <time>2018-09-13T14:08:27Z</time>
      </trkpt>
      <trkpt lat="43.97255" lon="6.3898">
        <ele>1026.414</ele>
        <time>2018-09-13T14:08:28Z</time>
      </trkpt>
      <trkpt lat="43.97266" lon="6.38994">
        <ele>1026.472</ele>
        <time>2018-09-13T14:08:29Z</time>
      </trkpt>
      <trkpt lat="43.97276" lon="6.39006">
        <ele>1026.473</ele>
        <time>2018-09-13T14:08:30Z</time>
      </trkpt>
      <trkpt lat="43.97287" lon="6.39018">
        <ele>1026.499</ele>
        <time>2018-09-13T14:08:31Z</time>
      </trkpt>
      <trkpt lat="43.97299" lon="6.39029">
        <ele>1026.407</ele>
        <time>2018-09-13T14:08:32Z</time>
      </trkpt>
      <trkpt lat="43.97312" lon="6.39039">
        <ele>1025.227</ele>
        <time>2018-09-13T14:08:33Z</time>
      </trkpt>
      <trkpt lat="43.97325" lon="6.39046">
        <ele>1025.208</ele>
        <time>2018-09-13T14:08:34Z</time>
      </trkpt>
      <trkpt lat="43.97339" lon="6.39049">
        <ele>1025.211</ele>
        <time>2018-09-13T14:08:35Z</time>
      </trkpt>
      <trkpt lat="43.97354" lon="6.39051">
        <ele>1025.297</ele>
        <time>2018-09-13T14:08:36Z</time>
      </trkpt>
      <trkpt lat="43.97368" lon="6.39053">
        <ele>1025.264</ele>
        <time>2018-09-13T14:08:37Z</time>
      </trkpt>
      <trkpt lat="43.97384" lon="6.39055">
        <ele>1026.488</ele>
        <time>2018-09-13T14:08:38Z</time>
      </trkpt>
      <trkpt lat="43.974" lon="6.39056">
        <ele>1026.489</ele>
        <time>2018-09-13T14:08:39Z</time>
      </trkpt>
      <trkpt lat="43.97415" lon="6.39054">
        <ele>1027.176</ele>
        <time>2018-09-13T14:08:40Z</time>
      </trkpt>
      <trkpt lat="43.9743" lon="6.3905">
        <ele>1027.134</ele>
        <time>2018-09-13T14:08:41Z</time>
      </trkpt>
      <trkpt lat="43.97446" lon="6.39043">
        <ele>1027.185</ele>
        <time>2018-09-13T14:08:42Z</time>
      </trkpt>
      <trkpt lat="43.9746" lon="6.39035">
        <ele>1027.171</ele>
        <time>2018-09-13T14:08:43Z</time>
      </trkpt>
      <trkpt lat="43.97474" lon="6.39026">
        <ele>1028.341</ele>
        <time>2018-09-13T14:08:44Z</time>
      </trkpt>
      <trkpt lat="43.97487" lon="6.39014">
        <ele>1028.315</ele>
        <time>2018-09-13T14:08:45Z</time>
      </trkpt>
      <trkpt lat="43.97498" lon="6.39">
        <ele>1028.308</ele>
        <time>2018-09-13T14:08:46Z</time>
      </trkpt>
      <trkpt lat="43.97508" lon="6.38983">
        <ele>1028.359</ele>
        <time>2018-09-13T14:08:47Z</time>
      </trkpt>
      <trkpt lat="43.97517" lon="6.38967">
        <ele>1029.065</ele>
        <time>2018-09-13T14:08:48Z</time>
      </trkpt>
      <trkpt lat="43.97525" lon="6.38949">
        <ele>1029.082</ele>
        <time>2018-09-13T14:08:49Z</time>
      </trkpt>
      <trkpt lat="43.97535" lon="6.38933">
        <ele>1029.136</ele>
        <time>2018-09-13T14:08:50Z</time>
      </trkpt>
      <trkpt lat="43.97547" lon="6.3892">
        <ele>1029.117</ele>
        <time>2018-09-13T14:08:51Z</time>
      </trkpt>
      <trkpt lat="43.97562" lon="6.3891">
        <ele>1029.144</ele>
        <time>2018-09-13T14:08:52Z</time>
      </trkpt>
      <trkpt lat="43.97577" lon="6.38906">
        <ele>1029.142</ele>
        <time>2018-09-13T14:08:53Z</time>
      </trkpt>
      <trkpt lat="43.97592" lon="6.38903">
        <ele>1028.043</ele>
        <time>2018-09-13T14:08:54Z</time>
      </trkpt>
      <trkpt lat="43.97608" lon="6.38901">
        <ele>1028.026</ele>
        <time>2018-09-13T14:08:55Z</time>
      </trkpt>
      <trkpt lat="43.97625" lon="6.389">
        <ele>1028.047</ele>
        <time>2018-09-13T14:08:56Z</time>
      </trkpt>
      <trkpt lat="43.97641" lon="6.38898">
        <ele>1028.011</ele>
        <time>2018-09-13T14:08:57Z</time>
      </trkpt>
      <trkpt lat="43.97658" lon="6.38894">
        <ele>1028.008</ele>
        <time>2018-09-13T14:08:58Z</time>
      </trkpt>
      <trkpt lat="43.97675" lon="6.38893">
        <ele>1028.054</ele>
        <time>2018-09-13T14:08:59Z</time>
      </trkpt>
      <trkpt lat="43.97691" lon="6.38891">
        <ele>1028.02</ele>
        <time>2018-09-13T14:09:00Z</time>
      </trkpt>
      <trkpt lat="43.97707" lon="6.38889">
        <ele>1028.077</ele>
        <time>2018-09-13T14:09:01Z</time>
      </trkpt>
      <trkpt lat="43.97725" lon="6.38888">
        <ele>1028.051</ele>
        <time>2018-09-13T14:09:02Z</time>
      </trkpt>
      <trkpt lat="43.97741" lon="6.38887">
        <ele>1029.762</ele>
        <time>2018-09-13T14:09:03Z</time>
      </trkpt>
      <trkpt lat="43.97759" lon="6.38888">
        <ele>1029.729</ele>
        <time>2018-09-13T14:09:04Z</time>
      </trkpt>
      <trkpt lat="43.97776" lon="6.3889">
        <ele>1029.797</ele>
        <time>2018-09-13T14:09:05Z</time>
      </trkpt>
      <trkpt lat="43.97792" lon="6.38893">
        <ele>1029.768</ele>
        <time>2018-09-13T14:09:06Z</time>
      </trkpt>
      <trkpt lat="43.97809" lon="6.38899">
        <ele>1029.717</ele>
        <time>2018-09-13T14:09:07Z</time>
      </trkpt>
      <trkpt lat="43.97825" lon="6.38904">
        <ele>1029.787</ele>
        <time>2018-09-13T14:09:08Z</time>
      </trkpt>
      <trkpt lat="43.97842" lon="6.38909">
        <ele>1029.715</ele>
        <time>2018-09-13T14:09:09Z</time>
      </trkpt>
      <trkpt lat="43.97858" lon="6.38915">
        <ele>1031.708</ele>
        <time>2018-09-13T14:09:10Z</time>
      </trkpt>
      <trkpt lat="43.97874" lon="6.38919">
        <ele>1031.743</ele>
        <time>2018-09-13T14:09:11Z</time>
      </trkpt>
      <trkpt lat="43.9789" lon="6.38923">
        <ele>1031.769</ele>
        <time>2018-09-13T14:09:12Z</time>
      </trkpt>
      <trkpt lat="43.97906" lon="6.38924">
        <ele>1031.756</ele>
        <time>2018-09-13T14:09:13Z</time>
      </trkpt>
      <trkpt lat="43.97922" lon="6.38926">
        <ele>1031.78</ele>
        <time>2018-09-13T14:09:14Z</time>
      </trkpt>
      <trkpt lat="43.97938" lon="6.38928">
        <ele>1031.751</ele>
        <time>2018-09-13T14:09:15Z</time>
      </trkpt>
      <trkpt lat="43.97954" lon="6.38929">
        <ele>1033.278</ele>
        <time>2018-09-13T14:09:16Z</time>
      </trkpt>
      <trkpt lat="43.97971" lon="6.38928">
        <ele>1033.286</ele>
        <time>2018-09-13T14:09:17Z</time>
      </trkpt>
      <trkpt lat="43.97987" lon="6.38925">
        <ele>1033.267</ele>
        <time>2018-09-13T14:09:18Z</time>
      </trkpt>
      <trkpt lat="43.98004" lon="6.38923">
        <ele>1033.265</ele>
        <time>2018-09-13T14:09:19Z</time>
      </trkpt>
      <trkpt lat="43.9802" lon="6.3892">
        <ele>1033.268</ele>
        <time>2018-09-13T14:09:20Z</time>
      </trkpt>
      <trkpt lat="43.98036" lon="6.38916">
        <ele>1034.314</ele>
        <time>2018-09-13T14:09:21Z</time>
      </trkpt>
      <trkpt lat="43.98053" lon="6.38911">
        <ele>1034.308</ele>
        <time>2018-09-13T14:09:22Z</time>
      </trkpt>
      <trkpt lat="43.98069" lon="6.38906">
        <ele>1034.318</ele>
        <time>2018-09-13T14:09:23Z</time>
      </trkpt>
      <trkpt lat="43.98086" lon="6.38901">
        <ele>1034.314</ele>
        <time>2018-09-13T14:09:24Z</time>
      </trkpt>
      <trkpt lat="43.98101" lon="6.38896">
        <ele>1034.361</ele>
        <time>2018-09-13T14:09:25Z</time>
      </trkpt>
      <trkpt lat="43.98116" lon="6.38888">
        <ele>1036.415</ele>
        <time>2018-09-13T14:09:26Z</time>
      </trkpt>
      <trkpt lat="43.98131" lon="6.38879">
        <ele>1036.456</ele>
        <time>2018-09-13T14:09:27Z</time>
      </trkpt>
      <trkpt lat="43.98145" lon="6.38869">
        <ele>1036.473</ele>
        <time>2018-09-13T14:09:28Z</time>
      </trkpt>
      <trkpt lat="43.9816" lon="6.38859">
        <ele>1036.481</ele>
        <time>2018-09-13T14:09:29Z</time>
      </trkpt>
      <trkpt lat="43.98173" lon="6.38846">
        <ele>1036.462</ele>
        <time>2018-09-13T14:09:30Z</time>
      </trkpt>
      <trkpt lat="43.98186" lon="6.38832">
        <ele>1036.485</ele>
        <time>2018-09-13T14:09:31Z</time>
      </trkpt>
      <trkpt lat="43.98198" lon="6.38818">
        <ele>1036.489</ele>
        <time>2018-09-13T14:09:32Z</time>
      </trkpt>
      <trkpt lat="43.98213" lon="6.38806">
        <ele>1040.317</ele>
        <time>2018-09-13T14:09:33Z</time>
      </trkpt>
      <trkpt lat="43.98226" lon="6.38792">
        <ele>1040.308</ele>
        <time>2018-09-13T14:09:34Z</time>
      </trkpt>
      <trkpt lat="43.9824" lon="6.38781">
        <ele>1040.33</ele>
        <time>2018-09-13T14:09:35Z</time>
      </trkpt>
      <trkpt lat="43.98256" lon="6.38773">
        <ele>1040.336</ele>
        <time>2018-09-13T14:09:36Z</time>
      </trkpt>
      <trkpt lat="43.98272" lon="6.38767">
        <ele>1040.363</ele>
        <time>2018-09-13T14:09:37Z</time>
      </trkpt>
      <trkpt lat="43.98289" lon="6.38762">
        <ele>1040.377</ele>
        <time>2018-09-13T14:09:38Z</time>
      </trkpt>
      <trkpt lat="43.98306" lon="6.38759">
        <ele>1040.358</ele>
        <time>2018-09-13T14:09:39Z</time>
      </trkpt>
      <trkpt lat="43.98322" lon="6.38755">
        <ele>1040.245</ele>
        <time>2018-09-13T14:09:40Z</time>
      </trkpt>
      <trkpt lat="43.98338" lon="6.38751">
        <ele>1040.253</ele>
        <time>2018-09-13T14:09:41Z</time>
      </trkpt>
      <trkpt lat="43.98354" lon="6.38746">
        <ele>1040.264</ele>
        <time>2018-09-13T14:09:42Z</time>
      </trkpt>
      <trkpt lat="43.98371" lon="6.38741">
        <ele>1040.292</ele>
        <time>2018-09-13T14:09:43Z</time>
      </trkpt>
      <trkpt lat="43.98387" lon="6.38736">
        <ele>1040.273</ele>
        <time>2018-09-13T14:09:44Z</time>
      </trkpt>
      <trkpt lat="43.98404" lon="6.38731">
        <ele>1040.22</ele>
        <time>2018-09-13T14:09:45Z</time>
      </trkpt>
      <trkpt lat="43.98421" lon="6.38726">
        <ele>1040.608</ele>
        <time>2018-09-13T14:09:46Z</time>
      </trkpt>
      <trkpt lat="43.98439" lon="6.38722">
        <ele>1040.621</ele>
        <time>2018-09-13T14:09:47Z</time>
      </trkpt>
      <trkpt lat="43.98456" lon="6.38717">
        <ele>1040.617</ele>
        <time>2018-09-13T14:09:48Z</time>
      </trkpt>
      <trkpt lat="43.98472" lon="6.38712">
        <ele>1040.634</ele>
        <time>2018-09-13T14:09:49Z</time>
      </trkpt>
      <trkpt lat="43.9849" lon="6.3871">
        <ele>1040.688</ele>
        <time>2018-09-13T14:09:50Z</time>
      </trkpt>
      <trkpt lat="43.98505" lon="6.3871">
        <ele>1040.629</ele>
        <time>2018-09-13T14:09:51Z</time>
      </trkpt>
      <trkpt lat="43.98522" lon="6.38714">
        <ele>1040.686</ele>
        <time>2018-09-13T14:09:52Z</time>
      </trkpt>
      <trkpt lat="43.98538" lon="6.3872">
        <ele>1040.654</ele>
        <time>2018-09-13T14:09:53Z</time>
      </trkpt>
      <trkpt lat="43.98555" lon="6.38726">
        <ele>1043.615</ele>
        <time>2018-09-13T14:09:54Z</time>
      </trkpt>
      <trkpt lat="43.98572" lon="6.38731">
        <ele>1043.626</ele>
        <time>2018-09-13T14:09:55Z</time>
      </trkpt>
      <trkpt lat="43.9859" lon="6.38734">
        <ele>1043.647</ele>
        <time>2018-09-13T14:09:56Z</time>
      </trkpt>
      <trkpt lat="43.98607" lon="6.38735">
        <ele>1043.611</ele>
        <time>2018-09-13T14:09:57Z</time>
      </trkpt>
      <trkpt lat="43.98624" lon="6.38736">
        <ele>1043.608</ele>
        <time>2018-09-13T14:09:58Z</time>
      </trkpt>
      <trkpt lat="43.98641" lon="6.38737">
        <ele>1043.634</ele>
        <time>2018-09-13T14:09:59Z</time>
      </trkpt>
      <trkpt lat="43.98659" lon="6.38738">
        <ele>1043.67</ele>
        <time>2018-09-13T14:10:00Z</time>
      </trkpt>
      <trkpt lat="43.98677" lon="6.38739">
        <ele>1043.277</ele>
        <time>2018-09-13T14:10:01Z</time>
      </trkpt>
      <trkpt lat="43.98694" lon="6.38738">
        <ele>1043.221</ele>
        <time>2018-09-13T14:10:02Z</time>
      </trkpt>
      <trkpt lat="43.98711" lon="6.38737">
        <ele>1043.282</ele>
        <time>2018-09-13T14:10:03Z</time>
      </trkpt>
      <trkpt lat="43.98728" lon="6.38735">
        <ele>1043.249</ele>
        <time>2018-09-13T14:10:04Z</time>
      </trkpt>
      <trkpt lat="43.98745" lon="6.38733">
        <ele>1043.277</ele>
        <time>2018-09-13T14:10:05Z</time>
      </trkpt>
      <trkpt lat="43.98762" lon="6.3873">
        <ele>1043.258</ele>
        <time>2018-09-13T14:10:06Z</time>
      </trkpt>
      <trkpt lat="43.98779" lon="6.38724">
        <ele>1043.225</ele>
        <time>2018-09-13T14:10:07Z</time>
      </trkpt>
      <trkpt lat="43.98795" lon="6.38716">
        <ele>1043.226</ele>
        <time>2018-09-13T14:10:08Z</time>
      </trkpt>
      <trkpt lat="43.9881" lon="6.38706">
        <ele>1044.408</ele>
        <time>2018-09-13T14:10:09Z</time>
      </trkpt>
      <trkpt lat="43.98826" lon="6.38697">
        <ele>1044.408</ele>
        <time>2018-09-13T14:10:10Z</time>
      </trkpt>
      <trkpt lat="43.98841" lon="6.38686">
        <ele>1044.464</ele>
        <time>2018-09-13T14:10:11Z</time>
      </trkpt>
      <trkpt lat="43.98856" lon="6.38677">
        <ele>1044.46</ele>
        <time>2018-09-13T14:10:12Z</time>
      </trkpt>
      <trkpt lat="43.9887" lon="6.38668">
        <ele>1044.417</ele>
        <time>2018-09-13T14:10:13Z</time>
      </trkpt>
      <trkpt lat="43.98884" lon="6.38657">
        <ele>1044.491</ele>
        <time>2018-09-13T14:10:14Z</time>
      </trkpt>
      <trkpt lat="43.98898" lon="6.38644">
        <ele>1044.422</ele>
        <time>2018-09-13T14:10:15Z</time>
      </trkpt>
      <trkpt lat="43.98912" lon="6.3863">
        <ele>1045.869</ele>
        <time>2018-09-13T14:10:16Z</time>
      </trkpt>
      <trkpt lat="43.98925" lon="6.38616">
        <ele>1045.817</ele>
        <time>2018-09-13T14:10:17Z</time>
      </trkpt>
      <trkpt lat="43.98939" lon="6.38601">
        <ele>1045.868</ele>
        <time>2018-09-13T14:10:18Z</time>
      </trkpt>
      <trkpt lat="43.98954" lon="6.38589">
        <ele>1045.818</ele>
        <time>2018-09-13T14:10:19Z</time>
      </trkpt>
      <trkpt lat="43.98971" lon="6.38579">
        <ele>1045.898</ele>
        <time>2018-09-13T14:10:20Z</time>
      </trkpt>
      <trkpt lat="43.98987" lon="6.38571">
        <ele>1045.817</ele>
        <time>2018-09-13T14:10:21Z</time>
      </trkpt>
      <trkpt lat="43.99003" lon="6.38564">
        <ele>1046.108</ele>
        <time>2018-09-13T14:10:22Z</time>
      </trkpt>
      <trkpt lat="43.99019" lon="6.38557">
        <ele>1046.193</ele>
        <time>2018-09-13T14:10:23Z</time>
      </trkpt>
      <trkpt lat="43.99036" lon="6.38549">
        <ele>1046.189</ele>
        <time>2018-09-13T14:10:24Z</time>
      </trkpt>
      <trkpt lat="43.99052" lon="6.38541">
        <ele>1046.126</ele>
        <time>2018-09-13T14:10:25Z</time>
      </trkpt>
      <trkpt lat="43.99069" lon="6.38534">
        <ele>1046.33</ele>
        <time>2018-09-13T14:10:26Z</time>
      </trkpt>
      <trkpt lat="43.99085" lon="6.38525">
        <ele>1046.381</ele>
        <time>2018-09-13T14:10:27Z</time>
      </trkpt>
      <trkpt lat="43.991" lon="6.38517">
        <ele>1046.368</ele>
        <time>2018-09-13T14:10:28Z</time>
      </trkpt>
      <trkpt lat="43.99117" lon="6.38509">
        <ele>1046.336</ele>
        <time>2018-09-13T14:10:29Z</time>
      </trkpt>
      <trkpt lat="43.99133" lon="6.38504">
        <ele>1046.387</ele>
        <time>2018-09-13T14:10:30Z</time>
      </trkpt>
      <trkpt lat="43.9915" lon="6.38501">
        <ele>1046.349</ele>
        <time>2018-09-13T14:10:31Z</time>
      </trkpt>
      <trkpt lat="43.99168" lon="6.38501">
        <ele>1046.302</ele>
        <time>2018-09-13T14:10:32Z</time>
      </trkpt>
      <trkpt lat="43.99184" lon="6.38501">
        <ele>1047.622</ele>
        <time>2018-09-13T14:10:33Z</time>
      </trkpt>
      <trkpt lat="43.99202" lon="6.38502">
        <ele>1047.608</ele>
        <time>2018-09-13T14:10:34Z</time>
      </trkpt>
      <trkpt lat="43.99218" lon="6.38502">
        <ele>1047.626</ele>
        <time>2018-09-13T14:10:35Z</time>
      </trkpt>
      <trkpt lat="43.99235" lon="6.38502">
        <ele>1047.692</ele>
        <time>2018-09-13T14:10:36Z</time>
      </trkpt>
      <trkpt lat="43.99252" lon="6.38503">
        <ele>1048.329</ele>
        <time>2018-09-13T14:10:37Z</time>
      </trkpt>
      <trkpt lat="43.99269" lon="6.38502">
        <ele>1048.323</ele>
        <time>2018-09-13T14:10:38Z</time>
      </trkpt>
      <trkpt lat="43.99286" lon="6.38503">
        <ele>1048.314</ele>
        <time>2018-09-13T14:10:39Z</time>
      </trkpt>
      <trkpt lat="43.99303" lon="6.38504">
        <ele>1048.391</ele>
        <time>2018-09-13T14:10:40Z</time>
      </trkpt>
      <trkpt lat="43.9932" lon="6.38506">
        <ele>1049.569</ele>
        <time>2018-09-13T14:10:41Z</time>
      </trkpt>
      <trkpt lat="43.99337" lon="6.38507">
        <ele>1049.52</ele>
        <time>2018-09-13T14:10:42Z</time>
      </trkpt>
      <trkpt lat="43.99354" lon="6.38509">
        <ele>1049.562</ele>
        <time>2018-09-13T14:10:43Z</time>
      </trkpt>
      <trkpt lat="43.99371" lon="6.38511">
        <ele>1049.583</ele>
        <time>2018-09-13T14:10:44Z</time>
      </trkpt>
      <trkpt lat="43.99389" lon="6.38512">
        <ele>1049.311</ele>
        <time>2018-09-13T14:10:45Z</time>
      </trkpt>
      <trkpt lat="43.99405" lon="6.38513">
        <ele>1049.308</ele>
        <time>2018-09-13T14:10:46Z</time>
      </trkpt>
      <trkpt lat="43.99421" lon="6.38512">
        <ele>1049.388</ele>
        <time>2018-09-13T14:10:47Z</time>
      </trkpt>
      <trkpt lat="43.99438" lon="6.38509">
        <ele>1049.384</ele>
        <time>2018-09-13T14:10:48Z</time>
      </trkpt>
      <trkpt lat="43.99454" lon="6.38505">
        <ele>1049.341</ele>
        <time>2018-09-13T14:10:49Z</time>
      </trkpt>
      <trkpt lat="43.99471" lon="6.38501">
        <ele>1049.325</ele>
        <time>2018-09-13T14:10:50Z</time>
      </trkpt>
      <trkpt lat="43.99487" lon="6.38497">
        <ele>1049.346</ele>
        <time>2018-09-13T14:10:51Z</time>
      </trkpt>
      <trkpt lat="43.99504" lon="6.38493">
        <ele>1051.363</ele>
        <time>2018-09-13T14:10:52Z</time>
      </trkpt>
      <trkpt lat="43.9952" lon="6.38489">
        <ele>1051.391</ele>
        <time>2018-09-13T14:10:53Z</time>
      </trkpt>
      <trkpt lat="43.99536" lon="6.38484">
        <ele>1051.372</ele>
        <time>2018-09-13T14:10:54Z</time>
      </trkpt>
      <trkpt lat="43.99552" lon="6.3848">
        <ele>1051.392</ele>
        <time>2018-09-13T14:10:55Z</time>
      </trkpt>
      <trkpt lat="43.99568" lon="6.38475">
        <ele>1051.373</ele>
        <time>2018-09-13T14:10:56Z</time>
      </trkpt>
      <trkpt lat="43.99584" lon="6.3847">
        <ele>1051.32</ele>
        <time>2018-09-13T14:10:57Z</time>
      </trkpt>
      <trkpt lat="43.99599" lon="6.38467">
        <ele>1053.908</ele>
        <time>2018-09-13T14:10:58Z</time>
      </trkpt>
      <trkpt lat="43.99614" lon="6.38464">
        <ele>1053.921</ele>
        <time>2018-09-13T14:10:59Z</time>
      </trkpt>
      <trkpt lat="43.99628" lon="6.38458">
        <ele>1053.977</ele>
        <time>2018-09-13T14:11:00Z</time>
      </trkpt>
      <trkpt lat="43.99642" lon="6.38452">
        <ele>1053.964</ele>
        <time>2018-09-13T14:11:01Z</time>
      </trkpt>
      <trkpt lat="43.99657" lon="6.38445">
        <ele>1053.978</ele>
        <time>2018-09-13T14:11:02Z</time>
      </trkpt>
      <trkpt lat="43.99672" lon="6.38439">
        <ele>1053.999</ele>
        <time>2018-09-13T14:11:03Z</time>
      </trkpt>
      <trkpt lat="43.99687" lon="6.38435">
        <ele>1053.936</ele>
        <time>2018-09-13T14:11:04Z</time>
      </trkpt>
      <trkpt lat="43.99703" lon="6.38433">
        <ele>1053.944</ele>
        <time>2018-09-13T14:11:05Z</time>
      </trkpt>
      <trkpt lat="43.99718" lon="6.38432">
        <ele>1053.955</ele>
        <time>2018-09-13T14:11:06Z</time>
      </trkpt>
      <trkpt lat="43.99733" lon="6.38434">
        <ele>1056.362</ele>
        <time>2018-09-13T14:11:07Z</time>
      </trkpt>
      <trkpt lat="43.99748" lon="6.38436">
        <ele>1056.383</ele>
        <time>2018-09-13T14:11:08Z</time>
      </trkpt>
      <trkpt lat="43.99764" lon="6.38437">
        <ele>1056.311</ele>
        <time>2018-09-13T14:11:09Z</time>
      </trkpt>
      <trkpt lat="43.9978" lon="6.38439">
        <ele>1056.308</ele>
        <time>2018-09-13T14:11:10Z</time>
      </trkpt>
      <trkpt lat="43.99795" lon="6.38442">
        <ele>1056.368</ele>
        <time>2018-09-13T14:11:11Z</time>
      </trkpt>
      <trkpt lat="43.9981" lon="6.38442">
        <ele>1056.364</ele>
        <time>2018-09-13T14:11:12Z</time>
      </trkpt>
      <trkpt lat="43.99825" lon="6.38441">
        <ele>1056.371</ele>
        <time>2018-09-13T14:11:13Z</time>
      </trkpt>
      <trkpt lat="43.99841" lon="6.38438">
        <ele>1056.565</ele>
        <time>2018-09-13T14:11:14Z</time>
      </trkpt>
      <trkpt lat="43.99857" lon="6.38436">
        <ele>1056.566</ele>
        <time>2018-09-13T14:11:15Z</time>
      </trkpt>
      <trkpt lat="43.99873" lon="6.38433">
        <ele>1056.513</ele>
        <time>2018-09-13T14:11:16Z</time>
      </trkpt>
      <trkpt lat="43.99888" lon="6.38428">
        <ele>1056.571</ele>
        <time>2018-09-13T14:11:17Z</time>
      </trkpt>
      <trkpt lat="43.99903" lon="6.38423">
        <ele>1056.532</ele>
        <time>2018-09-13T14:11:18Z</time>
      </trkpt>
      <trkpt lat="43.99919" lon="6.38415">
        <ele>1056.584</ele>
        <time>2018-09-13T14:11:19Z</time>
      </trkpt>
      <trkpt lat="43.99934" lon="6.38407">
        <ele>1056.507</ele>
        <time>2018-09-13T14:11:20Z</time>
      </trkpt>
      <trkpt lat="43.99949" lon="6.38399">
        <ele>1061.917</ele>
        <time>2018-09-13T14:11:21Z</time>
      </trkpt>
      <trkpt lat="43.99963" lon="6.38394">
        <ele>1061.908</ele>
        <time>2018-09-13T14:11:22Z</time>
      </trkpt>
      <trkpt lat="43.99981" lon="6.38394">
        <ele>1061.98</ele>
        <time>2018-09-13T14:11:23Z</time>
      </trkpt>
      <trkpt lat="43.99997" lon="6.38391">
        <ele>1061.926</ele>
        <time>2018-09-13T14:11:24Z</time>
      </trkpt>
      <trkpt lat="44.00013" lon="6.38385">
        <ele>1061.993</ele>
        <time>2018-09-13T14:11:25Z</time>
      </trkpt>
      <trkpt lat="44.00026" lon="6.3838">
        <ele>1061.947</ele>
        <time>2018-09-13T14:11:26Z</time>
      </trkpt>
      <trkpt lat="44.00042" lon="6.38372">
        <ele>1061.968</ele>
        <time>2018-09-13T14:11:27Z</time>
      </trkpt>
      <trkpt lat="44.00056" lon="6.38362">
        <ele>1061.955</ele>
        <time>2018-09-13T14:11:28Z</time>
      </trkpt>
      <trkpt lat="44.00069" lon="6.3835">
        <ele>1066.443</ele>
        <time>2018-09-13T14:11:29Z</time>
      </trkpt>
      <trkpt lat="44.00082" lon="6.38336">
        <ele>1066.454</ele>
        <time>2018-09-13T14:11:30Z</time>
      </trkpt>
      <trkpt lat="44.00094" lon="6.38322">
        <ele>1066.465</ele>
        <time>2018-09-13T14:11:31Z</time>
      </trkpt>
      <trkpt lat="44.00107" lon="6.38307">
        <ele>1066.468</ele>
        <time>2018-09-13T14:11:32Z</time>
      </trkpt>
      <trkpt lat="44.00117" lon="6.38289">
        <ele>1066.414</ele>
        <time>2018-09-13T14:11:33Z</time>
      </trkpt>
      <trkpt lat="44.00126" lon="6.3827">
        <ele>1066.408</ele>
        <time>2018-09-13T14:11:34Z</time>
      </trkpt>
      <trkpt lat="44.00134" lon="6.38249">
        <ele>1066.458</ele>
        <time>2018-09-13T14:11:35Z</time>
      </trkpt>
      <trkpt lat="44.00143" lon="6.3823">
        <ele>1069.494</ele>
        <time>2018-09-13T14:11:36Z</time>
      </trkpt>
      <trkpt lat="44.00151" lon="6.38209">
        <ele>1069.421</ele>
        <time>2018-09-13T14:11:37Z</time>
      </trkpt>
      <trkpt lat="44.0016" lon="6.3819">
        <ele>1069.435</ele>
        <time>2018-09-13T14:11:38Z</time>
      </trkpt>
      <trkpt lat="44.0017" lon="6.3817">
        <ele>1069.476</ele>
        <time>2018-09-13T14:11:39Z</time>
      </trkpt>
      <trkpt lat="44.00181" lon="6.38151">
        <ele>1070.533</ele>
        <time>2018-09-13T14:11:40Z</time>
      </trkpt>
      <trkpt lat="44.00194" lon="6.38133">
        <ele>1070.511</ele>
        <time>2018-09-13T14:11:41Z</time>
      </trkpt>
      <trkpt lat="44.00206" lon="6.38115">
        <ele>1070.552</ele>
        <time>2018-09-13T14:11:42Z</time>
      </trkpt>
      <trkpt lat="44.00218" lon="6.38097">
        <ele>1070.513</ele>
        <time>2018-09-13T14:11:43Z</time>
      </trkpt>
      <trkpt lat="44.00229" lon="6.38078">
        <ele>1070.543</ele>
        <time>2018-09-13T14:11:44Z</time>
      </trkpt>
      <trkpt lat="44.00238" lon="6.38058">
        <ele>1070.507</ele>
        <time>2018-09-13T14:11:45Z</time>
      </trkpt>
      <trkpt lat="44.00246" lon="6.38036">
        <ele>1070.608</ele>
        <time>2018-09-13T14:11:46Z</time>
      </trkpt>
      <trkpt lat="44.00253" lon="6.38016">
        <ele>1070.693</ele>
        <time>2018-09-13T14:11:47Z</time>
      </trkpt>
      <trkpt lat="44.00261" lon="6.37996">
        <ele>1070.699</ele>
        <time>2018-09-13T14:11:48Z</time>
      </trkpt>
      <trkpt lat="44.00269" lon="6.37975">
        <ele>1070.656</ele>
        <time>2018-09-13T14:11:49Z</time>
      </trkpt>
      <trkpt lat="44.00277" lon="6.37956">
        <ele>1070.69</ele>
        <time>2018-09-13T14:11:50Z</time>
      </trkpt>
      <trkpt lat="44.00287" lon="6.37938">
        <ele>1070.641</ele>
        <time>2018-09-13T14:11:51Z</time>
      </trkpt>
      <trkpt lat="44.00297" lon="6.37921">
        <ele>1070.688</ele>
        <time>2018-09-13T14:11:52Z</time>
      </trkpt>
      <trkpt lat="44.00307" lon="6.37906">
        <ele>1070.696</ele>
        <time>2018-09-13T14:11:53Z</time>
      </trkpt>
      <trkpt lat="44.00315" lon="6.37894">
        <ele>1069.997</ele>
        <time>2018-09-13T14:11:54Z</time>
      </trkpt>
      <trkpt lat="44.00322" lon="6.37884">
        <ele>1069.851</ele>
        <time>2018-09-13T14:11:55Z</time>
      </trkpt>
      <trkpt lat="44.00329" lon="6.37875">
        <ele>1069.801</ele>
        <time>2018-09-13T14:11:56Z</time>
      </trkpt>
      <trkpt lat="44.00335" lon="6.37868">
        <ele>1069.811</ele>
        <time>2018-09-13T14:11:57Z</time>
      </trkpt>
      <trkpt lat="44.00341" lon="6.3786">
        <ele>1069.808</ele>
        <time>2018-09-13T14:11:58Z</time>
      </trkpt>
      <trkpt lat="44.00348" lon="6.37851">
        <ele>1069.837</ele>
        <time>2018-09-13T14:11:59Z</time>
      </trkpt>
      <trkpt lat="44.00355" lon="6.37841">
        <ele>1069.873</ele>
        <time>2018-09-13T14:12:00Z</time>
      </trkpt>
      <trkpt lat="44.00363" lon="6.37833">
        <ele>1069.88</ele>
        <time>2018-09-13T14:12:01Z</time>
      </trkpt>
      <trkpt lat="44.00371" lon="6.37823">
        <ele>1069.894</ele>
        <time>2018-09-13T14:12:02Z</time>
      </trkpt>
      <trkpt lat="44.0038" lon="6.37814">
        <ele>1068.125</ele>
        <time>2018-09-13T14:12:03Z</time>
      </trkpt>
      <trkpt lat="44.0039" lon="6.37803">
        <ele>1068.172</ele>
        <time>2018-09-13T14:12:04Z</time>
      </trkpt>
      <trkpt lat="44.00401" lon="6.37793">
        <ele>1068.14</ele>
        <time>2018-09-13T14:12:05Z</time>
      </trkpt>
      <trkpt lat="44.00414" lon="6.37783">
        <ele>1068.161</ele>
        <time>2018-09-13T14:12:06Z</time>
      </trkpt>
      <trkpt lat="44.00426" lon="6.37775">
        <ele>1068.169</ele>
        <time>2018-09-13T14:12:07Z</time>
      </trkpt>
      <trkpt lat="44.0044" lon="6.3777">
        <ele>1068.104</ele>
        <time>2018-09-13T14:12:08Z</time>
      </trkpt>
      <trkpt lat="44.00453" lon="6.37768">
        <ele>1068.124</ele>
        <time>2018-09-13T14:12:09Z</time>
      </trkpt>
      <trkpt lat="44.00468" lon="6.37768">
        <ele>1068.108</ele>
        <time>2018-09-13T14:12:10Z</time>
      </trkpt>
      <trkpt lat="44.00482" lon="6.37772">
        <ele>1070.178</ele>
        <time>2018-09-13T14:12:11Z</time>
      </trkpt>
      <trkpt lat="44.00496" lon="6.37778">
        <ele>1070.124</ele>
        <time>2018-09-13T14:12:12Z</time>
      </trkpt>
      <trkpt lat="44.00508" lon="6.37786">
        <ele>1070.141</ele>
        <time>2018-09-13T14:12:13Z</time>
      </trkpt>
      <trkpt lat="44.00519" lon="6.378">
        <ele>1070.155</ele>
        <time>2018-09-13T14:12:14Z</time>
      </trkpt>
      <trkpt lat="44.00529" lon="6.37814">
        <ele>1070.136</ele>
        <time>2018-09-13T14:12:15Z</time>
      </trkpt>
      <trkpt lat="44.00539" lon="6.37827">
        <ele>1070.193</ele>
        <time>2018-09-13T14:12:16Z</time>
      </trkpt>
      <trkpt lat="44.00549" lon="6.37841">
        <ele>1070.121</ele>
        <time>2018-09-13T14:12:17Z</time>
      </trkpt>
      <trkpt lat="44.0056" lon="6.37855">
        <ele>1070.132</ele>
        <time>2018-09-13T14:12:18Z</time>
      </trkpt>
      <trkpt lat="44.0057" lon="6.3787">
        <ele>1071.059</ele>
        <time>2018-09-13T14:12:19Z</time>
      </trkpt>
      <trkpt lat="44.00579" lon="6.37884">
        <ele>1071.003</ele>
        <time>2018-09-13T14:12:20Z</time>
      </trkpt>
      <trkpt lat="44.00589" lon="6.37898">
        <ele>1071.023</ele>
        <time>2018-09-13T14:12:21Z</time>
      </trkpt>
      <trkpt lat="44.00597" lon="6.3791">
        <ele>1071.008</ele>
        <time>2018-09-13T14:12:22Z</time>
      </trkpt>
      <trkpt lat="44.00605" lon="6.37923">
        <ele>1071.017</ele>
        <time>2018-09-13T14:12:23Z</time>
      </trkpt>
      <trkpt lat="44.00611" lon="6.37937">
        <ele>1071.083</ele>
        <time>2018-09-13T14:12:24Z</time>
      </trkpt>
      <trkpt lat="44.00614" lon="6.37955">
        <ele>1069.77</ele>
        <time>2018-09-13T14:12:25Z</time>
      </trkpt>
      <trkpt lat="44.00615" lon="6.37972">
        <ele>1069.734</ele>
        <time>2018-09-13T14:12:26Z</time>
      </trkpt>
      <trkpt lat="44.00612" lon="6.3799">
        <ele>1069.725</ele>
        <time>2018-09-13T14:12:27Z</time>
      </trkpt>
      <trkpt lat="44.00608" lon="6.38008">
        <ele>1069.792</ele>
        <time>2018-09-13T14:12:28Z</time>
      </trkpt>
      <trkpt lat="44.00603" lon="6.38025">
        <ele>1069.79</ele>
        <time>2018-09-13T14:12:29Z</time>
      </trkpt>
      <trkpt lat="44.00598" lon="6.38043">
        <ele>1069.721</ele>
        <time>2018-09-13T14:12:30Z</time>
      </trkpt>
      <trkpt lat="44.00592" lon="6.3806">
        <ele>1069.788</ele>
        <time>2018-09-13T14:12:31Z</time>
      </trkpt>
      <trkpt lat="44.00588" lon="6.38077">
        <ele>1069.724</ele>
        <time>2018-09-13T14:12:32Z</time>
      </trkpt>
      <trkpt lat="44.00584" lon="6.38094">
        <ele>1070.826</ele>
        <time>2018-09-13T14:12:33Z</time>
      </trkpt>
      <trkpt lat="44.00582" lon="6.38116">
        <ele>1070.808</ele>
        <time>2018-09-13T14:12:34Z</time>
      </trkpt>
      <trkpt lat="44.00581" lon="6.38135">
        <ele>1070.98</ele>
        <time>2018-09-13T14:12:35Z</time>
      </trkpt>
      <trkpt lat="44.00582" lon="6.38154">
        <ele>1070.966</ele>
        <time>2018-09-13T14:12:36Z</time>
      </trkpt>
      <trkpt lat="44.00587" lon="6.38173">
        <ele>1070.963</ele>
        <time>2018-09-13T14:12:37Z</time>
      </trkpt>
      <trkpt lat="44.00592" lon="6.38192">
        <ele>1070.927</ele>
        <time>2018-09-13T14:12:38Z</time>
      </trkpt>
      <trkpt lat="44.006" lon="6.38211">
        <ele>1070.968</ele>
        <time>2018-09-13T14:12:39Z</time>
      </trkpt>
      <trkpt lat="44.00611" lon="6.38223">
        <ele>1070.935</ele>
        <time>2018-09-13T14:12:40Z</time>
      </trkpt>
      <trkpt lat="44.00623" lon="6.38236">
        <ele>1070.963</ele>
        <time>2018-09-13T14:12:41Z</time>
      </trkpt>
      <trkpt lat="44.00635" lon="6.38247">
        <ele>1070.944</ele>
        <time>2018-09-13T14:12:42Z</time>
      </trkpt>
      <trkpt lat="44.0065" lon="6.3826">
        <ele>1072.561</ele>
        <time>2018-09-13T14:12:43Z</time>
      </trkpt>
      <trkpt lat="44.00663" lon="6.38272">
        <ele>1072.521</ele>
        <time>2018-09-13T14:12:44Z</time>
      </trkpt>
      <trkpt lat="44.00676" lon="6.38285">
        <ele>1072.513</ele>
        <time>2018-09-13T14:12:45Z</time>
      </trkpt>
      <trkpt lat="44.0069" lon="6.38298">
        <ele>1072.508</ele>
        <time>2018-09-13T14:12:46Z</time>
      </trkpt>
      <trkpt lat="44.00704" lon="6.38309">
        <ele>1072.538</ele>
        <time>2018-09-13T14:12:47Z</time>
      </trkpt>
      <trkpt lat="44.00718" lon="6.38318">
        <ele>1072.554</ele>
        <time>2018-09-13T14:12:48Z</time>
      </trkpt>
      <trkpt lat="44.00734" lon="6.38323">
        <ele>1072.591</ele>
        <time>2018-09-13T14:12:49Z</time>
      </trkpt>
      <trkpt lat="44.0075" lon="6.38325">
        <ele>1072.215</ele>
        <time>2018-09-13T14:12:50Z</time>
      </trkpt>
      <trkpt lat="44.00766" lon="6.38326">
        <ele>1072.216</ele>
        <time>2018-09-13T14:12:51Z</time>
      </trkpt>
      <trkpt lat="44.00783" lon="6.38326">
        <ele>1072.243</ele>
        <time>2018-09-13T14:12:52Z</time>
      </trkpt>
      <trkpt lat="44.008" lon="6.38327">
        <ele>1072.291</ele>
        <time>2018-09-13T14:12:53Z</time>
      </trkpt>
      <trkpt lat="44.00816" lon="6.38326">
        <ele>1072.422</ele>
        <time>2018-09-13T14:12:54Z</time>
      </trkpt>
      <trkpt lat="44.00833" lon="6.38326">
        <ele>1072.459</ele>
        <time>2018-09-13T14:12:55Z</time>
      </trkpt>
      <trkpt lat="44.0085" lon="6.38326">
        <ele>1072.403</ele>
        <time>2018-09-13T14:12:56Z</time>
      </trkpt>
      <trkpt lat="44.00866" lon="6.38325">
        <ele>1072.423</ele>
        <time>2018-09-13T14:12:57Z</time>
      </trkpt>
      <trkpt lat="44.00883" lon="6.38327">
        <ele>1072.408</ele>
        <time>2018-09-13T14:12:58Z</time>
      </trkpt>
      <trkpt lat="44.00899" lon="6.3833">
        <ele>1072.477</ele>
        <time>2018-09-13T14:12:59Z</time>
      </trkpt>
      <trkpt lat="44.00916" lon="6.38334">
        <ele>1072.483</ele>
        <time>2018-09-13T14:13:00Z</time>
      </trkpt>
      <trkpt lat="44.00932" lon="6.38338">
        <ele>1072.41</ele>
        <time>2018-09-13T14:13:01Z</time>
      </trkpt>
      <trkpt lat="44.00948" lon="6.38342">
        <ele>1072.464</ele>
        <time>2018-09-13T14:13:02Z</time>
      </trkpt>
      <trkpt lat="44.00965" lon="6.38345">
        <ele>1072.475</ele>
        <time>2018-09-13T14:13:03Z</time>
      </trkpt>
      <trkpt lat="44.00982" lon="6.3835">
        <ele>1072.492</ele>
        <time>2018-09-13T14:13:04Z</time>
      </trkpt>
      <trkpt lat="44.00999" lon="6.38354">
        <ele>1072.49</ele>
        <time>2018-09-13T14:13:05Z</time>
      </trkpt>
      <trkpt lat="44.01015" lon="6.38359">
        <ele>1072.461</ele>
        <time>2018-09-13T14:13:06Z</time>
      </trkpt>
      <trkpt lat="44.01032" lon="6.38364">
        <ele>1072.489</ele>
        <time>2018-09-13T14:13:07Z</time>
      </trkpt>
      <trkpt lat="44.01049" lon="6.3837">
        <ele>1075.506</ele>
        <time>2018-09-13T14:13:08Z</time>
      </trkpt>
      <trkpt lat="44.01065" lon="6.38374">
        <ele>1075.526</ele>
        <time>2018-09-13T14:13:09Z</time>
      </trkpt>
      <trkpt lat="44.01082" lon="6.38379">
        <ele>1075.508</ele>
        <time>2018-09-13T14:13:10Z</time>
      </trkpt>
      <trkpt lat="44.01098" lon="6.38384">
        <ele>1075.57</ele>
        <time>2018-09-13T14:13:11Z</time>
      </trkpt>
      <trkpt lat="44.01115" lon="6.38389">
        <ele>1075.556</ele>
        <time>2018-09-13T14:13:12Z</time>
      </trkpt>
      <trkpt lat="44.01132" lon="6.38394">
        <ele>1075.593</ele>
        <time>2018-09-13T14:13:13Z</time>
      </trkpt>
      <trkpt lat="44.01148" lon="6.38398">
        <ele>1075.537</ele>
        <time>2018-09-13T14:13:14Z</time>
      </trkpt>
      <trkpt lat="44.01164" lon="6.38404">
        <ele>1077.518</ele>
        <time>2018-09-13T14:13:15Z</time>
      </trkpt>
      <trkpt lat="44.01179" lon="6.38408">
        <ele>1077.575</ele>
        <time>2018-09-13T14:13:16Z</time>
      </trkpt>
      <trkpt lat="44.01193" lon="6.38413">
        <ele>1077.553</ele>
        <time>2018-09-13T14:13:17Z</time>
      </trkpt>
      <trkpt lat="44.01205" lon="6.38416">
        <ele>1077.544</ele>
        <time>2018-09-13T14:13:18Z</time>
      </trkpt>
      <trkpt lat="44.01216" lon="6.3842">
        <ele>1077.556</ele>
        <time>2018-09-13T14:13:19Z</time>
      </trkpt>
      <trkpt lat="44.01224" lon="6.38425">
        <ele>1077.759</ele>
        <time>2018-09-13T14:13:20Z</time>
      </trkpt>
      <trkpt lat="44.0123" lon="6.38432">
        <ele>1077.714</ele>
        <time>2018-09-13T14:13:21Z</time>
      </trkpt>
      <trkpt lat="44.01234" lon="6.38443">
        <ele>1077.708</ele>
        <time>2018-09-13T14:13:22Z</time>
      </trkpt>
      <trkpt lat="44.01235" lon="6.38455">
        <ele>1077.717</ele>
        <time>2018-09-13T14:13:23Z</time>
      </trkpt>
      <trkpt lat="44.01237" lon="6.38468">
        <ele>1077.723</ele>
        <time>2018-09-13T14:13:24Z</time>
      </trkpt>
      <trkpt lat="44.01241" lon="6.3848">
        <ele>1077.78</ele>
        <time>2018-09-13T14:13:25Z</time>
      </trkpt>
      <trkpt lat="44.01245" lon="6.38493">
        <ele>1077.754</ele>
        <time>2018-09-13T14:13:26Z</time>
      </trkpt>
      <trkpt lat="44.01249" lon="6.38507">
        <ele>1077.795</ele>
        <time>2018-09-13T14:13:27Z</time>
      </trkpt>
      <trkpt lat="44.01252" lon="6.38521">
        <ele>1077.722</ele>
        <time>2018-09-13T14:13:28Z</time>
      </trkpt>
      <trkpt lat="44.01255" lon="6.38535">
        <ele>1078.53</ele>
        <time>2018-09-13T14:13:29Z</time>
      </trkpt>
      <trkpt lat="44.01256" lon="6.38549">
        <ele>1078.561</ele>
        <time>2018-09-13T14:13:30Z</time>
      </trkpt>
      <trkpt lat="44.01253" lon="6.38562">
        <ele>1078.525</ele>
        <time>2018-09-13T14:13:31Z</time>
      </trkpt>
      <trkpt lat="44.01248" lon="6.38574">
        <ele>1078.526</ele>
        <time>2018-09-13T14:13:32Z</time>
      </trkpt>
      <trkpt lat="44.01242" lon="6.38586">
        <ele>1079.808</ele>
        <time>2018-09-13T14:13:33Z</time>
      </trkpt>
      <trkpt lat="44.01238" lon="6.386">
        <ele>1079.808</ele>
        <time>2018-09-13T14:13:34Z</time>
      </trkpt>
      <trkpt lat="44.01237" lon="6.38615">
        <ele>1079.884</ele>
        <time>2018-09-13T14:13:35Z</time>
      </trkpt>
      <trkpt lat="44.01238" lon="6.38631">
        <ele>1081.15</ele>
        <time>2018-09-13T14:13:36Z</time>
      </trkpt>
      <trkpt lat="44.01239" lon="6.38648">
        <ele>1081.667</ele>
        <time>2018-09-13T14:13:37Z</time>
      </trkpt>
      <trkpt lat="44.0124" lon="6.38666">
        <ele>1081.681</ele>
        <time>2018-09-13T14:13:38Z</time>
      </trkpt>
      <trkpt lat="44.0124" lon="6.38685">
        <ele>1081.672</ele>
        <time>2018-09-13T14:13:39Z</time>
      </trkpt>
      <trkpt lat="44.0124" lon="6.38704">
        <ele>1081.639</ele>
        <time>2018-09-13T14:13:40Z</time>
      </trkpt>
      <trkpt lat="44.0124" lon="6.38723">
        <ele>1081.627</ele>
        <time>2018-09-13T14:13:41Z</time>
      </trkpt>
      <trkpt lat="44.0124" lon="6.38743">
        <ele>1081.628</ele>
        <time>2018-09-13T14:13:42Z</time>
      </trkpt>
      <trkpt lat="44.0124" lon="6.38762">
        <ele>1086.012</ele>
        <time>2018-09-13T14:13:43Z</time>
      </trkpt>
      <trkpt lat="44.01241" lon="6.3878">
        <ele>1086.032</ele>
        <time>2018-09-13T14:13:44Z</time>
      </trkpt>
      <trkpt lat="44.01241" lon="6.388">
        <ele>1086.005</ele>
        <time>2018-09-13T14:13:45Z</time>
      </trkpt>
      <trkpt lat="44.0124" lon="6.3882">
        <ele>1086.008</ele>
        <time>2018-09-13T14:13:46Z</time>
      </trkpt>
      <trkpt lat="44.01241" lon="6.38841">
        <ele>1086.093</ele>
        <time>2018-09-13T14:13:47Z</time>
      </trkpt>
      <trkpt lat="44.01243" lon="6.38861">
        <ele>1086.099</ele>
        <time>2018-09-13T14:13:48Z</time>
      </trkpt>
      <trkpt lat="44.01247" lon="6.38881">
        <ele>1089.866</ele>
        <time>2018-09-13T14:13:49Z</time>
      </trkpt>
      <trkpt lat="44.01254" lon="6.389">
        <ele>1089.85</ele>
        <time>2018-09-13T14:13:50Z</time>
      </trkpt>
      <trkpt lat="44.01262" lon="6.38917">
        <ele>1090.471</ele>
        <time>2018-09-13T14:13:51Z</time>
      </trkpt>
      <trkpt lat="44.01271" lon="6.38934">
        <ele>1090.418</ele>
        <time>2018-09-13T14:13:52Z</time>
      </trkpt>
      <trkpt lat="44.01279" lon="6.38952">
        <ele>1090.426</ele>
        <time>2018-09-13T14:13:53Z</time>
      </trkpt>
      <trkpt lat="44.01286" lon="6.38969">
        <ele>1090.437</ele>
        <time>2018-09-13T14:13:54Z</time>
      </trkpt>
      <trkpt lat="44.01292" lon="6.38987">
        <ele>1090.464</ele>
        <time>2018-09-13T14:13:55Z</time>
      </trkpt>
      <trkpt lat="44.01297" lon="6.39007">
        <ele>1091.606</ele>
        <time>2018-09-13T14:13:56Z</time>
      </trkpt>
      <trkpt lat="44.01302" lon="6.39026">
        <ele>1092.116</ele>
        <time>2018-09-13T14:13:57Z</time>
      </trkpt>
      <trkpt lat="44.01308" lon="6.39044">
        <ele>1095.508</ele>
        <time>2018-09-13T14:13:58Z</time>
      </trkpt>
      <trkpt lat="44.01312" lon="6.39062">
        <ele>1095.588</ele>
        <time>2018-09-13T14:13:59Z</time>
      </trkpt>
      <trkpt lat="44.01313" lon="6.39081">
        <ele>1095.594</ele>
        <time>2018-09-13T14:14:00Z</time>
      </trkpt>
      <trkpt lat="44.01312" lon="6.391">
        <ele>1095.551</ele>
        <time>2018-09-13T14:14:01Z</time>
      </trkpt>
      <trkpt lat="44.0131" lon="6.39117">
        <ele>1095.565</ele>
        <time>2018-09-13T14:14:02Z</time>
      </trkpt>
      <trkpt lat="44.01307" lon="6.39135">
        <ele>1095.576</ele>
        <time>2018-09-13T14:14:03Z</time>
      </trkpt>
      <trkpt lat="44.01304" lon="6.39153">
        <ele>1095.533</ele>
        <time>2018-09-13T14:14:04Z</time>
      </trkpt>
      <trkpt lat="44.01302" lon="6.39171">
        <ele>1095.591</ele>
        <time>2018-09-13T14:14:05Z</time>
      </trkpt>
      <trkpt lat="44.01298" lon="6.39189">
        <ele>1095.562</ele>
        <time>2018-09-13T14:14:06Z</time>
      </trkpt>
      <trkpt lat="44.01292" lon="6.39204">
        <ele>1095.597</ele>
        <time>2018-09-13T14:14:07Z</time>
      </trkpt>
      <trkpt lat="44.01284" lon="6.39219">
        <ele>1095.523</ele>
        <time>2018-09-13T14:14:08Z</time>
      </trkpt>
      <trkpt lat="44.01275" lon="6.39233">
        <ele>1095.525</ele>
        <time>2018-09-13T14:14:09Z</time>
      </trkpt>
      <trkpt lat="44.01266" lon="6.39247">
        <ele>1103.108</ele>
        <time>2018-09-13T14:14:10Z</time>
      </trkpt>
      <trkpt lat="44.01257" lon="6.39262">
        <ele>1103.151</ele>
        <time>2018-09-13T14:14:11Z</time>
      </trkpt>
      <trkpt lat="44.0125" lon="6.39278">
        <ele>1103.147</ele>
        <time>2018-09-13T14:14:12Z</time>
      </trkpt>
      <trkpt lat="44.01245" lon="6.39295">
        <ele>1103.194</ele>
        <time>2018-09-13T14:14:13Z</time>
      </trkpt>
      <trkpt lat="44.0124" lon="6.39313">
        <ele>1103.128</ele>
        <time>2018-09-13T14:14:14Z</time>
      </trkpt>
      <trkpt lat="44.01238" lon="6.39332">
        <ele>1103.199</ele>
        <time>2018-09-13T14:14:15Z</time>
      </trkpt>
      <trkpt lat="44.01236" lon="6.39352">
        <ele>1103.146</ele>
        <time>2018-09-13T14:14:16Z</time>
      </trkpt>
      <trkpt lat="44.01234" lon="6.39371">
        <ele>1103.194</ele>
        <time>2018-09-13T14:14:17Z</time>
      </trkpt>
      <trkpt lat="44.01231" lon="6.3939">
        <ele>1103.175</ele>
        <time>2018-09-13T14:14:18Z</time>
      </trkpt>
      <trkpt lat="44.01227" lon="6.39406">
        <ele>1103.118</ele>
        <time>2018-09-13T14:14:19Z</time>
      </trkpt>
      <trkpt lat="44.01219" lon="6.3942">
        <ele>1103.198</ele>
        <time>2018-09-13T14:14:20Z</time>
      </trkpt>
      <trkpt lat="44.0121" lon="6.39431">
        <ele>1110.517</ele>
        <time>2018-09-13T14:14:21Z</time>
      </trkpt>
      <trkpt lat="44.01202" lon="6.3944">
        <ele>1110.508</ele>
        <time>2018-09-13T14:14:22Z</time>
      </trkpt>
      <trkpt lat="44.01196" lon="6.39451">
        <ele>1110.583</ele>
        <time>2018-09-13T14:14:23Z</time>
      </trkpt>
      <trkpt lat="44.01191" lon="6.39461">
        <ele>1111.519</ele>
        <time>2018-09-13T14:14:24Z</time>
      </trkpt>
      <trkpt lat="44.01185" lon="6.39473">
        <ele>1111.576</ele>
        <time>2018-09-13T14:14:25Z</time>
      </trkpt>
      <trkpt lat="44.0118" lon="6.39486">
        <ele>1111.52</ele>
        <time>2018-09-13T14:14:26Z</time>
      </trkpt>
      <trkpt lat="44.01175" lon="6.39499">
        <ele>1113.011</ele>
        <time>2018-09-13T14:14:27Z</time>
      </trkpt>
      <trkpt lat="44.01168" lon="6.39512">
        <ele>1113.038</ele>
        <time>2018-09-13T14:14:28Z</time>
      </trkpt>
      <trkpt lat="44.01163" lon="6.39525">
        <ele>1113.056</ele>
        <time>2018-09-13T14:14:29Z</time>
      </trkpt>
      <trkpt lat="44.01156" lon="6.39537">
        <ele>1113.097</ele>
        <time>2018-09-13T14:14:30Z</time>
      </trkpt>
      <trkpt lat="44.01149" lon="6.3955">
        <ele>1113.014</ele>
        <time>2018-09-13T14:14:31Z</time>
      </trkpt>
      <trkpt lat="44.01145" lon="6.39562">
        <ele>1113.054</ele>
        <time>2018-09-13T14:14:32Z</time>
      </trkpt>
      <trkpt lat="44.01142" lon="6.39574">
        <ele>1113.009</ele>
        <time>2018-09-13T14:14:33Z</time>
      </trkpt>
      <trkpt lat="44.01141" lon="6.39586">
        <ele>1113.008</ele>
        <time>2018-09-13T14:14:34Z</time>
      </trkpt>
      <trkpt lat="44.01143" lon="6.39597">
        <ele>1113.043</ele>
        <time>2018-09-13T14:14:35Z</time>
      </trkpt>
      <trkpt lat="44.01149" lon="6.39606">
        <ele>1113.049</ele>
        <time>2018-09-13T14:14:36Z</time>
      </trkpt>
      <trkpt lat="44.01155" lon="6.39616">
        <ele>1113.036</ele>
        <time>2018-09-13T14:14:37Z</time>
      </trkpt>
      <trkpt lat="44.0116" lon="6.39626">
        <ele>1113.05</ele>
        <time>2018-09-13T14:14:38Z</time>
      </trkpt>
      <trkpt lat="44.01167" lon="6.39636">
        <ele>1113.071</ele>
        <time>2018-09-13T14:14:39Z</time>
      </trkpt>
      <trkpt lat="44.01173" lon="6.39647">
        <ele>1113.078</ele>
        <time>2018-09-13T14:14:40Z</time>
      </trkpt>
      <trkpt lat="44.01178" lon="6.39658">
        <ele>1113.086</ele>
        <time>2018-09-13T14:14:41Z</time>
      </trkpt>
      <trkpt lat="44.01182" lon="6.3967">
        <ele>1113.227</ele>
        <time>2018-09-13T14:14:42Z</time>
      </trkpt>
      <trkpt lat="44.01186" lon="6.39682">
        <ele>1113.219</ele>
        <time>2018-09-13T14:14:43Z</time>
      </trkpt>
      <trkpt lat="44.01189" lon="6.39694">
        <ele>1113.209</ele>
        <time>2018-09-13T14:14:44Z</time>
      </trkpt>
      <trkpt lat="44.01191" lon="6.39708">
        <ele>1113.219</ele>
        <time>2018-09-13T14:14:45Z</time>
      </trkpt>
      <trkpt lat="44.01195" lon="6.39721">
        <ele>1113.208</ele>
        <time>2018-09-13T14:14:46Z</time>
      </trkpt>
      <trkpt lat="44.01198" lon="6.39734">
        <ele>1113.243</ele>
        <time>2018-09-13T14:14:47Z</time>
      </trkpt>
      <trkpt lat="44.01199" lon="6.39748">
        <ele>1113.259</ele>
        <time>2018-09-13T14:14:48Z</time>
      </trkpt>
      <trkpt lat="44.01198" lon="6.39763">
        <ele>1113.296</ele>
        <time>2018-09-13T14:14:49Z</time>
      </trkpt>
      <trkpt lat="44.01197" lon="6.39777">
        <ele>1115.48</ele>
        <time>2018-09-13T14:14:50Z</time>
      </trkpt>
      <trkpt lat="44.01198" lon="6.3979">
        <ele>1115.471</ele>
        <time>2018-09-13T14:14:51Z</time>
      </trkpt>
      <trkpt lat="44.01198" lon="6.39803">
        <ele>1115.478</ele>
        <time>2018-09-13T14:14:52Z</time>
      </trkpt>
      <trkpt lat="44.01203" lon="6.39816">
        <ele>1115.466</ele>
        <time>2018-09-13T14:14:53Z</time>
      </trkpt>
      <trkpt lat="44.01208" lon="6.39829">
        <ele>1115.437</ele>
        <time>2018-09-13T14:14:54Z</time>
      </trkpt>
      <trkpt lat="44.01212" lon="6.39841">
        <ele>1115.451</ele>
        <time>2018-09-13T14:14:55Z</time>
      </trkpt>
      <trkpt lat="44.01216" lon="6.39856">
        <ele>1115.401</ele>
        <time>2018-09-13T14:14:56Z</time>
      </trkpt>
      <trkpt lat="44.0122" lon="6.39869">
        <ele>1115.411</ele>
        <time>2018-09-13T14:14:57Z</time>
      </trkpt>
      <trkpt lat="44.01222" lon="6.39883">
        <ele>1116.008</ele>
        <time>2018-09-13T14:14:58Z</time>
      </trkpt>
      <trkpt lat="44.01225" lon="6.39896">
        <ele>1116.037</ele>
        <time>2018-09-13T14:14:59Z</time>
      </trkpt>
      <trkpt lat="44.01228" lon="6.39909">
        <ele>1116.023</ele>
        <time>2018-09-13T14:15:00Z</time>
      </trkpt>
      <trkpt lat="44.01229" lon="6.39921">
        <ele>1116.02</ele>
        <time>2018-09-13T14:15:01Z</time>
      </trkpt>
      <trkpt lat="44.01228" lon="6.39934">
        <ele>1116.074</ele>
        <time>2018-09-13T14:15:02Z</time>
      </trkpt>
      <trkpt lat="44.01227" lon="6.39945">
        <ele>1116.085</ele>
        <time>2018-09-13T14:15:03Z</time>
      </trkpt>
      <trkpt lat="44.01224" lon="6.39956">
        <ele>1116.062</ele>
        <time>2018-09-13T14:15:04Z</time>
      </trkpt>
      <trkpt lat="44.01222" lon="6.39965">
        <ele>1116.07</ele>
        <time>2018-09-13T14:15:05Z</time>
      </trkpt>
      <trkpt lat="44.0122" lon="6.39975">
        <ele>1116.351</ele>
        <time>2018-09-13T14:15:06Z</time>
      </trkpt>
      <trkpt lat="44.01218" lon="6.39984">
        <ele>1116.325</ele>
        <time>2018-09-13T14:15:07Z</time>
      </trkpt>
      <trkpt lat="44.01217" lon="6.39994">
        <ele>1116.326</ele>
        <time>2018-09-13T14:15:08Z</time>
      </trkpt>
      <trkpt lat="44.01218" lon="6.40001">
        <ele>1116.308</ele>
        <time>2018-09-13T14:15:09Z</time>
      </trkpt>
      <trkpt lat="44.01222" lon="6.40007">
        <ele>1116.308</ele>
        <time>2018-09-13T14:15:10Z</time>
      </trkpt>
      <trkpt lat="44.01226" lon="6.40011">
        <ele>1116.354</ele>
        <time>2018-09-13T14:15:11Z</time>
      </trkpt>
      <trkpt lat="44.01231" lon="6.40013">
        <ele>1117.82</ele>
        <time>2018-09-13T14:15:12Z</time>
      </trkpt>
      <trkpt lat="44.01235" lon="6.40016">
        <ele>1117.877</ele>
        <time>2018-09-13T14:15:13Z</time>
      </trkpt>
      <trkpt lat="44.01239" lon="6.40021">
        <ele>1118.461</ele>
        <time>2018-09-13T14:15:14Z</time>
      </trkpt>
      <trkpt lat="44.01242" lon="6.40026">
        <ele>1118.482</ele>
        <time>2018-09-13T14:15:15Z</time>
      </trkpt>
      <trkpt lat="44.01244" lon="6.40033">
        <ele>1118.499</ele>
        <time>2018-09-13T14:15:16Z</time>
      </trkpt>
      <trkpt lat="44.01246" lon="6.40038">
        <ele>1120.657</ele>
        <time>2018-09-13T14:15:17Z</time>
      </trkpt>
      <trkpt lat="44.01247" lon="6.40045">
        <ele>1120.698</ele>
        <time>2018-09-13T14:15:18Z</time>
      </trkpt>
      <trkpt lat="44.01248" lon="6.40055">
        <ele>1122.119</ele>
        <time>2018-09-13T14:15:19Z</time>
      </trkpt>
      <trkpt lat="44.0125" lon="6.40063">
        <ele>1122.109</ele>
        <time>2018-09-13T14:15:20Z</time>
      </trkpt>
      <trkpt lat="44.01252" lon="6.40071">
        <ele>1122.119</ele>
        <time>2018-09-13T14:15:21Z</time>
      </trkpt>
      <trkpt lat="44.01253" lon="6.40078">
        <ele>1124.008</ele>
        <time>2018-09-13T14:15:22Z</time>
      </trkpt>
      <trkpt lat="44.01255" lon="6.40087">
        <ele>1124.023</ele>
        <time>2018-09-13T14:15:23Z</time>
      </trkpt>
      <trkpt lat="44.01255" lon="6.40095">
        <ele>1125.749</ele>
        <time>2018-09-13T14:15:24Z</time>
      </trkpt>
      <trkpt lat="44.01254" lon="6.40103">
        <ele>1125.716</ele>
        <time>2018-09-13T14:15:25Z</time>
      </trkpt>
      <trkpt lat="44.01254" lon="6.40109">
        <ele>1125.76</ele>
        <time>2018-09-13T14:15:26Z</time>
      </trkpt>
      <trkpt lat="44.01252" lon="6.40117">
        <ele>1125.721</ele>
        <time>2018-09-13T14:15:27Z</time>
      </trkpt>
      <trkpt lat="44.01251" lon="6.40124">
        <ele>1125.758</ele>
        <time>2018-09-13T14:15:28Z</time>
      </trkpt>
      <trkpt lat="44.0125" lon="6.40132">
        <ele>1125.786</ele>
        <time>2018-09-13T14:15:29Z</time>
      </trkpt>
      <trkpt lat="44.0125" lon="6.40138">
        <ele>1125.757</ele>
        <time>2018-09-13T14:15:30Z</time>
      </trkpt>
      <trkpt lat="44.01248" lon="6.40144">
        <ele>1125.763</ele>
        <time>2018-09-13T14:15:31Z</time>
      </trkpt>
      <trkpt lat="44.01245" lon="6.4015">
        <ele>1125.744</ele>
        <time>2018-09-13T14:15:32Z</time>
      </trkpt>
      <trkpt lat="44.01241" lon="6.40157">
        <ele>1125.718</ele>
        <time>2018-09-13T14:15:33Z</time>
      </trkpt>
      <trkpt lat="44.01239" lon="6.40164">
        <ele>1125.708</ele>
        <time>2018-09-13T14:15:34Z</time>
      </trkpt>
      <trkpt lat="44.01236" lon="6.40171">
        <ele>1125.728</ele>
        <time>2018-09-13T14:15:35Z</time>
      </trkpt>
      <trkpt lat="44.01234" lon="6.40178">
        <ele>1125.774</ele>
        <time>2018-09-13T14:15:36Z</time>
      </trkpt>
      <trkpt lat="44.01231" lon="6.40185">
        <ele>1125.741</ele>
        <time>2018-09-13T14:15:37Z</time>
      </trkpt>
      <trkpt lat="44.01229" lon="6.40192">
        <ele>1125.755</ele>
        <time>2018-09-13T14:15:38Z</time>
      </trkpt>
      <trkpt lat="44.01228" lon="6.40199">
        <ele>1125.716</ele>
        <time>2018-09-13T14:15:39Z</time>
      </trkpt>
      <trkpt lat="44.01226" lon="6.40207">
        <ele>1125.753</ele>
        <time>2018-09-13T14:15:40Z</time>
      </trkpt>
      <trkpt lat="44.01223" lon="6.40215">
        <ele>1125.741</ele>
        <time>2018-09-13T14:15:41Z</time>
      </trkpt>
      <trkpt lat="44.0122" lon="6.40222">
        <ele>1125.752</ele>
        <time>2018-09-13T14:15:42Z</time>
      </trkpt>
      <trkpt lat="44.01215" lon="6.40231">
        <ele>1125.748</ele>
        <time>2018-09-13T14:15:43Z</time>
      </trkpt>
      <trkpt lat="44.01213" lon="6.4024">
        <ele>1125.761</ele>
        <time>2018-09-13T14:15:44Z</time>
      </trkpt>
      <trkpt lat="44.0121" lon="6.40249">
        <ele>1124.117</ele>
        <time>2018-09-13T14:15:45Z</time>
      </trkpt>
      <trkpt lat="44.01205" lon="6.40261">
        <ele>1124.108</ele>
        <time>2018-09-13T14:15:46Z</time>
      </trkpt>
      <trkpt lat="44.01207" lon="6.40271">
        <ele>1124.146</ele>
        <time>2018-09-13T14:15:47Z</time>
      </trkpt>
      <trkpt lat="44.01208" lon="6.40283">
        <ele>1124.182</ele>
        <time>2018-09-13T14:15:48Z</time>
      </trkpt>
      <trkpt lat="44.01208" lon="6.40293">
        <ele>1123.469</ele>
        <time>2018-09-13T14:15:49Z</time>
      </trkpt>
      <trkpt lat="44.01207" lon="6.40303">
        <ele>1123.443</ele>
        <time>2018-09-13T14:15:50Z</time>
      </trkpt>
      <trkpt lat="44.01208" lon="6.40314">
        <ele>1123.444</ele>
        <time>2018-09-13T14:15:51Z</time>
      </trkpt>
      <trkpt lat="44.01207" lon="6.40327">
        <ele>1123.491</ele>
        <time>2018-09-13T14:15:52Z</time>
      </trkpt>
      <trkpt lat="44.01206" lon="6.40339">
        <ele>1123.439</ele>
        <time>2018-09-13T14:15:53Z</time>
      </trkpt>
      <trkpt lat="44.01206" lon="6.4035">
        <ele>1123.99</ele>
        <time>2018-09-13T14:15:54Z</time>
      </trkpt>
      <trkpt lat="44.01207" lon="6.4036">
        <ele>1123.952</ele>
        <time>2018-09-13T14:15:55Z</time>
      </trkpt>
      <trkpt lat="44.01207" lon="6.40371">
        <ele>1123.953</ele>
        <time>2018-09-13T14:15:56Z</time>
      </trkpt>
      <trkpt lat="44.01207" lon="6.40382">
        <ele>1123.908</ele>
        <time>2018-09-13T14:15:57Z</time>
      </trkpt>
      <trkpt lat="44.01208" lon="6.40393">
        <ele>1123.908</ele>
        <time>2018-09-13T14:15:58Z</time>
      </trkpt>
      <trkpt lat="44.01209" lon="6.40407">
        <ele>1123.937</ele>
        <time>2018-09-13T14:15:59Z</time>
      </trkpt>
      <trkpt lat="44.01209" lon="6.40418">
        <ele>1123.953</ele>
        <time>2018-09-13T14:16:00Z</time>
      </trkpt>
      <trkpt lat="44.01208" lon="6.4043">
        <ele>1123.98</ele>
        <time>2018-09-13T14:16:01Z</time>
      </trkpt>
      <trkpt lat="44.01207" lon="6.40442">
        <ele>1123.934</ele>
        <time>2018-09-13T14:16:02Z</time>
      </trkpt>
      <trkpt lat="44.01206" lon="6.40455">
        <ele>1123.955</ele>
        <time>2018-09-13T14:16:03Z</time>
      </trkpt>
      <trkpt lat="44.01205" lon="6.40467">
        <ele>1127.832</ele>
        <time>2018-09-13T14:16:04Z</time>
      </trkpt>
      <trkpt lat="44.01206" lon="6.40477">
        <ele>1127.87</ele>
        <time>2018-09-13T14:16:05Z</time>
      </trkpt>
      <trkpt lat="44.01204" lon="6.40486">
        <ele>1127.821</ele>
        <time>2018-09-13T14:16:06Z</time>
      </trkpt>
      <trkpt lat="44.01203" lon="6.40498">
        <ele>1127.882</ele>
        <time>2018-09-13T14:16:07Z</time>
      </trkpt>
      <trkpt lat="44.01201" lon="6.40505">
        <ele>1127.843</ele>
        <time>2018-09-13T14:16:08Z</time>
      </trkpt>
      <trkpt lat="44.01199" lon="6.40518">
        <ele>1127.817</ele>
        <time>2018-09-13T14:16:09Z</time>
      </trkpt>
      <trkpt lat="44.01195" lon="6.4053">
        <ele>1127.808</ele>
        <time>2018-09-13T14:16:10Z</time>
      </trkpt>
      <trkpt lat="44.01193" lon="6.40538">
        <ele>1127.87</ele>
        <time>2018-09-13T14:16:11Z</time>
      </trkpt>
      <trkpt lat="44.01189" lon="6.4055">
        <ele>1130.826</ele>
        <time>2018-09-13T14:16:12Z</time>
      </trkpt>
      <trkpt lat="44.01186" lon="6.4056">
        <ele>1131.293</ele>
        <time>2018-09-13T14:16:13Z</time>
      </trkpt>
      <trkpt lat="44.01181" lon="6.4057">
        <ele>1131.257</ele>
        <time>2018-09-13T14:16:14Z</time>
      </trkpt>
      <trkpt lat="44.01177" lon="6.4058">
        <ele>1131.258</ele>
        <time>2018-09-13T14:16:15Z</time>
      </trkpt>
      <trkpt lat="44.01172" lon="6.4059">
        <ele>1131.245</ele>
        <time>2018-09-13T14:16:16Z</time>
      </trkpt>
      <trkpt lat="44.01168" lon="6.40595">
        <ele>1131.223</ele>
        <time>2018-09-13T14:16:17Z</time>
      </trkpt>
      <trkpt lat="44.01162" lon="6.40602">
        <ele>1131.234</ele>
        <time>2018-09-13T14:16:18Z</time>
      </trkpt>
      <trkpt lat="44.01154" lon="6.40609">
        <ele>1131.274</ele>
        <time>2018-09-13T14:16:19Z</time>
      </trkpt>
      <trkpt lat="44.01148" lon="6.40616">
        <ele>1131.256</ele>
        <time>2018-09-13T14:16:20Z</time>
      </trkpt>
      <trkpt lat="44.01143" lon="6.40624">
        <ele>1131.221</ele>
        <time>2018-09-13T14:16:21Z</time>
      </trkpt>
      <trkpt lat="44.01134" lon="6.40629">
        <ele>1131.208</ele>
        <time>2018-09-13T14:16:22Z</time>
      </trkpt>
      <trkpt lat="44.01129" lon="6.40635">
        <ele>1135.529</ele>
        <time>2018-09-13T14:16:23Z</time>
      </trkpt>
      <trkpt lat="44.0112" lon="6.40639">
        <ele>1135.545</ele>
        <time>2018-09-13T14:16:24Z</time>
      </trkpt>
      <trkpt lat="44.01112" lon="6.40644">
        <ele>1135.552</ele>
        <time>2018-09-13T14:16:25Z</time>
      </trkpt>
      <trkpt lat="44.01104" lon="6.4065">
        <ele>1135.556</ele>
        <time>2018-09-13T14:16:26Z</time>
      </trkpt>
      <trkpt lat="44.01096" lon="6.40657">
        <ele>1135.537</ele>
        <time>2018-09-13T14:16:27Z</time>
      </trkpt>
      <trkpt lat="44.01092" lon="6.40666">
        <ele>1135.574</ele>
        <time>2018-09-13T14:16:28Z</time>
      </trkpt>
      <trkpt lat="44.01088" lon="6.40675">
        <ele>1135.592</ele>
        <time>2018-09-13T14:16:29Z</time>
      </trkpt>
      <trkpt lat="44.01081" lon="6.40682">
        <ele>1135.543</ele>
        <time>2018-09-13T14:16:30Z</time>
      </trkpt>
      <trkpt lat="44.01074" lon="6.40689">
        <ele>1137.369</ele>
        <time>2018-09-13T14:16:31Z</time>
      </trkpt>
      <trkpt lat="44.01067" lon="6.40695">
        <ele>1137.304</ele>
        <time>2018-09-13T14:16:32Z</time>
      </trkpt>
      <trkpt lat="44.01059" lon="6.40697">
        <ele>1137.324</ele>
        <time>2018-09-13T14:16:33Z</time>
      </trkpt>
      <trkpt lat="44.01052" lon="6.40699">
        <ele>1137.308</ele>
        <time>2018-09-13T14:16:34Z</time>
      </trkpt>
      <trkpt lat="44.01047" lon="6.40707">
        <ele>1137.398</ele>
        <time>2018-09-13T14:16:35Z</time>
      </trkpt>
      <trkpt lat="44.01046" lon="6.40719">
        <ele>1137.374</ele>
        <time>2018-09-13T14:16:36Z</time>
      </trkpt>
      <trkpt lat="44.01042" lon="6.40727">
        <ele>1137.351</ele>
        <time>2018-09-13T14:16:37Z</time>
      </trkpt>
      <trkpt lat="44.01037" lon="6.40737">
        <ele>1137.375</ele>
        <time>2018-09-13T14:16:38Z</time>
      </trkpt>
      <trkpt lat="44.01035" lon="6.40748">
        <ele>1135.736</ele>
        <time>2018-09-13T14:16:39Z</time>
      </trkpt>
      <trkpt lat="44.01033" lon="6.40759">
        <ele>1135.753</ele>
        <time>2018-09-13T14:16:40Z</time>
      </trkpt>
      <trkpt lat="44.01031" lon="6.40773">
        <ele>1135.771</ele>
        <time>2018-09-13T14:16:41Z</time>
      </trkpt>
      <trkpt lat="44.01031" lon="6.40784">
        <ele>1135.722</ele>
        <time>2018-09-13T14:16:42Z</time>
      </trkpt>
      <trkpt lat="44.01029" lon="6.40794">
        <ele>1135.739</ele>
        <time>2018-09-13T14:16:43Z</time>
      </trkpt>
      <trkpt lat="44.01035" lon="6.40802">
        <ele>1135.701</ele>
        <time>2018-09-13T14:16:44Z</time>
      </trkpt>
      <trkpt lat="44.01036" lon="6.40812">
        <ele>1135.721</ele>
        <time>2018-09-13T14:16:45Z</time>
      </trkpt>
      <trkpt lat="44.01035" lon="6.40823">
        <ele>1135.708</ele>
        <time>2018-09-13T14:16:46Z</time>
      </trkpt>
      <trkpt lat="44.01033" lon="6.40829">
        <ele>1135.765</ele>
        <time>2018-09-13T14:16:47Z</time>
      </trkpt>
      <trkpt lat="44.01032" lon="6.40838">
        <ele>1135.771</ele>
        <time>2018-09-13T14:16:48Z</time>
      </trkpt>
      <trkpt lat="44.01029" lon="6.4085">
        <ele>1135.718</ele>
        <time>2018-09-13T14:16:49Z</time>
      </trkpt>
      <trkpt lat="44.01027" lon="6.40863">
        <ele>1135.792</ele>
        <time>2018-09-13T14:16:50Z</time>
      </trkpt>
      <trkpt lat="44.01024" lon="6.40873">
        <ele>1138.893</ele>
        <time>2018-09-13T14:16:51Z</time>
      </trkpt>
      <trkpt lat="44.01022" lon="6.40883">
        <ele>1138.85</ele>
        <time>2018-09-13T14:16:52Z</time>
      </trkpt>
      <trkpt lat="44.01019" lon="6.40891">
        <ele>1138.828</ele>
        <time>2018-09-13T14:16:53Z</time>
      </trkpt>
      <trkpt lat="44.01014" lon="6.40901">
        <ele>1138.889</ele>
        <time>2018-09-13T14:16:54Z</time>
      </trkpt>
      <trkpt lat="44.01012" lon="6.40912">
        <ele>1138.881</ele>
        <time>2018-09-13T14:16:55Z</time>
      </trkpt>
      <trkpt lat="44.01009" lon="6.40923">
        <ele>1138.861</ele>
        <time>2018-09-13T14:16:56Z</time>
      </trkpt>
      <trkpt lat="44.01007" lon="6.40929">
        <ele>1138.817</ele>
        <time>2018-09-13T14:16:57Z</time>
      </trkpt>
      <trkpt lat="44.01002" lon="6.4094">
        <ele>1138.808</ele>
        <time>2018-09-13T14:16:58Z</time>
      </trkpt>
      <trkpt lat="44.01" lon="6.40949">
        <ele>1138.88</ele>
        <time>2018-09-13T14:16:59Z</time>
      </trkpt>
      <trkpt lat="44.00999" lon="6.40958">
        <ele>1138.866</ele>
        <time>2018-09-13T14:17:00Z</time>
      </trkpt>
      <trkpt lat="44.00998" lon="6.40968">
        <ele>1142.823</ele>
        <time>2018-09-13T14:17:01Z</time>
      </trkpt>
      <trkpt lat="44.00997" lon="6.40974">
        <ele>1142.857</ele>
        <time>2018-09-13T14:17:02Z</time>
      </trkpt>
      <trkpt lat="44.00998" lon="6.40981">
        <ele>1142.898</ele>
        <time>2018-09-13T14:17:03Z</time>
      </trkpt>
      <trkpt lat="44.01003" lon="6.40987">
        <ele>1142.895</ele>
        <time>2018-09-13T14:17:04Z</time>
      </trkpt>
      <trkpt lat="44.01004" lon="6.40999">
        <ele>1142.813</ele>
        <time>2018-09-13T14:17:05Z</time>
      </trkpt>
      <trkpt lat="44.01002" lon="6.41009">
        <ele>1142.864</ele>
        <time>2018-09-13T14:17:06Z</time>
      </trkpt>
      <trkpt lat="44.01003" lon="6.4102">
        <ele>1142.879</ele>
        <time>2018-09-13T14:17:07Z</time>
      </trkpt>
      <trkpt lat="44.01006" lon="6.41027">
        <ele>1142.805</ele>
        <time>2018-09-13T14:17:08Z</time>
      </trkpt>
      <trkpt lat="44.01011" lon="6.41034">
        <ele>1142.825</ele>
        <time>2018-09-13T14:17:09Z</time>
      </trkpt>
      <trkpt lat="44.01016" lon="6.4104">
        <ele>1142.808</ele>
        <time>2018-09-13T14:17:10Z</time>
      </trkpt>
      <trkpt lat="44.01022" lon="6.41045">
        <ele>1142.879</ele>
        <time>2018-09-13T14:17:11Z</time>
      </trkpt>
      <trkpt lat="44.01025" lon="6.41049">
        <ele>1142.885</ele>
        <time>2018-09-13T14:17:12Z</time>
      </trkpt>
      <trkpt lat="44.01031" lon="6.41055">
        <ele>1142.882</ele>
        <time>2018-09-13T14:17:13Z</time>
      </trkpt>
      <trkpt lat="44.01036" lon="6.4106">
        <ele>1149.276</ele>
        <time>2018-09-13T14:17:14Z</time>
      </trkpt>
      <trkpt lat="44.01041" lon="6.41063">
        <ele>1149.297</ele>
        <time>2018-09-13T14:17:15Z</time>
      </trkpt>
      <trkpt lat="44.01047" lon="6.41069">
        <ele>1149.274</ele>
        <time>2018-09-13T14:17:16Z</time>
      </trkpt>
      <trkpt lat="44.01053" lon="6.41075">
        <ele>1149.242</ele>
        <time>2018-09-13T14:17:17Z</time>
      </trkpt>
      <trkpt lat="44.0106" lon="6.41079">
        <ele>1149.283</ele>
        <time>2018-09-13T14:17:18Z</time>
      </trkpt>
      <trkpt lat="44.01065" lon="6.41081">
        <ele>1149.233</ele>
        <time>2018-09-13T14:17:19Z</time>
      </trkpt>
      <trkpt lat="44.01074" lon="6.4108">
        <ele>1149.223</ele>
        <time>2018-09-13T14:17:20Z</time>
      </trkpt>
      <trkpt lat="44.01082" lon="6.4108">
        <ele>1149.215</ele>
        <time>2018-09-13T14:17:21Z</time>
      </trkpt>
      <trkpt lat="44.01088" lon="6.41078">
        <ele>1149.208</ele>
        <time>2018-09-13T14:17:22Z</time>
      </trkpt>
      <trkpt lat="44.01093" lon="6.41077">
        <ele>1154.025</ele>
        <time>2018-09-13T14:17:23Z</time>
      </trkpt>
      <trkpt lat="44.01102" lon="6.41075">
        <ele>1154.071</ele>
        <time>2018-09-13T14:17:24Z</time>
      </trkpt>
      <trkpt lat="44.01109" lon="6.41075">
        <ele>1154.038</ele>
        <time>2018-09-13T14:17:25Z</time>
      </trkpt>
      <trkpt lat="44.01117" lon="6.41076">
        <ele>1154.032</ele>
        <time>2018-09-13T14:17:26Z</time>
      </trkpt>
      <trkpt lat="44.01125" lon="6.4108">
        <ele>1154.063</ele>
        <time>2018-09-13T14:17:27Z</time>
      </trkpt>
      <trkpt lat="44.01131" lon="6.41083">
        <ele>1154.09</ele>
        <time>2018-09-13T14:17:28Z</time>
      </trkpt>
      <trkpt lat="44.01138" lon="6.41084">
        <ele>1154.058</ele>
        <time>2018-09-13T14:17:29Z</time>
      </trkpt>
      <trkpt lat="44.01147" lon="6.41085">
        <ele>1154.029</ele>
        <time>2018-09-13T14:17:30Z</time>
      </trkpt>
      <trkpt lat="44.01154" lon="6.41083">
        <ele>1156.915</ele>
        <time>2018-09-13T14:17:31Z</time>
      </trkpt>
      <trkpt lat="44.01159" lon="6.4108">
        <ele>1156.965</ele>
        <time>2018-09-13T14:17:32Z</time>
      </trkpt>
      <trkpt lat="44.01163" lon="6.41076">
        <ele>1156.911</ele>
        <time>2018-09-13T14:17:33Z</time>
      </trkpt>
      <trkpt lat="44.01166" lon="6.4107">
        <ele>1156.908</ele>
        <time>2018-09-13T14:17:34Z</time>
      </trkpt>
      <trkpt lat="44.01172" lon="6.41065">
        <ele>1156.983</ele>
        <time>2018-09-13T14:17:35Z</time>
      </trkpt>
      <trkpt lat="44.01176" lon="6.41058">
        <ele>1156.929</ele>
        <time>2018-09-13T14:17:36Z</time>
      </trkpt>
      <trkpt lat="44.01181" lon="6.41054">
        <ele>1156.926</ele>
        <time>2018-09-13T14:17:37Z</time>
      </trkpt>
      <trkpt lat="44.01187" lon="6.41049">
        <ele>1156.95</ele>
        <time>2018-09-13T14:17:38Z</time>
      </trkpt>
      <trkpt lat="44.01192" lon="6.41044">
        <ele>1159.161</ele>
        <time>2018-09-13T14:17:39Z</time>
      </trkpt>
      <trkpt lat="44.01199" lon="6.4104">
        <ele>1159.158</ele>
        <time>2018-09-13T14:17:40Z</time>
      </trkpt>
      <trkpt lat="44.01205" lon="6.41038">
        <ele>1159.196</ele>
        <time>2018-09-13T14:17:41Z</time>
      </trkpt>
      <trkpt lat="44.01213" lon="6.41037">
        <ele>1159.167</ele>
        <time>2018-09-13T14:17:42Z</time>
      </trkpt>
      <trkpt lat="44.01218" lon="6.41034">
        <ele>1159.137</ele>
        <time>2018-09-13T14:17:43Z</time>
      </trkpt>
      <trkpt lat="44.01224" lon="6.4103">
        <ele>1159.149</ele>
        <time>2018-09-13T14:17:44Z</time>
      </trkpt>
      <trkpt lat="44.01232" lon="6.41029">
        <ele>1159.113</ele>
        <time>2018-09-13T14:17:45Z</time>
      </trkpt>
      <trkpt lat="44.01239" lon="6.41027">
        <ele>1160.108</ele>
        <time>2018-09-13T14:17:46Z</time>
      </trkpt>
      <trkpt lat="44.01246" lon="6.41027">
        <ele>1160.165</ele>
        <time>2018-09-13T14:17:47Z</time>
      </trkpt>
      <trkpt lat="44.01253" lon="6.41027">
        <ele>1164.321</ele>
        <time>2018-09-13T14:17:48Z</time>
      </trkpt>
      <trkpt lat="44.0126" lon="6.41028">
        <ele>1164.338</ele>
        <time>2018-09-13T14:17:49Z</time>
      </trkpt>
      <trkpt lat="44.01265" lon="6.41025">
        <ele>1164.342</ele>
        <time>2018-09-13T14:17:50Z</time>
      </trkpt>
      <trkpt lat="44.01273" lon="6.41027">
        <ele>1164.383</ele>
        <time>2018-09-13T14:17:51Z</time>
      </trkpt>
      <trkpt lat="44.01279" lon="6.41028">
        <ele>1164.39</ele>
        <time>2018-09-13T14:17:52Z</time>
      </trkpt>
      <trkpt lat="44.01286" lon="6.41024">
        <ele>1164.388</ele>
        <time>2018-09-13T14:17:54Z</time>
      </trkpt>
      <trkpt lat="44.01294" lon="6.41021">
        <ele>1164.389</ele>
        <time>2018-09-13T14:17:55Z</time>
      </trkpt>
      <trkpt lat="44.01301" lon="6.4102">
        <ele>1164.356</ele>
        <time>2018-09-13T14:17:56Z</time>
      </trkpt>
      <trkpt lat="44.01307" lon="6.41018">
        <ele>1164.359</ele>
        <time>2018-09-13T14:17:57Z</time>
      </trkpt>
      <trkpt lat="44.01315" lon="6.4102">
        <ele>1164.314</ele>
        <time>2018-09-13T14:17:58Z</time>
      </trkpt>
      <trkpt lat="44.01322" lon="6.41019">
        <ele>1164.308</ele>
        <time>2018-09-13T14:17:59Z</time>
      </trkpt>
      <trkpt lat="44.01327" lon="6.41019">
        <ele>1168.067</ele>
        <time>2018-09-13T14:18:00Z</time>
      </trkpt>
      <trkpt lat="44.01335" lon="6.41017">
        <ele>1168.093</ele>
        <time>2018-09-13T14:18:03Z</time>
      </trkpt>
      <trkpt lat="44.01342" lon="6.41015">
        <ele>1168.08</ele>
        <time>2018-09-13T14:18:05Z</time>
      </trkpt>
      <trkpt lat="44.01344" lon="6.41021">
        <ele>1168.274</ele>
        <time>2018-09-13T14:18:06Z</time>
      </trkpt>
      <trkpt lat="44.01348" lon="6.41025">
        <ele>1168.225</ele>
        <time>2018-09-13T14:18:07Z</time>
      </trkpt>
      <trkpt lat="44.0135" lon="6.41031">
        <ele>1168.282</ele>
        <time>2018-09-13T14:18:08Z</time>
      </trkpt>
      <trkpt lat="44.01359" lon="6.41037">
        <ele>1168.21</ele>
        <time>2018-09-13T14:18:10Z</time>
      </trkpt>
      <trkpt lat="44.01363" lon="6.41038">
        <ele>1168.291</ele>
        <time>2018-09-13T14:18:11Z</time>
      </trkpt>
      <trkpt lat="44.01369" lon="6.41035">
        <ele>1168.296</ele>
        <time>2018-09-13T14:18:12Z</time>
      </trkpt>
      <trkpt lat="44.01377" lon="6.41032">
        <ele>1171.631</ele>
        <time>2018-09-13T14:18:15Z</time>
      </trkpt>
      <trkpt lat="44.01383" lon="6.41027">
        <ele>1171.624</ele>
        <time>2018-09-13T14:18:17Z</time>
      </trkpt>
      <trkpt lat="44.01391" lon="6.41021">
        <ele>1171.608</ele>
        <time>2018-09-13T14:18:19Z</time>
      </trkpt>
      <trkpt lat="44.01396" lon="6.41017">
        <ele>1171.641</ele>
        <time>2018-09-13T14:18:20Z</time>
      </trkpt>
      <trkpt lat="44.01401" lon="6.4102">
        <ele>1171.617</ele>
        <time>2018-09-13T14:18:21Z</time>
      </trkpt>
      <trkpt lat="44.01407" lon="6.4102">
        <ele>1172.664</ele>
        <time>2018-09-13T14:18:22Z</time>
      </trkpt>
      <trkpt lat="44.01411" lon="6.41019">
        <ele>1172.698</ele>
        <time>2018-09-13T14:18:23Z</time>
      </trkpt>
      <trkpt lat="44.01416" lon="6.41018">
        <ele>1172.619</ele>
        <time>2018-09-13T14:18:24Z</time>
      </trkpt>
      <trkpt lat="44.01421" lon="6.41018">
        <ele>1172.696</ele>
        <time>2018-09-13T14:18:25Z</time>
      </trkpt>
      <trkpt lat="44.01428" lon="6.41016">
        <ele>1172.674</ele>
        <time>2018-09-13T14:18:26Z</time>
      </trkpt>
      <trkpt lat="44.01435" lon="6.41016">
        <ele>1172.625</ele>
        <time>2018-09-13T14:18:27Z</time>
      </trkpt>
      <trkpt lat="44.01441" lon="6.41017">
        <ele>1172.632</ele>
        <time>2018-09-13T14:18:28Z</time>
      </trkpt>
      <trkpt lat="44.01446" lon="6.41019">
        <ele>1177.692</ele>
        <time>2018-09-13T14:19:53Z</time>
      </trkpt>
      <trkpt lat="44.01454" lon="6.41017">
        <ele>1177.711</ele>
        <time>2018-09-13T14:19:55Z</time>
      </trkpt>
      <trkpt lat="44.01458" lon="6.41015">
        <ele>1177.708</ele>
        <time>2018-09-13T14:19:56Z</time>
      </trkpt>
      <trkpt lat="44.01466" lon="6.41011">
        <ele>1177.765</ele>
        <time>2018-09-13T14:19:57Z</time>
      </trkpt>
      <trkpt lat="44.01471" lon="6.41008">
        <ele>1177.781</ele>
        <time>2018-09-13T14:19:58Z</time>
      </trkpt>
      <trkpt lat="44.01477" lon="6.41003">
        <ele>1177.748</ele>
        <time>2018-09-13T14:20:00Z</time>
      </trkpt>
      <trkpt lat="44.01482" lon="6.41003">
        <ele>1177.782</ele>
        <time>2018-09-13T14:20:01Z</time>
      </trkpt>
      <trkpt lat="44.0149" lon="6.40999">
        <ele>1177.793</ele>
        <time>2018-09-13T14:20:03Z</time>
      </trkpt>
      <trkpt lat="44.01495" lon="6.40997">
        <ele>1177.78</ele>
        <time>2018-09-13T14:20:04Z</time>
      </trkpt>
      <trkpt lat="44.01499" lon="6.40995">
        <ele>1177.798</ele>
        <time>2018-09-13T14:20:05Z</time>
      </trkpt>
      <trkpt lat="44.01505" lon="6.40995">
        <ele>1177.799</ele>
        <time>2018-09-13T14:20:06Z</time>
      </trkpt>
      <trkpt lat="44.01509" lon="6.40989">
        <ele>1182.019</ele>
        <time>2018-09-13T14:20:07Z</time>
      </trkpt>
      <trkpt lat="44.01513" lon="6.40983">
        <ele>1182.009</ele>
        <time>2018-09-13T14:20:08Z</time>
      </trkpt>
      <trkpt lat="44.01518" lon="6.40978">
        <ele>1182.019</ele>
        <time>2018-09-13T14:20:09Z</time>
      </trkpt>
      <trkpt lat="44.01524" lon="6.40975">
        <ele>1182.008</ele>
        <time>2018-09-13T14:20:10Z</time>
      </trkpt>
      <trkpt lat="44.01528" lon="6.4097">
        <ele>1182.033</ele>
        <time>2018-09-13T14:20:11Z</time>
      </trkpt>
      <trkpt lat="44.01534" lon="6.40968">
        <ele>1182.079</ele>
        <time>2018-09-13T14:20:12Z</time>
      </trkpt>
      <trkpt lat="44.0154" lon="6.40965">
        <ele>1182.086</ele>
        <time>2018-09-13T14:20:13Z</time>
      </trkpt>
      <trkpt lat="44.01546" lon="6.40961">
        <ele>1182.03</ele>
        <time>2018-09-13T14:20:14Z</time>
      </trkpt>
      <trkpt lat="44.01552" lon="6.40959">
        <ele>1182.061</ele>
        <time>2018-09-13T14:20:15Z</time>
      </trkpt>
      <trkpt lat="44.01558" lon="6.40955">
        <ele>1182.048</ele>
        <time>2018-09-13T14:20:16Z</time>
      </trkpt>
      <trkpt lat="44.01565" lon="6.40953">
        <ele>1182.036</ele>
        <time>2018-09-13T14:20:17Z</time>
      </trkpt>
      <trkpt lat="44.01571" lon="6.40951">
        <ele>1182.047</ele>
        <time>2018-09-13T14:20:18Z</time>
      </trkpt>
      <trkpt lat="44.01576" lon="6.4095">
        <ele>1182.052</ele>
        <time>2018-09-13T14:20:19Z</time>
      </trkpt>
      <trkpt lat="44.01581" lon="6.40951">
        <ele>1194.453</ele>
        <time>2018-09-13T14:20:20Z</time>
      </trkpt>
      <trkpt lat="44.0159" lon="6.40951">
        <ele>1194.408</ele>
        <time>2018-09-13T14:20:22Z</time>
      </trkpt>
      <trkpt lat="44.01598" lon="6.40952">
        <ele>1194.408</ele>
        <time>2018-09-13T14:20:24Z</time>
      </trkpt>
      <trkpt lat="44.01606" lon="6.40956">
        <ele>1194.417</ele>
        <time>2018-09-13T14:20:26Z</time>
      </trkpt>
      <trkpt lat="44.01611" lon="6.40958">
        <ele>1194.423</ele>
        <time>2018-09-13T14:20:27Z</time>
      </trkpt>
      <trkpt lat="44.01616" lon="6.4096">
        <ele>1194.49</ele>
        <time>2018-09-13T14:20:28Z</time>
      </trkpt>
      <trkpt lat="44.0162" lon="6.40963">
        <ele>1194.424</ele>
        <time>2018-09-13T14:20:29Z</time>
      </trkpt>
      <trkpt lat="44.01624" lon="6.40967">
        <ele>1194.465</ele>
        <time>2018-09-13T14:20:30Z</time>
      </trkpt>
      <trkpt lat="44.01632" lon="6.40975">
        <ele>1199.042</ele>
        <time>2018-09-13T14:20:32Z</time>
      </trkpt>
      <trkpt lat="44.01637" lon="6.4098">
        <ele>1199.01</ele>
        <time>2018-09-13T14:20:33Z</time>
      </trkpt>
      <trkpt lat="44.01644" lon="6.40985">
        <ele>1199.031</ele>
        <time>2018-09-13T14:20:34Z</time>
      </trkpt>
      <trkpt lat="44.01649" lon="6.4099">
        <ele>1204.972</ele>
        <time>2018-09-13T14:20:35Z</time>
      </trkpt>
      <trkpt lat="44.01656" lon="6.40995">
        <ele>1204.913</ele>
        <time>2018-09-13T14:20:36Z</time>
      </trkpt>
      <trkpt lat="44.01663" lon="6.40997">
        <ele>1204.914</ele>
        <time>2018-09-13T14:20:37Z</time>
      </trkpt>
      <trkpt lat="44.0167" lon="6.41">
        <ele>1204.908</ele>
        <time>2018-09-13T14:20:38Z</time>
      </trkpt>
      <trkpt lat="44.01676" lon="6.41002">
        <ele>1205.739</ele>
        <time>2018-09-13T14:20:39Z</time>
      </trkpt>
      <trkpt lat="44.01682" lon="6.41003">
        <ele>1205.725</ele>
        <time>2018-09-13T14:20:40Z</time>
      </trkpt>
      <trkpt lat="44.01688" lon="6.41005">
        <ele>1205.712</ele>
        <time>2018-09-13T14:20:41Z</time>
      </trkpt>
      <trkpt lat="44.01693" lon="6.41003">
        <ele>1205.736</ele>
        <time>2018-09-13T14:20:42Z</time>
      </trkpt>
      <trkpt lat="44.017" lon="6.41">
        <ele>1205.737</ele>
        <time>2018-09-13T14:20:43Z</time>
      </trkpt>
      <trkpt lat="44.01705" lon="6.40995">
        <ele>1205.734</ele>
        <time>2018-09-13T14:20:44Z</time>
      </trkpt>
      <trkpt lat="44.01709" lon="6.4099">
        <ele>1205.712</ele>
        <time>2018-09-13T14:20:45Z</time>
      </trkpt>
      <trkpt lat="44.01713" lon="6.40984">
        <ele>1208.513</ele>
        <time>2018-09-13T14:20:46Z</time>
      </trkpt>
      <trkpt lat="44.01718" lon="6.40978">
        <ele>1208.543</ele>
        <time>2018-09-13T14:20:47Z</time>
      </trkpt>
      <trkpt lat="44.01723" lon="6.40972">
        <ele>1208.564</ele>
        <time>2018-09-13T14:20:48Z</time>
      </trkpt>
      <trkpt lat="44.01729" lon="6.40967">
        <ele>1208.51</ele>
        <time>2018-09-13T14:20:49Z</time>
      </trkpt>
      <trkpt lat="44.01735" lon="6.40961">
        <ele>1208.508</ele>
        <time>2018-09-13T14:20:50Z</time>
      </trkpt>
      <trkpt lat="44.01741" lon="6.40956">
        <ele>1208.566</ele>
        <time>2018-09-13T14:20:51Z</time>
      </trkpt>
      <trkpt lat="44.01748" lon="6.40952">
        <ele>1208.572</ele>
        <time>2018-09-13T14:20:52Z</time>
      </trkpt>
      <trkpt lat="44.01753" lon="6.40946">
        <ele>1208.579</ele>
        <time>2018-09-13T14:20:53Z</time>
      </trkpt>
      <trkpt lat="44.01758" lon="6.40943">
        <ele>1208.513</ele>
        <time>2018-09-13T14:20:54Z</time>
      </trkpt>
      <trkpt lat="44.01761" lon="6.40935">
        <ele>1208.594</ele>
        <time>2018-09-13T14:20:55Z</time>
      </trkpt>
      <trkpt lat="44.01765" lon="6.40926">
        <ele>1208.571</ele>
        <time>2018-09-13T14:20:56Z</time>
      </trkpt>
      <trkpt lat="44.01769" lon="6.40919">
        <ele>1208.599</ele>
        <time>2018-09-13T14:20:57Z</time>
      </trkpt>
      <trkpt lat="44.01775" lon="6.40913">
        <ele>1208.52</ele>
        <time>2018-09-13T14:20:58Z</time>
      </trkpt>
      <trkpt lat="44.01781" lon="6.40909">
        <ele>1208.586</ele>
        <time>2018-09-13T14:20:59Z</time>
      </trkpt>
      <trkpt lat="44.01787" lon="6.40907">
        <ele>1208.56</ele>
        <time>2018-09-13T14:21:00Z</time>
      </trkpt>
      <trkpt lat="44.01794" lon="6.40905">
        <ele>1208.526</ele>
        <time>2018-09-13T14:21:01Z</time>
      </trkpt>
      <trkpt lat="44.018" lon="6.40901">
        <ele>1208.508</ele>
        <time>2018-09-13T14:21:02Z</time>
      </trkpt>
      <trkpt lat="44.01807" lon="6.40896">
        <ele>1223.42</ele>
        <time>2018-09-13T14:21:03Z</time>
      </trkpt>
      <trkpt lat="44.01814" lon="6.40892">
        <ele>1223.486</ele>
        <time>2018-09-13T14:21:04Z</time>
      </trkpt>
      <trkpt lat="44.01819" lon="6.40885">
        <ele>1223.443</ele>
        <time>2018-09-13T14:21:05Z</time>
      </trkpt>
      <trkpt lat="44.01823" lon="6.40877">
        <ele>1223.487</ele>
        <time>2018-09-13T14:21:06Z</time>
      </trkpt>
      <trkpt lat="44.01825" lon="6.40869">
        <ele>1223.498</ele>
        <time>2018-09-13T14:21:07Z</time>
      </trkpt>
      <trkpt lat="44.01826" lon="6.4086">
        <ele>1223.435</ele>
        <time>2018-09-13T14:21:08Z</time>
      </trkpt>
      <trkpt lat="44.01826" lon="6.40852">
        <ele>1223.473</ele>
        <time>2018-09-13T14:21:09Z</time>
      </trkpt>
      <trkpt lat="44.01826" lon="6.40845">
        <ele>1223.474</ele>
        <time>2018-09-13T14:21:10Z</time>
      </trkpt>
      <trkpt lat="44.01826" lon="6.40837">
        <ele>1223.498</ele>
        <time>2018-09-13T14:21:11Z</time>
      </trkpt>
      <trkpt lat="44.01827" lon="6.40829">
        <ele>1223.415</ele>
        <time>2018-09-13T14:21:12Z</time>
      </trkpt>
      <trkpt lat="44.01828" lon="6.40822">
        <ele>1223.426</ele>
        <time>2018-09-13T14:21:13Z</time>
      </trkpt>
      <trkpt lat="44.0183" lon="6.40814">
        <ele>1223.408</ele>
        <time>2018-09-13T14:21:14Z</time>
      </trkpt>
      <trkpt lat="44.01832" lon="6.40807">
        <ele>1223.411</ele>
        <time>2018-09-13T14:21:15Z</time>
      </trkpt>
      <trkpt lat="44.01834" lon="6.40801">
        <ele>1223.477</ele>
        <time>2018-09-13T14:21:16Z</time>
      </trkpt>
      <trkpt lat="44.01837" lon="6.40797">
        <ele>1223.464</ele>
        <time>2018-09-13T14:21:17Z</time>
      </trkpt>
      <trkpt lat="44.01846" lon="6.40792">
        <ele>1239.578</ele>
        <time>2018-09-13T14:21:19Z</time>
      </trkpt>
      <trkpt lat="44.01851" lon="6.4079">
        <ele>1240.069</ele>
        <time>2018-09-13T14:21:20Z</time>
      </trkpt>
      <trkpt lat="44.01858" lon="6.40791">
        <ele>1240.036</ele>
        <time>2018-09-13T14:21:22Z</time>
      </trkpt>
      <trkpt lat="44.01863" lon="6.40793">
        <ele>1240.064</ele>
        <time>2018-09-13T14:21:23Z</time>
      </trkpt>
      <trkpt lat="44.01868" lon="6.40794">
        <ele>1240.095</ele>
        <time>2018-09-13T14:21:24Z</time>
      </trkpt>
      <trkpt lat="44.01875" lon="6.40795">
        <ele>1240.056</ele>
        <time>2018-09-13T14:21:25Z</time>
      </trkpt>
      <trkpt lat="44.0188" lon="6.40795">
        <ele>1240.059</ele>
        <time>2018-09-13T14:21:26Z</time>
      </trkpt>
      <trkpt lat="44.01885" lon="6.40795">
        <ele>1240.014</ele>
        <time>2018-09-13T14:21:27Z</time>
      </trkpt>
      <trkpt lat="44.0189" lon="6.40796">
        <ele>1240.008</ele>
        <time>2018-09-13T14:21:28Z</time>
      </trkpt>
      <trkpt lat="44.01895" lon="6.40797">
        <ele>1240.097</ele>
        <time>2018-09-13T14:21:29Z</time>
      </trkpt>
      <trkpt lat="44.01899" lon="6.40801">
        <ele>1240.093</ele>
        <time>2018-09-13T14:21:30Z</time>
      </trkpt>
      <trkpt lat="44.01904" lon="6.4081">
        <ele>1240.09</ele>
        <time>2018-09-13T14:21:32Z</time>
      </trkpt>
      <trkpt lat="44.01901" lon="6.40818">
        <ele>1240.054</ele>
        <time>2018-09-13T14:21:34Z</time>
      </trkpt>
      <trkpt lat="44.01898" lon="6.40822">
        <ele>1240.065</ele>
        <time>2018-09-13T14:21:35Z</time>
      </trkpt>
      <trkpt lat="44.01891" lon="6.4083">
        <ele>1240.062</ele>
        <time>2018-09-13T14:21:37Z</time>
      </trkpt>
      <trkpt lat="44.01887" lon="6.40835">
        <ele>1240.06</ele>
        <time>2018-09-13T14:21:38Z</time>
      </trkpt>
      <trkpt lat="44.01884" lon="6.4084">
        <ele>1250.451</ele>
        <time>2018-09-13T14:21:39Z</time>
      </trkpt>
      <trkpt lat="44.01882" lon="6.40846">
        <ele>1250.466</ele>
        <time>2018-09-13T14:21:40Z</time>
      </trkpt>
      <trkpt lat="44.0188" lon="6.40856">
        <ele>1250.429</ele>
        <time>2018-09-13T14:21:42Z</time>
      </trkpt>
      <trkpt lat="44.01884" lon="6.40862">
        <ele>1250.421</ele>
        <time>2018-09-13T14:21:44Z</time>
      </trkpt>
      <trkpt lat="44.01891" lon="6.40859">
        <ele>1250.408</ele>
        <time>2018-09-13T14:21:46Z</time>
      </trkpt>
      <trkpt lat="44.01894" lon="6.40853">
        <ele>1250.448</ele>
        <time>2018-09-13T14:21:47Z</time>
      </trkpt>
      <trkpt lat="44.019" lon="6.40843">
        <ele>1250.464</ele>
        <time>2018-09-13T14:21:49Z</time>
      </trkpt>
      <trkpt lat="44.01908" lon="6.40839">
        <ele>1250.431</ele>
        <time>2018-09-13T14:21:51Z</time>
      </trkpt>
      <trkpt lat="44.01912" lon="6.40836">
        <ele>1257.865</ele>
        <time>2018-09-13T14:21:52Z</time>
      </trkpt>
      <trkpt lat="44.01916" lon="6.40833">
        <ele>1257.836</ele>
        <time>2018-09-13T14:21:53Z</time>
      </trkpt>
      <trkpt lat="44.01924" lon="6.40828">
        <ele>1259.213</ele>
        <time>2018-09-13T14:21:55Z</time>
      </trkpt>
      <trkpt lat="44.01928" lon="6.40824">
        <ele>1259.241</ele>
        <time>2018-09-13T14:21:56Z</time>
      </trkpt>
      <trkpt lat="44.01936" lon="6.40818">
        <ele>1259.242</ele>
        <time>2018-09-13T14:21:58Z</time>
      </trkpt>
      <trkpt lat="44.0194" lon="6.40815">
        <ele>1259.293</ele>
        <time>2018-09-13T14:21:59Z</time>
      </trkpt>
      <trkpt lat="44.01944" lon="6.40812">
        <ele>1259.265</ele>
        <time>2018-09-13T14:22:00Z</time>
      </trkpt>
      <trkpt lat="44.01953" lon="6.40807">
        <ele>1263.721</ele>
        <time>2018-09-13T14:22:02Z</time>
      </trkpt>
      <trkpt lat="44.01957" lon="6.40804">
        <ele>1263.708</ele>
        <time>2018-09-13T14:22:03Z</time>
      </trkpt>
      <trkpt lat="44.01965" lon="6.408">
        <ele>1264.511</ele>
        <time>2018-09-13T14:22:05Z</time>
      </trkpt>
      <trkpt lat="44.01973" lon="6.40799">
        <ele>1264.597</ele>
        <time>2018-09-13T14:22:07Z</time>
      </trkpt>
      <trkpt lat="44.01978" lon="6.40798">
        <ele>1264.594</ele>
        <time>2018-09-13T14:22:08Z</time>
      </trkpt>
      <trkpt lat="44.01982" lon="6.40795">
        <ele>1264.578</ele>
        <time>2018-09-13T14:22:09Z</time>
      </trkpt>
      <trkpt lat="44.01987" lon="6.40793">
        <ele>1264.519</ele>
        <time>2018-09-13T14:22:10Z</time>
      </trkpt>
      <trkpt lat="44.01992" lon="6.40789">
        <ele>1264.516</ele>
        <time>2018-09-13T14:22:11Z</time>
      </trkpt>
      <trkpt lat="44.01996" lon="6.40787">
        <ele>1264.574</ele>
        <time>2018-09-13T14:22:12Z</time>
      </trkpt>
      <trkpt lat="44.02003" lon="6.40791">
        <ele>1274.275</ele>
        <time>2018-09-13T14:22:14Z</time>
      </trkpt>
      <trkpt lat="44.0201" lon="6.40797">
        <ele>1274.249</ele>
        <time>2018-09-13T14:22:16Z</time>
      </trkpt>
      <trkpt lat="44.02014" lon="6.40802">
        <ele>1274.202</ele>
        <time>2018-09-13T14:22:17Z</time>
      </trkpt>
      <trkpt lat="44.02019" lon="6.40804">
        <ele>1274.222</ele>
        <time>2018-09-13T14:22:18Z</time>
      </trkpt>
      <trkpt lat="44.02025" lon="6.40807">
        <ele>1274.208</ele>
        <time>2018-09-13T14:22:19Z</time>
      </trkpt>
      <trkpt lat="44.02031" lon="6.40809">
        <ele>1274.216</ele>
        <time>2018-09-13T14:22:20Z</time>
      </trkpt>
      <trkpt lat="44.0204" lon="6.40812">
        <ele>1274.272</ele>
        <time>2018-09-13T14:22:22Z</time>
      </trkpt>
      <trkpt lat="44.02049" lon="6.40815">
        <ele>1274.229</ele>
        <time>2018-09-13T14:22:24Z</time>
      </trkpt>
      <trkpt lat="44.02056" lon="6.40817">
        <ele>1290.223</ele>
        <time>2018-09-13T14:22:25Z</time>
      </trkpt>
      <trkpt lat="44.02062" lon="6.40818">
        <ele>1290.244</ele>
        <time>2018-09-13T14:22:26Z</time>
      </trkpt>
      <trkpt lat="44.02069" lon="6.40819">
        <ele>1290.291</ele>
        <time>2018-09-13T14:22:27Z</time>
      </trkpt>
      <trkpt lat="44.02076" lon="6.40818">
        <ele>1290.239</ele>
        <time>2018-09-13T14:22:28Z</time>
      </trkpt>
      <trkpt lat="44.02082" lon="6.40818">
        <ele>1290.23</ele>
        <time>2018-09-13T14:22:29Z</time>
      </trkpt>
      <trkpt lat="44.02092" lon="6.40817">
        <ele>1290.251</ele>
        <time>2018-09-13T14:22:30Z</time>
      </trkpt>
      <trkpt lat="44.021" lon="6.40814">
        <ele>1290.201</ele>
        <time>2018-09-13T14:22:31Z</time>
      </trkpt>
      <trkpt lat="44.02108" lon="6.40812">
        <ele>1290.211</ele>
        <time>2018-09-13T14:22:32Z</time>
      </trkpt>
      <trkpt lat="44.02114" lon="6.40811">
        <ele>1290.208</ele>
        <time>2018-09-13T14:22:33Z</time>
      </trkpt>
      <trkpt lat="44.02121" lon="6.40811">
        <ele>1292.227</ele>
        <time>2018-09-13T14:22:34Z</time>
      </trkpt>
      <trkpt lat="44.02129" lon="6.40812">
        <ele>1292.293</ele>
        <time>2018-09-13T14:22:35Z</time>
      </trkpt>
      <trkpt lat="44.02136" lon="6.40812">
        <ele>1292.24</ele>
        <time>2018-09-13T14:22:36Z</time>
      </trkpt>
      <trkpt lat="44.02144" lon="6.40808">
        <ele>1292.294</ele>
        <time>2018-09-13T14:22:37Z</time>
      </trkpt>
      <trkpt lat="44.02151" lon="6.40807">
        <ele>1292.275</ele>
        <time>2018-09-13T14:22:38Z</time>
      </trkpt>
      <trkpt lat="44.0216" lon="6.40807">
        <ele>1292.242</ele>
        <time>2018-09-13T14:22:39Z</time>
      </trkpt>
      <trkpt lat="44.02167" lon="6.40807">
        <ele>1292.28</ele>
        <time>2018-09-13T14:22:40Z</time>
      </trkpt>
      <trkpt lat="44.02173" lon="6.40808">
        <ele>1292.261</ele>
        <time>2018-09-13T14:22:41Z</time>
      </trkpt>
      <trkpt lat="44.02181" lon="6.40806">
        <ele>1298.919</ele>
        <time>2018-09-13T14:22:42Z</time>
      </trkpt>
      <trkpt lat="44.02187" lon="6.40808">
        <ele>1298.909</ele>
        <time>2018-09-13T14:22:43Z</time>
      </trkpt>
      <trkpt lat="44.02195" lon="6.40808">
        <ele>1298.919</ele>
        <time>2018-09-13T14:22:44Z</time>
      </trkpt>
      <trkpt lat="44.02203" lon="6.40808">
        <ele>1298.908</ele>
        <time>2018-09-13T14:22:45Z</time>
      </trkpt>
      <trkpt lat="44.0221" lon="6.40809">
        <ele>1298.943</ele>
        <time>2018-09-13T14:22:46Z</time>
      </trkpt>
      <trkpt lat="44.02216" lon="6.40807">
        <ele>1298.989</ele>
        <time>2018-09-13T14:22:47Z</time>
      </trkpt>
      <trkpt lat="44.02224" lon="6.40805">
        <ele>1298.946</ele>
        <time>2018-09-13T14:22:48Z</time>
      </trkpt>
      <trkpt lat="44.0223" lon="6.40806">
        <ele>1305.25</ele>
        <time>2018-09-13T14:22:49Z</time>
      </trkpt>
      <trkpt lat="44.02237" lon="6.40806">
        <ele>1306.031</ele>
        <time>2018-09-13T14:22:50Z</time>
      </trkpt>
      <trkpt lat="44.02244" lon="6.40807">
        <ele>1306.798</ele>
        <time>2018-09-13T14:22:51Z</time>
      </trkpt>
      <trkpt lat="44.02251" lon="6.40807">
        <ele>1306.726</ele>
        <time>2018-09-13T14:22:52Z</time>
      </trkpt>
      <trkpt lat="44.02259" lon="6.40806">
        <ele>1306.767</ele>
        <time>2018-09-13T14:22:53Z</time>
      </trkpt>
      <trkpt lat="44.02265" lon="6.40803">
        <ele>1306.765</ele>
        <time>2018-09-13T14:22:54Z</time>
      </trkpt>
      <trkpt lat="44.02274" lon="6.408">
        <ele>1306.768</ele>
        <time>2018-09-13T14:22:55Z</time>
      </trkpt>
      <trkpt lat="44.02281" lon="6.40799">
        <ele>1306.714</ele>
        <time>2018-09-13T14:22:56Z</time>
      </trkpt>
      <trkpt lat="44.02288" lon="6.40799">
        <ele>1311.808</ele>
        <time>2018-09-13T14:22:57Z</time>
      </trkpt>
      <trkpt lat="44.02297" lon="6.40799">
        <ele>1311.888</ele>
        <time>2018-09-13T14:22:58Z</time>
      </trkpt>
      <trkpt lat="44.02303" lon="6.40799">
        <ele>1311.834</ele>
        <time>2018-09-13T14:22:59Z</time>
      </trkpt>
      <trkpt lat="44.0231" lon="6.40796">
        <ele>1311.821</ele>
        <time>2018-09-13T14:23:00Z</time>
      </trkpt>
      <trkpt lat="44.02317" lon="6.40794">
        <ele>1311.855</ele>
        <time>2018-09-13T14:23:01Z</time>
      </trkpt>
      <trkpt lat="44.02325" lon="6.40793">
        <ele>1311.836</ele>
        <time>2018-09-13T14:23:02Z</time>
      </trkpt>
      <trkpt lat="44.02332" lon="6.40791">
        <ele>1311.813</ele>
        <time>2018-09-13T14:23:03Z</time>
      </trkpt>
      <trkpt lat="44.0234" lon="6.40791">
        <ele>1317.171</ele>
        <time>2018-09-13T14:23:04Z</time>
      </trkpt>
      <trkpt lat="44.02347" lon="6.4079">
        <ele>1317.152</ele>
        <time>2018-09-13T14:23:05Z</time>
      </trkpt>
      <trkpt lat="44.02355" lon="6.4079">
        <ele>1317.116</ele>
        <time>2018-09-13T14:23:06Z</time>
      </trkpt>
      <trkpt lat="44.02361" lon="6.40788">
        <ele>1317.176</ele>
        <time>2018-09-13T14:23:07Z</time>
      </trkpt>
      <trkpt lat="44.02368" lon="6.40787">
        <ele>1317.113</ele>
        <time>2018-09-13T14:23:08Z</time>
      </trkpt>
      <trkpt lat="44.02375" lon="6.40786">
        <ele>1317.108</ele>
        <time>2018-09-13T14:23:09Z</time>
      </trkpt>
      <trkpt lat="44.02382" lon="6.40784">
        <ele>1317.133</ele>
        <time>2018-09-13T14:23:10Z</time>
      </trkpt>
      <trkpt lat="44.02389" lon="6.40782">
        <ele>1317.159</ele>
        <time>2018-09-13T14:23:11Z</time>
      </trkpt>
      <trkpt lat="44.02396" lon="6.40781">
        <ele>1325.236</ele>
        <time>2018-09-13T14:23:12Z</time>
      </trkpt>
      <trkpt lat="44.02404" lon="6.40781">
        <ele>1325.29</ele>
        <time>2018-09-13T14:23:13Z</time>
      </trkpt>
      <trkpt lat="44.02411" lon="6.40781">
        <ele>1332.461</ele>
        <time>2018-09-13T14:23:14Z</time>
      </trkpt>
      <trkpt lat="44.02419" lon="6.40783">
        <ele>1332.418</ele>
        <time>2018-09-13T14:23:15Z</time>
      </trkpt>
      <trkpt lat="44.02426" lon="6.40784">
        <ele>1332.486</ele>
        <time>2018-09-13T14:23:16Z</time>
      </trkpt>
      <trkpt lat="44.02432" lon="6.40785">
        <ele>1332.427</ele>
        <time>2018-09-13T14:23:17Z</time>
      </trkpt>
      <trkpt lat="44.0244" lon="6.40786">
        <ele>1332.491</ele>
        <time>2018-09-13T14:23:18Z</time>
      </trkpt>
      <trkpt lat="44.02445" lon="6.40788">
        <ele>1332.481</ele>
        <time>2018-09-13T14:23:19Z</time>
      </trkpt>
      <trkpt lat="44.02452" lon="6.40789">
        <ele>1332.419</ele>
        <time>2018-09-13T14:23:20Z</time>
      </trkpt>
      <trkpt lat="44.02458" lon="6.40789">
        <ele>1332.408</ele>
        <time>2018-09-13T14:23:21Z</time>
      </trkpt>
      <trkpt lat="44.02465" lon="6.40789">
        <ele>1332.451</ele>
        <time>2018-09-13T14:23:22Z</time>
      </trkpt>
      <trkpt lat="44.02471" lon="6.40788">
        <ele>1332.497</ele>
        <time>2018-09-13T14:23:23Z</time>
      </trkpt>
      <trkpt lat="44.02478" lon="6.40788">
        <ele>1332.454</ele>
        <time>2018-09-13T14:23:24Z</time>
      </trkpt>
      <trkpt lat="44.02485" lon="6.40786">
        <ele>1338.168</ele>
        <time>2018-09-13T14:23:25Z</time>
      </trkpt>
      <trkpt lat="44.02494" lon="6.40786">
        <ele>1338.169</ele>
        <time>2018-09-13T14:23:26Z</time>
      </trkpt>
      <trkpt lat="44.02501" lon="6.40787">
        <ele>1340.436</ele>
        <time>2018-09-13T14:23:27Z</time>
      </trkpt>
      <trkpt lat="44.02509" lon="6.40787">
        <ele>1340.414</ele>
        <time>2018-09-13T14:23:28Z</time>
      </trkpt>
      <trkpt lat="44.02515" lon="6.4079">
        <ele>1340.415</ele>
        <time>2018-09-13T14:23:29Z</time>
      </trkpt>
      <trkpt lat="44.02522" lon="6.40792">
        <ele>1340.462</ele>
        <time>2018-09-13T14:23:30Z</time>
      </trkpt>
      <trkpt lat="44.02529" lon="6.40793">
        <ele>1340.483</ele>
        <time>2018-09-13T14:23:31Z</time>
      </trkpt>
      <trkpt lat="44.02536" lon="6.40795">
        <ele>1340.411</ele>
        <time>2018-09-13T14:23:32Z</time>
      </trkpt>
      <trkpt lat="44.02543" lon="6.40797">
        <ele>1340.408</ele>
        <time>2018-09-13T14:23:33Z</time>
      </trkpt>
      <trkpt lat="44.0255" lon="6.408">
        <ele>1347.338</ele>
        <time>2018-09-13T14:23:34Z</time>
      </trkpt>
      <trkpt lat="44.02557" lon="6.40804">
        <ele>1347.394</ele>
        <time>2018-09-13T14:23:35Z</time>
      </trkpt>
      <trkpt lat="44.02564" lon="6.40808">
        <ele>1347.321</ele>
        <time>2018-09-13T14:23:36Z</time>
      </trkpt>
      <trkpt lat="44.02571" lon="6.40811">
        <ele>1347.355</ele>
        <time>2018-09-13T14:23:37Z</time>
      </trkpt>
      <trkpt lat="44.02576" lon="6.40815">
        <ele>1347.386</ele>
        <time>2018-09-13T14:23:38Z</time>
      </trkpt>
      <trkpt lat="44.02583" lon="6.4082">
        <ele>1347.373</ele>
        <time>2018-09-13T14:23:39Z</time>
      </trkpt>
      <trkpt lat="44.02589" lon="6.40821">
        <ele>1347.371</ele>
        <time>2018-09-13T14:23:40Z</time>
      </trkpt>
      <trkpt lat="44.02596" lon="6.40827">
        <ele>1347.362</ele>
        <time>2018-09-13T14:23:41Z</time>
      </trkpt>
      <trkpt lat="44.02601" lon="6.40832">
        <ele>1353.684</ele>
        <time>2018-09-13T14:23:42Z</time>
      </trkpt>
      <trkpt lat="44.02608" lon="6.40836">
        <ele>1353.607</ele>
        <time>2018-09-13T14:23:43Z</time>
      </trkpt>
      <trkpt lat="44.02611" lon="6.40842">
        <ele>1353.617</ele>
        <time>2018-09-13T14:23:44Z</time>
      </trkpt>
      <trkpt lat="44.02617" lon="6.40849">
        <ele>1353.608</ele>
        <time>2018-09-13T14:23:45Z</time>
      </trkpt>
      <trkpt lat="44.02622" lon="6.40852">
        <ele>1353.69</ele>
        <time>2018-09-13T14:23:46Z</time>
      </trkpt>
      <trkpt lat="44.02627" lon="6.40855">
        <ele>1353.636</ele>
        <time>2018-09-13T14:23:47Z</time>
      </trkpt>
      <trkpt lat="44.02632" lon="6.40856">
        <ele>1353.623</ele>
        <time>2018-09-13T14:23:48Z</time>
      </trkpt>
      <trkpt lat="44.0264" lon="6.4086">
        <ele>1353.617</ele>
        <time>2018-09-13T14:23:49Z</time>
      </trkpt>
      <trkpt lat="44.02647" lon="6.40865">
        <ele>1353.658</ele>
        <time>2018-09-13T14:23:50Z</time>
      </trkpt>
      <trkpt lat="44.02653" lon="6.40871">
        <ele>1362.255</ele>
        <time>2018-09-13T14:23:51Z</time>
      </trkpt>
      <trkpt lat="44.02658" lon="6.40874">
        <ele>1362.213</ele>
        <time>2018-09-13T14:23:52Z</time>
      </trkpt>
      <trkpt lat="44.02663" lon="6.40879">
        <ele>1362.264</ele>
        <time>2018-09-13T14:23:53Z</time>
      </trkpt>
      <trkpt lat="44.02671" lon="6.40884">
        <ele>1362.246</ele>
        <time>2018-09-13T14:23:54Z</time>
      </trkpt>
      <trkpt lat="44.02675" lon="6.40887">
        <ele>1362.288</ele>
        <time>2018-09-13T14:23:55Z</time>
      </trkpt>
      <trkpt lat="44.0268" lon="6.40892">
        <ele>1362.216</ele>
        <time>2018-09-13T14:23:56Z</time>
      </trkpt>
      <trkpt lat="44.02685" lon="6.40899">
        <ele>1362.208</ele>
        <time>2018-09-13T14:23:57Z</time>
      </trkpt>
      <trkpt lat="44.0269" lon="6.40903">
        <ele>1369.116</ele>
        <time>2018-09-13T14:23:58Z</time>
      </trkpt>
      <trkpt lat="44.02695" lon="6.40909">
        <ele>1370.062</ele>
        <time>2018-09-13T14:23:59Z</time>
      </trkpt>
      <trkpt lat="44.02702" lon="6.40915">
        <ele>1370.059</ele>
        <time>2018-09-13T14:24:00Z</time>
      </trkpt>
      <trkpt lat="44.02708" lon="6.4092">
        <ele>1370.043</ele>
        <time>2018-09-13T14:24:01Z</time>
      </trkpt>
      <trkpt lat="44.02714" lon="6.40923">
        <ele>1370.094</ele>
        <time>2018-09-13T14:24:02Z</time>
      </trkpt>
      <trkpt lat="44.02721" lon="6.40928">
        <ele>1370.081</ele>
        <time>2018-09-13T14:24:03Z</time>
      </trkpt>
      <trkpt lat="44.02726" lon="6.40932">
        <ele>1370.029</ele>
        <time>2018-09-13T14:24:04Z</time>
      </trkpt>
      <trkpt lat="44.02734" lon="6.40935">
        <ele>1370.01</ele>
        <time>2018-09-13T14:24:05Z</time>
      </trkpt>
      <trkpt lat="44.02742" lon="6.40938">
        <ele>1377.743</ele>
        <time>2018-09-13T14:24:06Z</time>
      </trkpt>
      <trkpt lat="44.0275" lon="6.40942">
        <ele>1379.064</ele>
        <time>2018-09-13T14:24:07Z</time>
      </trkpt>
      <trkpt lat="44.02758" lon="6.40947">
        <ele>1379.01</ele>
        <time>2018-09-13T14:24:08Z</time>
      </trkpt>
      <trkpt lat="44.02766" lon="6.40952">
        <ele>1379.008</ele>
        <time>2018-09-13T14:24:09Z</time>
      </trkpt>
      <trkpt lat="44.02773" lon="6.40957">
        <ele>1379.066</ele>
        <time>2018-09-13T14:24:10Z</time>
      </trkpt>
      <trkpt lat="44.02781" lon="6.40957">
        <ele>1379.092</ele>
        <time>2018-09-13T14:24:11Z</time>
      </trkpt>
      <trkpt lat="44.02786" lon="6.4096">
        <ele>1379.049</ele>
        <time>2018-09-13T14:24:12Z</time>
      </trkpt>
      <trkpt lat="44.02792" lon="6.40967">
        <ele>1386.093</ele>
        <time>2018-09-13T14:24:14Z</time>
      </trkpt>
      <trkpt lat="44.02797" lon="6.40972">
        <ele>1386.094</ele>
        <time>2018-09-13T14:24:15Z</time>
      </trkpt>
      <trkpt lat="44.02803" lon="6.40982">
        <ele>1386.081</ele>
        <time>2018-09-13T14:24:16Z</time>
      </trkpt>
      <trkpt lat="44.02808" lon="6.4099">
        <ele>1386.029</ele>
        <time>2018-09-13T14:24:17Z</time>
      </trkpt>
      <trkpt lat="44.02815" lon="6.40995">
        <ele>1386.02</ele>
        <time>2018-09-13T14:24:18Z</time>
      </trkpt>
      <trkpt lat="44.0282" lon="6.41003">
        <ele>1386.035</ele>
        <time>2018-09-13T14:24:19Z</time>
      </trkpt>
      <trkpt lat="44.02826" lon="6.41009">
        <ele>1386.086</ele>
        <time>2018-09-13T14:24:20Z</time>
      </trkpt>
      <trkpt lat="44.02832" lon="6.41013">
        <ele>1386.014</ele>
        <time>2018-09-13T14:24:21Z</time>
      </trkpt>
      <trkpt lat="44.02839" lon="6.41016">
        <ele>1395.008</ele>
        <time>2018-09-13T14:24:22Z</time>
      </trkpt>
      <trkpt lat="44.02844" lon="6.41019">
        <ele>1395.055</ele>
        <time>2018-09-13T14:24:23Z</time>
      </trkpt>
      <trkpt lat="44.0285" lon="6.4102">
        <ele>1395.051</ele>
        <time>2018-09-13T14:24:24Z</time>
      </trkpt>
      <trkpt lat="44.02857" lon="6.4102">
        <ele>1395.048</ele>
        <time>2018-09-13T14:24:25Z</time>
      </trkpt>
      <trkpt lat="44.02864" lon="6.41019">
        <ele>1395.012</ele>
        <time>2018-09-13T14:24:26Z</time>
      </trkpt>
      <trkpt lat="44.02871" lon="6.41017">
        <ele>1395.033</ele>
        <time>2018-09-13T14:24:27Z</time>
      </trkpt>
      <trkpt lat="44.02877" lon="6.41016">
        <ele>1395.05</ele>
        <time>2018-09-13T14:24:28Z</time>
      </trkpt>
      <trkpt lat="44.02884" lon="6.41014">
        <ele>1395.038</ele>
        <time>2018-09-13T14:24:29Z</time>
      </trkpt>
      <trkpt lat="44.02891" lon="6.41011">
        <ele>1395.019</ele>
        <time>2018-09-13T14:24:30Z</time>
      </trkpt>
      <trkpt lat="44.02898" lon="6.41009">
        <ele>1406.952</ele>
        <time>2018-09-13T14:24:31Z</time>
      </trkpt>
      <trkpt lat="44.02906" lon="6.41005">
        <ele>1406.953</ele>
        <time>2018-09-13T14:24:32Z</time>
      </trkpt>
      <trkpt lat="44.02914" lon="6.41002">
        <ele>1406.908</ele>
        <time>2018-09-13T14:24:33Z</time>
      </trkpt>
      <trkpt lat="44.02921" lon="6.40999">
        <ele>1406.908</ele>
        <time>2018-09-13T14:24:34Z</time>
      </trkpt>
      <trkpt lat="44.02926" lon="6.40999">
        <ele>1406.997</ele>
        <time>2018-09-13T14:24:35Z</time>
      </trkpt>
      <trkpt lat="44.02933" lon="6.41001">
        <ele>1406.983</ele>
        <time>2018-09-13T14:24:36Z</time>
      </trkpt>
      <trkpt lat="44.02933" lon="6.41012">
        <ele>1406.99</ele>
        <time>2018-09-13T14:24:38Z</time>
      </trkpt>
      <trkpt lat="44.02932" lon="6.41019">
        <ele>1406.944</ele>
        <time>2018-09-13T14:24:39Z</time>
      </trkpt>
      <trkpt lat="44.02927" lon="6.41028">
        <ele>1406.975</ele>
        <time>2018-09-13T14:24:40Z</time>
      </trkpt>
      <trkpt lat="44.02925" lon="6.41035">
        <ele>1417.832</ele>
        <time>2018-09-13T14:24:41Z</time>
      </trkpt>
      <trkpt lat="44.02921" lon="6.41042">
        <ele>1417.88</ele>
        <time>2018-09-13T14:24:42Z</time>
      </trkpt>
      <trkpt lat="44.02916" lon="6.41049">
        <ele>1417.811</ele>
        <time>2018-09-13T14:24:43Z</time>
      </trkpt>
      <trkpt lat="44.02911" lon="6.41057">
        <ele>1417.837</ele>
        <time>2018-09-13T14:24:44Z</time>
      </trkpt>
      <trkpt lat="44.02906" lon="6.41062">
        <ele>1417.849</ele>
        <time>2018-09-13T14:24:45Z</time>
      </trkpt>
      <trkpt lat="44.029" lon="6.41069">
        <ele>1417.813</ele>
        <time>2018-09-13T14:24:46Z</time>
      </trkpt>
      <trkpt lat="44.02896" lon="6.41073">
        <ele>1417.808</ele>
        <time>2018-09-13T14:24:47Z</time>
      </trkpt>
      <trkpt lat="44.02892" lon="6.41079">
        <ele>1417.895</ele>
        <time>2018-09-13T14:24:48Z</time>
      </trkpt>
      <trkpt lat="44.02884" lon="6.41085">
        <ele>1422.751</ele>
        <time>2018-09-13T14:24:49Z</time>
      </trkpt>
      <trkpt lat="44.02879" lon="6.4109">
        <ele>1422.718</ele>
        <time>2018-09-13T14:24:50Z</time>
      </trkpt>
      <trkpt lat="44.02873" lon="6.41096">
        <ele>1422.732</ele>
        <time>2018-09-13T14:24:51Z</time>
      </trkpt>
      <trkpt lat="44.02867" lon="6.411">
        <ele>1422.753</ele>
        <time>2018-09-13T14:24:52Z</time>
      </trkpt>
      <trkpt lat="44.0286" lon="6.41102">
        <ele>1422.77</ele>
        <time>2018-09-13T14:24:53Z</time>
      </trkpt>
      <trkpt lat="44.02854" lon="6.41106">
        <ele>1422.788</ele>
        <time>2018-09-13T14:24:54Z</time>
      </trkpt>
      <trkpt lat="44.02848" lon="6.41111">
        <ele>1422.739</ele>
        <time>2018-09-13T14:24:55Z</time>
      </trkpt>
      <trkpt lat="44.02841" lon="6.41113">
        <ele>1422.724</ele>
        <time>2018-09-13T14:24:56Z</time>
      </trkpt>
      <trkpt lat="44.02835" lon="6.41116">
        <ele>1422.704</ele>
        <time>2018-09-13T14:24:57Z</time>
      </trkpt>
      <trkpt lat="44.02827" lon="6.41116">
        <ele>1429.614</ele>
        <time>2018-09-13T14:24:58Z</time>
      </trkpt>
      <trkpt lat="44.02821" lon="6.41117">
        <ele>1429.608</ele>
        <time>2018-09-13T14:24:59Z</time>
      </trkpt>
      <trkpt lat="44.02813" lon="6.41114">
        <ele>1429.614</ele>
        <time>2018-09-13T14:25:00Z</time>
      </trkpt>
      <trkpt lat="44.02806" lon="6.41111">
        <ele>1431.33</ele>
        <time>2018-09-13T14:25:01Z</time>
      </trkpt>
      <trkpt lat="44.028" lon="6.41109">
        <ele>1431.397</ele>
        <time>2018-09-13T14:25:02Z</time>
      </trkpt>
      <trkpt lat="44.02793" lon="6.41104">
        <ele>1431.381</ele>
        <time>2018-09-13T14:25:03Z</time>
      </trkpt>
      <trkpt lat="44.02788" lon="6.41098">
        <ele>1431.382</ele>
        <time>2018-09-13T14:25:04Z</time>
      </trkpt>
      <trkpt lat="44.02781" lon="6.41093">
        <ele>1431.379</ele>
        <time>2018-09-13T14:25:05Z</time>
      </trkpt>
      <trkpt lat="44.02775" lon="6.41088">
        <ele>1431.337</ele>
        <time>2018-09-13T14:25:06Z</time>
      </trkpt>
      <trkpt lat="44.02771" lon="6.41083">
        <ele>1431.368</ele>
        <time>2018-09-13T14:25:07Z</time>
      </trkpt>
      <trkpt lat="44.02763" lon="6.41082">
        <ele>1435.841</ele>
        <time>2018-09-13T14:25:08Z</time>
      </trkpt>
      <trkpt lat="44.02757" lon="6.41078">
        <ele>1435.881</ele>
        <time>2018-09-13T14:25:09Z</time>
      </trkpt>
      <trkpt lat="44.0275" lon="6.41076">
        <ele>1435.809</ele>
        <time>2018-09-13T14:25:10Z</time>
      </trkpt>
      <trkpt lat="44.02743" lon="6.41075">
        <ele>1435.808</ele>
        <time>2018-09-13T14:25:11Z</time>
      </trkpt>
      <trkpt lat="44.02736" lon="6.41075">
        <ele>1435.876</ele>
        <time>2018-09-13T14:25:12Z</time>
      </trkpt>
      <trkpt lat="44.0273" lon="6.41076">
        <ele>1435.822</ele>
        <time>2018-09-13T14:25:13Z</time>
      </trkpt>
      <trkpt lat="44.02721" lon="6.41077">
        <ele>1435.869</ele>
        <time>2018-09-13T14:25:14Z</time>
      </trkpt>
      <trkpt lat="44.02712" lon="6.41077">
        <ele>1439.513</ele>
        <time>2018-09-13T14:25:15Z</time>
      </trkpt>
      <trkpt lat="44.02703" lon="6.41074">
        <ele>1439.544</ele>
        <time>2018-09-13T14:25:16Z</time>
      </trkpt>
      <trkpt lat="44.02696" lon="6.41077">
        <ele>1439.531</ele>
        <time>2018-09-13T14:25:17Z</time>
      </trkpt>
      <trkpt lat="44.02688" lon="6.41077">
        <ele>1439.599</ele>
        <time>2018-09-13T14:25:18Z</time>
      </trkpt>
      <trkpt lat="44.02681" lon="6.41076">
        <ele>1439.59</ele>
        <time>2018-09-13T14:25:19Z</time>
      </trkpt>
      <trkpt lat="44.02674" lon="6.41077">
        <ele>1442.167</ele>
        <time>2018-09-13T14:25:21Z</time>
      </trkpt>
      <trkpt lat="44.0267" lon="6.41079">
        <ele>1442.581</ele>
        <time>2018-09-13T14:25:22Z</time>
      </trkpt>
      <trkpt lat="44.0267" lon="6.41086">
        <ele>1442.519</ele>
        <time>2018-09-13T14:25:23Z</time>
      </trkpt>
      <trkpt lat="44.02673" lon="6.41092">
        <ele>1442.508</ele>
        <time>2018-09-13T14:25:25Z</time>
      </trkpt>
      <trkpt lat="44.02678" lon="6.41094">
        <ele>1442.548</ele>
        <time>2018-09-13T14:25:26Z</time>
      </trkpt>
      <trkpt lat="44.02685" lon="6.41093">
        <ele>1442.534</ele>
        <time>2018-09-13T14:25:27Z</time>
      </trkpt>
      <trkpt lat="44.0269" lon="6.41094">
        <ele>1442.541</ele>
        <time>2018-09-13T14:25:28Z</time>
      </trkpt>
      <trkpt lat="44.02696" lon="6.41095">
        <ele>1442.575</ele>
        <time>2018-09-13T14:25:29Z</time>
      </trkpt>
      <trkpt lat="44.02702" lon="6.41096">
        <ele>1442.596</ele>
        <time>2018-09-13T14:25:30Z</time>
      </trkpt>
      <trkpt lat="44.02709" lon="6.411">
        <ele>1442.563</ele>
        <time>2018-09-13T14:25:31Z</time>
      </trkpt>
      <trkpt lat="44.02716" lon="6.41104">
        <ele>1447.071</ele>
        <time>2018-09-13T14:25:32Z</time>
      </trkpt>
      <trkpt lat="44.02723" lon="6.41108">
        <ele>1447.022</ele>
        <time>2018-09-13T14:25:33Z</time>
      </trkpt>
      <trkpt lat="44.02729" lon="6.41112">
        <ele>1447.067</ele>
        <time>2018-09-13T14:25:34Z</time>
      </trkpt>
      <trkpt lat="44.02735" lon="6.41116">
        <ele>1447.081</ele>
        <time>2018-09-13T14:25:35Z</time>
      </trkpt>
      <trkpt lat="44.0274" lon="6.41121">
        <ele>1447.019</ele>
        <time>2018-09-13T14:25:36Z</time>
      </trkpt>
      <trkpt lat="44.02744" lon="6.41126">
        <ele>1447.008</ele>
        <time>2018-09-13T14:25:37Z</time>
      </trkpt>
      <trkpt lat="44.02748" lon="6.41133">
        <ele>1447.028</ele>
        <time>2018-09-13T14:25:38Z</time>
      </trkpt>
      <trkpt lat="44.02752" lon="6.41141">
        <ele>1452.724</ele>
        <time>2018-09-13T14:25:39Z</time>
      </trkpt>
      <trkpt lat="44.02756" lon="6.41148">
        <ele>1453.391</ele>
        <time>2018-09-13T14:25:40Z</time>
      </trkpt>
      <trkpt lat="44.02759" lon="6.41155">
        <ele>1453.795</ele>
        <time>2018-09-13T14:25:41Z</time>
      </trkpt>
      <trkpt lat="44.02763" lon="6.41163">
        <ele>1453.776</ele>
        <time>2018-09-13T14:25:42Z</time>
      </trkpt>
      <trkpt lat="44.02767" lon="6.4117">
        <ele>1453.773</ele>
        <time>2018-09-13T14:25:43Z</time>
      </trkpt>
      <trkpt lat="44.02771" lon="6.41178">
        <ele>1453.741</ele>
        <time>2018-09-13T14:25:44Z</time>
      </trkpt>
      <trkpt lat="44.02774" lon="6.41186">
        <ele>1453.752</ele>
        <time>2018-09-13T14:25:45Z</time>
      </trkpt>
      <trkpt lat="44.02776" lon="6.41194">
        <ele>1453.718</ele>
        <time>2018-09-13T14:25:46Z</time>
      </trkpt>
      <trkpt lat="44.02778" lon="6.41202">
        <ele>1453.798</ele>
        <time>2018-09-13T14:25:47Z</time>
      </trkpt>
      <trkpt lat="44.02781" lon="6.41208">
        <ele>1453.717</ele>
        <time>2018-09-13T14:25:48Z</time>
      </trkpt>
      <trkpt lat="44.02781" lon="6.41216">
        <ele>1458.608</ele>
        <time>2018-09-13T14:25:49Z</time>
      </trkpt>
      <trkpt lat="44.02782" lon="6.41223">
        <ele>1458.633</ele>
        <time>2018-09-13T14:25:50Z</time>
      </trkpt>
      <trkpt lat="44.02785" lon="6.41229">
        <ele>1458.629</ele>
        <time>2018-09-13T14:25:51Z</time>
      </trkpt>
      <trkpt lat="44.0279" lon="6.41233">
        <ele>1461.716</ele>
        <time>2018-09-13T14:25:52Z</time>
      </trkpt>
      <trkpt lat="44.02796" lon="6.41234">
        <ele>1461.72</ele>
        <time>2018-09-13T14:25:53Z</time>
      </trkpt>
      <trkpt lat="44.02802" lon="6.41234">
        <ele>1461.731</ele>
        <time>2018-09-13T14:25:54Z</time>
      </trkpt>
      <trkpt lat="44.02807" lon="6.41235">
        <ele>1461.778</ele>
        <time>2018-09-13T14:25:55Z</time>
      </trkpt>
      <trkpt lat="44.02814" lon="6.41235">
        <ele>1461.796</ele>
        <time>2018-09-13T14:25:56Z</time>
      </trkpt>
      <trkpt lat="44.02819" lon="6.41235">
        <ele>1461.747</ele>
        <time>2018-09-13T14:25:57Z</time>
      </trkpt>
      <trkpt lat="44.02825" lon="6.41233">
        <ele>1461.773</ele>
        <time>2018-09-13T14:25:58Z</time>
      </trkpt>
      <trkpt lat="44.02831" lon="6.41229">
        <ele>1463.685</ele>
        <time>2018-09-13T14:25:59Z</time>
      </trkpt>
      <trkpt lat="44.02837" lon="6.41227">
        <ele>1463.613</ele>
        <time>2018-09-13T14:26:00Z</time>
      </trkpt>
      <trkpt lat="44.0284" lon="6.41223">
        <ele>1463.608</ele>
        <time>2018-09-13T14:26:01Z</time>
      </trkpt>
      <trkpt lat="44.02846" lon="6.41221">
        <ele>1463.619</ele>
        <time>2018-09-13T14:26:02Z</time>
      </trkpt>
      <trkpt lat="44.02852" lon="6.41218">
        <ele>1463.665</ele>
        <time>2018-09-13T14:26:03Z</time>
      </trkpt>
      <trkpt lat="44.02859" lon="6.41216">
        <ele>1463.622</ele>
        <time>2018-09-13T14:26:04Z</time>
      </trkpt>
      <trkpt lat="44.02864" lon="6.41212">
        <ele>1463.626</ele>
        <time>2018-09-13T14:26:05Z</time>
      </trkpt>
      <trkpt lat="44.0287" lon="6.4121">
        <ele>1463.667</ele>
        <time>2018-09-13T14:26:06Z</time>
      </trkpt>
      <trkpt lat="44.02876" lon="6.41208">
        <ele>1472.494</ele>
        <time>2018-09-13T14:26:07Z</time>
      </trkpt>
      <trkpt lat="44.02882" lon="6.41208">
        <ele>1472.482</ele>
        <time>2018-09-13T14:26:08Z</time>
      </trkpt>
      <trkpt lat="44.02888" lon="6.41207">
        <ele>1472.413</ele>
        <time>2018-09-13T14:26:09Z</time>
      </trkpt>
      <trkpt lat="44.02895" lon="6.41207">
        <ele>1472.438</ele>
        <time>2018-09-13T14:26:10Z</time>
      </trkpt>
      <trkpt lat="44.02901" lon="6.41208">
        <ele>1472.47</ele>
        <time>2018-09-13T14:26:11Z</time>
      </trkpt>
      <trkpt lat="44.02907" lon="6.41207">
        <ele>1472.417</ele>
        <time>2018-09-13T14:26:12Z</time>
      </trkpt>
      <trkpt lat="44.02912" lon="6.41207">
        <ele>1472.408</ele>
        <time>2018-09-13T14:26:13Z</time>
      </trkpt>
      <trkpt lat="44.02917" lon="6.41208">
        <ele>1472.465</ele>
        <time>2018-09-13T14:26:14Z</time>
      </trkpt>
      <trkpt lat="44.02922" lon="6.41209">
        <ele>1479.941</ele>
        <time>2018-09-13T14:26:15Z</time>
      </trkpt>
      <trkpt lat="44.02928" lon="6.41211">
        <ele>1479.968</ele>
        <time>2018-09-13T14:26:16Z</time>
      </trkpt>
      <trkpt lat="44.02933" lon="6.41214">
        <ele>1479.932</ele>
        <time>2018-09-13T14:26:17Z</time>
      </trkpt>
      <trkpt lat="44.02937" lon="6.41217">
        <ele>1479.943</ele>
        <time>2018-09-13T14:26:18Z</time>
      </trkpt>
      <trkpt lat="44.02941" lon="6.41223">
        <ele>1479.92</ele>
        <time>2018-09-13T14:26:19Z</time>
      </trkpt>
      <trkpt lat="44.02944" lon="6.41228">
        <ele>1479.938</ele>
        <time>2018-09-13T14:26:20Z</time>
      </trkpt>
      <trkpt lat="44.02947" lon="6.41234">
        <ele>1479.969</ele>
        <time>2018-09-13T14:26:21Z</time>
      </trkpt>
      <trkpt lat="44.02951" lon="6.41246">
        <ele>1484.741</ele>
        <time>2018-09-13T14:26:23Z</time>
      </trkpt>
      <trkpt lat="44.02954" lon="6.41258">
        <ele>1484.781</ele>
        <time>2018-09-13T14:26:25Z</time>
      </trkpt>
      <trkpt lat="44.02954" lon="6.41265">
        <ele>1484.709</ele>
        <time>2018-09-13T14:26:26Z</time>
      </trkpt>
      <trkpt lat="44.02956" lon="6.41272">
        <ele>1484.708</ele>
        <time>2018-09-13T14:26:27Z</time>
      </trkpt>
      <trkpt lat="44.02957" lon="6.41279">
        <ele>1484.766</ele>
        <time>2018-09-13T14:26:28Z</time>
      </trkpt>
      <trkpt lat="44.02958" lon="6.41286">
        <ele>1487.282</ele>
        <time>2018-09-13T14:26:29Z</time>
      </trkpt>
      <trkpt lat="44.02959" lon="6.41295">
        <ele>1487.269</ele>
        <time>2018-09-13T14:26:30Z</time>
      </trkpt>
      <trkpt lat="44.0296" lon="6.41302">
        <ele>1487.273</ele>
        <time>2018-09-13T14:26:31Z</time>
      </trkpt>
      <trkpt lat="44.02961" lon="6.41311">
        <ele>1487.274</ele>
        <time>2018-09-13T14:26:32Z</time>
      </trkpt>
      <trkpt lat="44.02963" lon="6.4132">
        <ele>1487.291</ele>
        <time>2018-09-13T14:26:33Z</time>
      </trkpt>
      <trkpt lat="44.02965" lon="6.41329">
        <ele>1487.259</ele>
        <time>2018-09-13T14:26:34Z</time>
      </trkpt>
      <trkpt lat="44.02967" lon="6.41336">
        <ele>1488.17</ele>
        <time>2018-09-13T14:26:35Z</time>
      </trkpt>
      <trkpt lat="44.0297" lon="6.41344">
        <ele>1488.119</ele>
        <time>2018-09-13T14:26:36Z</time>
      </trkpt>
      <trkpt lat="44.02975" lon="6.4135">
        <ele>1488.109</ele>
        <time>2018-09-13T14:26:37Z</time>
      </trkpt>
      <trkpt lat="44.02979" lon="6.41357">
        <ele>1488.119</ele>
        <time>2018-09-13T14:26:38Z</time>
      </trkpt>
      <trkpt lat="44.02984" lon="6.41364">
        <ele>1488.108</ele>
        <time>2018-09-13T14:26:39Z</time>
      </trkpt>
      <trkpt lat="44.02989" lon="6.41369">
        <ele>1488.163</ele>
        <time>2018-09-13T14:26:40Z</time>
      </trkpt>
      <trkpt lat="44.02994" lon="6.41374">
        <ele>1489.889</ele>
        <time>2018-09-13T14:26:41Z</time>
      </trkpt>
      <trkpt lat="44.03" lon="6.41378">
        <ele>1489.876</ele>
        <time>2018-09-13T14:26:42Z</time>
      </trkpt>
      <trkpt lat="44.03005" lon="6.41383">
        <ele>1489.81</ele>
        <time>2018-09-13T14:26:43Z</time>
      </trkpt>
      <trkpt lat="44.03011" lon="6.41387">
        <ele>1489.861</ele>
        <time>2018-09-13T14:26:44Z</time>
      </trkpt>
      <trkpt lat="44.03017" lon="6.41392">
        <ele>1489.878</ele>
        <time>2018-09-13T14:26:45Z</time>
      </trkpt>
      <trkpt lat="44.03023" lon="6.41396">
        <ele>1492.736</ele>
        <time>2018-09-13T14:26:46Z</time>
      </trkpt>
      <trkpt lat="44.0303" lon="6.414">
        <ele>1492.777</ele>
        <time>2018-09-13T14:26:47Z</time>
      </trkpt>
      <trkpt lat="44.03036" lon="6.41403">
        <ele>1492.719</ele>
        <time>2018-09-13T14:26:48Z</time>
      </trkpt>
      <trkpt lat="44.03043" lon="6.41406">
        <ele>1492.709</ele>
        <time>2018-09-13T14:26:49Z</time>
      </trkpt>
      <trkpt lat="44.03049" lon="6.41408">
        <ele>1492.719</ele>
        <time>2018-09-13T14:26:50Z</time>
      </trkpt>
      <trkpt lat="44.03056" lon="6.41411">
        <ele>1496.608</ele>
        <time>2018-09-13T14:26:51Z</time>
      </trkpt>
      <trkpt lat="44.03063" lon="6.41415">
        <ele>1496.643</ele>
        <time>2018-09-13T14:26:52Z</time>
      </trkpt>
      <trkpt lat="44.03069" lon="6.41419">
        <ele>1496.649</ele>
        <time>2018-09-13T14:26:53Z</time>
      </trkpt>
      <trkpt lat="44.03076" lon="6.41423">
        <ele>1496.626</ele>
        <time>2018-09-13T14:26:54Z</time>
      </trkpt>
      <trkpt lat="44.03081" lon="6.41427">
        <ele>1496.63</ele>
        <time>2018-09-13T14:26:55Z</time>
      </trkpt>
      <trkpt lat="44.03086" lon="6.41431">
        <ele>1496.661</ele>
        <time>2018-09-13T14:26:56Z</time>
      </trkpt>
      <trkpt lat="44.03091" lon="6.41436">
        <ele>1500.488</ele>
        <time>2018-09-13T14:26:57Z</time>
      </trkpt>
      <trkpt lat="44.03095" lon="6.41442">
        <ele>1500.476</ele>
        <time>2018-09-13T14:26:58Z</time>
      </trkpt>
      <trkpt lat="44.03098" lon="6.41448">
        <ele>1500.497</ele>
        <time>2018-09-13T14:26:59Z</time>
      </trkpt>
      <trkpt lat="44.03103" lon="6.41455">
        <ele>1500.421</ele>
        <time>2018-09-13T14:27:00Z</time>
      </trkpt>
      <trkpt lat="44.03109" lon="6.41462">
        <ele>1500.441</ele>
        <time>2018-09-13T14:27:01Z</time>
      </trkpt>
      <trkpt lat="44.03115" lon="6.41466">
        <ele>1500.405</ele>
        <time>2018-09-13T14:27:02Z</time>
      </trkpt>
      <trkpt lat="44.03121" lon="6.41471">
        <ele>1500.408</ele>
        <time>2018-09-13T14:27:03Z</time>
      </trkpt>
      <trkpt lat="44.03127" lon="6.41476">
        <ele>1505.174</ele>
        <time>2018-09-13T14:27:04Z</time>
      </trkpt>
      <trkpt lat="44.03133" lon="6.4148">
        <ele>1505.14</ele>
        <time>2018-09-13T14:27:05Z</time>
      </trkpt>
      <trkpt lat="44.03139" lon="6.41485">
        <ele>1505.147</ele>
        <time>2018-09-13T14:27:06Z</time>
      </trkpt>
      <trkpt lat="44.03144" lon="6.41491">
        <ele>1505.111</ele>
        <time>2018-09-13T14:27:07Z</time>
      </trkpt>
      <trkpt lat="44.03149" lon="6.41496">
        <ele>1505.172</ele>
        <time>2018-09-13T14:27:08Z</time>
      </trkpt>
      <trkpt lat="44.03152" lon="6.41503">
        <ele>1505.189</ele>
        <time>2018-09-13T14:27:09Z</time>
      </trkpt>
      <trkpt lat="44.03156" lon="6.41509">
        <ele>1505.177</ele>
        <time>2018-09-13T14:27:10Z</time>
      </trkpt>
      <trkpt lat="44.03161" lon="6.41516">
        <ele>1505.168</ele>
        <time>2018-09-13T14:27:11Z</time>
      </trkpt>
      <trkpt lat="44.03166" lon="6.41522">
        <ele>1505.169</ele>
        <time>2018-09-13T14:27:12Z</time>
      </trkpt>
      <trkpt lat="44.03172" lon="6.41527">
        <ele>1511.104</ele>
        <time>2018-09-13T14:27:13Z</time>
      </trkpt>
      <trkpt lat="44.03177" lon="6.41533">
        <ele>1511.124</ele>
        <time>2018-09-13T14:27:14Z</time>
      </trkpt>
      <trkpt lat="44.03181" lon="6.41539">
        <ele>1511.108</ele>
        <time>2018-09-13T14:27:15Z</time>
      </trkpt>
      <trkpt lat="44.03187" lon="6.41545">
        <ele>1511.128</ele>
        <time>2018-09-13T14:27:16Z</time>
      </trkpt>
      <trkpt lat="44.03192" lon="6.41551">
        <ele>1511.134</ele>
        <time>2018-09-13T14:27:17Z</time>
      </trkpt>
      <trkpt lat="44.03197" lon="6.41558">
        <ele>1511.181</ele>
        <time>2018-09-13T14:27:18Z</time>
      </trkpt>
      <trkpt lat="44.03202" lon="6.41565">
        <ele>1511.135</ele>
        <time>2018-09-13T14:27:19Z</time>
      </trkpt>
      <trkpt lat="44.03206" lon="6.41572">
        <ele>1512.816</ele>
        <time>2018-09-13T14:27:20Z</time>
      </trkpt>
      <trkpt lat="44.0321" lon="6.4158">
        <ele>1512.833</ele>
        <time>2018-09-13T14:27:21Z</time>
      </trkpt>
      <trkpt lat="44.03214" lon="6.41587">
        <ele>1512.831</ele>
        <time>2018-09-13T14:27:22Z</time>
      </trkpt>
      <trkpt lat="44.03217" lon="6.41594">
        <ele>1512.822</ele>
        <time>2018-09-13T14:27:23Z</time>
      </trkpt>
      <trkpt lat="44.03219" lon="6.41602">
        <ele>1512.877</ele>
        <time>2018-09-13T14:27:24Z</time>
      </trkpt>
      <trkpt lat="44.03222" lon="6.4161">
        <ele>1512.861</ele>
        <time>2018-09-13T14:27:25Z</time>
      </trkpt>
      <trkpt lat="44.03224" lon="6.41619">
        <ele>1512.827</ele>
        <time>2018-09-13T14:27:26Z</time>
      </trkpt>
      <trkpt lat="44.03226" lon="6.41628">
        <ele>1513.008</ele>
        <time>2018-09-13T14:27:27Z</time>
      </trkpt>
      <trkpt lat="44.03226" lon="6.41638">
        <ele>1513.069</ele>
        <time>2018-09-13T14:27:28Z</time>
      </trkpt>
      <trkpt lat="44.03226" lon="6.41644">
        <ele>1513.075</ele>
        <time>2018-09-13T14:27:29Z</time>
      </trkpt>
      <trkpt lat="44.03224" lon="6.41653">
        <ele>1513.012</ele>
        <time>2018-09-13T14:27:30Z</time>
      </trkpt>
      <trkpt lat="44.03222" lon="6.41662">
        <ele>1513.086</ele>
        <time>2018-09-13T14:27:31Z</time>
      </trkpt>
      <trkpt lat="44.03222" lon="6.41671">
        <ele>1513.017</ele>
        <time>2018-09-13T14:27:32Z</time>
      </trkpt>
      <trkpt lat="44.03221" lon="6.4168">
        <ele>1513.074</ele>
        <time>2018-09-13T14:27:33Z</time>
      </trkpt>
      <trkpt lat="44.0322" lon="6.41689">
        <ele>1514.072</ele>
        <time>2018-09-13T14:27:34Z</time>
      </trkpt>
      <trkpt lat="44.0322" lon="6.41699">
        <ele>1514.063</ele>
        <time>2018-09-13T14:27:35Z</time>
      </trkpt>
      <trkpt lat="44.03219" lon="6.4171">
        <ele>1514.063</ele>
        <time>2018-09-13T14:27:36Z</time>
      </trkpt>
      <trkpt lat="44.03218" lon="6.4172">
        <ele>1514.044</ele>
        <time>2018-09-13T14:27:37Z</time>
      </trkpt>
      <trkpt lat="44.03217" lon="6.4173">
        <ele>1514.018</ele>
        <time>2018-09-13T14:27:38Z</time>
      </trkpt>
      <trkpt lat="44.03216" lon="6.41739">
        <ele>1515.208</ele>
        <time>2018-09-13T14:27:39Z</time>
      </trkpt>
      <trkpt lat="44.03215" lon="6.41748">
        <ele>1515.278</ele>
        <time>2018-09-13T14:27:40Z</time>
      </trkpt>
      <trkpt lat="44.03214" lon="6.41757">
        <ele>1515.234</ele>
        <time>2018-09-13T14:27:41Z</time>
      </trkpt>
      <trkpt lat="44.03212" lon="6.41766">
        <ele>1515.261</ele>
        <time>2018-09-13T14:27:42Z</time>
      </trkpt>
      <trkpt lat="44.03211" lon="6.41775">
        <ele>1515.255</ele>
        <time>2018-09-13T14:27:43Z</time>
      </trkpt>
      <trkpt lat="44.03212" lon="6.41785">
        <ele>1515.876</ele>
        <time>2018-09-13T14:27:44Z</time>
      </trkpt>
      <trkpt lat="44.03213" lon="6.41793">
        <ele>1515.823</ele>
        <time>2018-09-13T14:27:45Z</time>
      </trkpt>
      <trkpt lat="44.03214" lon="6.41802">
        <ele>1515.891</ele>
        <time>2018-09-13T14:27:46Z</time>
      </trkpt>
      <trkpt lat="44.03215" lon="6.4181">
        <ele>1516.042</ele>
        <time>2018-09-13T14:27:47Z</time>
      </trkpt>
      <trkpt lat="44.03215" lon="6.41819">
        <ele>1516.099</ele>
        <time>2018-09-13T14:27:48Z</time>
      </trkpt>
      <trkpt lat="44.03217" lon="6.4183">
        <ele>1516.007</ele>
        <time>2018-09-13T14:27:49Z</time>
      </trkpt>
      <trkpt lat="44.03221" lon="6.41839">
        <ele>1516.027</ele>
        <time>2018-09-13T14:27:50Z</time>
      </trkpt>
      <trkpt lat="44.03224" lon="6.41847">
        <ele>1516.008</ele>
        <time>2018-09-13T14:27:51Z</time>
      </trkpt>
      <trkpt lat="44.03226" lon="6.41854">
        <ele>1516.081</ele>
        <time>2018-09-13T14:27:52Z</time>
      </trkpt>
      <trkpt lat="44.03228" lon="6.41862">
        <ele>1516.497</ele>
        <time>2018-09-13T14:27:53Z</time>
      </trkpt>
      <trkpt lat="44.03226" lon="6.41869">
        <ele>1516.474</ele>
        <time>2018-09-13T14:27:54Z</time>
      </trkpt>
      <trkpt lat="44.03223" lon="6.41874">
        <ele>1516.458</ele>
        <time>2018-09-13T14:27:55Z</time>
      </trkpt>
      <trkpt lat="44.03218" lon="6.41877">
        <ele>1516.439</ele>
        <time>2018-09-13T14:27:56Z</time>
      </trkpt>
      <trkpt lat="44.03212" lon="6.41882">
        <ele>1516.436</ele>
        <time>2018-09-13T14:27:57Z</time>
      </trkpt>
      <trkpt lat="44.03206" lon="6.41886">
        <ele>1516.434</ele>
        <time>2018-09-13T14:27:58Z</time>
      </trkpt>
      <trkpt lat="44.032" lon="6.41891">
        <ele>1516.435</ele>
        <time>2018-09-13T14:27:59Z</time>
      </trkpt>
      <trkpt lat="44.03196" lon="6.41896">
        <ele>1516.443</ele>
        <time>2018-09-13T14:28:00Z</time>
      </trkpt>
      <trkpt lat="44.03193" lon="6.41902">
        <ele>1516.464</ele>
        <time>2018-09-13T14:28:01Z</time>
      </trkpt>
      <trkpt lat="44.03191" lon="6.41909">
        <ele>1518.31</ele>
        <time>2018-09-13T14:28:02Z</time>
      </trkpt>
      <trkpt lat="44.03188" lon="6.41916">
        <ele>1518.308</ele>
        <time>2018-09-13T14:28:03Z</time>
      </trkpt>
      <trkpt lat="44.03182" lon="6.41922">
        <ele>1518.366</ele>
        <time>2018-09-13T14:28:05Z</time>
      </trkpt>
      <trkpt lat="44.03177" lon="6.41919">
        <ele>1518.362</ele>
        <time>2018-09-13T14:28:06Z</time>
      </trkpt>
      <trkpt lat="44.03173" lon="6.41914">
        <ele>1518.389</ele>
        <time>2018-09-13T14:28:07Z</time>
      </trkpt>
      <trkpt lat="44.03169" lon="6.4191">
        <ele>1518.313</ele>
        <time>2018-09-13T14:28:08Z</time>
      </trkpt>
      <trkpt lat="44.03163" lon="6.41904">
        <ele>1518.614</ele>
        <time>2018-09-13T14:28:09Z</time>
      </trkpt>
      <trkpt lat="44.03158" lon="6.41899">
        <ele>1518.681</ele>
        <time>2018-09-13T14:28:10Z</time>
      </trkpt>
      <trkpt lat="44.03151" lon="6.41898">
        <ele>1518.689</ele>
        <time>2018-09-13T14:28:11Z</time>
      </trkpt>
      <trkpt lat="44.03144" lon="6.41895">
        <ele>1518.68</ele>
        <time>2018-09-13T14:28:12Z</time>
      </trkpt>
      <trkpt lat="44.03136" lon="6.41892">
        <ele>1518.678</ele>
        <time>2018-09-13T14:28:13Z</time>
      </trkpt>
      <trkpt lat="44.03129" lon="6.41889">
        <ele>1518.633</ele>
        <time>2018-09-13T14:28:14Z</time>
      </trkpt>
      <trkpt lat="44.03122" lon="6.41888">
        <ele>1518.626</ele>
        <time>2018-09-13T14:28:15Z</time>
      </trkpt>
      <trkpt lat="44.03114" lon="6.4189">
        <ele>1518.608</ele>
        <time>2018-09-13T14:28:16Z</time>
      </trkpt>
      <trkpt lat="44.03108" lon="6.41892">
        <ele>1520.119</ele>
        <time>2018-09-13T14:28:17Z</time>
      </trkpt>
      <trkpt lat="44.03102" lon="6.41896">
        <ele>1520.185</ele>
        <time>2018-09-13T14:28:18Z</time>
      </trkpt>
      <trkpt lat="44.03096" lon="6.419">
        <ele>1520.212</ele>
        <time>2018-09-13T14:28:19Z</time>
      </trkpt>
      <trkpt lat="44.03089" lon="6.41905">
        <ele>1520.226</ele>
        <time>2018-09-13T14:28:20Z</time>
      </trkpt>
      <trkpt lat="44.03082" lon="6.4191">
        <ele>1520.227</ele>
        <time>2018-09-13T14:28:21Z</time>
      </trkpt>
      <trkpt lat="44.03076" lon="6.41914">
        <ele>1520.274</ele>
        <time>2018-09-13T14:28:22Z</time>
      </trkpt>
      <trkpt lat="44.03069" lon="6.4192">
        <ele>1521.062</ele>
        <time>2018-09-13T14:28:23Z</time>
      </trkpt>
      <trkpt lat="44.03062" lon="6.41924">
        <ele>1521.023</ele>
        <time>2018-09-13T14:28:24Z</time>
      </trkpt>
      <trkpt lat="44.03056" lon="6.41929">
        <ele>1521.052</ele>
        <time>2018-09-13T14:28:25Z</time>
      </trkpt>
      <trkpt lat="44.03049" lon="6.41933">
        <ele>1521.053</ele>
        <time>2018-09-13T14:28:26Z</time>
      </trkpt>
      <trkpt lat="44.03042" lon="6.41938">
        <ele>1521.008</ele>
        <time>2018-09-13T14:28:27Z</time>
      </trkpt>
      <trkpt lat="44.03036" lon="6.41943">
        <ele>1521.008</ele>
        <time>2018-09-13T14:28:28Z</time>
      </trkpt>
      <trkpt lat="44.0303" lon="6.41947">
        <ele>1522.237</ele>
        <time>2018-09-13T14:28:29Z</time>
      </trkpt>
      <trkpt lat="44.03023" lon="6.41952">
        <ele>1522.253</ele>
        <time>2018-09-13T14:28:30Z</time>
      </trkpt>
      <trkpt lat="44.03018" lon="6.41961">
        <ele>1522.22</ele>
        <time>2018-09-13T14:28:31Z</time>
      </trkpt>
      <trkpt lat="44.03012" lon="6.41968">
        <ele>1522.244</ele>
        <time>2018-09-13T14:28:32Z</time>
      </trkpt>
      <trkpt lat="44.03007" lon="6.41976">
        <ele>1522.215</ele>
        <time>2018-09-13T14:28:33Z</time>
      </trkpt>
      <trkpt lat="44.03001" lon="6.41985">
        <ele>1522.892</ele>
        <time>2018-09-13T14:28:34Z</time>
      </trkpt>
      <trkpt lat="44.02996" lon="6.41993">
        <ele>1522.88</ele>
        <time>2018-09-13T14:28:35Z</time>
      </trkpt>
      <trkpt lat="44.02991" lon="6.42001">
        <ele>1522.881</ele>
        <time>2018-09-13T14:28:36Z</time>
      </trkpt>
      <trkpt lat="44.02985" lon="6.42008">
        <ele>1522.879</ele>
        <time>2018-09-13T14:28:37Z</time>
      </trkpt>
      <trkpt lat="44.0298" lon="6.42016">
        <ele>1522.805</ele>
        <time>2018-09-13T14:28:38Z</time>
      </trkpt>
      <trkpt lat="44.02975" lon="6.42024">
        <ele>1523.625</ele>
        <time>2018-09-13T14:28:39Z</time>
      </trkpt>
      <trkpt lat="44.0297" lon="6.42032">
        <ele>1523.608</ele>
        <time>2018-09-13T14:28:40Z</time>
      </trkpt>
      <trkpt lat="44.02965" lon="6.4204">
        <ele>1523.689</ele>
        <time>2018-09-13T14:28:41Z</time>
      </trkpt>
      <trkpt lat="44.02962" lon="6.4205">
        <ele>1523.695</ele>
        <time>2018-09-13T14:28:42Z</time>
      </trkpt>
      <trkpt lat="44.0296" lon="6.4206">
        <ele>1523.612</ele>
        <time>2018-09-13T14:28:43Z</time>
      </trkpt>
      <trkpt lat="44.02957" lon="6.42071">
        <ele>1523.676</ele>
        <time>2018-09-13T14:28:44Z</time>
      </trkpt>
      <trkpt lat="44.02955" lon="6.42081">
        <ele>1523.667</ele>
        <time>2018-09-13T14:28:45Z</time>
      </trkpt>
      <trkpt lat="44.02954" lon="6.42092">
        <ele>1523.634</ele>
        <time>2018-09-13T14:28:46Z</time>
      </trkpt>
      <trkpt lat="44.02952" lon="6.42102">
        <ele>1525.422</ele>
        <time>2018-09-13T14:28:47Z</time>
      </trkpt>
      <trkpt lat="44.02951" lon="6.42112">
        <ele>1525.443</ele>
        <time>2018-09-13T14:28:48Z</time>
      </trkpt>
      <trkpt lat="44.02951" lon="6.42122">
        <ele>1525.423</ele>
        <time>2018-09-13T14:28:49Z</time>
      </trkpt>
      <trkpt lat="44.02953" lon="6.42133">
        <ele>1525.483</ele>
        <time>2018-09-13T14:28:50Z</time>
      </trkpt>
      <trkpt lat="44.02954" lon="6.42143">
        <ele>1525.411</ele>
        <time>2018-09-13T14:28:51Z</time>
      </trkpt>
      <trkpt lat="44.02957" lon="6.42154">
        <ele>1525.408</ele>
        <time>2018-09-13T14:28:52Z</time>
      </trkpt>
      <trkpt lat="44.0296" lon="6.42164">
        <ele>1525.484</ele>
        <time>2018-09-13T14:28:53Z</time>
      </trkpt>
      <trkpt lat="44.02962" lon="6.42175">
        <ele>1525.41</ele>
        <time>2018-09-13T14:28:54Z</time>
      </trkpt>
      <trkpt lat="44.02965" lon="6.42185">
        <ele>1525.957</ele>
        <time>2018-09-13T14:28:55Z</time>
      </trkpt>
      <trkpt lat="44.02967" lon="6.42195">
        <ele>1525.951</ele>
        <time>2018-09-13T14:28:56Z</time>
      </trkpt>
      <trkpt lat="44.02968" lon="6.42205">
        <ele>1525.982</ele>
        <time>2018-09-13T14:28:57Z</time>
      </trkpt>
      <trkpt lat="44.02969" lon="6.42215">
        <ele>1525.939</ele>
        <time>2018-09-13T14:28:58Z</time>
      </trkpt>
      <trkpt lat="44.0297" lon="6.42226">
        <ele>1525.957</ele>
        <time>2018-09-13T14:28:59Z</time>
      </trkpt>
      <trkpt lat="44.02972" lon="6.42236">
        <ele>1528.898</ele>
        <time>2018-09-13T14:29:00Z</time>
      </trkpt>
      <trkpt lat="44.02974" lon="6.42246">
        <ele>1528.893</ele>
        <time>2018-09-13T14:29:01Z</time>
      </trkpt>
      <trkpt lat="44.02976" lon="6.42257">
        <ele>1528.865</ele>
        <time>2018-09-13T14:29:02Z</time>
      </trkpt>
      <trkpt lat="44.02977" lon="6.42268">
        <ele>1528.821</ele>
        <time>2018-09-13T14:29:03Z</time>
      </trkpt>
      <trkpt lat="44.02979" lon="6.42277">
        <ele>1528.808</ele>
        <time>2018-09-13T14:29:04Z</time>
      </trkpt>
      <trkpt lat="44.0298" lon="6.42287">
        <ele>1528.831</ele>
        <time>2018-09-13T14:29:05Z</time>
      </trkpt>
      <trkpt lat="44.0298" lon="6.42298">
        <ele>1530.587</ele>
        <time>2018-09-13T14:29:06Z</time>
      </trkpt>
      <trkpt lat="44.02981" lon="6.42308">
        <ele>1530.564</ele>
        <time>2018-09-13T14:29:07Z</time>
      </trkpt>
      <trkpt lat="44.0298" lon="6.42319">
        <ele>1530.528</ele>
        <time>2018-09-13T14:29:08Z</time>
      </trkpt>
      <trkpt lat="44.0298" lon="6.4233">
        <ele>1530.599</ele>
        <time>2018-09-13T14:29:09Z</time>
      </trkpt>
      <trkpt lat="44.02979" lon="6.4234">
        <ele>1530.516</ele>
        <time>2018-09-13T14:29:10Z</time>
      </trkpt>
      <trkpt lat="44.02977" lon="6.42351">
        <ele>1530.574</ele>
        <time>2018-09-13T14:29:11Z</time>
      </trkpt>
      <trkpt lat="44.02975" lon="6.4236">
        <ele>1530.555</ele>
        <time>2018-09-13T14:29:12Z</time>
      </trkpt>
      <trkpt lat="44.02972" lon="6.42369">
        <ele>1531.837</ele>
        <time>2018-09-13T14:29:13Z</time>
      </trkpt>
      <trkpt lat="44.0297" lon="6.42378">
        <ele>1531.849</ele>
        <time>2018-09-13T14:29:14Z</time>
      </trkpt>
      <trkpt lat="44.02969" lon="6.42387">
        <ele>1531.813</ele>
        <time>2018-09-13T14:29:15Z</time>
      </trkpt>
      <trkpt lat="44.02966" lon="6.42398">
        <ele>1531.808</ele>
        <time>2018-09-13T14:29:16Z</time>
      </trkpt>
      <trkpt lat="44.02964" lon="6.42408">
        <ele>1531.835</ele>
        <time>2018-09-13T14:29:17Z</time>
      </trkpt>
      <trkpt lat="44.02963" lon="6.42418">
        <ele>1531.831</ele>
        <time>2018-09-13T14:29:18Z</time>
      </trkpt>
      <trkpt lat="44.02961" lon="6.42428">
        <ele>1531.838</ele>
        <time>2018-09-13T14:29:19Z</time>
      </trkpt>
      <trkpt lat="44.02958" lon="6.42437">
        <ele>1531.872</ele>
        <time>2018-09-13T14:29:20Z</time>
      </trkpt>
      <trkpt lat="44.02954" lon="6.42446">
        <ele>1533.983</ele>
        <time>2018-09-13T14:29:21Z</time>
      </trkpt>
      <trkpt lat="44.02949" lon="6.42453">
        <ele>1533.99</ele>
        <time>2018-09-13T14:29:22Z</time>
      </trkpt>
      <trkpt lat="44.02945" lon="6.42462">
        <ele>1533.928</ele>
        <time>2018-09-13T14:29:23Z</time>
      </trkpt>
      <trkpt lat="44.02941" lon="6.42471">
        <ele>1533.989</ele>
        <time>2018-09-13T14:29:24Z</time>
      </trkpt>
      <trkpt lat="44.02936" lon="6.42479">
        <ele>1533.962</ele>
        <time>2018-09-13T14:29:25Z</time>
      </trkpt>
      <trkpt lat="44.02932" lon="6.42488">
        <ele>1533.983</ele>
        <time>2018-09-13T14:29:26Z</time>
      </trkpt>
      <trkpt lat="44.02929" lon="6.42495">
        <ele>1535.411</ele>
        <time>2018-09-13T14:29:27Z</time>
      </trkpt>
      <trkpt lat="44.02925" lon="6.42503">
        <ele>1535.408</ele>
        <time>2018-09-13T14:29:28Z</time>
      </trkpt>
      <trkpt lat="44.0292" lon="6.4251">
        <ele>1535.438</ele>
        <time>2018-09-13T14:29:29Z</time>
      </trkpt>
      <trkpt lat="44.02917" lon="6.42516">
        <ele>1535.484</ele>
        <time>2018-09-13T14:29:30Z</time>
      </trkpt>
      <trkpt lat="44.02913" lon="6.42523">
        <ele>1535.491</ele>
        <time>2018-09-13T14:29:31Z</time>
      </trkpt>
      <trkpt lat="44.02908" lon="6.4253">
        <ele>1536.835</ele>
        <time>2018-09-13T14:29:32Z</time>
      </trkpt>
      <trkpt lat="44.02904" lon="6.42537">
        <ele>1536.866</ele>
        <time>2018-09-13T14:29:33Z</time>
      </trkpt>
      <trkpt lat="44.02898" lon="6.42543">
        <ele>1536.893</ele>
        <time>2018-09-13T14:29:34Z</time>
      </trkpt>
      <trkpt lat="44.02892" lon="6.42549">
        <ele>1536.821</ele>
        <time>2018-09-13T14:29:35Z</time>
      </trkpt>
      <trkpt lat="44.02887" lon="6.42555">
        <ele>1536.862</ele>
        <time>2018-09-13T14:29:36Z</time>
      </trkpt>
      <trkpt lat="44.02883" lon="6.42562">
        <ele>1537.793</ele>
        <time>2018-09-13T14:29:37Z</time>
      </trkpt>
      <trkpt lat="44.02877" lon="6.42569">
        <ele>1537.765</ele>
        <time>2018-09-13T14:29:38Z</time>
      </trkpt>
      <trkpt lat="44.02871" lon="6.42575">
        <ele>1537.721</ele>
        <time>2018-09-13T14:29:39Z</time>
      </trkpt>
      <trkpt lat="44.02866" lon="6.42583">
        <ele>1537.708</ele>
        <time>2018-09-13T14:29:40Z</time>
      </trkpt>
      <trkpt lat="44.02861" lon="6.42589">
        <ele>1537.731</ele>
        <time>2018-09-13T14:29:41Z</time>
      </trkpt>
      <trkpt lat="44.02855" lon="6.42596">
        <ele>1537.717</ele>
        <time>2018-09-13T14:29:42Z</time>
      </trkpt>
      <trkpt lat="44.02849" lon="6.42603">
        <ele>1539.454</ele>
        <time>2018-09-13T14:29:43Z</time>
      </trkpt>
      <trkpt lat="44.02843" lon="6.4261">
        <ele>1539.478</ele>
        <time>2018-09-13T14:29:44Z</time>
      </trkpt>
      <trkpt lat="44.02838" lon="6.42617">
        <ele>1539.449</ele>
        <time>2018-09-13T14:29:45Z</time>
      </trkpt>
      <trkpt lat="44.02832" lon="6.42625">
        <ele>1539.436</ele>
        <time>2018-09-13T14:29:46Z</time>
      </trkpt>
      <trkpt lat="44.02826" lon="6.42632">
        <ele>1539.464</ele>
        <time>2018-09-13T14:29:47Z</time>
      </trkpt>
      <trkpt lat="44.0282" lon="6.42639">
        <ele>1539.495</ele>
        <time>2018-09-13T14:29:48Z</time>
      </trkpt>
      <trkpt lat="44.02815" lon="6.42646">
        <ele>1540.971</ele>
        <time>2018-09-13T14:29:49Z</time>
      </trkpt>
      <trkpt lat="44.02809" lon="6.42655">
        <ele>1540.941</ele>
        <time>2018-09-13T14:29:50Z</time>
      </trkpt>
      <trkpt lat="44.02806" lon="6.42664">
        <ele>1540.915</ele>
        <time>2018-09-13T14:29:51Z</time>
      </trkpt>
      <trkpt lat="44.02802" lon="6.42672">
        <ele>1540.908</ele>
        <time>2018-09-13T14:29:52Z</time>
      </trkpt>
      <trkpt lat="44.028" lon="6.4268">
        <ele>1540.969</ele>
        <time>2018-09-13T14:29:53Z</time>
      </trkpt>
      <trkpt lat="44.02798" lon="6.42689">
        <ele>1540.985</ele>
        <time>2018-09-13T14:29:54Z</time>
      </trkpt>
      <trkpt lat="44.02796" lon="6.42697">
        <ele>1540.932</ele>
        <time>2018-09-13T14:29:55Z</time>
      </trkpt>
      <trkpt lat="44.02795" lon="6.42707">
        <ele>1540.926</ele>
        <time>2018-09-13T14:29:56Z</time>
      </trkpt>
      <trkpt lat="44.02794" lon="6.42715">
        <ele>1540.937</ele>
        <time>2018-09-13T14:29:57Z</time>
      </trkpt>
      <trkpt lat="44.02794" lon="6.42725">
        <ele>1540.984</ele>
        <time>2018-09-13T14:29:58Z</time>
      </trkpt>
      <trkpt lat="44.02794" lon="6.42733">
        <ele>1542.872</ele>
        <time>2018-09-13T14:29:59Z</time>
      </trkpt>
      <trkpt lat="44.02794" lon="6.42742">
        <ele>1542.833</ele>
        <time>2018-09-13T14:30:00Z</time>
      </trkpt>
      <trkpt lat="44.02794" lon="6.42751">
        <ele>1542.853</ele>
        <time>2018-09-13T14:30:01Z</time>
      </trkpt>
      <trkpt lat="44.02794" lon="6.42761">
        <ele>1542.804</ele>
        <time>2018-09-13T14:30:02Z</time>
      </trkpt>
      <trkpt lat="44.02795" lon="6.4277">
        <ele>1542.814</ele>
        <time>2018-09-13T14:30:03Z</time>
      </trkpt>
      <trkpt lat="44.02794" lon="6.42779">
        <ele>1542.808</ele>
        <time>2018-09-13T14:30:04Z</time>
      </trkpt>
      <trkpt lat="44.02794" lon="6.42788">
        <ele>1544.257</ele>
        <time>2018-09-13T14:30:05Z</time>
      </trkpt>
      <trkpt lat="44.02794" lon="6.42797">
        <ele>1544.293</ele>
        <time>2018-09-13T14:30:06Z</time>
      </trkpt>
      <trkpt lat="44.02794" lon="6.42808">
        <ele>1544.22</ele>
        <time>2018-09-13T14:30:07Z</time>
      </trkpt>
      <trkpt lat="44.02794" lon="6.42819">
        <ele>1544.274</ele>
        <time>2018-09-13T14:30:08Z</time>
      </trkpt>
      <trkpt lat="44.02793" lon="6.42829">
        <ele>1544.295</ele>
        <time>2018-09-13T14:30:09Z</time>
      </trkpt>
      <trkpt lat="44.02794" lon="6.42839">
        <ele>1545.742</ele>
        <time>2018-09-13T14:30:10Z</time>
      </trkpt>
      <trkpt lat="44.02794" lon="6.4285">
        <ele>1545.78</ele>
        <time>2018-09-13T14:30:11Z</time>
      </trkpt>
      <trkpt lat="44.02794" lon="6.4286">
        <ele>1545.781</ele>
        <time>2018-09-13T14:30:12Z</time>
      </trkpt>
      <trkpt lat="44.02794" lon="6.42869">
        <ele>1545.782</ele>
        <time>2018-09-13T14:30:13Z</time>
      </trkpt>
      <trkpt lat="44.02795" lon="6.42878">
        <ele>1545.743</ele>
        <time>2018-09-13T14:30:14Z</time>
      </trkpt>
      <trkpt lat="44.02796" lon="6.42889">
        <ele>1546.817</ele>
        <time>2018-09-13T14:30:15Z</time>
      </trkpt>
      <trkpt lat="44.02796" lon="6.429">
        <ele>1546.808</ele>
        <time>2018-09-13T14:30:16Z</time>
      </trkpt>
      <trkpt lat="44.02796" lon="6.42911">
        <ele>1546.89</ele>
        <time>2018-09-13T14:30:17Z</time>
      </trkpt>
      <trkpt lat="44.02797" lon="6.42922">
        <ele>1546.896</ele>
        <time>2018-09-13T14:30:18Z</time>
      </trkpt>
      <trkpt lat="44.02799" lon="6.42933">
        <ele>1546.863</ele>
        <time>2018-09-13T14:30:19Z</time>
      </trkpt>
      <trkpt lat="44.02799" lon="6.42945">
        <ele>1546.857</ele>
        <time>2018-09-13T14:30:20Z</time>
      </trkpt>
      <trkpt lat="44.02799" lon="6.42955">
        <ele>1547.528</ele>
        <time>2018-09-13T14:30:21Z</time>
      </trkpt>
      <trkpt lat="44.02801" lon="6.42966">
        <ele>1547.545</ele>
        <time>2018-09-13T14:30:22Z</time>
      </trkpt>
      <trkpt lat="44.02803" lon="6.42976">
        <ele>1547.583</ele>
        <time>2018-09-13T14:30:23Z</time>
      </trkpt>
      <trkpt lat="44.02805" lon="6.42986">
        <ele>1547.564</ele>
        <time>2018-09-13T14:30:24Z</time>
      </trkpt>
      <trkpt lat="44.02806" lon="6.42996">
        <ele>1547.526</ele>
        <time>2018-09-13T14:30:25Z</time>
      </trkpt>
      <trkpt lat="44.02805" lon="6.43005">
        <ele>1548.947</ele>
        <time>2018-09-13T14:30:26Z</time>
      </trkpt>
      <trkpt lat="44.02802" lon="6.43016">
        <ele>1548.911</ele>
        <time>2018-09-13T14:30:27Z</time>
      </trkpt>
      <trkpt lat="44.028" lon="6.43026">
        <ele>1549.408</ele>
        <time>2018-09-13T14:30:28Z</time>
      </trkpt>
      <trkpt lat="44.02798" lon="6.43037">
        <ele>1549.474</ele>
        <time>2018-09-13T14:30:29Z</time>
      </trkpt>
      <trkpt lat="44.02796" lon="6.43047">
        <ele>1549.46</ele>
        <time>2018-09-13T14:30:30Z</time>
      </trkpt>
      <trkpt lat="44.02796" lon="6.43058">
        <ele>1549.447</ele>
        <time>2018-09-13T14:30:31Z</time>
      </trkpt>
      <trkpt lat="44.02796" lon="6.43068">
        <ele>1549.491</ele>
        <time>2018-09-13T14:30:32Z</time>
      </trkpt>
      <trkpt lat="44.02796" lon="6.43078">
        <ele>1550.362</ele>
        <time>2018-09-13T14:30:33Z</time>
      </trkpt>
      <trkpt lat="44.02797" lon="6.43087">
        <ele>1550.349</ele>
        <time>2018-09-13T14:30:34Z</time>
      </trkpt>
      <trkpt lat="44.02797" lon="6.43097">
        <ele>1550.347</ele>
        <time>2018-09-13T14:30:35Z</time>
      </trkpt>
      <trkpt lat="44.02796" lon="6.43106">
        <ele>1551.988</ele>
        <time>2018-09-13T14:30:36Z</time>
      </trkpt>
      <trkpt lat="44.02797" lon="6.43114">
        <ele>1551.959</ele>
        <time>2018-09-13T14:30:37Z</time>
      </trkpt>
      <trkpt lat="44.02797" lon="6.43122">
        <ele>1551.903</ele>
        <time>2018-09-13T14:30:38Z</time>
      </trkpt>
      <trkpt lat="44.02798" lon="6.43129">
        <ele>1551.923</ele>
        <time>2018-09-13T14:30:39Z</time>
      </trkpt>
      <trkpt lat="44.02799" lon="6.43141">
        <ele>1552.708</ele>
        <time>2018-09-13T14:30:41Z</time>
      </trkpt>
      <trkpt lat="44.028" lon="6.43151">
        <ele>1552.737</ele>
        <time>2018-09-13T14:30:43Z</time>
      </trkpt>
      <trkpt lat="44.02799" lon="6.43159">
        <ele>1551.733</ele>
        <time>2018-09-13T14:31:04Z</time>
      </trkpt>
      <trkpt lat="44.02805" lon="6.43161">
        <ele>1551.95</ele>
        <time>2018-09-13T14:34:44Z</time>
      </trkpt>
      <trkpt lat="44.02812" lon="6.43162">
        <ele>1551.984</ele>
        <time>2018-09-13T14:34:46Z</time>
      </trkpt>
      <trkpt lat="44.0282" lon="6.43162">
        <ele>1551.925</ele>
        <time>2018-09-13T14:34:48Z</time>
      </trkpt>
      <trkpt lat="44.02829" lon="6.43162">
        <ele>1551.912</ele>
        <time>2018-09-13T14:34:50Z</time>
      </trkpt>
      <trkpt lat="44.02834" lon="6.43162">
        <ele>1551.98</ele>
        <time>2018-09-13T14:34:51Z</time>
      </trkpt>
      <trkpt lat="44.02839" lon="6.43162">
        <ele>1550.841</ele>
        <time>2018-09-13T14:34:52Z</time>
      </trkpt>
      <trkpt lat="44.02844" lon="6.43161">
        <ele>1550.889</ele>
        <time>2018-09-13T14:34:53Z</time>
      </trkpt>
      <trkpt lat="44.02849" lon="6.43161">
        <ele>1550.806</ele>
        <time>2018-09-13T14:34:54Z</time>
      </trkpt>
      <trkpt lat="44.02856" lon="6.4316">
        <ele>1550.826</ele>
        <time>2018-09-13T14:34:55Z</time>
      </trkpt>
      <trkpt lat="44.02861" lon="6.43159">
        <ele>1550.808</ele>
        <time>2018-09-13T14:34:56Z</time>
      </trkpt>
      <trkpt lat="44.02866" lon="6.43161">
        <ele>1550.86</ele>
        <time>2018-09-13T14:34:58Z</time>
      </trkpt>
      <trkpt lat="44.02872" lon="6.43165">
        <ele>1548.336</ele>
        <time>2018-09-13T14:35:05Z</time>
      </trkpt>
      <trkpt lat="44.02881" lon="6.43169">
        <ele>1548.383</ele>
        <time>2018-09-13T14:35:07Z</time>
      </trkpt>
      <trkpt lat="44.02885" lon="6.43173">
        <ele>1548.357</ele>
        <time>2018-09-13T14:35:08Z</time>
      </trkpt>
      <trkpt lat="44.02889" lon="6.43178">
        <ele>1548.658</ele>
        <time>2018-09-13T14:35:09Z</time>
      </trkpt>
      <trkpt lat="44.02894" lon="6.43183">
        <ele>1548.685</ele>
        <time>2018-09-13T14:35:10Z</time>
      </trkpt>
      <trkpt lat="44.02898" lon="6.43188">
        <ele>1548.693</ele>
        <time>2018-09-13T14:35:11Z</time>
      </trkpt>
      <trkpt lat="44.02906" lon="6.43195">
        <ele>1548.694</ele>
        <time>2018-09-13T14:35:13Z</time>
      </trkpt>
      <trkpt lat="44.02912" lon="6.43201">
        <ele>1548.649</ele>
        <time>2018-09-13T14:35:15Z</time>
      </trkpt>
      <trkpt lat="44.02918" lon="6.43206">
        <ele>1548.302</ele>
        <time>2018-09-13T14:35:17Z</time>
      </trkpt>
      <trkpt lat="44.02924" lon="6.4321">
        <ele>1548.322</ele>
        <time>2018-09-13T14:35:19Z</time>
      </trkpt>
      <trkpt lat="44.02932" lon="6.43216">
        <ele>1548.308</ele>
        <time>2018-09-13T14:35:21Z</time>
      </trkpt>
      <trkpt lat="44.02937" lon="6.43219">
        <ele>1548.356</ele>
        <time>2018-09-13T14:35:22Z</time>
      </trkpt>
      <trkpt lat="44.02943" lon="6.43222">
        <ele>1548.072</ele>
        <time>2018-09-13T14:35:23Z</time>
      </trkpt>
      <trkpt lat="44.02949" lon="6.43225">
        <ele>1548.059</ele>
        <time>2018-09-13T14:35:24Z</time>
      </trkpt>
      <trkpt lat="44.02955" lon="6.43229">
        <ele>1548.043</ele>
        <time>2018-09-13T14:35:25Z</time>
      </trkpt>
      <trkpt lat="44.02961" lon="6.43234">
        <ele>1548.024</ele>
        <time>2018-09-13T14:35:26Z</time>
      </trkpt>
      <trkpt lat="44.02967" lon="6.43238">
        <ele>1548.031</ele>
        <time>2018-09-13T14:35:27Z</time>
      </trkpt>
      <trkpt lat="44.02973" lon="6.43244">
        <ele>1548.089</ele>
        <time>2018-09-13T14:35:28Z</time>
      </trkpt>
      <trkpt lat="44.0298" lon="6.43249">
        <ele>1548.04</ele>
        <time>2018-09-13T14:35:29Z</time>
      </trkpt>
      <trkpt lat="44.02986" lon="6.43253">
        <ele>1548.935</ele>
        <time>2018-09-13T14:35:30Z</time>
      </trkpt>
      <trkpt lat="44.02992" lon="6.43256">
        <ele>1548.986</ele>
        <time>2018-09-13T14:35:31Z</time>
      </trkpt>
      <trkpt lat="44.02998" lon="6.4326">
        <ele>1548.914</ele>
        <time>2018-09-13T14:35:32Z</time>
      </trkpt>
      <trkpt lat="44.03004" lon="6.43264">
        <ele>1548.908</ele>
        <time>2018-09-13T14:35:33Z</time>
      </trkpt>
      <trkpt lat="44.0301" lon="6.43269">
        <ele>1548.965</ele>
        <time>2018-09-13T14:35:34Z</time>
      </trkpt>
      <trkpt lat="44.03016" lon="6.43275">
        <ele>1548.951</ele>
        <time>2018-09-13T14:35:35Z</time>
      </trkpt>
      <trkpt lat="44.03021" lon="6.4328">
        <ele>1548.948</ele>
        <time>2018-09-13T14:35:36Z</time>
      </trkpt>
      <trkpt lat="44.03027" lon="6.43286">
        <ele>1548.922</ele>
        <time>2018-09-13T14:35:37Z</time>
      </trkpt>
      <trkpt lat="44.03032" lon="6.43291">
        <ele>1548.973</ele>
        <time>2018-09-13T14:35:38Z</time>
      </trkpt>
      <trkpt lat="44.03037" lon="6.43298">
        <ele>1548.91</ele>
        <time>2018-09-13T14:35:39Z</time>
      </trkpt>
      <trkpt lat="44.03041" lon="6.43303">
        <ele>1548.928</ele>
        <time>2018-09-13T14:35:40Z</time>
      </trkpt>
      <trkpt lat="44.03047" lon="6.43306">
        <ele>1548.489</ele>
        <time>2018-09-13T14:35:41Z</time>
      </trkpt>
      <trkpt lat="44.03052" lon="6.43308">
        <ele>1548.266</ele>
        <time>2018-09-13T14:35:42Z</time>
      </trkpt>
      <trkpt lat="44.03058" lon="6.43312">
        <ele>1548.229</ele>
        <time>2018-09-13T14:35:43Z</time>
      </trkpt>
      <trkpt lat="44.03065" lon="6.43313">
        <ele>1548.221</ele>
        <time>2018-09-13T14:35:44Z</time>
      </trkpt>
      <trkpt lat="44.03072" lon="6.43316">
        <ele>1548.208</ele>
        <time>2018-09-13T14:35:45Z</time>
      </trkpt>
      <trkpt lat="44.03078" lon="6.43321">
        <ele>1548.278</ele>
        <time>2018-09-13T14:35:46Z</time>
      </trkpt>
      <trkpt lat="44.03084" lon="6.43327">
        <ele>1548.254</ele>
        <time>2018-09-13T14:35:47Z</time>
      </trkpt>
      <trkpt lat="44.03089" lon="6.43332">
        <ele>1548.281</ele>
        <time>2018-09-13T14:35:48Z</time>
      </trkpt>
      <trkpt lat="44.03095" lon="6.43334">
        <ele>1548.245</ele>
        <time>2018-09-13T14:35:49Z</time>
      </trkpt>
      <trkpt lat="44.03101" lon="6.43339">
        <ele>1548.276</ele>
        <time>2018-09-13T14:35:50Z</time>
      </trkpt>
      <trkpt lat="44.03107" lon="6.43343">
        <ele>1548.223</ele>
        <time>2018-09-13T14:35:51Z</time>
      </trkpt>
      <trkpt lat="44.03114" lon="6.43346">
        <ele>1548.281</ele>
        <time>2018-09-13T14:35:52Z</time>
      </trkpt>
      <trkpt lat="44.03119" lon="6.43347">
        <ele>1542.912</ele>
        <time>2018-09-13T14:35:53Z</time>
      </trkpt>
      <trkpt lat="44.03125" lon="6.4335">
        <ele>1542.929</ele>
        <time>2018-09-13T14:35:54Z</time>
      </trkpt>
      <trkpt lat="44.03131" lon="6.43354">
        <ele>1542.9</ele>
        <time>2018-09-13T14:35:55Z</time>
      </trkpt>
      <trkpt lat="44.03136" lon="6.43362">
        <ele>1542.92</ele>
        <time>2018-09-13T14:35:56Z</time>
      </trkpt>
      <trkpt lat="44.03141" lon="6.43366">
        <ele>1542.908</ele>
        <time>2018-09-13T14:35:57Z</time>
      </trkpt>
      <trkpt lat="44.03145" lon="6.43375">
        <ele>1542.974</ele>
        <time>2018-09-13T14:35:58Z</time>
      </trkpt>
      <trkpt lat="44.03149" lon="6.43382">
        <ele>1542.92</ele>
        <time>2018-09-13T14:35:59Z</time>
      </trkpt>
      <trkpt lat="44.03154" lon="6.43389">
        <ele>1537.497</ele>
        <time>2018-09-13T14:36:00Z</time>
      </trkpt>
      <trkpt lat="44.03158" lon="6.43395">
        <ele>1537.481</ele>
        <time>2018-09-13T14:36:01Z</time>
      </trkpt>
      <trkpt lat="44.03162" lon="6.43402">
        <ele>1537.452</ele>
        <time>2018-09-13T14:36:02Z</time>
      </trkpt>
      <trkpt lat="44.03166" lon="6.43407">
        <ele>1537.429</ele>
        <time>2018-09-13T14:36:03Z</time>
      </trkpt>
      <trkpt lat="44.0317" lon="6.43411">
        <ele>1537.447</ele>
        <time>2018-09-13T14:36:04Z</time>
      </trkpt>
      <trkpt lat="44.03175" lon="6.43417">
        <ele>1537.438</ele>
        <time>2018-09-13T14:36:05Z</time>
      </trkpt>
      <trkpt lat="44.0318" lon="6.43422">
        <ele>1531.566</ele>
        <time>2018-09-13T14:36:06Z</time>
      </trkpt>
      <trkpt lat="44.03185" lon="6.43428">
        <ele>1531.529</ele>
        <time>2018-09-13T14:36:07Z</time>
      </trkpt>
      <trkpt lat="44.03192" lon="6.43432">
        <ele>1530.421</ele>
        <time>2018-09-13T14:36:08Z</time>
      </trkpt>
      <trkpt lat="44.03197" lon="6.43436">
        <ele>1530.408</ele>
        <time>2018-09-13T14:36:09Z</time>
      </trkpt>
      <trkpt lat="44.03202" lon="6.43442">
        <ele>1530.418</ele>
        <time>2018-09-13T14:36:10Z</time>
      </trkpt>
      <trkpt lat="44.03207" lon="6.43449">
        <ele>1530.474</ele>
        <time>2018-09-13T14:36:11Z</time>
      </trkpt>
      <trkpt lat="44.03212" lon="6.4345">
        <ele>1530.491</ele>
        <time>2018-09-13T14:36:12Z</time>
      </trkpt>
      <trkpt lat="44.03219" lon="6.43455">
        <ele>1530.445</ele>
        <time>2018-09-13T14:36:15Z</time>
      </trkpt>
      <trkpt lat="44.03224" lon="6.43456">
        <ele>1522.396</ele>
        <time>2018-09-13T14:36:17Z</time>
      </trkpt>
      <trkpt lat="44.03231" lon="6.43453">
        <ele>1522.373</ele>
        <time>2018-09-13T14:36:19Z</time>
      </trkpt>
      <trkpt lat="44.03236" lon="6.43452">
        <ele>1522.371</ele>
        <time>2018-09-13T14:36:20Z</time>
      </trkpt>
      <trkpt lat="44.03244" lon="6.43448">
        <ele>1522.382</ele>
        <time>2018-09-13T14:36:22Z</time>
      </trkpt>
      <trkpt lat="44.03249" lon="6.43444">
        <ele>1522.327</ele>
        <time>2018-09-13T14:36:23Z</time>
      </trkpt>
      <trkpt lat="44.03255" lon="6.43444">
        <ele>1522.368</ele>
        <time>2018-09-13T14:36:24Z</time>
      </trkpt>
      <trkpt lat="44.03261" lon="6.43443">
        <ele>1522.314</ele>
        <time>2018-09-13T14:36:25Z</time>
      </trkpt>
      <trkpt lat="44.03267" lon="6.4344">
        <ele>1522.308</ele>
        <time>2018-09-13T14:36:26Z</time>
      </trkpt>
      <trkpt lat="44.03272" lon="6.43438">
        <ele>1522.314</ele>
        <time>2018-09-13T14:36:27Z</time>
      </trkpt>
      <trkpt lat="44.03279" lon="6.43434">
        <ele>1522.35</ele>
        <time>2018-09-13T14:36:28Z</time>
      </trkpt>
      <trkpt lat="44.03285" lon="6.43431">
        <ele>1516.327</ele>
        <time>2018-09-13T14:36:29Z</time>
      </trkpt>
      <trkpt lat="44.0329" lon="6.4343">
        <ele>1516.311</ele>
        <time>2018-09-13T14:36:30Z</time>
      </trkpt>
      <trkpt lat="44.03297" lon="6.4343">
        <ele>1516.372</ele>
        <time>2018-09-13T14:36:31Z</time>
      </trkpt>
      <trkpt lat="44.03304" lon="6.43431">
        <ele>1510.979</ele>
        <time>2018-09-13T14:36:32Z</time>
      </trkpt>
      <trkpt lat="44.0331" lon="6.43434">
        <ele>1510.917</ele>
        <time>2018-09-13T14:36:33Z</time>
      </trkpt>
      <trkpt lat="44.03317" lon="6.43437">
        <ele>1510.958</ele>
        <time>2018-09-13T14:36:34Z</time>
      </trkpt>
      <trkpt lat="44.03323" lon="6.43442">
        <ele>1510.923</ele>
        <time>2018-09-13T14:36:35Z</time>
      </trkpt>
      <trkpt lat="44.03328" lon="6.43447">
        <ele>1510.983</ele>
        <time>2018-09-13T14:36:36Z</time>
      </trkpt>
      <trkpt lat="44.03331" lon="6.43454">
        <ele>1510.911</ele>
        <time>2018-09-13T14:36:37Z</time>
      </trkpt>
      <trkpt lat="44.03335" lon="6.43462">
        <ele>1510.908</ele>
        <time>2018-09-13T14:36:38Z</time>
      </trkpt>
      <trkpt lat="44.03339" lon="6.43471">
        <ele>1510.944</ele>
        <time>2018-09-13T14:36:39Z</time>
      </trkpt>
      <trkpt lat="44.03342" lon="6.4348">
        <ele>1510.99</ele>
        <time>2018-09-13T14:36:40Z</time>
      </trkpt>
      <trkpt lat="44.03342" lon="6.4349">
        <ele>1510.977</ele>
        <time>2018-09-13T14:36:41Z</time>
      </trkpt>
      <trkpt lat="44.03344" lon="6.43498">
        <ele>1510.941</ele>
        <time>2018-09-13T14:36:42Z</time>
      </trkpt>
      <trkpt lat="44.03346" lon="6.43506">
        <ele>1510.922</ele>
        <time>2018-09-13T14:36:43Z</time>
      </trkpt>
      <trkpt lat="44.03348" lon="6.43514">
        <ele>1510.999</ele>
        <time>2018-09-13T14:36:44Z</time>
      </trkpt>
      <trkpt lat="44.0335" lon="6.43521">
        <ele>1510.947</ele>
        <time>2018-09-13T14:36:45Z</time>
      </trkpt>
      <trkpt lat="44.03352" lon="6.43529">
        <ele>1510.968</ele>
        <time>2018-09-13T14:36:46Z</time>
      </trkpt>
      <trkpt lat="44.03356" lon="6.43535">
        <ele>1510.925</ele>
        <time>2018-09-13T14:36:47Z</time>
      </trkpt>
      <trkpt lat="44.03362" lon="6.4354">
        <ele>1510.926</ele>
        <time>2018-09-13T14:36:48Z</time>
      </trkpt>
      <trkpt lat="44.03367" lon="6.43544">
        <ele>1510.908</ele>
        <time>2018-09-13T14:36:49Z</time>
      </trkpt>
      <trkpt lat="44.03374" lon="6.43548">
        <ele>1510.908</ele>
        <time>2018-09-13T14:36:50Z</time>
      </trkpt>
      <trkpt lat="44.03379" lon="6.43551">
        <ele>1510.984</ele>
        <time>2018-09-13T14:36:51Z</time>
      </trkpt>
      <trkpt lat="44.03386" lon="6.43553">
        <ele>1510.95</ele>
        <time>2018-09-13T14:36:52Z</time>
      </trkpt>
      <trkpt lat="44.03392" lon="6.43554">
        <ele>1510.997</ele>
        <time>2018-09-13T14:36:53Z</time>
      </trkpt>
      <trkpt lat="44.03398" lon="6.43554">
        <ele>1510.961</ele>
        <time>2018-09-13T14:36:54Z</time>
      </trkpt>
      <trkpt lat="44.03406" lon="6.43556">
        <ele>1510.922</ele>
        <time>2018-09-13T14:36:55Z</time>
      </trkpt>
      <trkpt lat="44.03413" lon="6.4356">
        <ele>1510.949</ele>
        <time>2018-09-13T14:36:56Z</time>
      </trkpt>
      <trkpt lat="44.0342" lon="6.43562">
        <ele>1510.997</ele>
        <time>2018-09-13T14:36:57Z</time>
      </trkpt>
      <trkpt lat="44.03426" lon="6.43565">
        <ele>1510.958</ele>
        <time>2018-09-13T14:36:58Z</time>
      </trkpt>
      <trkpt lat="44.03432" lon="6.43571">
        <ele>1510.968</ele>
        <time>2018-09-13T14:36:59Z</time>
      </trkpt>
      <trkpt lat="44.03438" lon="6.43575">
        <ele>1502.442</ele>
        <time>2018-09-13T14:37:00Z</time>
      </trkpt>
      <trkpt lat="44.03445" lon="6.43577">
        <ele>1501.826</ele>
        <time>2018-09-13T14:37:01Z</time>
      </trkpt>
      <trkpt lat="44.03453" lon="6.43579">
        <ele>1501.808</ele>
        <time>2018-09-13T14:37:02Z</time>
      </trkpt>
      <trkpt lat="44.03459" lon="6.43579">
        <ele>1501.878</ele>
        <time>2018-09-13T14:37:03Z</time>
      </trkpt>
      <trkpt lat="44.03466" lon="6.43578">
        <ele>1501.834</ele>
        <time>2018-09-13T14:37:04Z</time>
      </trkpt>
      <trkpt lat="44.03472" lon="6.43577">
        <ele>1501.881</ele>
        <time>2018-09-13T14:37:05Z</time>
      </trkpt>
      <trkpt lat="44.03479" lon="6.43579">
        <ele>1501.895</ele>
        <time>2018-09-13T14:37:06Z</time>
      </trkpt>
      <trkpt lat="44.03486" lon="6.43582">
        <ele>1501.866</ele>
        <time>2018-09-13T14:37:07Z</time>
      </trkpt>
      <trkpt lat="44.0349" lon="6.43587">
        <ele>1501.873</ele>
        <time>2018-09-13T14:37:08Z</time>
      </trkpt>
      <trkpt lat="44.03499" lon="6.43592">
        <ele>1501.881</ele>
        <time>2018-09-13T14:37:09Z</time>
      </trkpt>
      <trkpt lat="44.03507" lon="6.43595">
        <ele>1501.822</ele>
        <time>2018-09-13T14:37:10Z</time>
      </trkpt>
      <trkpt lat="44.03514" lon="6.43597">
        <ele>1501.841</ele>
        <time>2018-09-13T14:37:11Z</time>
      </trkpt>
      <trkpt lat="44.03522" lon="6.436">
        <ele>1495.381</ele>
        <time>2018-09-13T14:37:12Z</time>
      </trkpt>
      <trkpt lat="44.03529" lon="6.43602">
        <ele>1495.309</ele>
        <time>2018-09-13T14:37:13Z</time>
      </trkpt>
      <trkpt lat="44.03535" lon="6.43604">
        <ele>1495.308</ele>
        <time>2018-09-13T14:37:14Z</time>
      </trkpt>
      <trkpt lat="44.03543" lon="6.43603">
        <ele>1495.346</ele>
        <time>2018-09-13T14:37:15Z</time>
      </trkpt>
      <trkpt lat="44.03549" lon="6.43604">
        <ele>1495.392</ele>
        <time>2018-09-13T14:37:16Z</time>
      </trkpt>
      <trkpt lat="44.03555" lon="6.43604">
        <ele>1495.379</ele>
        <time>2018-09-13T14:37:17Z</time>
      </trkpt>
      <trkpt lat="44.03561" lon="6.43604">
        <ele>1491.813</ele>
        <time>2018-09-13T14:37:18Z</time>
      </trkpt>
      <trkpt lat="44.03568" lon="6.43604">
        <ele>1491.494</ele>
        <time>2018-09-13T14:37:19Z</time>
      </trkpt>
      <trkpt lat="44.03574" lon="6.43604">
        <ele>1491.021</ele>
        <time>2018-09-13T14:37:20Z</time>
      </trkpt>
      <trkpt lat="44.0358" lon="6.43604">
        <ele>1491.039</ele>
        <time>2018-09-13T14:37:21Z</time>
      </trkpt>
      <trkpt lat="44.03586" lon="6.43604">
        <ele>1491.08</ele>
        <time>2018-09-13T14:37:22Z</time>
      </trkpt>
      <trkpt lat="44.03592" lon="6.43607">
        <ele>1491.058</ele>
        <time>2018-09-13T14:37:23Z</time>
      </trkpt>
      <trkpt lat="44.03599" lon="6.43611">
        <ele>1491.052</ele>
        <time>2018-09-13T14:37:24Z</time>
      </trkpt>
      <trkpt lat="44.03606" lon="6.43613">
        <ele>1491.017</ele>
        <time>2018-09-13T14:37:25Z</time>
      </trkpt>
      <trkpt lat="44.03613" lon="6.43615">
        <ele>1491.008</ele>
        <time>2018-09-13T14:37:26Z</time>
      </trkpt>
      <trkpt lat="44.0362" lon="6.43617">
        <ele>1491.087</ele>
        <time>2018-09-13T14:37:27Z</time>
      </trkpt>
      <trkpt lat="44.03626" lon="6.43619">
        <ele>1491.013</ele>
        <time>2018-09-13T14:37:28Z</time>
      </trkpt>
      <trkpt lat="44.03632" lon="6.43621">
        <ele>1491.07</ele>
        <time>2018-09-13T14:37:29Z</time>
      </trkpt>
      <trkpt lat="44.03638" lon="6.43625">
        <ele>1491.054</ele>
        <time>2018-09-13T14:37:30Z</time>
      </trkpt>
      <trkpt lat="44.03645" lon="6.43629">
        <ele>1491.055</ele>
        <time>2018-09-13T14:37:31Z</time>
      </trkpt>
      <trkpt lat="44.03651" lon="6.43631">
        <ele>1491.092</ele>
        <time>2018-09-13T14:37:32Z</time>
      </trkpt>
      <trkpt lat="44.03657" lon="6.43631">
        <ele>1490.64</ele>
        <time>2018-09-13T14:37:33Z</time>
      </trkpt>
      <trkpt lat="44.03664" lon="6.43631">
        <ele>1483.911</ele>
        <time>2018-09-13T14:37:34Z</time>
      </trkpt>
      <trkpt lat="44.03671" lon="6.4363">
        <ele>1483.941</ele>
        <time>2018-09-13T14:37:35Z</time>
      </trkpt>
      <trkpt lat="44.03677" lon="6.43629">
        <ele>1483.981</ele>
        <time>2018-09-13T14:37:36Z</time>
      </trkpt>
      <trkpt lat="44.03685" lon="6.43631">
        <ele>1483.909</ele>
        <time>2018-09-13T14:37:37Z</time>
      </trkpt>
      <trkpt lat="44.03692" lon="6.43633">
        <ele>1483.908</ele>
        <time>2018-09-13T14:37:38Z</time>
      </trkpt>
      <trkpt lat="44.03699" lon="6.43633">
        <ele>1483.996</ele>
        <time>2018-09-13T14:37:39Z</time>
      </trkpt>
      <trkpt lat="44.03707" lon="6.43632">
        <ele>1483.992</ele>
        <time>2018-09-13T14:37:40Z</time>
      </trkpt>
      <trkpt lat="44.03714" lon="6.43631">
        <ele>1483.959</ele>
        <time>2018-09-13T14:37:41Z</time>
      </trkpt>
      <trkpt lat="44.03721" lon="6.4363">
        <ele>1483.913</ele>
        <time>2018-09-13T14:37:42Z</time>
      </trkpt>
      <trkpt lat="44.03727" lon="6.43629">
        <ele>1476.964</ele>
        <time>2018-09-13T14:37:43Z</time>
      </trkpt>
      <trkpt lat="44.03734" lon="6.43628">
        <ele>1476.271</ele>
        <time>2018-09-13T14:37:44Z</time>
      </trkpt>
      <trkpt lat="44.0374" lon="6.43627">
        <ele>1475.639</ele>
        <time>2018-09-13T14:37:45Z</time>
      </trkpt>
      <trkpt lat="44.03745" lon="6.43628">
        <ele>1475.11</ele>
        <time>2018-09-13T14:37:46Z</time>
      </trkpt>
      <trkpt lat="44.03752" lon="6.43628">
        <ele>1474.362</ele>
        <time>2018-09-13T14:37:48Z</time>
      </trkpt>
      <trkpt lat="44.03756" lon="6.43639">
        <ele>1473.483</ele>
        <time>2018-09-13T14:37:50Z</time>
      </trkpt>
      <trkpt lat="44.03754" lon="6.43646">
        <ele>1472.911</ele>
        <time>2018-09-13T14:37:51Z</time>
      </trkpt>
      <trkpt lat="44.03752" lon="6.43652">
        <ele>1472.508</ele>
        <time>2018-09-13T14:37:52Z</time>
      </trkpt>
      <trkpt lat="44.03747" lon="6.43655">
        <ele>1472.168</ele>
        <time>2018-09-13T14:37:53Z</time>
      </trkpt>
      <trkpt lat="44.03743" lon="6.43656">
        <ele>1471.854</ele>
        <time>2018-09-13T14:37:54Z</time>
      </trkpt>
      <trkpt lat="44.03737" lon="6.43658">
        <ele>1471.531</ele>
        <time>2018-09-13T14:37:55Z</time>
      </trkpt>
      <trkpt lat="44.03731" lon="6.43658">
        <ele>1471.275</ele>
        <time>2018-09-13T14:37:56Z</time>
      </trkpt>
      <trkpt lat="44.03725" lon="6.43658">
        <ele>1470.846</ele>
        <time>2018-09-13T14:37:57Z</time>
      </trkpt>
      <trkpt lat="44.03719" lon="6.4366">
        <ele>1470.463</ele>
        <time>2018-09-13T14:37:58Z</time>
      </trkpt>
      <trkpt lat="44.03713" lon="6.43659">
        <ele>1469.921</ele>
        <time>2018-09-13T14:37:59Z</time>
      </trkpt>
      <trkpt lat="44.03706" lon="6.43659">
        <ele>1469.382</ele>
        <time>2018-09-13T14:38:00Z</time>
      </trkpt>
      <trkpt lat="44.037" lon="6.43659">
        <ele>1468.768</ele>
        <time>2018-09-13T14:38:01Z</time>
      </trkpt>
      <trkpt lat="44.03694" lon="6.43658">
        <ele>1468.742</ele>
        <time>2018-09-13T14:38:02Z</time>
      </trkpt>
      <trkpt lat="44.03688" lon="6.4366">
        <ele>1468.726</ele>
        <time>2018-09-13T14:38:03Z</time>
      </trkpt>
      <trkpt lat="44.03684" lon="6.43665">
        <ele>1468.708</ele>
        <time>2018-09-13T14:38:04Z</time>
      </trkpt>
      <trkpt lat="44.03681" lon="6.43672">
        <ele>1468.778</ele>
        <time>2018-09-13T14:38:05Z</time>
      </trkpt>
      <trkpt lat="44.03682" lon="6.43679">
        <ele>1463.454</ele>
        <time>2018-09-13T14:38:06Z</time>
      </trkpt>
      <trkpt lat="44.03684" lon="6.43685">
        <ele>1463.491</ele>
        <time>2018-09-13T14:38:07Z</time>
      </trkpt>
      <trkpt lat="44.03688" lon="6.4369">
        <ele>1463.455</ele>
        <time>2018-09-13T14:38:08Z</time>
      </trkpt>
      <trkpt lat="44.03693" lon="6.43693">
        <ele>1463.466</ele>
        <time>2018-09-13T14:38:09Z</time>
      </trkpt>
      <trkpt lat="44.03698" lon="6.43695">
        <ele>1463.413</ele>
        <time>2018-09-13T14:38:10Z</time>
      </trkpt>
      <trkpt lat="44.03704" lon="6.43696">
        <ele>1463.481</ele>
        <time>2018-09-13T14:38:11Z</time>
      </trkpt>
      <trkpt lat="44.0371" lon="6.43696">
        <ele>1463.422</ele>
        <time>2018-09-13T14:38:12Z</time>
      </trkpt>
      <trkpt lat="44.03716" lon="6.43697">
        <ele>1463.461</ele>
        <time>2018-09-13T14:38:13Z</time>
      </trkpt>
      <trkpt lat="44.03723" lon="6.43697">
        <ele>1463.421</ele>
        <time>2018-09-13T14:38:14Z</time>
      </trkpt>
      <trkpt lat="44.03729" lon="6.43699">
        <ele>1461.113</ele>
        <time>2018-09-13T14:38:15Z</time>
      </trkpt>
      <trkpt lat="44.03735" lon="6.437">
        <ele>1461.108</ele>
        <time>2018-09-13T14:38:16Z</time>
      </trkpt>
      <trkpt lat="44.03741" lon="6.43703">
        <ele>1461.178</ele>
        <time>2018-09-13T14:38:17Z</time>
      </trkpt>
      <trkpt lat="44.03748" lon="6.43705">
        <ele>1461.134</ele>
        <time>2018-09-13T14:38:18Z</time>
      </trkpt>
      <trkpt lat="44.03754" lon="6.43708">
        <ele>1461.181</ele>
        <time>2018-09-13T14:38:19Z</time>
      </trkpt>
      <trkpt lat="44.03759" lon="6.4371">
        <ele>1455.725</ele>
        <time>2018-09-13T14:38:20Z</time>
      </trkpt>
      <trkpt lat="44.03765" lon="6.4371">
        <ele>1455.776</ele>
        <time>2018-09-13T14:38:21Z</time>
      </trkpt>
      <trkpt lat="44.0377" lon="6.43711">
        <ele>1455.743</ele>
        <time>2018-09-13T14:38:22Z</time>
      </trkpt>
      <trkpt lat="44.03775" lon="6.43718">
        <ele>1455.781</ele>
        <time>2018-09-13T14:38:24Z</time>
      </trkpt>
      <trkpt lat="44.03773" lon="6.43727">
        <ele>1455.732</ele>
        <time>2018-09-13T14:38:26Z</time>
      </trkpt>
      <trkpt lat="44.03765" lon="6.43732">
        <ele>1450.058</ele>
        <time>2018-09-13T14:38:28Z</time>
      </trkpt>
      <trkpt lat="44.03757" lon="6.43736">
        <ele>1450.052</ele>
        <time>2018-09-13T14:38:30Z</time>
      </trkpt>
      <trkpt lat="44.03752" lon="6.43738">
        <ele>1450.017</ele>
        <time>2018-09-13T14:38:31Z</time>
      </trkpt>
      <trkpt lat="44.03747" lon="6.4374">
        <ele>1450.008</ele>
        <time>2018-09-13T14:38:32Z</time>
      </trkpt>
      <trkpt lat="44.03742" lon="6.43741">
        <ele>1450.097</ele>
        <time>2018-09-13T14:38:33Z</time>
      </trkpt>
      <trkpt lat="44.03736" lon="6.43742">
        <ele>1450.033</ele>
        <time>2018-09-13T14:38:34Z</time>
      </trkpt>
      <trkpt lat="44.03731" lon="6.43743">
        <ele>1449.55</ele>
        <time>2018-09-13T14:38:35Z</time>
      </trkpt>
      <trkpt lat="44.03726" lon="6.43745">
        <ele>1449.524</ele>
        <time>2018-09-13T14:38:36Z</time>
      </trkpt>
      <trkpt lat="44.03722" lon="6.43746">
        <ele>1448.985</ele>
        <time>2018-09-13T14:38:37Z</time>
      </trkpt>
      <trkpt lat="44.03716" lon="6.43748">
        <ele>1448.952</ele>
        <time>2018-09-13T14:38:39Z</time>
      </trkpt>
      <trkpt lat="44.03709" lon="6.43748">
        <ele>1446.55</ele>
        <time>2018-09-13T14:38:45Z</time>
      </trkpt>
      <trkpt lat="44.03701" lon="6.43751">
        <ele>1446.591</ele>
        <time>2018-09-13T14:38:47Z</time>
      </trkpt>
      <trkpt lat="44.03697" lon="6.43751">
        <ele>1446.563</ele>
        <time>2018-09-13T14:38:48Z</time>
      </trkpt>
      <trkpt lat="44.03688" lon="6.43752">
        <ele>1446.344</ele>
        <time>2018-09-13T14:38:50Z</time>
      </trkpt>
      <trkpt lat="44.03683" lon="6.43752">
        <ele>1446.018</ele>
        <time>2018-09-13T14:38:51Z</time>
      </trkpt>
      <trkpt lat="44.03674" lon="6.43753">
        <ele>1445.708</ele>
        <time>2018-09-13T14:38:53Z</time>
      </trkpt>
      <trkpt lat="44.03666" lon="6.43754">
        <ele>1445.178</ele>
        <time>2018-09-13T14:38:55Z</time>
      </trkpt>
      <trkpt lat="44.03659" lon="6.43759">
        <ele>1445.164</ele>
        <time>2018-09-13T14:38:57Z</time>
      </trkpt>
      <trkpt lat="44.03653" lon="6.43764">
        <ele>1445.181</ele>
        <time>2018-09-13T14:38:59Z</time>
      </trkpt>
      <trkpt lat="44.03646" lon="6.43769">
        <ele>1445.195</ele>
        <time>2018-09-13T14:39:01Z</time>
      </trkpt>
      <trkpt lat="44.03642" lon="6.43772">
        <ele>1445.156</ele>
        <time>2018-09-13T14:39:02Z</time>
      </trkpt>
      <trkpt lat="44.03637" lon="6.43774">
        <ele>1445.153</ele>
        <time>2018-09-13T14:39:03Z</time>
      </trkpt>
      <trkpt lat="44.03632" lon="6.43775">
        <ele>1441.961</ele>
        <time>2018-09-13T14:39:04Z</time>
      </trkpt>
      <trkpt lat="44.03627" lon="6.43778">
        <ele>1441.922</ele>
        <time>2018-09-13T14:39:05Z</time>
      </trkpt>
      <trkpt lat="44.03621" lon="6.43781">
        <ele>1441.979</ele>
        <time>2018-09-13T14:39:06Z</time>
      </trkpt>
      <trkpt lat="44.03615" lon="6.43785">
        <ele>1441.905</ele>
        <time>2018-09-13T14:39:07Z</time>
      </trkpt>
      <trkpt lat="44.0361" lon="6.43789">
        <ele>1441.925</ele>
        <time>2018-09-13T14:39:08Z</time>
      </trkpt>
      <trkpt lat="44.03606" lon="6.43794">
        <ele>1441.608</ele>
        <time>2018-09-13T14:39:09Z</time>
      </trkpt>
      <trkpt lat="44.03601" lon="6.43799">
        <ele>1441.639</ele>
        <time>2018-09-13T14:39:10Z</time>
      </trkpt>
      <trkpt lat="44.03596" lon="6.43803">
        <ele>1441.625</ele>
        <time>2018-09-13T14:39:11Z</time>
      </trkpt>
      <trkpt lat="44.03591" lon="6.43808">
        <ele>1439.582</ele>
        <time>2018-09-13T14:39:12Z</time>
      </trkpt>
      <trkpt lat="44.03588" lon="6.43814">
        <ele>1439.556</ele>
        <time>2018-09-13T14:39:13Z</time>
      </trkpt>
      <trkpt lat="44.03587" lon="6.43821">
        <ele>1439.567</ele>
        <time>2018-09-13T14:39:14Z</time>
      </trkpt>
      <trkpt lat="44.03587" lon="6.43827">
        <ele>1439.574</ele>
        <time>2018-09-13T14:39:15Z</time>
      </trkpt>
      <trkpt lat="44.03593" lon="6.43838">
        <ele>1439.522</ele>
        <time>2018-09-13T14:39:17Z</time>
      </trkpt>
      <trkpt lat="44.03598" lon="6.43841">
        <ele>1439.573</ele>
        <time>2018-09-13T14:39:18Z</time>
      </trkpt>
      <trkpt lat="44.03605" lon="6.43844">
        <ele>1439.546</ele>
        <time>2018-09-13T14:39:19Z</time>
      </trkpt>
      <trkpt lat="44.03611" lon="6.43848">
        <ele>1439.588</ele>
        <time>2018-09-13T14:39:20Z</time>
      </trkpt>
      <trkpt lat="44.03617" lon="6.43852">
        <ele>1439.516</ele>
        <time>2018-09-13T14:39:21Z</time>
      </trkpt>
      <trkpt lat="44.03623" lon="6.43855">
        <ele>1439.508</ele>
        <time>2018-09-13T14:39:22Z</time>
      </trkpt>
      <trkpt lat="44.03629" lon="6.43859">
        <ele>1439.536</ele>
        <time>2018-09-13T14:39:23Z</time>
      </trkpt>
      <trkpt lat="44.03636" lon="6.43863">
        <ele>1439.522</ele>
        <time>2018-09-13T14:39:24Z</time>
      </trkpt>
      <trkpt lat="44.03642" lon="6.43868">
        <ele>1435.849</ele>
        <time>2018-09-13T14:39:25Z</time>
      </trkpt>
      <trkpt lat="44.03647" lon="6.43873">
        <ele>1435.813</ele>
        <time>2018-09-13T14:39:26Z</time>
      </trkpt>
      <trkpt lat="44.03653" lon="6.43877">
        <ele>1435.814</ele>
        <time>2018-09-13T14:39:27Z</time>
      </trkpt>
      <trkpt lat="44.0366" lon="6.43881">
        <ele>1435.861</ele>
        <time>2018-09-13T14:39:28Z</time>
      </trkpt>
      <trkpt lat="44.03668" lon="6.43882">
        <ele>1435.899</ele>
        <time>2018-09-13T14:39:29Z</time>
      </trkpt>
      <trkpt lat="44.03675" lon="6.43884">
        <ele>1435.85</ele>
        <time>2018-09-13T14:39:30Z</time>
      </trkpt>
      <trkpt lat="44.03682" lon="6.43887">
        <ele>1435.887</ele>
        <time>2018-09-13T14:39:31Z</time>
      </trkpt>
      <trkpt lat="44.03688" lon="6.43891">
        <ele>1435.842</ele>
        <time>2018-09-13T14:39:32Z</time>
      </trkpt>
      <trkpt lat="44.03694" lon="6.43892">
        <ele>1435.826</ele>
        <time>2018-09-13T14:39:33Z</time>
      </trkpt>
      <trkpt lat="44.03701" lon="6.43895">
        <ele>1435.808</ele>
        <time>2018-09-13T14:39:34Z</time>
      </trkpt>
      <trkpt lat="44.03707" lon="6.43898">
        <ele>1435.87</ele>
        <time>2018-09-13T14:39:35Z</time>
      </trkpt>
      <trkpt lat="44.03714" lon="6.439">
        <ele>1430.796</ele>
        <time>2018-09-13T14:39:36Z</time>
      </trkpt>
      <trkpt lat="44.0372" lon="6.439">
        <ele>1430.723</ele>
        <time>2018-09-13T14:39:37Z</time>
      </trkpt>
      <trkpt lat="44.03727" lon="6.43898">
        <ele>1430.737</ele>
        <time>2018-09-13T14:39:38Z</time>
      </trkpt>
      <trkpt lat="44.03734" lon="6.43898">
        <ele>1430.728</ele>
        <time>2018-09-13T14:39:39Z</time>
      </trkpt>
      <trkpt lat="44.03742" lon="6.43897">
        <ele>1430.755</ele>
        <time>2018-09-13T14:39:40Z</time>
      </trkpt>
      <trkpt lat="44.03749" lon="6.43896">
        <ele>1430.773</ele>
        <time>2018-09-13T14:39:41Z</time>
      </trkpt>
      <trkpt lat="44.03757" lon="6.43894">
        <ele>1430.754</ele>
        <time>2018-09-13T14:39:42Z</time>
      </trkpt>
      <trkpt lat="44.03763" lon="6.43891">
        <ele>1430.752</ele>
        <time>2018-09-13T14:39:43Z</time>
      </trkpt>
      <trkpt lat="44.0377" lon="6.43887">
        <ele>1430.753</ele>
        <time>2018-09-13T14:39:44Z</time>
      </trkpt>
      <trkpt lat="44.03778" lon="6.43886">
        <ele>1426.908</ele>
        <time>2018-09-13T14:39:45Z</time>
      </trkpt>
      <trkpt lat="44.03785" lon="6.43885">
        <ele>1426.408</ele>
        <time>2018-09-13T14:39:46Z</time>
      </trkpt>
      <trkpt lat="44.03792" lon="6.43884">
        <ele>1426.477</ele>
        <time>2018-09-13T14:39:47Z</time>
      </trkpt>
      <trkpt lat="44.038" lon="6.43883">
        <ele>1426.443</ele>
        <time>2018-09-13T14:39:48Z</time>
      </trkpt>
      <trkpt lat="44.03807" lon="6.43883">
        <ele>1426.46</ele>
        <time>2018-09-13T14:39:49Z</time>
      </trkpt>
      <trkpt lat="44.03815" lon="6.43884">
        <ele>1426.464</ele>
        <time>2018-09-13T14:39:50Z</time>
      </trkpt>
      <trkpt lat="44.03822" lon="6.43886">
        <ele>1426.415</ele>
        <time>2018-09-13T14:39:51Z</time>
      </trkpt>
      <trkpt lat="44.03829" lon="6.43887">
        <ele>1426.432</ele>
        <time>2018-09-13T14:39:52Z</time>
      </trkpt>
      <trkpt lat="44.03836" lon="6.43888">
        <ele>1426.44</ele>
        <time>2018-09-13T14:39:53Z</time>
      </trkpt>
      <trkpt lat="44.03842" lon="6.43886">
        <ele>1420.581</ele>
        <time>2018-09-13T14:39:54Z</time>
      </trkpt>
      <trkpt lat="44.03848" lon="6.43883">
        <ele>1420.584</ele>
        <time>2018-09-13T14:39:55Z</time>
      </trkpt>
      <trkpt lat="44.03853" lon="6.43876">
        <ele>1420.507</ele>
        <time>2018-09-13T14:39:56Z</time>
      </trkpt>
      <trkpt lat="44.03858" lon="6.43868">
        <ele>1420.517</ele>
        <time>2018-09-13T14:39:57Z</time>
      </trkpt>
      <trkpt lat="44.03862" lon="6.43861">
        <ele>1420.508</ele>
        <time>2018-09-13T14:39:58Z</time>
      </trkpt>
      <trkpt lat="44.03866" lon="6.43856">
        <ele>1420.59</ele>
        <time>2018-09-13T14:39:59Z</time>
      </trkpt>
      <trkpt lat="44.0387" lon="6.43854">
        <ele>1420.596</ele>
        <time>2018-09-13T14:40:00Z</time>
      </trkpt>
      <trkpt lat="44.03875" lon="6.43855">
        <ele>1420.573</ele>
        <time>2018-09-13T14:40:01Z</time>
      </trkpt>
      <trkpt lat="44.0388" lon="6.43865">
        <ele>1420.537</ele>
        <time>2018-09-13T14:40:03Z</time>
      </trkpt>
      <trkpt lat="44.03881" lon="6.43871">
        <ele>1412.828</ele>
        <time>2018-09-13T14:40:04Z</time>
      </trkpt>
      <trkpt lat="44.03883" lon="6.43878">
        <ele>1412.815</ele>
        <time>2018-09-13T14:40:05Z</time>
      </trkpt>
      <trkpt lat="44.03886" lon="6.43883">
        <ele>1412.853</ele>
        <time>2018-09-13T14:40:06Z</time>
      </trkpt>
      <trkpt lat="44.03889" lon="6.43888">
        <ele>1412.884</ele>
        <time>2018-09-13T14:40:07Z</time>
      </trkpt>
      <trkpt lat="44.03894" lon="6.43894">
        <ele>1412.837</ele>
        <time>2018-09-13T14:40:08Z</time>
      </trkpt>
      <trkpt lat="44.039" lon="6.43899">
        <ele>1412.849</ele>
        <time>2018-09-13T14:40:09Z</time>
      </trkpt>
      <trkpt lat="44.03905" lon="6.43902">
        <ele>1412.813</ele>
        <time>2018-09-13T14:40:10Z</time>
      </trkpt>
      <trkpt lat="44.03911" lon="6.43907">
        <ele>1412.808</ele>
        <time>2018-09-13T14:40:11Z</time>
      </trkpt>
      <trkpt lat="44.03917" lon="6.43912">
        <ele>1407.145</ele>
        <time>2018-09-13T14:40:12Z</time>
      </trkpt>
      <trkpt lat="44.03924" lon="6.43914">
        <ele>1407.141</ele>
        <time>2018-09-13T14:40:13Z</time>
      </trkpt>
      <trkpt lat="44.03931" lon="6.43918">
        <ele>1407.198</ele>
        <time>2018-09-13T14:40:14Z</time>
      </trkpt>
      <trkpt lat="44.03937" lon="6.43922">
        <ele>1406.782</ele>
        <time>2018-09-13T14:40:15Z</time>
      </trkpt>
      <trkpt lat="44.03944" lon="6.43924">
        <ele>1406.783</ele>
        <time>2018-09-13T14:40:16Z</time>
      </trkpt>
      <trkpt lat="44.03951" lon="6.43927">
        <ele>1406.78</ele>
        <time>2018-09-13T14:40:17Z</time>
      </trkpt>
      <trkpt lat="44.03959" lon="6.4393">
        <ele>1406.758</ele>
        <time>2018-09-13T14:40:18Z</time>
      </trkpt>
      <trkpt lat="44.03966" lon="6.43933">
        <ele>1406.769</ele>
        <time>2018-09-13T14:40:19Z</time>
      </trkpt>
      <trkpt lat="44.03973" lon="6.43934">
        <ele>1406.724</ele>
        <time>2018-09-13T14:40:20Z</time>
      </trkpt>
      <trkpt lat="44.03979" lon="6.43937">
        <ele>1406.704</ele>
        <time>2018-09-13T14:40:21Z</time>
      </trkpt>
      <trkpt lat="44.03986" lon="6.43938">
        <ele>1406.714</ele>
        <time>2018-09-13T14:40:22Z</time>
      </trkpt>
      <trkpt lat="44.03994" lon="6.43939">
        <ele>1406.708</ele>
        <time>2018-09-13T14:40:23Z</time>
      </trkpt>
      <trkpt lat="44.04" lon="6.4394">
        <ele>1405.994</ele>
        <time>2018-09-13T14:40:24Z</time>
      </trkpt>
      <trkpt lat="44.04007" lon="6.43938">
        <ele>1405.11</ele>
        <time>2018-09-13T14:40:25Z</time>
      </trkpt>
      <trkpt lat="44.04015" lon="6.43939">
        <ele>1405.177</ele>
        <time>2018-09-13T14:40:26Z</time>
      </trkpt>
      <trkpt lat="44.04022" lon="6.43941">
        <ele>1405.131</ele>
        <time>2018-09-13T14:40:27Z</time>
      </trkpt>
      <trkpt lat="44.04028" lon="6.43943">
        <ele>1405.152</ele>
        <time>2018-09-13T14:40:28Z</time>
      </trkpt>
      <trkpt lat="44.04035" lon="6.43944">
        <ele>1405.129</ele>
        <time>2018-09-13T14:40:29Z</time>
      </trkpt>
      <trkpt lat="44.04041" lon="6.43946">
        <ele>1405.117</ele>
        <time>2018-09-13T14:40:30Z</time>
      </trkpt>
      <trkpt lat="44.04048" lon="6.43949">
        <ele>1399.558</ele>
        <time>2018-09-13T14:40:31Z</time>
      </trkpt>
      <trkpt lat="44.04054" lon="6.43952">
        <ele>1399.597</ele>
        <time>2018-09-13T14:40:32Z</time>
      </trkpt>
      <trkpt lat="44.04058" lon="6.43954">
        <ele>1399.523</ele>
        <time>2018-09-13T14:40:33Z</time>
      </trkpt>
      <trkpt lat="44.04063" lon="6.43957">
        <ele>1399.525</ele>
        <time>2018-09-13T14:40:34Z</time>
      </trkpt>
      <trkpt lat="44.0407" lon="6.43962">
        <ele>1395.908</ele>
        <time>2018-09-13T14:40:36Z</time>
      </trkpt>
      <trkpt lat="44.04077" lon="6.4397">
        <ele>1394.531</ele>
        <time>2018-09-13T14:40:38Z</time>
      </trkpt>
      <trkpt lat="44.04081" lon="6.43975">
        <ele>1394.587</ele>
        <time>2018-09-13T14:40:39Z</time>
      </trkpt>
      <trkpt lat="44.04086" lon="6.43979">
        <ele>1394.524</ele>
        <time>2018-09-13T14:40:40Z</time>
      </trkpt>
      <trkpt lat="44.04089" lon="6.43982">
        <ele>1394.518</ele>
        <time>2018-09-13T14:40:41Z</time>
      </trkpt>
      <trkpt lat="44.04092" lon="6.43987">
        <ele>1394.549</ele>
        <time>2018-09-13T14:40:42Z</time>
      </trkpt>
      <trkpt lat="44.04097" lon="6.43991">
        <ele>1393.386</ele>
        <time>2018-09-13T14:40:43Z</time>
      </trkpt>
      <trkpt lat="44.04102" lon="6.43995">
        <ele>1393.384</ele>
        <time>2018-09-13T14:40:44Z</time>
      </trkpt>
      <trkpt lat="44.04107" lon="6.43999">
        <ele>1393.335</ele>
        <time>2018-09-13T14:40:45Z</time>
      </trkpt>
      <trkpt lat="44.04113" lon="6.44003">
        <ele>1393.388</ele>
        <time>2018-09-13T14:40:46Z</time>
      </trkpt>
      <trkpt lat="44.04119" lon="6.44007">
        <ele>1393.324</ele>
        <time>2018-09-13T14:40:47Z</time>
      </trkpt>
      <trkpt lat="44.04125" lon="6.44009">
        <ele>1393.326</ele>
        <time>2018-09-13T14:40:48Z</time>
      </trkpt>
      <trkpt lat="44.0413" lon="6.4401">
        <ele>1390.808</ele>
        <time>2018-09-13T14:40:49Z</time>
      </trkpt>
      <trkpt lat="44.04136" lon="6.44012">
        <ele>1390.87</ele>
        <time>2018-09-13T14:40:50Z</time>
      </trkpt>
      <trkpt lat="44.04143" lon="6.44014">
        <ele>1390.856</ele>
        <time>2018-09-13T14:40:51Z</time>
      </trkpt>
      <trkpt lat="44.0415" lon="6.44015">
        <ele>1390.863</ele>
        <time>2018-09-13T14:40:52Z</time>
      </trkpt>
      <trkpt lat="44.04157" lon="6.44015">
        <ele>1390.827</ele>
        <time>2018-09-13T14:40:53Z</time>
      </trkpt>
      <trkpt lat="44.04163" lon="6.44017">
        <ele>1390.888</ele>
        <time>2018-09-13T14:40:54Z</time>
      </trkpt>
      <trkpt lat="44.0417" lon="6.44019">
        <ele>1390.885</ele>
        <time>2018-09-13T14:40:55Z</time>
      </trkpt>
      <trkpt lat="44.04178" lon="6.44019">
        <ele>1390.883</ele>
        <time>2018-09-13T14:40:56Z</time>
      </trkpt>
      <trkpt lat="44.04185" lon="6.44021">
        <ele>1387.974</ele>
        <time>2018-09-13T14:40:57Z</time>
      </trkpt>
      <trkpt lat="44.04192" lon="6.4402">
        <ele>1387.923</ele>
        <time>2018-09-13T14:40:58Z</time>
      </trkpt>
      <trkpt lat="44.04199" lon="6.4402">
        <ele>1387.983</ele>
        <time>2018-09-13T14:40:59Z</time>
      </trkpt>
      <trkpt lat="44.04205" lon="6.4402">
        <ele>1387.911</ele>
        <time>2018-09-13T14:41:00Z</time>
      </trkpt>
      <trkpt lat="44.04211" lon="6.44021">
        <ele>1387.908</ele>
        <time>2018-09-13T14:41:01Z</time>
      </trkpt>
      <trkpt lat="44.04218" lon="6.44021">
        <ele>1387.924</ele>
        <time>2018-09-13T14:41:02Z</time>
      </trkpt>
      <trkpt lat="44.04225" lon="6.44022">
        <ele>1387.95</ele>
        <time>2018-09-13T14:41:03Z</time>
      </trkpt>
      <trkpt lat="44.04231" lon="6.44021">
        <ele>1385.567</ele>
        <time>2018-09-13T14:41:04Z</time>
      </trkpt>
      <trkpt lat="44.04238" lon="6.4402">
        <ele>1385.581</ele>
        <time>2018-09-13T14:41:05Z</time>
      </trkpt>
      <trkpt lat="44.04245" lon="6.44021">
        <ele>1385.582</ele>
        <time>2018-09-13T14:41:06Z</time>
      </trkpt>
      <trkpt lat="44.04251" lon="6.4402">
        <ele>1385.559</ele>
        <time>2018-09-13T14:41:07Z</time>
      </trkpt>
      <trkpt lat="44.04257" lon="6.44018">
        <ele>1384.217</ele>
        <time>2018-09-13T14:41:08Z</time>
      </trkpt>
      <trkpt lat="44.04263" lon="6.44017">
        <ele>1384.278</ele>
        <time>2018-09-13T14:41:09Z</time>
      </trkpt>
      <trkpt lat="44.0427" lon="6.44017">
        <ele>1383.079</ele>
        <time>2018-09-13T14:41:10Z</time>
      </trkpt>
      <trkpt lat="44.04277" lon="6.44018">
        <ele>1382.705</ele>
        <time>2018-09-13T14:41:11Z</time>
      </trkpt>
      <trkpt lat="44.04284" lon="6.44018">
        <ele>1382.725</ele>
        <time>2018-09-13T14:41:12Z</time>
      </trkpt>
      <trkpt lat="44.0429" lon="6.44019">
        <ele>1382.708</ele>
        <time>2018-09-13T14:41:13Z</time>
      </trkpt>
      <trkpt lat="44.04297" lon="6.44019">
        <ele>1382.719</ele>
        <time>2018-09-13T14:41:14Z</time>
      </trkpt>
      <trkpt lat="44.04304" lon="6.44018">
        <ele>1382.755</ele>
        <time>2018-09-13T14:41:15Z</time>
      </trkpt>
      <trkpt lat="44.04311" lon="6.44016">
        <ele>1382.782</ele>
        <time>2018-09-13T14:41:16Z</time>
      </trkpt>
      <trkpt lat="44.04318" lon="6.44013">
        <ele>1381.426</ele>
        <time>2018-09-13T14:41:17Z</time>
      </trkpt>
      <trkpt lat="44.04324" lon="6.44013">
        <ele>1381.427</ele>
        <time>2018-09-13T14:41:18Z</time>
      </trkpt>
      <trkpt lat="44.0433" lon="6.4401">
        <ele>1381.494</ele>
        <time>2018-09-13T14:41:19Z</time>
      </trkpt>
      <trkpt lat="44.04336" lon="6.44008">
        <ele>1381.482</ele>
        <time>2018-09-13T14:41:20Z</time>
      </trkpt>
      <trkpt lat="44.04343" lon="6.44003">
        <ele>1380.053</ele>
        <time>2018-09-13T14:41:21Z</time>
      </trkpt>
      <trkpt lat="44.04349" lon="6.43999">
        <ele>1380.068</ele>
        <time>2018-09-13T14:41:22Z</time>
      </trkpt>
      <trkpt lat="44.04355" lon="6.43996">
        <ele>1380.042</ele>
        <time>2018-09-13T14:41:23Z</time>
      </trkpt>
      <trkpt lat="44.04363" lon="6.43992">
        <ele>1380.026</ele>
        <time>2018-09-13T14:41:24Z</time>
      </trkpt>
      <trkpt lat="44.0437" lon="6.4399">
        <ele>1380.008</ele>
        <time>2018-09-13T14:41:25Z</time>
      </trkpt>
      <trkpt lat="44.04376" lon="6.43986">
        <ele>1380.028</ele>
        <time>2018-09-13T14:41:26Z</time>
      </trkpt>
      <trkpt lat="44.04383" lon="6.43983">
        <ele>1380.014</ele>
        <time>2018-09-13T14:41:27Z</time>
      </trkpt>
      <trkpt lat="44.04389" lon="6.4398">
        <ele>1380.061</ele>
        <time>2018-09-13T14:41:28Z</time>
      </trkpt>
      <trkpt lat="44.04396" lon="6.43976">
        <ele>1378.175</ele>
        <time>2018-09-13T14:41:29Z</time>
      </trkpt>
      <trkpt lat="44.04404" lon="6.43974">
        <ele>1378.166</ele>
        <time>2018-09-13T14:41:30Z</time>
      </trkpt>
      <trkpt lat="44.0441" lon="6.43972">
        <ele>1378.133</ele>
        <time>2018-09-13T14:41:31Z</time>
      </trkpt>
      <trkpt lat="44.04416" lon="6.43971">
        <ele>1378.181</ele>
        <time>2018-09-13T14:41:32Z</time>
      </trkpt>
      <trkpt lat="44.04422" lon="6.43968">
        <ele>1378.182</ele>
        <time>2018-09-13T14:41:33Z</time>
      </trkpt>
      <trkpt lat="44.04427" lon="6.43968">
        <ele>1378.165</ele>
        <time>2018-09-13T14:41:34Z</time>
      </trkpt>
      <trkpt lat="44.04433" lon="6.43965">
        <ele>1376.768</ele>
        <time>2018-09-13T14:41:35Z</time>
      </trkpt>
      <trkpt lat="44.04438" lon="6.43963">
        <ele>1376.714</ele>
        <time>2018-09-13T14:41:36Z</time>
      </trkpt>
      <trkpt lat="44.04444" lon="6.43961">
        <ele>1376.708</ele>
        <time>2018-09-13T14:41:37Z</time>
      </trkpt>
      <trkpt lat="44.04449" lon="6.43958">
        <ele>1376.738</ele>
        <time>2018-09-13T14:41:38Z</time>
      </trkpt>
      <trkpt lat="44.04454" lon="6.43957">
        <ele>1376.734</ele>
        <time>2018-09-13T14:41:39Z</time>
      </trkpt>
      <trkpt lat="44.04459" lon="6.43956">
        <ele>1376.781</ele>
        <time>2018-09-13T14:41:40Z</time>
      </trkpt>
      <trkpt lat="44.04466" lon="6.43954">
        <ele>1376.715</ele>
        <time>2018-09-13T14:41:41Z</time>
      </trkpt>
      <trkpt lat="44.04471" lon="6.43951">
        <ele>1376.776</ele>
        <time>2018-09-13T14:41:42Z</time>
      </trkpt>
      <trkpt lat="44.04476" lon="6.43949">
        <ele>1375.363</ele>
        <time>2018-09-13T14:41:43Z</time>
      </trkpt>
      <trkpt lat="44.04482" lon="6.43948">
        <ele>1375.351</ele>
        <time>2018-09-13T14:41:45Z</time>
      </trkpt>
      <trkpt lat="44.04488" lon="6.43949">
        <ele>1375.322</ele>
        <time>2018-09-13T14:41:47Z</time>
      </trkpt>
      <trkpt lat="44.04495" lon="6.43953">
        <ele>1375.349</ele>
        <time>2018-09-13T14:41:49Z</time>
      </trkpt>
      <trkpt lat="44.04502" lon="6.43948">
        <ele>1375.302</ele>
        <time>2018-09-13T14:41:50Z</time>
      </trkpt>
      <trkpt lat="44.04509" lon="6.43946">
        <ele>1372.822</ele>
        <time>2018-09-13T14:41:51Z</time>
      </trkpt>
      <trkpt lat="44.04514" lon="6.43944">
        <ele>1372.808</ele>
        <time>2018-09-13T14:41:52Z</time>
      </trkpt>
      <trkpt lat="44.04521" lon="6.43944">
        <ele>1372.826</ele>
        <time>2018-09-13T14:41:54Z</time>
      </trkpt>
      <trkpt lat="44.04526" lon="6.43948">
        <ele>1372.882</ele>
        <time>2018-09-13T14:41:56Z</time>
      </trkpt>
      <trkpt lat="44.04528" lon="6.43959">
        <ele>1372.849</ele>
        <time>2018-09-13T14:41:58Z</time>
      </trkpt>
      <trkpt lat="44.04529" lon="6.43965">
        <ele>1372.643</ele>
        <time>2018-09-13T14:41:59Z</time>
      </trkpt>
      <trkpt lat="44.04531" lon="6.43978">
        <ele>1372.644</ele>
        <time>2018-09-13T14:42:01Z</time>
      </trkpt>
      <trkpt lat="44.04531" lon="6.4399">
        <ele>1372.611</ele>
        <time>2018-09-13T14:42:03Z</time>
      </trkpt>
      <trkpt lat="44.04533" lon="6.43996">
        <ele>1371.579</ele>
        <time>2018-09-13T14:42:04Z</time>
      </trkpt>
      <trkpt lat="44.04535" lon="6.44003">
        <ele>1371.52</ele>
        <time>2018-09-13T14:42:05Z</time>
      </trkpt>
      <trkpt lat="44.04535" lon="6.4401">
        <ele>1371.567</ele>
        <time>2018-09-13T14:42:06Z</time>
      </trkpt>
      <trkpt lat="44.04533" lon="6.44016">
        <ele>1371.581</ele>
        <time>2018-09-13T14:42:07Z</time>
      </trkpt>
      <trkpt lat="44.04532" lon="6.44028">
        <ele>1371.219</ele>
        <time>2018-09-13T14:42:09Z</time>
      </trkpt>
      <trkpt lat="44.04533" lon="6.44037">
        <ele>1371.208</ele>
        <time>2018-09-13T14:42:10Z</time>
      </trkpt>
      <trkpt lat="44.04535" lon="6.44046">
        <ele>1371.298</ele>
        <time>2018-09-13T14:42:11Z</time>
      </trkpt>
      <trkpt lat="44.04537" lon="6.44055">
        <ele>1371.254</ele>
        <time>2018-09-13T14:42:12Z</time>
      </trkpt>
      <trkpt lat="44.04539" lon="6.44065">
        <ele>1371.291</ele>
        <time>2018-09-13T14:42:13Z</time>
      </trkpt>
      <trkpt lat="44.04541" lon="6.44076">
        <ele>1371.285</ele>
        <time>2018-09-13T14:42:14Z</time>
      </trkpt>
      <trkpt lat="44.04542" lon="6.44087">
        <ele>1371.566</ele>
        <time>2018-09-13T14:42:15Z</time>
      </trkpt>
      <trkpt lat="44.04541" lon="6.44098">
        <ele>1371.553</ele>
        <time>2018-09-13T14:42:16Z</time>
      </trkpt>
      <trkpt lat="44.0454" lon="6.44109">
        <ele>1371.581</ele>
        <time>2018-09-13T14:42:17Z</time>
      </trkpt>
      <trkpt lat="44.04539" lon="6.44121">
        <ele>1371.582</ele>
        <time>2018-09-13T14:42:18Z</time>
      </trkpt>
      <trkpt lat="44.04538" lon="6.44133">
        <ele>1371.553</ele>
        <time>2018-09-13T14:42:19Z</time>
      </trkpt>
      <trkpt lat="44.04537" lon="6.44147">
        <ele>1371.604</ele>
        <time>2018-09-13T14:42:20Z</time>
      </trkpt>
      <trkpt lat="44.04535" lon="6.44161">
        <ele>1371.614</ele>
        <time>2018-09-13T14:42:21Z</time>
      </trkpt>
      <trkpt lat="44.04533" lon="6.44175">
        <ele>1371.608</ele>
        <time>2018-09-13T14:42:22Z</time>
      </trkpt>
      <trkpt lat="44.04529" lon="6.44188">
        <ele>1371.667</ele>
        <time>2018-09-13T14:42:23Z</time>
      </trkpt>
      <trkpt lat="44.04523" lon="6.442">
        <ele>1371.623</ele>
        <time>2018-09-13T14:42:24Z</time>
      </trkpt>
      <trkpt lat="44.04515" lon="6.44211">
        <ele>1372.02</ele>
        <time>2018-09-13T14:42:25Z</time>
      </trkpt>
      <trkpt lat="44.04508" lon="6.44222">
        <ele>1372.074</ele>
        <time>2018-09-13T14:42:26Z</time>
      </trkpt>
      <trkpt lat="44.04501" lon="6.44234">
        <ele>1372.065</ele>
        <time>2018-09-13T14:42:27Z</time>
      </trkpt>
      <trkpt lat="44.04494" lon="6.44244">
        <ele>1372.082</ele>
        <time>2018-09-13T14:42:28Z</time>
      </trkpt>
      <trkpt lat="44.04488" lon="6.44255">
        <ele>1372.08</ele>
        <time>2018-09-13T14:42:29Z</time>
      </trkpt>
      <trkpt lat="44.04482" lon="6.44266">
        <ele>1372.021</ele>
        <time>2018-09-13T14:42:30Z</time>
      </trkpt>
      <trkpt lat="44.04475" lon="6.44277">
        <ele>1373.697</ele>
        <time>2018-09-13T14:42:31Z</time>
      </trkpt>
      <trkpt lat="44.04469" lon="6.44291">
        <ele>1373.823</ele>
        <time>2018-09-13T14:42:32Z</time>
      </trkpt>
      <trkpt lat="44.04464" lon="6.44303">
        <ele>1373.825</ele>
        <time>2018-09-13T14:42:33Z</time>
      </trkpt>
      <trkpt lat="44.04457" lon="6.44315">
        <ele>1373.808</ele>
        <time>2018-09-13T14:42:34Z</time>
      </trkpt>
      <trkpt lat="44.04451" lon="6.44325">
        <ele>1373.871</ele>
        <time>2018-09-13T14:42:35Z</time>
      </trkpt>
      <trkpt lat="44.04444" lon="6.44333">
        <ele>1373.897</ele>
        <time>2018-09-13T14:42:36Z</time>
      </trkpt>
      <trkpt lat="44.04437" lon="6.4434">
        <ele>1373.864</ele>
        <time>2018-09-13T14:42:37Z</time>
      </trkpt>
      <trkpt lat="44.04431" lon="6.44349">
        <ele>1375.098</ele>
        <time>2018-09-13T14:42:38Z</time>
      </trkpt>
      <trkpt lat="44.04425" lon="6.44359">
        <ele>1375.029</ele>
        <time>2018-09-13T14:42:39Z</time>
      </trkpt>
      <trkpt lat="44.0442" lon="6.44372">
        <ele>1375.066</ele>
        <time>2018-09-13T14:42:40Z</time>
      </trkpt>
      <trkpt lat="44.04415" lon="6.44385">
        <ele>1375.054</ele>
        <time>2018-09-13T14:42:41Z</time>
      </trkpt>
      <trkpt lat="44.04409" lon="6.44397">
        <ele>1375.045</ele>
        <time>2018-09-13T14:42:42Z</time>
      </trkpt>
      <trkpt lat="44.04402" lon="6.44406">
        <ele>1375.075</ele>
        <time>2018-09-13T14:42:43Z</time>
      </trkpt>
      <trkpt lat="44.04394" lon="6.44414">
        <ele>1375.428</ele>
        <time>2018-09-13T14:42:44Z</time>
      </trkpt>
      <trkpt lat="44.04386" lon="6.44423">
        <ele>1375.42</ele>
        <time>2018-09-13T14:42:45Z</time>
      </trkpt>
      <trkpt lat="44.04379" lon="6.44433">
        <ele>1375.408</ele>
        <time>2018-09-13T14:42:46Z</time>
      </trkpt>
      <trkpt lat="44.04373" lon="6.44444">
        <ele>1375.469</ele>
        <time>2018-09-13T14:42:47Z</time>
      </trkpt>
      <trkpt lat="44.04366" lon="6.44455">
        <ele>1375.415</ele>
        <time>2018-09-13T14:42:48Z</time>
      </trkpt>
      <trkpt lat="44.0436" lon="6.44466">
        <ele>1375.612</ele>
        <time>2018-09-13T14:42:49Z</time>
      </trkpt>
      <trkpt lat="44.04354" lon="6.44475">
        <ele>1375.686</ele>
        <time>2018-09-13T14:42:50Z</time>
      </trkpt>
      <trkpt lat="44.04348" lon="6.44484">
        <ele>1375.697</ele>
        <time>2018-09-13T14:42:51Z</time>
      </trkpt>
      <trkpt lat="44.04344" lon="6.44491">
        <ele>1375.614</ele>
        <time>2018-09-13T14:42:52Z</time>
      </trkpt>
      <trkpt lat="44.04342" lon="6.44498">
        <ele>1375.692</ele>
        <time>2018-09-13T14:42:53Z</time>
      </trkpt>
      <trkpt lat="44.04342" lon="6.44506">
        <ele>1375.593</ele>
        <time>2018-09-13T14:42:54Z</time>
      </trkpt>
      <trkpt lat="44.04348" lon="6.44505">
        <ele>1375.584</ele>
        <time>2018-09-13T14:42:56Z</time>
      </trkpt>
      <trkpt lat="44.04352" lon="6.44501">
        <ele>1375.507</ele>
        <time>2018-09-13T14:42:57Z</time>
      </trkpt>
      <trkpt lat="44.04356" lon="6.44496">
        <ele>1375.517</ele>
        <time>2018-09-13T14:42:58Z</time>
      </trkpt>
      <trkpt lat="44.04361" lon="6.44489">
        <ele>1375.508</ele>
        <time>2018-09-13T14:42:59Z</time>
      </trkpt>
      <trkpt lat="44.04366" lon="6.44482">
        <ele>1375.59</ele>
        <time>2018-09-13T14:43:00Z</time>
      </trkpt>
      <trkpt lat="44.04372" lon="6.44475">
        <ele>1376.166</ele>
        <time>2018-09-13T14:43:01Z</time>
      </trkpt>
      <trkpt lat="44.04378" lon="6.44468">
        <ele>1376.133</ele>
        <time>2018-09-13T14:43:02Z</time>
      </trkpt>
      <trkpt lat="44.04385" lon="6.44461">
        <ele>1376.157</ele>
        <time>2018-09-13T14:43:03Z</time>
      </trkpt>
      <trkpt lat="44.04392" lon="6.44456">
        <ele>1376.168</ele>
        <time>2018-09-13T14:43:04Z</time>
      </trkpt>
      <trkpt lat="44.04401" lon="6.4445">
        <ele>1376.115</ele>
        <time>2018-09-13T14:43:05Z</time>
      </trkpt>
      <trkpt lat="44.04411" lon="6.44447">
        <ele>1376.183</ele>
        <time>2018-09-13T14:43:06Z</time>
      </trkpt>
      <trkpt lat="44.04421" lon="6.44443">
        <ele>1379.414</ele>
        <time>2018-09-13T14:43:07Z</time>
      </trkpt>
      <trkpt lat="44.0443" lon="6.44437">
        <ele>1379.479</ele>
        <time>2018-09-13T14:43:08Z</time>
      </trkpt>
      <trkpt lat="44.04439" lon="6.44427">
        <ele>1379.405</ele>
        <time>2018-09-13T14:43:09Z</time>
      </trkpt>
      <trkpt lat="44.04446" lon="6.44417">
        <ele>1379.425</ele>
        <time>2018-09-13T14:43:10Z</time>
      </trkpt>
      <trkpt lat="44.04452" lon="6.44405">
        <ele>1379.408</ele>
        <time>2018-09-13T14:43:11Z</time>
      </trkpt>
      <trkpt lat="44.04458" lon="6.44394">
        <ele>1379.429</ele>
        <time>2018-09-13T14:43:12Z</time>
      </trkpt>
      <trkpt lat="44.04464" lon="6.44384">
        <ele>1379.455</ele>
        <time>2018-09-13T14:43:13Z</time>
      </trkpt>
      <trkpt lat="44.04471" lon="6.44374">
        <ele>1383.492</ele>
        <time>2018-09-13T14:43:14Z</time>
      </trkpt>
      <trkpt lat="44.04479" lon="6.44364">
        <ele>1383.456</ele>
        <time>2018-09-13T14:43:15Z</time>
      </trkpt>
      <trkpt lat="44.04488" lon="6.44355">
        <ele>1383.477</ele>
        <time>2018-09-13T14:43:16Z</time>
      </trkpt>
      <trkpt lat="44.04497" lon="6.44347">
        <ele>1383.454</ele>
        <time>2018-09-13T14:43:17Z</time>
      </trkpt>
      <trkpt lat="44.04508" lon="6.44342">
        <ele>1383.492</ele>
        <time>2018-09-13T14:43:18Z</time>
      </trkpt>
      <trkpt lat="44.04517" lon="6.44338">
        <ele>1383.433</ele>
        <time>2018-09-13T14:43:19Z</time>
      </trkpt>
      <trkpt lat="44.04529" lon="6.44337">
        <ele>1384.957</ele>
        <time>2018-09-13T14:43:20Z</time>
      </trkpt>
      <trkpt lat="44.04541" lon="6.44336">
        <ele>1384.9</ele>
        <time>2018-09-13T14:43:21Z</time>
      </trkpt>
      <trkpt lat="44.04553" lon="6.44333">
        <ele>1387.22</ele>
        <time>2018-09-13T14:43:22Z</time>
      </trkpt>
      <trkpt lat="44.04565" lon="6.44326">
        <ele>1387.208</ele>
        <time>2018-09-13T14:43:23Z</time>
      </trkpt>
      <trkpt lat="44.04575" lon="6.44315">
        <ele>1387.277</ele>
        <time>2018-09-13T14:43:24Z</time>
      </trkpt>
      <trkpt lat="44.04585" lon="6.44303">
        <ele>1387.233</ele>
        <time>2018-09-13T14:43:25Z</time>
      </trkpt>
      <trkpt lat="44.04597" lon="6.44295">
        <ele>1387.23</ele>
        <time>2018-09-13T14:43:26Z</time>
      </trkpt>
      <trkpt lat="44.04609" lon="6.44291">
        <ele>1387.214</ele>
        <time>2018-09-13T14:43:27Z</time>
      </trkpt>
      <trkpt lat="44.04621" lon="6.4429">
        <ele>1387.215</ele>
        <time>2018-09-13T14:43:28Z</time>
      </trkpt>
      <trkpt lat="44.04633" lon="6.44296">
        <ele>1392.652</ele>
        <time>2018-09-13T14:43:29Z</time>
      </trkpt>
      <trkpt lat="44.04646" lon="6.443">
        <ele>1392.61</ele>
        <time>2018-09-13T14:43:30Z</time>
      </trkpt>
      <trkpt lat="44.04658" lon="6.44305">
        <ele>1392.671</ele>
        <time>2018-09-13T14:43:31Z</time>
      </trkpt>
      <trkpt lat="44.0467" lon="6.44307">
        <ele>1394.618</ele>
        <time>2018-09-13T14:43:32Z</time>
      </trkpt>
      <trkpt lat="44.04682" lon="6.44308">
        <ele>1394.698</ele>
        <time>2018-09-13T14:43:33Z</time>
      </trkpt>
      <trkpt lat="44.04694" lon="6.44308">
        <ele>1394.617</ele>
        <time>2018-09-13T14:43:34Z</time>
      </trkpt>
      <trkpt lat="44.04705" lon="6.44307">
        <ele>1396.608</ele>
        <time>2018-09-13T14:43:35Z</time>
      </trkpt>
      <trkpt lat="44.04716" lon="6.44307">
        <ele>1396.683</ele>
        <time>2018-09-13T14:43:36Z</time>
      </trkpt>
      <trkpt lat="44.04726" lon="6.44308">
        <ele>1396.699</ele>
        <time>2018-09-13T14:43:37Z</time>
      </trkpt>
      <trkpt lat="44.04736" lon="6.44308">
        <ele>1396.656</ele>
        <time>2018-09-13T14:43:38Z</time>
      </trkpt>
      <trkpt lat="44.04745" lon="6.44309">
        <ele>1396.69</ele>
        <time>2018-09-13T14:43:39Z</time>
      </trkpt>
      <trkpt lat="44.04753" lon="6.44309">
        <ele>1396.621</ele>
        <time>2018-09-13T14:43:40Z</time>
      </trkpt>
      <trkpt lat="44.04761" lon="6.44309">
        <ele>1398.528</ele>
        <time>2018-09-13T14:43:41Z</time>
      </trkpt>
      <trkpt lat="44.04767" lon="6.44308">
        <ele>1398.516</ele>
        <time>2018-09-13T14:43:42Z</time>
      </trkpt>
      <trkpt lat="44.04774" lon="6.44308">
        <ele>1398.537</ele>
        <time>2018-09-13T14:43:43Z</time>
      </trkpt>
      <trkpt lat="44.04781" lon="6.44309">
        <ele>1398.557</ele>
        <time>2018-09-13T14:43:44Z</time>
      </trkpt>
      <trkpt lat="44.04787" lon="6.44309">
        <ele>1398.5</ele>
        <time>2018-09-13T14:43:45Z</time>
      </trkpt>
      <trkpt lat="44.04794" lon="6.4431">
        <ele>1398.52</ele>
        <time>2018-09-13T14:43:46Z</time>
      </trkpt>
      <trkpt lat="44.04801" lon="6.44311">
        <ele>1398.508</ele>
        <time>2018-09-13T14:43:47Z</time>
      </trkpt>
      <trkpt lat="44.04808" lon="6.44311">
        <ele>1399.137</ele>
        <time>2018-09-13T14:43:48Z</time>
      </trkpt>
      <trkpt lat="44.04815" lon="6.44312">
        <ele>1399.183</ele>
        <time>2018-09-13T14:43:49Z</time>
      </trkpt>
      <trkpt lat="44.04821" lon="6.44312">
        <ele>1399.19</ele>
        <time>2018-09-13T14:43:50Z</time>
      </trkpt>
      <trkpt lat="44.04828" lon="6.44311">
        <ele>1399.134</ele>
        <time>2018-09-13T14:43:51Z</time>
      </trkpt>
      <trkpt lat="44.04834" lon="6.4431">
        <ele>1398.035</ele>
        <time>2018-09-13T14:43:52Z</time>
      </trkpt>
      <trkpt lat="44.0484" lon="6.4431">
        <ele>1397.612</ele>
        <time>2018-09-13T14:43:53Z</time>
      </trkpt>
      <trkpt lat="44.04846" lon="6.44307">
        <ele>1397.68</ele>
        <time>2018-09-13T14:43:54Z</time>
      </trkpt>
      <trkpt lat="44.04853" lon="6.44306">
        <ele>1397.691</ele>
        <time>2018-09-13T14:43:55Z</time>
      </trkpt>
      <trkpt lat="44.04861" lon="6.44302">
        <ele>1397.096</ele>
        <time>2018-09-13T14:43:56Z</time>
      </trkpt>
      <trkpt lat="44.04868" lon="6.44297">
        <ele>1397.031</ele>
        <time>2018-09-13T14:43:57Z</time>
      </trkpt>
      <trkpt lat="44.04876" lon="6.44296">
        <ele>1397.024</ele>
        <time>2018-09-13T14:43:58Z</time>
      </trkpt>
      <trkpt lat="44.04883" lon="6.44291">
        <ele>1397.008</ele>
        <time>2018-09-13T14:43:59Z</time>
      </trkpt>
      <trkpt lat="44.0489" lon="6.44287">
        <ele>1396.621</ele>
        <time>2018-09-13T14:44:00Z</time>
      </trkpt>
      <trkpt lat="44.04897" lon="6.44282">
        <ele>1396.677</ele>
        <time>2018-09-13T14:44:01Z</time>
      </trkpt>
      <trkpt lat="44.04905" lon="6.44278">
        <ele>1396.624</ele>
        <time>2018-09-13T14:44:02Z</time>
      </trkpt>
      <trkpt lat="44.04912" lon="6.44274">
        <ele>1396.668</ele>
        <time>2018-09-13T14:44:03Z</time>
      </trkpt>
      <trkpt lat="44.04919" lon="6.44271">
        <ele>1396.069</ele>
        <time>2018-09-13T14:44:04Z</time>
      </trkpt>
      <trkpt lat="44.04925" lon="6.44265">
        <ele>1396.026</ele>
        <time>2018-09-13T14:44:05Z</time>
      </trkpt>
      <trkpt lat="44.04932" lon="6.44261">
        <ele>1396.054</ele>
        <time>2018-09-13T14:44:06Z</time>
      </trkpt>
      <trkpt lat="44.04938" lon="6.44257">
        <ele>1396.045</ele>
        <time>2018-09-13T14:44:07Z</time>
      </trkpt>
      <trkpt lat="44.04945" lon="6.44254">
        <ele>1395.858</ele>
        <time>2018-09-13T14:44:08Z</time>
      </trkpt>
      <trkpt lat="44.04951" lon="6.44252">
        <ele>1395.852</ele>
        <time>2018-09-13T14:44:09Z</time>
      </trkpt>
      <trkpt lat="44.04958" lon="6.44252">
        <ele>1395.817</ele>
        <time>2018-09-13T14:44:10Z</time>
      </trkpt>
      <trkpt lat="44.04964" lon="6.44254">
        <ele>1395.808</ele>
        <time>2018-09-13T14:44:11Z</time>
      </trkpt>
      <trkpt lat="44.04972" lon="6.44254">
        <ele>1395.747</ele>
        <time>2018-09-13T14:44:12Z</time>
      </trkpt>
      <trkpt lat="44.04979" lon="6.44253">
        <ele>1395.793</ele>
        <time>2018-09-13T14:44:13Z</time>
      </trkpt>
      <trkpt lat="44.04988" lon="6.44252">
        <ele>1395.79</ele>
        <time>2018-09-13T14:44:14Z</time>
      </trkpt>
      <trkpt lat="44.04996" lon="6.4425">
        <ele>1395.744</ele>
        <time>2018-09-13T14:44:15Z</time>
      </trkpt>
      <trkpt lat="44.05004" lon="6.4425">
        <ele>1395.725</ele>
        <time>2018-09-13T14:44:16Z</time>
      </trkpt>
      <trkpt lat="44.05013" lon="6.44251">
        <ele>1395.042</ele>
        <time>2018-09-13T14:44:17Z</time>
      </trkpt>
      <trkpt lat="44.05022" lon="6.44254">
        <ele>1395.09</ele>
        <time>2018-09-13T14:44:18Z</time>
      </trkpt>
      <trkpt lat="44.05031" lon="6.44259">
        <ele>1395.091</ele>
        <time>2018-09-13T14:44:19Z</time>
      </trkpt>
      <trkpt lat="44.05041" lon="6.44264">
        <ele>1395.028</ele>
        <time>2018-09-13T14:44:20Z</time>
      </trkpt>
      <trkpt lat="44.05051" lon="6.44267">
        <ele>1395.089</ele>
        <time>2018-09-13T14:44:21Z</time>
      </trkpt>
      <trkpt lat="44.05061" lon="6.44268">
        <ele>1395.017</ele>
        <time>2018-09-13T14:44:22Z</time>
      </trkpt>
      <trkpt lat="44.05071" lon="6.44265">
        <ele>1394.808</ele>
        <time>2018-09-13T14:44:23Z</time>
      </trkpt>
      <trkpt lat="44.05081" lon="6.44259">
        <ele>1394.824</ele>
        <time>2018-09-13T14:44:24Z</time>
      </trkpt>
      <trkpt lat="44.05092" lon="6.44253">
        <ele>1394.86</ele>
        <time>2018-09-13T14:44:25Z</time>
      </trkpt>
      <trkpt lat="44.05104" lon="6.44248">
        <ele>1394.837</ele>
        <time>2018-09-13T14:44:26Z</time>
      </trkpt>
      <trkpt lat="44.05115" lon="6.44242">
        <ele>1394.811</ele>
        <time>2018-09-13T14:44:27Z</time>
      </trkpt>
      <trkpt lat="44.05127" lon="6.44237">
        <ele>1393.432</ele>
        <time>2018-09-13T14:44:28Z</time>
      </trkpt>
      <trkpt lat="44.05138" lon="6.4423">
        <ele>1393.479</ele>
        <time>2018-09-13T14:44:29Z</time>
      </trkpt>
      <trkpt lat="44.05147" lon="6.44221">
        <ele>1393.487</ele>
        <time>2018-09-13T14:44:30Z</time>
      </trkpt>
      <trkpt lat="44.05155" lon="6.44209">
        <ele>1393.128</ele>
        <time>2018-09-13T14:44:31Z</time>
      </trkpt>
      <trkpt lat="44.05161" lon="6.44196">
        <ele>1393.123</ele>
        <time>2018-09-13T14:44:32Z</time>
      </trkpt>
      <trkpt lat="44.05167" lon="6.44184">
        <ele>1393.183</ele>
        <time>2018-09-13T14:44:33Z</time>
      </trkpt>
      <trkpt lat="44.05176" lon="6.44176">
        <ele>1391.911</ele>
        <time>2018-09-13T14:44:34Z</time>
      </trkpt>
      <trkpt lat="44.05184" lon="6.44168">
        <ele>1391.908</ele>
        <time>2018-09-13T14:44:35Z</time>
      </trkpt>
      <trkpt lat="44.05194" lon="6.44161">
        <ele>1391.914</ele>
        <time>2018-09-13T14:44:36Z</time>
      </trkpt>
      <trkpt lat="44.05203" lon="6.44154">
        <ele>1391.99</ele>
        <time>2018-09-13T14:44:37Z</time>
      </trkpt>
      <trkpt lat="44.05213" lon="6.44146">
        <ele>1391.637</ele>
        <time>2018-09-13T14:44:38Z</time>
      </trkpt>
      <trkpt lat="44.05223" lon="6.44139">
        <ele>1392.221</ele>
        <time>2018-09-13T14:44:39Z</time>
      </trkpt>
      <trkpt lat="44.05234" lon="6.44131">
        <ele>1392.892</ele>
        <time>2018-09-13T14:44:40Z</time>
      </trkpt>
      <trkpt lat="44.05245" lon="6.44123">
        <ele>1392.849</ele>
        <time>2018-09-13T14:44:41Z</time>
      </trkpt>
      <trkpt lat="44.05256" lon="6.44117">
        <ele>1392.877</ele>
        <time>2018-09-13T14:44:42Z</time>
      </trkpt>
      <trkpt lat="44.05267" lon="6.44111">
        <ele>1392.878</ele>
        <time>2018-09-13T14:44:43Z</time>
      </trkpt>
      <trkpt lat="44.05279" lon="6.44105">
        <ele>1392.859</ele>
        <time>2018-09-13T14:44:44Z</time>
      </trkpt>
      <trkpt lat="44.05291" lon="6.44101">
        <ele>1392.803</ele>
        <time>2018-09-13T14:44:45Z</time>
      </trkpt>
      <trkpt lat="44.05302" lon="6.44097">
        <ele>1394.623</ele>
        <time>2018-09-13T14:44:46Z</time>
      </trkpt>
      <trkpt lat="44.05314" lon="6.44093">
        <ele>1394.608</ele>
        <time>2018-09-13T14:44:47Z</time>
      </trkpt>
      <trkpt lat="44.05326" lon="6.44089">
        <ele>1394.677</ele>
        <time>2018-09-13T14:44:48Z</time>
      </trkpt>
      <trkpt lat="44.05337" lon="6.44085">
        <ele>1394.633</ele>
        <time>2018-09-13T14:44:49Z</time>
      </trkpt>
      <trkpt lat="44.0535" lon="6.4408">
        <ele>1394.66</ele>
        <time>2018-09-13T14:44:50Z</time>
      </trkpt>
      <trkpt lat="44.05362" lon="6.44076">
        <ele>1396.724</ele>
        <time>2018-09-13T14:44:51Z</time>
      </trkpt>
      <trkpt lat="44.05374" lon="6.44072">
        <ele>1396.775</ele>
        <time>2018-09-13T14:44:52Z</time>
      </trkpt>
      <trkpt lat="44.05385" lon="6.44069">
        <ele>1396.732</ele>
        <time>2018-09-13T14:44:53Z</time>
      </trkpt>
      <trkpt lat="44.05396" lon="6.44063">
        <ele>1396.77</ele>
        <time>2018-09-13T14:44:54Z</time>
      </trkpt>
      <trkpt lat="44.05405" lon="6.44057">
        <ele>1396.761</ele>
        <time>2018-09-13T14:44:55Z</time>
      </trkpt>
      <trkpt lat="44.05413" lon="6.4405">
        <ele>1398.528</ele>
        <time>2018-09-13T14:44:56Z</time>
      </trkpt>
      <trkpt lat="44.0542" lon="6.44043">
        <ele>1398.589</ele>
        <time>2018-09-13T14:44:57Z</time>
      </trkpt>
      <trkpt lat="44.05428" lon="6.44037">
        <ele>1398.517</ele>
        <time>2018-09-13T14:44:58Z</time>
      </trkpt>
      <trkpt lat="44.05435" lon="6.44033">
        <ele>1398.508</ele>
        <time>2018-09-13T14:44:59Z</time>
      </trkpt>
      <trkpt lat="44.05443" lon="6.44031">
        <ele>1398.524</ele>
        <time>2018-09-13T14:45:00Z</time>
      </trkpt>
      <trkpt lat="44.05452" lon="6.44031">
        <ele>1398.56</ele>
        <time>2018-09-13T14:45:01Z</time>
      </trkpt>
      <trkpt lat="44.05462" lon="6.44031">
        <ele>1398.537</ele>
        <time>2018-09-13T14:45:02Z</time>
      </trkpt>
      <trkpt lat="44.05471" lon="6.44034">
        <ele>1397.621</ele>
        <time>2018-09-13T14:45:03Z</time>
      </trkpt>
      <trkpt lat="44.0548" lon="6.44037">
        <ele>1397.662</ele>
        <time>2018-09-13T14:45:04Z</time>
      </trkpt>
      <trkpt lat="44.0549" lon="6.44041">
        <ele>1397.679</ele>
        <time>2018-09-13T14:45:05Z</time>
      </trkpt>
      <trkpt lat="44.05499" lon="6.44045">
        <ele>1397.697</ele>
        <time>2018-09-13T14:45:06Z</time>
      </trkpt>
      <trkpt lat="44.05509" lon="6.44048">
        <ele>1397.628</ele>
        <time>2018-09-13T14:45:07Z</time>
      </trkpt>
      <trkpt lat="44.05519" lon="6.44049">
        <ele>1397.641</ele>
        <time>2018-09-13T14:45:08Z</time>
      </trkpt>
      <trkpt lat="44.05529" lon="6.44049">
        <ele>1399.681</ele>
        <time>2018-09-13T14:45:09Z</time>
      </trkpt>
      <trkpt lat="44.05539" lon="6.44047">
        <ele>1399.609</ele>
        <time>2018-09-13T14:45:10Z</time>
      </trkpt>
      <trkpt lat="44.05549" lon="6.44045">
        <ele>1399.608</ele>
        <time>2018-09-13T14:45:11Z</time>
      </trkpt>
      <trkpt lat="44.05559" lon="6.44041">
        <ele>1399.686</ele>
        <time>2018-09-13T14:45:12Z</time>
      </trkpt>
      <trkpt lat="44.05569" lon="6.44036">
        <ele>1399.682</ele>
        <time>2018-09-13T14:45:13Z</time>
      </trkpt>
      <trkpt lat="44.05578" lon="6.44029">
        <ele>1399.689</ele>
        <time>2018-09-13T14:45:14Z</time>
      </trkpt>
      <trkpt lat="44.05586" lon="6.4402">
        <ele>1399.643</ele>
        <time>2018-09-13T14:45:15Z</time>
      </trkpt>
      <trkpt lat="44.05596" lon="6.44013">
        <ele>1401.544</ele>
        <time>2018-09-13T14:45:16Z</time>
      </trkpt>
      <trkpt lat="44.05606" lon="6.44007">
        <ele>1401.551</ele>
        <time>2018-09-13T14:45:17Z</time>
      </trkpt>
      <trkpt lat="44.05617" lon="6.44003">
        <ele>1401.579</ele>
        <time>2018-09-13T14:45:18Z</time>
      </trkpt>
      <trkpt lat="44.05627" lon="6.43997">
        <ele>1401.55</ele>
        <time>2018-09-13T14:45:19Z</time>
      </trkpt>
      <trkpt lat="44.05638" lon="6.43992">
        <ele>1401.523</ele>
        <time>2018-09-13T14:45:20Z</time>
      </trkpt>
      <trkpt lat="44.05649" lon="6.43986">
        <ele>1402.883</ele>
        <time>2018-09-13T14:45:21Z</time>
      </trkpt>
      <trkpt lat="44.0566" lon="6.43981">
        <ele>1402.811</ele>
        <time>2018-09-13T14:45:22Z</time>
      </trkpt>
      <trkpt lat="44.05671" lon="6.43975">
        <ele>1402.808</ele>
        <time>2018-09-13T14:45:23Z</time>
      </trkpt>
      <trkpt lat="44.05683" lon="6.4397">
        <ele>1402.864</ele>
        <time>2018-09-13T14:45:24Z</time>
      </trkpt>
      <trkpt lat="44.05694" lon="6.43964">
        <ele>1402.89</ele>
        <time>2018-09-13T14:45:25Z</time>
      </trkpt>
      <trkpt lat="44.05705" lon="6.43958">
        <ele>1402.817</ele>
        <time>2018-09-13T14:45:26Z</time>
      </trkpt>
      <trkpt lat="44.05716" lon="6.43952">
        <ele>1402.831</ele>
        <time>2018-09-13T14:45:27Z</time>
      </trkpt>
      <trkpt lat="44.05726" lon="6.43946">
        <ele>1404.482</ele>
        <time>2018-09-13T14:45:28Z</time>
      </trkpt>
      <trkpt lat="44.05737" lon="6.43941">
        <ele>1404.429</ele>
        <time>2018-09-13T14:45:29Z</time>
      </trkpt>
      <trkpt lat="44.05749" lon="6.43936">
        <ele>1404.487</ele>
        <time>2018-09-13T14:45:30Z</time>
      </trkpt>
      <trkpt lat="44.05761" lon="6.43933">
        <ele>1404.428</ele>
        <time>2018-09-13T14:45:31Z</time>
      </trkpt>
      <trkpt lat="44.05772" lon="6.43931">
        <ele>1404.447</ele>
        <time>2018-09-13T14:45:32Z</time>
      </trkpt>
      <trkpt lat="44.05784" lon="6.43929">
        <ele>1404.429</ele>
        <time>2018-09-13T14:45:33Z</time>
      </trkpt>
      <trkpt lat="44.05796" lon="6.43928">
        <ele>1405.621</ele>
        <time>2018-09-13T14:45:34Z</time>
      </trkpt>
      <trkpt lat="44.05808" lon="6.43926">
        <ele>1405.608</ele>
        <time>2018-09-13T14:45:35Z</time>
      </trkpt>
      <trkpt lat="44.05819" lon="6.43925">
        <ele>1405.696</ele>
        <time>2018-09-13T14:45:36Z</time>
      </trkpt>
      <trkpt lat="44.05831" lon="6.43923">
        <ele>1405.642</ele>
        <time>2018-09-13T14:45:37Z</time>
      </trkpt>
      <trkpt lat="44.05842" lon="6.4392">
        <ele>1405.699</ele>
        <time>2018-09-13T14:45:38Z</time>
      </trkpt>
      <trkpt lat="44.05854" lon="6.43919">
        <ele>1406.633</ele>
        <time>2018-09-13T14:45:39Z</time>
      </trkpt>
      <trkpt lat="44.05865" lon="6.43919">
        <ele>1406.694</ele>
        <time>2018-09-13T14:45:40Z</time>
      </trkpt>
      <trkpt lat="44.05877" lon="6.43918">
        <ele>1406.681</ele>
        <time>2018-09-13T14:45:41Z</time>
      </trkpt>
      <trkpt lat="44.05889" lon="6.43917">
        <ele>1406.639</ele>
        <time>2018-09-13T14:45:42Z</time>
      </trkpt>
      <trkpt lat="44.05901" lon="6.43915">
        <ele>1406.69</ele>
        <time>2018-09-13T14:45:43Z</time>
      </trkpt>
      <trkpt lat="44.05913" lon="6.43915">
        <ele>1409.633</ele>
        <time>2018-09-13T14:45:44Z</time>
      </trkpt>
      <trkpt lat="44.05926" lon="6.43914">
        <ele>1409.623</ele>
        <time>2018-09-13T14:45:45Z</time>
      </trkpt>
      <trkpt lat="44.05937" lon="6.43913">
        <ele>1412.115</ele>
        <time>2018-09-13T14:45:46Z</time>
      </trkpt>
      <trkpt lat="44.05949" lon="6.43912">
        <ele>1412.108</ele>
        <time>2018-09-13T14:45:47Z</time>
      </trkpt>
      <trkpt lat="44.05959" lon="6.43912">
        <ele>1412.195</ele>
        <time>2018-09-13T14:45:48Z</time>
      </trkpt>
      <trkpt lat="44.05969" lon="6.43913">
        <ele>1412.161</ele>
        <time>2018-09-13T14:45:49Z</time>
      </trkpt>
      <trkpt lat="44.05978" lon="6.43917">
        <ele>1412.168</ele>
        <time>2018-09-13T14:45:50Z</time>
      </trkpt>
      <trkpt lat="44.05986" lon="6.43922">
        <ele>1412.132</ele>
        <time>2018-09-13T14:45:51Z</time>
      </trkpt>
      <trkpt lat="44.05993" lon="6.43929">
        <ele>1412.493</ele>
        <time>2018-09-13T14:45:52Z</time>
      </trkpt>
      <trkpt lat="44.06001" lon="6.43935">
        <ele>1412.49</ele>
        <time>2018-09-13T14:45:53Z</time>
      </trkpt>
      <trkpt lat="44.06009" lon="6.43943">
        <ele>1412.498</ele>
        <time>2018-09-13T14:45:54Z</time>
      </trkpt>
      <trkpt lat="44.06017" lon="6.4395">
        <ele>1412.369</ele>
        <time>2018-09-13T14:45:55Z</time>
      </trkpt>
      <trkpt lat="44.06026" lon="6.43958">
        <ele>1412.373</ele>
        <time>2018-09-13T14:45:56Z</time>
      </trkpt>
      <trkpt lat="44.06035" lon="6.43965">
        <ele>1412.385</ele>
        <time>2018-09-13T14:45:57Z</time>
      </trkpt>
      <trkpt lat="44.06044" lon="6.43972">
        <ele>1412.313</ele>
        <time>2018-09-13T14:45:58Z</time>
      </trkpt>
      <trkpt lat="44.06054" lon="6.43975">
        <ele>1412.308</ele>
        <time>2018-09-13T14:45:59Z</time>
      </trkpt>
      <trkpt lat="44.06063" lon="6.43978">
        <ele>1412.379</ele>
        <time>2018-09-13T14:46:00Z</time>
      </trkpt>
      <trkpt lat="44.06074" lon="6.4398">
        <ele>1413.775</ele>
        <time>2018-09-13T14:46:01Z</time>
      </trkpt>
      <trkpt lat="44.06084" lon="6.43982">
        <ele>1413.752</ele>
        <time>2018-09-13T14:46:02Z</time>
      </trkpt>
      <trkpt lat="44.06095" lon="6.43984">
        <ele>1413.716</ele>
        <time>2018-09-13T14:46:03Z</time>
      </trkpt>
      <trkpt lat="44.06104" lon="6.43986">
        <ele>1413.777</ele>
        <time>2018-09-13T14:46:04Z</time>
      </trkpt>
      <trkpt lat="44.06113" lon="6.43988">
        <ele>1413.734</ele>
        <time>2018-09-13T14:46:05Z</time>
      </trkpt>
      <trkpt lat="44.06122" lon="6.43987">
        <ele>1415.112</ele>
        <time>2018-09-13T14:46:06Z</time>
      </trkpt>
      <trkpt lat="44.06129" lon="6.43988">
        <ele>1415.193</ele>
        <time>2018-09-13T14:46:07Z</time>
      </trkpt>
      <trkpt lat="44.06138" lon="6.43986">
        <ele>1415.141</ele>
        <time>2018-09-13T14:46:08Z</time>
      </trkpt>
      <trkpt lat="44.06146" lon="6.43983">
        <ele>1415.181</ele>
        <time>2018-09-13T14:46:09Z</time>
      </trkpt>
      <trkpt lat="44.06156" lon="6.4398">
        <ele>1415.109</ele>
        <time>2018-09-13T14:46:10Z</time>
      </trkpt>
      <trkpt lat="44.06165" lon="6.43976">
        <ele>1416.908</ele>
        <time>2018-09-13T14:46:11Z</time>
      </trkpt>
      <trkpt lat="44.06174" lon="6.43973">
        <ele>1416.946</ele>
        <time>2018-09-13T14:46:12Z</time>
      </trkpt>
      <trkpt lat="44.06184" lon="6.43969">
        <ele>1416.992</ele>
        <time>2018-09-13T14:46:13Z</time>
      </trkpt>
      <trkpt lat="44.06194" lon="6.43967">
        <ele>1417.479</ele>
        <time>2018-09-13T14:46:14Z</time>
      </trkpt>
      <trkpt lat="44.06203" lon="6.43964">
        <ele>1417.443</ele>
        <time>2018-09-13T14:46:15Z</time>
      </trkpt>
      <trkpt lat="44.06212" lon="6.43959">
        <ele>1417.424</ele>
        <time>2018-09-13T14:46:16Z</time>
      </trkpt>
      <trkpt lat="44.06221" lon="6.43954">
        <ele>1417.491</ele>
        <time>2018-09-13T14:46:17Z</time>
      </trkpt>
      <trkpt lat="44.06231" lon="6.43949">
        <ele>1417.499</ele>
        <time>2018-09-13T14:46:18Z</time>
      </trkpt>
      <trkpt lat="44.06241" lon="6.43943">
        <ele>1418.87</ele>
        <time>2018-09-13T14:46:19Z</time>
      </trkpt>
      <trkpt lat="44.0625" lon="6.43938">
        <ele>1418.838</ele>
        <time>2018-09-13T14:46:20Z</time>
      </trkpt>
      <trkpt lat="44.0626" lon="6.43933">
        <ele>1418.87</ele>
        <time>2018-09-13T14:46:21Z</time>
      </trkpt>
      <trkpt lat="44.06271" lon="6.43929">
        <ele>1418.817</ele>
        <time>2018-09-13T14:46:22Z</time>
      </trkpt>
      <trkpt lat="44.06281" lon="6.43923">
        <ele>1418.808</ele>
        <time>2018-09-13T14:46:23Z</time>
      </trkpt>
      <trkpt lat="44.06291" lon="6.43919">
        <ele>1419.995</ele>
        <time>2018-09-13T14:46:24Z</time>
      </trkpt>
      <trkpt lat="44.06301" lon="6.43915">
        <ele>1420.271</ele>
        <time>2018-09-13T14:46:25Z</time>
      </trkpt>
      <trkpt lat="44.06311" lon="6.4391">
        <ele>1420.288</ele>
        <time>2018-09-13T14:46:26Z</time>
      </trkpt>
      <trkpt lat="44.06322" lon="6.43906">
        <ele>1420.282</ele>
        <time>2018-09-13T14:46:27Z</time>
      </trkpt>
      <trkpt lat="44.06332" lon="6.43901">
        <ele>1420.283</ele>
        <time>2018-09-13T14:46:28Z</time>
      </trkpt>
      <trkpt lat="44.06342" lon="6.43897">
        <ele>1420.26</ele>
        <time>2018-09-13T14:46:29Z</time>
      </trkpt>
      <trkpt lat="44.06352" lon="6.43891">
        <ele>1422.238</ele>
        <time>2018-09-13T14:46:30Z</time>
      </trkpt>
      <trkpt lat="44.06363" lon="6.43886">
        <ele>1422.269</ele>
        <time>2018-09-13T14:46:31Z</time>
      </trkpt>
      <trkpt lat="44.06374" lon="6.4388">
        <ele>1422.217</ele>
        <time>2018-09-13T14:46:32Z</time>
      </trkpt>
      <trkpt lat="44.06384" lon="6.43876">
        <ele>1422.287</ele>
        <time>2018-09-13T14:46:33Z</time>
      </trkpt>
      <trkpt lat="44.06394" lon="6.43871">
        <ele>1422.215</ele>
        <time>2018-09-13T14:46:34Z</time>
      </trkpt>
      <trkpt lat="44.06404" lon="6.43865">
        <ele>1424.408</ele>
        <time>2018-09-13T14:46:35Z</time>
      </trkpt>
      <trkpt lat="44.06415" lon="6.4386">
        <ele>1424.473</ele>
        <time>2018-09-13T14:46:36Z</time>
      </trkpt>
      <trkpt lat="44.06426" lon="6.43854">
        <ele>1424.449</ele>
        <time>2018-09-13T14:46:37Z</time>
      </trkpt>
      <trkpt lat="44.06437" lon="6.43847">
        <ele>1424.476</ele>
        <time>2018-09-13T14:46:38Z</time>
      </trkpt>
      <trkpt lat="44.06446" lon="6.43841">
        <ele>1424.48</ele>
        <time>2018-09-13T14:46:39Z</time>
      </trkpt>
      <trkpt lat="44.06457" lon="6.43836">
        <ele>1426.021</ele>
        <time>2018-09-13T14:46:40Z</time>
      </trkpt>
      <trkpt lat="44.06467" lon="6.43831">
        <ele>1426.388</ele>
        <time>2018-09-13T14:46:41Z</time>
      </trkpt>
      <trkpt lat="44.06477" lon="6.43826">
        <ele>1426.346</ele>
        <time>2018-09-13T14:46:42Z</time>
      </trkpt>
      <trkpt lat="44.06488" lon="6.43823">
        <ele>1426.347</ele>
        <time>2018-09-13T14:46:43Z</time>
      </trkpt>
      <trkpt lat="44.06498" lon="6.43821">
        <ele>1426.342</ele>
        <time>2018-09-13T14:46:44Z</time>
      </trkpt>
      <trkpt lat="44.06509" lon="6.43819">
        <ele>1426.322</ele>
        <time>2018-09-13T14:46:45Z</time>
      </trkpt>
      <trkpt lat="44.0652" lon="6.43817">
        <ele>1426.314</ele>
        <time>2018-09-13T14:46:46Z</time>
      </trkpt>
      <trkpt lat="44.06531" lon="6.43815">
        <ele>1427.908</ele>
        <time>2018-09-13T14:46:47Z</time>
      </trkpt>
      <trkpt lat="44.06542" lon="6.43813">
        <ele>1427.966</ele>
        <time>2018-09-13T14:46:48Z</time>
      </trkpt>
      <trkpt lat="44.06554" lon="6.43811">
        <ele>1427.992</ele>
        <time>2018-09-13T14:46:49Z</time>
      </trkpt>
      <trkpt lat="44.06565" lon="6.43809">
        <ele>1427.939</ele>
        <time>2018-09-13T14:46:50Z</time>
      </trkpt>
      <trkpt lat="44.06577" lon="6.43806">
        <ele>1427.953</ele>
        <time>2018-09-13T14:46:51Z</time>
      </trkpt>
      <trkpt lat="44.06589" lon="6.43805">
        <ele>1427.964</ele>
        <time>2018-09-13T14:46:52Z</time>
      </trkpt>
      <trkpt lat="44.066" lon="6.43802">
        <ele>1430.081</ele>
        <time>2018-09-13T14:46:53Z</time>
      </trkpt>
      <trkpt lat="44.06612" lon="6.43802">
        <ele>1430.049</ele>
        <time>2018-09-13T14:46:54Z</time>
      </trkpt>
      <trkpt lat="44.06623" lon="6.43799">
        <ele>1430.06</ele>
        <time>2018-09-13T14:46:55Z</time>
      </trkpt>
      <trkpt lat="44.06633" lon="6.43796">
        <ele>1430.076</ele>
        <time>2018-09-13T14:46:56Z</time>
      </trkpt>
      <trkpt lat="44.06643" lon="6.43792">
        <ele>1430.09</ele>
        <time>2018-09-13T14:46:57Z</time>
      </trkpt>
      <trkpt lat="44.06653" lon="6.43789">
        <ele>1432.819</ele>
        <time>2018-09-13T14:46:58Z</time>
      </trkpt>
      <trkpt lat="44.06663" lon="6.43786">
        <ele>1432.808</ele>
        <time>2018-09-13T14:46:59Z</time>
      </trkpt>
      <trkpt lat="44.06673" lon="6.43785">
        <ele>1433.689</ele>
        <time>2018-09-13T14:47:00Z</time>
      </trkpt>
      <trkpt lat="44.06683" lon="6.43786">
        <ele>1433.695</ele>
        <time>2018-09-13T14:47:01Z</time>
      </trkpt>
      <trkpt lat="44.06693" lon="6.43786">
        <ele>1433.672</ele>
        <time>2018-09-13T14:47:02Z</time>
      </trkpt>
      <trkpt lat="44.06703" lon="6.43787">
        <ele>1435.186</ele>
        <time>2018-09-13T14:47:03Z</time>
      </trkpt>
      <trkpt lat="44.06714" lon="6.43788">
        <ele>1435.147</ele>
        <time>2018-09-13T14:47:04Z</time>
      </trkpt>
      <trkpt lat="44.06724" lon="6.43788">
        <ele>1435.114</ele>
        <time>2018-09-13T14:47:05Z</time>
      </trkpt>
      <trkpt lat="44.06734" lon="6.43787">
        <ele>1435.132</ele>
        <time>2018-09-13T14:47:06Z</time>
      </trkpt>
      <trkpt lat="44.06745" lon="6.43786">
        <ele>1438.813</ele>
        <time>2018-09-13T14:47:07Z</time>
      </trkpt>
      <trkpt lat="44.06755" lon="6.43785">
        <ele>1438.816</ele>
        <time>2018-09-13T14:47:08Z</time>
      </trkpt>
      <trkpt lat="44.06766" lon="6.43782">
        <ele>1438.876</ele>
        <time>2018-09-13T14:47:09Z</time>
      </trkpt>
      <trkpt lat="44.06775" lon="6.43778">
        <ele>1438.813</ele>
        <time>2018-09-13T14:47:10Z</time>
      </trkpt>
      <trkpt lat="44.06785" lon="6.43775">
        <ele>1438.808</ele>
        <time>2018-09-13T14:47:11Z</time>
      </trkpt>
      <trkpt lat="44.06796" lon="6.43771">
        <ele>1438.883</ele>
        <time>2018-09-13T14:47:12Z</time>
      </trkpt>
      <trkpt lat="44.06806" lon="6.43768">
        <ele>1438.849</ele>
        <time>2018-09-13T14:47:13Z</time>
      </trkpt>
      <trkpt lat="44.06818" lon="6.43767">
        <ele>1438.886</ele>
        <time>2018-09-13T14:47:14Z</time>
      </trkpt>
      <trkpt lat="44.06828" lon="6.43766">
        <ele>1442.73</ele>
        <time>2018-09-13T14:47:15Z</time>
      </trkpt>
      <trkpt lat="44.06839" lon="6.43766">
        <ele>1442.771</ele>
        <time>2018-09-13T14:47:16Z</time>
      </trkpt>
      <trkpt lat="44.06849" lon="6.43766">
        <ele>1442.748</ele>
        <time>2018-09-13T14:47:17Z</time>
      </trkpt>
      <trkpt lat="44.06859" lon="6.43769">
        <ele>1442.716</ele>
        <time>2018-09-13T14:47:18Z</time>
      </trkpt>
      <trkpt lat="44.0687" lon="6.43771">
        <ele>1442.747</ele>
        <time>2018-09-13T14:47:19Z</time>
      </trkpt>
      <trkpt lat="44.0688" lon="6.4377">
        <ele>1444.586</ele>
        <time>2018-09-13T14:47:20Z</time>
      </trkpt>
      <trkpt lat="44.0689" lon="6.43769">
        <ele>1444.56</ele>
        <time>2018-09-13T14:47:21Z</time>
      </trkpt>
      <trkpt lat="44.06901" lon="6.4377">
        <ele>1444.526</ele>
        <time>2018-09-13T14:47:22Z</time>
      </trkpt>
      <trkpt lat="44.0691" lon="6.43771">
        <ele>1444.908</ele>
        <time>2018-09-13T14:47:23Z</time>
      </trkpt>
      <trkpt lat="44.0692" lon="6.43773">
        <ele>1444.95</ele>
        <time>2018-09-13T14:47:24Z</time>
      </trkpt>
      <trkpt lat="44.06929" lon="6.43775">
        <ele>1444.916</ele>
        <time>2018-09-13T14:47:25Z</time>
      </trkpt>
      <trkpt lat="44.06938" lon="6.43776">
        <ele>1447.053</ele>
        <time>2018-09-13T14:47:26Z</time>
      </trkpt>
      <trkpt lat="44.06947" lon="6.43776">
        <ele>1449.747</ele>
        <time>2018-09-13T14:47:27Z</time>
      </trkpt>
      <trkpt lat="44.06956" lon="6.43773">
        <ele>1449.748</ele>
        <time>2018-09-13T14:47:28Z</time>
      </trkpt>
      <trkpt lat="44.06965" lon="6.43769">
        <ele>1449.785</ele>
        <time>2018-09-13T14:47:29Z</time>
      </trkpt>
      <trkpt lat="44.06974" lon="6.43764">
        <ele>1449.783</ele>
        <time>2018-09-13T14:47:30Z</time>
      </trkpt>
      <trkpt lat="44.06982" lon="6.43759">
        <ele>1449.714</ele>
        <time>2018-09-13T14:47:31Z</time>
      </trkpt>
      <trkpt lat="44.0699" lon="6.43752">
        <ele>1449.775</ele>
        <time>2018-09-13T14:47:32Z</time>
      </trkpt>
      <trkpt lat="44.06998" lon="6.43747">
        <ele>1449.728</ele>
        <time>2018-09-13T14:47:33Z</time>
      </trkpt>
      <trkpt lat="44.07006" lon="6.43741">
        <ele>1449.72</ele>
        <time>2018-09-13T14:47:34Z</time>
      </trkpt>
      <trkpt lat="44.07013" lon="6.43734">
        <ele>1449.708</ele>
        <time>2018-09-13T14:47:35Z</time>
      </trkpt>
      <trkpt lat="44.07021" lon="6.43725">
        <ele>1449.769</ele>
        <time>2018-09-13T14:47:36Z</time>
      </trkpt>
      <trkpt lat="44.07029" lon="6.43717">
        <ele>1449.735</ele>
        <time>2018-09-13T14:47:37Z</time>
      </trkpt>
      <trkpt lat="44.07036" lon="6.43709">
        <ele>1453.872</ele>
        <time>2018-09-13T14:47:38Z</time>
      </trkpt>
      <trkpt lat="44.07045" lon="6.43706">
        <ele>1453.826</ele>
        <time>2018-09-13T14:47:39Z</time>
      </trkpt>
      <trkpt lat="44.07055" lon="6.43703">
        <ele>1453.877</ele>
        <time>2018-09-13T14:47:40Z</time>
      </trkpt>
      <trkpt lat="44.07065" lon="6.43701">
        <ele>1456.994</ele>
        <time>2018-09-13T14:47:41Z</time>
      </trkpt>
      <trkpt lat="44.07075" lon="6.43702">
        <ele>1456.992</ele>
        <time>2018-09-13T14:47:42Z</time>
      </trkpt>
      <trkpt lat="44.07085" lon="6.43704">
        <ele>1456.943</ele>
        <time>2018-09-13T14:47:43Z</time>
      </trkpt>
      <trkpt lat="44.07094" lon="6.43704">
        <ele>1456.972</ele>
        <time>2018-09-13T14:47:44Z</time>
      </trkpt>
      <trkpt lat="44.07103" lon="6.43706">
        <ele>1456.913</ele>
        <time>2018-09-13T14:47:45Z</time>
      </trkpt>
      <trkpt lat="44.07111" lon="6.43708">
        <ele>1457.614</ele>
        <time>2018-09-13T14:47:46Z</time>
      </trkpt>
      <trkpt lat="44.0712" lon="6.4371">
        <ele>1457.608</ele>
        <time>2018-09-13T14:47:47Z</time>
      </trkpt>
      <trkpt lat="44.07129" lon="6.43712">
        <ele>1457.689</ele>
        <time>2018-09-13T14:47:48Z</time>
      </trkpt>
      <trkpt lat="44.07139" lon="6.43711">
        <ele>1459.375</ele>
        <time>2018-09-13T14:47:49Z</time>
      </trkpt>
      <trkpt lat="44.07148" lon="6.43713">
        <ele>1459.322</ele>
        <time>2018-09-13T14:47:50Z</time>
      </trkpt>
      <trkpt lat="44.07156" lon="6.43713">
        <ele>1459.366</ele>
        <time>2018-09-13T14:47:51Z</time>
      </trkpt>
      <trkpt lat="44.07164" lon="6.43714">
        <ele>1459.397</ele>
        <time>2018-09-13T14:47:52Z</time>
      </trkpt>
      <trkpt lat="44.07172" lon="6.43715">
        <ele>1459.354</ele>
        <time>2018-09-13T14:47:53Z</time>
      </trkpt>
      <trkpt lat="44.07178" lon="6.43716">
        <ele>1459.362</ele>
        <time>2018-09-13T14:47:54Z</time>
      </trkpt>
      <trkpt lat="44.07184" lon="6.43715">
        <ele>1462.373</ele>
        <time>2018-09-13T14:47:55Z</time>
      </trkpt>
      <trkpt lat="44.07189" lon="6.43716">
        <ele>1462.383</ele>
        <time>2018-09-13T14:47:56Z</time>
      </trkpt>
      <trkpt lat="44.07193" lon="6.43717">
        <ele>1462.325</ele>
        <time>2018-09-13T14:47:57Z</time>
      </trkpt>
      <trkpt lat="44.07197" lon="6.43722">
        <ele>1462.317</ele>
        <time>2018-09-13T14:47:58Z</time>
      </trkpt>
      <trkpt lat="44.07202" lon="6.43726">
        <ele>1462.308</ele>
        <time>2018-09-13T14:47:59Z</time>
      </trkpt>
      <trkpt lat="44.07207" lon="6.43729">
        <ele>1462.37</ele>
        <time>2018-09-13T14:48:00Z</time>
      </trkpt>
      <trkpt lat="44.07213" lon="6.43732">
        <ele>1462.366</ele>
        <time>2018-09-13T14:48:01Z</time>
      </trkpt>
      <trkpt lat="44.07219" lon="6.43736">
        <ele>1465.363</ele>
        <time>2018-09-13T14:48:02Z</time>
      </trkpt>
      <trkpt lat="44.07225" lon="6.43739">
        <ele>1465.317</ele>
        <time>2018-09-13T14:48:03Z</time>
      </trkpt>
      <trkpt lat="44.07232" lon="6.43743">
        <ele>1465.338</ele>
        <time>2018-09-13T14:48:04Z</time>
      </trkpt>
      <trkpt lat="44.07237" lon="6.43747">
        <ele>1465.395</ele>
        <time>2018-09-13T14:48:05Z</time>
      </trkpt>
      <trkpt lat="44.07243" lon="6.43751">
        <ele>1465.983</ele>
        <time>2018-09-13T14:48:06Z</time>
      </trkpt>
      <trkpt lat="44.07249" lon="6.43755">
        <ele>1469.034</ele>
        <time>2018-09-13T14:48:07Z</time>
      </trkpt>
      <trkpt lat="44.07255" lon="6.4376">
        <ele>1469.071</ele>
        <time>2018-09-13T14:48:08Z</time>
      </trkpt>
      <trkpt lat="44.07261" lon="6.43763">
        <ele>1469.041</ele>
        <time>2018-09-13T14:48:09Z</time>
      </trkpt>
      <trkpt lat="44.07269" lon="6.43766">
        <ele>1469.015</ele>
        <time>2018-09-13T14:48:10Z</time>
      </trkpt>
      <trkpt lat="44.07275" lon="6.4377">
        <ele>1469.008</ele>
        <time>2018-09-13T14:48:11Z</time>
      </trkpt>
      <trkpt lat="44.07283" lon="6.43773">
        <ele>1473.989</ele>
        <time>2018-09-13T14:48:12Z</time>
      </trkpt>
      <trkpt lat="44.07289" lon="6.43775">
        <ele>1473.975</ele>
        <time>2018-09-13T14:48:13Z</time>
      </trkpt>
      <trkpt lat="44.07296" lon="6.43775">
        <ele>1473.972</ele>
        <time>2018-09-13T14:48:14Z</time>
      </trkpt>
      <trkpt lat="44.07302" lon="6.43777">
        <ele>1473.916</ele>
        <time>2018-09-13T14:48:15Z</time>
      </trkpt>
      <trkpt lat="44.0731" lon="6.43778">
        <ele>1473.977</ele>
        <time>2018-09-13T14:48:16Z</time>
      </trkpt>
      <trkpt lat="44.07317" lon="6.4378">
        <ele>1473.934</ele>
        <time>2018-09-13T14:48:17Z</time>
      </trkpt>
      <trkpt lat="44.07322" lon="6.43783">
        <ele>1479.982</ele>
        <time>2018-09-13T14:48:18Z</time>
      </trkpt>
      <trkpt lat="44.07329" lon="6.43785">
        <ele>1479.923</ele>
        <time>2018-09-13T14:48:19Z</time>
      </trkpt>
      <trkpt lat="44.07336" lon="6.43788">
        <ele>1479.951</ele>
        <time>2018-09-13T14:48:20Z</time>
      </trkpt>
      <trkpt lat="44.07342" lon="6.43791">
        <ele>1479.901</ele>
        <time>2018-09-13T14:48:21Z</time>
      </trkpt>
      <trkpt lat="44.07349" lon="6.43794">
        <ele>1479.911</ele>
        <time>2018-09-13T14:48:22Z</time>
      </trkpt>
      <trkpt lat="44.07356" lon="6.43795">
        <ele>1479.908</ele>
        <time>2018-09-13T14:48:23Z</time>
      </trkpt>
      <trkpt lat="44.07363" lon="6.43795">
        <ele>1487.167</ele>
        <time>2018-09-13T14:48:24Z</time>
      </trkpt>
      <trkpt lat="44.0737" lon="6.43794">
        <ele>1487.123</ele>
        <time>2018-09-13T14:48:25Z</time>
      </trkpt>
      <trkpt lat="44.07377" lon="6.43793">
        <ele>1487.17</ele>
        <time>2018-09-13T14:48:26Z</time>
      </trkpt>
      <trkpt lat="44.07384" lon="6.43792">
        <ele>1487.174</ele>
        <time>2018-09-13T14:48:27Z</time>
      </trkpt>
      <trkpt lat="44.07391" lon="6.43793">
        <ele>1487.175</ele>
        <time>2018-09-13T14:48:28Z</time>
      </trkpt>
      <trkpt lat="44.07399" lon="6.43794">
        <ele>1487.142</ele>
        <time>2018-09-13T14:48:29Z</time>
      </trkpt>
      <trkpt lat="44.07407" lon="6.43798">
        <ele>1487.18</ele>
        <time>2018-09-13T14:48:30Z</time>
      </trkpt>
      <trkpt lat="44.07413" lon="6.43802">
        <ele>1494.961</ele>
        <time>2018-09-13T14:48:31Z</time>
      </trkpt>
      <trkpt lat="44.07419" lon="6.43807">
        <ele>1494.951</ele>
        <time>2018-09-13T14:48:32Z</time>
      </trkpt>
      <trkpt lat="44.07424" lon="6.4381">
        <ele>1494.901</ele>
        <time>2018-09-13T14:48:33Z</time>
      </trkpt>
      <trkpt lat="44.07429" lon="6.43815">
        <ele>1494.911</ele>
        <time>2018-09-13T14:48:34Z</time>
      </trkpt>
      <trkpt lat="44.07434" lon="6.43818">
        <ele>1494.908</ele>
        <time>2018-09-13T14:48:35Z</time>
      </trkpt>
      <trkpt lat="44.07438" lon="6.43822">
        <ele>1494.997</ele>
        <time>2018-09-13T14:48:36Z</time>
      </trkpt>
      <trkpt lat="44.07443" lon="6.43826">
        <ele>1501.233</ele>
        <time>2018-09-13T14:48:38Z</time>
      </trkpt>
      <trkpt lat="44.07447" lon="6.43834">
        <ele>1501.24</ele>
        <time>2018-09-13T14:48:40Z</time>
      </trkpt>
      <trkpt lat="44.07451" lon="6.43844">
        <ele>1501.244</ele>
        <time>2018-09-13T14:48:42Z</time>
      </trkpt>
      <trkpt lat="44.07454" lon="6.43851">
        <ele>1501.215</ele>
        <time>2018-09-13T14:48:43Z</time>
      </trkpt>
      <trkpt lat="44.07456" lon="6.43858">
        <ele>1501.222</ele>
        <time>2018-09-13T14:48:44Z</time>
      </trkpt>
      <trkpt lat="44.07457" lon="6.43864">
        <ele>1501.23</ele>
        <time>2018-09-13T14:48:45Z</time>
      </trkpt>
      <trkpt lat="44.07458" lon="6.43871">
        <ele>1501.251</ele>
        <time>2018-09-13T14:48:46Z</time>
      </trkpt>
      <trkpt lat="44.07459" lon="6.43879">
        <ele>1510.728</ele>
        <time>2018-09-13T14:48:47Z</time>
      </trkpt>
      <trkpt lat="44.0746" lon="6.43885">
        <ele>1510.789</ele>
        <time>2018-09-13T14:48:48Z</time>
      </trkpt>
      <trkpt lat="44.07462" lon="6.43892">
        <ele>1510.717</ele>
        <time>2018-09-13T14:48:49Z</time>
      </trkpt>
      <trkpt lat="44.07465" lon="6.43901">
        <ele>1511.108</ele>
        <time>2018-09-13T14:48:51Z</time>
      </trkpt>
      <trkpt lat="44.07472" lon="6.43909">
        <ele>1513.124</ele>
        <time>2018-09-13T14:49:58Z</time>
      </trkpt>
      <trkpt lat="44.07477" lon="6.43915">
        <ele>1513.16</ele>
        <time>2018-09-13T14:49:59Z</time>
      </trkpt>
      <trkpt lat="44.07483" lon="6.43919">
        <ele>1513.127</ele>
        <time>2018-09-13T14:50:00Z</time>
      </trkpt>
      <trkpt lat="44.07488" lon="6.43924">
        <ele>1513.161</ele>
        <time>2018-09-13T14:50:01Z</time>
      </trkpt>
      <trkpt lat="44.07492" lon="6.4393">
        <ele>1513.112</ele>
        <time>2018-09-13T14:50:02Z</time>
      </trkpt>
      <trkpt lat="44.07498" lon="6.43936">
        <ele>1513.119</ele>
        <time>2018-09-13T14:50:03Z</time>
      </trkpt>
      <trkpt lat="44.07502" lon="6.43941">
        <ele>1518.427</ele>
        <time>2018-09-13T14:50:04Z</time>
      </trkpt>
      <trkpt lat="44.07508" lon="6.43946">
        <ele>1518.498</ele>
        <time>2018-09-13T14:50:05Z</time>
      </trkpt>
      <trkpt lat="44.07514" lon="6.43951">
        <ele>1518.496</ele>
        <time>2018-09-13T14:50:06Z</time>
      </trkpt>
      <trkpt lat="44.07521" lon="6.43957">
        <ele>1518.431</ele>
        <time>2018-09-13T14:50:07Z</time>
      </trkpt>
      <trkpt lat="44.07528" lon="6.43961">
        <ele>1518.424</ele>
        <time>2018-09-13T14:50:08Z</time>
      </trkpt>
      <trkpt lat="44.07534" lon="6.43965">
        <ele>1518.408</ele>
        <time>2018-09-13T14:50:09Z</time>
      </trkpt>
      <trkpt lat="44.07541" lon="6.43969">
        <ele>1518.411</ele>
        <time>2018-09-13T14:50:10Z</time>
      </trkpt>
      <trkpt lat="44.07549" lon="6.43971">
        <ele>1526.337</ele>
        <time>2018-09-13T14:50:11Z</time>
      </trkpt>
      <trkpt lat="44.07556" lon="6.43973">
        <ele>1526.324</ele>
        <time>2018-09-13T14:50:12Z</time>
      </trkpt>
      <trkpt lat="44.07564" lon="6.43976">
        <ele>1526.318</ele>
        <time>2018-09-13T14:50:13Z</time>
      </trkpt>
      <trkpt lat="44.07568" lon="6.43981">
        <ele>1526.329</ele>
        <time>2018-09-13T14:50:14Z</time>
      </trkpt>
      <trkpt lat="44.07576" lon="6.43986">
        <ele>1526.366</ele>
        <time>2018-09-13T14:50:15Z</time>
      </trkpt>
      <trkpt lat="44.07582" lon="6.43993">
        <ele>1526.384</ele>
        <time>2018-09-13T14:50:16Z</time>
      </trkpt>
      <trkpt lat="44.07588" lon="6.43996">
        <ele>1526.325</ele>
        <time>2018-09-13T14:50:17Z</time>
      </trkpt>
      <trkpt lat="44.07592" lon="6.44">
        <ele>1536.377</ele>
        <time>2018-09-13T14:50:18Z</time>
      </trkpt>
      <trkpt lat="44.07599" lon="6.44004">
        <ele>1536.361</ele>
        <time>2018-09-13T14:50:19Z</time>
      </trkpt>
      <trkpt lat="44.07605" lon="6.44007">
        <ele>1536.327</ele>
        <time>2018-09-13T14:50:20Z</time>
      </trkpt>
      <trkpt lat="44.0761" lon="6.44015">
        <ele>1536.308</ele>
        <time>2018-09-13T14:50:21Z</time>
      </trkpt>
      <trkpt lat="44.07619" lon="6.44017">
        <ele>1536.329</ele>
        <time>2018-09-13T14:50:22Z</time>
      </trkpt>
      <trkpt lat="44.07624" lon="6.44021">
        <ele>1536.345</ele>
        <time>2018-09-13T14:50:23Z</time>
      </trkpt>
      <trkpt lat="44.0763" lon="6.44024">
        <ele>1536.372</ele>
        <time>2018-09-13T14:50:24Z</time>
      </trkpt>
      <trkpt lat="44.07639" lon="6.44028">
        <ele>1536.336</ele>
        <time>2018-09-13T14:50:25Z</time>
      </trkpt>
      <trkpt lat="44.07646" lon="6.4403">
        <ele>1536.347</ele>
        <time>2018-09-13T14:50:26Z</time>
      </trkpt>
      <trkpt lat="44.07651" lon="6.44033">
        <ele>1536.324</ele>
        <time>2018-09-13T14:50:27Z</time>
      </trkpt>
      <trkpt lat="44.07659" lon="6.44032">
        <ele>1536.352</ele>
        <time>2018-09-13T14:50:28Z</time>
      </trkpt>
      <trkpt lat="44.07666" lon="6.44034">
        <ele>1536.333</ele>
        <time>2018-09-13T14:50:29Z</time>
      </trkpt>
      <trkpt lat="44.07672" lon="6.44037">
        <ele>1536.312</ele>
        <time>2018-09-13T14:50:30Z</time>
      </trkpt>
      <trkpt lat="44.07679" lon="6.44041">
        <ele>1556.132</ele>
        <time>2018-09-13T14:50:31Z</time>
      </trkpt>
      <trkpt lat="44.07687" lon="6.44045">
        <ele>1556.105</ele>
        <time>2018-09-13T14:50:32Z</time>
      </trkpt>
      <trkpt lat="44.07692" lon="6.44047">
        <ele>1556.108</ele>
        <time>2018-09-13T14:50:33Z</time>
      </trkpt>
      <trkpt lat="44.077" lon="6.44051">
        <ele>1556.183</ele>
        <time>2018-09-13T14:50:34Z</time>
      </trkpt>
      <trkpt lat="44.07706" lon="6.44055">
        <ele>1556.199</ele>
        <time>2018-09-13T14:50:35Z</time>
      </trkpt>
      <trkpt lat="44.07713" lon="6.44058">
        <ele>1556.196</ele>
        <time>2018-09-13T14:50:36Z</time>
      </trkpt>
      <trkpt lat="44.07718" lon="6.44065">
        <ele>1556.16</ele>
        <time>2018-09-13T14:50:37Z</time>
      </trkpt>
      <trkpt lat="44.07721" lon="6.44072">
        <ele>1566.381</ele>
        <time>2018-09-13T14:50:38Z</time>
      </trkpt>
      <trkpt lat="44.07726" lon="6.4408">
        <ele>1566.368</ele>
        <time>2018-09-13T14:50:39Z</time>
      </trkpt>
      <trkpt lat="44.0773" lon="6.44089">
        <ele>1566.326</ele>
        <time>2018-09-13T14:50:40Z</time>
      </trkpt>
      <trkpt lat="44.07737" lon="6.44095">
        <ele>1566.377</ele>
        <time>2018-09-13T14:50:41Z</time>
      </trkpt>
      <trkpt lat="44.07742" lon="6.44104">
        <ele>1566.388</ele>
        <time>2018-09-13T14:50:42Z</time>
      </trkpt>
      <trkpt lat="44.07748" lon="6.44112">
        <ele>1566.324</ele>
        <time>2018-09-13T14:50:43Z</time>
      </trkpt>
      <trkpt lat="44.07753" lon="6.44119">
        <ele>1566.326</ele>
        <time>2018-09-13T14:50:44Z</time>
      </trkpt>
      <trkpt lat="44.07759" lon="6.44123">
        <ele>1566.308</ele>
        <time>2018-09-13T14:50:45Z</time>
      </trkpt>
      <trkpt lat="44.07763" lon="6.44128">
        <ele>1582.22</ele>
        <time>2018-09-13T14:50:46Z</time>
      </trkpt>
      <trkpt lat="44.07773" lon="6.44129">
        <ele>1582.296</ele>
        <time>2018-09-13T14:50:47Z</time>
      </trkpt>
      <trkpt lat="44.07779" lon="6.44129">
        <ele>1582.223</ele>
        <time>2018-09-13T14:50:48Z</time>
      </trkpt>
      <trkpt lat="44.07784" lon="6.44131">
        <ele>1582.267</ele>
        <time>2018-09-13T14:50:49Z</time>
      </trkpt>
      <trkpt lat="44.07791" lon="6.44133">
        <ele>1582.298</ele>
        <time>2018-09-13T14:50:50Z</time>
      </trkpt>
      <trkpt lat="44.07797" lon="6.44135">
        <ele>1582.295</ele>
        <time>2018-09-13T14:50:51Z</time>
      </trkpt>
      <trkpt lat="44.07805" lon="6.4414">
        <ele>1582.253</ele>
        <time>2018-09-13T14:50:53Z</time>
      </trkpt>
      <trkpt lat="44.07807" lon="6.44149">
        <ele>1594.934</ele>
        <time>2018-09-13T14:50:55Z</time>
      </trkpt>
      <trkpt lat="44.07803" lon="6.44155">
        <ele>1601.672</ele>
        <time>2018-09-13T14:50:56Z</time>
      </trkpt>
      <trkpt lat="44.07799" lon="6.44165">
        <ele>1602.713</ele>
        <time>2018-09-13T14:50:58Z</time>
      </trkpt>
      <trkpt lat="44.07799" lon="6.44171">
        <ele>1602.714</ele>
        <time>2018-09-13T14:50:59Z</time>
      </trkpt>
      <trkpt lat="44.07798" lon="6.44184">
        <ele>1602.708</ele>
        <time>2018-09-13T14:51:01Z</time>
      </trkpt>
      <trkpt lat="44.07796" lon="6.44192">
        <ele>1602.759</ele>
        <time>2018-09-13T14:51:02Z</time>
      </trkpt>
      <trkpt lat="44.07795" lon="6.44201">
        <ele>1602.745</ele>
        <time>2018-09-13T14:51:03Z</time>
      </trkpt>
      <trkpt lat="44.07795" lon="6.44208">
        <ele>1602.712</ele>
        <time>2018-09-13T14:51:04Z</time>
      </trkpt>
      <trkpt lat="44.07792" lon="6.44214">
        <ele>1602.796</ele>
        <time>2018-09-13T14:51:05Z</time>
      </trkpt>
      <trkpt lat="44.07791" lon="6.44222">
        <ele>1610.127</ele>
        <time>2018-09-13T14:51:06Z</time>
      </trkpt>
      <trkpt lat="44.0779" lon="6.4423">
        <ele>1610.174</ele>
        <time>2018-09-13T14:51:07Z</time>
      </trkpt>
      <trkpt lat="44.07788" lon="6.44238">
        <ele>1610.182</ele>
        <time>2018-09-13T14:51:08Z</time>
      </trkpt>
      <trkpt lat="44.07788" lon="6.44248">
        <ele>1610.193</ele>
        <time>2018-09-13T14:51:09Z</time>
      </trkpt>
      <trkpt lat="44.0779" lon="6.44259">
        <ele>1610.139</ele>
        <time>2018-09-13T14:51:10Z</time>
      </trkpt>
      <trkpt lat="44.07789" lon="6.44268">
        <ele>1613.601</ele>
        <time>2018-09-13T14:51:11Z</time>
      </trkpt>
      <trkpt lat="44.07787" lon="6.44278">
        <ele>1614.521</ele>
        <time>2018-09-13T14:51:12Z</time>
      </trkpt>
      <trkpt lat="44.07788" lon="6.44285">
        <ele>1614.508</ele>
        <time>2018-09-13T14:51:13Z</time>
      </trkpt>
      <trkpt lat="44.07788" lon="6.44294">
        <ele>1614.525</ele>
        <time>2018-09-13T14:51:14Z</time>
      </trkpt>
      <trkpt lat="44.07786" lon="6.44306">
        <ele>1614.581</ele>
        <time>2018-09-13T14:51:15Z</time>
      </trkpt>
      <trkpt lat="44.07787" lon="6.44315">
        <ele>1614.538</ele>
        <time>2018-09-13T14:51:16Z</time>
      </trkpt>
      <trkpt lat="44.0779" lon="6.44322">
        <ele>1614.542</ele>
        <time>2018-09-13T14:51:17Z</time>
      </trkpt>
      <trkpt lat="44.07788" lon="6.44334">
        <ele>1620.923</ele>
        <time>2018-09-13T14:51:18Z</time>
      </trkpt>
      <trkpt lat="44.07795" lon="6.44338">
        <ele>1620.93</ele>
        <time>2018-09-13T14:51:19Z</time>
      </trkpt>
      <trkpt lat="44.07796" lon="6.44346">
        <ele>1620.968</ele>
        <time>2018-09-13T14:51:20Z</time>
      </trkpt>
      <trkpt lat="44.07798" lon="6.44353">
        <ele>1628.779</ele>
        <time>2018-09-13T14:51:30Z</time>
      </trkpt>
      <trkpt lat="44.07801" lon="6.44347">
        <ele>1628.257</ele>
        <time>2018-09-13T14:52:20Z</time>
      </trkpt>
      <trkpt lat="44.07798" lon="6.44352">
        <ele>1628.4</ele>
        <time>2018-09-13T14:56:01Z</time>
      </trkpt>
      <trkpt lat="44.07801" lon="6.44358">
        <ele>1628.62</ele>
        <time>2018-09-13T14:57:33Z</time>
      </trkpt>
      <trkpt lat="44.07805" lon="6.44365">
        <ele>1628.608</ele>
        <time>2018-09-13T14:57:35Z</time>
      </trkpt>
      <trkpt lat="44.07811" lon="6.44369">
        <ele>1628.657</ele>
        <time>2018-09-13T14:57:37Z</time>
      </trkpt>
      <trkpt lat="44.07816" lon="6.44372">
        <ele>1628.673</ele>
        <time>2018-09-13T14:57:39Z</time>
      </trkpt>
      <trkpt lat="44.07823" lon="6.44377">
        <ele>1627.83</ele>
        <time>2018-09-13T14:57:41Z</time>
      </trkpt>
      <trkpt lat="44.07829" lon="6.44382">
        <ele>1627.864</ele>
        <time>2018-09-13T14:57:43Z</time>
      </trkpt>
      <trkpt lat="44.07836" lon="6.44385">
        <ele>1627.695</ele>
        <time>2018-09-13T14:57:45Z</time>
      </trkpt>
      <trkpt lat="44.07841" lon="6.44386">
        <ele>1627.312</ele>
        <time>2018-09-13T14:57:46Z</time>
      </trkpt>
      <trkpt lat="44.07845" lon="6.44389">
        <ele>1625.57</ele>
        <time>2018-09-13T14:57:47Z</time>
      </trkpt>
      <trkpt lat="44.07854" lon="6.44389">
        <ele>1625.511</ele>
        <time>2018-09-13T14:57:49Z</time>
      </trkpt>
      <trkpt lat="44.07862" lon="6.4439">
        <ele>1625.535</ele>
        <time>2018-09-13T14:57:51Z</time>
      </trkpt>
      <trkpt lat="44.07872" lon="6.44389">
        <ele>1623.486</ele>
        <time>2018-09-13T14:57:53Z</time>
      </trkpt>
      <trkpt lat="44.07877" lon="6.44387">
        <ele>1623.414</ele>
        <time>2018-09-13T14:57:54Z</time>
      </trkpt>
      <trkpt lat="44.07882" lon="6.44386">
        <ele>1623.408</ele>
        <time>2018-09-13T14:57:55Z</time>
      </trkpt>
      <trkpt lat="44.07889" lon="6.44384">
        <ele>1623.415</ele>
        <time>2018-09-13T14:57:56Z</time>
      </trkpt>
      <trkpt lat="44.07894" lon="6.44382">
        <ele>1623.421</ele>
        <time>2018-09-13T14:57:57Z</time>
      </trkpt>
      <trkpt lat="44.07899" lon="6.44381">
        <ele>1623.478</ele>
        <time>2018-09-13T14:57:58Z</time>
      </trkpt>
      <trkpt lat="44.07904" lon="6.4438">
        <ele>1620.642</ele>
        <time>2018-09-13T14:57:59Z</time>
      </trkpt>
      <trkpt lat="44.0791" lon="6.4438">
        <ele>1620.623</ele>
        <time>2018-09-13T14:58:00Z</time>
      </trkpt>
      <trkpt lat="44.07915" lon="6.44379">
        <ele>1620.65</ele>
        <time>2018-09-13T14:58:01Z</time>
      </trkpt>
      <trkpt lat="44.07921" lon="6.4438">
        <ele>1620.618</ele>
        <time>2018-09-13T14:58:02Z</time>
      </trkpt>
      <trkpt lat="44.07926" lon="6.44382">
        <ele>1620.679</ele>
        <time>2018-09-13T14:58:03Z</time>
      </trkpt>
      <trkpt lat="44.07932" lon="6.44384">
        <ele>1617.369</ele>
        <time>2018-09-13T14:58:04Z</time>
      </trkpt>
      <trkpt lat="44.07937" lon="6.44386">
        <ele>1617.304</ele>
        <time>2018-09-13T14:58:05Z</time>
      </trkpt>
      <trkpt lat="44.07942" lon="6.44391">
        <ele>1617.324</ele>
        <time>2018-09-13T14:58:06Z</time>
      </trkpt>
      <trkpt lat="44.07946" lon="6.44397">
        <ele>1617.308</ele>
        <time>2018-09-13T14:58:07Z</time>
      </trkpt>
      <trkpt lat="44.07949" lon="6.44403">
        <ele>1612.688</ele>
        <time>2018-09-13T14:58:08Z</time>
      </trkpt>
      <trkpt lat="44.07953" lon="6.44409">
        <ele>1612.664</ele>
        <time>2018-09-13T14:58:09Z</time>
      </trkpt>
      <trkpt lat="44.07956" lon="6.44416">
        <ele>1612.691</ele>
        <time>2018-09-13T14:58:10Z</time>
      </trkpt>
      <trkpt lat="44.0796" lon="6.44422">
        <ele>1612.625</ele>
        <time>2018-09-13T14:58:11Z</time>
      </trkpt>
      <trkpt lat="44.07963" lon="6.44428">
        <ele>1612.066</ele>
        <time>2018-09-13T14:58:12Z</time>
      </trkpt>
      <trkpt lat="44.07966" lon="6.44433">
        <ele>1612.013</ele>
        <time>2018-09-13T14:58:13Z</time>
      </trkpt>
      <trkpt lat="44.0797" lon="6.44438">
        <ele>1612.071</ele>
        <time>2018-09-13T14:58:14Z</time>
      </trkpt>
      <trkpt lat="44.07974" lon="6.44443">
        <ele>1612.052</ele>
        <time>2018-09-13T14:58:15Z</time>
      </trkpt>
      <trkpt lat="44.07979" lon="6.44449">
        <ele>1612.044</ele>
        <time>2018-09-13T14:58:16Z</time>
      </trkpt>
      <trkpt lat="44.07982" lon="6.44456">
        <ele>1612.005</ele>
        <time>2018-09-13T14:58:17Z</time>
      </trkpt>
      <trkpt lat="44.07985" lon="6.44463">
        <ele>1608.015</ele>
        <time>2018-09-13T14:58:18Z</time>
      </trkpt>
      <trkpt lat="44.07986" lon="6.44471">
        <ele>1608.008</ele>
        <time>2018-09-13T14:58:19Z</time>
      </trkpt>
      <trkpt lat="44.07986" lon="6.44478">
        <ele>1608.086</ele>
        <time>2018-09-13T14:58:20Z</time>
      </trkpt>
      <trkpt lat="44.07987" lon="6.44485">
        <ele>1608.082</ele>
        <time>2018-09-13T14:58:21Z</time>
      </trkpt>
      <trkpt lat="44.07988" lon="6.44494">
        <ele>1608.069</ele>
        <time>2018-09-13T14:58:22Z</time>
      </trkpt>
      <trkpt lat="44.0799" lon="6.44501">
        <ele>1604.493</ele>
        <time>2018-09-13T14:58:23Z</time>
      </trkpt>
      <trkpt lat="44.07992" lon="6.44508">
        <ele>1604.424</ele>
        <time>2018-09-13T14:58:24Z</time>
      </trkpt>
      <trkpt lat="44.07996" lon="6.44516">
        <ele>1602.821</ele>
        <time>2018-09-13T14:58:25Z</time>
      </trkpt>
      <trkpt lat="44.08" lon="6.44522">
        <ele>1602.839</ele>
        <time>2018-09-13T14:58:26Z</time>
      </trkpt>
      <trkpt lat="44.08004" lon="6.44531">
        <ele>1602.81</ele>
        <time>2018-09-13T14:58:27Z</time>
      </trkpt>
      <trkpt lat="44.08008" lon="6.44539">
        <ele>1600.571</ele>
        <time>2018-09-13T14:58:28Z</time>
      </trkpt>
      <trkpt lat="44.08013" lon="6.44546">
        <ele>1600.541</ele>
        <time>2018-09-13T14:58:29Z</time>
      </trkpt>
      <trkpt lat="44.08016" lon="6.44553">
        <ele>1599.015</ele>
        <time>2018-09-13T14:58:30Z</time>
      </trkpt>
      <trkpt lat="44.0802" lon="6.44559">
        <ele>1599.008</ele>
        <time>2018-09-13T14:58:31Z</time>
      </trkpt>
      <trkpt lat="44.08025" lon="6.44565">
        <ele>1599.079</ele>
        <time>2018-09-13T14:58:32Z</time>
      </trkpt>
      <trkpt lat="44.08029" lon="6.44573">
        <ele>1599.075</ele>
        <time>2018-09-13T14:58:33Z</time>
      </trkpt>
      <trkpt lat="44.08032" lon="6.44582">
        <ele>1599.072</ele>
        <time>2018-09-13T14:58:34Z</time>
      </trkpt>
      <trkpt lat="44.08036" lon="6.44591">
        <ele>1595.256</ele>
        <time>2018-09-13T14:58:35Z</time>
      </trkpt>
      <trkpt lat="44.08041" lon="6.446">
        <ele>1595.267</ele>
        <time>2018-09-13T14:58:36Z</time>
      </trkpt>
      <trkpt lat="44.08046" lon="6.44608">
        <ele>1595.284</ele>
        <time>2018-09-13T14:58:37Z</time>
      </trkpt>
      <trkpt lat="44.08051" lon="6.44615">
        <ele>1595.292</ele>
        <time>2018-09-13T14:58:38Z</time>
      </trkpt>
      <trkpt lat="44.08055" lon="6.44622">
        <ele>1595.213</ele>
        <time>2018-09-13T14:58:39Z</time>
      </trkpt>
      <trkpt lat="44.08059" lon="6.4463">
        <ele>1595.212</ele>
        <time>2018-09-13T14:58:40Z</time>
      </trkpt>
      <trkpt lat="44.08064" lon="6.44638">
        <ele>1595.232</ele>
        <time>2018-09-13T14:58:41Z</time>
      </trkpt>
      <trkpt lat="44.08069" lon="6.44645">
        <ele>1590.805</ele>
        <time>2018-09-13T14:58:42Z</time>
      </trkpt>
      <trkpt lat="44.08073" lon="6.44653">
        <ele>1590.808</ele>
        <time>2018-09-13T14:58:43Z</time>
      </trkpt>
      <trkpt lat="44.08077" lon="6.44662">
        <ele>1590.813</ele>
        <time>2018-09-13T14:58:44Z</time>
      </trkpt>
      <trkpt lat="44.0808" lon="6.44671">
        <ele>1590.829</ele>
        <time>2018-09-13T14:58:45Z</time>
      </trkpt>
      <trkpt lat="44.08083" lon="6.4468">
        <ele>1586.646</ele>
        <time>2018-09-13T14:58:46Z</time>
      </trkpt>
      <trkpt lat="44.08088" lon="6.44687">
        <ele>1586.64</ele>
        <time>2018-09-13T14:58:47Z</time>
      </trkpt>
      <trkpt lat="44.0809" lon="6.44696">
        <ele>1586.661</ele>
        <time>2018-09-13T14:58:48Z</time>
      </trkpt>
      <trkpt lat="44.08092" lon="6.44703">
        <ele>1586.698</ele>
        <time>2018-09-13T14:58:49Z</time>
      </trkpt>
      <trkpt lat="44.08095" lon="6.44712">
        <ele>1586.696</ele>
        <time>2018-09-13T14:58:50Z</time>
      </trkpt>
      <trkpt lat="44.08099" lon="6.4472">
        <ele>1586.687</ele>
        <time>2018-09-13T14:58:51Z</time>
      </trkpt>
      <trkpt lat="44.08101" lon="6.4473">
        <ele>1586.631</ele>
        <time>2018-09-13T14:58:52Z</time>
      </trkpt>
      <trkpt lat="44.08104" lon="6.44739">
        <ele>1586.661</ele>
        <time>2018-09-13T14:58:53Z</time>
      </trkpt>
      <trkpt lat="44.08106" lon="6.44748">
        <ele>1582.307</ele>
        <time>2018-09-13T14:58:54Z</time>
      </trkpt>
      <trkpt lat="44.08108" lon="6.44757">
        <ele>1582.308</ele>
        <time>2018-09-13T14:58:55Z</time>
      </trkpt>
      <trkpt lat="44.08111" lon="6.44767">
        <ele>1582.355</ele>
        <time>2018-09-13T14:58:56Z</time>
      </trkpt>
      <trkpt lat="44.08112" lon="6.44777">
        <ele>1582.311</ele>
        <time>2018-09-13T14:58:57Z</time>
      </trkpt>
      <trkpt lat="44.08113" lon="6.44786">
        <ele>1582.398</ele>
        <time>2018-09-13T14:58:58Z</time>
      </trkpt>
      <trkpt lat="44.08113" lon="6.44797">
        <ele>1582.322</ele>
        <time>2018-09-13T14:58:59Z</time>
      </trkpt>
      <trkpt lat="44.08114" lon="6.44806">
        <ele>1578.293</ele>
        <time>2018-09-13T14:59:00Z</time>
      </trkpt>
      <trkpt lat="44.08116" lon="6.44816">
        <ele>1578.22</ele>
        <time>2018-09-13T14:59:01Z</time>
      </trkpt>
      <trkpt lat="44.08118" lon="6.44827">
        <ele>1578.258</ele>
        <time>2018-09-13T14:59:02Z</time>
      </trkpt>
      <trkpt lat="44.0812" lon="6.44837">
        <ele>1578.289</ele>
        <time>2018-09-13T14:59:03Z</time>
      </trkpt>
      <trkpt lat="44.08122" lon="6.44846">
        <ele>1578.219</ele>
        <time>2018-09-13T14:59:04Z</time>
      </trkpt>
      <trkpt lat="44.08124" lon="6.44855">
        <ele>1578.209</ele>
        <time>2018-09-13T14:59:05Z</time>
      </trkpt>
      <trkpt lat="44.08127" lon="6.44864">
        <ele>1574.519</ele>
        <time>2018-09-13T14:59:06Z</time>
      </trkpt>
      <trkpt lat="44.08129" lon="6.44873">
        <ele>1570.508</ele>
        <time>2018-09-13T14:59:07Z</time>
      </trkpt>
      <trkpt lat="44.0813" lon="6.44883">
        <ele>1570.533</ele>
        <time>2018-09-13T14:59:08Z</time>
      </trkpt>
      <trkpt lat="44.08132" lon="6.44893">
        <ele>1570.519</ele>
        <time>2018-09-13T14:59:09Z</time>
      </trkpt>
      <trkpt lat="44.08134" lon="6.44901">
        <ele>1570.586</ele>
        <time>2018-09-13T14:59:10Z</time>
      </trkpt>
      <trkpt lat="44.08135" lon="6.4491">
        <ele>1570.56</ele>
        <time>2018-09-13T14:59:11Z</time>
      </trkpt>
      <trkpt lat="44.08136" lon="6.4492">
        <ele>1570.581</ele>
        <time>2018-09-13T14:59:12Z</time>
      </trkpt>
      <trkpt lat="44.08138" lon="6.4493">
        <ele>1570.528</ele>
        <time>2018-09-13T14:59:13Z</time>
      </trkpt>
      <trkpt lat="44.0814" lon="6.44939">
        <ele>1570.526</ele>
        <time>2018-09-13T14:59:14Z</time>
      </trkpt>
      <trkpt lat="44.08141" lon="6.4495">
        <ele>1570.527</ele>
        <time>2018-09-13T14:59:15Z</time>
      </trkpt>
      <trkpt lat="44.08141" lon="6.44961">
        <ele>1568.969</ele>
        <time>2018-09-13T14:59:16Z</time>
      </trkpt>
      <trkpt lat="44.0814" lon="6.44971">
        <ele>1568.904</ele>
        <time>2018-09-13T14:59:17Z</time>
      </trkpt>
      <trkpt lat="44.0814" lon="6.4498">
        <ele>1565.224</ele>
        <time>2018-09-13T14:59:18Z</time>
      </trkpt>
      <trkpt lat="44.08139" lon="6.44989">
        <ele>1565.208</ele>
        <time>2018-09-13T14:59:19Z</time>
      </trkpt>
      <trkpt lat="44.08139" lon="6.44999">
        <ele>1565.238</ele>
        <time>2018-09-13T14:59:20Z</time>
      </trkpt>
      <trkpt lat="44.08139" lon="6.4501">
        <ele>1565.264</ele>
        <time>2018-09-13T14:59:21Z</time>
      </trkpt>
      <trkpt lat="44.0814" lon="6.45019">
        <ele>1565.231</ele>
        <time>2018-09-13T14:59:22Z</time>
      </trkpt>
      <trkpt lat="44.08141" lon="6.45028">
        <ele>1565.275</ele>
        <time>2018-09-13T14:59:23Z</time>
      </trkpt>
      <trkpt lat="44.08143" lon="6.45036">
        <ele>1558.646</ele>
        <time>2018-09-13T14:59:24Z</time>
      </trkpt>
      <trkpt lat="44.08145" lon="6.45046">
        <ele>1558.683</ele>
        <time>2018-09-13T14:59:25Z</time>
      </trkpt>
      <trkpt lat="44.08147" lon="6.45054">
        <ele>1558.621</ele>
        <time>2018-09-13T14:59:26Z</time>
      </trkpt>
      <trkpt lat="44.08149" lon="6.45063">
        <ele>1558.652</ele>
        <time>2018-09-13T14:59:27Z</time>
      </trkpt>
      <trkpt lat="44.08151" lon="6.45072">
        <ele>1558.689</ele>
        <time>2018-09-13T14:59:28Z</time>
      </trkpt>
      <trkpt lat="44.08153" lon="6.45081">
        <ele>1558.606</ele>
        <time>2018-09-13T14:59:29Z</time>
      </trkpt>
      <trkpt lat="44.08155" lon="6.45091">
        <ele>1558.626</ele>
        <time>2018-09-13T14:59:30Z</time>
      </trkpt>
      <trkpt lat="44.08157" lon="6.45099">
        <ele>1558.608</ele>
        <time>2018-09-13T14:59:31Z</time>
      </trkpt>
      <trkpt lat="44.08159" lon="6.4511">
        <ele>1558.63</ele>
        <time>2018-09-13T14:59:32Z</time>
      </trkpt>
      <trkpt lat="44.08161" lon="6.45119">
        <ele>1558.696</ele>
        <time>2018-09-13T14:59:33Z</time>
      </trkpt>
      <trkpt lat="44.08164" lon="6.45129">
        <ele>1553.823</ele>
        <time>2018-09-13T14:59:34Z</time>
      </trkpt>
      <trkpt lat="44.08166" lon="6.45136">
        <ele>1553.897</ele>
        <time>2018-09-13T14:59:35Z</time>
      </trkpt>
      <trkpt lat="44.08169" lon="6.45144">
        <ele>1553.878</ele>
        <time>2018-09-13T14:59:36Z</time>
      </trkpt>
      <trkpt lat="44.08172" lon="6.45152">
        <ele>1553.865</ele>
        <time>2018-09-13T14:59:37Z</time>
      </trkpt>
      <trkpt lat="44.08174" lon="6.45161">
        <ele>1553.893</ele>
        <time>2018-09-13T14:59:38Z</time>
      </trkpt>
      <trkpt lat="44.08181" lon="6.4517">
        <ele>1553.814</ele>
        <time>2018-09-13T14:59:39Z</time>
      </trkpt>
      <trkpt lat="44.08184" lon="6.45176">
        <ele>1553.882</ele>
        <time>2018-09-13T14:59:40Z</time>
      </trkpt>
      <trkpt lat="44.08188" lon="6.45183">
        <ele>1548.743</ele>
        <time>2018-09-13T14:59:41Z</time>
      </trkpt>
      <trkpt lat="44.08192" lon="6.4519">
        <ele>1548.717</ele>
        <time>2018-09-13T14:59:42Z</time>
      </trkpt>
      <trkpt lat="44.08196" lon="6.45197">
        <ele>1544.508</ele>
        <time>2018-09-13T14:59:43Z</time>
      </trkpt>
      <trkpt lat="44.08201" lon="6.45201">
        <ele>1544.56</ele>
        <time>2018-09-13T14:59:44Z</time>
      </trkpt>
      <trkpt lat="44.08207" lon="6.45204">
        <ele>1544.556</ele>
        <time>2018-09-13T14:59:45Z</time>
      </trkpt>
      <trkpt lat="44.08213" lon="6.45207">
        <ele>1544.563</ele>
        <time>2018-09-13T14:59:46Z</time>
      </trkpt>
      <trkpt lat="44.08218" lon="6.4521">
        <ele>1544.577</ele>
        <time>2018-09-13T14:59:47Z</time>
      </trkpt>
      <trkpt lat="44.08226" lon="6.45211">
        <ele>1542.868</ele>
        <time>2018-09-13T14:59:49Z</time>
      </trkpt>
      <trkpt lat="44.08228" lon="6.45216">
        <ele>1542.865</ele>
        <time>2018-09-13T14:59:52Z</time>
      </trkpt>
      <trkpt lat="44.08226" lon="6.45224">
        <ele>1542.843</ele>
        <time>2018-09-13T14:59:55Z</time>
      </trkpt>
      <trkpt lat="44.08221" lon="6.45225">
        <ele>1542.824</ele>
        <time>2018-09-13T14:59:57Z</time>
      </trkpt>
      <trkpt lat="44.08215" lon="6.45226">
        <ele>1538.463</ele>
        <time>2018-09-13T14:59:59Z</time>
      </trkpt>
      <trkpt lat="44.0821" lon="6.45224">
        <ele>1538.444</ele>
        <time>2018-09-13T15:00:00Z</time>
      </trkpt>
      <trkpt lat="44.08205" lon="6.45224">
        <ele>1538.418</ele>
        <time>2018-09-13T15:00:01Z</time>
      </trkpt>
      <trkpt lat="44.082" lon="6.45223">
        <ele>1538.408</ele>
        <time>2018-09-13T15:00:02Z</time>
      </trkpt>
      <trkpt lat="44.08195" lon="6.45221">
        <ele>1538.418</ele>
        <time>2018-09-13T15:00:03Z</time>
      </trkpt>
      <trkpt lat="44.08189" lon="6.45218">
        <ele>1538.484</ele>
        <time>2018-09-13T15:00:04Z</time>
      </trkpt>
      <trkpt lat="44.08184" lon="6.45215">
        <ele>1538.441</ele>
        <time>2018-09-13T15:00:05Z</time>
      </trkpt>
      <trkpt lat="44.08177" lon="6.4521">
        <ele>1538.485</ele>
        <time>2018-09-13T15:00:07Z</time>
      </trkpt>
      <trkpt lat="44.08172" lon="6.45206">
        <ele>1534.196</ele>
        <time>2018-09-13T15:00:08Z</time>
      </trkpt>
      <trkpt lat="44.08168" lon="6.45204">
        <ele>1534.153</ele>
        <time>2018-09-13T15:00:09Z</time>
      </trkpt>
      <trkpt lat="44.0816" lon="6.45199">
        <ele>1534.131</ele>
        <time>2018-09-13T15:00:11Z</time>
      </trkpt>
      <trkpt lat="44.08153" lon="6.4519">
        <ele>1534.162</ele>
        <time>2018-09-13T15:00:13Z</time>
      </trkpt>
      <trkpt lat="44.0815" lon="6.45184">
        <ele>1534.194</ele>
        <time>2018-09-13T15:00:14Z</time>
      </trkpt>
      <trkpt lat="44.08147" lon="6.45179">
        <ele>1534.157</ele>
        <time>2018-09-13T15:00:15Z</time>
      </trkpt>
      <trkpt lat="44.08145" lon="6.45173">
        <ele>1534.122</ele>
        <time>2018-09-13T15:00:16Z</time>
      </trkpt>
      <trkpt lat="44.08142" lon="6.45166">
        <ele>1530.808</ele>
        <time>2018-09-13T15:00:17Z</time>
      </trkpt>
      <trkpt lat="44.0814" lon="6.4516">
        <ele>1530.851</ele>
        <time>2018-09-13T15:00:18Z</time>
      </trkpt>
      <trkpt lat="44.08138" lon="6.45153">
        <ele>1530.867</ele>
        <time>2018-09-13T15:00:19Z</time>
      </trkpt>
      <trkpt lat="44.08135" lon="6.45146">
        <ele>1530.824</ele>
        <time>2018-09-13T15:00:20Z</time>
      </trkpt>
      <trkpt lat="44.08133" lon="6.45139">
        <ele>1530.878</ele>
        <time>2018-09-13T15:00:21Z</time>
      </trkpt>
      <trkpt lat="44.0813" lon="6.45132">
        <ele>1530.819</ele>
        <time>2018-09-13T15:00:22Z</time>
      </trkpt>
      <trkpt lat="44.08127" lon="6.45126">
        <ele>1528.196</ele>
        <time>2018-09-13T15:00:23Z</time>
      </trkpt>
      <trkpt lat="44.08124" lon="6.45119">
        <ele>1528.154</ele>
        <time>2018-09-13T15:00:24Z</time>
      </trkpt>
      <trkpt lat="44.0812" lon="6.45112">
        <ele>1528.175</ele>
        <time>2018-09-13T15:00:25Z</time>
      </trkpt>
      <trkpt lat="44.08117" lon="6.45105">
        <ele>1528.134</ele>
        <time>2018-09-13T15:00:26Z</time>
      </trkpt>
      <trkpt lat="44.08113" lon="6.45098">
        <ele>1528.155</ele>
        <time>2018-09-13T15:00:27Z</time>
      </trkpt>
      <trkpt lat="44.0811" lon="6.45091">
        <ele>1528.11</ele>
        <time>2018-09-13T15:00:28Z</time>
      </trkpt>
      <trkpt lat="44.08106" lon="6.45084">
        <ele>1528.108</ele>
        <time>2018-09-13T15:00:29Z</time>
      </trkpt>
      <trkpt lat="44.08103" lon="6.45077">
        <ele>1524.835</ele>
        <time>2018-09-13T15:00:30Z</time>
      </trkpt>
      <trkpt lat="44.08101" lon="6.45067">
        <ele>1524.871</ele>
        <time>2018-09-13T15:00:31Z</time>
      </trkpt>
      <trkpt lat="44.08097" lon="6.4506">
        <ele>1523.898</ele>
        <time>2018-09-13T15:00:32Z</time>
      </trkpt>
      <trkpt lat="44.08094" lon="6.45052">
        <ele>1523.882</ele>
        <time>2018-09-13T15:00:33Z</time>
      </trkpt>
      <trkpt lat="44.08092" lon="6.45045">
        <ele>1523.833</ele>
        <time>2018-09-13T15:00:34Z</time>
      </trkpt>
      <trkpt lat="44.08089" lon="6.45037">
        <ele>1523.83</ele>
        <time>2018-09-13T15:00:35Z</time>
      </trkpt>
      <trkpt lat="44.08085" lon="6.45029">
        <ele>1521.318</ele>
        <time>2018-09-13T15:00:36Z</time>
      </trkpt>
      <trkpt lat="44.08083" lon="6.4502">
        <ele>1521.399</ele>
        <time>2018-09-13T15:00:37Z</time>
      </trkpt>
      <trkpt lat="44.08081" lon="6.45012">
        <ele>1521.337</ele>
        <time>2018-09-13T15:00:38Z</time>
      </trkpt>
      <trkpt lat="44.08078" lon="6.45004">
        <ele>1521.349</ele>
        <time>2018-09-13T15:00:39Z</time>
      </trkpt>
      <trkpt lat="44.08075" lon="6.44996">
        <ele>1521.313</ele>
        <time>2018-09-13T15:00:40Z</time>
      </trkpt>
      <trkpt lat="44.08073" lon="6.44989">
        <ele>1521.308</ele>
        <time>2018-09-13T15:00:41Z</time>
      </trkpt>
      <trkpt lat="44.08072" lon="6.44981">
        <ele>1521.385</ele>
        <time>2018-09-13T15:00:42Z</time>
      </trkpt>
      <trkpt lat="44.0807" lon="6.44973">
        <ele>1519.531</ele>
        <time>2018-09-13T15:00:43Z</time>
      </trkpt>
      <trkpt lat="44.08068" lon="6.44964">
        <ele>1519.578</ele>
        <time>2018-09-13T15:00:44Z</time>
      </trkpt>
      <trkpt lat="44.08066" lon="6.44955">
        <ele>1519.542</ele>
        <time>2018-09-13T15:00:45Z</time>
      </trkpt>
      <trkpt lat="44.08064" lon="6.44947">
        <ele>1519.523</ele>
        <time>2018-09-13T15:00:46Z</time>
      </trkpt>
      <trkpt lat="44.08063" lon="6.44938">
        <ele>1519.55</ele>
        <time>2018-09-13T15:00:47Z</time>
      </trkpt>
      <trkpt lat="44.08062" lon="6.4493">
        <ele>1519.548</ele>
        <time>2018-09-13T15:00:48Z</time>
      </trkpt>
      <trkpt lat="44.08061" lon="6.44922">
        <ele>1518.759</ele>
        <time>2018-09-13T15:00:49Z</time>
      </trkpt>
      <trkpt lat="44.08061" lon="6.44915">
        <ele>1518.724</ele>
        <time>2018-09-13T15:00:50Z</time>
      </trkpt>
      <trkpt lat="44.0806" lon="6.44908">
        <ele>1518.704</ele>
        <time>2018-09-13T15:00:51Z</time>
      </trkpt>
      <trkpt lat="44.08055" lon="6.44897">
        <ele>1518.214</ele>
        <time>2018-09-13T15:00:53Z</time>
      </trkpt>
      <trkpt lat="44.08045" lon="6.449">
        <ele>1518.208</ele>
        <time>2018-09-13T15:00:55Z</time>
      </trkpt>
      <trkpt lat="44.08041" lon="6.44905">
        <ele>1518.134</ele>
        <time>2018-09-13T15:00:57Z</time>
      </trkpt>
      <trkpt lat="44.08038" lon="6.44914">
        <ele>1518.14</ele>
        <time>2018-09-13T15:00:59Z</time>
      </trkpt>
      <trkpt lat="44.08034" lon="6.44926">
        <ele>1518.197</ele>
        <time>2018-09-13T15:01:01Z</time>
      </trkpt>
      <trkpt lat="44.08033" lon="6.44932">
        <ele>1518.161</ele>
        <time>2018-09-13T15:01:02Z</time>
      </trkpt>
      <trkpt lat="44.0803" lon="6.44939">
        <ele>1518.122</ele>
        <time>2018-09-13T15:01:03Z</time>
      </trkpt>
      <trkpt lat="44.08027" lon="6.44947">
        <ele>1518.129</ele>
        <time>2018-09-13T15:01:04Z</time>
      </trkpt>
      <trkpt lat="44.08022" lon="6.44956">
        <ele>1516.277</ele>
        <time>2018-09-13T15:01:05Z</time>
      </trkpt>
      <trkpt lat="44.08018" lon="6.44963">
        <ele>1516.218</ele>
        <time>2018-09-13T15:01:06Z</time>
      </trkpt>
      <trkpt lat="44.08015" lon="6.44972">
        <ele>1516.278</ele>
        <time>2018-09-13T15:01:07Z</time>
      </trkpt>
      <trkpt lat="44.0801" lon="6.44981">
        <ele>1516.233</ele>
        <time>2018-09-13T15:01:08Z</time>
      </trkpt>
      <trkpt lat="44.08008" lon="6.44989">
        <ele>1514.726</ele>
        <time>2018-09-13T15:01:09Z</time>
      </trkpt>
      <trkpt lat="44.08006" lon="6.44998">
        <ele>1514.708</ele>
        <time>2018-09-13T15:01:10Z</time>
      </trkpt>
      <trkpt lat="44.08006" lon="6.45007">
        <ele>1514.779</ele>
        <time>2018-09-13T15:01:11Z</time>
      </trkpt>
      <trkpt lat="44.08005" lon="6.45017">
        <ele>1514.765</ele>
        <time>2018-09-13T15:01:12Z</time>
      </trkpt>
      <trkpt lat="44.08005" lon="6.45027">
        <ele>1514.742</ele>
        <time>2018-09-13T15:01:13Z</time>
      </trkpt>
      <trkpt lat="44.08003" lon="6.45038">
        <ele>1514.716</ele>
        <time>2018-09-13T15:01:14Z</time>
      </trkpt>
      <trkpt lat="44.08002" lon="6.45049">
        <ele>1514.767</ele>
        <time>2018-09-13T15:01:15Z</time>
      </trkpt>
      <trkpt lat="44.08001" lon="6.45058">
        <ele>1514.724</ele>
        <time>2018-09-13T15:01:16Z</time>
      </trkpt>
      <trkpt lat="44.08" lon="6.45068">
        <ele>1512.812</ele>
        <time>2018-09-13T15:01:17Z</time>
      </trkpt>
      <trkpt lat="44.08" lon="6.45079">
        <ele>1512.843</ele>
        <time>2018-09-13T15:01:18Z</time>
      </trkpt>
      <trkpt lat="44.08" lon="6.45089">
        <ele>1512.822</ele>
        <time>2018-09-13T15:01:19Z</time>
      </trkpt>
      <trkpt lat="44.07999" lon="6.45099">
        <ele>1512.862</ele>
        <time>2018-09-13T15:01:20Z</time>
      </trkpt>
      <trkpt lat="44.08" lon="6.45109">
        <ele>1512.808</ele>
        <time>2018-09-13T15:01:21Z</time>
      </trkpt>
      <trkpt lat="44.07999" lon="6.45119">
        <ele>1510.608</ele>
        <time>2018-09-13T15:01:22Z</time>
      </trkpt>
      <trkpt lat="44.07999" lon="6.45128">
        <ele>1510.624</ele>
        <time>2018-09-13T15:01:23Z</time>
      </trkpt>
      <trkpt lat="44.08" lon="6.45138">
        <ele>1510.64</ele>
        <time>2018-09-13T15:01:24Z</time>
      </trkpt>
      <trkpt lat="44.08" lon="6.45148">
        <ele>1510.697</ele>
        <time>2018-09-13T15:01:25Z</time>
      </trkpt>
      <trkpt lat="44.08001" lon="6.45158">
        <ele>1507.361</ele>
        <time>2018-09-13T15:01:26Z</time>
      </trkpt>
      <trkpt lat="44.08003" lon="6.45168">
        <ele>1507.382</ele>
        <time>2018-09-13T15:01:27Z</time>
      </trkpt>
      <trkpt lat="44.08004" lon="6.45178">
        <ele>1506.479</ele>
        <time>2018-09-13T15:01:28Z</time>
      </trkpt>
      <trkpt lat="44.08006" lon="6.45187">
        <ele>1506.417</ele>
        <time>2018-09-13T15:01:29Z</time>
      </trkpt>
      <trkpt lat="44.08008" lon="6.45196">
        <ele>1506.468</ele>
        <time>2018-09-13T15:01:30Z</time>
      </trkpt>
      <trkpt lat="44.08008" lon="6.45205">
        <ele>1506.493</ele>
        <time>2018-09-13T15:01:31Z</time>
      </trkpt>
      <trkpt lat="44.0801" lon="6.45214">
        <ele>1503.565</ele>
        <time>2018-09-13T15:01:32Z</time>
      </trkpt>
      <trkpt lat="44.08011" lon="6.45223">
        <ele>1503.521</ele>
        <time>2018-09-13T15:01:33Z</time>
      </trkpt>
      <trkpt lat="44.08013" lon="6.45232">
        <ele>1503.508</ele>
        <time>2018-09-13T15:01:34Z</time>
      </trkpt>
      <trkpt lat="44.08013" lon="6.4524">
        <ele>1503.581</ele>
        <time>2018-09-13T15:01:35Z</time>
      </trkpt>
      <trkpt lat="44.08014" lon="6.45249">
        <ele>1503.527</ele>
        <time>2018-09-13T15:01:36Z</time>
      </trkpt>
      <trkpt lat="44.08015" lon="6.45257">
        <ele>1500.324</ele>
        <time>2018-09-13T15:01:37Z</time>
      </trkpt>
      <trkpt lat="44.08016" lon="6.45266">
        <ele>1500.318</ele>
        <time>2018-09-13T15:01:38Z</time>
      </trkpt>
      <trkpt lat="44.08017" lon="6.45275">
        <ele>1498.329</ele>
        <time>2018-09-13T15:01:39Z</time>
      </trkpt>
      <trkpt lat="44.08018" lon="6.45283">
        <ele>1498.336</ele>
        <time>2018-09-13T15:01:40Z</time>
      </trkpt>
      <trkpt lat="44.08019" lon="6.45292">
        <ele>1498.354</ele>
        <time>2018-09-13T15:01:41Z</time>
      </trkpt>
      <trkpt lat="44.0802" lon="6.45301">
        <ele>1498.325</ele>
        <time>2018-09-13T15:01:42Z</time>
      </trkpt>
      <trkpt lat="44.08021" lon="6.45309">
        <ele>1498.361</ele>
        <time>2018-09-13T15:01:43Z</time>
      </trkpt>
      <trkpt lat="44.08023" lon="6.45317">
        <ele>1498.321</ele>
        <time>2018-09-13T15:01:44Z</time>
      </trkpt>
      <trkpt lat="44.08026" lon="6.45325">
        <ele>1495.313</ele>
        <time>2018-09-13T15:01:45Z</time>
      </trkpt>
      <trkpt lat="44.08028" lon="6.45334">
        <ele>1495.308</ele>
        <time>2018-09-13T15:01:46Z</time>
      </trkpt>
      <trkpt lat="44.0803" lon="6.45342">
        <ele>1495.398</ele>
        <time>2018-09-13T15:01:47Z</time>
      </trkpt>
      <trkpt lat="44.08033" lon="6.4535">
        <ele>1495.394</ele>
        <time>2018-09-13T15:01:48Z</time>
      </trkpt>
      <trkpt lat="44.08035" lon="6.45358">
        <ele>1495.341</ele>
        <time>2018-09-13T15:01:49Z</time>
      </trkpt>
      <trkpt lat="44.08036" lon="6.45365">
        <ele>1495.335</ele>
        <time>2018-09-13T15:01:50Z</time>
      </trkpt>
      <trkpt lat="44.08037" lon="6.45373">
        <ele>1491.556</ele>
        <time>2018-09-13T15:01:51Z</time>
      </trkpt>
      <trkpt lat="44.08037" lon="6.4538">
        <ele>1491.563</ele>
        <time>2018-09-13T15:01:52Z</time>
      </trkpt>
      <trkpt lat="44.08037" lon="6.45387">
        <ele>1491.531</ele>
        <time>2018-09-13T15:01:53Z</time>
      </trkpt>
      <trkpt lat="44.08035" lon="6.45394">
        <ele>1491.572</ele>
        <time>2018-09-13T15:01:54Z</time>
      </trkpt>
      <trkpt lat="44.08034" lon="6.45401">
        <ele>1491.548</ele>
        <time>2018-09-13T15:01:55Z</time>
      </trkpt>
      <trkpt lat="44.08031" lon="6.45407">
        <ele>1491.561</ele>
        <time>2018-09-13T15:01:56Z</time>
      </trkpt>
      <trkpt lat="44.08027" lon="6.45413">
        <ele>1491.517</ele>
        <time>2018-09-13T15:01:57Z</time>
      </trkpt>
      <trkpt lat="44.08023" lon="6.45419">
        <ele>1491.508</ele>
        <time>2018-09-13T15:01:58Z</time>
      </trkpt>
      <trkpt lat="44.0802" lon="6.45425">
        <ele>1485.356</ele>
        <time>2018-09-13T15:01:59Z</time>
      </trkpt>
      <trkpt lat="44.08015" lon="6.4543">
        <ele>1485.322</ele>
        <time>2018-09-13T15:02:00Z</time>
      </trkpt>
      <trkpt lat="44.08009" lon="6.45435">
        <ele>1485.329</ele>
        <time>2018-09-13T15:02:01Z</time>
      </trkpt>
      <trkpt lat="44.08005" lon="6.4544">
        <ele>1485.353</ele>
        <time>2018-09-13T15:02:02Z</time>
      </trkpt>
      <trkpt lat="44.08002" lon="6.45446">
        <ele>1485.394</ele>
        <time>2018-09-13T15:02:03Z</time>
      </trkpt>
      <trkpt lat="44.08004" lon="6.45455">
        <ele>1485.341</ele>
        <time>2018-09-13T15:02:05Z</time>
      </trkpt>
      <trkpt lat="44.08009" lon="6.45459">
        <ele>1485.339</ele>
        <time>2018-09-13T15:02:07Z</time>
      </trkpt>
      <trkpt lat="44.08014" lon="6.45454">
        <ele>1480.68</ele>
        <time>2018-09-13T15:02:09Z</time>
      </trkpt>
      <trkpt lat="44.08019" lon="6.45447">
        <ele>1480.632</ele>
        <time>2018-09-13T15:02:11Z</time>
      </trkpt>
      <trkpt lat="44.08025" lon="6.45438">
        <ele>1480.692</ele>
        <time>2018-09-13T15:02:13Z</time>
      </trkpt>
      <trkpt lat="44.08032" lon="6.45429">
        <ele>1480.611</ele>
        <time>2018-09-13T15:02:15Z</time>
      </trkpt>
      <trkpt lat="44.08037" lon="6.4542">
        <ele>1478.608</ele>
        <time>2018-09-13T15:02:17Z</time>
      </trkpt>
      <trkpt lat="44.08041" lon="6.45415">
        <ele>1478.655</ele>
        <time>2018-09-13T15:02:18Z</time>
      </trkpt>
      <trkpt lat="44.08044" lon="6.4541">
        <ele>1478.661</ele>
        <time>2018-09-13T15:02:19Z</time>
      </trkpt>
      <trkpt lat="44.08048" lon="6.45403">
        <ele>1478.618</ele>
        <time>2018-09-13T15:02:20Z</time>
      </trkpt>
      <trkpt lat="44.08052" lon="6.45397">
        <ele>1475.822</ele>
        <time>2018-09-13T15:02:21Z</time>
      </trkpt>
      <trkpt lat="44.08054" lon="6.45389">
        <ele>1475.893</ele>
        <time>2018-09-13T15:02:22Z</time>
      </trkpt>
      <trkpt lat="44.08056" lon="6.45382">
        <ele>1475.88</ele>
        <time>2018-09-13T15:02:23Z</time>
      </trkpt>
      <trkpt lat="44.08058" lon="6.45373">
        <ele>1475.298</ele>
        <time>2018-09-13T15:02:24Z</time>
      </trkpt>
      <trkpt lat="44.08059" lon="6.45365">
        <ele>1475.279</ele>
        <time>2018-09-13T15:02:25Z</time>
      </trkpt>
      <trkpt lat="44.0806" lon="6.45358">
        <ele>1475.283</ele>
        <time>2018-09-13T15:02:26Z</time>
      </trkpt>
      <trkpt lat="44.08061" lon="6.4535">
        <ele>1475.225</ele>
        <time>2018-09-13T15:02:27Z</time>
      </trkpt>
      <trkpt lat="44.08063" lon="6.45342">
        <ele>1475.217</ele>
        <time>2018-09-13T15:02:28Z</time>
      </trkpt>
      <trkpt lat="44.08063" lon="6.45334">
        <ele>1475.208</ele>
        <time>2018-09-13T15:02:29Z</time>
      </trkpt>
      <trkpt lat="44.08062" lon="6.45326">
        <ele>1475.21</ele>
        <time>2018-09-13T15:02:30Z</time>
      </trkpt>
      <trkpt lat="44.08061" lon="6.45319">
        <ele>1475.246</ele>
        <time>2018-09-13T15:02:31Z</time>
      </trkpt>
      <trkpt lat="44.08061" lon="6.45311">
        <ele>1475.253</ele>
        <time>2018-09-13T15:02:32Z</time>
      </trkpt>
      <trkpt lat="44.08059" lon="6.45304">
        <ele>1475.247</ele>
        <time>2018-09-13T15:02:33Z</time>
      </trkpt>
      <trkpt lat="44.08059" lon="6.45297">
        <ele>1469.668</ele>
        <time>2018-09-13T15:02:34Z</time>
      </trkpt>
      <trkpt lat="44.08057" lon="6.45289">
        <ele>1469.675</ele>
        <time>2018-09-13T15:02:35Z</time>
      </trkpt>
      <trkpt lat="44.08057" lon="6.45283">
        <ele>1469.673</ele>
        <time>2018-09-13T15:02:36Z</time>
      </trkpt>
      <trkpt lat="44.08058" lon="6.45271">
        <ele>1469.624</ele>
        <time>2018-09-13T15:02:38Z</time>
      </trkpt>
      <trkpt lat="44.08058" lon="6.4526">
        <ele>1465.194</ele>
        <time>2018-09-13T15:02:40Z</time>
      </trkpt>
      <trkpt lat="44.08058" lon="6.45252">
        <ele>1465.157</ele>
        <time>2018-09-13T15:02:42Z</time>
      </trkpt>
      <trkpt lat="44.08061" lon="6.45243">
        <ele>1464.422</ele>
        <time>2018-09-13T15:02:45Z</time>
      </trkpt>
      <trkpt lat="44.08065" lon="6.4524">
        <ele>1464.408</ele>
        <time>2018-09-13T15:02:47Z</time>
      </trkpt>
      <trkpt lat="44.08073" lon="6.45241">
        <ele>1464.411</ele>
        <time>2018-09-13T15:02:49Z</time>
      </trkpt>
      <trkpt lat="44.08079" lon="6.45247">
        <ele>1464.417</ele>
        <time>2018-09-13T15:02:51Z</time>
      </trkpt>
      <trkpt lat="44.08085" lon="6.45256">
        <ele>1461.664</ele>
        <time>2018-09-13T15:02:53Z</time>
      </trkpt>
      <trkpt lat="44.08088" lon="6.45261">
        <ele>1461.678</ele>
        <time>2018-09-13T15:02:54Z</time>
      </trkpt>
      <trkpt lat="44.08091" lon="6.45267">
        <ele>1461.669</ele>
        <time>2018-09-13T15:02:55Z</time>
      </trkpt>
      <trkpt lat="44.08095" lon="6.45271">
        <ele>1461.686</ele>
        <time>2018-09-13T15:02:56Z</time>
      </trkpt>
      <trkpt lat="44.081" lon="6.45274">
        <ele>1461.634</ele>
        <time>2018-09-13T15:02:57Z</time>
      </trkpt>
      <trkpt lat="44.08104" lon="6.45278">
        <ele>1461.675</ele>
        <time>2018-09-13T15:02:58Z</time>
      </trkpt>
      <trkpt lat="44.08108" lon="6.45283">
        <ele>1459.468</ele>
        <time>2018-09-13T15:02:59Z</time>
      </trkpt>
      <trkpt lat="44.08115" lon="6.45292">
        <ele>1459.442</ele>
        <time>2018-09-13T15:03:01Z</time>
      </trkpt>
      <trkpt lat="44.08118" lon="6.45298">
        <ele>1459.426</ele>
        <time>2018-09-13T15:03:02Z</time>
      </trkpt>
      <trkpt lat="44.0812" lon="6.45304">
        <ele>1459.408</ele>
        <time>2018-09-13T15:03:03Z</time>
      </trkpt>
      <trkpt lat="44.08123" lon="6.4531">
        <ele>1459.478</ele>
        <time>2018-09-13T15:03:04Z</time>
      </trkpt>
      <trkpt lat="44.08127" lon="6.45321">
        <ele>1459.424</ele>
        <time>2018-09-13T15:03:06Z</time>
      </trkpt>
      <trkpt lat="44.08129" lon="6.45328">
        <ele>1454.811</ele>
        <time>2018-09-13T15:03:07Z</time>
      </trkpt>
      <trkpt lat="44.08132" lon="6.4534">
        <ele>1454.815</ele>
        <time>2018-09-13T15:03:09Z</time>
      </trkpt>
      <trkpt lat="44.08135" lon="6.45346">
        <ele>1454.896</ele>
        <time>2018-09-13T15:03:10Z</time>
      </trkpt>
      <trkpt lat="44.08138" lon="6.45351">
        <ele>1454.853</ele>
        <time>2018-09-13T15:03:11Z</time>
      </trkpt>
      <trkpt lat="44.08142" lon="6.45361">
        <ele>1454.821</ele>
        <time>2018-09-13T15:03:13Z</time>
      </trkpt>
      <trkpt lat="44.08147" lon="6.4537">
        <ele>1450.962</ele>
        <time>2018-09-13T15:03:15Z</time>
      </trkpt>
      <trkpt lat="44.08154" lon="6.45374">
        <ele>1450.983</ele>
        <time>2018-09-13T15:03:17Z</time>
      </trkpt>
      <trkpt lat="44.08162" lon="6.45377">
        <ele>1449.825</ele>
        <time>2018-09-13T15:03:19Z</time>
      </trkpt>
      <trkpt lat="44.08168" lon="6.45377">
        <ele>1449.817</ele>
        <time>2018-09-13T15:03:20Z</time>
      </trkpt>
      <trkpt lat="44.08173" lon="6.45378">
        <ele>1449.808</ele>
        <time>2018-09-13T15:03:21Z</time>
      </trkpt>
      <trkpt lat="44.08179" lon="6.4538">
        <ele>1449.82</ele>
        <time>2018-09-13T15:03:22Z</time>
      </trkpt>
      <trkpt lat="44.08185" lon="6.45381">
        <ele>1449.856</ele>
        <time>2018-09-13T15:03:23Z</time>
      </trkpt>
      <trkpt lat="44.08191" lon="6.45381">
        <ele>1447.113</ele>
        <time>2018-09-13T15:03:24Z</time>
      </trkpt>
      <trkpt lat="44.08197" lon="6.45382">
        <ele>1447.177</ele>
        <time>2018-09-13T15:03:25Z</time>
      </trkpt>
      <trkpt lat="44.08206" lon="6.45382">
        <ele>1447.148</ele>
        <time>2018-09-13T15:03:27Z</time>
      </trkpt>
      <trkpt lat="44.08211" lon="6.45382">
        <ele>1447.165</ele>
        <time>2018-09-13T15:03:28Z</time>
      </trkpt>
      <trkpt lat="44.08217" lon="6.45383">
        <ele>1447.143</ele>
        <time>2018-09-13T15:03:29Z</time>
      </trkpt>
      <trkpt lat="44.08222" lon="6.45384">
        <ele>1444.444</ele>
        <time>2018-09-13T15:03:30Z</time>
      </trkpt>
      <trkpt lat="44.08227" lon="6.45383">
        <ele>1444.481</ele>
        <time>2018-09-13T15:03:31Z</time>
      </trkpt>
      <trkpt lat="44.08233" lon="6.45384">
        <ele>1444.461</ele>
        <time>2018-09-13T15:03:32Z</time>
      </trkpt>
      <trkpt lat="44.08238" lon="6.45382">
        <ele>1444.417</ele>
        <time>2018-09-13T15:03:33Z</time>
      </trkpt>
      <trkpt lat="44.08244" lon="6.45381">
        <ele>1443.108</ele>
        <time>2018-09-13T15:03:34Z</time>
      </trkpt>
      <trkpt lat="44.0825" lon="6.45381">
        <ele>1443.19</ele>
        <time>2018-09-13T15:03:35Z</time>
      </trkpt>
      <trkpt lat="44.08255" lon="6.45381">
        <ele>1443.116</ele>
        <time>2018-09-13T15:03:36Z</time>
      </trkpt>
      <trkpt lat="44.08261" lon="6.45381">
        <ele>1443.183</ele>
        <time>2018-09-13T15:03:37Z</time>
      </trkpt>
      <trkpt lat="44.08266" lon="6.45382">
        <ele>1443.117</ele>
        <time>2018-09-13T15:03:38Z</time>
      </trkpt>
      <trkpt lat="44.08276" lon="6.45383">
        <ele>1441.088</ele>
        <time>2018-09-13T15:03:40Z</time>
      </trkpt>
      <trkpt lat="44.08282" lon="6.45385">
        <ele>1441.055</ele>
        <time>2018-09-13T15:03:41Z</time>
      </trkpt>
      <trkpt lat="44.08287" lon="6.45386">
        <ele>1441.023</ele>
        <time>2018-09-13T15:03:42Z</time>
      </trkpt>
      <trkpt lat="44.08293" lon="6.45388">
        <ele>1439.664</ele>
        <time>2018-09-13T15:03:43Z</time>
      </trkpt>
      <trkpt lat="44.08299" lon="6.45388">
        <ele>1439.683</ele>
        <time>2018-09-13T15:03:44Z</time>
      </trkpt>
      <trkpt lat="44.08305" lon="6.45386">
        <ele>1439.625</ele>
        <time>2018-09-13T15:03:45Z</time>
      </trkpt>
      <trkpt lat="44.0831" lon="6.45386">
        <ele>1439.617</ele>
        <time>2018-09-13T15:03:46Z</time>
      </trkpt>
      <trkpt lat="44.08315" lon="6.45383">
        <ele>1439.608</ele>
        <time>2018-09-13T15:03:47Z</time>
      </trkpt>
      <trkpt lat="44.08323" lon="6.45382">
        <ele>1436.74</ele>
        <time>2018-09-13T15:03:49Z</time>
      </trkpt>
      <trkpt lat="44.08328" lon="6.45386">
        <ele>1436.756</ele>
        <time>2018-09-13T15:03:51Z</time>
      </trkpt>
      <trkpt lat="44.08327" lon="6.45393">
        <ele>1436.773</ele>
        <time>2018-09-13T15:03:53Z</time>
      </trkpt>
      <trkpt lat="44.08321" lon="6.45395">
        <ele>1436.787</ele>
        <time>2018-09-13T15:03:56Z</time>
      </trkpt>
      <trkpt lat="44.08314" lon="6.45394">
        <ele>1435.048</ele>
        <time>2018-09-13T15:03:58Z</time>
      </trkpt>
      <trkpt lat="44.08309" lon="6.45394">
        <ele>1435.085</ele>
        <time>2018-09-13T15:03:59Z</time>
      </trkpt>
      <trkpt lat="44.08304" lon="6.45394">
        <ele>1435.033</ele>
        <time>2018-09-13T15:04:00Z</time>
      </trkpt>
      <trkpt lat="44.08299" lon="6.45394">
        <ele>1435.094</ele>
        <time>2018-09-13T15:04:01Z</time>
      </trkpt>
      <trkpt lat="44.08294" lon="6.45397">
        <ele>1435.015</ele>
        <time>2018-09-13T15:04:02Z</time>
      </trkpt>
      <trkpt lat="44.08288" lon="6.454">
        <ele>1435.065</ele>
        <time>2018-09-13T15:04:03Z</time>
      </trkpt>
      <trkpt lat="44.08283" lon="6.45404">
        <ele>1435.011</ele>
        <time>2018-09-13T15:04:04Z</time>
      </trkpt>
      <trkpt lat="44.08277" lon="6.45407">
        <ele>1433.708</ele>
        <time>2018-09-13T15:04:05Z</time>
      </trkpt>
      <trkpt lat="44.08271" lon="6.45409">
        <ele>1433.713</ele>
        <time>2018-09-13T15:04:06Z</time>
      </trkpt>
      <trkpt lat="44.08265" lon="6.45411">
        <ele>1433.789</ele>
        <time>2018-09-13T15:04:07Z</time>
      </trkpt>
      <trkpt lat="44.08259" lon="6.4541">
        <ele>1433.746</ele>
        <time>2018-09-13T15:04:08Z</time>
      </trkpt>
      <trkpt lat="44.08254" lon="6.4541">
        <ele>1433.79</ele>
        <time>2018-09-13T15:04:09Z</time>
      </trkpt>
      <trkpt lat="44.08248" lon="6.45412">
        <ele>1433.721</ele>
        <time>2018-09-13T15:04:10Z</time>
      </trkpt>
      <trkpt lat="44.08242" lon="6.45415">
        <ele>1431.888</ele>
        <time>2018-09-13T15:04:11Z</time>
      </trkpt>
      <trkpt lat="44.08236" lon="6.45419">
        <ele>1431.816</ele>
        <time>2018-09-13T15:04:12Z</time>
      </trkpt>
      <trkpt lat="44.08231" lon="6.45421">
        <ele>1431.897</ele>
        <time>2018-09-13T15:04:13Z</time>
      </trkpt>
      <trkpt lat="44.08226" lon="6.45426">
        <ele>1431.892</ele>
        <time>2018-09-13T15:04:14Z</time>
      </trkpt>
      <trkpt lat="44.08224" lon="6.45432">
        <ele>1431.873</ele>
        <time>2018-09-13T15:04:15Z</time>
      </trkpt>
      <trkpt lat="44.0822" lon="6.45438">
        <ele>1431.82</ele>
        <time>2018-09-13T15:04:16Z</time>
      </trkpt>
      <trkpt lat="44.08216" lon="6.45443">
        <ele>1431.808</ele>
        <time>2018-09-13T15:04:17Z</time>
      </trkpt>
      <trkpt lat="44.08212" lon="6.45448">
        <ele>1431.871</ele>
        <time>2018-09-13T15:04:18Z</time>
      </trkpt>
      <trkpt lat="44.08208" lon="6.45455">
        <ele>1429.197</ele>
        <time>2018-09-13T15:04:19Z</time>
      </trkpt>
      <trkpt lat="44.08205" lon="6.45461">
        <ele>1429.134</ele>
        <time>2018-09-13T15:04:20Z</time>
      </trkpt>
      <trkpt lat="44.08201" lon="6.45466">
        <ele>1429.158</ele>
        <time>2018-09-13T15:04:21Z</time>
      </trkpt>
      <trkpt lat="44.08197" lon="6.45471">
        <ele>1429.149</ele>
        <time>2018-09-13T15:04:22Z</time>
      </trkpt>
      <trkpt lat="44.08192" lon="6.45477">
        <ele>1429.116</ele>
        <time>2018-09-13T15:04:23Z</time>
      </trkpt>
      <trkpt lat="44.08187" lon="6.45481">
        <ele>1429.194</ele>
        <time>2018-09-13T15:04:24Z</time>
      </trkpt>
      <trkpt lat="44.08182" lon="6.45486">
        <ele>1429.115</ele>
        <time>2018-09-13T15:04:25Z</time>
      </trkpt>
      <trkpt lat="44.08177" lon="6.45493">
        <ele>1429.144</ele>
        <time>2018-09-13T15:04:26Z</time>
      </trkpt>
      <trkpt lat="44.0817" lon="6.45498">
        <ele>1427.105</ele>
        <time>2018-09-13T15:04:27Z</time>
      </trkpt>
      <trkpt lat="44.08164" lon="6.45502">
        <ele>1427.115</ele>
        <time>2018-09-13T15:04:28Z</time>
      </trkpt>
      <trkpt lat="44.08157" lon="6.45505">
        <ele>1427.108</ele>
        <time>2018-09-13T15:04:29Z</time>
      </trkpt>
      <trkpt lat="44.08151" lon="6.45508">
        <ele>1427.156</ele>
        <time>2018-09-13T15:04:30Z</time>
      </trkpt>
      <trkpt lat="44.08146" lon="6.45512">
        <ele>1427.192</ele>
        <time>2018-09-13T15:04:31Z</time>
      </trkpt>
      <trkpt lat="44.08139" lon="6.45517">
        <ele>1427.119</ele>
        <time>2018-09-13T15:04:32Z</time>
      </trkpt>
      <trkpt lat="44.08133" lon="6.45522">
        <ele>1424.573</ele>
        <time>2018-09-13T15:04:33Z</time>
      </trkpt>
      <trkpt lat="44.08127" lon="6.45526">
        <ele>1424.564</ele>
        <time>2018-09-13T15:04:34Z</time>
      </trkpt>
      <trkpt lat="44.0812" lon="6.45533">
        <ele>1424.531</ele>
        <time>2018-09-13T15:04:35Z</time>
      </trkpt>
      <trkpt lat="44.08115" lon="6.45538">
        <ele>1424.569</ele>
        <time>2018-09-13T15:04:36Z</time>
      </trkpt>
      <trkpt lat="44.0811" lon="6.45544">
        <ele>1424.53</ele>
        <time>2018-09-13T15:04:37Z</time>
      </trkpt>
      <trkpt lat="44.08107" lon="6.4555">
        <ele>1424.589</ele>
        <time>2018-09-13T15:04:38Z</time>
      </trkpt>
      <trkpt lat="44.08102" lon="6.45557">
        <ele>1424.506</ele>
        <time>2018-09-13T15:04:39Z</time>
      </trkpt>
      <trkpt lat="44.08098" lon="6.45566">
        <ele>1421.226</ele>
        <time>2018-09-13T15:04:40Z</time>
      </trkpt>
      <trkpt lat="44.08095" lon="6.45574">
        <ele>1421.208</ele>
        <time>2018-09-13T15:04:41Z</time>
      </trkpt>
      <trkpt lat="44.08092" lon="6.45582">
        <ele>1421.24</ele>
        <time>2018-09-13T15:04:42Z</time>
      </trkpt>
      <trkpt lat="44.0809" lon="6.45589">
        <ele>1421.216</ele>
        <time>2018-09-13T15:04:43Z</time>
      </trkpt>
      <trkpt lat="44.08088" lon="6.45603">
        <ele>1421.213</ele>
        <time>2018-09-13T15:04:45Z</time>
      </trkpt>
      <trkpt lat="44.08085" lon="6.45611">
        <ele>1421.267</ele>
        <time>2018-09-13T15:04:46Z</time>
      </trkpt>
      <trkpt lat="44.0808" lon="6.45617">
        <ele>1421.268</ele>
        <time>2018-09-13T15:04:47Z</time>
      </trkpt>
      <trkpt lat="44.08075" lon="6.45624">
        <ele>1421.245</ele>
        <time>2018-09-13T15:04:48Z</time>
      </trkpt>
      <trkpt lat="44.08071" lon="6.4563">
        <ele>1421.223</ele>
        <time>2018-09-13T15:04:49Z</time>
      </trkpt>
      <trkpt lat="44.08065" lon="6.45635">
        <ele>1417.534</ele>
        <time>2018-09-13T15:04:50Z</time>
      </trkpt>
      <trkpt lat="44.0806" lon="6.4564">
        <ele>1417.546</ele>
        <time>2018-09-13T15:04:51Z</time>
      </trkpt>
      <trkpt lat="44.08053" lon="6.45646">
        <ele>1417.588</ele>
        <time>2018-09-13T15:04:52Z</time>
      </trkpt>
      <trkpt lat="44.08046" lon="6.45652">
        <ele>1417.516</ele>
        <time>2018-09-13T15:04:53Z</time>
      </trkpt>
      <trkpt lat="44.0804" lon="6.45659">
        <ele>1417.508</ele>
        <time>2018-09-13T15:04:54Z</time>
      </trkpt>
      <trkpt lat="44.08035" lon="6.45666">
        <ele>1417.526</ele>
        <time>2018-09-13T15:04:55Z</time>
      </trkpt>
      <trkpt lat="44.08029" lon="6.45671">
        <ele>1417.542</ele>
        <time>2018-09-13T15:04:56Z</time>
      </trkpt>
      <trkpt lat="44.08022" lon="6.45677">
        <ele>1417.519</ele>
        <time>2018-09-13T15:04:57Z</time>
      </trkpt>
      <trkpt lat="44.08015" lon="6.45684">
        <ele>1412.673</ele>
        <time>2018-09-13T15:04:58Z</time>
      </trkpt>
      <trkpt lat="44.0801" lon="6.45692">
        <ele>1412.294</ele>
        <time>2018-09-13T15:04:59Z</time>
      </trkpt>
      <trkpt lat="44.08003" lon="6.45699">
        <ele>1412.211</ele>
        <time>2018-09-13T15:05:00Z</time>
      </trkpt>
      <trkpt lat="44.07998" lon="6.45706">
        <ele>1412.229</ele>
        <time>2018-09-13T15:05:01Z</time>
      </trkpt>
      <trkpt lat="44.07994" lon="6.45713">
        <ele>1412.26</ele>
        <time>2018-09-13T15:05:02Z</time>
      </trkpt>
      <trkpt lat="44.07989" lon="6.4572">
        <ele>1412.284</ele>
        <time>2018-09-13T15:05:03Z</time>
      </trkpt>
      <trkpt lat="44.07984" lon="6.45728">
        <ele>1412.207</ele>
        <time>2018-09-13T15:05:04Z</time>
      </trkpt>
      <trkpt lat="44.0798" lon="6.45733">
        <ele>1412.217</ele>
        <time>2018-09-13T15:05:05Z</time>
      </trkpt>
      <trkpt lat="44.07976" lon="6.45741">
        <ele>1409.608</ele>
        <time>2018-09-13T15:05:06Z</time>
      </trkpt>
      <trkpt lat="44.07972" lon="6.45748">
        <ele>1409.64</ele>
        <time>2018-09-13T15:05:07Z</time>
      </trkpt>
      <trkpt lat="44.07966" lon="6.45755">
        <ele>1409.686</ele>
        <time>2018-09-13T15:05:08Z</time>
      </trkpt>
      <trkpt lat="44.07962" lon="6.45761">
        <ele>1409.623</ele>
        <time>2018-09-13T15:05:09Z</time>
      </trkpt>
      <trkpt lat="44.07956" lon="6.45766">
        <ele>1409.677</ele>
        <time>2018-09-13T15:05:10Z</time>
      </trkpt>
      <trkpt lat="44.0795" lon="6.45773">
        <ele>1409.648</ele>
        <time>2018-09-13T15:05:11Z</time>
      </trkpt>
      <trkpt lat="44.07944" lon="6.45779">
        <ele>1409.645</ele>
        <time>2018-09-13T15:05:12Z</time>
      </trkpt>
      <trkpt lat="44.0794" lon="6.45786">
        <ele>1407.823</ele>
        <time>2018-09-13T15:05:13Z</time>
      </trkpt>
      <trkpt lat="44.07936" lon="6.45792">
        <ele>1407.874</ele>
        <time>2018-09-13T15:05:14Z</time>
      </trkpt>
      <trkpt lat="44.0793" lon="6.45797">
        <ele>1407.813</ele>
        <time>2018-09-13T15:05:15Z</time>
      </trkpt>
      <trkpt lat="44.07925" lon="6.45801">
        <ele>1407.843</ele>
        <time>2018-09-13T15:05:16Z</time>
      </trkpt>
      <trkpt lat="44.07919" lon="6.45808">
        <ele>1407.807</ele>
        <time>2018-09-13T15:05:17Z</time>
      </trkpt>
      <trkpt lat="44.07913" lon="6.45812">
        <ele>1407.808</ele>
        <time>2018-09-13T15:05:18Z</time>
      </trkpt>
      <trkpt lat="44.07906" lon="6.45817">
        <ele>1404.523</ele>
        <time>2018-09-13T15:05:19Z</time>
      </trkpt>
      <trkpt lat="44.07898" lon="6.45823">
        <ele>1404.569</ele>
        <time>2018-09-13T15:05:20Z</time>
      </trkpt>
      <trkpt lat="44.07892" lon="6.45829">
        <ele>1404.586</ele>
        <time>2018-09-13T15:05:21Z</time>
      </trkpt>
      <trkpt lat="44.07887" lon="6.45837">
        <ele>1404.58</ele>
        <time>2018-09-13T15:05:22Z</time>
      </trkpt>
      <trkpt lat="44.07881" lon="6.45844">
        <ele>1404.571</ele>
        <time>2018-09-13T15:05:23Z</time>
      </trkpt>
      <trkpt lat="44.07877" lon="6.45851">
        <ele>1404.578</ele>
        <time>2018-09-13T15:05:24Z</time>
      </trkpt>
      <trkpt lat="44.07872" lon="6.45862">
        <ele>1404.556</ele>
        <time>2018-09-13T15:05:25Z</time>
      </trkpt>
      <trkpt lat="44.07868" lon="6.45871">
        <ele>1401.757</ele>
        <time>2018-09-13T15:05:26Z</time>
      </trkpt>
      <trkpt lat="44.07867" lon="6.4588">
        <ele>1401.764</ele>
        <time>2018-09-13T15:05:27Z</time>
      </trkpt>
      <trkpt lat="44.07862" lon="6.45891">
        <ele>1401.706</ele>
        <time>2018-09-13T15:05:28Z</time>
      </trkpt>
      <trkpt lat="44.07861" lon="6.45898">
        <ele>1401.716</ele>
        <time>2018-09-13T15:05:29Z</time>
      </trkpt>
      <trkpt lat="44.07856" lon="6.45907">
        <ele>1401.708</ele>
        <time>2018-09-13T15:05:30Z</time>
      </trkpt>
      <trkpt lat="44.07858" lon="6.45917">
        <ele>1401.778</ele>
        <time>2018-09-13T15:05:31Z</time>
      </trkpt>
      <trkpt lat="44.07857" lon="6.45929">
        <ele>1401.764</ele>
        <time>2018-09-13T15:05:32Z</time>
      </trkpt>
      <trkpt lat="44.07855" lon="6.45941">
        <ele>1400.061</ele>
        <time>2018-09-13T15:05:33Z</time>
      </trkpt>
      <trkpt lat="44.07857" lon="6.45949">
        <ele>1400.025</ele>
        <time>2018-09-13T15:05:34Z</time>
      </trkpt>
      <trkpt lat="44.0786" lon="6.45958">
        <ele>1400.026</ele>
        <time>2018-09-13T15:05:35Z</time>
      </trkpt>
      <trkpt lat="44.07861" lon="6.45967">
        <ele>1400.043</ele>
        <time>2018-09-13T15:05:36Z</time>
      </trkpt>
      <trkpt lat="44.07865" lon="6.45972">
        <ele>1400.011</ele>
        <time>2018-09-13T15:05:37Z</time>
      </trkpt>
      <trkpt lat="44.07865" lon="6.45987">
        <ele>1400.042</ele>
        <time>2018-09-13T15:05:38Z</time>
      </trkpt>
      <trkpt lat="44.07864" lon="6.46">
        <ele>1400.033</ele>
        <time>2018-09-13T15:05:39Z</time>
      </trkpt>
      <trkpt lat="44.07865" lon="6.46013">
        <ele>1400.023</ele>
        <time>2018-09-13T15:05:40Z</time>
      </trkpt>
      <trkpt lat="44.07866" lon="6.46023">
        <ele>1396.215</ele>
        <time>2018-09-13T15:05:41Z</time>
      </trkpt>
      <trkpt lat="44.07868" lon="6.46034">
        <ele>1396.208</ele>
        <time>2018-09-13T15:05:42Z</time>
      </trkpt>
      <trkpt lat="44.07871" lon="6.46045">
        <ele>1396.255</ele>
        <time>2018-09-13T15:05:43Z</time>
      </trkpt>
      <trkpt lat="44.07874" lon="6.46057">
        <ele>1396.281</ele>
        <time>2018-09-13T15:05:44Z</time>
      </trkpt>
      <trkpt lat="44.07876" lon="6.46068">
        <ele>1396.288</ele>
        <time>2018-09-13T15:05:45Z</time>
      </trkpt>
      <trkpt lat="44.07878" lon="6.46079">
        <ele>1393.272</ele>
        <time>2018-09-13T15:05:46Z</time>
      </trkpt>
      <trkpt lat="44.07881" lon="6.46091">
        <ele>1393.223</ele>
        <time>2018-09-13T15:05:47Z</time>
      </trkpt>
      <trkpt lat="44.07883" lon="6.46103">
        <ele>1393.28</ele>
        <time>2018-09-13T15:05:48Z</time>
      </trkpt>
      <trkpt lat="44.07885" lon="6.46115">
        <ele>1393.268</ele>
        <time>2018-09-13T15:05:49Z</time>
      </trkpt>
      <trkpt lat="44.07887" lon="6.46127">
        <ele>1393.259</ele>
        <time>2018-09-13T15:05:50Z</time>
      </trkpt>
      <trkpt lat="44.07889" lon="6.4614">
        <ele>1389.474</ele>
        <time>2018-09-13T15:05:51Z</time>
      </trkpt>
      <trkpt lat="44.07892" lon="6.46152">
        <ele>1389.456</ele>
        <time>2018-09-13T15:05:52Z</time>
      </trkpt>
      <trkpt lat="44.07895" lon="6.46162">
        <ele>1389.421</ele>
        <time>2018-09-13T15:05:53Z</time>
      </trkpt>
      <trkpt lat="44.07897" lon="6.46174">
        <ele>1389.408</ele>
        <time>2018-09-13T15:05:54Z</time>
      </trkpt>
      <trkpt lat="44.07898" lon="6.46187">
        <ele>1389.499</ele>
        <time>2018-09-13T15:05:55Z</time>
      </trkpt>
      <trkpt lat="44.07901" lon="6.46201">
        <ele>1389.425</ele>
        <time>2018-09-13T15:05:56Z</time>
      </trkpt>
      <trkpt lat="44.07903" lon="6.46213">
        <ele>1387.222</ele>
        <time>2018-09-13T15:05:57Z</time>
      </trkpt>
      <trkpt lat="44.07905" lon="6.46227">
        <ele>1387.216</ele>
        <time>2018-09-13T15:05:58Z</time>
      </trkpt>
      <trkpt lat="44.07906" lon="6.46242">
        <ele>1387.267</ele>
        <time>2018-09-13T15:05:59Z</time>
      </trkpt>
      <trkpt lat="44.07908" lon="6.46255">
        <ele>1387.234</ele>
        <time>2018-09-13T15:06:00Z</time>
      </trkpt>
      <trkpt lat="44.0791" lon="6.46269">
        <ele>1387.212</ele>
        <time>2018-09-13T15:06:01Z</time>
      </trkpt>
      <trkpt lat="44.0791" lon="6.46282">
        <ele>1384.083</ele>
        <time>2018-09-13T15:06:02Z</time>
      </trkpt>
      <trkpt lat="44.0791" lon="6.46296">
        <ele>1384.059</ele>
        <time>2018-09-13T15:06:03Z</time>
      </trkpt>
      <trkpt lat="44.07909" lon="6.46309">
        <ele>1384.003</ele>
        <time>2018-09-13T15:06:04Z</time>
      </trkpt>
      <trkpt lat="44.07909" lon="6.46321">
        <ele>1384.023</ele>
        <time>2018-09-13T15:06:05Z</time>
      </trkpt>
      <trkpt lat="44.07909" lon="6.46334">
        <ele>1384.008</ele>
        <time>2018-09-13T15:06:06Z</time>
      </trkpt>
      <trkpt lat="44.0791" lon="6.46347">
        <ele>1384.097</ele>
        <time>2018-09-13T15:06:07Z</time>
      </trkpt>
      <trkpt lat="44.07911" lon="6.4636">
        <ele>1381.673</ele>
        <time>2018-09-13T15:06:08Z</time>
      </trkpt>
      <trkpt lat="44.07912" lon="6.46372">
        <ele>1381.68</ele>
        <time>2018-09-13T15:06:09Z</time>
      </trkpt>
      <trkpt lat="44.07912" lon="6.46385">
        <ele>1381.684</ele>
        <time>2018-09-13T15:06:10Z</time>
      </trkpt>
      <trkpt lat="44.07913" lon="6.46397">
        <ele>1381.655</ele>
        <time>2018-09-13T15:06:11Z</time>
      </trkpt>
      <trkpt lat="44.07913" lon="6.46411">
        <ele>1380.192</ele>
        <time>2018-09-13T15:06:12Z</time>
      </trkpt>
      <trkpt lat="44.07913" lon="6.46424">
        <ele>1380.15</ele>
        <time>2018-09-13T15:06:13Z</time>
      </trkpt>
      <trkpt lat="44.07913" lon="6.46438">
        <ele>1380.181</ele>
        <time>2018-09-13T15:06:14Z</time>
      </trkpt>
      <trkpt lat="44.07912" lon="6.46452">
        <ele>1380.192</ele>
        <time>2018-09-13T15:06:15Z</time>
      </trkpt>
      <trkpt lat="44.07912" lon="6.46465">
        <ele>1380.173</ele>
        <time>2018-09-13T15:06:16Z</time>
      </trkpt>
      <trkpt lat="44.07911" lon="6.46478">
        <ele>1378.12</ele>
        <time>2018-09-13T15:06:17Z</time>
      </trkpt>
      <trkpt lat="44.07909" lon="6.4649">
        <ele>1378.108</ele>
        <time>2018-09-13T15:06:18Z</time>
      </trkpt>
      <trkpt lat="44.07907" lon="6.46502">
        <ele>1378.181</ele>
        <time>2018-09-13T15:06:19Z</time>
      </trkpt>
      <trkpt lat="44.07904" lon="6.46513">
        <ele>1378.167</ele>
        <time>2018-09-13T15:06:20Z</time>
      </trkpt>
      <trkpt lat="44.07903" lon="6.46526">
        <ele>1378.184</ele>
        <time>2018-09-13T15:06:21Z</time>
      </trkpt>
      <trkpt lat="44.07904" lon="6.46536">
        <ele>1377.348</ele>
        <time>2018-09-13T15:06:22Z</time>
      </trkpt>
      <trkpt lat="44.07905" lon="6.46548">
        <ele>1377.369</ele>
        <time>2018-09-13T15:06:23Z</time>
      </trkpt>
      <trkpt lat="44.07907" lon="6.46559">
        <ele>1377.366</ele>
        <time>2018-09-13T15:06:24Z</time>
      </trkpt>
      <trkpt lat="44.07908" lon="6.46571">
        <ele>1377.394</ele>
        <time>2018-09-13T15:06:25Z</time>
      </trkpt>
      <trkpt lat="44.07908" lon="6.46584">
        <ele>1377.455</ele>
        <time>2018-09-13T15:06:26Z</time>
      </trkpt>
      <trkpt lat="44.07906" lon="6.46596">
        <ele>1377.465</ele>
        <time>2018-09-13T15:06:27Z</time>
      </trkpt>
      <trkpt lat="44.07904" lon="6.46609">
        <ele>1377.468</ele>
        <time>2018-09-13T15:06:28Z</time>
      </trkpt>
      <trkpt lat="44.07902" lon="6.4662">
        <ele>1377.414</ele>
        <time>2018-09-13T15:06:29Z</time>
      </trkpt>
      <trkpt lat="44.07901" lon="6.4663">
        <ele>1377.208</ele>
        <time>2018-09-13T15:06:30Z</time>
      </trkpt>
      <trkpt lat="44.07898" lon="6.46641">
        <ele>1377.248</ele>
        <time>2018-09-13T15:06:31Z</time>
      </trkpt>
      <trkpt lat="44.07896" lon="6.46654">
        <ele>1377.234</ele>
        <time>2018-09-13T15:06:32Z</time>
      </trkpt>
      <trkpt lat="44.07892" lon="6.46666">
        <ele>1377.211</ele>
        <time>2018-09-13T15:06:33Z</time>
      </trkpt>
      <trkpt lat="44.07889" lon="6.46679">
        <ele>1377.225</ele>
        <time>2018-09-13T15:06:34Z</time>
      </trkpt>
      <trkpt lat="44.07886" lon="6.46689">
        <ele>1376.286</ele>
        <time>2018-09-13T15:06:35Z</time>
      </trkpt>
      <trkpt lat="44.07881" lon="6.46701">
        <ele>1376.263</ele>
        <time>2018-09-13T15:06:36Z</time>
      </trkpt>
      <trkpt lat="44.07876" lon="6.46713">
        <ele>1376.291</ele>
        <time>2018-09-13T15:06:37Z</time>
      </trkpt>
      <trkpt lat="44.07872" lon="6.46723">
        <ele>1376.212</ele>
        <time>2018-09-13T15:06:38Z</time>
      </trkpt>
      <trkpt lat="44.07868" lon="6.46734">
        <ele>1376.243</ele>
        <time>2018-09-13T15:06:39Z</time>
      </trkpt>
      <trkpt lat="44.07865" lon="6.46741">
        <ele>1376.264</ele>
        <time>2018-09-13T15:06:40Z</time>
      </trkpt>
      <trkpt lat="44.07861" lon="6.46746">
        <ele>1376.21</ele>
        <time>2018-09-13T15:06:41Z</time>
      </trkpt>
      <trkpt lat="44.07858" lon="6.46755">
        <ele>1373.108</ele>
        <time>2018-09-13T15:06:42Z</time>
      </trkpt>
      <trkpt lat="44.07856" lon="6.46762">
        <ele>1373.146</ele>
        <time>2018-09-13T15:06:43Z</time>
      </trkpt>
      <trkpt lat="44.07853" lon="6.46772">
        <ele>1373.112</ele>
        <time>2018-09-13T15:06:44Z</time>
      </trkpt>
      <trkpt lat="44.07853" lon="6.46781">
        <ele>1373.119</ele>
        <time>2018-09-13T15:06:45Z</time>
      </trkpt>
      <trkpt lat="44.07851" lon="6.46791">
        <ele>1373.183</ele>
        <time>2018-09-13T15:06:46Z</time>
      </trkpt>
      <trkpt lat="44.07848" lon="6.46801">
        <ele>1373.164</ele>
        <time>2018-09-13T15:06:47Z</time>
      </trkpt>
      <trkpt lat="44.07847" lon="6.46809">
        <ele>1369.361</ele>
        <time>2018-09-13T15:06:48Z</time>
      </trkpt>
      <trkpt lat="44.07846" lon="6.46817">
        <ele>1369.199</ele>
        <time>2018-09-13T15:06:49Z</time>
      </trkpt>
      <trkpt lat="44.07844" lon="6.46826">
        <ele>1369.16</ele>
        <time>2018-09-13T15:06:50Z</time>
      </trkpt>
      <trkpt lat="44.07843" lon="6.46834">
        <ele>1369.179</ele>
        <time>2018-09-13T15:06:51Z</time>
      </trkpt>
      <trkpt lat="44.07841" lon="6.46843">
        <ele>1369.105</ele>
        <time>2018-09-13T15:06:52Z</time>
      </trkpt>
      <trkpt lat="44.07839" lon="6.46852">
        <ele>1369.125</ele>
        <time>2018-09-13T15:06:53Z</time>
      </trkpt>
      <trkpt lat="44.07838" lon="6.46861">
        <ele>1369.108</ele>
        <time>2018-09-13T15:06:54Z</time>
      </trkpt>
      <trkpt lat="44.07837" lon="6.46872">
        <ele>1369.259</ele>
        <time>2018-09-13T15:06:55Z</time>
      </trkpt>
      <trkpt lat="44.07836" lon="6.46882">
        <ele>1369.295</ele>
        <time>2018-09-13T15:06:56Z</time>
      </trkpt>
      <trkpt lat="44.07834" lon="6.46894">
        <ele>1369.742</ele>
        <time>2018-09-13T15:06:57Z</time>
      </trkpt>
      <trkpt lat="44.07831" lon="6.46906">
        <ele>1369.716</ele>
        <time>2018-09-13T15:06:58Z</time>
      </trkpt>
      <trkpt lat="44.07828" lon="6.46917">
        <ele>1369.797</ele>
        <time>2018-09-13T15:06:59Z</time>
      </trkpt>
      <trkpt lat="44.07827" lon="6.46928">
        <ele>1370.094</ele>
        <time>2018-09-13T15:07:00Z</time>
      </trkpt>
      <trkpt lat="44.07825" lon="6.46938">
        <ele>1370.052</ele>
        <time>2018-09-13T15:07:01Z</time>
      </trkpt>
      <trkpt lat="44.07823" lon="6.4695">
        <ele>1370.063</ele>
        <time>2018-09-13T15:07:02Z</time>
      </trkpt>
      <trkpt lat="44.07822" lon="6.46961">
        <ele>1370.054</ele>
        <time>2018-09-13T15:07:03Z</time>
      </trkpt>
      <trkpt lat="44.07821" lon="6.46971">
        <ele>1370.056</ele>
        <time>2018-09-13T15:07:04Z</time>
      </trkpt>
      <trkpt lat="44.0782" lon="6.46981">
        <ele>1370.811</ele>
        <time>2018-09-13T15:07:05Z</time>
      </trkpt>
      <trkpt lat="44.07818" lon="6.46991">
        <ele>1370.808</ele>
        <time>2018-09-13T15:07:06Z</time>
      </trkpt>
      <trkpt lat="44.07817" lon="6.47002">
        <ele>1370.897</ele>
        <time>2018-09-13T15:07:07Z</time>
      </trkpt>
      <trkpt lat="44.07815" lon="6.47013">
        <ele>1371.123</ele>
        <time>2018-09-13T15:07:08Z</time>
      </trkpt>
      <trkpt lat="44.07815" lon="6.47023">
        <ele>1372.34</ele>
        <time>2018-09-13T15:07:09Z</time>
      </trkpt>
      <trkpt lat="44.07814" lon="6.47034">
        <ele>1372.314</ele>
        <time>2018-09-13T15:07:10Z</time>
      </trkpt>
      <trkpt lat="44.07813" lon="6.47045">
        <ele>1372.365</ele>
        <time>2018-09-13T15:07:11Z</time>
      </trkpt>
      <trkpt lat="44.07811" lon="6.47056">
        <ele>1372.332</ele>
        <time>2018-09-13T15:07:12Z</time>
      </trkpt>
      <trkpt lat="44.07811" lon="6.47067">
        <ele>1372.33</ele>
        <time>2018-09-13T15:07:13Z</time>
      </trkpt>
      <trkpt lat="44.07809" lon="6.47078">
        <ele>1373.881</ele>
        <time>2018-09-13T15:07:14Z</time>
      </trkpt>
      <trkpt lat="44.07808" lon="6.47089">
        <ele>1373.861</ele>
        <time>2018-09-13T15:07:15Z</time>
      </trkpt>
      <trkpt lat="44.07806" lon="6.47099">
        <ele>1373.821</ele>
        <time>2018-09-13T15:07:16Z</time>
      </trkpt>
      <trkpt lat="44.07806" lon="6.47109">
        <ele>1373.813</ele>
        <time>2018-09-13T15:07:17Z</time>
      </trkpt>
      <trkpt lat="44.07804" lon="6.47119">
        <ele>1373.808</ele>
        <time>2018-09-13T15:07:18Z</time>
      </trkpt>
      <trkpt lat="44.07805" lon="6.4713">
        <ele>1375.438</ele>
        <time>2018-09-13T15:07:19Z</time>
      </trkpt>
      <trkpt lat="44.07806" lon="6.47139">
        <ele>1375.414</ele>
        <time>2018-09-13T15:07:20Z</time>
      </trkpt>
      <trkpt lat="44.07806" lon="6.47148">
        <ele>1375.421</ele>
        <time>2018-09-13T15:07:21Z</time>
      </trkpt>
      <trkpt lat="44.07809" lon="6.47156">
        <ele>1375.475</ele>
        <time>2018-09-13T15:07:22Z</time>
      </trkpt>
      <trkpt lat="44.07811" lon="6.47165">
        <ele>1375.496</ele>
        <time>2018-09-13T15:07:23Z</time>
      </trkpt>
      <trkpt lat="44.07814" lon="6.47173">
        <ele>1375.473</ele>
        <time>2018-09-13T15:07:24Z</time>
      </trkpt>
      <trkpt lat="44.07818" lon="6.47181">
        <ele>1375.421</ele>
        <time>2018-09-13T15:07:25Z</time>
      </trkpt>
      <trkpt lat="44.07821" lon="6.4719">
        <ele>1377.482</ele>
        <time>2018-09-13T15:07:26Z</time>
      </trkpt>
      <trkpt lat="44.07825" lon="6.47198">
        <ele>1377.451</ele>
        <time>2018-09-13T15:07:27Z</time>
      </trkpt>
      <trkpt lat="44.07828" lon="6.47206">
        <ele>1377.401</ele>
        <time>2018-09-13T15:07:28Z</time>
      </trkpt>
      <trkpt lat="44.07831" lon="6.47215">
        <ele>1377.411</ele>
        <time>2018-09-13T15:07:29Z</time>
      </trkpt>
      <trkpt lat="44.07834" lon="6.47223">
        <ele>1377.408</ele>
        <time>2018-09-13T15:07:30Z</time>
      </trkpt>
      <trkpt lat="44.07837" lon="6.47233">
        <ele>1377.437</ele>
        <time>2018-09-13T15:07:31Z</time>
      </trkpt>
      <trkpt lat="44.07841" lon="6.47242">
        <ele>1376.993</ele>
        <time>2018-09-13T15:07:32Z</time>
      </trkpt>
      <trkpt lat="44.07845" lon="6.47251">
        <ele>1376.95</ele>
        <time>2018-09-13T15:07:33Z</time>
      </trkpt>
      <trkpt lat="44.07848" lon="6.47261">
        <ele>1376.124</ele>
        <time>2018-09-13T15:07:34Z</time>
      </trkpt>
      <trkpt lat="44.07852" lon="6.47272">
        <ele>1376.135</ele>
        <time>2018-09-13T15:07:35Z</time>
      </trkpt>
      <trkpt lat="44.07855" lon="6.47281">
        <ele>1376.142</ele>
        <time>2018-09-13T15:07:36Z</time>
      </trkpt>
      <trkpt lat="44.07859" lon="6.47291">
        <ele>1376.12</ele>
        <time>2018-09-13T15:07:37Z</time>
      </trkpt>
      <trkpt lat="44.07862" lon="6.47302">
        <ele>1376.181</ele>
        <time>2018-09-13T15:07:38Z</time>
      </trkpt>
      <trkpt lat="44.07865" lon="6.47311">
        <ele>1376.139</ele>
        <time>2018-09-13T15:07:39Z</time>
      </trkpt>
      <trkpt lat="44.07867" lon="6.47321">
        <ele>1376.101</ele>
        <time>2018-09-13T15:07:40Z</time>
      </trkpt>
      <trkpt lat="44.07869" lon="6.4733">
        <ele>1376.121</ele>
        <time>2018-09-13T15:07:41Z</time>
      </trkpt>
      <trkpt lat="44.07871" lon="6.47342">
        <ele>1376.108</ele>
        <time>2018-09-13T15:07:42Z</time>
      </trkpt>
      <trkpt lat="44.07872" lon="6.47353">
        <ele>1374.215</ele>
        <time>2018-09-13T15:07:43Z</time>
      </trkpt>
      <trkpt lat="44.07874" lon="6.47364">
        <ele>1374.261</ele>
        <time>2018-09-13T15:07:44Z</time>
      </trkpt>
      <trkpt lat="44.07878" lon="6.47374">
        <ele>1374.288</ele>
        <time>2018-09-13T15:07:45Z</time>
      </trkpt>
      <trkpt lat="44.07881" lon="6.47385">
        <ele>1374.262</ele>
        <time>2018-09-13T15:07:46Z</time>
      </trkpt>
      <trkpt lat="44.07885" lon="6.47395">
        <ele>1374.213</ele>
        <time>2018-09-13T15:07:47Z</time>
      </trkpt>
      <trkpt lat="44.07889" lon="6.47405">
        <ele>1374.29</ele>
        <time>2018-09-13T15:07:48Z</time>
      </trkpt>
      <trkpt lat="44.07892" lon="6.47414">
        <ele>1372.658</ele>
        <time>2018-09-13T15:07:49Z</time>
      </trkpt>
      <trkpt lat="44.07896" lon="6.47423">
        <ele>1372.659</ele>
        <time>2018-09-13T15:07:50Z</time>
      </trkpt>
      <trkpt lat="44.079" lon="6.47433">
        <ele>1372.633</ele>
        <time>2018-09-13T15:07:51Z</time>
      </trkpt>
      <trkpt lat="44.07904" lon="6.47443">
        <ele>1372.623</ele>
        <time>2018-09-13T15:07:52Z</time>
      </trkpt>
      <trkpt lat="44.07908" lon="6.47454">
        <ele>1372.615</ele>
        <time>2018-09-13T15:07:53Z</time>
      </trkpt>
      <trkpt lat="44.07912" lon="6.47464">
        <ele>1372.608</ele>
        <time>2018-09-13T15:07:54Z</time>
      </trkpt>
      <trkpt lat="44.07917" lon="6.47475">
        <ele>1370.825</ele>
        <time>2018-09-13T15:07:55Z</time>
      </trkpt>
      <trkpt lat="44.07922" lon="6.47484">
        <ele>1370.811</ele>
        <time>2018-09-13T15:07:56Z</time>
      </trkpt>
      <trkpt lat="44.07927" lon="6.47494">
        <ele>1370.818</ele>
        <time>2018-09-13T15:07:57Z</time>
      </trkpt>
      <trkpt lat="44.07932" lon="6.47503">
        <ele>1370.862</ele>
        <time>2018-09-13T15:07:58Z</time>
      </trkpt>
      <trkpt lat="44.07937" lon="6.47514">
        <ele>1370.833</ele>
        <time>2018-09-13T15:07:59Z</time>
      </trkpt>
      <trkpt lat="44.07942" lon="6.47523">
        <ele>1370.81</ele>
        <time>2018-09-13T15:08:00Z</time>
      </trkpt>
      <trkpt lat="44.07948" lon="6.47533">
        <ele>1368.578</ele>
        <time>2018-09-13T15:08:01Z</time>
      </trkpt>
      <trkpt lat="44.07952" lon="6.47543">
        <ele>1368.569</ele>
        <time>2018-09-13T15:08:02Z</time>
      </trkpt>
      <trkpt lat="44.07957" lon="6.47553">
        <ele>1368.535</ele>
        <time>2018-09-13T15:08:03Z</time>
      </trkpt>
      <trkpt lat="44.07962" lon="6.47563">
        <ele>1368.586</ele>
        <time>2018-09-13T15:08:04Z</time>
      </trkpt>
      <trkpt lat="44.07967" lon="6.47572">
        <ele>1368.514</ele>
        <time>2018-09-13T15:08:05Z</time>
      </trkpt>
      <trkpt lat="44.07972" lon="6.47583">
        <ele>1366.108</ele>
        <time>2018-09-13T15:08:06Z</time>
      </trkpt>
      <trkpt lat="44.07977" lon="6.47592">
        <ele>1366.145</ele>
        <time>2018-09-13T15:08:07Z</time>
      </trkpt>
      <trkpt lat="44.07982" lon="6.47602">
        <ele>1366.181</ele>
        <time>2018-09-13T15:08:08Z</time>
      </trkpt>
      <trkpt lat="44.07988" lon="6.47613">
        <ele>1366.188</ele>
        <time>2018-09-13T15:08:09Z</time>
      </trkpt>
      <trkpt lat="44.07993" lon="6.47623">
        <ele>1366.152</ele>
        <time>2018-09-13T15:08:10Z</time>
      </trkpt>
      <trkpt lat="44.07998" lon="6.47634">
        <ele>1363.853</ele>
        <time>2018-09-13T15:08:11Z</time>
      </trkpt>
      <trkpt lat="44.08004" lon="6.47645">
        <ele>1363.87</ele>
        <time>2018-09-13T15:08:12Z</time>
      </trkpt>
      <trkpt lat="44.08009" lon="6.47657">
        <ele>1363.888</ele>
        <time>2018-09-13T15:08:13Z</time>
      </trkpt>
      <trkpt lat="44.08015" lon="6.47667">
        <ele>1363.819</ele>
        <time>2018-09-13T15:08:14Z</time>
      </trkpt>
      <trkpt lat="44.08021" lon="6.47677">
        <ele>1363.845</ele>
        <time>2018-09-13T15:08:15Z</time>
      </trkpt>
      <trkpt lat="44.08025" lon="6.47687">
        <ele>1361.847</ele>
        <time>2018-09-13T15:08:16Z</time>
      </trkpt>
      <trkpt lat="44.0803" lon="6.47696">
        <ele>1361.811</ele>
        <time>2018-09-13T15:08:17Z</time>
      </trkpt>
      <trkpt lat="44.08035" lon="6.47705">
        <ele>1361.808</ele>
        <time>2018-09-13T15:08:18Z</time>
      </trkpt>
      <trkpt lat="44.08039" lon="6.47713">
        <ele>1361.886</ele>
        <time>2018-09-13T15:08:19Z</time>
      </trkpt>
      <trkpt lat="44.08042" lon="6.47723">
        <ele>1361.842</ele>
        <time>2018-09-13T15:08:20Z</time>
      </trkpt>
      <trkpt lat="44.08045" lon="6.47733">
        <ele>1360.499</ele>
        <time>2018-09-13T15:08:21Z</time>
      </trkpt>
      <trkpt lat="44.08049" lon="6.47743">
        <ele>1360.423</ele>
        <time>2018-09-13T15:08:22Z</time>
      </trkpt>
      <trkpt lat="44.08052" lon="6.47755">
        <ele>1360.464</ele>
        <time>2018-09-13T15:08:23Z</time>
      </trkpt>
      <trkpt lat="44.08056" lon="6.47765">
        <ele>1360.421</ele>
        <time>2018-09-13T15:08:24Z</time>
      </trkpt>
      <trkpt lat="44.08061" lon="6.47774">
        <ele>1360.449</ele>
        <time>2018-09-13T15:08:25Z</time>
      </trkpt>
      <trkpt lat="44.08066" lon="6.47782">
        <ele>1360.24</ele>
        <time>2018-09-13T15:08:26Z</time>
      </trkpt>
      <trkpt lat="44.08071" lon="6.47789">
        <ele>1360.239</ele>
        <time>2018-09-13T15:08:27Z</time>
      </trkpt>
      <trkpt lat="44.08076" lon="6.47797">
        <ele>1360.201</ele>
        <time>2018-09-13T15:08:28Z</time>
      </trkpt>
      <trkpt lat="44.08079" lon="6.47805">
        <ele>1360.221</ele>
        <time>2018-09-13T15:08:29Z</time>
      </trkpt>
      <trkpt lat="44.08081" lon="6.47815">
        <ele>1360.208</ele>
        <time>2018-09-13T15:08:30Z</time>
      </trkpt>
      <trkpt lat="44.08081" lon="6.47825">
        <ele>1360.225</ele>
        <time>2018-09-13T15:08:31Z</time>
      </trkpt>
      <trkpt lat="44.08083" lon="6.47833">
        <ele>1360.211</ele>
        <time>2018-09-13T15:08:32Z</time>
      </trkpt>
      <trkpt lat="44.08088" lon="6.47839">
        <ele>1360.288</ele>
        <time>2018-09-13T15:08:33Z</time>
      </trkpt>
      <trkpt lat="44.08094" lon="6.47843">
        <ele>1360.252</ele>
        <time>2018-09-13T15:08:34Z</time>
      </trkpt>
      <trkpt lat="44.08101" lon="6.47845">
        <ele>1360.293</ele>
        <time>2018-09-13T15:08:35Z</time>
      </trkpt>
      <trkpt lat="44.08108" lon="6.47845">
        <ele>1360.21</ele>
        <time>2018-09-13T15:08:36Z</time>
      </trkpt>
      <trkpt lat="44.08117" lon="6.47845">
        <ele>1360.238</ele>
        <time>2018-09-13T15:08:37Z</time>
      </trkpt>
      <trkpt lat="44.08125" lon="6.47843">
        <ele>1360.269</ele>
        <time>2018-09-13T15:08:38Z</time>
      </trkpt>
      <trkpt lat="44.08134" lon="6.47843">
        <ele>1360.353</ele>
        <time>2018-09-13T15:08:39Z</time>
      </trkpt>
      <trkpt lat="44.08143" lon="6.47843">
        <ele>1360.304</ele>
        <time>2018-09-13T15:08:40Z</time>
      </trkpt>
      <trkpt lat="44.08152" lon="6.47842">
        <ele>1360.314</ele>
        <time>2018-09-13T15:08:41Z</time>
      </trkpt>
      <trkpt lat="44.08161" lon="6.47842">
        <ele>1360.308</ele>
        <time>2018-09-13T15:08:42Z</time>
      </trkpt>
      <trkpt lat="44.08171" lon="6.47842">
        <ele>1360.357</ele>
        <time>2018-09-13T15:08:43Z</time>
      </trkpt>
      <trkpt lat="44.08181" lon="6.47841">
        <ele>1360.313</ele>
        <time>2018-09-13T15:08:44Z</time>
      </trkpt>
      <trkpt lat="44.08191" lon="6.47842">
        <ele>1355.04</ele>
        <time>2018-09-13T15:08:45Z</time>
      </trkpt>
      <trkpt lat="44.082" lon="6.47842">
        <ele>1354.574</ele>
        <time>2018-09-13T15:08:46Z</time>
      </trkpt>
      <trkpt lat="44.08208" lon="6.47843">
        <ele>1354.595</ele>
        <time>2018-09-13T15:08:47Z</time>
      </trkpt>
      <trkpt lat="44.08215" lon="6.47847">
        <ele>1354.052</ele>
        <time>2018-09-13T15:08:48Z</time>
      </trkpt>
      <trkpt lat="44.08219" lon="6.47855">
        <ele>1354.09</ele>
        <time>2018-09-13T15:08:49Z</time>
      </trkpt>
      <trkpt lat="44.08222" lon="6.47864">
        <ele>1354.081</ele>
        <time>2018-09-13T15:08:50Z</time>
      </trkpt>
      <trkpt lat="44.08225" lon="6.47871">
        <ele>1354.074</ele>
        <time>2018-09-13T15:08:51Z</time>
      </trkpt>
      <trkpt lat="44.08227" lon="6.47877">
        <ele>1354.056</ele>
        <time>2018-09-13T15:08:52Z</time>
      </trkpt>
      <trkpt lat="44.08228" lon="6.47885">
        <ele>1348.521</ele>
        <time>2018-09-13T15:08:54Z</time>
      </trkpt>
      <trkpt lat="44.08234" lon="6.47887">
        <ele>1347.408</ele>
        <time>2018-09-13T15:09:00Z</time>
      </trkpt>
      <trkpt lat="44.08241" lon="6.47888">
        <ele>1347.429</ele>
        <time>2018-09-13T15:09:01Z</time>
      </trkpt>
      <trkpt lat="44.08248" lon="6.4789">
        <ele>1347.425</ele>
        <time>2018-09-13T15:09:02Z</time>
      </trkpt>
      <trkpt lat="44.08257" lon="6.47893">
        <ele>1347.752</ele>
        <time>2018-09-13T15:09:03Z</time>
      </trkpt>
      <trkpt lat="44.08266" lon="6.47895">
        <ele>1347.726</ele>
        <time>2018-09-13T15:09:04Z</time>
      </trkpt>
      <trkpt lat="44.08276" lon="6.47898">
        <ele>1347.717</ele>
        <time>2018-09-13T15:09:05Z</time>
      </trkpt>
      <trkpt lat="44.08287" lon="6.47901">
        <ele>1347.794</ele>
        <time>2018-09-13T15:09:06Z</time>
      </trkpt>
      <trkpt lat="44.08297" lon="6.47905">
        <ele>1347.792</ele>
        <time>2018-09-13T15:09:07Z</time>
      </trkpt>
      <trkpt lat="44.08308" lon="6.47909">
        <ele>1349.933</ele>
        <time>2018-09-13T15:09:08Z</time>
      </trkpt>
      <trkpt lat="44.08319" lon="6.47912">
        <ele>1349.999</ele>
        <time>2018-09-13T15:09:09Z</time>
      </trkpt>
      <trkpt lat="44.08329" lon="6.47916">
        <ele>1349.907</ele>
        <time>2018-09-13T15:09:10Z</time>
      </trkpt>
      <trkpt lat="44.0834" lon="6.4792">
        <ele>1349.927</ele>
        <time>2018-09-13T15:09:11Z</time>
      </trkpt>
      <trkpt lat="44.0835" lon="6.47923">
        <ele>1352.508</ele>
        <time>2018-09-13T15:09:12Z</time>
      </trkpt>
      <trkpt lat="44.08361" lon="6.47927">
        <ele>1352.521</ele>
        <time>2018-09-13T15:09:13Z</time>
      </trkpt>
      <trkpt lat="44.08372" lon="6.47932">
        <ele>1352.517</ele>
        <time>2018-09-13T15:09:14Z</time>
      </trkpt>
      <trkpt lat="44.08383" lon="6.47935">
        <ele>1352.534</ele>
        <time>2018-09-13T15:09:15Z</time>
      </trkpt>
      <trkpt lat="44.08394" lon="6.47939">
        <ele>1352.538</ele>
        <time>2018-09-13T15:09:16Z</time>
      </trkpt>
      <trkpt lat="44.08404" lon="6.47943">
        <ele>1352.599</ele>
        <time>2018-09-13T15:09:17Z</time>
      </trkpt>
      <trkpt lat="44.08416" lon="6.47946">
        <ele>1352.566</ele>
        <time>2018-09-13T15:09:18Z</time>
      </trkpt>
      <trkpt lat="44.08428" lon="6.4795">
        <ele>1355.664</ele>
        <time>2018-09-13T15:09:19Z</time>
      </trkpt>
      <trkpt lat="44.08439" lon="6.47954">
        <ele>1355.635</ele>
        <time>2018-09-13T15:09:20Z</time>
      </trkpt>
      <trkpt lat="44.08453" lon="6.47955">
        <ele>1355.657</ele>
        <time>2018-09-13T15:09:21Z</time>
      </trkpt>
      <trkpt lat="44.08465" lon="6.47956">
        <ele>1355.6</ele>
        <time>2018-09-13T15:09:22Z</time>
      </trkpt>
      <trkpt lat="44.08478" lon="6.47956">
        <ele>1355.62</ele>
        <time>2018-09-13T15:09:23Z</time>
      </trkpt>
      <trkpt lat="44.08491" lon="6.47954">
        <ele>1355.608</ele>
        <time>2018-09-13T15:09:24Z</time>
      </trkpt>
      <trkpt lat="44.08501" lon="6.47952">
        <ele>1356.157</ele>
        <time>2018-09-13T15:09:25Z</time>
      </trkpt>
      <trkpt lat="44.08512" lon="6.47946">
        <ele>1356.183</ele>
        <time>2018-09-13T15:09:26Z</time>
      </trkpt>
      <trkpt lat="44.08524" lon="6.4794">
        <ele>1356.12</ele>
        <time>2018-09-13T15:09:27Z</time>
      </trkpt>
      <trkpt lat="44.08535" lon="6.47938">
        <ele>1356.124</ele>
        <time>2018-09-13T15:09:28Z</time>
      </trkpt>
      <trkpt lat="44.08547" lon="6.4794">
        <ele>1356.125</ele>
        <time>2018-09-13T15:09:29Z</time>
      </trkpt>
      <trkpt lat="44.08558" lon="6.47942">
        <ele>1356.172</ele>
        <time>2018-09-13T15:09:30Z</time>
      </trkpt>
      <trkpt lat="44.0857" lon="6.47946">
        <ele>1356.13</ele>
        <time>2018-09-13T15:09:31Z</time>
      </trkpt>
      <trkpt lat="44.08581" lon="6.47953">
        <ele>1355.661</ele>
        <time>2018-09-13T15:09:32Z</time>
      </trkpt>
      <trkpt lat="44.0859" lon="6.47961">
        <ele>1355.686</ele>
        <time>2018-09-13T15:09:33Z</time>
      </trkpt>
      <trkpt lat="44.08597" lon="6.47971">
        <ele>1355.66</ele>
        <time>2018-09-13T15:09:34Z</time>
      </trkpt>
      <trkpt lat="44.08603" lon="6.47984">
        <ele>1355.626</ele>
        <time>2018-09-13T15:09:35Z</time>
      </trkpt>
      <trkpt lat="44.08606" lon="6.48">
        <ele>1355.608</ele>
        <time>2018-09-13T15:09:36Z</time>
      </trkpt>
      <trkpt lat="44.08608" lon="6.48015">
        <ele>1354.14</ele>
        <time>2018-09-13T15:09:37Z</time>
      </trkpt>
      <trkpt lat="44.0861" lon="6.48032">
        <ele>1354.166</ele>
        <time>2018-09-13T15:09:38Z</time>
      </trkpt>
      <trkpt lat="44.08611" lon="6.48048">
        <ele>1354.183</ele>
        <time>2018-09-13T15:09:39Z</time>
      </trkpt>
      <trkpt lat="44.08613" lon="6.48065">
        <ele>1354.147</ele>
        <time>2018-09-13T15:09:40Z</time>
      </trkpt>
      <trkpt lat="44.08614" lon="6.48081">
        <ele>1354.128</ele>
        <time>2018-09-13T15:09:41Z</time>
      </trkpt>
      <trkpt lat="44.08615" lon="6.48098">
        <ele>1354.155</ele>
        <time>2018-09-13T15:09:42Z</time>
      </trkpt>
      <trkpt lat="44.08616" lon="6.48115">
        <ele>1354.193</ele>
        <time>2018-09-13T15:09:43Z</time>
      </trkpt>
      <trkpt lat="44.08617" lon="6.4813">
        <ele>1354.134</ele>
        <time>2018-09-13T15:09:44Z</time>
      </trkpt>
      <trkpt lat="44.08619" lon="6.48147">
        <ele>1354.122</ele>
        <time>2018-09-13T15:09:45Z</time>
      </trkpt>
      <trkpt lat="44.08621" lon="6.48165">
        <ele>1354.162</ele>
        <time>2018-09-13T15:09:46Z</time>
      </trkpt>
      <trkpt lat="44.08622" lon="6.48182">
        <ele>1354.308</ele>
        <time>2018-09-13T15:09:47Z</time>
      </trkpt>
      <trkpt lat="44.08624" lon="6.48198">
        <ele>1354.308</ele>
        <time>2018-09-13T15:09:48Z</time>
      </trkpt>
      <trkpt lat="44.08625" lon="6.48215">
        <ele>1354.384</ele>
        <time>2018-09-13T15:09:49Z</time>
      </trkpt>
      <trkpt lat="44.08627" lon="6.48232">
        <ele>1354.34</ele>
        <time>2018-09-13T15:09:50Z</time>
      </trkpt>
      <trkpt lat="44.08628" lon="6.48248">
        <ele>1354.397</ele>
        <time>2018-09-13T15:09:51Z</time>
      </trkpt>
      <trkpt lat="44.0863" lon="6.48263">
        <ele>1354.361</ele>
        <time>2018-09-13T15:09:52Z</time>
      </trkpt>
      <trkpt lat="44.0863" lon="6.48279">
        <ele>1354.542</ele>
        <time>2018-09-13T15:09:53Z</time>
      </trkpt>
      <trkpt lat="44.08629" lon="6.48296">
        <ele>1354.599</ele>
        <time>2018-09-13T15:09:54Z</time>
      </trkpt>
      <trkpt lat="44.08628" lon="6.48314">
        <ele>1354.557</ele>
        <time>2018-09-13T15:09:55Z</time>
      </trkpt>
      <trkpt lat="44.08626" lon="6.48331">
        <ele>1354.518</ele>
        <time>2018-09-13T15:09:56Z</time>
      </trkpt>
      <trkpt lat="44.08624" lon="6.48349">
        <ele>1354.575</ele>
        <time>2018-09-13T15:09:57Z</time>
      </trkpt>
      <trkpt lat="44.08621" lon="6.48365">
        <ele>1354.528</ele>
        <time>2018-09-13T15:09:58Z</time>
      </trkpt>
      <trkpt lat="44.08618" lon="6.48383">
        <ele>1354.52</ele>
        <time>2018-09-13T15:09:59Z</time>
      </trkpt>
      <trkpt lat="44.08615" lon="6.48401">
        <ele>1354.508</ele>
        <time>2018-09-13T15:10:00Z</time>
      </trkpt>
      <trkpt lat="44.08612" lon="6.48418">
        <ele>1354.579</ele>
        <time>2018-09-13T15:10:01Z</time>
      </trkpt>
      <trkpt lat="44.08608" lon="6.48436">
        <ele>1354.565</ele>
        <time>2018-09-13T15:10:02Z</time>
      </trkpt>
      <trkpt lat="44.08603" lon="6.48454">
        <ele>1354.542</ele>
        <time>2018-09-13T15:10:03Z</time>
      </trkpt>
      <trkpt lat="44.08599" lon="6.48472">
        <ele>1355.756</ele>
        <time>2018-09-13T15:10:04Z</time>
      </trkpt>
      <trkpt lat="44.08595" lon="6.48491">
        <ele>1355.747</ele>
        <time>2018-09-13T15:10:05Z</time>
      </trkpt>
      <trkpt lat="44.0859" lon="6.4851">
        <ele>1355.744</ele>
        <time>2018-09-13T15:10:06Z</time>
      </trkpt>
      <trkpt lat="44.08587" lon="6.48528">
        <ele>1355.792</ele>
        <time>2018-09-13T15:10:07Z</time>
      </trkpt>
      <trkpt lat="44.08583" lon="6.48548">
        <ele>1355.743</ele>
        <time>2018-09-13T15:10:08Z</time>
      </trkpt>
      <trkpt lat="44.08581" lon="6.48567">
        <ele>1360.026</ele>
        <time>2018-09-13T15:10:09Z</time>
      </trkpt>
      <trkpt lat="44.08578" lon="6.48587">
        <ele>1360.047</ele>
        <time>2018-09-13T15:10:10Z</time>
      </trkpt>
      <trkpt lat="44.08574" lon="6.48606">
        <ele>1360.011</ele>
        <time>2018-09-13T15:10:11Z</time>
      </trkpt>
      <trkpt lat="44.08572" lon="6.48622">
        <ele>1360.008</ele>
        <time>2018-09-13T15:10:12Z</time>
      </trkpt>
      <trkpt lat="44.08569" lon="6.48639">
        <ele>1360.044</ele>
        <time>2018-09-13T15:10:13Z</time>
      </trkpt>
      <trkpt lat="44.08566" lon="6.48654">
        <ele>1360.07</ele>
        <time>2018-09-13T15:10:14Z</time>
      </trkpt>
      <trkpt lat="44.08564" lon="6.48669">
        <ele>1360.037</ele>
        <time>2018-09-13T15:10:15Z</time>
      </trkpt>
      <trkpt lat="44.08561" lon="6.48685">
        <ele>1360.061</ele>
        <time>2018-09-13T15:10:16Z</time>
      </trkpt>
      <trkpt lat="44.08558" lon="6.48699">
        <ele>1360.032</ele>
        <time>2018-09-13T15:10:17Z</time>
      </trkpt>
      <trkpt lat="44.08556" lon="6.48712">
        <ele>1360.089</ele>
        <time>2018-09-13T15:10:18Z</time>
      </trkpt>
      <trkpt lat="44.08555" lon="6.48724">
        <ele>1358.997</ele>
        <time>2018-09-13T15:10:19Z</time>
      </trkpt>
      <trkpt lat="44.08555" lon="6.48734">
        <ele>1359.278</ele>
        <time>2018-09-13T15:10:20Z</time>
      </trkpt>
      <trkpt lat="44.08555" lon="6.48747">
        <ele>1359.256</ele>
        <time>2018-09-13T15:10:21Z</time>
      </trkpt>
      <trkpt lat="44.08556" lon="6.4876">
        <ele>1359.259</ele>
        <time>2018-09-13T15:10:22Z</time>
      </trkpt>
      <trkpt lat="44.08559" lon="6.48774">
        <ele>1359.214</ele>
        <time>2018-09-13T15:10:23Z</time>
      </trkpt>
      <trkpt lat="44.08561" lon="6.48788">
        <ele>1359.708</ele>
        <time>2018-09-13T15:10:24Z</time>
      </trkpt>
      <trkpt lat="44.08565" lon="6.48802">
        <ele>1359.787</ele>
        <time>2018-09-13T15:10:25Z</time>
      </trkpt>
      <trkpt lat="44.08568" lon="6.48817">
        <ele>1359.783</ele>
        <time>2018-09-13T15:10:26Z</time>
      </trkpt>
      <trkpt lat="44.08573" lon="6.48831">
        <ele>1359.77</ele>
        <time>2018-09-13T15:10:27Z</time>
      </trkpt>
      <trkpt lat="44.08579" lon="6.48845">
        <ele>1359.774</ele>
        <time>2018-09-13T15:10:28Z</time>
      </trkpt>
      <trkpt lat="44.08585" lon="6.4886">
        <ele>1359.735</ele>
        <time>2018-09-13T15:10:29Z</time>
      </trkpt>
      <trkpt lat="44.08593" lon="6.48875">
        <ele>1359.792</ele>
        <time>2018-09-13T15:10:30Z</time>
      </trkpt>
      <trkpt lat="44.08599" lon="6.4889">
        <ele>1359.75</ele>
        <time>2018-09-13T15:10:31Z</time>
      </trkpt>
      <trkpt lat="44.08606" lon="6.48906">
        <ele>1359.711</ele>
        <time>2018-09-13T15:10:32Z</time>
      </trkpt>
      <trkpt lat="44.08613" lon="6.48922">
        <ele>1359.722</ele>
        <time>2018-09-13T15:10:33Z</time>
      </trkpt>
      <trkpt lat="44.08621" lon="6.48938">
        <ele>1359.762</ele>
        <time>2018-09-13T15:10:34Z</time>
      </trkpt>
      <trkpt lat="44.08629" lon="6.48953">
        <ele>1359.708</ele>
        <time>2018-09-13T15:10:35Z</time>
      </trkpt>
      <trkpt lat="44.08636" lon="6.48969">
        <ele>1364.008</ele>
        <time>2018-09-13T15:10:36Z</time>
      </trkpt>
      <trkpt lat="44.08643" lon="6.48986">
        <ele>1364.094</ele>
        <time>2018-09-13T15:10:37Z</time>
      </trkpt>
      <trkpt lat="44.0865" lon="6.49003">
        <ele>1364.39</ele>
        <time>2018-09-13T15:10:38Z</time>
      </trkpt>
      <trkpt lat="44.08656" lon="6.49022">
        <ele>1364.397</ele>
        <time>2018-09-13T15:10:39Z</time>
      </trkpt>
      <trkpt lat="44.08659" lon="6.49041">
        <ele>1364.321</ele>
        <time>2018-09-13T15:10:40Z</time>
      </trkpt>
      <trkpt lat="44.08662" lon="6.49059">
        <ele>1364.392</ele>
        <time>2018-09-13T15:10:41Z</time>
      </trkpt>
      <trkpt lat="44.08665" lon="6.49077">
        <ele>1364.399</ele>
        <time>2018-09-13T15:10:42Z</time>
      </trkpt>
      <trkpt lat="44.08673" lon="6.49094">
        <ele>1364.397</ele>
        <time>2018-09-13T15:10:43Z</time>
      </trkpt>
      <trkpt lat="44.08681" lon="6.49111">
        <ele>1364.348</ele>
        <time>2018-09-13T15:10:44Z</time>
      </trkpt>
      <trkpt lat="44.0869" lon="6.49128">
        <ele>1364.387</ele>
        <time>2018-09-13T15:10:45Z</time>
      </trkpt>
      <trkpt lat="44.08697" lon="6.49145">
        <ele>1364.342</ele>
        <time>2018-09-13T15:10:46Z</time>
      </trkpt>
      <trkpt lat="44.08703" lon="6.49164">
        <ele>1364.326</ele>
        <time>2018-09-13T15:10:47Z</time>
      </trkpt>
      <trkpt lat="44.08708" lon="6.49183">
        <ele>1364.308</ele>
        <time>2018-09-13T15:10:48Z</time>
      </trkpt>
      <trkpt lat="44.08715" lon="6.49202">
        <ele>1364.35</ele>
        <time>2018-09-13T15:10:49Z</time>
      </trkpt>
      <trkpt lat="44.08718" lon="6.49221">
        <ele>1364.396</ele>
        <time>2018-09-13T15:10:50Z</time>
      </trkpt>
      <trkpt lat="44.08722" lon="6.4924">
        <ele>1363.493</ele>
        <time>2018-09-13T15:10:51Z</time>
      </trkpt>
      <trkpt lat="44.08727" lon="6.49258">
        <ele>1363.537</ele>
        <time>2018-09-13T15:10:52Z</time>
      </trkpt>
      <trkpt lat="44.08733" lon="6.49276">
        <ele>1363.598</ele>
        <time>2018-09-13T15:10:53Z</time>
      </trkpt>
      <trkpt lat="44.08742" lon="6.4929">
        <ele>1363.595</ele>
        <time>2018-09-13T15:10:54Z</time>
      </trkpt>
      <trkpt lat="44.08749" lon="6.49306">
        <ele>1363.543</ele>
        <time>2018-09-13T15:10:55Z</time>
      </trkpt>
      <trkpt lat="44.08758" lon="6.49321">
        <ele>1363.664</ele>
        <time>2018-09-13T15:10:56Z</time>
      </trkpt>
      <trkpt lat="44.08765" lon="6.49337">
        <ele>1363.727</ele>
        <time>2018-09-13T15:10:57Z</time>
      </trkpt>
      <trkpt lat="44.08773" lon="6.49353">
        <ele>1363.768</ele>
        <time>2018-09-13T15:10:58Z</time>
      </trkpt>
      <trkpt lat="44.08781" lon="6.49369">
        <ele>1363.814</ele>
        <time>2018-09-13T15:10:59Z</time>
      </trkpt>
      <trkpt lat="44.08789" lon="6.49385">
        <ele>1363.808</ele>
        <time>2018-09-13T15:11:00Z</time>
      </trkpt>
      <trkpt lat="44.08797" lon="6.49401">
        <ele>1363.844</ele>
        <time>2018-09-13T15:11:01Z</time>
      </trkpt>
      <trkpt lat="44.08807" lon="6.49415">
        <ele>1363.83</ele>
        <time>2018-09-13T15:11:02Z</time>
      </trkpt>
      <trkpt lat="44.08817" lon="6.49427">
        <ele>1363.837</ele>
        <time>2018-09-13T15:11:03Z</time>
      </trkpt>
      <trkpt lat="44.08828" lon="6.4944">
        <ele>1363.841</ele>
        <time>2018-09-13T15:11:04Z</time>
      </trkpt>
      <trkpt lat="44.08839" lon="6.4945">
        <ele>1363.852</ele>
        <time>2018-09-13T15:11:05Z</time>
      </trkpt>
      <trkpt lat="44.0885" lon="6.4946">
        <ele>1363.839</ele>
        <time>2018-09-13T15:11:06Z</time>
      </trkpt>
      <trkpt lat="44.08861" lon="6.49471">
        <ele>1363.877</ele>
        <time>2018-09-13T15:11:07Z</time>
      </trkpt>
      <trkpt lat="44.08873" lon="6.49482">
        <ele>1363.888</ele>
        <time>2018-09-13T15:11:08Z</time>
      </trkpt>
      <trkpt lat="44.08884" lon="6.49493">
        <ele>1363.857</ele>
        <time>2018-09-13T15:11:09Z</time>
      </trkpt>
      <trkpt lat="44.08894" lon="6.49505">
        <ele>1363.8</ele>
        <time>2018-09-13T15:11:10Z</time>
      </trkpt>
      <trkpt lat="44.08905" lon="6.49519">
        <ele>1363.82</ele>
        <time>2018-09-13T15:11:11Z</time>
      </trkpt>
      <trkpt lat="44.08915" lon="6.49532">
        <ele>1363.808</ele>
        <time>2018-09-13T15:11:12Z</time>
      </trkpt>
      <trkpt lat="44.08924" lon="6.49548">
        <ele>1363.827</ele>
        <time>2018-09-13T15:11:13Z</time>
      </trkpt>
      <trkpt lat="44.08933" lon="6.49563">
        <ele>1363.833</ele>
        <time>2018-09-13T15:11:14Z</time>
      </trkpt>
      <trkpt lat="44.08942" lon="6.4958">
        <ele>1363.81</ele>
        <time>2018-09-13T15:11:15Z</time>
      </trkpt>
      <trkpt lat="44.0895" lon="6.49598">
        <ele>1373.024</ele>
        <time>2018-09-13T15:11:16Z</time>
      </trkpt>
      <trkpt lat="44.08958" lon="6.49615">
        <ele>1373.065</ele>
        <time>2018-09-13T15:11:17Z</time>
      </trkpt>
      <trkpt lat="44.08965" lon="6.49631">
        <ele>1373.052</ele>
        <time>2018-09-13T15:11:18Z</time>
      </trkpt>
      <trkpt lat="44.08973" lon="6.49648">
        <ele>1373.06</ele>
        <time>2018-09-13T15:11:19Z</time>
      </trkpt>
      <trkpt lat="44.08981" lon="6.49664">
        <ele>1373.041</ele>
        <time>2018-09-13T15:11:20Z</time>
      </trkpt>
      <trkpt lat="44.08989" lon="6.4968">
        <ele>1373.039</ele>
        <time>2018-09-13T15:11:21Z</time>
      </trkpt>
      <trkpt lat="44.08999" lon="6.49695">
        <ele>1373.001</ele>
        <time>2018-09-13T15:11:22Z</time>
      </trkpt>
      <trkpt lat="44.09008" lon="6.4971">
        <ele>1373.021</ele>
        <time>2018-09-13T15:11:23Z</time>
      </trkpt>
      <trkpt lat="44.09016" lon="6.49725">
        <ele>1373.008</ele>
        <time>2018-09-13T15:11:24Z</time>
      </trkpt>
      <trkpt lat="44.09025" lon="6.49741">
        <ele>1373.085</ele>
        <time>2018-09-13T15:11:25Z</time>
      </trkpt>
      <trkpt lat="44.09032" lon="6.49759">
        <ele>1376.261</ele>
        <time>2018-09-13T15:11:26Z</time>
      </trkpt>
      <trkpt lat="44.09037" lon="6.49776">
        <ele>1376.478</ele>
        <time>2018-09-13T15:11:27Z</time>
      </trkpt>
      <trkpt lat="44.09043" lon="6.49793">
        <ele>1376.482</ele>
        <time>2018-09-13T15:11:28Z</time>
      </trkpt>
      <trkpt lat="44.09046" lon="6.49811">
        <ele>1376.453</ele>
        <time>2018-09-13T15:11:29Z</time>
      </trkpt>
      <trkpt lat="44.0905" lon="6.49827">
        <ele>1377.32</ele>
        <time>2018-09-13T15:11:30Z</time>
      </trkpt>
      <trkpt lat="44.09052" lon="6.49844">
        <ele>1377.358</ele>
        <time>2018-09-13T15:11:31Z</time>
      </trkpt>
      <trkpt lat="44.09053" lon="6.4986">
        <ele>1377.379</ele>
        <time>2018-09-13T15:11:32Z</time>
      </trkpt>
      <trkpt lat="44.09053" lon="6.49876">
        <ele>1377.313</ele>
        <time>2018-09-13T15:11:33Z</time>
      </trkpt>
      <trkpt lat="44.09054" lon="6.49889">
        <ele>1377.343</ele>
        <time>2018-09-13T15:11:34Z</time>
      </trkpt>
      <trkpt lat="44.09055" lon="6.49903">
        <ele>1377.307</ele>
        <time>2018-09-13T15:11:35Z</time>
      </trkpt>
      <trkpt lat="44.09056" lon="6.49914">
        <ele>1377.308</ele>
        <time>2018-09-13T15:11:36Z</time>
      </trkpt>
      <trkpt lat="44.09058" lon="6.49926">
        <ele>1377.373</ele>
        <time>2018-09-13T15:11:37Z</time>
      </trkpt>
      <trkpt lat="44.09059" lon="6.49937">
        <ele>1381.389</ele>
        <time>2018-09-13T15:11:38Z</time>
      </trkpt>
      <trkpt lat="44.09061" lon="6.49948">
        <ele>1381.326</ele>
        <time>2018-09-13T15:11:39Z</time>
      </trkpt>
      <trkpt lat="44.09063" lon="6.4996">
        <ele>1381.33</ele>
        <time>2018-09-13T15:11:40Z</time>
      </trkpt>
      <trkpt lat="44.09067" lon="6.49971">
        <ele>1381.361</ele>
        <time>2018-09-13T15:11:41Z</time>
      </trkpt>
      <trkpt lat="44.0907" lon="6.49982">
        <ele>1381.348</ele>
        <time>2018-09-13T15:11:42Z</time>
      </trkpt>
      <trkpt lat="44.09073" lon="6.49994">
        <ele>1381.396</ele>
        <time>2018-09-13T15:11:43Z</time>
      </trkpt>
      <trkpt lat="44.09075" lon="6.50004">
        <ele>1381.377</ele>
        <time>2018-09-13T15:11:44Z</time>
      </trkpt>
      <trkpt lat="44.09082" lon="6.50012">
        <ele>1381.345</ele>
        <time>2018-09-13T15:11:45Z</time>
      </trkpt>
      <trkpt lat="44.09088" lon="6.50022">
        <ele>1381.347</ele>
        <time>2018-09-13T15:11:46Z</time>
      </trkpt>
      <trkpt lat="44.09086" lon="6.50029">
        <ele>1381.311</ele>
        <time>2018-09-13T15:11:47Z</time>
      </trkpt>
      <trkpt lat="44.09087" lon="6.50037">
        <ele>1381.308</ele>
        <time>2018-09-13T15:11:48Z</time>
      </trkpt>
      <trkpt lat="44.09086" lon="6.50046">
        <ele>1381.396</ele>
        <time>2018-09-13T15:11:49Z</time>
      </trkpt>
      <trkpt lat="44.09085" lon="6.50056">
        <ele>1381.342</ele>
        <time>2018-09-13T15:11:50Z</time>
      </trkpt>
      <trkpt lat="44.09085" lon="6.50063">
        <ele>1381.389</ele>
        <time>2018-09-13T15:11:51Z</time>
      </trkpt>
      <trkpt lat="44.09084" lon="6.50075">
        <ele>1381.343</ele>
        <time>2018-09-13T15:11:52Z</time>
      </trkpt>
      <trkpt lat="44.09086" lon="6.50084">
        <ele>1381.394</ele>
        <time>2018-09-13T15:11:53Z</time>
      </trkpt>
      <trkpt lat="44.09086" lon="6.50094">
        <ele>1379.731</ele>
        <time>2018-09-13T15:11:54Z</time>
      </trkpt>
      <trkpt lat="44.09087" lon="6.50106">
        <ele>1379.729</ele>
        <time>2018-09-13T15:11:55Z</time>
      </trkpt>
      <trkpt lat="44.09086" lon="6.50119">
        <ele>1379.79</ele>
        <time>2018-09-13T15:11:56Z</time>
      </trkpt>
      <trkpt lat="44.09086" lon="6.50132">
        <ele>1379.793</ele>
        <time>2018-09-13T15:11:57Z</time>
      </trkpt>
      <trkpt lat="44.09088" lon="6.50143">
        <ele>1379.765</ele>
        <time>2018-09-13T15:11:58Z</time>
      </trkpt>
      <trkpt lat="44.09088" lon="6.50155">
        <ele>1379.721</ele>
        <time>2018-09-13T15:11:59Z</time>
      </trkpt>
      <trkpt lat="44.09088" lon="6.50166">
        <ele>1379.708</ele>
        <time>2018-09-13T15:12:00Z</time>
      </trkpt>
      <trkpt lat="44.09086" lon="6.50177">
        <ele>1379.711</ele>
        <time>2018-09-13T15:12:01Z</time>
      </trkpt>
      <trkpt lat="44.09086" lon="6.50189">
        <ele>1379.747</ele>
        <time>2018-09-13T15:12:02Z</time>
      </trkpt>
      <trkpt lat="44.09086" lon="6.50199">
        <ele>1379.784</ele>
        <time>2018-09-13T15:12:03Z</time>
      </trkpt>
      <trkpt lat="44.0908" lon="6.5021">
        <ele>1379.728</ele>
        <time>2018-09-13T15:12:04Z</time>
      </trkpt>
      <trkpt lat="44.09076" lon="6.50221">
        <ele>1382.099</ele>
        <time>2018-09-13T15:12:05Z</time>
      </trkpt>
      <trkpt lat="44.09071" lon="6.50233">
        <ele>1382.036</ele>
        <time>2018-09-13T15:12:06Z</time>
      </trkpt>
      <trkpt lat="44.09064" lon="6.50245">
        <ele>1382.074</ele>
        <time>2018-09-13T15:12:07Z</time>
      </trkpt>
      <trkpt lat="44.09056" lon="6.50255">
        <ele>1382.095</ele>
        <time>2018-09-13T15:12:08Z</time>
      </trkpt>
      <trkpt lat="44.09048" lon="6.50263">
        <ele>1382.044</ele>
        <time>2018-09-13T15:12:09Z</time>
      </trkpt>
      <trkpt lat="44.0904" lon="6.50271">
        <ele>1381.005</ele>
        <time>2018-09-13T15:12:10Z</time>
      </trkpt>
      <trkpt lat="44.09031" lon="6.50278">
        <ele>1381.015</ele>
        <time>2018-09-13T15:12:11Z</time>
      </trkpt>
      <trkpt lat="44.09021" lon="6.50283">
        <ele>1381.008</ele>
        <time>2018-09-13T15:12:12Z</time>
      </trkpt>
      <trkpt lat="44.09011" lon="6.50289">
        <ele>1381.096</ele>
        <time>2018-09-13T15:12:13Z</time>
      </trkpt>
      <trkpt lat="44.09002" lon="6.50296">
        <ele>1381.082</ele>
        <time>2018-09-13T15:12:14Z</time>
      </trkpt>
      <trkpt lat="44.08991" lon="6.50301">
        <ele>1381.019</ele>
        <time>2018-09-13T15:12:15Z</time>
      </trkpt>
      <trkpt lat="44.0898" lon="6.50303">
        <ele>1381.073</ele>
        <time>2018-09-13T15:12:16Z</time>
      </trkpt>
      <trkpt lat="44.0897" lon="6.50305">
        <ele>1381.064</ele>
        <time>2018-09-13T15:12:17Z</time>
      </trkpt>
      <trkpt lat="44.08959" lon="6.50305">
        <ele>1381.081</ele>
        <time>2018-09-13T15:12:18Z</time>
      </trkpt>
      <trkpt lat="44.08949" lon="6.50304">
        <ele>1381.049</ele>
        <time>2018-09-13T15:12:19Z</time>
      </trkpt>
      <trkpt lat="44.08938" lon="6.50304">
        <ele>1381.05</ele>
        <time>2018-09-13T15:12:20Z</time>
      </trkpt>
      <trkpt lat="44.08927" lon="6.50306">
        <ele>1381.031</ele>
        <time>2018-09-13T15:12:21Z</time>
      </trkpt>
      <trkpt lat="44.08916" lon="6.50309">
        <ele>1381.061</ele>
        <time>2018-09-13T15:12:22Z</time>
      </trkpt>
      <trkpt lat="44.08906" lon="6.50314">
        <ele>1377.107</ele>
        <time>2018-09-13T15:12:23Z</time>
      </trkpt>
      <trkpt lat="44.08898" lon="6.50322">
        <ele>1377.108</ele>
        <time>2018-09-13T15:12:24Z</time>
      </trkpt>
      <trkpt lat="44.0889" lon="6.50333">
        <ele>1377.145</ele>
        <time>2018-09-13T15:12:25Z</time>
      </trkpt>
      <trkpt lat="44.08885" lon="6.50347">
        <ele>1377.141</ele>
        <time>2018-09-13T15:12:26Z</time>
      </trkpt>
      <trkpt lat="44.08882" lon="6.50363">
        <ele>1377.158</ele>
        <time>2018-09-13T15:12:27Z</time>
      </trkpt>
      <trkpt lat="44.08881" lon="6.50378">
        <ele>1375.512</ele>
        <time>2018-09-13T15:12:28Z</time>
      </trkpt>
      <trkpt lat="44.0888" lon="6.50395">
        <ele>1375.783</ele>
        <time>2018-09-13T15:12:29Z</time>
      </trkpt>
      <trkpt lat="44.08879" lon="6.50412">
        <ele>1375.72</ele>
        <time>2018-09-13T15:12:30Z</time>
      </trkpt>
      <trkpt lat="44.08879" lon="6.50431">
        <ele>1375.718</ele>
        <time>2018-09-13T15:12:31Z</time>
      </trkpt>
      <trkpt lat="44.08878" lon="6.5045">
        <ele>1375.779</ele>
        <time>2018-09-13T15:12:32Z</time>
      </trkpt>
      <trkpt lat="44.08878" lon="6.50471">
        <ele>1375.713</ele>
        <time>2018-09-13T15:12:33Z</time>
      </trkpt>
      <trkpt lat="44.08877" lon="6.50492">
        <ele>1375.743</ele>
        <time>2018-09-13T15:12:34Z</time>
      </trkpt>
      <trkpt lat="44.08875" lon="6.50513">
        <ele>1375.707</ele>
        <time>2018-09-13T15:12:35Z</time>
      </trkpt>
      <trkpt lat="44.08873" lon="6.50535">
        <ele>1375.708</ele>
        <time>2018-09-13T15:12:36Z</time>
      </trkpt>
      <trkpt lat="44.08872" lon="6.50558">
        <ele>1375.733</ele>
        <time>2018-09-13T15:12:37Z</time>
      </trkpt>
      <trkpt lat="44.08871" lon="6.50581">
        <ele>1375.759</ele>
        <time>2018-09-13T15:12:38Z</time>
      </trkpt>
      <trkpt lat="44.08869" lon="6.50604">
        <ele>1375.746</ele>
        <time>2018-09-13T15:12:39Z</time>
      </trkpt>
      <trkpt lat="44.08867" lon="6.50628">
        <ele>1375.79</ele>
        <time>2018-09-13T15:12:40Z</time>
      </trkpt>
      <trkpt lat="44.08867" lon="6.50652">
        <ele>1375.751</ele>
        <time>2018-09-13T15:12:41Z</time>
      </trkpt>
      <trkpt lat="44.08866" lon="6.50677">
        <ele>1375.788</ele>
        <time>2018-09-13T15:12:42Z</time>
      </trkpt>
      <trkpt lat="44.08865" lon="6.50701">
        <ele>1375.756</ele>
        <time>2018-09-13T15:12:43Z</time>
      </trkpt>
      <trkpt lat="44.08864" lon="6.50726">
        <ele>1375.787</ele>
        <time>2018-09-13T15:12:44Z</time>
      </trkpt>
      <trkpt lat="44.08863" lon="6.50751">
        <ele>1375.722</ele>
        <time>2018-09-13T15:12:45Z</time>
      </trkpt>
      <trkpt lat="44.08861" lon="6.50775">
        <ele>1375.762</ele>
        <time>2018-09-13T15:12:46Z</time>
      </trkpt>
      <trkpt lat="44.08862" lon="6.508">
        <ele>1375.708</ele>
        <time>2018-09-13T15:12:47Z</time>
      </trkpt>
      <trkpt lat="44.08863" lon="6.50826">
        <ele>1375.708</ele>
        <time>2018-09-13T15:12:48Z</time>
      </trkpt>
      <trkpt lat="44.08864" lon="6.50852">
        <ele>1375.784</ele>
        <time>2018-09-13T15:12:49Z</time>
      </trkpt>
      <trkpt lat="44.08866" lon="6.50876">
        <ele>1375.76</ele>
        <time>2018-09-13T15:12:50Z</time>
      </trkpt>
      <trkpt lat="44.08869" lon="6.50902">
        <ele>1375.757</ele>
        <time>2018-09-13T15:12:51Z</time>
      </trkpt>
      <trkpt lat="44.08871" lon="6.50927">
        <ele>1376.951</ele>
        <time>2018-09-13T15:12:52Z</time>
      </trkpt>
      <trkpt lat="44.08873" lon="6.50953">
        <ele>1377.312</ele>
        <time>2018-09-13T15:12:53Z</time>
      </trkpt>
      <trkpt lat="44.08874" lon="6.50978">
        <ele>1377.359</ele>
        <time>2018-09-13T15:12:54Z</time>
      </trkpt>
      <trkpt lat="44.08875" lon="6.51001">
        <ele>1377.347</ele>
        <time>2018-09-13T15:12:55Z</time>
      </trkpt>
      <trkpt lat="44.08875" lon="6.51022">
        <ele>1377.358</ele>
        <time>2018-09-13T15:12:56Z</time>
      </trkpt>
      <trkpt lat="44.08876" lon="6.51038">
        <ele>1377.387</ele>
        <time>2018-09-13T15:12:57Z</time>
      </trkpt>
      <trkpt lat="44.08876" lon="6.51051">
        <ele>1377.342</ele>
        <time>2018-09-13T15:12:58Z</time>
      </trkpt>
      <trkpt lat="44.0888" lon="6.51058">
        <ele>1122.7</ele>
      </trkpt>
      <trkpt lat="44.0888" lon="6.51058">
        <ele>1122.7</ele>
      </trkpt>
      <trkpt lat="44.08863" lon="6.51057">
        <ele>1122.7</ele>
      </trkpt>
      <trkpt lat="44.08834" lon="6.51044">
        <ele>1122.5</ele>
      </trkpt>
      <trkpt lat="44.08821" lon="6.51029">
        <ele>1122.5</ele>
      </trkpt>
      <trkpt lat="44.0881" lon="6.51024">
        <ele>1122.6</ele>
      </trkpt>
      <trkpt lat="44.088" lon="6.51023">
        <ele>1122.8</ele>
      </trkpt>
      <trkpt lat="44.08793" lon="6.51027">
        <ele>1123</ele>
      </trkpt>
      <trkpt lat="44.0876" lon="6.51044">
        <ele>1123.9</ele>
      </trkpt>
      <trkpt lat="44.08734" lon="6.51048">
        <ele>1125.9</ele>
      </trkpt>
      <trkpt lat="44.08718" lon="6.51064">
        <ele>1128.5</ele>
      </trkpt>
      <trkpt lat="44.0871" lon="6.51068">
        <ele>1129.8</ele>
      </trkpt>
      <trkpt lat="44.08686" lon="6.51094">
        <ele>1134.9</ele>
      </trkpt>
      <trkpt lat="44.08667" lon="6.5112">
        <ele>1139.2</ele>
      </trkpt>
      <trkpt lat="44.0866" lon="6.5115">
        <ele>1141.6</ele>
      </trkpt>
      <trkpt lat="44.08637" lon="6.51203">
        <ele>1146.3</ele>
      </trkpt>
      <trkpt lat="44.08627" lon="6.5121">
        <ele>1147.8</ele>
      </trkpt>
      <trkpt lat="44.08581" lon="6.51205">
        <ele>1153</ele>
      </trkpt>
      <trkpt lat="44.08533" lon="6.51228">
        <ele>1158.4</ele>
      </trkpt>
      <trkpt lat="44.08488" lon="6.51223">
        <ele>1162.2</ele>
      </trkpt>
      <trkpt lat="44.0845" lon="6.51246">
        <ele>1167.3</ele>
      </trkpt>
      <trkpt lat="44.08436" lon="6.51254">
        <ele>1169</ele>
      </trkpt>
      <trkpt lat="44.08408" lon="6.5125">
        <ele>1172.8</ele>
      </trkpt>
      <trkpt lat="44.084" lon="6.51256">
        <ele>1174.5</ele>
      </trkpt>
      <trkpt lat="44.08385" lon="6.51284">
        <ele>1177.5</ele>
      </trkpt>
      <trkpt lat="44.08373" lon="6.51295">
        <ele>1179.6</ele>
      </trkpt>
      <trkpt lat="44.08302" lon="6.51314">
        <ele>1190.2</ele>
      </trkpt>
      <trkpt lat="44.08268" lon="6.5131">
        <ele>1195.3</ele>
      </trkpt>
      <trkpt lat="44.08235" lon="6.513">
        <ele>1200.2</ele>
      </trkpt>
      <trkpt lat="44.08178" lon="6.51269">
        <ele>1207.2</ele>
      </trkpt>
      <trkpt lat="44.08161" lon="6.51264">
        <ele>1209.1</ele>
      </trkpt>
      <trkpt lat="44.08142" lon="6.51268">
        <ele>1211.6</ele>
      </trkpt>
      <trkpt lat="44.08122" lon="6.51286">
        <ele>1213.5</ele>
      </trkpt>
      <trkpt lat="44.08114" lon="6.5129">
        <ele>1214.4</ele>
      </trkpt>
      <trkpt lat="44.08105" lon="6.51268">
        <ele>1216.9</ele>
      </trkpt>
      <trkpt lat="44.0809" lon="6.5125">
        <ele>1220</ele>
      </trkpt>
      <trkpt lat="44.08071" lon="6.51247">
        <ele>1222.9</ele>
      </trkpt>
      <trkpt lat="44.0806" lon="6.51241">
        <ele>1225.1</ele>
      </trkpt>
      <trkpt lat="44.08058" lon="6.51228">
        <ele>1227.1</ele>
      </trkpt>
      <trkpt lat="44.08081" lon="6.51205">
        <ele>1228.2</ele>
      </trkpt>
      <trkpt lat="44.08084" lon="6.5118">
        <ele>1231.8</ele>
      </trkpt>
      <trkpt lat="44.08074" lon="6.51129">
        <ele>1236.3</ele>
      </trkpt>
      <trkpt lat="44.08068" lon="6.51086">
        <ele>1239.7</ele>
      </trkpt>
      <trkpt lat="44.08069" lon="6.51082">
        <ele>1239.7</ele>
      </trkpt>
      <trkpt lat="44.08078" lon="6.51055">
        <ele>1238.8</ele>
      </trkpt>
      <trkpt lat="44.08093" lon="6.51034">
        <ele>1236.5</ele>
      </trkpt>
      <trkpt lat="44.08099" lon="6.5102">
        <ele>1236</ele>
      </trkpt>
      <trkpt lat="44.081" lon="6.50992">
        <ele>1236.8</ele>
      </trkpt>
      <trkpt lat="44.08079" lon="6.50957">
        <ele>1241.2</ele>
      </trkpt>
      <trkpt lat="44.08081" lon="6.50936">
        <ele>1240.6</ele>
      </trkpt>
      <trkpt lat="44.08097" lon="6.50906">
        <ele>1236.2</ele>
      </trkpt>
      <trkpt lat="44.08093" lon="6.50895">
        <ele>1235.7</ele>
      </trkpt>
      <trkpt lat="44.08087" lon="6.50888">
        <ele>1235.9</ele>
      </trkpt>
      <trkpt lat="44.08073" lon="6.50885">
        <ele>1238.3</ele>
      </trkpt>
      <trkpt lat="44.08068" lon="6.50888">
        <ele>1239.7</ele>
      </trkpt>
      <trkpt lat="44.08051" lon="6.50901">
        <ele>1245.1</ele>
      </trkpt>
      <trkpt lat="44.07985" lon="6.50875">
        <ele>1254.1</ele>
      </trkpt>
      <trkpt lat="44.07956" lon="6.50849">
        <ele>1253.7</ele>
      </trkpt>
      <trkpt lat="44.07939" lon="6.50851">
        <ele>1257.1</ele>
      </trkpt>
      <trkpt lat="44.07925" lon="6.50847">
        <ele>1258.5</ele>
      </trkpt>
      <trkpt lat="44.07899" lon="6.50832">
        <ele>1258.6</ele>
      </trkpt>
      <trkpt lat="44.07878" lon="6.50842">
        <ele>1263.7</ele>
      </trkpt>
      <trkpt lat="44.07868" lon="6.50849">
        <ele>1266.2</ele>
      </trkpt>
      <trkpt lat="44.07863" lon="6.50855">
        <ele>1267.8</ele>
      </trkpt>
      <trkpt lat="44.07855" lon="6.50878">
        <ele>1271.7</ele>
      </trkpt>
      <trkpt lat="44.0785" lon="6.50933">
        <ele>1279</ele>
      </trkpt>
      <trkpt lat="44.07797" lon="6.51044">
        <ele>1296</ele>
      </trkpt>
      <trkpt lat="44.07788" lon="6.51052">
        <ele>1298.3</ele>
      </trkpt>
      <trkpt lat="44.0778" lon="6.51053">
        <ele>1299.7</ele>
      </trkpt>
      <trkpt lat="44.0776" lon="6.51039">
        <ele>1300.6</ele>
      </trkpt>
      <trkpt lat="44.07747" lon="6.51002">
        <ele>1295.8</ele>
      </trkpt>
      <trkpt lat="44.07722" lon="6.5095">
        <ele>1296.2</ele>
      </trkpt>
      <trkpt lat="44.07711" lon="6.50951">
        <ele>1298.2</ele>
      </trkpt>
      <trkpt lat="44.077" lon="6.50963">
        <ele>1300.6</ele>
      </trkpt>
      <trkpt lat="44.07691" lon="6.5098">
        <ele>1302.7</ele>
      </trkpt>
      <trkpt lat="44.07684" lon="6.50999">
        <ele>1304.5</ele>
      </trkpt>
      <trkpt lat="44.07684" lon="6.51042">
        <ele>1307.7</ele>
      </trkpt>
      <trkpt lat="44.07691" lon="6.5106">
        <ele>1308.7</ele>
      </trkpt>
      <trkpt lat="44.07701" lon="6.51074">
        <ele>1309.6</ele>
      </trkpt>
      <trkpt lat="44.07711" lon="6.51084">
        <ele>1310.5</ele>
      </trkpt>
      <trkpt lat="44.07714" lon="6.51092">
        <ele>1310.9</ele>
      </trkpt>
      <trkpt lat="44.07714" lon="6.51101">
        <ele>1311.4</ele>
      </trkpt>
      <trkpt lat="44.07695" lon="6.51173">
        <ele>1315.1</ele>
      </trkpt>
      <trkpt lat="44.07679" lon="6.51215">
        <ele>1317.9</ele>
      </trkpt>
      <trkpt lat="44.07656" lon="6.51231">
        <ele>1323.6</ele>
      </trkpt>
      <trkpt lat="44.0763" lon="6.51243">
        <ele>1330.7</ele>
      </trkpt>
      <trkpt lat="44.07615" lon="6.51242">
        <ele>1334</ele>
      </trkpt>
      <trkpt lat="44.076" lon="6.51235">
        <ele>1336.6</ele>
      </trkpt>
      <trkpt lat="44.07586" lon="6.51215">
        <ele>1337.6</ele>
      </trkpt>
      <trkpt lat="44.07577" lon="6.51177">
        <ele>1336.8</ele>
      </trkpt>
      <trkpt lat="44.07566" lon="6.51152">
        <ele>1339.4</ele>
      </trkpt>
      <trkpt lat="44.07554" lon="6.51122">
        <ele>1342.1</ele>
      </trkpt>
      <trkpt lat="44.07554" lon="6.51081">
        <ele>1338.7</ele>
      </trkpt>
      <trkpt lat="44.07547" lon="6.51058">
        <ele>1338.6</ele>
      </trkpt>
      <trkpt lat="44.07535" lon="6.51035">
        <ele>1339.4</ele>
      </trkpt>
      <trkpt lat="44.07518" lon="6.51026">
        <ele>1343.2</ele>
      </trkpt>
      <trkpt lat="44.07485" lon="6.51021">
        <ele>1352.3</ele>
      </trkpt>
      <trkpt lat="44.07453" lon="6.50993">
        <ele>1354.2</ele>
      </trkpt>
      <trkpt lat="44.07412" lon="6.50988">
        <ele>1365.2</ele>
      </trkpt>
      <trkpt lat="44.07375" lon="6.5096">
        <ele>1375.7</ele>
      </trkpt>
      <trkpt lat="44.07362" lon="6.50928">
        <ele>1373.9</ele>
      </trkpt>
      <trkpt lat="44.07309" lon="6.50823">
        <ele>1385</ele>
      </trkpt>
      <trkpt lat="44.07303" lon="6.50797">
        <ele>1385.2</ele>
      </trkpt>
      <trkpt lat="44.07295" lon="6.50766">
        <ele>1386</ele>
      </trkpt>
      <trkpt lat="44.07279" lon="6.50721">
        <ele>1389.9</ele>
      </trkpt>
      <trkpt lat="44.07259" lon="6.50678">
        <ele>1397.4</ele>
      </trkpt>
      <trkpt lat="44.07257" lon="6.50646">
        <ele>1396.1</ele>
      </trkpt>
      <trkpt lat="44.0725" lon="6.50589">
        <ele>1397.3</ele>
      </trkpt>
      <trkpt lat="44.0726" lon="6.50565">
        <ele>1389.2</ele>
      </trkpt>
      <trkpt lat="44.07272" lon="6.50532">
        <ele>1379.7</ele>
      </trkpt>
      <trkpt lat="44.07263" lon="6.50461">
        <ele>1382</ele>
      </trkpt>
      <trkpt lat="44.07272" lon="6.50433">
        <ele>1375.1</ele>
      </trkpt>
      <trkpt lat="44.07284" lon="6.50413">
        <ele>1366.5</ele>
      </trkpt>
      <trkpt lat="44.07284" lon="6.50371">
        <ele>1363.2</ele>
      </trkpt>
      <trkpt lat="44.07293" lon="6.50328">
        <ele>1354.5</ele>
      </trkpt>
      <trkpt lat="44.07297" lon="6.50289">
        <ele>1346.7</ele>
      </trkpt>
      <trkpt lat="44.07288" lon="6.50253">
        <ele>1346.4</ele>
      </trkpt>
      <trkpt lat="44.07275" lon="6.50198">
        <ele>1344.1</ele>
      </trkpt>
      <trkpt lat="44.07264" lon="6.5012">
        <ele>1342.8</ele>
      </trkpt>
      <trkpt lat="44.07239" lon="6.50001">
        <ele>1350.4</ele>
      </trkpt>
      <trkpt lat="44.07178" lon="6.49837">
        <ele>1377</ele>
      </trkpt>
      <trkpt lat="44.07144" lon="6.49786">
        <ele>1394</ele>
      </trkpt>
      <trkpt lat="44.07118" lon="6.49722">
        <ele>1400.5</ele>
      </trkpt>
      <trkpt lat="44.07062" lon="6.49638">
        <ele>1410.4</ele>
      </trkpt>
      <trkpt lat="44.07027" lon="6.49627">
        <ele>1420.4</ele>
      </trkpt>
      <trkpt lat="44.07007" lon="6.49614">
        <ele>1423.4</ele>
      </trkpt>
      <trkpt lat="44.06976" lon="6.49573">
        <ele>1421</ele>
      </trkpt>
      <trkpt lat="44.06933" lon="6.49569">
        <ele>1438.3</ele>
      </trkpt>
      <trkpt lat="44.06862" lon="6.49521">
        <ele>1456.7</ele>
      </trkpt>
      <trkpt lat="44.06798" lon="6.49483">
        <ele>1470.8</ele>
      </trkpt>
      <trkpt lat="44.06752" lon="6.49476">
        <ele>1482.3</ele>
      </trkpt>
      <trkpt lat="44.06694" lon="6.4947">
        <ele>1489.1</ele>
      </trkpt>
      <trkpt lat="44.06664" lon="6.49478">
        <ele>1495.5</ele>
      </trkpt>
      <trkpt lat="44.0665" lon="6.49482">
        <ele>1498.1</ele>
      </trkpt>
      <trkpt lat="44.06611" lon="6.49468">
        <ele>1500</ele>
      </trkpt>
      <trkpt lat="44.06568" lon="6.49422">
        <ele>1498.7</ele>
      </trkpt>
      <trkpt lat="44.06545" lon="6.49414">
        <ele>1499.7</ele>
      </trkpt>
      <trkpt lat="44.06523" lon="6.49421">
        <ele>1501.5</ele>
      </trkpt>
      <trkpt lat="44.06514" lon="6.4943">
        <ele>1502.4</ele>
      </trkpt>
      <trkpt lat="44.06509" lon="6.4944">
        <ele>1502.9</ele>
      </trkpt>
      <trkpt lat="44.06509" lon="6.4947">
        <ele>1503.7</ele>
      </trkpt>
      <trkpt lat="44.06513" lon="6.49517">
        <ele>1505.5</ele>
      </trkpt>
      <trkpt lat="44.06502" lon="6.49538">
        <ele>1505.9</ele>
      </trkpt>
      <trkpt lat="44.06492" lon="6.49581">
        <ele>1506.7</ele>
      </trkpt>
      <trkpt lat="44.06445" lon="6.49593">
        <ele>1500.5</ele>
      </trkpt>
      <trkpt lat="44.06406" lon="6.49624">
        <ele>1495.9</ele>
      </trkpt>
      <trkpt lat="44.06384" lon="6.49648">
        <ele>1493.8</ele>
      </trkpt>
      <trkpt lat="44.06374" lon="6.4967">
        <ele>1493.7</ele>
      </trkpt>
      <trkpt lat="44.06364" lon="6.49691">
        <ele>1494.2</ele>
      </trkpt>
      <trkpt lat="44.06334" lon="6.49721">
        <ele>1492.7</ele>
      </trkpt>
      <trkpt lat="44.06306" lon="6.49804">
        <ele>1493.7</ele>
      </trkpt>
      <trkpt lat="44.06302" lon="6.49826">
        <ele>1494.6</ele>
      </trkpt>
      <trkpt lat="44.06298" lon="6.4985">
        <ele>1495</ele>
      </trkpt>
      <trkpt lat="44.06295" lon="6.49898">
        <ele>1496</ele>
      </trkpt>
      <trkpt lat="44.063" lon="6.49937">
        <ele>1499.1</ele>
      </trkpt>
      <trkpt lat="44.06294" lon="6.49958">
        <ele>1499.9</ele>
      </trkpt>
      <trkpt lat="44.06286" lon="6.49972">
        <ele>1499.7</ele>
      </trkpt>
      <trkpt lat="44.06275" lon="6.49985">
        <ele>1498.9</ele>
      </trkpt>
      <trkpt lat="44.06256" lon="6.49995">
        <ele>1496.6</ele>
      </trkpt>
      <trkpt lat="44.06232" lon="6.49993">
        <ele>1493.2</ele>
      </trkpt>
      <trkpt lat="44.06205" lon="6.50006">
        <ele>1490.7</ele>
      </trkpt>
      <trkpt lat="44.06203" lon="6.50009">
        <ele>1490.5</ele>
      </trkpt>
      <trkpt lat="44.06148" lon="6.50105">
        <ele>1484.2</ele>
      </trkpt>
      <trkpt lat="44.06143" lon="6.50127">
        <ele>1484.9</ele>
      </trkpt>
      <trkpt lat="44.06118" lon="6.50161">
        <ele>1484</ele>
      </trkpt>
      <trkpt lat="44.06086" lon="6.50212">
        <ele>1483.1</ele>
      </trkpt>
      <trkpt lat="44.0606" lon="6.50295">
        <ele>1483.9</ele>
      </trkpt>
      <trkpt lat="44.06031" lon="6.50356">
        <ele>1482.6</ele>
      </trkpt>
      <trkpt lat="44.05977" lon="6.50425">
        <ele>1477.4</ele>
      </trkpt>
      <trkpt lat="44.05956" lon="6.5047">
        <ele>1477.4</ele>
      </trkpt>
      <trkpt lat="44.05948" lon="6.50513">
        <ele>1481.4</ele>
      </trkpt>
      <trkpt lat="44.05933" lon="6.50532">
        <ele>1481.5</ele>
      </trkpt>
      <trkpt lat="44.05896" lon="6.50578">
        <ele>1481.7</ele>
      </trkpt>
      <trkpt lat="44.05862" lon="6.50683">
        <ele>1476.7</ele>
      </trkpt>
      <trkpt lat="44.05832" lon="6.50797">
        <ele>1469.6</ele>
      </trkpt>
      <trkpt lat="44.05801" lon="6.50891">
        <ele>1453.7</ele>
      </trkpt>
      <trkpt lat="44.05805" lon="6.50907">
        <ele>1453.9</ele>
      </trkpt>
      <trkpt lat="44.05813" lon="6.5092">
        <ele>1455.2</ele>
      </trkpt>
      <trkpt lat="44.05868" lon="6.50978">
        <ele>1454.3</ele>
      </trkpt>
      <trkpt lat="44.05916" lon="6.51007">
        <ele>1455.9</ele>
      </trkpt>
      <trkpt lat="44.05977" lon="6.51062">
        <ele>1451.8</ele>
      </trkpt>
      <trkpt lat="44.05991" lon="6.51081">
        <ele>1448.2</ele>
      </trkpt>
      <trkpt lat="44.06004" lon="6.5109">
        <ele>1450.6</ele>
      </trkpt>
      <trkpt lat="44.06021" lon="6.51111">
        <ele>1456.1</ele>
      </trkpt>
      <trkpt lat="44.0604" lon="6.51145">
        <ele>1458.6</ele>
      </trkpt>
      <trkpt lat="44.06056" lon="6.51179">
        <ele>1459.8</ele>
      </trkpt>
      <trkpt lat="44.06059" lon="6.5119">
        <ele>1460.9</ele>
      </trkpt>
      <trkpt lat="44.06056" lon="6.51198">
        <ele>1461.4</ele>
      </trkpt>
      <trkpt lat="44.0605" lon="6.512">
        <ele>1461.5</ele>
      </trkpt>
      <trkpt lat="44.06024" lon="6.51181">
        <ele>1456.8</ele>
      </trkpt>
      <trkpt lat="44.05992" lon="6.51163">
        <ele>1450.2</ele>
      </trkpt>
      <trkpt lat="44.05975" lon="6.51159">
        <ele>1450.3</ele>
      </trkpt>
      <trkpt lat="44.05915" lon="6.51164">
        <ele>1452.2</ele>
      </trkpt>
      <trkpt lat="44.0589" lon="6.51178">
        <ele>1452.9</ele>
      </trkpt>
      <trkpt lat="44.05874" lon="6.51193">
        <ele>1454.4</ele>
      </trkpt>
      <trkpt lat="44.05866" lon="6.51212">
        <ele>1457.4</ele>
      </trkpt>
      <trkpt lat="44.05848" lon="6.51319">
        <ele>1471.8</ele>
      </trkpt>
      <trkpt lat="44.05822" lon="6.51433">
        <ele>1477.5</ele>
      </trkpt>
      <trkpt lat="44.05813" lon="6.51453">
        <ele>1477.9</ele>
      </trkpt>
      <trkpt lat="44.05806" lon="6.51457">
        <ele>1477.7</ele>
      </trkpt>
      <trkpt lat="44.0579" lon="6.51456">
        <ele>1476.6</ele>
      </trkpt>
      <trkpt lat="44.05779" lon="6.51451">
        <ele>1475.9</ele>
      </trkpt>
      <trkpt lat="44.05767" lon="6.51445">
        <ele>1475.2</ele>
      </trkpt>
      <trkpt lat="44.0577" lon="6.51462">
        <ele>1475.3</ele>
      </trkpt>
      <trkpt lat="44.05775" lon="6.51487">
        <ele>1475.7</ele>
      </trkpt>
      <trkpt lat="44.05786" lon="6.51541">
        <ele>1473.3</ele>
      </trkpt>
      <trkpt lat="44.05786" lon="6.51552">
        <ele>1472.4</ele>
      </trkpt>
      <trkpt lat="44.05772" lon="6.51551">
        <ele>1470.5</ele>
      </trkpt>
      <trkpt lat="44.05709" lon="6.51536">
        <ele>1463.3</ele>
      </trkpt>
      <trkpt lat="44.05672" lon="6.51536">
        <ele>1458.1</ele>
      </trkpt>
      <trkpt lat="44.05588" lon="6.51549">
        <ele>1449</ele>
      </trkpt>
      <trkpt lat="44.05542" lon="6.5156">
        <ele>1445</ele>
      </trkpt>
      <trkpt lat="44.05519" lon="6.51563">
        <ele>1443.8</ele>
      </trkpt>
      <trkpt lat="44.05517" lon="6.51571">
        <ele>1442</ele>
      </trkpt>
      <trkpt lat="44.05523" lon="6.51577">
        <ele>1440.7</ele>
      </trkpt>
      <trkpt lat="44.05565" lon="6.51616">
        <ele>1436.9</ele>
      </trkpt>
      <trkpt lat="44.05573" lon="6.51622">
        <ele>1436.7</ele>
      </trkpt>
      <trkpt lat="44.05592" lon="6.51638">
        <ele>1437</ele>
      </trkpt>
      <trkpt lat="44.05601" lon="6.51647">
        <ele>1437.4</ele>
      </trkpt>
      <trkpt lat="44.05604" lon="6.51655">
        <ele>1437.1</ele>
      </trkpt>
      <trkpt lat="44.05601" lon="6.51664">
        <ele>1436.1</ele>
      </trkpt>
      <trkpt lat="44.05591" lon="6.51666">
        <ele>1434.9</ele>
      </trkpt>
      <trkpt lat="44.05577" lon="6.51663">
        <ele>1433.8</ele>
      </trkpt>
      <trkpt lat="44.05537" lon="6.51699">
        <ele>1430</ele>
      </trkpt>
      <trkpt lat="44.05516" lon="6.51703">
        <ele>1427.8</ele>
      </trkpt>
      <trkpt lat="44.05465" lon="6.51747">
        <ele>1420.9</ele>
      </trkpt>
      <trkpt lat="44.05437" lon="6.51774">
        <ele>1417.6</ele>
      </trkpt>
      <trkpt lat="44.05421" lon="6.51787">
        <ele>1415.2</ele>
      </trkpt>
      <trkpt lat="44.05392" lon="6.51792">
        <ele>1413.3</ele>
      </trkpt>
      <trkpt lat="44.05364" lon="6.51803">
        <ele>1411.3</ele>
      </trkpt>
      <trkpt lat="44.05289" lon="6.51842">
        <ele>1405.4</ele>
      </trkpt>
      <trkpt lat="44.05282" lon="6.51864">
        <ele>1405</ele>
      </trkpt>
      <trkpt lat="44.05276" lon="6.51865">
        <ele>1404.7</ele>
      </trkpt>
      <trkpt lat="44.05248" lon="6.51865">
        <ele>1403.2</ele>
      </trkpt>
      <trkpt lat="44.0524" lon="6.51865">
        <ele>1403.2</ele>
      </trkpt>
      <trkpt lat="44.05228" lon="6.5187">
        <ele>1402.9</ele>
      </trkpt>
      <trkpt lat="44.05213" lon="6.51878">
        <ele>1402.1</ele>
      </trkpt>
      <trkpt lat="44.05167" lon="6.51905">
        <ele>1397.6</ele>
      </trkpt>
      <trkpt lat="44.0515" lon="6.51913">
        <ele>1397.1</ele>
      </trkpt>
      <trkpt lat="44.0514" lon="6.5191">
        <ele>1397.9</ele>
      </trkpt>
      <trkpt lat="44.051" lon="6.51941">
        <ele>1395.9</ele>
      </trkpt>
      <trkpt lat="44.05082" lon="6.51955">
        <ele>1393.9</ele>
      </trkpt>
      <trkpt lat="44.05067" lon="6.51968">
        <ele>1392.3</ele>
      </trkpt>
      <trkpt lat="44.05041" lon="6.51982">
        <ele>1390.2</ele>
      </trkpt>
      <trkpt lat="44.0499" lon="6.52003">
        <ele>1387.4</ele>
      </trkpt>
      <trkpt lat="44.04907" lon="6.52053">
        <ele>1383.7</ele>
      </trkpt>
      <trkpt lat="44.04825" lon="6.52105">
        <ele>1381.1</ele>
      </trkpt>
      <trkpt lat="44.04734" lon="6.52167">
        <ele>1380.7</ele>
      </trkpt>
      <trkpt lat="44.04645" lon="6.52234">
        <ele>1373.2</ele>
      </trkpt>
      <trkpt lat="44.04611" lon="6.52252">
        <ele>1371.4</ele>
      </trkpt>
      <trkpt lat="44.04602" lon="6.52253">
        <ele>1371.4</ele>
      </trkpt>
      <trkpt lat="44.04589" lon="6.52263">
        <ele>1370.6</ele>
      </trkpt>
      <trkpt lat="44.04571" lon="6.52271">
        <ele>1369.4</ele>
      </trkpt>
      <trkpt lat="44.0454" lon="6.52291">
        <ele>1367.2</ele>
      </trkpt>
      <trkpt lat="44.04521" lon="6.52308">
        <ele>1366.6</ele>
      </trkpt>
      <trkpt lat="44.045" lon="6.52319">
        <ele>1366.8</ele>
      </trkpt>
      <trkpt lat="44.04484" lon="6.52336">
        <ele>1364.7</ele>
      </trkpt>
      <trkpt lat="44.04463" lon="6.52352">
        <ele>1361.6</ele>
      </trkpt>
      <trkpt lat="44.04452" lon="6.52361">
        <ele>1360.4</ele>
      </trkpt>
      <trkpt lat="44.04439" lon="6.52371">
        <ele>1359.4</ele>
      </trkpt>
      <trkpt lat="44.04431" lon="6.52378">
        <ele>1359</ele>
      </trkpt>
      <trkpt lat="44.04421" lon="6.52393">
        <ele>1359</ele>
      </trkpt>
      <trkpt lat="44.0442" lon="6.52401">
        <ele>1359.3</ele>
      </trkpt>
      <trkpt lat="44.04419" lon="6.52407">
        <ele>1359.6</ele>
      </trkpt>
      <trkpt lat="44.04419" lon="6.52411">
        <ele>1359.7</ele>
      </trkpt>
      <trkpt lat="44.04414" lon="6.52417">
        <ele>1359.5</ele>
      </trkpt>
      <trkpt lat="44.04408" lon="6.5242">
        <ele>1358.3</ele>
      </trkpt>
      <trkpt lat="44.04406" lon="6.52419">
        <ele>1358.1</ele>
      </trkpt>
      <trkpt lat="44.04404" lon="6.52418">
        <ele>1357.9</ele>
      </trkpt>
      <trkpt lat="44.044" lon="6.52416">
        <ele>1357.4</ele>
      </trkpt>
      <trkpt lat="44.04397" lon="6.52417">
        <ele>1356.9</ele>
      </trkpt>
      <trkpt lat="44.04393" lon="6.52415">
        <ele>1356.2</ele>
      </trkpt>
      <trkpt lat="44.04393" lon="6.52408">
        <ele>1355.9</ele>
      </trkpt>
      <trkpt lat="44.04397" lon="6.52386">
        <ele>1355.4</ele>
      </trkpt>
      <trkpt lat="44.04436" lon="6.52348">
        <ele>1358.8</ele>
      </trkpt>
      <trkpt lat="44.04448" lon="6.52311">
        <ele>1359.5</ele>
      </trkpt>
      <trkpt lat="44.04469" lon="6.52262">
        <ele>1361.4</ele>
      </trkpt>
      <trkpt lat="44.04469" lon="6.52252">
        <ele>1361.2</ele>
      </trkpt>
      <trkpt lat="44.04467" lon="6.5225">
        <ele>1360.9</ele>
      </trkpt>
      <trkpt lat="44.04469" lon="6.52246">
        <ele>1361.1</ele>
      </trkpt>
      <trkpt lat="44.04467" lon="6.5225">
        <ele>1360.9</ele>
      </trkpt>
      <trkpt lat="44.04465" lon="6.52248">
        <ele>1360.5</ele>
      </trkpt>
      <trkpt lat="44.04459" lon="6.52249">
        <ele>1359.6</ele>
      </trkpt>
      <trkpt lat="44.04453" lon="6.52257">
        <ele>1358.8</ele>
      </trkpt>
      <trkpt lat="44.0444" lon="6.52296">
        <ele>1358</ele>
      </trkpt>
      <trkpt lat="44.04377" lon="6.52359">
        <ele>1350.7</ele>
      </trkpt>
      <trkpt lat="44.04328" lon="6.52417">
        <ele>1346.5</ele>
      </trkpt>
      <trkpt lat="44.04308" lon="6.52458">
        <ele>1343.3</ele>
      </trkpt>
      <trkpt lat="44.04304" lon="6.52489">
        <ele>1341.6</ele>
      </trkpt>
      <trkpt lat="44.04313" lon="6.52511">
        <ele>1341</ele>
      </trkpt>
      <trkpt lat="44.04331" lon="6.52523">
        <ele>1341.7</ele>
      </trkpt>
      <trkpt lat="44.04351" lon="6.52523">
        <ele>1343.1</ele>
      </trkpt>
      <trkpt lat="44.04355" lon="6.52528">
        <ele>1342.8</ele>
      </trkpt>
      <trkpt lat="44.04355" lon="6.52536">
        <ele>1341.8</ele>
      </trkpt>
      <trkpt lat="44.04351" lon="6.52542">
        <ele>1340.7</ele>
      </trkpt>
      <trkpt lat="44.04326" lon="6.52539">
        <ele>1339</ele>
      </trkpt>
      <trkpt lat="44.04315" lon="6.52541">
        <ele>1337.5</ele>
      </trkpt>
      <trkpt lat="44.04264" lon="6.52554">
        <ele>1330.3</ele>
      </trkpt>
      <trkpt lat="44.04254" lon="6.5256">
        <ele>1328.7</ele>
      </trkpt>
      <trkpt lat="44.04251" lon="6.52566">
        <ele>1327.8</ele>
      </trkpt>
      <trkpt lat="44.04245" lon="6.52575">
        <ele>1327.4</ele>
      </trkpt>
      <trkpt lat="44.04234" lon="6.52592">
        <ele>1327.9</ele>
      </trkpt>
      <trkpt lat="44.04211" lon="6.52624">
        <ele>1328.5</ele>
      </trkpt>
      <trkpt lat="44.04182" lon="6.52651">
        <ele>1326</ele>
      </trkpt>
      <trkpt lat="44.04135" lon="6.52675">
        <ele>1325</ele>
      </trkpt>
      <trkpt lat="44.04096" lon="6.52676">
        <ele>1327.4</ele>
      </trkpt>
      <trkpt lat="44.04069" lon="6.52704">
        <ele>1328</ele>
      </trkpt>
      <trkpt lat="44.04018" lon="6.52729">
        <ele>1331.6</ele>
      </trkpt>
      <trkpt lat="44.04007" lon="6.52749">
        <ele>1329.5</ele>
      </trkpt>
      <trkpt lat="44.03986" lon="6.52757">
        <ele>1329.6</ele>
      </trkpt>
      <trkpt lat="44.0397" lon="6.52769">
        <ele>1328.1</ele>
      </trkpt>
      <trkpt lat="44.03933" lon="6.52779">
        <ele>1328.7</ele>
      </trkpt>
      <trkpt lat="44.03897" lon="6.52808">
        <ele>1322.4</ele>
      </trkpt>
      <trkpt lat="44.03855" lon="6.52824">
        <ele>1317</ele>
      </trkpt>
      <trkpt lat="44.03816" lon="6.52779">
        <ele>1329.1</ele>
      </trkpt>
      <trkpt lat="44.03808" lon="6.5277">
        <ele>1332.1</ele>
      </trkpt>
      <trkpt lat="44.03799" lon="6.52784">
        <ele>1329.9</ele>
      </trkpt>
      <trkpt lat="44.03799" lon="6.52812">
        <ele>1323.4</ele>
      </trkpt>
      <trkpt lat="44.03793" lon="6.52826">
        <ele>1321</ele>
      </trkpt>
      <trkpt lat="44.03778" lon="6.52837">
        <ele>1320.5</ele>
      </trkpt>
      <trkpt lat="44.03768" lon="6.52866">
        <ele>1315.5</ele>
      </trkpt>
      <trkpt lat="44.03737" lon="6.5289">
        <ele>1313.5</ele>
      </trkpt>
      <trkpt lat="44.03719" lon="6.52896">
        <ele>1313.1</ele>
      </trkpt>
      <trkpt lat="44.03676" lon="6.529">
        <ele>1314.3</ele>
      </trkpt>
      <trkpt lat="44.0366" lon="6.5289">
        <ele>1319.4</ele>
      </trkpt>
      <trkpt lat="44.0365" lon="6.5289">
        <ele>1321.9</ele>
      </trkpt>
      <trkpt lat="44.03644" lon="6.52894">
        <ele>1322.2</ele>
      </trkpt>
      <trkpt lat="44.03638" lon="6.5291">
        <ele>1319.1</ele>
      </trkpt>
      <trkpt lat="44.03626" lon="6.52925">
        <ele>1317.7</ele>
      </trkpt>
      <trkpt lat="44.03589" lon="6.52966">
        <ele>1313.7</ele>
      </trkpt>
      <trkpt lat="44.03549" lon="6.53005">
        <ele>1309.9</ele>
      </trkpt>
      <trkpt lat="44.03483" lon="6.53045">
        <ele>1311.1</ele>
      </trkpt>
      <trkpt lat="44.03469" lon="6.5305">
        <ele>1312.1</ele>
      </trkpt>
      <trkpt lat="44.03458" lon="6.53057">
        <ele>1311.7</ele>
      </trkpt>
      <trkpt lat="44.03443" lon="6.53076">
        <ele>1308</ele>
      </trkpt>
      <trkpt lat="44.03418" lon="6.53099">
        <ele>1306.2</ele>
      </trkpt>
      <trkpt lat="44.0341" lon="6.53129">
        <ele>1300.5</ele>
      </trkpt>
      <trkpt lat="44.03379" lon="6.53166">
        <ele>1295.2</ele>
      </trkpt>
      <trkpt lat="44.03364" lon="6.53177">
        <ele>1294.7</ele>
      </trkpt>
      <trkpt lat="44.03359" lon="6.5318">
        <ele>1294.6</ele>
      </trkpt>
      <trkpt lat="44.03354" lon="6.53179">
        <ele>1295.4</ele>
      </trkpt>
      <trkpt lat="44.03342" lon="6.53168">
        <ele>1298.8</ele>
      </trkpt>
      <trkpt lat="44.03323" lon="6.5315">
        <ele>1308</ele>
      </trkpt>
      <trkpt lat="44.03316" lon="6.5315">
        <ele>1310.2</ele>
      </trkpt>
      <trkpt lat="44.033" lon="6.53199">
        <ele>1304.3</ele>
      </trkpt>
      <trkpt lat="44.0328" lon="6.53231">
        <ele>1303.9</ele>
      </trkpt>
      <trkpt lat="44.03273" lon="6.53238">
        <ele>1304.6</ele>
      </trkpt>
      <trkpt lat="44.03255" lon="6.53246">
        <ele>1308.4</ele>
      </trkpt>
      <trkpt lat="44.0325" lon="6.53252">
        <ele>1308.8</ele>
      </trkpt>
      <trkpt lat="44.03249" lon="6.53273">
        <ele>1307</ele>
      </trkpt>
      <trkpt lat="44.03245" lon="6.53293">
        <ele>1306.8</ele>
      </trkpt>
      <trkpt lat="44.03234" lon="6.53324">
        <ele>1308.7</ele>
      </trkpt>
      <trkpt lat="44.03225" lon="6.53386">
        <ele>1307.5</ele>
      </trkpt>
      <trkpt lat="44.03217" lon="6.53411">
        <ele>1308.6</ele>
      </trkpt>
      <trkpt lat="44.03213" lon="6.53447">
        <ele>1305.2</ele>
      </trkpt>
      <trkpt lat="44.032" lon="6.53474">
        <ele>1306</ele>
      </trkpt>
      <trkpt lat="44.03176" lon="6.535">
        <ele>1310.6</ele>
      </trkpt>
      <trkpt lat="44.03159" lon="6.53513">
        <ele>1312.3</ele>
      </trkpt>
      <trkpt lat="44.03145" lon="6.53528">
        <ele>1311.7</ele>
      </trkpt>
      <trkpt lat="44.03138" lon="6.53532">
        <ele>1312.3</ele>
      </trkpt>
      <trkpt lat="44.03126" lon="6.53535">
        <ele>1314.1</ele>
      </trkpt>
      <trkpt lat="44.03105" lon="6.53534">
        <ele>1318.8</ele>
      </trkpt>
      <trkpt lat="44.03096" lon="6.53558">
        <ele>1316.3</ele>
      </trkpt>
      <trkpt lat="44.03083" lon="6.5358">
        <ele>1315.6</ele>
      </trkpt>
      <trkpt lat="44.03065" lon="6.53603">
        <ele>1314.9</ele>
      </trkpt>
      <trkpt lat="44.03031" lon="6.53627">
        <ele>1315.6</ele>
      </trkpt>
      <trkpt lat="44.03007" lon="6.53639">
        <ele>1316.4</ele>
      </trkpt>
      <trkpt lat="44.0298" lon="6.53641">
        <ele>1320.3</ele>
      </trkpt>
      <trkpt lat="44.02975" lon="6.53648">
        <ele>1319.8</ele>
      </trkpt>
      <trkpt lat="44.02969" lon="6.53659">
        <ele>1318.8</ele>
      </trkpt>
      <trkpt lat="44.0291" lon="6.53715">
        <ele>1319.4</ele>
      </trkpt>
      <trkpt lat="44.02893" lon="6.53725">
        <ele>1320.9</ele>
      </trkpt>
      <trkpt lat="44.02861" lon="6.53764">
        <ele>1321.3</ele>
      </trkpt>
      <trkpt lat="44.02803" lon="6.53831">
        <ele>1323.9</ele>
      </trkpt>
      <trkpt lat="44.02781" lon="6.5385">
        <ele>1325.1</ele>
      </trkpt>
      <trkpt lat="44.02772" lon="6.53875">
        <ele>1323.9</ele>
      </trkpt>
      <trkpt lat="44.0276" lon="6.53891">
        <ele>1323.2</ele>
      </trkpt>
      <trkpt lat="44.02744" lon="6.53902">
        <ele>1323.2</ele>
      </trkpt>
      <trkpt lat="44.02609" lon="6.53956">
        <ele>1321.4</ele>
      </trkpt>
      <trkpt lat="44.02588" lon="6.53956">
        <ele>1321.6</ele>
      </trkpt>
      <trkpt lat="44.02538" lon="6.53921">
        <ele>1338.6</ele>
      </trkpt>
      <trkpt lat="44.02504" lon="6.53999">
        <ele>1328.3</ele>
      </trkpt>
      <trkpt lat="44.02463" lon="6.54053">
        <ele>1329.2</ele>
      </trkpt>
      <trkpt lat="44.02419" lon="6.54096">
        <ele>1334.8</ele>
      </trkpt>
      <trkpt lat="44.0239" lon="6.54127">
        <ele>1329.2</ele>
      </trkpt>
      <trkpt lat="44.02373" lon="6.54141">
        <ele>1324.6</ele>
      </trkpt>
      <trkpt lat="44.02356" lon="6.54147">
        <ele>1321.6</ele>
      </trkpt>
      <trkpt lat="44.02345" lon="6.54143">
        <ele>1322.3</ele>
      </trkpt>
      <trkpt lat="44.02336" lon="6.54136">
        <ele>1324.6</ele>
      </trkpt>
      <trkpt lat="44.02282" lon="6.54116">
        <ele>1331.4</ele>
      </trkpt>
      <trkpt lat="44.02225" lon="6.54106">
        <ele>1342</ele>
      </trkpt>
      <trkpt lat="44.02218" lon="6.54224">
        <ele>1315.7</ele>
      </trkpt>
      <trkpt lat="44.02213" lon="6.5424">
        <ele>1314.3</ele>
      </trkpt>
      <trkpt lat="44.02197" lon="6.54276">
        <ele>1311.7</ele>
      </trkpt>
      <trkpt lat="44.02191" lon="6.54292">
        <ele>1309.8</ele>
      </trkpt>
      <trkpt lat="44.02191" lon="6.54293">
        <ele>1309.5</ele>
      </trkpt>
      <trkpt lat="44.02191" lon="6.54292">
        <ele>1309.8</ele>
      </trkpt>
      <trkpt lat="44.02103" lon="6.54314">
        <ele>1326.9</ele>
      </trkpt>
      <trkpt lat="44.02084" lon="6.54317">
        <ele>1330.4</ele>
      </trkpt>
      <trkpt lat="44.02046" lon="6.5431">
        <ele>1338.6</ele>
      </trkpt>
      <trkpt lat="44.02025" lon="6.54315">
        <ele>1340.7</ele>
      </trkpt>
      <trkpt lat="44.02015" lon="6.5432">
        <ele>1341</ele>
      </trkpt>
      <trkpt lat="44.02011" lon="6.54323">
        <ele>1340.9</ele>
      </trkpt>
      <trkpt lat="44.0196" lon="6.54336">
        <ele>1345.2</ele>
      </trkpt>
      <trkpt lat="44.01871" lon="6.54382">
        <ele>1351.3</ele>
      </trkpt>
      <trkpt lat="44.01823" lon="6.54403">
        <ele>1354.4</ele>
      </trkpt>
      <trkpt lat="44.01782" lon="6.54397">
        <ele>1361.6</ele>
      </trkpt>
      <trkpt lat="44.01734" lon="6.54387">
        <ele>1367.3</ele>
      </trkpt>
      <trkpt lat="44.01699" lon="6.54372">
        <ele>1369.1</ele>
      </trkpt>
      <trkpt lat="44.01683" lon="6.54352">
        <ele>1374.3</ele>
      </trkpt>
      <trkpt lat="44.01662" lon="6.54343">
        <ele>1375.5</ele>
      </trkpt>
      <trkpt lat="44.01643" lon="6.54318">
        <ele>1376</ele>
      </trkpt>
      <trkpt lat="44.01621" lon="6.54277">
        <ele>1377.9</ele>
      </trkpt>
      <trkpt lat="44.01603" lon="6.54205">
        <ele>1390.9</ele>
      </trkpt>
      <trkpt lat="44.01515" lon="6.54158">
        <ele>1379.5</ele>
      </trkpt>
      <trkpt lat="44.01445" lon="6.5408">
        <ele>1382.3</ele>
      </trkpt>
      <trkpt lat="44.01405" lon="6.54007">
        <ele>1395.8</ele>
      </trkpt>
      <trkpt lat="44.01352" lon="6.54029">
        <ele>1390.2</ele>
      </trkpt>
      <trkpt lat="44.01291" lon="6.54146">
        <ele>1365</ele>
      </trkpt>
      <trkpt lat="44.01252" lon="6.54156">
        <ele>1365.8</ele>
      </trkpt>
      <trkpt lat="44.01212" lon="6.54117">
        <ele>1377.7</ele>
      </trkpt>
      <trkpt lat="44.0102" lon="6.54298">
        <ele>1338</ele>
      </trkpt>
      <trkpt lat="44.00998" lon="6.54313">
        <ele>1334.5</ele>
      </trkpt>
      <trkpt lat="44.00936" lon="6.54335">
        <ele>1319.1</ele>
      </trkpt>
      <trkpt lat="44.00867" lon="6.54217">
        <ele>1337.7</ele>
      </trkpt>
      <trkpt lat="44.00867" lon="6.5422">
        <ele>1336.7</ele>
      </trkpt>
      <trkpt lat="44.0087" lon="6.54254">
        <ele>1325.7</ele>
      </trkpt>
      <trkpt lat="44.00916" lon="6.54389">
        <ele>1302.1</ele>
      </trkpt>
      <trkpt lat="44.00955" lon="6.54421">
        <ele>1299.4</ele>
      </trkpt>
      <trkpt lat="44.01023" lon="6.54432">
        <ele>1299.4</ele>
      </trkpt>
      <trkpt lat="44.01102" lon="6.544">
        <ele>1299.7</ele>
      </trkpt>
      <trkpt lat="44.01137" lon="6.54373">
        <ele>1304.7</ele>
      </trkpt>
      <trkpt lat="44.01151" lon="6.54411">
        <ele>1292.7</ele>
      </trkpt>
      <trkpt lat="44.01255" lon="6.54514">
        <ele>1273.5</ele>
      </trkpt>
      <trkpt lat="44.01309" lon="6.54587">
        <ele>1259.1</ele>
      </trkpt>
      <trkpt lat="44.01345" lon="6.54604">
        <ele>1255.8</ele>
      </trkpt>
      <trkpt lat="44.01342" lon="6.54622">
        <ele>1252.6</ele>
      </trkpt>
      <trkpt lat="44.01304" lon="6.54641">
        <ele>1246.3</ele>
      </trkpt>
      <trkpt lat="44.01275" lon="6.54633">
        <ele>1244.5</ele>
      </trkpt>
      <trkpt lat="44.01229" lon="6.54588">
        <ele>1248.9</ele>
      </trkpt>
      <trkpt lat="44.01191" lon="6.54588">
        <ele>1240.3</ele>
      </trkpt>
      <trkpt lat="44.01134" lon="6.5453">
        <ele>1257.1</ele>
      </trkpt>
      <trkpt lat="44.01109" lon="6.54604">
        <ele>1236.4</ele>
      </trkpt>
      <trkpt lat="44.00987" lon="6.54733">
        <ele>1209.4</ele>
      </trkpt>
      <trkpt lat="44.00935" lon="6.54721">
        <ele>1204.8</ele>
      </trkpt>
      <trkpt lat="44.00896" lon="6.54689">
        <ele>1205.8</ele>
      </trkpt>
      <trkpt lat="44.00855" lon="6.54674">
        <ele>1198.1</ele>
      </trkpt>
      <trkpt lat="44.00823" lon="6.5467">
        <ele>1188.8</ele>
      </trkpt>
      <trkpt lat="44.00768" lon="6.54611">
        <ele>1186.3</ele>
      </trkpt>
      <trkpt lat="44.00763" lon="6.54582">
        <ele>1194.1</ele>
      </trkpt>
      <trkpt lat="44.00755" lon="6.54554">
        <ele>1203.5</ele>
      </trkpt>
      <trkpt lat="44.00744" lon="6.54553">
        <ele>1201.8</ele>
      </trkpt>
      <trkpt lat="44.00694" lon="6.54603">
        <ele>1178.3</ele>
      </trkpt>
      <trkpt lat="44.00586" lon="6.54569">
        <ele>1163.4</ele>
      </trkpt>
      <trkpt lat="44.00555" lon="6.54492">
        <ele>1169</ele>
      </trkpt>
      <trkpt lat="44.00526" lon="6.54464">
        <ele>1160.2</ele>
      </trkpt>
      <trkpt lat="44.00515" lon="6.54431">
        <ele>1165.4</ele>
      </trkpt>
      <trkpt lat="44.00488" lon="6.5441">
        <ele>1154.7</ele>
      </trkpt>
      <trkpt lat="44.0047" lon="6.54352">
        <ele>1165.9</ele>
      </trkpt>
      <trkpt lat="44.00406" lon="6.54267">
        <ele>1147.6</ele>
      </trkpt>
      <trkpt lat="44.00345" lon="6.54188">
        <ele>1140.9</ele>
      </trkpt>
      <trkpt lat="44.00264" lon="6.54134">
        <ele>1118.3</ele>
      </trkpt>
      <trkpt lat="44.00183" lon="6.54046">
        <ele>1102.2</ele>
      </trkpt>
      <trkpt lat="44.00143" lon="6.5388">
        <ele>1110.4</ele>
      </trkpt>
      <trkpt lat="44.00122" lon="6.53834">
        <ele>1111.4</ele>
      </trkpt>
      <trkpt lat="44.00099" lon="6.53818">
        <ele>1105.5</ele>
      </trkpt>
      <trkpt lat="44.00062" lon="6.53839">
        <ele>1090.4</ele>
      </trkpt>
      <trkpt lat="44.00011" lon="6.53831">
        <ele>1089.6</ele>
      </trkpt>
      <trkpt lat="43.99991" lon="6.53862">
        <ele>1080.5</ele>
      </trkpt>
      <trkpt lat="43.99943" lon="6.53912">
        <ele>1069.6</ele>
      </trkpt>
      <trkpt lat="43.99929" lon="6.5392">
        <ele>1068.3</ele>
      </trkpt>
      <trkpt lat="43.99899" lon="6.53924">
        <ele>1062.5</ele>
      </trkpt>
      <trkpt lat="43.99894" lon="6.53932">
        <ele>1058.9</ele>
      </trkpt>
      <trkpt lat="43.99898" lon="6.53941">
        <ele>1057.6</ele>
      </trkpt>
      <trkpt lat="43.99927" lon="6.53959">
        <ele>1057.2</ele>
      </trkpt>
      <trkpt lat="43.99951" lon="6.53953">
        <ele>1058.5</ele>
      </trkpt>
      <trkpt lat="43.9997" lon="6.53943">
        <ele>1060.5</ele>
      </trkpt>
      <trkpt lat="43.99994" lon="6.53939">
        <ele>1060.6</ele>
      </trkpt>
      <trkpt lat="43.99937" lon="6.53981">
        <ele>1051</ele>
      </trkpt>
      <trkpt lat="43.99888" lon="6.54013">
        <ele>1037.6</ele>
      </trkpt>
      <trkpt lat="43.99843" lon="6.53968">
        <ele>1037.6</ele>
      </trkpt>
      <trkpt lat="43.99819" lon="6.53899">
        <ele>1043.3</ele>
      </trkpt>
      <trkpt lat="43.99752" lon="6.53821">
        <ele>1036.1</ele>
      </trkpt>
      <trkpt lat="43.9975" lon="6.5382">
        <ele>1035.6</ele>
      </trkpt>
      <trkpt lat="43.99688" lon="6.53822">
        <ele>1026.5</ele>
      </trkpt>
      <trkpt lat="43.9963" lon="6.5379">
        <ele>1026.4</ele>
      </trkpt>
      <trkpt lat="43.9959" lon="6.53788">
        <ele>1021.8</ele>
      </trkpt>
      <trkpt lat="43.99491" lon="6.53822">
        <ele>1017</ele>
      </trkpt>
      <trkpt lat="43.99451" lon="6.53829">
        <ele>1016.1</ele>
      </trkpt>
      <trkpt lat="43.99425" lon="6.53853">
        <ele>1011.8</ele>
      </trkpt>
      <trkpt lat="43.9941" lon="6.53867">
        <ele>1007</ele>
      </trkpt>
      <trkpt lat="43.99419" lon="6.53875">
        <ele>1007.3</ele>
      </trkpt>
      <trkpt lat="43.99425" lon="6.53889">
        <ele>1005.5</ele>
      </trkpt>
      <trkpt lat="43.99458" lon="6.53983">
        <ele>997.1</ele>
      </trkpt>
      <trkpt lat="43.99476" lon="6.54022">
        <ele>994.1</ele>
      </trkpt>
      <trkpt lat="43.99488" lon="6.5404">
        <ele>993.5</ele>
      </trkpt>
      <trkpt lat="43.99501" lon="6.54056">
        <ele>993.7</ele>
      </trkpt>
      <trkpt lat="43.9953" lon="6.54086">
        <ele>990.4</ele>
      </trkpt>
      <trkpt lat="43.99546" lon="6.54099">
        <ele>990</ele>
      </trkpt>
      <trkpt lat="43.99577" lon="6.5412">
        <ele>991.5</ele>
      </trkpt>
      <trkpt lat="43.99611" lon="6.54135">
        <ele>989.6</ele>
      </trkpt>
      <trkpt lat="43.99628" lon="6.54137">
        <ele>988.7</ele>
      </trkpt>
      <trkpt lat="43.9968" lon="6.54139">
        <ele>988.4</ele>
      </trkpt>
      <trkpt lat="43.99696" lon="6.54145">
        <ele>989.3</ele>
      </trkpt>
      <trkpt lat="43.99758" lon="6.54179">
        <ele>988.1</ele>
      </trkpt>
      <trkpt lat="43.99774" lon="6.54184">
        <ele>987.3</ele>
      </trkpt>
      <trkpt lat="43.99823" lon="6.5419">
        <ele>986.8</ele>
      </trkpt>
      <trkpt lat="43.99839" lon="6.54196">
        <ele>985.5</ele>
      </trkpt>
      <trkpt lat="43.99869" lon="6.5421">
        <ele>984.1</ele>
      </trkpt>
      <trkpt lat="43.99913" lon="6.54239">
        <ele>978</ele>
      </trkpt>
      <trkpt lat="43.99975" lon="6.54271">
        <ele>976.8</ele>
      </trkpt>
      <trkpt lat="44.00001" lon="6.54286">
        <ele>976.7</ele>
      </trkpt>
      <trkpt lat="44.00071" lon="6.5434">
        <ele>978.5</ele>
      </trkpt>
      <trkpt lat="44.001" lon="6.54366">
        <ele>980.7</ele>
      </trkpt>
      <trkpt lat="44.00126" lon="6.54395">
        <ele>982.1</ele>
      </trkpt>
      <trkpt lat="44.00135" lon="6.5441">
        <ele>980.9</ele>
      </trkpt>
      <trkpt lat="44.00142" lon="6.54426">
        <ele>979.8</ele>
      </trkpt>
      <trkpt lat="44.00151" lon="6.54481">
        <ele>973.4</ele>
      </trkpt>
      <trkpt lat="44.00156" lon="6.54498">
        <ele>972</ele>
      </trkpt>
      <trkpt lat="44.00173" lon="6.54529">
        <ele>971.3</ele>
      </trkpt>
      <trkpt lat="44.00187" lon="6.54563">
        <ele>968.4</ele>
      </trkpt>
      <trkpt lat="44.00199" lon="6.54602">
        <ele>965.6</ele>
      </trkpt>
      <trkpt lat="44.00223" lon="6.54668">
        <ele>964.4</ele>
      </trkpt>
      <trkpt lat="44.00226" lon="6.54672">
        <ele>964.6</ele>
      </trkpt>
      <trkpt lat="44.00234" lon="6.5469">
        <ele>964.4</ele>
      </trkpt>
      <trkpt lat="44.00272" lon="6.54759">
        <ele>965.1</ele>
      </trkpt>
      <trkpt lat="44.00343" lon="6.54864">
        <ele>966</ele>
      </trkpt>
      <trkpt lat="44.00357" lon="6.54884">
        <ele>965.7</ele>
      </trkpt>
      <trkpt lat="44.00403" lon="6.5494">
        <ele>968.2</ele>
      </trkpt>
      <trkpt lat="44.00439" lon="6.54994">
        <ele>973.6</ele>
      </trkpt>
      <trkpt lat="44.00449" lon="6.5501">
        <ele>976.7</ele>
      </trkpt>
      <trkpt lat="44.00461" lon="6.55039">
        <ele>977.9</ele>
      </trkpt>
      <trkpt lat="44.00552" lon="6.55306">
        <ele>961</ele>
      </trkpt>
      <trkpt lat="44.00588" lon="6.55463">
        <ele>962.2</ele>
      </trkpt>
      <trkpt lat="44.00634" lon="6.55679">
        <ele>972.2</ele>
      </trkpt>
      <trkpt lat="44.00641" lon="6.55706">
        <ele>972.6</ele>
      </trkpt>
      <trkpt lat="44.00657" lon="6.55752">
        <ele>973.4</ele>
      </trkpt>
      <trkpt lat="44.00666" lon="6.55777">
        <ele>973</ele>
      </trkpt>
      <trkpt lat="44.00667" lon="6.55801">
        <ele>970.6</ele>
      </trkpt>
      <trkpt lat="44.00696" lon="6.55872">
        <ele>969.8</ele>
      </trkpt>
      <trkpt lat="44.00711" lon="6.55905">
        <ele>968</ele>
      </trkpt>
      <trkpt lat="44.00725" lon="6.55927">
        <ele>966.5</ele>
      </trkpt>
      <trkpt lat="44.00736" lon="6.5594">
        <ele>965.6</ele>
      </trkpt>
      <trkpt lat="44.00746" lon="6.55947">
        <ele>965.2</ele>
      </trkpt>
      <trkpt lat="44.00849" lon="6.55986">
        <ele>970.3</ele>
      </trkpt>
      <trkpt lat="44.00865" lon="6.56003">
        <ele>966.2</ele>
      </trkpt>
      <trkpt lat="44.00867" lon="6.56013">
        <ele>965</ele>
      </trkpt>
      <trkpt lat="44.00868" lon="6.56023">
        <ele>963.6</ele>
      </trkpt>
      <trkpt lat="44.00867" lon="6.56029">
        <ele>962.5</ele>
      </trkpt>
      <trkpt lat="44.00843" lon="6.56101">
        <ele>955.5</ele>
      </trkpt>
      <trkpt lat="44.00842" lon="6.56106">
        <ele>955.9</ele>
      </trkpt>
      <trkpt lat="44.00842" lon="6.56107">
        <ele>956</ele>
      </trkpt>
      <trkpt lat="44.00837" lon="6.56123">
        <ele>957.3</ele>
      </trkpt>
      <trkpt lat="44.00835" lon="6.56133">
        <ele>958.2</ele>
      </trkpt>
      <trkpt lat="44.00835" lon="6.56137">
        <ele>958.5</ele>
      </trkpt>
      <trkpt lat="44.00836" lon="6.5615">
        <ele>959.6</ele>
      </trkpt>
      <trkpt lat="44.0084" lon="6.56162">
        <ele>960.5</ele>
      </trkpt>
      <trkpt lat="44.00853" lon="6.56186">
        <ele>963.5</ele>
      </trkpt>
      <trkpt lat="44.0087" lon="6.56213">
        <ele>968.1</ele>
      </trkpt>
      <trkpt lat="44.00893" lon="6.56232">
        <ele>972.6</ele>
      </trkpt>
      <trkpt lat="44.00899" lon="6.56242">
        <ele>975</ele>
      </trkpt>
      <trkpt lat="44.00905" lon="6.56251">
        <ele>977.1</ele>
      </trkpt>
      <trkpt lat="44.00912" lon="6.56266">
        <ele>978.4</ele>
      </trkpt>
      <trkpt lat="44.00919" lon="6.56298">
        <ele>981</ele>
      </trkpt>
      <trkpt lat="44.00913" lon="6.56414">
        <ele>986.7</ele>
      </trkpt>
      <trkpt lat="44.00863" lon="6.56489">
        <ele>991.8</ele>
      </trkpt>
      <trkpt lat="44.00764" lon="6.56544">
        <ele>992.6</ele>
      </trkpt>
      <trkpt lat="44.00674" lon="6.56665">
        <ele>995.9</ele>
      </trkpt>
      <trkpt lat="44.00534" lon="6.56707">
        <ele>1008.7</ele>
      </trkpt>
      <trkpt lat="44.0042" lon="6.56811">
        <ele>1015.5</ele>
      </trkpt>
      <trkpt lat="44.00268" lon="6.56889">
        <ele>1022.7</ele>
      </trkpt>
      <trkpt lat="44.00239" lon="6.57026">
        <ele>1013.5</ele>
      </trkpt>
      <trkpt lat="44.00224" lon="6.57041">
        <ele>1014.2</ele>
      </trkpt>
      <trkpt lat="44.0018" lon="6.57071">
        <ele>1010.3</ele>
      </trkpt>
      <trkpt lat="44.00169" lon="6.5708">
        <ele>1007.9</ele>
      </trkpt>
      <trkpt lat="44.00123" lon="6.57129">
        <ele>1012.1</ele>
      </trkpt>
      <trkpt lat="44.00055" lon="6.57195">
        <ele>1012.8</ele>
      </trkpt>
      <trkpt lat="44.00007" lon="6.5723">
        <ele>1011.5</ele>
      </trkpt>
      <trkpt lat="44.00003" lon="6.57234">
        <ele>1011</ele>
      </trkpt>
      <trkpt lat="43.99921" lon="6.57347">
        <ele>1011.1</ele>
      </trkpt>
      <trkpt lat="43.99812" lon="6.5744">
        <ele>1010</ele>
      </trkpt>
      <trkpt lat="43.99804" lon="6.57476">
        <ele>1012.7</ele>
      </trkpt>
      <trkpt lat="43.99794" lon="6.57491">
        <ele>1013.5</ele>
      </trkpt>
      <trkpt lat="43.99786" lon="6.57496">
        <ele>1013.5</ele>
      </trkpt>
      <trkpt lat="43.99776" lon="6.57498">
        <ele>1013.1</ele>
      </trkpt>
      <trkpt lat="43.99726" lon="6.57483">
        <ele>1010.7</ele>
      </trkpt>
      <trkpt lat="43.997" lon="6.5748">
        <ele>1010.1</ele>
      </trkpt>
      <trkpt lat="43.99625" lon="6.57546">
        <ele>1011.8</ele>
      </trkpt>
      <trkpt lat="43.99554" lon="6.57544">
        <ele>1013.8</ele>
      </trkpt>
      <trkpt lat="43.99483" lon="6.57569">
        <ele>1015</ele>
      </trkpt>
      <trkpt lat="43.99389" lon="6.57672">
        <ele>1014.2</ele>
      </trkpt>
      <trkpt lat="43.99283" lon="6.57723">
        <ele>1017.3</ele>
      </trkpt>
      <trkpt lat="43.99151" lon="6.57877">
        <ele>1027.5</ele>
      </trkpt>
      <trkpt lat="43.99135" lon="6.57896">
        <ele>1028.6</ele>
      </trkpt>
      <trkpt lat="43.99108" lon="6.57916">
        <ele>1027.4</ele>
      </trkpt>
      <trkpt lat="43.99091" lon="6.57937">
        <ele>1026.8</ele>
      </trkpt>
      <trkpt lat="43.98991" lon="6.58096">
        <ele>1030.5</ele>
      </trkpt>
      <trkpt lat="43.98909" lon="6.58142">
        <ele>1034</ele>
      </trkpt>
      <trkpt lat="43.98871" lon="6.58166">
        <ele>1034</ele>
      </trkpt>
      <trkpt lat="43.9883" lon="6.58182">
        <ele>1033</ele>
      </trkpt>
      <trkpt lat="43.98776" lon="6.58208">
        <ele>1036.2</ele>
      </trkpt>
      <trkpt lat="43.98727" lon="6.58212">
        <ele>1036.3</ele>
      </trkpt>
      <trkpt lat="43.98568" lon="6.58249">
        <ele>1036.9</ele>
      </trkpt>
      <trkpt lat="43.98499" lon="6.58228">
        <ele>1040.2</ele>
      </trkpt>
      <trkpt lat="43.98399" lon="6.58255">
        <ele>1043.6</ele>
      </trkpt>
      <trkpt lat="43.9832" lon="6.5824">
        <ele>1042</ele>
      </trkpt>
      <trkpt lat="43.98083" lon="6.58425">
        <ele>1052.2</ele>
      </trkpt>
      <trkpt lat="43.97945" lon="6.58452">
        <ele>1050.8</ele>
      </trkpt>
      <trkpt lat="43.97905" lon="6.58492">
        <ele>1051</ele>
      </trkpt>
      <trkpt lat="43.97903" lon="6.58498">
        <ele>1051.2</ele>
      </trkpt>
      <trkpt lat="43.97791" lon="6.58793">
        <ele>1063</ele>
      </trkpt>
      <trkpt lat="43.97719" lon="6.58922">
        <ele>1064</ele>
      </trkpt>
      <trkpt lat="43.97687" lon="6.59025">
        <ele>1064.6</ele>
      </trkpt>
      <trkpt lat="43.97682" lon="6.59061">
        <ele>1064</ele>
      </trkpt>
      <trkpt lat="43.97678" lon="6.59166">
        <ele>1065.7</ele>
      </trkpt>
      <trkpt lat="43.97696" lon="6.59366">
        <ele>1072.4</ele>
      </trkpt>
      <trkpt lat="43.977" lon="6.59446">
        <ele>1076.3</ele>
      </trkpt>
      <trkpt lat="43.97702" lon="6.59492">
        <ele>1078.1</ele>
      </trkpt>
      <trkpt lat="43.97703" lon="6.595">
        <ele>1078.5</ele>
      </trkpt>
      <trkpt lat="43.97706" lon="6.59539">
        <ele>1079.5</ele>
      </trkpt>
      <trkpt lat="43.97706" lon="6.59559">
        <ele>1079.8</ele>
      </trkpt>
      <trkpt lat="43.97707" lon="6.59569">
        <ele>1080.1</ele>
      </trkpt>
      <trkpt lat="43.97707" lon="6.59575">
        <ele>1080.2</ele>
      </trkpt>
      <trkpt lat="43.97706" lon="6.59585">
        <ele>1080.3</ele>
      </trkpt>
      <trkpt lat="43.97705" lon="6.59617">
        <ele>1081.5</ele>
      </trkpt>
      <trkpt lat="43.97704" lon="6.59642">
        <ele>1082.4</ele>
      </trkpt>
      <trkpt lat="43.97697" lon="6.59673">
        <ele>1082.8</ele>
      </trkpt>
      <trkpt lat="43.97694" lon="6.59678">
        <ele>1082.9</ele>
      </trkpt>
      <trkpt lat="43.9768" lon="6.59688">
        <ele>1082.5</ele>
      </trkpt>
      <trkpt lat="43.97677" lon="6.59693">
        <ele>1082.9</ele>
      </trkpt>
      <trkpt lat="43.97675" lon="6.59703">
        <ele>1084</ele>
      </trkpt>
      <trkpt lat="43.97675" lon="6.5972">
        <ele>1086.3</ele>
      </trkpt>
      <trkpt lat="43.97676" lon="6.59728">
        <ele>1087.3</ele>
      </trkpt>
      <trkpt lat="43.97677" lon="6.59733">
        <ele>1088</ele>
      </trkpt>
      <trkpt lat="43.97684" lon="6.5974">
        <ele>1088.5</ele>
      </trkpt>
      <trkpt lat="43.97729" lon="6.59759">
        <ele>1086.3</ele>
      </trkpt>
      <trkpt lat="43.97736" lon="6.59763">
        <ele>1085.8</ele>
      </trkpt>
      <trkpt lat="43.9774" lon="6.59768">
        <ele>1085.5</ele>
      </trkpt>
      <trkpt lat="43.97744" lon="6.59775">
        <ele>1085.2</ele>
      </trkpt>
      <trkpt lat="43.97734" lon="6.59817">
        <ele>1088.8</ele>
      </trkpt>
      <trkpt lat="43.97735" lon="6.59832">
        <ele>1089.3</ele>
      </trkpt>
      <trkpt lat="43.9774" lon="6.59844">
        <ele>1089.6</ele>
      </trkpt>
      <trkpt lat="43.97742" lon="6.59854">
        <ele>1090.7</ele>
      </trkpt>
      <trkpt lat="43.97747" lon="6.59866">
        <ele>1091.8</ele>
      </trkpt>
      <trkpt lat="43.97744" lon="6.59879">
        <ele>1094.6</ele>
      </trkpt>
      <trkpt lat="43.97728" lon="6.59904">
        <ele>1100</ele>
      </trkpt>
      <trkpt lat="43.97712" lon="6.59921">
        <ele>1102.5</ele>
      </trkpt>
      <trkpt lat="43.9769" lon="6.59935">
        <ele>1104.6</ele>
      </trkpt>
      <trkpt lat="43.97569" lon="6.59965">
        <ele>1113.9</ele>
      </trkpt>
      <trkpt lat="43.97491" lon="6.60036">
        <ele>1118.2</ele>
      </trkpt>
      <trkpt lat="43.97491" lon="6.60092">
        <ele>1115.4</ele>
      </trkpt>
      <trkpt lat="43.97467" lon="6.60193">
        <ele>1118.6</ele>
      </trkpt>
      <trkpt lat="43.97478" lon="6.60243">
        <ele>1116.7</ele>
      </trkpt>
      <trkpt lat="43.97479" lon="6.60267">
        <ele>1117.9</ele>
      </trkpt>
      <trkpt lat="43.97479" lon="6.60305">
        <ele>1121</ele>
      </trkpt>
      <trkpt lat="43.97423" lon="6.60423">
        <ele>1131.4</ele>
      </trkpt>
      <trkpt lat="43.97412" lon="6.60468">
        <ele>1137.6</ele>
      </trkpt>
      <trkpt lat="43.97408" lon="6.60464">
        <ele>1139.2</ele>
      </trkpt>
      <trkpt lat="43.97401" lon="6.60458">
        <ele>1142.3</ele>
      </trkpt>
      <trkpt lat="43.97398" lon="6.60455">
        <ele>1143.6</ele>
      </trkpt>
      <trkpt lat="43.97415" lon="6.60386">
        <ele>1129.3</ele>
      </trkpt>
      <trkpt lat="43.97392" lon="6.60254">
        <ele>1139.6</ele>
      </trkpt>
      <trkpt lat="43.97397" lon="6.60148">
        <ele>1139.1</ele>
      </trkpt>
      <trkpt lat="43.97366" lon="6.60253">
        <ele>1155.8</ele>
      </trkpt>
      <trkpt lat="43.97368" lon="6.60368">
        <ele>1158.8</ele>
      </trkpt>
      <trkpt lat="43.97333" lon="6.60457">
        <ele>1178.7</ele>
      </trkpt>
      <trkpt lat="43.97374" lon="6.60643">
        <ele>1180.7</ele>
      </trkpt>
      <trkpt lat="43.97368" lon="6.60813">
        <ele>1203.7</ele>
      </trkpt>
      <trkpt lat="43.97329" lon="6.61003">
        <ele>1211.8</ele>
      </trkpt>
      <trkpt lat="43.97273" lon="6.61072">
        <ele>1227</ele>
      </trkpt>
      <trkpt lat="43.97249" lon="6.61087">
        <ele>1232.9</ele>
      </trkpt>
      <trkpt lat="43.97203" lon="6.61172">
        <ele>1238</ele>
      </trkpt>
      <trkpt lat="43.97113" lon="6.61248">
        <ele>1251.3</ele>
      </trkpt>
      <trkpt lat="43.97073" lon="6.61296">
        <ele>1253.9</ele>
      </trkpt>
      <trkpt lat="43.97113" lon="6.61195">
        <ele>1263.7</ele>
      </trkpt>
      <trkpt lat="43.97168" lon="6.60968">
        <ele>1286.6</ele>
      </trkpt>
      <trkpt lat="43.97184" lon="6.60914">
        <ele>1291.1</ele>
      </trkpt>
      <trkpt lat="43.97146" lon="6.6096">
        <ele>1298.6</ele>
      </trkpt>
      <trkpt lat="43.97097" lon="6.61028">
        <ele>1304.8</ele>
      </trkpt>
      <trkpt lat="43.97031" lon="6.6112">
        <ele>1310.6</ele>
      </trkpt>
      <trkpt lat="43.96939" lon="6.61159">
        <ele>1314.2</ele>
      </trkpt>
      <trkpt lat="43.96853" lon="6.61089">
        <ele>1325.2</ele>
      </trkpt>
      <trkpt lat="43.96829" lon="6.61036">
        <ele>1343.1</ele>
      </trkpt>
      <trkpt lat="43.96728" lon="6.60962">
        <ele>1361.5</ele>
      </trkpt>
      <trkpt lat="43.96685" lon="6.60966">
        <ele>1359.4</ele>
      </trkpt>
      <trkpt lat="43.96649" lon="6.60949">
        <ele>1368.7</ele>
      </trkpt>
      <trkpt lat="43.96612" lon="6.60959">
        <ele>1364.2</ele>
      </trkpt>
      <trkpt lat="43.96523" lon="6.60913">
        <ele>1386.1</ele>
      </trkpt>
      <trkpt lat="43.96475" lon="6.60921">
        <ele>1394.1</ele>
      </trkpt>
      <trkpt lat="43.96453" lon="6.60981">
        <ele>1382.3</ele>
      </trkpt>
      <trkpt lat="43.96397" lon="6.61003">
        <ele>1397.5</ele>
      </trkpt>
      <trkpt lat="43.96361" lon="6.60991">
        <ele>1415.5</ele>
      </trkpt>
      <trkpt lat="43.96349" lon="6.61046">
        <ele>1400.9</ele>
      </trkpt>
      <trkpt lat="43.96273" lon="6.61095">
        <ele>1403.7</ele>
      </trkpt>
      <trkpt lat="43.9616" lon="6.61023">
        <ele>1439.3</ele>
      </trkpt>
      <trkpt lat="43.96123" lon="6.61059">
        <ele>1433.1</ele>
      </trkpt>
      <trkpt lat="43.96067" lon="6.61081">
        <ele>1436</ele>
      </trkpt>
      <trkpt lat="43.96005" lon="6.61082">
        <ele>1447.5</ele>
      </trkpt>
      <trkpt lat="43.95989" lon="6.61075">
        <ele>1453.5</ele>
      </trkpt>
      <trkpt lat="43.95972" lon="6.61063">
        <ele>1461.4</ele>
      </trkpt>
      <trkpt lat="43.95954" lon="6.61083">
        <ele>1458.6</ele>
      </trkpt>
      <trkpt lat="43.95925" lon="6.61103">
        <ele>1463.4</ele>
      </trkpt>
      <trkpt lat="43.95898" lon="6.61111">
        <ele>1469.4</ele>
      </trkpt>
      <trkpt lat="43.95891" lon="6.61125">
        <ele>1470</ele>
      </trkpt>
      <trkpt lat="43.95915" lon="6.61161">
        <ele>1460.9</ele>
      </trkpt>
      <trkpt lat="43.95927" lon="6.61193">
        <ele>1459.8</ele>
      </trkpt>
      <trkpt lat="43.9594" lon="6.61245">
        <ele>1461.4</ele>
      </trkpt>
      <trkpt lat="43.95928" lon="6.61281">
        <ele>1466.4</ele>
      </trkpt>
      <trkpt lat="43.95913" lon="6.61291">
        <ele>1470.1</ele>
      </trkpt>
      <trkpt lat="43.9587" lon="6.6129">
        <ele>1477.6</ele>
      </trkpt>
      <trkpt lat="43.95862" lon="6.61297">
        <ele>1479.1</ele>
      </trkpt>
      <trkpt lat="43.95849" lon="6.61365">
        <ele>1482.4</ele>
      </trkpt>
      <trkpt lat="43.95839" lon="6.6139">
        <ele>1484.1</ele>
      </trkpt>
      <trkpt lat="43.95827" lon="6.61406">
        <ele>1485</ele>
      </trkpt>
      <trkpt lat="43.9581" lon="6.61418">
        <ele>1485.2</ele>
      </trkpt>
      <trkpt lat="43.95794" lon="6.61419">
        <ele>1485.4</ele>
      </trkpt>
      <trkpt lat="43.95774" lon="6.61419">
        <ele>1485.5</ele>
      </trkpt>
      <trkpt lat="43.95769" lon="6.61419">
        <ele>1485.6</ele>
      </trkpt>
      <trkpt lat="43.9565" lon="6.61421">
        <ele>1489.7</ele>
      </trkpt>
      <trkpt lat="43.95612" lon="6.61431">
        <ele>1489.2</ele>
      </trkpt>
      <trkpt lat="43.95575" lon="6.61439">
        <ele>1486.8</ele>
      </trkpt>
      <trkpt lat="43.95549" lon="6.61425">
        <ele>1484</ele>
      </trkpt>
      <trkpt lat="43.95518" lon="6.61395">
        <ele>1483.9</ele>
      </trkpt>
      <trkpt lat="43.95492" lon="6.6135">
        <ele>1486.9</ele>
      </trkpt>
      <trkpt lat="43.95461" lon="6.61272">
        <ele>1493.4</ele>
      </trkpt>
      <trkpt lat="43.95454" lon="6.61261">
        <ele>1494.4</ele>
      </trkpt>
      <trkpt lat="43.95402" lon="6.61283">
        <ele>1486.7</ele>
      </trkpt>
      <trkpt lat="43.95365" lon="6.61303">
        <ele>1488.2</ele>
      </trkpt>
      <trkpt lat="43.95344" lon="6.61319">
        <ele>1487.8</ele>
      </trkpt>
      <trkpt lat="43.95329" lon="6.61338">
        <ele>1486.2</ele>
      </trkpt>
      <trkpt lat="43.95321" lon="6.61368">
        <ele>1482</ele>
      </trkpt>
      <trkpt lat="43.95305" lon="6.61402">
        <ele>1479</ele>
      </trkpt>
      <trkpt lat="43.95291" lon="6.61423">
        <ele>1478</ele>
      </trkpt>
      <trkpt lat="43.95259" lon="6.61451">
        <ele>1478.1</ele>
      </trkpt>
      <trkpt lat="43.95221" lon="6.61478">
        <ele>1476.3</ele>
      </trkpt>
      <trkpt lat="43.95205" lon="6.61485">
        <ele>1476.8</ele>
      </trkpt>
      <trkpt lat="43.95173" lon="6.61476">
        <ele>1484.1</ele>
      </trkpt>
      <trkpt lat="43.95153" lon="6.61469">
        <ele>1491</ele>
      </trkpt>
      <trkpt lat="43.95145" lon="6.61487">
        <ele>1489.9</ele>
      </trkpt>
      <trkpt lat="43.95161" lon="6.61536">
        <ele>1481.6</ele>
      </trkpt>
      <trkpt lat="43.95199" lon="6.61605">
        <ele>1468.3</ele>
      </trkpt>
      <trkpt lat="43.95231" lon="6.61696">
        <ele>1457.2</ele>
      </trkpt>
      <trkpt lat="43.95248" lon="6.6177">
        <ele>1451.1</ele>
      </trkpt>
      <trkpt lat="43.95247" lon="6.61801">
        <ele>1449</ele>
      </trkpt>
      <trkpt lat="43.95234" lon="6.61853">
        <ele>1445.4</ele>
      </trkpt>
      <trkpt lat="43.95222" lon="6.61913">
        <ele>1436.7</ele>
      </trkpt>
      <trkpt lat="43.95205" lon="6.61949">
        <ele>1433.8</ele>
      </trkpt>
      <trkpt lat="43.95197" lon="6.61977">
        <ele>1430.7</ele>
      </trkpt>
      <trkpt lat="43.95187" lon="6.62002">
        <ele>1428</ele>
      </trkpt>
      <trkpt lat="43.95164" lon="6.62021">
        <ele>1424.6</ele>
      </trkpt>
      <trkpt lat="43.95136" lon="6.62028">
        <ele>1424</ele>
      </trkpt>
      <trkpt lat="43.9511" lon="6.62038">
        <ele>1422.5</ele>
      </trkpt>
      <trkpt lat="43.95085" lon="6.62056">
        <ele>1418.8</ele>
      </trkpt>
      <trkpt lat="43.95078" lon="6.62078">
        <ele>1413.7</ele>
      </trkpt>
      <trkpt lat="43.95073" lon="6.6211">
        <ele>1410</ele>
      </trkpt>
      <trkpt lat="43.95084" lon="6.62131">
        <ele>1405.2</ele>
      </trkpt>
      <trkpt lat="43.95102" lon="6.62193">
        <ele>1395.4</ele>
      </trkpt>
      <trkpt lat="43.9514" lon="6.62288">
        <ele>1386.9</ele>
      </trkpt>
      <trkpt lat="43.95158" lon="6.62326">
        <ele>1387.2</ele>
      </trkpt>
      <trkpt lat="43.9517" lon="6.62343">
        <ele>1389</ele>
      </trkpt>
      <trkpt lat="43.95294" lon="6.62418">
        <ele>1408.1</ele>
      </trkpt>
      <trkpt lat="43.95338" lon="6.6243">
        <ele>1415.6</ele>
      </trkpt>
      <trkpt lat="43.95363" lon="6.62431">
        <ele>1419.2</ele>
      </trkpt>
      <trkpt lat="43.95386" lon="6.62427">
        <ele>1421.1</ele>
      </trkpt>
      <trkpt lat="43.95441" lon="6.62409">
        <ele>1421.8</ele>
      </trkpt>
      <trkpt lat="43.95476" lon="6.6241">
        <ele>1425.4</ele>
      </trkpt>
      <trkpt lat="43.95505" lon="6.62418">
        <ele>1429.9</ele>
      </trkpt>
      <trkpt lat="43.95534" lon="6.62433">
        <ele>1432.3</ele>
      </trkpt>
      <trkpt lat="43.95569" lon="6.62462">
        <ele>1440.1</ele>
      </trkpt>
      <trkpt lat="43.956" lon="6.62512">
        <ele>1453.5</ele>
      </trkpt>
      <trkpt lat="43.95619" lon="6.62535">
        <ele>1455.9</ele>
      </trkpt>
      <trkpt lat="43.95646" lon="6.62554">
        <ele>1455.4</ele>
      </trkpt>
      <trkpt lat="43.95749" lon="6.62643">
        <ele>1463.8</ele>
      </trkpt>
      <trkpt lat="43.95768" lon="6.62655">
        <ele>1464.8</ele>
      </trkpt>
      <trkpt lat="43.95865" lon="6.62719">
        <ele>1464.6</ele>
      </trkpt>
      <trkpt lat="43.95923" lon="6.62827">
        <ele>1472.2</ele>
      </trkpt>
      <trkpt lat="43.95933" lon="6.62843">
        <ele>1468.8</ele>
      </trkpt>
      <trkpt lat="43.95937" lon="6.6286">
        <ele>1467.7</ele>
      </trkpt>
      <trkpt lat="43.95935" lon="6.6288">
        <ele>1469.7</ele>
      </trkpt>
      <trkpt lat="43.9593" lon="6.62898">
        <ele>1472.8</ele>
      </trkpt>
      <trkpt lat="43.95914" lon="6.62922">
        <ele>1479.3</ele>
      </trkpt>
      <trkpt lat="43.95901" lon="6.62944">
        <ele>1479.7</ele>
      </trkpt>
      <trkpt lat="43.95877" lon="6.62956">
        <ele>1480.4</ele>
      </trkpt>
      <trkpt lat="43.95867" lon="6.62961">
        <ele>1480.3</ele>
      </trkpt>
      <trkpt lat="43.95877" lon="6.62956">
        <ele>1480.4</ele>
      </trkpt>
      <trkpt lat="43.95901" lon="6.62944">
        <ele>1479.7</ele>
      </trkpt>
      <trkpt lat="43.9589" lon="6.62974">
        <ele>1478</ele>
      </trkpt>
      <trkpt lat="43.95869" lon="6.6299">
        <ele>1476.1</ele>
      </trkpt>
      <trkpt lat="43.95845" lon="6.63024">
        <ele>1477.1</ele>
      </trkpt>
      <trkpt lat="43.95816" lon="6.63071">
        <ele>1476.5</ele>
      </trkpt>
      <trkpt lat="43.95775" lon="6.63127">
        <ele>1472</ele>
      </trkpt>
      <trkpt lat="43.95746" lon="6.63163">
        <ele>1467</ele>
      </trkpt>
      <trkpt lat="43.95732" lon="6.63202">
        <ele>1464.2</ele>
      </trkpt>
      <trkpt lat="43.95725" lon="6.63235">
        <ele>1463.3</ele>
      </trkpt>
      <trkpt lat="43.95728" lon="6.63272">
        <ele>1462.9</ele>
      </trkpt>
      <trkpt lat="43.95738" lon="6.63326">
        <ele>1461</ele>
      </trkpt>
      <trkpt lat="43.95749" lon="6.63343">
        <ele>1462</ele>
      </trkpt>
      <trkpt lat="43.95775" lon="6.63399">
        <ele>1461</ele>
      </trkpt>
      <trkpt lat="43.95809" lon="6.63479">
        <ele>1455.3</ele>
      </trkpt>
      <trkpt lat="43.95883" lon="6.63621">
        <ele>1449.3</ele>
      </trkpt>
      <trkpt lat="43.95893" lon="6.63657">
        <ele>1445.2</ele>
      </trkpt>
      <trkpt lat="43.95893" lon="6.6373">
        <ele>1427.2</ele>
      </trkpt>
      <trkpt lat="43.95908" lon="6.6379">
        <ele>1418.2</ele>
      </trkpt>
      <trkpt lat="43.95946" lon="6.63817">
        <ele>1417.7</ele>
      </trkpt>
      <trkpt lat="43.95993" lon="6.6383">
        <ele>1418.6</ele>
      </trkpt>
      <trkpt lat="43.96003" lon="6.63833">
        <ele>1417.9</ele>
      </trkpt>
      <trkpt lat="43.96037" lon="6.63844">
        <ele>1410.6</ele>
      </trkpt>
      <trkpt lat="43.96059" lon="6.63847">
        <ele>1407.8</ele>
      </trkpt>
      <trkpt lat="43.96129" lon="6.6384">
        <ele>1402.5</ele>
      </trkpt>
      <trkpt lat="43.96181" lon="6.6384">
        <ele>1396.5</ele>
      </trkpt>
      <trkpt lat="43.96235" lon="6.63856">
        <ele>1387.3</ele>
      </trkpt>
      <trkpt lat="43.96295" lon="6.63853">
        <ele>1381.4</ele>
      </trkpt>
      <trkpt lat="43.96335" lon="6.63844">
        <ele>1378.9</ele>
      </trkpt>
      <trkpt lat="43.96366" lon="6.63863">
        <ele>1372.5</ele>
      </trkpt>
      <trkpt lat="43.96465" lon="6.63894">
        <ele>1358.4</ele>
      </trkpt>
      <trkpt lat="43.96505" lon="6.63901">
        <ele>1353.8</ele>
      </trkpt>
      <trkpt lat="43.96563" lon="6.63884">
        <ele>1347.7</ele>
      </trkpt>
      <trkpt lat="43.96564" lon="6.63884">
        <ele>1347.5</ele>
      </trkpt>
      <trkpt lat="43.96605" lon="6.63846">
        <ele>1346.8</ele>
      </trkpt>
      <trkpt lat="43.96634" lon="6.63835">
        <ele>1341.6</ele>
      </trkpt>
      <trkpt lat="43.96679" lon="6.63824">
        <ele>1332.3</ele>
      </trkpt>
      <trkpt lat="43.96762" lon="6.63755">
        <ele>1328.6</ele>
      </trkpt>
      <trkpt lat="43.96797" lon="6.63752">
        <ele>1321.1</ele>
      </trkpt>
      <trkpt lat="43.96852" lon="6.63733">
        <ele>1312.7</ele>
      </trkpt>
      <trkpt lat="43.96909" lon="6.63699">
        <ele>1306.5</ele>
      </trkpt>
      <trkpt lat="43.96953" lon="6.6369">
        <ele>1299.5</ele>
      </trkpt>
      <trkpt lat="43.97115" lon="6.63606">
        <ele>1288.5</ele>
      </trkpt>
      <trkpt lat="43.97155" lon="6.63563">
        <ele>1289.2</ele>
      </trkpt>
      <trkpt lat="43.9724" lon="6.63538">
        <ele>1279.7</ele>
      </trkpt>
      <trkpt lat="43.97301" lon="6.63531">
        <ele>1271.5</ele>
      </trkpt>
      <trkpt lat="43.97317" lon="6.63529">
        <ele>1269.4</ele>
      </trkpt>
      <trkpt lat="43.97341" lon="6.63524">
        <ele>1266.5</ele>
      </trkpt>
      <trkpt lat="43.97374" lon="6.63516">
        <ele>1262.7</ele>
      </trkpt>
      <trkpt lat="43.97357" lon="6.63537">
        <ele>1259.7</ele>
      </trkpt>
      <trkpt lat="43.97373" lon="6.63548">
        <ele>1253</ele>
      </trkpt>
      <trkpt lat="43.97405" lon="6.63548">
        <ele>1245.8</ele>
      </trkpt>
      <trkpt lat="43.97484" lon="6.63524">
        <ele>1237.3</ele>
      </trkpt>
      <trkpt lat="43.97486" lon="6.63528">
        <ele>1235.3</ele>
      </trkpt>
      <trkpt lat="43.97479" lon="6.63537">
        <ele>1233.4</ele>
      </trkpt>
      <trkpt lat="43.97527" lon="6.6355">
        <ele>1219.1</ele>
      </trkpt>
      <trkpt lat="43.97467" lon="6.63588">
        <ele>1216.7</ele>
      </trkpt>
      <trkpt lat="43.97408" lon="6.6365">
        <ele>1205.2</ele>
      </trkpt>
      <trkpt lat="43.97386" lon="6.63662">
        <ele>1206.4</ele>
      </trkpt>
      <trkpt lat="43.97309" lon="6.63753">
        <ele>1189.4</ele>
      </trkpt>
      <trkpt lat="43.9729" lon="6.63762">
        <ele>1189.8</ele>
      </trkpt>
      <trkpt lat="43.97263" lon="6.63768">
        <ele>1192.8</ele>
      </trkpt>
      <trkpt lat="43.97244" lon="6.63819">
        <ele>1180.9</ele>
      </trkpt>
      <trkpt lat="43.97187" lon="6.63922">
        <ele>1160.3</ele>
      </trkpt>
      <trkpt lat="43.97163" lon="6.63941">
        <ele>1160.4</ele>
      </trkpt>
      <trkpt lat="43.97164" lon="6.63947">
        <ele>1158.6</ele>
      </trkpt>
      <trkpt lat="43.97165" lon="6.63953">
        <ele>1156.8</ele>
      </trkpt>
      <trkpt lat="43.97167" lon="6.63954">
        <ele>1156.1</ele>
      </trkpt>
      <trkpt lat="43.97172" lon="6.63957">
        <ele>1154.5</ele>
      </trkpt>
      <trkpt lat="43.97212" lon="6.63918">
        <ele>1155.9</ele>
      </trkpt>
      <trkpt lat="43.97237" lon="6.63899">
        <ele>1156.7</ele>
      </trkpt>
      <trkpt lat="43.97262" lon="6.63869">
        <ele>1160.8</ele>
      </trkpt>
      <trkpt lat="43.9728" lon="6.63838">
        <ele>1166.9</ele>
      </trkpt>
      <trkpt lat="43.97327" lon="6.6385">
        <ele>1154.8</ele>
      </trkpt>
      <trkpt lat="43.97387" lon="6.63854">
        <ele>1147.9</ele>
      </trkpt>
      <trkpt lat="43.97424" lon="6.63829">
        <ele>1149.3</ele>
      </trkpt>
      <trkpt lat="43.97492" lon="6.6384">
        <ele>1139.4</ele>
      </trkpt>
      <trkpt lat="43.97565" lon="6.63831">
        <ele>1131.8</ele>
      </trkpt>
      <trkpt lat="43.97566" lon="6.63831">
        <ele>1131.7</ele>
      </trkpt>
      <trkpt lat="43.97589" lon="6.63783">
        <ele>1135.7</ele>
      </trkpt>
      <trkpt lat="43.97618" lon="6.63745">
        <ele>1130.8</ele>
      </trkpt>
      <trkpt lat="43.97663" lon="6.63678">
        <ele>1129.5</ele>
      </trkpt>
      <trkpt lat="43.97694" lon="6.6364">
        <ele>1126.1</ele>
      </trkpt>
      <trkpt lat="43.97739" lon="6.63599">
        <ele>1122.3</ele>
      </trkpt>
      <trkpt lat="43.97787" lon="6.63577">
        <ele>1117.2</ele>
      </trkpt>
      <trkpt lat="43.97811" lon="6.63573">
        <ele>1112.1</ele>
      </trkpt>
      <trkpt lat="43.97849" lon="6.63582">
        <ele>1101.8</ele>
      </trkpt>
      <trkpt lat="43.97918" lon="6.63586">
        <ele>1101.5</ele>
      </trkpt>
      <trkpt lat="43.97956" lon="6.6362">
        <ele>1101</ele>
      </trkpt>
      <trkpt lat="43.97979" lon="6.63691">
        <ele>1086.6</ele>
      </trkpt>
      <trkpt lat="43.97996" lon="6.63716">
        <ele>1086.7</ele>
      </trkpt>
      <trkpt lat="43.98016" lon="6.63738">
        <ele>1085.7</ele>
      </trkpt>
      <trkpt lat="43.98024" lon="6.6377">
        <ele>1079</ele>
      </trkpt>
      <trkpt lat="43.97997" lon="6.63789">
        <ele>1070.8</ele>
      </trkpt>
      <trkpt lat="43.97973" lon="6.63801">
        <ele>1061.8</ele>
      </trkpt>
      <trkpt lat="43.97923" lon="6.637">
        <ele>1067.4</ele>
      </trkpt>
      <trkpt lat="43.97876" lon="6.63711">
        <ele>1058</ele>
      </trkpt>
      <trkpt lat="43.97846" lon="6.63724">
        <ele>1051.4</ele>
      </trkpt>
      <trkpt lat="43.97806" lon="6.63758">
        <ele>1049.7</ele>
      </trkpt>
      <trkpt lat="43.97781" lon="6.63811">
        <ele>1044.6</ele>
      </trkpt>
      <trkpt lat="43.97779" lon="6.63872">
        <ele>1037.6</ele>
      </trkpt>
      <trkpt lat="43.97806" lon="6.63903">
        <ele>1029.2</ele>
      </trkpt>
      <trkpt lat="43.97834" lon="6.6391">
        <ele>1021.8</ele>
      </trkpt>
      <trkpt lat="43.97845" lon="6.63912">
        <ele>1021.4</ele>
      </trkpt>
      <trkpt lat="43.97876" lon="6.63917">
        <ele>1019.9</ele>
      </trkpt>
      <trkpt lat="43.97908" lon="6.63933">
        <ele>1014.6</ele>
      </trkpt>
      <trkpt lat="43.97921" lon="6.63945">
        <ele>1011.4</ele>
      </trkpt>
      <trkpt lat="43.97914" lon="6.63953">
        <ele>1008.7</ele>
      </trkpt>
      <trkpt lat="43.97859" lon="6.63971">
        <ele>1007</ele>
      </trkpt>
      <trkpt lat="43.97836" lon="6.63983">
        <ele>1005.7</ele>
      </trkpt>
      <trkpt lat="43.97825" lon="6.64039">
        <ele>995.1</ele>
      </trkpt>
      <trkpt lat="43.97815" lon="6.64053">
        <ele>994.7</ele>
      </trkpt>
      <trkpt lat="43.97782" lon="6.64054">
        <ele>1004.3</ele>
      </trkpt>
      <trkpt lat="43.97772" lon="6.64113">
        <ele>993.3</ele>
      </trkpt>
      <trkpt lat="43.97767" lon="6.64163">
        <ele>983.9</ele>
      </trkpt>
      <trkpt lat="43.97721" lon="6.64318">
        <ele>952.8</ele>
      </trkpt>
      <trkpt lat="43.97712" lon="6.64324">
        <ele>952</ele>
      </trkpt>
      <trkpt lat="43.97704" lon="6.64324">
        <ele>952.8</ele>
      </trkpt>
      <trkpt lat="43.97696" lon="6.64326">
        <ele>952.9</ele>
      </trkpt>
      <trkpt lat="43.97662" lon="6.6433">
        <ele>955.4</ele>
      </trkpt>
      <trkpt lat="43.97652" lon="6.64331">
        <ele>957.5</ele>
      </trkpt>
      <trkpt lat="43.97645" lon="6.64338">
        <ele>957.5</ele>
      </trkpt>
      <trkpt lat="43.9764" lon="6.64357">
        <ele>955</ele>
      </trkpt>
      <trkpt lat="43.97639" lon="6.64387">
        <ele>949.2</ele>
      </trkpt>
      <trkpt lat="43.97613" lon="6.6444">
        <ele>943.9</ele>
      </trkpt>
      <trkpt lat="43.97583" lon="6.64486">
        <ele>936.4</ele>
      </trkpt>
      <trkpt lat="43.97536" lon="6.64524">
        <ele>930</ele>
      </trkpt>
      <trkpt lat="43.97492" lon="6.64556">
        <ele>923</ele>
      </trkpt>
      <trkpt lat="43.97469" lon="6.64559">
        <ele>920.7</ele>
      </trkpt>
      <trkpt lat="43.97427" lon="6.64543">
        <ele>922.3</ele>
      </trkpt>
      <trkpt lat="43.9736" lon="6.64526">
        <ele>922.3</ele>
      </trkpt>
      <trkpt lat="43.97328" lon="6.64525">
        <ele>921.4</ele>
      </trkpt>
      <trkpt lat="43.97313" lon="6.64564">
        <ele>911.8</ele>
      </trkpt>
      <trkpt lat="43.97303" lon="6.64581">
        <ele>908</ele>
      </trkpt>
      <trkpt lat="43.97299" lon="6.64589">
        <ele>906.6</ele>
      </trkpt>
      <trkpt lat="43.97262" lon="6.64595">
        <ele>909.4</ele>
      </trkpt>
      <trkpt lat="43.97248" lon="6.64606">
        <ele>908.7</ele>
      </trkpt>
      <trkpt lat="43.97218" lon="6.64629">
        <ele>908.1</ele>
      </trkpt>
      <trkpt lat="43.97211" lon="6.64632">
        <ele>908.4</ele>
      </trkpt>
      <trkpt lat="43.97161" lon="6.64661">
        <ele>909.4</ele>
      </trkpt>
      <trkpt lat="43.97144" lon="6.64667">
        <ele>911.8</ele>
      </trkpt>
      <trkpt lat="43.97125" lon="6.6468">
        <ele>913.7</ele>
      </trkpt>
      <trkpt lat="43.97106" lon="6.6469">
        <ele>915.6</ele>
      </trkpt>
      <trkpt lat="43.97066" lon="6.64696">
        <ele>921.7</ele>
      </trkpt>
      <trkpt lat="43.97023" lon="6.64735">
        <ele>922.6</ele>
      </trkpt>
      <trkpt lat="43.97007" lon="6.64763">
        <ele>921.8</ele>
      </trkpt>
      <trkpt lat="43.96995" lon="6.64791">
        <ele>920.3</ele>
      </trkpt>
      <trkpt lat="43.96981" lon="6.64816">
        <ele>918.5</ele>
      </trkpt>
      <trkpt lat="43.96943" lon="6.64832">
        <ele>919.7</ele>
      </trkpt>
      <trkpt lat="43.96931" lon="6.6483">
        <ele>921.3</ele>
      </trkpt>
      <trkpt lat="43.96921" lon="6.6482">
        <ele>924.6</ele>
      </trkpt>
      <trkpt lat="43.96916" lon="6.6481">
        <ele>927.4</ele>
      </trkpt>
      <trkpt lat="43.96907" lon="6.64807">
        <ele>929</ele>
      </trkpt>
      <trkpt lat="43.96896" lon="6.64813">
        <ele>928.8</ele>
      </trkpt>
      <trkpt lat="43.96893" lon="6.64848">
        <ele>923.5</ele>
      </trkpt>
      <trkpt lat="43.96887" lon="6.64855">
        <ele>923.6</ele>
      </trkpt>
      <trkpt lat="43.96885" lon="6.64857">
        <ele>923.6</ele>
      </trkpt>
      <trkpt lat="43.96872" lon="6.6486">
        <ele>924.8</ele>
      </trkpt>
      <trkpt lat="43.96758" lon="6.64864">
        <ele>936.1</ele>
      </trkpt>
      <trkpt lat="43.96725" lon="6.64872">
        <ele>938.2</ele>
      </trkpt>
      <trkpt lat="43.96687" lon="6.6489">
        <ele>939.3</ele>
      </trkpt>
      <trkpt lat="43.96663" lon="6.64904">
        <ele>939.5</ele>
      </trkpt>
      <trkpt lat="43.9664" lon="6.64921">
        <ele>939.1</ele>
      </trkpt>
      <trkpt lat="43.96616" lon="6.64949">
        <ele>938</ele>
      </trkpt>
      <trkpt lat="43.9657" lon="6.64988">
        <ele>934.8</ele>
      </trkpt>
      <trkpt lat="43.96545" lon="6.65002">
        <ele>932.6</ele>
      </trkpt>
      <trkpt lat="43.96504" lon="6.65014">
        <ele>929.8</ele>
      </trkpt>
      <trkpt lat="43.96493" lon="6.65021">
        <ele>929.1</ele>
      </trkpt>
      <trkpt lat="43.96475" lon="6.65027">
        <ele>930.1</ele>
      </trkpt>
      <trkpt lat="43.96467" lon="6.65029">
        <ele>930.8</ele>
      </trkpt>
      <trkpt lat="43.9646" lon="6.65026">
        <ele>932.3</ele>
      </trkpt>
      <trkpt lat="43.96438" lon="6.64999">
        <ele>940.6</ele>
      </trkpt>
      <trkpt lat="43.96421" lon="6.64994">
        <ele>943.6</ele>
      </trkpt>
      <trkpt lat="43.96412" lon="6.64997">
        <ele>944.8</ele>
      </trkpt>
      <trkpt lat="43.96386" lon="6.65074">
        <ele>935.6</ele>
      </trkpt>
      <trkpt lat="43.96375" lon="6.65101">
        <ele>931.3</ele>
      </trkpt>
      <trkpt lat="43.96361" lon="6.65116">
        <ele>930</ele>
      </trkpt>
      <trkpt lat="43.96301" lon="6.65136">
        <ele>934.2</ele>
      </trkpt>
      <trkpt lat="43.96275" lon="6.65153">
        <ele>933.2</ele>
      </trkpt>
      <trkpt lat="43.96262" lon="6.6517">
        <ele>930.7</ele>
      </trkpt>
      <trkpt lat="43.96255" lon="6.6518">
        <ele>930.5</ele>
      </trkpt>
      <trkpt lat="43.96238" lon="6.6521">
        <ele>928.1</ele>
      </trkpt>
      <trkpt lat="43.96228" lon="6.65224">
        <ele>926.9</ele>
      </trkpt>
      <trkpt lat="43.96158" lon="6.65282">
        <ele>922.6</ele>
      </trkpt>
      <trkpt lat="43.96146" lon="6.65287">
        <ele>921.2</ele>
      </trkpt>
      <trkpt lat="43.96068" lon="6.65267">
        <ele>919.6</ele>
      </trkpt>
      <trkpt lat="43.9604" lon="6.65266">
        <ele>916.6</ele>
      </trkpt>
      <trkpt lat="43.95965" lon="6.6525">
        <ele>911.8</ele>
      </trkpt>
      <trkpt lat="43.95916" lon="6.65247">
        <ele>906.6</ele>
      </trkpt>
      <trkpt lat="43.95888" lon="6.65242">
        <ele>905.4</ele>
      </trkpt>
      <trkpt lat="43.95879" lon="6.65244">
        <ele>904.3</ele>
      </trkpt>
      <trkpt lat="43.95878" lon="6.65246">
        <ele>903.9</ele>
      </trkpt>
      <trkpt lat="43.95876" lon="6.65249">
        <ele>903.2</ele>
      </trkpt>
      <trkpt lat="43.95876" lon="6.65257">
        <ele>901.8</ele>
      </trkpt>
      <trkpt lat="43.95879" lon="6.65267">
        <ele>900.1</ele>
      </trkpt>
      <trkpt lat="43.95893" lon="6.65281">
        <ele>898.3</ele>
      </trkpt>
      <trkpt lat="43.95948" lon="6.65312">
        <ele>896</ele>
      </trkpt>
      <trkpt lat="43.96018" lon="6.65358">
        <ele>891.6</ele>
      </trkpt>
      <trkpt lat="43.96037" lon="6.65376">
        <ele>889.5</ele>
      </trkpt>
      <trkpt lat="43.96037" lon="6.65389">
        <ele>886.2</ele>
      </trkpt>
      <trkpt lat="43.96032" lon="6.65393">
        <ele>884.6</ele>
      </trkpt>
      <trkpt lat="43.96026" lon="6.65394">
        <ele>883.8</ele>
      </trkpt>
      <trkpt lat="43.9599" lon="6.65387">
        <ele>882.2</ele>
      </trkpt>
      <trkpt lat="43.95975" lon="6.65388">
        <ele>881.1</ele>
      </trkpt>
      <trkpt lat="43.95967" lon="6.65395">
        <ele>879.2</ele>
      </trkpt>
      <trkpt lat="43.95961" lon="6.65403">
        <ele>877.1</ele>
      </trkpt>
      <trkpt lat="43.95943" lon="6.65442">
        <ele>868.8</ele>
      </trkpt>
      <trkpt lat="43.95939" lon="6.65446">
        <ele>867.8</ele>
      </trkpt>
      <trkpt lat="43.95928" lon="6.65448">
        <ele>866.7</ele>
      </trkpt>
      <trkpt lat="43.95877" lon="6.65434">
        <ele>869.5</ele>
      </trkpt>
      <trkpt lat="43.95848" lon="6.65414">
        <ele>872.5</ele>
      </trkpt>
      <trkpt lat="43.95838" lon="6.65409">
        <ele>873.3</ele>
      </trkpt>
      <trkpt lat="43.9583" lon="6.65408">
        <ele>874.5</ele>
      </trkpt>
      <trkpt lat="43.95823" lon="6.65409">
        <ele>876.5</ele>
      </trkpt>
      <trkpt lat="43.9582" lon="6.65412">
        <ele>877</ele>
      </trkpt>
      <trkpt lat="43.95819" lon="6.65423">
        <ele>875.8</ele>
      </trkpt>
      <trkpt lat="43.95821" lon="6.65433">
        <ele>874.2</ele>
      </trkpt>
      <trkpt lat="43.95822" lon="6.65437">
        <ele>873.5</ele>
      </trkpt>
      <trkpt lat="43.95842" lon="6.65488">
        <ele>864.4</ele>
      </trkpt>
      <trkpt lat="43.95888" lon="6.65585">
        <ele>846.6</ele>
      </trkpt>
      <trkpt lat="43.95908" lon="6.65592">
        <ele>841.7</ele>
      </trkpt>
      <trkpt lat="43.95942" lon="6.65672">
        <ele>829.7</ele>
      </trkpt>
      <trkpt lat="43.95998" lon="6.6575">
        <ele>813.2</ele>
      </trkpt>
      <trkpt lat="43.96008" lon="6.65764">
        <ele>810.8</ele>
      </trkpt>
      <trkpt lat="43.96082" lon="6.6581">
        <ele>796.6</ele>
      </trkpt>
      <trkpt lat="43.96118" lon="6.6585">
        <ele>789.8</ele>
      </trkpt>
      <trkpt lat="43.96103" lon="6.65857">
        <ele>791.6</ele>
      </trkpt>
      <trkpt lat="43.9608" lon="6.65875">
        <ele>794</ele>
      </trkpt>
      <trkpt lat="43.9608" lon="6.65875">
        <ele>794</ele>
      </trkpt>
      <trkpt lat="43.96103" lon="6.65857">
        <ele>791.6</ele>
      </trkpt>
      <trkpt lat="43.96118" lon="6.6585">
        <ele>789.8</ele>
      </trkpt>
      <trkpt lat="43.9613" lon="6.65856">
        <ele>788</ele>
      </trkpt>
      <trkpt lat="43.96151" lon="6.65913">
        <ele>783.2</ele>
      </trkpt>
      <trkpt lat="43.96201" lon="6.6599">
        <ele>772.4</ele>
      </trkpt>
      <trkpt lat="43.96205" lon="6.66005">
        <ele>771.2</ele>
      </trkpt>
      <trkpt lat="43.96205" lon="6.66055">
        <ele>769.1</ele>
      </trkpt>
      <trkpt lat="43.96231" lon="6.66116">
        <ele>760.7</ele>
      </trkpt>
      <trkpt lat="43.96274" lon="6.66204">
        <ele>743.7</ele>
      </trkpt>
      <trkpt lat="43.96286" lon="6.66244">
        <ele>737.7</ele>
      </trkpt>
      <trkpt lat="43.96295" lon="6.66275">
        <ele>734.1</ele>
      </trkpt>
      <trkpt lat="43.96298" lon="6.66284">
        <ele>733.1</ele>
      </trkpt>
      <trkpt lat="43.96335" lon="6.66343">
        <ele>725</ele>
      </trkpt>
      <trkpt lat="43.96348" lon="6.66366">
        <ele>721.6</ele>
      </trkpt>
      <trkpt lat="43.96353" lon="6.66382">
        <ele>719.8</ele>
      </trkpt>
      <trkpt lat="43.96359" lon="6.66409">
        <ele>717.1</ele>
      </trkpt>
      <trkpt lat="43.96369" lon="6.66435">
        <ele>714</ele>
      </trkpt>
      <trkpt lat="43.96383" lon="6.66461">
        <ele>710.5</ele>
      </trkpt>
      <trkpt lat="43.96387" lon="6.66466">
        <ele>709.7</ele>
      </trkpt>
      <trkpt lat="43.96405" lon="6.66483">
        <ele>706.5</ele>
      </trkpt>
      <trkpt lat="43.96431" lon="6.66504">
        <ele>703.4</ele>
      </trkpt>
      <trkpt lat="43.9645" lon="6.66521">
        <ele>702.1</ele>
      </trkpt>
      <trkpt lat="43.96468" lon="6.66541">
        <ele>700.6</ele>
      </trkpt>
      <trkpt lat="43.96473" lon="6.66545">
        <ele>700.2</ele>
      </trkpt>
      <trkpt lat="43.96489" lon="6.66557">
        <ele>698.8</ele>
      </trkpt>
      <trkpt lat="43.96503" lon="6.66576">
        <ele>697.2</ele>
      </trkpt>
      <trkpt lat="43.96508" lon="6.66584">
        <ele>696.5</ele>
      </trkpt>
      <trkpt lat="43.96518" lon="6.66602">
        <ele>695.6</ele>
      </trkpt>
      <trkpt lat="43.96528" lon="6.66625">
        <ele>694.7</ele>
      </trkpt>
      <trkpt lat="43.96534" lon="6.66656">
        <ele>693.9</ele>
      </trkpt>
      <trkpt lat="43.96532" lon="6.66675">
        <ele>693.6</ele>
      </trkpt>
      <trkpt lat="43.96557" lon="6.66716">
        <ele>692.2</ele>
      </trkpt>
      <trkpt lat="43.96564" lon="6.6673">
        <ele>692</ele>
      </trkpt>
      <trkpt lat="43.96573" lon="6.66745">
        <ele>691.9</ele>
      </trkpt>
      <trkpt lat="43.96582" lon="6.66761">
        <ele>691.8</ele>
      </trkpt>
      <trkpt lat="43.96595" lon="6.66749">
        <ele>693.1</ele>
      </trkpt>
      <trkpt lat="43.96582" lon="6.66761">
        <ele>691.8</ele>
      </trkpt>
      <trkpt lat="43.96573" lon="6.6677">
        <ele>691.6</ele>
      </trkpt>
      <trkpt lat="43.96534" lon="6.66809">
        <ele>690.3</ele>
      </trkpt>
      <trkpt lat="43.9652" lon="6.66823">
        <ele>689.7</ele>
      </trkpt>
      <trkpt lat="43.96491" lon="6.66852">
        <ele>690</ele>
      </trkpt>
      <trkpt lat="43.96484" lon="6.66861">
        <ele>690.4</ele>
      </trkpt>
      <trkpt lat="43.96469" lon="6.66881">
        <ele>691.1</ele>
      </trkpt>
      <trkpt lat="43.96464" lon="6.66885">
        <ele>691.2</ele>
      </trkpt>
      <trkpt lat="43.96427" lon="6.66921">
        <ele>690.8</ele>
      </trkpt>
      <trkpt lat="43.96411" lon="6.66936">
        <ele>690</ele>
      </trkpt>
      <trkpt lat="43.96357" lon="6.66989">
        <ele>686.3</ele>
      </trkpt>
      <trkpt lat="43.96316" lon="6.67031">
        <ele>685.6</ele>
      </trkpt>
      <trkpt lat="43.96312" lon="6.67035">
        <ele>685.7</ele>
      </trkpt>
      <trkpt lat="43.96304" lon="6.67041">
        <ele>685.6</ele>
      </trkpt>
      <trkpt lat="43.96292" lon="6.67048">
        <ele>685.5</ele>
      </trkpt>
      <trkpt lat="43.96272" lon="6.6705">
        <ele>685.2</ele>
      </trkpt>
      <trkpt lat="43.96241" lon="6.67049">
        <ele>685.1</ele>
      </trkpt>
      <trkpt lat="43.96205" lon="6.67048">
        <ele>686.5</ele>
      </trkpt>
      <trkpt lat="43.96193" lon="6.67048">
        <ele>686.9</ele>
      </trkpt>
      <trkpt lat="43.96167" lon="6.67053">
        <ele>687.3</ele>
      </trkpt>
      <trkpt lat="43.96149" lon="6.67069">
        <ele>688</ele>
      </trkpt>
      <trkpt lat="43.96097" lon="6.67132">
        <ele>687.1</ele>
      </trkpt>
      <trkpt lat="43.96082" lon="6.67154">
        <ele>685.7</ele>
      </trkpt>
      <trkpt lat="43.96069" lon="6.67183">
        <ele>685.6</ele>
      </trkpt>
      <trkpt lat="43.96066" lon="6.67197">
        <ele>685</ele>
      </trkpt>
      <trkpt lat="43.96064" lon="6.67231">
        <ele>682.3</ele>
      </trkpt>
      <trkpt lat="43.96062" lon="6.67257">
        <ele>681</ele>
      </trkpt>
      <trkpt lat="43.96057" lon="6.6728">
        <ele>681.7</ele>
      </trkpt>
      <trkpt lat="43.96046" lon="6.67301">
        <ele>681.7</ele>
      </trkpt>
      <trkpt lat="43.96034" lon="6.67321">
        <ele>680.7</ele>
      </trkpt>
      <trkpt lat="43.96014" lon="6.67338">
        <ele>678.6</ele>
      </trkpt>
      <trkpt lat="43.95995" lon="6.67357">
        <ele>678</ele>
      </trkpt>
      <trkpt lat="43.95982" lon="6.67374">
        <ele>679</ele>
      </trkpt>
      <trkpt lat="43.95966" lon="6.67409">
        <ele>678.5</ele>
      </trkpt>
      <trkpt lat="43.95924" lon="6.67499">
        <ele>677</ele>
      </trkpt>
      <trkpt lat="43.9591" lon="6.67518">
        <ele>678.9</ele>
      </trkpt>
      <trkpt lat="43.95888" lon="6.67531">
        <ele>679.8</ele>
      </trkpt>
      <trkpt lat="43.95848" lon="6.67544">
        <ele>678.1</ele>
      </trkpt>
      <trkpt lat="43.95826" lon="6.67565">
        <ele>676.8</ele>
      </trkpt>
      <trkpt lat="43.9581" lon="6.67597">
        <ele>677.5</ele>
      </trkpt>
      <trkpt lat="43.9575" lon="6.67748">
        <ele>672.9</ele>
      </trkpt>
      <trkpt lat="43.95734" lon="6.6777">
        <ele>674.2</ele>
      </trkpt>
      <trkpt lat="43.95704" lon="6.6779">
        <ele>672.9</ele>
      </trkpt>
      <trkpt lat="43.95683" lon="6.67816">
        <ele>669.8</ele>
      </trkpt>
      <trkpt lat="43.95656" lon="6.67889">
        <ele>669.9</ele>
      </trkpt>
      <trkpt lat="43.95626" lon="6.67988">
        <ele>672.4</ele>
      </trkpt>
      <trkpt lat="43.95617" lon="6.6803">
        <ele>670.7</ele>
      </trkpt>
      <trkpt lat="43.95615" lon="6.6809">
        <ele>669.1</ele>
      </trkpt>
      <trkpt lat="43.95589" lon="6.68209">
        <ele>663.6</ele>
      </trkpt>
      <trkpt lat="43.95584" lon="6.68252">
        <ele>663.1</ele>
      </trkpt>
      <trkpt lat="43.95588" lon="6.6829">
        <ele>662.9</ele>
      </trkpt>
      <trkpt lat="43.95609" lon="6.68372">
        <ele>663.9</ele>
      </trkpt>
      <trkpt lat="43.95615" lon="6.68416">
        <ele>662.3</ele>
      </trkpt>
      <trkpt lat="43.95614" lon="6.68458">
        <ele>661.7</ele>
      </trkpt>
      <trkpt lat="43.95608" lon="6.68575">
        <ele>660.8</ele>
      </trkpt>
      <trkpt lat="43.95606" lon="6.68591">
        <ele>660.6</ele>
      </trkpt>
      <trkpt lat="43.95602" lon="6.68602">
        <ele>660.2</ele>
      </trkpt>
      <trkpt lat="43.95585" lon="6.68645">
        <ele>658.7</ele>
      </trkpt>
      <trkpt lat="43.95583" lon="6.6865">
        <ele>658.7</ele>
      </trkpt>
      <trkpt lat="43.95583" lon="6.68655">
        <ele>658.8</ele>
      </trkpt>
      <trkpt lat="43.95583" lon="6.68687">
        <ele>660.3</ele>
      </trkpt>
      <trkpt lat="43.95583" lon="6.68727">
        <ele>662.7</ele>
      </trkpt>
      <trkpt lat="43.95585" lon="6.68744">
        <ele>663.8</ele>
      </trkpt>
      <trkpt lat="43.95593" lon="6.68766">
        <ele>665.4</ele>
      </trkpt>
      <trkpt lat="43.9561" lon="6.68795">
        <ele>666.9</ele>
      </trkpt>
      <trkpt lat="43.95659" lon="6.68882">
        <ele>663.5</ele>
      </trkpt>
      <trkpt lat="43.9576" lon="6.69115">
        <ele>662</ele>
      </trkpt>
      <trkpt lat="43.95766" lon="6.69137">
        <ele>659.5</ele>
      </trkpt>
      <trkpt lat="43.95768" lon="6.6915">
        <ele>657.6</ele>
      </trkpt>
      <trkpt lat="43.95776" lon="6.69242">
        <ele>652.5</ele>
      </trkpt>
      <trkpt lat="43.95784" lon="6.69284">
        <ele>650.9</ele>
      </trkpt>
      <trkpt lat="43.95827" lon="6.69449">
        <ele>638.9</ele>
      </trkpt>
      <trkpt lat="43.95831" lon="6.69471">
        <ele>637.2</ele>
      </trkpt>
      <trkpt lat="43.95831" lon="6.69488">
        <ele>635</ele>
      </trkpt>
      <trkpt lat="43.9583" lon="6.69502">
        <ele>633.2</ele>
      </trkpt>
      <trkpt lat="43.95825" lon="6.69526">
        <ele>632.3</ele>
      </trkpt>
      <trkpt lat="43.95808" lon="6.69577">
        <ele>630.4</ele>
      </trkpt>
      <trkpt lat="43.95807" lon="6.69583">
        <ele>630.5</ele>
      </trkpt>
      <trkpt lat="43.95777" lon="6.69668">
        <ele>632</ele>
      </trkpt>
      <trkpt lat="43.95765" lon="6.69713">
        <ele>630.4</ele>
      </trkpt>
      <trkpt lat="43.95756" lon="6.69776">
        <ele>624.9</ele>
      </trkpt>
      <trkpt lat="43.95752" lon="6.69808">
        <ele>620.6</ele>
      </trkpt>
      <trkpt lat="43.95762" lon="6.69811">
        <ele>623.1</ele>
      </trkpt>
      <trkpt lat="43.95785" lon="6.6982">
        <ele>629.6</ele>
      </trkpt>
      <trkpt lat="43.95792" lon="6.6983">
        <ele>632</ele>
      </trkpt>
      <trkpt lat="43.95792" lon="6.69848">
        <ele>631.8</ele>
      </trkpt>
      <trkpt lat="43.95786" lon="6.69882">
        <ele>628.4</ele>
      </trkpt>
      <trkpt lat="43.95793" lon="6.69952">
        <ele>632.6</ele>
      </trkpt>
      <trkpt lat="43.95777" lon="6.69993">
        <ele>626.6</ele>
      </trkpt>
      <trkpt lat="43.95746" lon="6.70059">
        <ele>614.5</ele>
      </trkpt>
      <trkpt lat="43.95746" lon="6.70076">
        <ele>614.8</ele>
      </trkpt>
      <trkpt lat="43.95753" lon="6.70139">
        <ele>612.3</ele>
      </trkpt>
      <trkpt lat="43.95759" lon="6.70172">
        <ele>612.2</ele>
      </trkpt>
      <trkpt lat="43.95776" lon="6.70234">
        <ele>611.1</ele>
      </trkpt>
      <trkpt lat="43.95791" lon="6.70278">
        <ele>610.9</ele>
      </trkpt>
      <trkpt lat="43.95833" lon="6.70378">
        <ele>609.8</ele>
      </trkpt>
      <trkpt lat="43.95838" lon="6.70399">
        <ele>609.7</ele>
      </trkpt>
      <trkpt lat="43.95843" lon="6.70425">
        <ele>609.1</ele>
      </trkpt>
      <trkpt lat="43.95857" lon="6.70568">
        <ele>603.6</ele>
      </trkpt>
      <trkpt lat="43.95923" lon="6.70885">
        <ele>599.9</ele>
      </trkpt>
      <trkpt lat="43.95958" lon="6.71039">
        <ele>599.8</ele>
      </trkpt>
      <trkpt lat="43.9596" lon="6.7105">
        <ele>599.5</ele>
      </trkpt>
      <trkpt lat="43.95964" lon="6.71077">
        <ele>598.6</ele>
      </trkpt>
      <trkpt lat="43.95963" lon="6.71106">
        <ele>598.4</ele>
      </trkpt>
      <trkpt lat="43.95936" lon="6.71244">
        <ele>596.8</ele>
      </trkpt>
      <trkpt lat="43.95934" lon="6.71273">
        <ele>596.8</ele>
      </trkpt>
      <trkpt lat="43.95928" lon="6.71395">
        <ele>595.2</ele>
      </trkpt>
      <trkpt lat="43.95928" lon="6.71421">
        <ele>594.6</ele>
      </trkpt>
      <trkpt lat="43.9593" lon="6.71432">
        <ele>594.5</ele>
      </trkpt>
      <trkpt lat="43.95945" lon="6.71486">
        <ele>595.3</ele>
      </trkpt>
      <trkpt lat="43.95961" lon="6.71586">
        <ele>593.6</ele>
      </trkpt>
      <trkpt lat="43.95962" lon="6.71618">
        <ele>593.6</ele>
      </trkpt>
      <trkpt lat="43.95961" lon="6.71686">
        <ele>593.4</ele>
      </trkpt>
      <trkpt lat="43.95964" lon="6.71761">
        <ele>595.6</ele>
      </trkpt>
      <trkpt lat="43.95962" lon="6.71787">
        <ele>595.8</ele>
      </trkpt>
      <trkpt lat="43.95939" lon="6.7193">
        <ele>590.2</ele>
      </trkpt>
      <trkpt lat="43.95937" lon="6.71952">
        <ele>588.8</ele>
      </trkpt>
      <trkpt lat="43.95935" lon="6.71984">
        <ele>587.2</ele>
      </trkpt>
      <trkpt lat="43.95944" lon="6.7217">
        <ele>584.5</ele>
      </trkpt>
      <trkpt lat="43.95949" lon="6.72207">
        <ele>584.1</ele>
      </trkpt>
      <trkpt lat="43.9596" lon="6.72261">
        <ele>583.7</ele>
      </trkpt>
      <trkpt lat="43.95982" lon="6.72348">
        <ele>582.6</ele>
      </trkpt>
      <trkpt lat="43.95992" lon="6.72394">
        <ele>581.3</ele>
      </trkpt>
      <trkpt lat="43.95993" lon="6.724">
        <ele>581.1</ele>
      </trkpt>
      <trkpt lat="43.95994" lon="6.72406">
        <ele>580.9</ele>
      </trkpt>
      <trkpt lat="43.95997" lon="6.72434">
        <ele>580.2</ele>
      </trkpt>
      <trkpt lat="43.95998" lon="6.7247">
        <ele>579.5</ele>
      </trkpt>
      <trkpt lat="43.95993" lon="6.72717">
        <ele>576.6</ele>
      </trkpt>
      <trkpt lat="43.9599" lon="6.72745">
        <ele>576.3</ele>
      </trkpt>
      <trkpt lat="43.95981" lon="6.72797">
        <ele>575.8</ele>
      </trkpt>
      <trkpt lat="43.95937" lon="6.73034">
        <ele>572</ele>
      </trkpt>
      <trkpt lat="43.95916" lon="6.73169">
        <ele>570.1</ele>
      </trkpt>
      <trkpt lat="43.95899" lon="6.73261">
        <ele>575.7</ele>
      </trkpt>
      <trkpt lat="43.95882" lon="6.73386">
        <ele>580.5</ele>
      </trkpt>
      <trkpt lat="43.9588" lon="6.73398">
        <ele>580.1</ele>
      </trkpt>
      <trkpt lat="43.95879" lon="6.73411">
        <ele>579.8</ele>
      </trkpt>
      <trkpt lat="43.95879" lon="6.73431">
        <ele>577.3</ele>
      </trkpt>
      <trkpt lat="43.95881" lon="6.73449">
        <ele>574.4</ele>
      </trkpt>
      <trkpt lat="43.95883" lon="6.73455">
        <ele>573.5</ele>
      </trkpt>
      <trkpt lat="43.95887" lon="6.73464">
        <ele>572.1</ele>
      </trkpt>
      <trkpt lat="43.95895" lon="6.73474">
        <ele>570.7</ele>
      </trkpt>
      <trkpt lat="43.95908" lon="6.73484">
        <ele>569.5</ele>
      </trkpt>
      <trkpt lat="43.95925" lon="6.73491">
        <ele>571.4</ele>
      </trkpt>
      <trkpt lat="43.95945" lon="6.73493">
        <ele>577.5</ele>
      </trkpt>
      <trkpt lat="43.95954" lon="6.73495">
        <ele>580</ele>
      </trkpt>
      <trkpt lat="43.95971" lon="6.73501">
        <ele>583.7</ele>
      </trkpt>
      <trkpt lat="43.96" lon="6.73518">
        <ele>586.7</ele>
      </trkpt>
      <trkpt lat="43.96021" lon="6.73534">
        <ele>587.6</ele>
      </trkpt>
      <trkpt lat="43.96096" lon="6.7361">
        <ele>582.9</ele>
      </trkpt>
      <trkpt lat="43.96115" lon="6.73633">
        <ele>585.6</ele>
      </trkpt>
      <trkpt lat="43.96127" lon="6.73652">
        <ele>584.8</ele>
      </trkpt>
      <trkpt lat="43.96142" lon="6.73681">
        <ele>582.8</ele>
      </trkpt>
      <trkpt lat="43.96399" lon="6.74295">
        <ele>562.3</ele>
      </trkpt>
      <trkpt lat="43.96449" lon="6.744">
        <ele>561</ele>
      </trkpt>
      <trkpt lat="43.96601" lon="6.74687">
        <ele>554.2</ele>
      </trkpt>
      <trkpt lat="43.96623" lon="6.74736">
        <ele>553.8</ele>
      </trkpt>
      <trkpt lat="43.96632" lon="6.74762">
        <ele>553.7</ele>
      </trkpt>
      <trkpt lat="43.9664" lon="6.74789">
        <ele>554</ele>
      </trkpt>
      <trkpt lat="43.96646" lon="6.74817">
        <ele>553.4</ele>
      </trkpt>
      <trkpt lat="43.9666" lon="6.74902">
        <ele>549.1</ele>
      </trkpt>
      <trkpt lat="43.96666" lon="6.74929">
        <ele>547.6</ele>
      </trkpt>
      <trkpt lat="43.96672" lon="6.7495">
        <ele>548.5</ele>
      </trkpt>
      <trkpt lat="43.96675" lon="6.7496">
        <ele>549.2</ele>
      </trkpt>
      <trkpt lat="43.96688" lon="6.75005">
        <ele>553</ele>
      </trkpt>
      <trkpt lat="43.96701" lon="6.75055">
        <ele>559.6</ele>
      </trkpt>
      <trkpt lat="43.96707" lon="6.75081">
        <ele>563.3</ele>
      </trkpt>
      <trkpt lat="43.96711" lon="6.75106">
        <ele>563.3</ele>
      </trkpt>
      <trkpt lat="43.96715" lon="6.75157">
        <ele>560.4</ele>
      </trkpt>
      <trkpt lat="43.96725" lon="6.75487">
        <ele>548.2</ele>
      </trkpt>
      <trkpt lat="43.96728" lon="6.75508">
        <ele>547</ele>
      </trkpt>
      <trkpt lat="43.96733" lon="6.75529">
        <ele>545.2</ele>
      </trkpt>
      <trkpt lat="43.96748" lon="6.75569">
        <ele>541.7</ele>
      </trkpt>
      <trkpt lat="43.96805" lon="6.757">
        <ele>543.5</ele>
      </trkpt>
      <trkpt lat="43.96811" lon="6.75711">
        <ele>542.9</ele>
      </trkpt>
      <trkpt lat="43.96802" lon="6.7572">
        <ele>540.5</ele>
      </trkpt>
      <trkpt lat="43.96805" lon="6.75735">
        <ele>538.9</ele>
      </trkpt>
      <trkpt lat="43.96813" lon="6.75747">
        <ele>538.2</ele>
      </trkpt>
      <trkpt lat="43.96846" lon="6.75793">
        <ele>540.5</ele>
      </trkpt>
      <trkpt lat="43.96904" lon="6.75872">
        <ele>537.5</ele>
      </trkpt>
      <trkpt lat="43.96941" lon="6.75927">
        <ele>536.2</ele>
      </trkpt>
      <trkpt lat="43.96943" lon="6.75941">
        <ele>535.5</ele>
      </trkpt>
      <trkpt lat="43.96879" lon="6.76011">
        <ele>529.7</ele>
      </trkpt>
      <trkpt lat="43.96879" lon="6.76026">
        <ele>529.3</ele>
      </trkpt>
      <trkpt lat="43.96918" lon="6.76104">
        <ele>528.3</ele>
      </trkpt>
      <trkpt lat="43.96942" lon="6.76161">
        <ele>526.2</ele>
      </trkpt>
      <trkpt lat="43.96959" lon="6.7618">
        <ele>525.8</ele>
      </trkpt>
      <trkpt lat="43.96982" lon="6.76216">
        <ele>525.3</ele>
      </trkpt>
      <trkpt lat="43.96982" lon="6.76237">
        <ele>525</ele>
      </trkpt>
      <trkpt lat="43.97022" lon="6.76312">
        <ele>521.2</ele>
      </trkpt>
      <trkpt lat="43.97034" lon="6.76325">
        <ele>520.1</ele>
      </trkpt>
      <trkpt lat="43.97054" lon="6.76339">
        <ele>518.9</ele>
      </trkpt>
      <trkpt lat="43.97075" lon="6.76346">
        <ele>518.1</ele>
      </trkpt>
      <trkpt lat="43.97105" lon="6.76369">
        <ele>521</ele>
      </trkpt>
      <trkpt lat="43.97115" lon="6.7639">
        <ele>521.6</ele>
      </trkpt>
      <trkpt lat="43.97122" lon="6.76397">
        <ele>522.2</ele>
      </trkpt>
      <trkpt lat="43.97128" lon="6.7642">
        <ele>521.7</ele>
      </trkpt>
      <trkpt lat="43.9713" lon="6.76464">
        <ele>520.4</ele>
      </trkpt>
      <trkpt lat="43.97148" lon="6.76532">
        <ele>519.3</ele>
      </trkpt>
      <trkpt lat="43.9717" lon="6.76598">
        <ele>519.1</ele>
      </trkpt>
      <trkpt lat="43.97173" lon="6.76639">
        <ele>520.1</ele>
      </trkpt>
      <trkpt lat="43.97187" lon="6.76677">
        <ele>523.5</ele>
      </trkpt>
      <trkpt lat="43.97188" lon="6.76718">
        <ele>525.2</ele>
      </trkpt>
      <trkpt lat="43.97181" lon="6.76757">
        <ele>525.1</ele>
      </trkpt>
      <trkpt lat="43.97155" lon="6.76837">
        <ele>522.1</ele>
      </trkpt>
      <trkpt lat="43.97159" lon="6.76856">
        <ele>522.8</ele>
      </trkpt>
      <trkpt lat="43.97161" lon="6.76845">
        <ele>522.8</ele>
      </trkpt>
      <trkpt lat="43.97168" lon="6.76838">
        <ele>523.5</ele>
      </trkpt>
      <trkpt lat="43.97173" lon="6.76838">
        <ele>524.8</ele>
      </trkpt>
      <trkpt lat="43.9718" lon="6.76839">
        <ele>526.7</ele>
      </trkpt>
      <trkpt lat="43.97187" lon="6.76846">
        <ele>528.9</ele>
      </trkpt>
      <trkpt lat="43.97189" lon="6.7686">
        <ele>530</ele>
      </trkpt>
      <trkpt lat="43.97186" lon="6.76892">
        <ele>530.3</ele>
      </trkpt>
      <trkpt lat="43.97189" lon="6.76963">
        <ele>531.7</ele>
      </trkpt>
      <trkpt lat="43.97202" lon="6.77065">
        <ele>534.5</ele>
      </trkpt>
      <trkpt lat="43.97203" lon="6.7711">
        <ele>533</ele>
      </trkpt>
      <trkpt lat="43.97206" lon="6.77116">
        <ele>533.6</ele>
      </trkpt>
      <trkpt lat="43.97211" lon="6.77114">
        <ele>535.1</ele>
      </trkpt>
      <trkpt lat="43.97214" lon="6.77153">
        <ele>533.8</ele>
      </trkpt>
      <trkpt lat="43.97221" lon="6.772">
        <ele>534.1</ele>
      </trkpt>
      <trkpt lat="43.97231" lon="6.77246">
        <ele>535.3</ele>
      </trkpt>
      <trkpt lat="43.97233" lon="6.77276">
        <ele>535.7</ele>
      </trkpt>
      <trkpt lat="43.97231" lon="6.77367">
        <ele>535.6</ele>
      </trkpt>
      <trkpt lat="43.97225" lon="6.77417">
        <ele>534.7</ele>
      </trkpt>
      <trkpt lat="43.97216" lon="6.77458">
        <ele>534.2</ele>
      </trkpt>
      <trkpt lat="43.97177" lon="6.77528">
        <ele>526.4</ele>
      </trkpt>
      <trkpt lat="43.97171" lon="6.77548">
        <ele>525.3</ele>
      </trkpt>
      <trkpt lat="43.97169" lon="6.77568">
        <ele>525.2</ele>
      </trkpt>
      <trkpt lat="43.97165" lon="6.77664">
        <ele>523.8</ele>
      </trkpt>
      <trkpt lat="43.97159" lon="6.77706">
        <ele>524.3</ele>
      </trkpt>
      <trkpt lat="43.97151" lon="6.77741">
        <ele>524.3</ele>
      </trkpt>
      <trkpt lat="43.97141" lon="6.77761">
        <ele>524</ele>
      </trkpt>
      <trkpt lat="43.97137" lon="6.77767">
        <ele>524.1</ele>
      </trkpt>
      <trkpt lat="43.97129" lon="6.77774">
        <ele>523.8</ele>
      </trkpt>
      <trkpt lat="43.97137" lon="6.77767">
        <ele>524.1</ele>
      </trkpt>
      <trkpt lat="43.97141" lon="6.77761">
        <ele>524</ele>
      </trkpt>
      <trkpt lat="43.97136" lon="6.77786">
        <ele>525.9</ele>
      </trkpt>
      <trkpt lat="43.97131" lon="6.77792">
        <ele>526</ele>
      </trkpt>
      <trkpt lat="43.97119" lon="6.77808">
        <ele>527.1</ele>
      </trkpt>
      <trkpt lat="43.97106" lon="6.77816">
        <ele>527.6</ele>
      </trkpt>
      <trkpt lat="43.97109" lon="6.77827">
        <ele>529.4</ele>
      </trkpt>
      <trkpt lat="43.97117" lon="6.77853">
        <ele>535.3</ele>
      </trkpt>
      <trkpt lat="43.97134" lon="6.77894">
        <ele>542.9</ele>
      </trkpt>
      <trkpt lat="43.97165" lon="6.77935">
        <ele>543.3</ele>
      </trkpt>
      <trkpt lat="43.97199" lon="6.7801">
        <ele>550.1</ele>
      </trkpt>
      <trkpt lat="43.97262" lon="6.7808">
        <ele>554.5</ele>
      </trkpt>
      <trkpt lat="43.97274" lon="6.7809">
        <ele>555.7</ele>
      </trkpt>
      <trkpt lat="43.97305" lon="6.78109">
        <ele>557</ele>
      </trkpt>
      <trkpt lat="43.97315" lon="6.78119">
        <ele>558</ele>
      </trkpt>
      <trkpt lat="43.97327" lon="6.78131">
        <ele>559</ele>
      </trkpt>
      <trkpt lat="43.97416" lon="6.78228">
        <ele>566</ele>
      </trkpt>
      <trkpt lat="43.97426" lon="6.78242">
        <ele>568.3</ele>
      </trkpt>
      <trkpt lat="43.97435" lon="6.78263">
        <ele>572</ele>
      </trkpt>
      <trkpt lat="43.97458" lon="6.78296">
        <ele>576.8</ele>
      </trkpt>
      <trkpt lat="43.9749" lon="6.78324">
        <ele>574.8</ele>
      </trkpt>
      <trkpt lat="43.97505" lon="6.78327">
        <ele>575.1</ele>
      </trkpt>
      <trkpt lat="43.97513" lon="6.78336">
        <ele>578.2</ele>
      </trkpt>
      <trkpt lat="43.97528" lon="6.78372">
        <ele>586.3</ele>
      </trkpt>
      <trkpt lat="43.9757" lon="6.78436">
        <ele>594.7</ele>
      </trkpt>
      <trkpt lat="43.97582" lon="6.7846">
        <ele>595.1</ele>
      </trkpt>
      <trkpt lat="43.97592" lon="6.78484">
        <ele>599.6</ele>
      </trkpt>
      <trkpt lat="43.97595" lon="6.78504">
        <ele>601</ele>
      </trkpt>
      <trkpt lat="43.97597" lon="6.78531">
        <ele>601.5</ele>
      </trkpt>
      <trkpt lat="43.97602" lon="6.78552">
        <ele>603.2</ele>
      </trkpt>
      <trkpt lat="43.97596" lon="6.78575">
        <ele>600.4</ele>
      </trkpt>
      <trkpt lat="43.97594" lon="6.78596">
        <ele>600.1</ele>
      </trkpt>
      <trkpt lat="43.97606" lon="6.78628">
        <ele>604.1</ele>
      </trkpt>
      <trkpt lat="43.9761" lon="6.78654">
        <ele>604.9</ele>
      </trkpt>
      <trkpt lat="43.97611" lon="6.78691">
        <ele>607.8</ele>
      </trkpt>
      <trkpt lat="43.97616" lon="6.78703">
        <ele>609.6</ele>
      </trkpt>
      <trkpt lat="43.97621" lon="6.78708">
        <ele>610.6</ele>
      </trkpt>
      <trkpt lat="43.97645" lon="6.78709">
        <ele>612.7</ele>
      </trkpt>
      <trkpt lat="43.97652" lon="6.78708">
        <ele>613.2</ele>
      </trkpt>
      <trkpt lat="43.97656" lon="6.78704">
        <ele>613.2</ele>
      </trkpt>
      <trkpt lat="43.97656" lon="6.78699">
        <ele>612.8</ele>
      </trkpt>
      <trkpt lat="43.97651" lon="6.78682">
        <ele>610.7</ele>
      </trkpt>
      <trkpt lat="43.97652" lon="6.78678">
        <ele>610.5</ele>
      </trkpt>
      <trkpt lat="43.97655" lon="6.78675">
        <ele>610.5</ele>
      </trkpt>
      <trkpt lat="43.9766" lon="6.78674">
        <ele>610.9</ele>
      </trkpt>
      <trkpt lat="43.97677" lon="6.78686">
        <ele>616.1</ele>
      </trkpt>
      <trkpt lat="43.97709" lon="6.78704">
        <ele>626.9</ele>
      </trkpt>
      <trkpt lat="43.97712" lon="6.78708">
        <ele>627.8</ele>
      </trkpt>
      <trkpt lat="43.97712" lon="6.78708">
        <ele>627.8</ele>
      </trkpt>
      <trkpt lat="43.97715" lon="6.78704">
        <ele>628.7</ele>
      </trkpt>
      <trkpt lat="43.97717" lon="6.78696">
        <ele>629.4</ele>
      </trkpt>
      <trkpt lat="43.97679" lon="6.78652">
        <ele>618.2</ele>
      </trkpt>
      <trkpt lat="43.97674" lon="6.78643">
        <ele>617.7</ele>
      </trkpt>
      <trkpt lat="43.97673" lon="6.78634">
        <ele>618.8</ele>
      </trkpt>
      <trkpt lat="43.97674" lon="6.78624">
        <ele>620.9</ele>
      </trkpt>
      <trkpt lat="43.97683" lon="6.78593">
        <ele>630.5</ele>
      </trkpt>
      <trkpt lat="43.97688" lon="6.78564">
        <ele>638.5</ele>
      </trkpt>
      <trkpt lat="43.97685" lon="6.78553">
        <ele>639.1</ele>
      </trkpt>
      <trkpt lat="43.97678" lon="6.78542">
        <ele>637.3</ele>
      </trkpt>
      <trkpt lat="43.97675" lon="6.78526">
        <ele>638.5</ele>
      </trkpt>
      <trkpt lat="43.97673" lon="6.78488">
        <ele>643.1</ele>
      </trkpt>
      <trkpt lat="43.97682" lon="6.78439">
        <ele>654.2</ele>
      </trkpt>
      <trkpt lat="43.97673" lon="6.78396">
        <ele>653.7</ele>
      </trkpt>
      <trkpt lat="43.97674" lon="6.78336">
        <ele>663.9</ele>
      </trkpt>
      <trkpt lat="43.97673" lon="6.78325">
        <ele>665</ele>
      </trkpt>
      <trkpt lat="43.97666" lon="6.78303">
        <ele>663.3</ele>
      </trkpt>
      <trkpt lat="43.97653" lon="6.78243">
        <ele>664.4</ele>
      </trkpt>
      <trkpt lat="43.97652" lon="6.78208">
        <ele>669.5</ele>
      </trkpt>
      <trkpt lat="43.9765" lon="6.78193">
        <ele>670.7</ele>
      </trkpt>
      <trkpt lat="43.97649" lon="6.7816">
        <ele>675.6</ele>
      </trkpt>
      <trkpt lat="43.97642" lon="6.7812">
        <ele>678.5</ele>
      </trkpt>
      <trkpt lat="43.9764" lon="6.78102">
        <ele>680.6</ele>
      </trkpt>
      <trkpt lat="43.97644" lon="6.78097">
        <ele>683.8</ele>
      </trkpt>
      <trkpt lat="43.97645" lon="6.78085">
        <ele>686.5</ele>
      </trkpt>
      <trkpt lat="43.97642" lon="6.78074">
        <ele>685.7</ele>
      </trkpt>
      <trkpt lat="43.97634" lon="6.78066">
        <ele>681.8</ele>
      </trkpt>
      <trkpt lat="43.97624" lon="6.78049">
        <ele>677.6</ele>
      </trkpt>
      <trkpt lat="43.97622" lon="6.78036">
        <ele>677.6</ele>
      </trkpt>
      <trkpt lat="43.97623" lon="6.78019">
        <ele>679.5</ele>
      </trkpt>
      <trkpt lat="43.97637" lon="6.77972">
        <ele>690.4</ele>
      </trkpt>
      <trkpt lat="43.97651" lon="6.77957">
        <ele>699.2</ele>
      </trkpt>
      <trkpt lat="43.97653" lon="6.77944">
        <ele>701.5</ele>
      </trkpt>
      <trkpt lat="43.97637" lon="6.77909">
        <ele>696.8</ele>
      </trkpt>
      <trkpt lat="43.97617" lon="6.77843">
        <ele>699.3</ele>
      </trkpt>
      <trkpt lat="43.97601" lon="6.77696">
        <ele>706.6</ele>
      </trkpt>
      <trkpt lat="43.97601" lon="6.77632">
        <ele>703.4</ele>
      </trkpt>
      <trkpt lat="43.97602" lon="6.77617">
        <ele>702</ele>
      </trkpt>
      <trkpt lat="43.97604" lon="6.77608">
        <ele>701.9</ele>
      </trkpt>
      <trkpt lat="43.9762" lon="6.77592">
        <ele>709.4</ele>
      </trkpt>
      <trkpt lat="43.97669" lon="6.77549">
        <ele>728.2</ele>
      </trkpt>
      <trkpt lat="43.97684" lon="6.7753">
        <ele>731.4</ele>
      </trkpt>
      <trkpt lat="43.97715" lon="6.77516">
        <ele>745</ele>
      </trkpt>
      <trkpt lat="43.97725" lon="6.77502">
        <ele>747.4</ele>
      </trkpt>
      <trkpt lat="43.97727" lon="6.77492">
        <ele>749.8</ele>
      </trkpt>
      <trkpt lat="43.97725" lon="6.7748">
        <ele>751.2</ele>
      </trkpt>
      <trkpt lat="43.97682" lon="6.77395">
        <ele>747.7</ele>
      </trkpt>
      <trkpt lat="43.97681" lon="6.77385">
        <ele>750.5</ele>
      </trkpt>
      <trkpt lat="43.97683" lon="6.77367">
        <ele>757.4</ele>
      </trkpt>
      <trkpt lat="43.97681" lon="6.77354">
        <ele>760.6</ele>
      </trkpt>
      <trkpt lat="43.97671" lon="6.77334">
        <ele>762</ele>
      </trkpt>
      <trkpt lat="43.97659" lon="6.77322">
        <ele>760.1</ele>
      </trkpt>
      <trkpt lat="43.97649" lon="6.77316">
        <ele>757.3</ele>
      </trkpt>
      <trkpt lat="43.97641" lon="6.77308">
        <ele>755.9</ele>
      </trkpt>
      <trkpt lat="43.97625" lon="6.77265">
        <ele>761</ele>
      </trkpt>
      <trkpt lat="43.9762" lon="6.77217">
        <ele>768.2</ele>
      </trkpt>
      <trkpt lat="43.97611" lon="6.77177">
        <ele>769</ele>
      </trkpt>
      <trkpt lat="43.97609" lon="6.77163">
        <ele>769.8</ele>
      </trkpt>
      <trkpt lat="43.9762" lon="6.77121">
        <ele>781.6</ele>
      </trkpt>
      <trkpt lat="43.97621" lon="6.77111">
        <ele>783.4</ele>
      </trkpt>
      <trkpt lat="43.97619" lon="6.77099">
        <ele>783.6</ele>
      </trkpt>
      <trkpt lat="43.97606" lon="6.77059">
        <ele>780.1</ele>
      </trkpt>
      <trkpt lat="43.97604" lon="6.77041">
        <ele>780.8</ele>
      </trkpt>
      <trkpt lat="43.97611" lon="6.77001">
        <ele>789.2</ele>
      </trkpt>
      <trkpt lat="43.97612" lon="6.76981">
        <ele>792.9</ele>
      </trkpt>
      <trkpt lat="43.97609" lon="6.76949">
        <ele>796.3</ele>
      </trkpt>
      <trkpt lat="43.97603" lon="6.76911">
        <ele>799.5</ele>
      </trkpt>
      <trkpt lat="43.9759" lon="6.76862">
        <ele>803.8</ele>
      </trkpt>
      <trkpt lat="43.97584" lon="6.76846">
        <ele>805.2</ele>
      </trkpt>
      <trkpt lat="43.97566" lon="6.76816">
        <ele>801.1</ele>
      </trkpt>
      <trkpt lat="43.97551" lon="6.76762">
        <ele>800.4</ele>
      </trkpt>
      <trkpt lat="43.97549" lon="6.7675">
        <ele>801</ele>
      </trkpt>
      <trkpt lat="43.97551" lon="6.76737">
        <ele>800.4</ele>
      </trkpt>
      <trkpt lat="43.97556" lon="6.76725">
        <ele>800.8</ele>
      </trkpt>
      <trkpt lat="43.97565" lon="6.76718">
        <ele>802.9</ele>
      </trkpt>
      <trkpt lat="43.97586" lon="6.76724">
        <ele>809.7</ele>
      </trkpt>
      <trkpt lat="43.97607" lon="6.76723">
        <ele>807</ele>
      </trkpt>
      <trkpt lat="43.97612" lon="6.76737">
        <ele>810.7</ele>
      </trkpt>
      <trkpt lat="43.97618" lon="6.76762">
        <ele>815.3</ele>
      </trkpt>
      <trkpt lat="43.97645" lon="6.76797">
        <ele>822.4</ele>
      </trkpt>
      <trkpt lat="43.97651" lon="6.76814">
        <ele>826.9</ele>
      </trkpt>
      <trkpt lat="43.97655" lon="6.76852">
        <ele>830.7</ele>
      </trkpt>
      <trkpt lat="43.97659" lon="6.76867">
        <ele>831.2</ele>
      </trkpt>
      <trkpt lat="43.97698" lon="6.76937">
        <ele>839.3</ele>
      </trkpt>
      <trkpt lat="43.97704" lon="6.76957">
        <ele>840.1</ele>
      </trkpt>
      <trkpt lat="43.97724" lon="6.77003">
        <ele>845.8</ele>
      </trkpt>
      <trkpt lat="43.97747" lon="6.77079">
        <ele>850</ele>
      </trkpt>
      <trkpt lat="43.97762" lon="6.77141">
        <ele>852.4</ele>
      </trkpt>
      <trkpt lat="43.97767" lon="6.77151">
        <ele>853.8</ele>
      </trkpt>
      <trkpt lat="43.97783" lon="6.7717">
        <ele>858.6</ele>
      </trkpt>
      <trkpt lat="43.97818" lon="6.77209">
        <ele>866.4</ele>
      </trkpt>
      <trkpt lat="43.97849" lon="6.77248">
        <ele>872.1</ele>
      </trkpt>
      <trkpt lat="43.97877" lon="6.77295">
        <ele>876.9</ele>
      </trkpt>
      <trkpt lat="43.97901" lon="6.7737">
        <ele>885.5</ele>
      </trkpt>
      <trkpt lat="43.97911" lon="6.77398">
        <ele>889.5</ele>
      </trkpt>
      <trkpt lat="43.97933" lon="6.77438">
        <ele>895.5</ele>
      </trkpt>
      <trkpt lat="43.97938" lon="6.77452">
        <ele>897</ele>
      </trkpt>
      <trkpt lat="43.97947" lon="6.77517">
        <ele>899.9</ele>
      </trkpt>
      <trkpt lat="43.97952" lon="6.77537">
        <ele>901.4</ele>
      </trkpt>
      <trkpt lat="43.97977" lon="6.77577">
        <ele>916.2</ele>
      </trkpt>
      <trkpt lat="43.97998" lon="6.77629">
        <ele>919.5</ele>
      </trkpt>
      <trkpt lat="43.98014" lon="6.77657">
        <ele>921.5</ele>
      </trkpt>
      <trkpt lat="43.98027" lon="6.77677">
        <ele>925.2</ele>
      </trkpt>
      <trkpt lat="43.98067" lon="6.77721">
        <ele>938.9</ele>
      </trkpt>
      <trkpt lat="43.98087" lon="6.77752">
        <ele>943.5</ele>
      </trkpt>
      <trkpt lat="43.98091" lon="6.77757">
        <ele>946.4</ele>
      </trkpt>
      <trkpt lat="43.98095" lon="6.77772">
        <ele>950.2</ele>
      </trkpt>
      <trkpt lat="43.98092" lon="6.77786">
        <ele>949.8</ele>
      </trkpt>
      <trkpt lat="43.98069" lon="6.77819">
        <ele>941.2</ele>
      </trkpt>
      <trkpt lat="43.98046" lon="6.77859">
        <ele>938.5</ele>
      </trkpt>
      <trkpt lat="43.98021" lon="6.77924">
        <ele>942.1</ele>
      </trkpt>
      <trkpt lat="43.98005" lon="6.77995">
        <ele>942.8</ele>
      </trkpt>
      <trkpt lat="43.98003" lon="6.78043">
        <ele>945.1</ele>
      </trkpt>
      <trkpt lat="43.98011" lon="6.78088">
        <ele>952.3</ele>
      </trkpt>
      <trkpt lat="43.98051" lon="6.78179">
        <ele>964.4</ele>
      </trkpt>
      <trkpt lat="43.98061" lon="6.78256">
        <ele>963.3</ele>
      </trkpt>
      <trkpt lat="43.98083" lon="6.78307">
        <ele>971.9</ele>
      </trkpt>
      <trkpt lat="43.98097" lon="6.78346">
        <ele>975.6</ele>
      </trkpt>
      <trkpt lat="43.98102" lon="6.78378">
        <ele>974.4</ele>
      </trkpt>
      <trkpt lat="43.98111" lon="6.78413">
        <ele>975.1</ele>
      </trkpt>
      <trkpt lat="43.98129" lon="6.78446">
        <ele>978.1</ele>
      </trkpt>
      <trkpt lat="43.98167" lon="6.78488">
        <ele>986.2</ele>
      </trkpt>
      <trkpt lat="43.98202" lon="6.78537">
        <ele>994.1</ele>
      </trkpt>
      <trkpt lat="43.9823" lon="6.78587">
        <ele>1001.5</ele>
      </trkpt>
      <trkpt lat="43.9824" lon="6.78629">
        <ele>1004.6</ele>
      </trkpt>
      <trkpt lat="43.98243" lon="6.78665">
        <ele>1003.6</ele>
      </trkpt>
      <trkpt lat="43.98237" lon="6.78726">
        <ele>997</ele>
      </trkpt>
      <trkpt lat="43.98242" lon="6.78744">
        <ele>999</ele>
      </trkpt>
      <trkpt lat="43.98259" lon="6.78769">
        <ele>1004.5</ele>
      </trkpt>
      <trkpt lat="43.98275" lon="6.78776">
        <ele>1012.2</ele>
      </trkpt>
      <trkpt lat="43.98293" lon="6.78797">
        <ele>1018.5</ele>
      </trkpt>
      <trkpt lat="43.98303" lon="6.78819">
        <ele>1020.2</ele>
      </trkpt>
      <trkpt lat="43.98308" lon="6.78863">
        <ele>1017.2</ele>
      </trkpt>
      <trkpt lat="43.98316" lon="6.78903">
        <ele>1017.8</ele>
      </trkpt>
      <trkpt lat="43.98338" lon="6.78978">
        <ele>1021.8</ele>
      </trkpt>
      <trkpt lat="43.98355" lon="6.7908">
        <ele>1022.8</ele>
      </trkpt>
      <trkpt lat="43.98362" lon="6.79161">
        <ele>1020.3</ele>
      </trkpt>
      <trkpt lat="43.98373" lon="6.79197">
        <ele>1020.3</ele>
      </trkpt>
      <trkpt lat="43.98399" lon="6.79243">
        <ele>1024.2</ele>
      </trkpt>
      <trkpt lat="43.98429" lon="6.79341">
        <ele>1027.8</ele>
      </trkpt>
      <trkpt lat="43.98429" lon="6.79347">
        <ele>1028.5</ele>
      </trkpt>
      <trkpt lat="43.98427" lon="6.79357">
        <ele>1028.5</ele>
      </trkpt>
      <trkpt lat="43.98414" lon="6.79412">
        <ele>1028.2</ele>
      </trkpt>
      <trkpt lat="43.98375" lon="6.79471">
        <ele>1022.6</ele>
      </trkpt>
      <trkpt lat="43.9836" lon="6.795">
        <ele>1020.7</ele>
      </trkpt>
      <trkpt lat="43.98352" lon="6.7954">
        <ele>1019.1</ele>
      </trkpt>
      <trkpt lat="43.98335" lon="6.79625">
        <ele>1011.6</ele>
      </trkpt>
      <trkpt lat="43.98334" lon="6.79663">
        <ele>1011.4</ele>
      </trkpt>
      <trkpt lat="43.98336" lon="6.79696">
        <ele>1009.5</ele>
      </trkpt>
      <trkpt lat="43.98352" lon="6.79718">
        <ele>1016.9</ele>
      </trkpt>
      <trkpt lat="43.98353" lon="6.79738">
        <ele>1015.2</ele>
      </trkpt>
      <trkpt lat="43.98348" lon="6.79751">
        <ele>1010.9</ele>
      </trkpt>
      <trkpt lat="43.98329" lon="6.79774">
        <ele>1002.3</ele>
      </trkpt>
      <trkpt lat="43.98314" lon="6.79806">
        <ele>997.6</ele>
      </trkpt>
      <trkpt lat="43.98306" lon="6.79843">
        <ele>994.9</ele>
      </trkpt>
      <trkpt lat="43.98304" lon="6.79872">
        <ele>990.8</ele>
      </trkpt>
      <trkpt lat="43.98308" lon="6.79901">
        <ele>990</ele>
      </trkpt>
      <trkpt lat="43.98357" lon="6.79982">
        <ele>1002.8</ele>
      </trkpt>
      <trkpt lat="43.98362" lon="6.79999">
        <ele>1001.6</ele>
      </trkpt>
      <trkpt lat="43.98354" lon="6.80014">
        <ele>1001.1</ele>
      </trkpt>
      <trkpt lat="43.9834" lon="6.80019">
        <ele>996.8</ele>
      </trkpt>
      <trkpt lat="43.98323" lon="6.8002">
        <ele>990.6</ele>
      </trkpt>
      <trkpt lat="43.98315" lon="6.80025">
        <ele>988.6</ele>
      </trkpt>
      <trkpt lat="43.98305" lon="6.80031">
        <ele>986</ele>
      </trkpt>
      <trkpt lat="43.98284" lon="6.80057">
        <ele>983</ele>
      </trkpt>
      <trkpt lat="43.9828" lon="6.8012">
        <ele>992.3</ele>
      </trkpt>
      <trkpt lat="43.98266" lon="6.80198">
        <ele>996.5</ele>
      </trkpt>
      <trkpt lat="43.98253" lon="6.80262">
        <ele>997.7</ele>
      </trkpt>
      <trkpt lat="43.9825" lon="6.80323">
        <ele>1001.1</ele>
      </trkpt>
      <trkpt lat="43.98257" lon="6.80371">
        <ele>1008</ele>
      </trkpt>
      <trkpt lat="43.98258" lon="6.80416">
        <ele>1011.1</ele>
      </trkpt>
      <trkpt lat="43.98247" lon="6.80468">
        <ele>1006.6</ele>
      </trkpt>
      <trkpt lat="43.98246" lon="6.80495">
        <ele>1006.8</ele>
      </trkpt>
      <trkpt lat="43.98252" lon="6.80521">
        <ele>1009.5</ele>
      </trkpt>
      <trkpt lat="43.98284" lon="6.80608">
        <ele>1018.8</ele>
      </trkpt>
      <trkpt lat="43.9833" lon="6.80712">
        <ele>1024.7</ele>
      </trkpt>
      <trkpt lat="43.98332" lon="6.80734">
        <ele>1024.3</ele>
      </trkpt>
      <trkpt lat="43.98332" lon="6.80796">
        <ele>1025.7</ele>
      </trkpt>
      <trkpt lat="43.98332" lon="6.8085">
        <ele>1028.7</ele>
      </trkpt>
      <trkpt lat="43.98329" lon="6.80891">
        <ele>1030.5</ele>
      </trkpt>
      <trkpt lat="43.98331" lon="6.80916">
        <ele>1033</ele>
      </trkpt>
      <trkpt lat="43.98351" lon="6.80994">
        <ele>1041.7</ele>
      </trkpt>
      <trkpt lat="43.9835" lon="6.81015">
        <ele>1043.6</ele>
      </trkpt>
      <trkpt lat="43.98314" lon="6.81071">
        <ele>1039.2</ele>
      </trkpt>
      <trkpt lat="43.98309" lon="6.81114">
        <ele>1045.2</ele>
      </trkpt>
      <trkpt lat="43.98285" lon="6.81195">
        <ele>1049.3</ele>
      </trkpt>
      <trkpt lat="43.98267" lon="6.81268">
        <ele>1052.5</ele>
      </trkpt>
      <trkpt lat="43.9826" lon="6.81324">
        <ele>1058.5</ele>
      </trkpt>
      <trkpt lat="43.98247" lon="6.81414">
        <ele>1062.1</ele>
      </trkpt>
      <trkpt lat="43.98245" lon="6.81454">
        <ele>1064.2</ele>
      </trkpt>
      <trkpt lat="43.98247" lon="6.81484">
        <ele>1066.5</ele>
      </trkpt>
      <trkpt lat="43.98244" lon="6.8149">
        <ele>1066.3</ele>
      </trkpt>
      <trkpt lat="43.98242" lon="6.81495">
        <ele>1066.2</ele>
      </trkpt>
      <trkpt lat="43.98235" lon="6.81501">
        <ele>1065.5</ele>
      </trkpt>
      <trkpt lat="43.98211" lon="6.8151">
        <ele>1063.1</ele>
      </trkpt>
      <trkpt lat="43.98197" lon="6.8152">
        <ele>1062.6</ele>
      </trkpt>
      <trkpt lat="43.98182" lon="6.81537">
        <ele>1063.1</ele>
      </trkpt>
      <trkpt lat="43.98161" lon="6.81554">
        <ele>1063.9</ele>
      </trkpt>
      <trkpt lat="43.9816" lon="6.81559">
        <ele>1064.9</ele>
      </trkpt>
      <trkpt lat="43.9816" lon="6.81566">
        <ele>1066.2</ele>
      </trkpt>
      <trkpt lat="43.98162" lon="6.8157">
        <ele>1066.8</ele>
      </trkpt>
      <trkpt lat="43.98167" lon="6.81573">
        <ele>1067.1</ele>
      </trkpt>
      <trkpt lat="43.98176" lon="6.81569">
        <ele>1068.2</ele>
      </trkpt>
      <trkpt lat="43.98211" lon="6.81542">
        <ele>1069.8</ele>
      </trkpt>
      <trkpt lat="43.98223" lon="6.81538">
        <ele>1071.4</ele>
      </trkpt>
      <trkpt lat="43.98256" lon="6.81535">
        <ele>1078.8</ele>
      </trkpt>
      <trkpt lat="43.98271" lon="6.81535">
        <ele>1085.8</ele>
      </trkpt>
      <trkpt lat="43.98276" lon="6.81533">
        <ele>1087.8</ele>
      </trkpt>
      <trkpt lat="43.98283" lon="6.81519">
        <ele>1088.3</ele>
      </trkpt>
      <trkpt lat="43.98288" lon="6.81478">
        <ele>1085.5</ele>
      </trkpt>
      <trkpt lat="43.98293" lon="6.81458">
        <ele>1086.4</ele>
      </trkpt>
      <trkpt lat="43.98304" lon="6.81445">
        <ele>1090.6</ele>
      </trkpt>
      <trkpt lat="43.98356" lon="6.81296">
        <ele>1094.8</ele>
      </trkpt>
      <trkpt lat="43.98416" lon="6.81183">
        <ele>1103</ele>
      </trkpt>
      <trkpt lat="43.9844" lon="6.81165">
        <ele>1109.8</ele>
      </trkpt>
      <trkpt lat="43.9847" lon="6.81159">
        <ele>1122</ele>
      </trkpt>
      <trkpt lat="43.98475" lon="6.81147">
        <ele>1122.6</ele>
      </trkpt>
      <trkpt lat="43.98475" lon="6.8111">
        <ele>1117.7</ele>
      </trkpt>
      <trkpt lat="43.98515" lon="6.81002">
        <ele>1125.4</ele>
      </trkpt>
      <trkpt lat="43.98539" lon="6.80973">
        <ele>1139.2</ele>
      </trkpt>
      <trkpt lat="43.98538" lon="6.8093">
        <ele>1137.6</ele>
      </trkpt>
      <trkpt lat="43.98558" lon="6.80827">
        <ele>1144.3</ele>
      </trkpt>
      <trkpt lat="43.98569" lon="6.80757">
        <ele>1145.4</ele>
      </trkpt>
      <trkpt lat="43.98581" lon="6.80719">
        <ele>1149.1</ele>
      </trkpt>
      <trkpt lat="43.98595" lon="6.80688">
        <ele>1154.8</ele>
      </trkpt>
      <trkpt lat="43.98599" lon="6.80675">
        <ele>1156.2</ele>
      </trkpt>
      <trkpt lat="43.98599" lon="6.80663">
        <ele>1155.8</ele>
      </trkpt>
      <trkpt lat="43.98591" lon="6.8063">
        <ele>1153.2</ele>
      </trkpt>
      <trkpt lat="43.98574" lon="6.80583">
        <ele>1147.8</ele>
      </trkpt>
      <trkpt lat="43.98576" lon="6.80575">
        <ele>1149.7</ele>
      </trkpt>
      <trkpt lat="43.98583" lon="6.80575">
        <ele>1152.9</ele>
      </trkpt>
      <trkpt lat="43.98588" lon="6.80581">
        <ele>1154.9</ele>
      </trkpt>
      <trkpt lat="43.98599" lon="6.80617">
        <ele>1158.7</ele>
      </trkpt>
      <trkpt lat="43.98622" lon="6.80669">
        <ele>1169.8</ele>
      </trkpt>
      <trkpt lat="43.98624" lon="6.8068">
        <ele>1171.7</ele>
      </trkpt>
      <trkpt lat="43.98612" lon="6.80739">
        <ele>1168.4</ele>
      </trkpt>
      <trkpt lat="43.98606" lon="6.80823">
        <ele>1171.5</ele>
      </trkpt>
      <trkpt lat="43.98608" lon="6.80921">
        <ele>1178.9</ele>
      </trkpt>
      <trkpt lat="43.98612" lon="6.80962">
        <ele>1182.5</ele>
      </trkpt>
      <trkpt lat="43.98622" lon="6.80997">
        <ele>1189.2</ele>
      </trkpt>
      <trkpt lat="43.98616" lon="6.81019">
        <ele>1188.3</ele>
      </trkpt>
      <trkpt lat="43.98602" lon="6.81055">
        <ele>1184.6</ele>
      </trkpt>
      <trkpt lat="43.98593" lon="6.81117">
        <ele>1185.9</ele>
      </trkpt>
      <trkpt lat="43.98591" lon="6.81181">
        <ele>1191.2</ele>
      </trkpt>
      <trkpt lat="43.98593" lon="6.81206">
        <ele>1196.1</ele>
      </trkpt>
      <trkpt lat="43.986" lon="6.81228">
        <ele>1203.5</ele>
      </trkpt>
      <trkpt lat="43.98599" lon="6.81245">
        <ele>1205.3</ele>
      </trkpt>
      <trkpt lat="43.98592" lon="6.81259">
        <ele>1204.7</ele>
      </trkpt>
      <trkpt lat="43.98567" lon="6.81276">
        <ele>1197.1</ele>
      </trkpt>
      <trkpt lat="43.98533" lon="6.81337">
        <ele>1199.4</ele>
      </trkpt>
      <trkpt lat="43.98514" lon="6.81383">
        <ele>1202.9</ele>
      </trkpt>
      <trkpt lat="43.98504" lon="6.81422">
        <ele>1207.3</ele>
      </trkpt>
      <trkpt lat="43.98492" lon="6.81517">
        <ele>1213.4</ele>
      </trkpt>
      <trkpt lat="43.98488" lon="6.81608">
        <ele>1218.6</ele>
      </trkpt>
      <trkpt lat="43.98492" lon="6.81661">
        <ele>1224.3</ele>
      </trkpt>
      <trkpt lat="43.985" lon="6.81702">
        <ele>1232.5</ele>
      </trkpt>
      <trkpt lat="43.98507" lon="6.81728">
        <ele>1238.9</ele>
      </trkpt>
      <trkpt lat="43.98507" lon="6.81744">
        <ele>1240</ele>
      </trkpt>
      <trkpt lat="43.98483" lon="6.81798">
        <ele>1245.4</ele>
      </trkpt>
      <trkpt lat="43.98386" lon="6.81876">
        <ele>1242.1</ele>
      </trkpt>
      <trkpt lat="43.98359" lon="6.81913">
        <ele>1246.5</ele>
      </trkpt>
      <trkpt lat="43.98337" lon="6.81947">
        <ele>1249.1</ele>
      </trkpt>
      <trkpt lat="43.98279" lon="6.82076">
        <ele>1260.7</ele>
      </trkpt>
      <trkpt lat="43.98268" lon="6.82119">
        <ele>1265.4</ele>
      </trkpt>
      <trkpt lat="43.98264" lon="6.82164">
        <ele>1274.4</ele>
      </trkpt>
      <trkpt lat="43.98234" lon="6.82221">
        <ele>1278.3</ele>
      </trkpt>
      <trkpt lat="43.98201" lon="6.82261">
        <ele>1279.1</ele>
      </trkpt>
      <trkpt lat="43.98156" lon="6.82323">
        <ele>1281.5</ele>
      </trkpt>
      <trkpt lat="43.98143" lon="6.82345">
        <ele>1283.3</ele>
      </trkpt>
      <trkpt lat="43.98142" lon="6.82354">
        <ele>1286</ele>
      </trkpt>
      <trkpt lat="43.98147" lon="6.82356">
        <ele>1288.8</ele>
      </trkpt>
      <trkpt lat="43.98156" lon="6.82347">
        <ele>1289.5</ele>
      </trkpt>
      <trkpt lat="43.98172" lon="6.82324">
        <ele>1288.3</ele>
      </trkpt>
      <trkpt lat="43.98231" lon="6.82281">
        <ele>1297.6</ele>
      </trkpt>
      <trkpt lat="43.98282" lon="6.82238">
        <ele>1304.5</ele>
      </trkpt>
      <trkpt lat="43.98312" lon="6.82199">
        <ele>1308.1</ele>
      </trkpt>
      <trkpt lat="43.98333" lon="6.8213">
        <ele>1301.9</ele>
      </trkpt>
      <trkpt lat="43.98374" lon="6.82068">
        <ele>1309.8</ele>
      </trkpt>
      <trkpt lat="43.98428" lon="6.81992">
        <ele>1313.2</ele>
      </trkpt>
      <trkpt lat="43.98445" lon="6.81979">
        <ele>1312.9</ele>
      </trkpt>
      <trkpt lat="43.98479" lon="6.81982">
        <ele>1325.7</ele>
      </trkpt>
      <trkpt lat="43.98514" lon="6.81976">
        <ele>1334</ele>
      </trkpt>
      <trkpt lat="43.98541" lon="6.81962">
        <ele>1336</ele>
      </trkpt>
      <trkpt lat="43.98586" lon="6.8192">
        <ele>1335</ele>
      </trkpt>
      <trkpt lat="43.98626" lon="6.81877">
        <ele>1336.2</ele>
      </trkpt>
      <trkpt lat="43.98673" lon="6.81802">
        <ele>1342.4</ele>
      </trkpt>
      <trkpt lat="43.98679" lon="6.81777">
        <ele>1343.5</ele>
      </trkpt>
      <trkpt lat="43.98679" lon="6.81671">
        <ele>1346</ele>
      </trkpt>
      <trkpt lat="43.98681" lon="6.81637">
        <ele>1345.7</ele>
      </trkpt>
      <trkpt lat="43.98697" lon="6.81571">
        <ele>1348.8</ele>
      </trkpt>
      <trkpt lat="43.98717" lon="6.8153">
        <ele>1351.9</ele>
      </trkpt>
      <trkpt lat="43.98732" lon="6.81504">
        <ele>1354.8</ele>
      </trkpt>
      <trkpt lat="43.98783" lon="6.81442">
        <ele>1358.2</ele>
      </trkpt>
      <trkpt lat="43.98807" lon="6.81417">
        <ele>1361.8</ele>
      </trkpt>
      <trkpt lat="43.98852" lon="6.81386">
        <ele>1366</ele>
      </trkpt>
      <trkpt lat="43.98871" lon="6.8136">
        <ele>1365.7</ele>
      </trkpt>
      <trkpt lat="43.9889" lon="6.81322">
        <ele>1368.6</ele>
      </trkpt>
      <trkpt lat="43.98895" lon="6.81298">
        <ele>1369.9</ele>
      </trkpt>
      <trkpt lat="43.98901" lon="6.81274">
        <ele>1371.6</ele>
      </trkpt>
      <trkpt lat="43.98901" lon="6.81246">
        <ele>1371.7</ele>
      </trkpt>
      <trkpt lat="43.98924" lon="6.81133">
        <ele>1364.5</ele>
      </trkpt>
      <trkpt lat="43.98946" lon="6.81048">
        <ele>1354.7</ele>
      </trkpt>
      <trkpt lat="43.98959" lon="6.81007">
        <ele>1352.5</ele>
      </trkpt>
      <trkpt lat="43.98974" lon="6.8098">
        <ele>1351.2</ele>
      </trkpt>
      <trkpt lat="43.98985" lon="6.8095">
        <ele>1352.9</ele>
      </trkpt>
      <trkpt lat="43.9899" lon="6.80919">
        <ele>1356.8</ele>
      </trkpt>
      <trkpt lat="43.98997" lon="6.80832">
        <ele>1357.8</ele>
      </trkpt>
      <trkpt lat="43.99001" lon="6.80826">
        <ele>1358.1</ele>
      </trkpt>
      <trkpt lat="43.99008" lon="6.80831">
        <ele>1354.4</ele>
      </trkpt>
      <trkpt lat="43.99011" lon="6.8084">
        <ele>1352.5</ele>
      </trkpt>
      <trkpt lat="43.99011" lon="6.80888">
        <ele>1351.3</ele>
      </trkpt>
      <trkpt lat="43.99016" lon="6.8093">
        <ele>1345.3</ele>
      </trkpt>
      <trkpt lat="43.99015" lon="6.80947">
        <ele>1343</ele>
      </trkpt>
      <trkpt lat="43.99007" lon="6.80973">
        <ele>1343.3</ele>
      </trkpt>
      <trkpt lat="43.98989" lon="6.81016">
        <ele>1344</ele>
      </trkpt>
      <trkpt lat="43.9898" lon="6.81093">
        <ele>1341.1</ele>
      </trkpt>
      <trkpt lat="43.98982" lon="6.81135">
        <ele>1341.9</ele>
      </trkpt>
      <trkpt lat="43.99004" lon="6.812">
        <ele>1331.5</ele>
      </trkpt>
      <trkpt lat="43.99009" lon="6.81227">
        <ele>1326.8</ele>
      </trkpt>
      <trkpt lat="43.99009" lon="6.81267">
        <ele>1325.9</ele>
      </trkpt>
      <trkpt lat="43.99004" lon="6.81315">
        <ele>1329.8</ele>
      </trkpt>
      <trkpt lat="43.99013" lon="6.8136">
        <ele>1319.3</ele>
      </trkpt>
      <trkpt lat="43.99004" lon="6.81413">
        <ele>1317.7</ele>
      </trkpt>
      <trkpt lat="43.98999" lon="6.81429">
        <ele>1316.7</ele>
      </trkpt>
      <trkpt lat="43.98991" lon="6.81442">
        <ele>1317</ele>
      </trkpt>
      <trkpt lat="43.98971" lon="6.8147">
        <ele>1320.4</ele>
      </trkpt>
      <trkpt lat="43.98965" lon="6.81484">
        <ele>1320.4</ele>
      </trkpt>
      <trkpt lat="43.98937" lon="6.81643">
        <ele>1306.1</ele>
      </trkpt>
      <trkpt lat="43.98919" lon="6.81699">
        <ele>1310.5</ele>
      </trkpt>
      <trkpt lat="43.98917" lon="6.81736">
        <ele>1307.4</ele>
      </trkpt>
      <trkpt lat="43.98918" lon="6.81795">
        <ele>1300.2</ele>
      </trkpt>
      <trkpt lat="43.98923" lon="6.8189">
        <ele>1287.7</ele>
      </trkpt>
      <trkpt lat="43.98921" lon="6.81959">
        <ele>1281.7</ele>
      </trkpt>
      <trkpt lat="43.98912" lon="6.82005">
        <ele>1281.3</ele>
      </trkpt>
      <trkpt lat="43.98896" lon="6.8207">
        <ele>1271.8</ele>
      </trkpt>
      <trkpt lat="43.98863" lon="6.82132">
        <ele>1277.1</ele>
      </trkpt>
      <trkpt lat="43.98852" lon="6.82146">
        <ele>1281.7</ele>
      </trkpt>
      <trkpt lat="43.9884" lon="6.82159">
        <ele>1287.6</ele>
      </trkpt>
      <trkpt lat="43.98831" lon="6.82176">
        <ele>1290.7</ele>
      </trkpt>
      <trkpt lat="43.98835" lon="6.82188">
        <ele>1286.3</ele>
      </trkpt>
      <trkpt lat="43.98839" lon="6.82231">
        <ele>1276.3</ele>
      </trkpt>
      <trkpt lat="43.9884" lon="6.82282">
        <ele>1266.9</ele>
      </trkpt>
      <trkpt lat="43.98832" lon="6.82327">
        <ele>1265</ele>
      </trkpt>
      <trkpt lat="43.98819" lon="6.82369">
        <ele>1263.9</ele>
      </trkpt>
      <trkpt lat="43.98815" lon="6.82394">
        <ele>1260.7</ele>
      </trkpt>
      <trkpt lat="43.98809" lon="6.8242">
        <ele>1258.9</ele>
      </trkpt>
      <trkpt lat="43.988" lon="6.82441">
        <ele>1260</ele>
      </trkpt>
      <trkpt lat="43.98794" lon="6.82465">
        <ele>1258.3</ele>
      </trkpt>
      <trkpt lat="43.98784" lon="6.82519">
        <ele>1252</ele>
      </trkpt>
      <trkpt lat="43.98782" lon="6.82539">
        <ele>1248.4</ele>
      </trkpt>
      <trkpt lat="43.98777" lon="6.82559">
        <ele>1246.8</ele>
      </trkpt>
      <trkpt lat="43.98765" lon="6.82569">
        <ele>1252</ele>
      </trkpt>
      <trkpt lat="43.98745" lon="6.82577">
        <ele>1262.9</ele>
      </trkpt>
      <trkpt lat="43.98734" lon="6.82585">
        <ele>1268.6</ele>
      </trkpt>
      <trkpt lat="43.98735" lon="6.82601">
        <ele>1266.7</ele>
      </trkpt>
      <trkpt lat="43.98768" lon="6.82694">
        <ele>1235.6</ele>
      </trkpt>
      <trkpt lat="43.98769" lon="6.82711">
        <ele>1233.9</ele>
      </trkpt>
      <trkpt lat="43.98757" lon="6.82764">
        <ele>1238.5</ele>
      </trkpt>
      <trkpt lat="43.98763" lon="6.82802">
        <ele>1228.3</ele>
      </trkpt>
      <trkpt lat="43.98764" lon="6.82822">
        <ele>1224.5</ele>
      </trkpt>
      <trkpt lat="43.98758" lon="6.82854">
        <ele>1222.4</ele>
      </trkpt>
      <trkpt lat="43.98733" lon="6.82923">
        <ele>1225.9</ele>
      </trkpt>
      <trkpt lat="43.9873" lon="6.82941">
        <ele>1224.2</ele>
      </trkpt>
      <trkpt lat="43.98726" lon="6.82955">
        <ele>1224.1</ele>
      </trkpt>
      <trkpt lat="43.98701" lon="6.82986">
        <ele>1235.8</ele>
      </trkpt>
      <trkpt lat="43.98697" lon="6.83">
        <ele>1235.8</ele>
      </trkpt>
      <trkpt lat="43.98696" lon="6.83038">
        <ele>1232.4</ele>
      </trkpt>
      <trkpt lat="43.98711" lon="6.83083">
        <ele>1216.6</ele>
      </trkpt>
      <trkpt lat="43.98727" lon="6.83125">
        <ele>1205.3</ele>
      </trkpt>
      <trkpt lat="43.98735" lon="6.83147">
        <ele>1200</ele>
      </trkpt>
      <trkpt lat="43.98736" lon="6.83167">
        <ele>1199.5</ele>
      </trkpt>
      <trkpt lat="43.98733" lon="6.83186">
        <ele>1200.1</ele>
      </trkpt>
      <trkpt lat="43.98725" lon="6.83217">
        <ele>1202.9</ele>
      </trkpt>
      <trkpt lat="43.98721" lon="6.83262">
        <ele>1202.2</ele>
      </trkpt>
      <trkpt lat="43.98736" lon="6.83303">
        <ele>1190.7</ele>
      </trkpt>
      <trkpt lat="43.9874" lon="6.83336">
        <ele>1186.8</ele>
      </trkpt>
      <trkpt lat="43.98746" lon="6.8334">
        <ele>1182.9</ele>
      </trkpt>
      <trkpt lat="43.98751" lon="6.83337">
        <ele>1180.2</ele>
      </trkpt>
      <trkpt lat="43.98753" lon="6.8333">
        <ele>1179.5</ele>
      </trkpt>
      <trkpt lat="43.98752" lon="6.83317">
        <ele>1180.5</ele>
      </trkpt>
      <trkpt lat="43.98748" lon="6.833">
        <ele>1183.4</ele>
      </trkpt>
      <trkpt lat="43.98745" lon="6.83275">
        <ele>1186.3</ele>
      </trkpt>
      <trkpt lat="43.98749" lon="6.83254">
        <ele>1184.5</ele>
      </trkpt>
      <trkpt lat="43.98756" lon="6.83227">
        <ele>1182.5</ele>
      </trkpt>
      <trkpt lat="43.98774" lon="6.83189">
        <ele>1175</ele>
      </trkpt>
      <trkpt lat="43.98782" lon="6.83169">
        <ele>1171.5</ele>
      </trkpt>
      <trkpt lat="43.98789" lon="6.83132">
        <ele>1167.3</ele>
      </trkpt>
      <trkpt lat="43.98784" lon="6.83074">
        <ele>1170.3</ele>
      </trkpt>
      <trkpt lat="43.98788" lon="6.83062">
        <ele>1168.9</ele>
      </trkpt>
      <trkpt lat="43.98793" lon="6.83065">
        <ele>1165.9</ele>
      </trkpt>
      <trkpt lat="43.98799" lon="6.83105">
        <ele>1161.6</ele>
      </trkpt>
      <trkpt lat="43.98807" lon="6.83133">
        <ele>1157.2</ele>
      </trkpt>
      <trkpt lat="43.98809" lon="6.83173">
        <ele>1155.8</ele>
      </trkpt>
      <trkpt lat="43.98808" lon="6.83216">
        <ele>1155.1</ele>
      </trkpt>
      <trkpt lat="43.98814" lon="6.83231">
        <ele>1151.5</ele>
      </trkpt>
      <trkpt lat="43.98819" lon="6.83238">
        <ele>1148.7</ele>
      </trkpt>
      <trkpt lat="43.98826" lon="6.83246">
        <ele>1144.9</ele>
      </trkpt>
      <trkpt lat="43.98829" lon="6.8326">
        <ele>1142.8</ele>
      </trkpt>
      <trkpt lat="43.98825" lon="6.83272">
        <ele>1144.3</ele>
      </trkpt>
      <trkpt lat="43.98818" lon="6.83284">
        <ele>1147.4</ele>
      </trkpt>
      <trkpt lat="43.98817" lon="6.83297">
        <ele>1147.3</ele>
      </trkpt>
      <trkpt lat="43.98821" lon="6.83307">
        <ele>1144.7</ele>
      </trkpt>
      <trkpt lat="43.98846" lon="6.83329">
        <ele>1131.2</ele>
      </trkpt>
      <trkpt lat="43.98848" lon="6.83349">
        <ele>1128.4</ele>
      </trkpt>
      <trkpt lat="43.98821" lon="6.83405">
        <ele>1136.2</ele>
      </trkpt>
      <trkpt lat="43.98822" lon="6.83428">
        <ele>1133.7</ele>
      </trkpt>
      <trkpt lat="43.98836" lon="6.83456">
        <ele>1124.5</ele>
      </trkpt>
      <trkpt lat="43.98841" lon="6.83512">
        <ele>1119.2</ele>
      </trkpt>
      <trkpt lat="43.98844" lon="6.83584">
        <ele>1115.4</ele>
      </trkpt>
      <trkpt lat="43.98847" lon="6.83608">
        <ele>1112.7</ele>
      </trkpt>
      <trkpt lat="43.98846" lon="6.83665">
        <ele>1109.7</ele>
      </trkpt>
      <trkpt lat="43.98835" lon="6.83701">
        <ele>1108.5</ele>
      </trkpt>
      <trkpt lat="43.98839" lon="6.83709">
        <ele>1106.1</ele>
      </trkpt>
      <trkpt lat="43.98846" lon="6.83709">
        <ele>1104</ele>
      </trkpt>
      <trkpt lat="43.98849" lon="6.83703">
        <ele>1103.8</ele>
      </trkpt>
      <trkpt lat="43.98852" lon="6.83688">
        <ele>1104.8</ele>
      </trkpt>
      <trkpt lat="43.98874" lon="6.83624">
        <ele>1101.2</ele>
      </trkpt>
      <trkpt lat="43.98878" lon="6.83585">
        <ele>1100.7</ele>
      </trkpt>
      <trkpt lat="43.98887" lon="6.83551">
        <ele>1097.7</ele>
      </trkpt>
      <trkpt lat="43.98893" lon="6.83551">
        <ele>1095.1</ele>
      </trkpt>
      <trkpt lat="43.98897" lon="6.83557">
        <ele>1093.2</ele>
      </trkpt>
      <trkpt lat="43.98893" lon="6.83584">
        <ele>1094.2</ele>
      </trkpt>
      <trkpt lat="43.98912" lon="6.83691">
        <ele>1084.8</ele>
      </trkpt>
      <trkpt lat="43.98932" lon="6.83738">
        <ele>1078.8</ele>
      </trkpt>
      <trkpt lat="43.98958" lon="6.83794">
        <ele>1073</ele>
      </trkpt>
      <trkpt lat="43.98968" lon="6.83808">
        <ele>1071.9</ele>
      </trkpt>
      <trkpt lat="43.98971" lon="6.83803">
        <ele>1072.3</ele>
      </trkpt>
      <trkpt lat="43.98975" lon="6.83798">
        <ele>1072.7</ele>
      </trkpt>
      <trkpt lat="43.99046" lon="6.83713">
        <ele>1073.1</ele>
      </trkpt>
      <trkpt lat="43.99066" lon="6.83695">
        <ele>1070.8</ele>
      </trkpt>
      <trkpt lat="43.99085" lon="6.83686">
        <ele>1069.3</ele>
      </trkpt>
      <trkpt lat="43.99092" lon="6.8368">
        <ele>1068.5</ele>
      </trkpt>
      <trkpt lat="43.9911" lon="6.83649">
        <ele>1064.3</ele>
      </trkpt>
      <trkpt lat="43.99123" lon="6.83638">
        <ele>1063</ele>
      </trkpt>
      <trkpt lat="43.99133" lon="6.83637">
        <ele>1063</ele>
      </trkpt>
      <trkpt lat="43.99162" lon="6.83664">
        <ele>1067.5</ele>
      </trkpt>
      <trkpt lat="43.99184" lon="6.83676">
        <ele>1073.1</ele>
      </trkpt>
      <trkpt lat="43.99195" lon="6.83675">
        <ele>1074.7</ele>
      </trkpt>
      <trkpt lat="43.99202" lon="6.83669">
        <ele>1074.8</ele>
      </trkpt>
      <trkpt lat="43.99202" lon="6.83655">
        <ele>1073</ele>
      </trkpt>
      <trkpt lat="43.99183" lon="6.83613">
        <ele>1063.6</ele>
      </trkpt>
      <trkpt lat="43.9918" lon="6.8358">
        <ele>1058.3</ele>
      </trkpt>
      <trkpt lat="43.99182" lon="6.83565">
        <ele>1057.2</ele>
      </trkpt>
      <trkpt lat="43.99189" lon="6.83531">
        <ele>1055.2</ele>
      </trkpt>
      <trkpt lat="43.99187" lon="6.8351">
        <ele>1052.3</ele>
      </trkpt>
      <trkpt lat="43.99188" lon="6.83498">
        <ele>1051.1</ele>
      </trkpt>
      <trkpt lat="43.99198" lon="6.83485">
        <ele>1051.6</ele>
      </trkpt>
      <trkpt lat="43.9922" lon="6.83471">
        <ele>1054.2</ele>
      </trkpt>
      <trkpt lat="43.99242" lon="6.8346">
        <ele>1056.7</ele>
      </trkpt>
      <trkpt lat="43.99263" lon="6.83438">
        <ele>1054.3</ele>
      </trkpt>
      <trkpt lat="43.99272" lon="6.83437">
        <ele>1054.7</ele>
      </trkpt>
      <trkpt lat="43.99279" lon="6.83444">
        <ele>1056.4</ele>
      </trkpt>
      <trkpt lat="43.99282" lon="6.83454">
        <ele>1058.5</ele>
      </trkpt>
      <trkpt lat="43.99292" lon="6.83498">
        <ele>1067.1</ele>
      </trkpt>
      <trkpt lat="43.99299" lon="6.83503">
        <ele>1068.1</ele>
      </trkpt>
      <trkpt lat="43.99308" lon="6.83502">
        <ele>1068</ele>
      </trkpt>
      <trkpt lat="43.99319" lon="6.83489">
        <ele>1066</ele>
      </trkpt>
      <trkpt lat="43.99332" lon="6.83463">
        <ele>1062.2</ele>
      </trkpt>
      <trkpt lat="43.99347" lon="6.83411">
        <ele>1056.4</ele>
      </trkpt>
      <trkpt lat="43.99382" lon="6.83369">
        <ele>1054.7</ele>
      </trkpt>
      <trkpt lat="43.9939" lon="6.83364">
        <ele>1055</ele>
      </trkpt>
      <trkpt lat="43.99396" lon="6.83368">
        <ele>1056.6</ele>
      </trkpt>
      <trkpt lat="43.99408" lon="6.83382">
        <ele>1061</ele>
      </trkpt>
      <trkpt lat="43.9942" lon="6.83388">
        <ele>1063.5</ele>
      </trkpt>
      <trkpt lat="43.99428" lon="6.83381">
        <ele>1062.3</ele>
      </trkpt>
      <trkpt lat="43.9943" lon="6.83335">
        <ele>1053.6</ele>
      </trkpt>
      <trkpt lat="43.99433" lon="6.83327">
        <ele>1052.2</ele>
      </trkpt>
      <trkpt lat="43.99438" lon="6.83322">
        <ele>1051.3</ele>
      </trkpt>
      <trkpt lat="43.99443" lon="6.83321">
        <ele>1051.2</ele>
      </trkpt>
      <trkpt lat="43.9945" lon="6.83325">
        <ele>1052.2</ele>
      </trkpt>
      <trkpt lat="43.99494" lon="6.83365">
        <ele>1060.6</ele>
      </trkpt>
      <trkpt lat="43.99517" lon="6.83405">
        <ele>1070.2</ele>
      </trkpt>
      <trkpt lat="43.99526" lon="6.8341">
        <ele>1072.3</ele>
      </trkpt>
      <trkpt lat="43.99533" lon="6.83409">
        <ele>1073</ele>
      </trkpt>
      <trkpt lat="43.99538" lon="6.83405">
        <ele>1073</ele>
      </trkpt>
      <trkpt lat="43.99554" lon="6.83381">
        <ele>1071.3</ele>
      </trkpt>
      <trkpt lat="43.99561" lon="6.83354">
        <ele>1067.9</ele>
      </trkpt>
      <trkpt lat="43.99563" lon="6.83327">
        <ele>1064</ele>
      </trkpt>
      <trkpt lat="43.9956" lon="6.83316">
        <ele>1062</ele>
      </trkpt>
      <trkpt lat="43.99544" lon="6.83291">
        <ele>1055.4</ele>
      </trkpt>
      <trkpt lat="43.99537" lon="6.83269">
        <ele>1050.4</ele>
      </trkpt>
      <trkpt lat="43.99537" lon="6.83256">
        <ele>1048.3</ele>
      </trkpt>
      <trkpt lat="43.99538" lon="6.83243">
        <ele>1046.5</ele>
      </trkpt>
      <trkpt lat="43.99543" lon="6.83237">
        <ele>1046.8</ele>
      </trkpt>
      <trkpt lat="43.99552" lon="6.83231">
        <ele>1048.3</ele>
      </trkpt>
      <trkpt lat="43.99589" lon="6.83223">
        <ele>1056.5</ele>
      </trkpt>
      <trkpt lat="43.99592" lon="6.83216">
        <ele>1056.1</ele>
      </trkpt>
      <trkpt lat="43.99597" lon="6.83184">
        <ele>1052.5</ele>
      </trkpt>
      <trkpt lat="43.99607" lon="6.83146">
        <ele>1047.8</ele>
      </trkpt>
      <trkpt lat="43.99616" lon="6.83134">
        <ele>1046.4</ele>
      </trkpt>
      <trkpt lat="43.99629" lon="6.83128">
        <ele>1046.2</ele>
      </trkpt>
      <trkpt lat="43.99644" lon="6.8313">
        <ele>1047.7</ele>
      </trkpt>
      <trkpt lat="43.99695" lon="6.8316">
        <ele>1056</ele>
      </trkpt>
      <trkpt lat="43.99723" lon="6.83188">
        <ele>1061.7</ele>
      </trkpt>
      <trkpt lat="43.99731" lon="6.83192">
        <ele>1062.4</ele>
      </trkpt>
      <trkpt lat="43.99745" lon="6.83194">
        <ele>1062.4</ele>
      </trkpt>
      <trkpt lat="43.99759" lon="6.83188">
        <ele>1061.8</ele>
      </trkpt>
      <trkpt lat="43.99769" lon="6.83169">
        <ele>1057.5</ele>
      </trkpt>
      <trkpt lat="43.99779" lon="6.83159">
        <ele>1055.8</ele>
      </trkpt>
      <trkpt lat="43.998" lon="6.8315">
        <ele>1056</ele>
      </trkpt>
      <trkpt lat="43.99819" lon="6.83122">
        <ele>1049.6</ele>
      </trkpt>
      <trkpt lat="43.99828" lon="6.83116">
        <ele>1048.9</ele>
      </trkpt>
      <trkpt lat="43.9984" lon="6.83111">
        <ele>1048.9</ele>
      </trkpt>
      <trkpt lat="43.99847" lon="6.83111">
        <ele>1049.8</ele>
      </trkpt>
      <trkpt lat="43.99853" lon="6.83117">
        <ele>1052.6</ele>
      </trkpt>
      <trkpt lat="43.99866" lon="6.83139">
        <ele>1061.6</ele>
      </trkpt>
      <trkpt lat="43.9987" lon="6.83142">
        <ele>1063.2</ele>
      </trkpt>
      <trkpt lat="43.99874" lon="6.83142">
        <ele>1063.7</ele>
      </trkpt>
      <trkpt lat="43.99884" lon="6.83141">
        <ele>1064.8</ele>
      </trkpt>
      <trkpt lat="43.99937" lon="6.83104">
        <ele>1062.5</ele>
      </trkpt>
      <trkpt lat="43.99946" lon="6.83093">
        <ele>1061.5</ele>
      </trkpt>
      <trkpt lat="43.99951" lon="6.83082">
        <ele>1059.7</ele>
      </trkpt>
      <trkpt lat="43.99956" lon="6.83057">
        <ele>1058</ele>
      </trkpt>
      <trkpt lat="43.99964" lon="6.83028">
        <ele>1056.7</ele>
      </trkpt>
      <trkpt lat="43.99976" lon="6.82976">
        <ele>1053.3</ele>
      </trkpt>
      <trkpt lat="43.99981" lon="6.82966">
        <ele>1053.4</ele>
      </trkpt>
      <trkpt lat="44.00017" lon="6.8292">
        <ele>1057.8</ele>
      </trkpt>
      <trkpt lat="44.00021" lon="6.82912">
        <ele>1058</ele>
      </trkpt>
      <trkpt lat="44.00023" lon="6.82878">
        <ele>1054.3</ele>
      </trkpt>
      <trkpt lat="44.00034" lon="6.82841">
        <ele>1052</ele>
      </trkpt>
      <trkpt lat="44.00041" lon="6.82821">
        <ele>1050.8</ele>
      </trkpt>
      <trkpt lat="44.00054" lon="6.82804">
        <ele>1051.3</ele>
      </trkpt>
      <trkpt lat="44.00069" lon="6.82788">
        <ele>1052.2</ele>
      </trkpt>
      <trkpt lat="44.00081" lon="6.82769">
        <ele>1052.1</ele>
      </trkpt>
      <trkpt lat="44.00089" lon="6.82749">
        <ele>1051.2</ele>
      </trkpt>
      <trkpt lat="44.00089" lon="6.82728">
        <ele>1048.7</ele>
      </trkpt>
      <trkpt lat="44.00087" lon="6.82722">
        <ele>1047.5</ele>
      </trkpt>
      <trkpt lat="44.0007" lon="6.82706">
        <ele>1042.2</ele>
      </trkpt>
      <trkpt lat="44.00067" lon="6.82697">
        <ele>1040.6</ele>
      </trkpt>
      <trkpt lat="44.00069" lon="6.82686">
        <ele>1039.7</ele>
      </trkpt>
      <trkpt lat="44.00081" lon="6.82641">
        <ele>1035.9</ele>
      </trkpt>
      <trkpt lat="44.00086" lon="6.82628">
        <ele>1035</ele>
      </trkpt>
      <trkpt lat="44.00082" lon="6.82622">
        <ele>1033.3</ele>
      </trkpt>
      <trkpt lat="44.00074" lon="6.82615">
        <ele>1030.9</ele>
      </trkpt>
      <trkpt lat="44.00067" lon="6.82612">
        <ele>1029.2</ele>
      </trkpt>
      <trkpt lat="44.00057" lon="6.82615">
        <ele>1027.8</ele>
      </trkpt>
      <trkpt lat="44.00041" lon="6.82633">
        <ele>1027.5</ele>
      </trkpt>
      <trkpt lat="43.99992" lon="6.82682">
        <ele>1024.7</ele>
      </trkpt>
      <trkpt lat="43.99947" lon="6.82713">
        <ele>1017.3</ele>
      </trkpt>
      <trkpt lat="43.99938" lon="6.82721">
        <ele>1016</ele>
      </trkpt>
      <trkpt lat="43.99932" lon="6.8273">
        <ele>1015.5</ele>
      </trkpt>
      <trkpt lat="43.99922" lon="6.8276">
        <ele>1016.3</ele>
      </trkpt>
      <trkpt lat="43.99916" lon="6.82769">
        <ele>1015.7</ele>
      </trkpt>
      <trkpt lat="43.99908" lon="6.82778">
        <ele>1014.8</ele>
      </trkpt>
      <trkpt lat="43.99898" lon="6.82797">
        <ele>1014.4</ele>
      </trkpt>
      <trkpt lat="43.99895" lon="6.82808">
        <ele>1014.7</ele>
      </trkpt>
      <trkpt lat="43.99893" lon="6.82829">
        <ele>1016.2</ele>
      </trkpt>
      <trkpt lat="43.99891" lon="6.82835">
        <ele>1016.3</ele>
      </trkpt>
      <trkpt lat="43.99887" lon="6.82839">
        <ele>1015.7</ele>
      </trkpt>
      <trkpt lat="43.99884" lon="6.8284">
        <ele>1015.1</ele>
      </trkpt>
      <trkpt lat="43.9988" lon="6.82834">
        <ele>1013.7</ele>
      </trkpt>
      <trkpt lat="43.99877" lon="6.82804">
        <ele>1010.3</ele>
      </trkpt>
      <trkpt lat="43.99875" lon="6.82776">
        <ele>1007.3</ele>
      </trkpt>
      <trkpt lat="43.99877" lon="6.82759">
        <ele>1006.2</ele>
      </trkpt>
      <trkpt lat="43.99878" lon="6.82744">
        <ele>1004.9</ele>
      </trkpt>
      <trkpt lat="43.99879" lon="6.82734">
        <ele>1003.9</ele>
      </trkpt>
      <trkpt lat="43.99884" lon="6.82711">
        <ele>1002.2</ele>
      </trkpt>
      <trkpt lat="43.999" lon="6.82664">
        <ele>1000.5</ele>
      </trkpt>
      <trkpt lat="43.99915" lon="6.8258">
        <ele>993.1</ele>
      </trkpt>
      <trkpt lat="43.99919" lon="6.82566">
        <ele>991.8</ele>
      </trkpt>
      <trkpt lat="43.99933" lon="6.82541">
        <ele>991</ele>
      </trkpt>
      <trkpt lat="43.9994" lon="6.82524">
        <ele>989.9</ele>
      </trkpt>
      <trkpt lat="43.99948" lon="6.82498">
        <ele>987.5</ele>
      </trkpt>
      <trkpt lat="43.99956" lon="6.82482">
        <ele>987</ele>
      </trkpt>
      <trkpt lat="43.99966" lon="6.82469">
        <ele>987.6</ele>
      </trkpt>
      <trkpt lat="43.99965" lon="6.82464">
        <ele>986.7</ele>
      </trkpt>
      <trkpt lat="43.99962" lon="6.82462">
        <ele>985.7</ele>
      </trkpt>
      <trkpt lat="43.99958" lon="6.82465">
        <ele>985.1</ele>
      </trkpt>
      <trkpt lat="43.99939" lon="6.82496">
        <ele>985.2</ele>
      </trkpt>
      <trkpt lat="43.99904" lon="6.82531">
        <ele>983.4</ele>
      </trkpt>
      <trkpt lat="43.99894" lon="6.82537">
        <ele>982.2</ele>
      </trkpt>
      <trkpt lat="43.99865" lon="6.82545">
        <ele>977.3</ele>
      </trkpt>
      <trkpt lat="43.99858" lon="6.8255">
        <ele>976.4</ele>
      </trkpt>
      <trkpt lat="43.99851" lon="6.82561">
        <ele>976</ele>
      </trkpt>
      <trkpt lat="43.99846" lon="6.82585">
        <ele>977.2</ele>
      </trkpt>
      <trkpt lat="43.99833" lon="6.82609">
        <ele>977</ele>
      </trkpt>
      <trkpt lat="43.99824" lon="6.82614">
        <ele>975.9</ele>
      </trkpt>
      <trkpt lat="43.99815" lon="6.82609">
        <ele>973.6</ele>
      </trkpt>
      <trkpt lat="43.99812" lon="6.826">
        <ele>971.9</ele>
      </trkpt>
      <trkpt lat="43.99812" lon="6.82593">
        <ele>970.9</ele>
      </trkpt>
      <trkpt lat="43.99823" lon="6.82531">
        <ele>967.3</ele>
      </trkpt>
      <trkpt lat="43.99836" lon="6.82432">
        <ele>957.6</ele>
      </trkpt>
      <trkpt lat="43.99839" lon="6.82423">
        <ele>956.7</ele>
      </trkpt>
      <trkpt lat="43.99849" lon="6.82408">
        <ele>955.5</ele>
      </trkpt>
      <trkpt lat="43.99858" lon="6.82404">
        <ele>956.1</ele>
      </trkpt>
      <trkpt lat="43.99873" lon="6.824">
        <ele>957.6</ele>
      </trkpt>
      <trkpt lat="43.9988" lon="6.82396">
        <ele>958</ele>
      </trkpt>
      <trkpt lat="43.99887" lon="6.82388">
        <ele>957.9</ele>
      </trkpt>
      <trkpt lat="43.99894" lon="6.82378">
        <ele>957.6</ele>
      </trkpt>
      <trkpt lat="43.99897" lon="6.82369">
        <ele>956.9</ele>
      </trkpt>
      <trkpt lat="43.99885" lon="6.82269">
        <ele>940.2</ele>
      </trkpt>
      <trkpt lat="43.99885" lon="6.82256">
        <ele>938.3</ele>
      </trkpt>
      <trkpt lat="43.99888" lon="6.82241">
        <ele>936.8</ele>
      </trkpt>
      <trkpt lat="43.99898" lon="6.8222">
        <ele>935.7</ele>
      </trkpt>
      <trkpt lat="43.99937" lon="6.82186">
        <ele>940.9</ele>
      </trkpt>
      <trkpt lat="43.99937" lon="6.8218">
        <ele>939.8</ele>
      </trkpt>
      <trkpt lat="43.99933" lon="6.82178">
        <ele>937.9</ele>
      </trkpt>
      <trkpt lat="43.99921" lon="6.82186">
        <ele>935.1</ele>
      </trkpt>
      <trkpt lat="43.99909" lon="6.8219">
        <ele>932.8</ele>
      </trkpt>
      <trkpt lat="43.99889" lon="6.82188">
        <ele>928.9</ele>
      </trkpt>
      <trkpt lat="43.99878" lon="6.82185">
        <ele>926.6</ele>
      </trkpt>
      <trkpt lat="43.99823" lon="6.82164">
        <ele>915.1</ele>
      </trkpt>
      <trkpt lat="43.99821" lon="6.82158">
        <ele>913.5</ele>
      </trkpt>
      <trkpt lat="43.99822" lon="6.82151">
        <ele>912</ele>
      </trkpt>
      <trkpt lat="43.99829" lon="6.82148">
        <ele>912.1</ele>
      </trkpt>
      <trkpt lat="43.99849" lon="6.82147">
        <ele>914.7</ele>
      </trkpt>
      <trkpt lat="43.99873" lon="6.82148">
        <ele>918.6</ele>
      </trkpt>
      <trkpt lat="43.99885" lon="6.82153">
        <ele>921.7</ele>
      </trkpt>
      <trkpt lat="43.99892" lon="6.82152">
        <ele>922.5</ele>
      </trkpt>
      <trkpt lat="43.999" lon="6.82148">
        <ele>922.7</ele>
      </trkpt>
      <trkpt lat="43.99914" lon="6.82129">
        <ele>920.1</ele>
      </trkpt>
      <trkpt lat="43.99941" lon="6.82082">
        <ele>917.5</ele>
      </trkpt>
      <trkpt lat="43.99953" lon="6.82047">
        <ele>916.5</ele>
      </trkpt>
      <trkpt lat="43.99953" lon="6.82037">
        <ele>915</ele>
      </trkpt>
      <trkpt lat="43.99951" lon="6.82023">
        <ele>912</ele>
      </trkpt>
      <trkpt lat="43.9995" lon="6.82">
        <ele>908</ele>
      </trkpt>
      <trkpt lat="43.99954" lon="6.81969">
        <ele>907.4</ele>
      </trkpt>
      <trkpt lat="43.99954" lon="6.81948">
        <ele>905.8</ele>
      </trkpt>
      <trkpt lat="43.99951" lon="6.81922">
        <ele>902.5</ele>
      </trkpt>
      <trkpt lat="43.99955" lon="6.81902">
        <ele>902.1</ele>
      </trkpt>
      <trkpt lat="43.99956" lon="6.81872">
        <ele>898.7</ele>
      </trkpt>
      <trkpt lat="43.99971" lon="6.81827">
        <ele>900.3</ele>
      </trkpt>
      <trkpt lat="43.99977" lon="6.81778">
        <ele>895</ele>
      </trkpt>
      <trkpt lat="43.99979" lon="6.81736">
        <ele>889.5</ele>
      </trkpt>
      <trkpt lat="43.99983" lon="6.81713">
        <ele>888.4</ele>
      </trkpt>
      <trkpt lat="43.99995" lon="6.81692">
        <ele>890.6</ele>
      </trkpt>
      <trkpt lat="43.99996" lon="6.81676">
        <ele>888.8</ele>
      </trkpt>
      <trkpt lat="43.99995" lon="6.81655">
        <ele>886.3</ele>
      </trkpt>
      <trkpt lat="43.99998" lon="6.81642">
        <ele>886.5</ele>
      </trkpt>
      <trkpt lat="44.00006" lon="6.81618">
        <ele>888.1</ele>
      </trkpt>
      <trkpt lat="44.00019" lon="6.81497">
        <ele>881.9</ele>
      </trkpt>
      <trkpt lat="44.00019" lon="6.81407">
        <ele>872.5</ele>
      </trkpt>
      <trkpt lat="44.00027" lon="6.81392">
        <ele>872.6</ele>
      </trkpt>
      <trkpt lat="44.00038" lon="6.81379">
        <ele>873.4</ele>
      </trkpt>
      <trkpt lat="44.00063" lon="6.81334">
        <ele>872.7</ele>
      </trkpt>
      <trkpt lat="44.00071" lon="6.81308">
        <ele>870.4</ele>
      </trkpt>
      <trkpt lat="44.00085" lon="6.81269">
        <ele>867.6</ele>
      </trkpt>
      <trkpt lat="44.00088" lon="6.81244">
        <ele>864.6</ele>
      </trkpt>
      <trkpt lat="44.00115" lon="6.81183">
        <ele>862</ele>
      </trkpt>
      <trkpt lat="44.00126" lon="6.8115">
        <ele>859.6</ele>
      </trkpt>
      <trkpt lat="44.00132" lon="6.81127">
        <ele>857.9</ele>
      </trkpt>
      <trkpt lat="44.00135" lon="6.81101">
        <ele>854.6</ele>
      </trkpt>
      <trkpt lat="44.00143" lon="6.81076">
        <ele>853.3</ele>
      </trkpt>
      <trkpt lat="44.00157" lon="6.81041">
        <ele>852.2</ele>
      </trkpt>
      <trkpt lat="44.00171" lon="6.81005">
        <ele>850.3</ele>
      </trkpt>
      <trkpt lat="44.00179" lon="6.80991">
        <ele>850.6</ele>
      </trkpt>
      <trkpt lat="44.00209" lon="6.80956">
        <ele>853.2</ele>
      </trkpt>
      <trkpt lat="44.00229" lon="6.80918">
        <ele>850.5</ele>
      </trkpt>
      <trkpt lat="44.00247" lon="6.80869">
        <ele>841.9</ele>
      </trkpt>
      <trkpt lat="44.00254" lon="6.80859">
        <ele>840.7</ele>
      </trkpt>
      <trkpt lat="44.00311" lon="6.80819">
        <ele>840.1</ele>
      </trkpt>
      <trkpt lat="44.00341" lon="6.80804">
        <ele>839.5</ele>
      </trkpt>
      <trkpt lat="44.00367" lon="6.80798">
        <ele>841.4</ele>
      </trkpt>
      <trkpt lat="44.00394" lon="6.80806">
        <ele>847.3</ele>
      </trkpt>
      <trkpt lat="44.00415" lon="6.80809">
        <ele>850.6</ele>
      </trkpt>
      <trkpt lat="44.00417" lon="6.8081">
        <ele>851</ele>
      </trkpt>
      <trkpt lat="44.0042" lon="6.80806">
        <ele>851.4</ele>
      </trkpt>
      <trkpt lat="44.0042" lon="6.80798">
        <ele>850.4</ele>
      </trkpt>
      <trkpt lat="44.00391" lon="6.8075">
        <ele>835</ele>
      </trkpt>
      <trkpt lat="44.00345" lon="6.80694">
        <ele>818.6</ele>
      </trkpt>
      <trkpt lat="44.00342" lon="6.80689">
        <ele>817.3</ele>
      </trkpt>
      <trkpt lat="44.00338" lon="6.80681">
        <ele>815.5</ele>
      </trkpt>
      <trkpt lat="44.00331" lon="6.80642">
        <ele>809.9</ele>
      </trkpt>
      <trkpt lat="44.00333" lon="6.80613">
        <ele>806.6</ele>
      </trkpt>
      <trkpt lat="44.00352" lon="6.80552">
        <ele>800.3</ele>
      </trkpt>
      <trkpt lat="44.00364" lon="6.8052">
        <ele>794.5</ele>
      </trkpt>
      <trkpt lat="44.00393" lon="6.80503">
        <ele>797</ele>
      </trkpt>
      <trkpt lat="44.00427" lon="6.80496">
        <ele>802.4</ele>
      </trkpt>
      <trkpt lat="44.00458" lon="6.80487">
        <ele>805.8</ele>
      </trkpt>
      <trkpt lat="44.00472" lon="6.80471">
        <ele>803.2</ele>
      </trkpt>
      <trkpt lat="44.00488" lon="6.80446">
        <ele>798.8</ele>
      </trkpt>
      <trkpt lat="44.00521" lon="6.8037">
        <ele>788.3</ele>
      </trkpt>
      <trkpt lat="44.00537" lon="6.80309">
        <ele>779.9</ele>
      </trkpt>
      <trkpt lat="44.00573" lon="6.80257">
        <ele>780.3</ele>
      </trkpt>
      <trkpt lat="44.00604" lon="6.80247">
        <ele>784.1</ele>
      </trkpt>
      <trkpt lat="44.00612" lon="6.80241">
        <ele>783.7</ele>
      </trkpt>
      <trkpt lat="44.00631" lon="6.80201">
        <ele>776.7</ele>
      </trkpt>
      <trkpt lat="44.00662" lon="6.80194">
        <ele>778.4</ele>
      </trkpt>
      <trkpt lat="44.00665" lon="6.80188">
        <ele>777.2</ele>
      </trkpt>
      <trkpt lat="44.00663" lon="6.80181">
        <ele>775.2</ele>
      </trkpt>
      <trkpt lat="44.00657" lon="6.80179">
        <ele>774.1</ele>
      </trkpt>
      <trkpt lat="44.00571" lon="6.80189">
        <ele>764.8</ele>
      </trkpt>
      <trkpt lat="44.00561" lon="6.80195">
        <ele>762.8</ele>
      </trkpt>
      <trkpt lat="44.00499" lon="6.80264">
        <ele>758.5</ele>
      </trkpt>
      <trkpt lat="44.00487" lon="6.80287">
        <ele>759</ele>
      </trkpt>
      <trkpt lat="44.00484" lon="6.80291">
        <ele>758.6</ele>
      </trkpt>
      <trkpt lat="44.00481" lon="6.8029">
        <ele>757.4</ele>
      </trkpt>
      <trkpt lat="44.00482" lon="6.8028">
        <ele>755.9</ele>
      </trkpt>
      <trkpt lat="44.0053" lon="6.80166">
        <ele>745.9</ele>
      </trkpt>
      <trkpt lat="44.00584" lon="6.80079">
        <ele>743.6</ele>
      </trkpt>
      <trkpt lat="44.00607" lon="6.80028">
        <ele>731.9</ele>
      </trkpt>
      <trkpt lat="44.00641" lon="6.79976">
        <ele>725.3</ele>
      </trkpt>
      <trkpt lat="44.00671" lon="6.79953">
        <ele>724.8</ele>
      </trkpt>
      <trkpt lat="44.00711" lon="6.79961">
        <ele>718.4</ele>
      </trkpt>
      <trkpt lat="44.00788" lon="6.80033">
        <ele>719.3</ele>
      </trkpt>
      <trkpt lat="44.0083" lon="6.80073">
        <ele>716.9</ele>
      </trkpt>
      <trkpt lat="44.00845" lon="6.80088">
        <ele>711.3</ele>
      </trkpt>
      <trkpt lat="44.00862" lon="6.80131">
        <ele>711.3</ele>
      </trkpt>
      <trkpt lat="44.00865" lon="6.80176">
        <ele>723.7</ele>
      </trkpt>
      <trkpt lat="44.00891" lon="6.80224">
        <ele>712.3</ele>
      </trkpt>
      <trkpt lat="44.00884" lon="6.80262">
        <ele>731.9</ele>
      </trkpt>
      <trkpt lat="44.00892" lon="6.80273">
        <ele>728.7</ele>
      </trkpt>
      <trkpt lat="44.00925" lon="6.80273">
        <ele>699.1</ele>
      </trkpt>
      <trkpt lat="44.00926" lon="6.80284">
        <ele>702.9</ele>
      </trkpt>
      <trkpt lat="44.00927" lon="6.80317">
        <ele>716.1</ele>
      </trkpt>
      <trkpt lat="44.00946" lon="6.80318">
        <ele>698.8</ele>
      </trkpt>
      <trkpt lat="44.00964" lon="6.80338">
        <ele>689.3</ele>
      </trkpt>
      <trkpt lat="44.00985" lon="6.80381">
        <ele>686.1</ele>
      </trkpt>
      <trkpt lat="44.00978" lon="6.80427">
        <ele>710.2</ele>
      </trkpt>
      <trkpt lat="44.00984" lon="6.80444">
        <ele>712</ele>
      </trkpt>
      <trkpt lat="44.01016" lon="6.80447">
        <ele>690</ele>
      </trkpt>
      <trkpt lat="44.01026" lon="6.80451">
        <ele>685</ele>
      </trkpt>
      <trkpt lat="44.0105" lon="6.80488">
        <ele>682.9</ele>
      </trkpt>
      <trkpt lat="44.01054" lon="6.80499">
        <ele>684.1</ele>
      </trkpt>
      <trkpt lat="44.01054" lon="6.80528">
        <ele>692.3</ele>
      </trkpt>
      <trkpt lat="44.01067" lon="6.80548">
        <ele>688.6</ele>
      </trkpt>
      <trkpt lat="44.01079" lon="6.80554">
        <ele>681.7</ele>
      </trkpt>
      <trkpt lat="44.01098" lon="6.80559">
        <ele>674.3</ele>
      </trkpt>
      <trkpt lat="44.01106" lon="6.80583">
        <ele>677.9</ele>
      </trkpt>
      <trkpt lat="44.01119" lon="6.80596">
        <ele>678.1</ele>
      </trkpt>
      <trkpt lat="44.01126" lon="6.80616">
        <ele>683.7</ele>
      </trkpt>
      <trkpt lat="44.01132" lon="6.80618">
        <ele>682.3</ele>
      </trkpt>
      <trkpt lat="44.01151" lon="6.80604">
        <ele>669.1</ele>
      </trkpt>
      <trkpt lat="44.01165" lon="6.80608">
        <ele>665.6</ele>
      </trkpt>
      <trkpt lat="44.01201" lon="6.80652">
        <ele>666.2</ele>
      </trkpt>
      <trkpt lat="44.0123" lon="6.80675">
        <ele>658.8</ele>
      </trkpt>
      <trkpt lat="44.01248" lon="6.80702">
        <ele>660</ele>
      </trkpt>
      <trkpt lat="44.01273" lon="6.80716">
        <ele>655.2</ele>
      </trkpt>
      <trkpt lat="44.01289" lon="6.8073">
        <ele>653.2</ele>
      </trkpt>
      <trkpt lat="44.01309" lon="6.80774">
        <ele>659.4</ele>
      </trkpt>
      <trkpt lat="44.01319" lon="6.80768">
        <ele>651.8</ele>
      </trkpt>
      <trkpt lat="44.01326" lon="6.80768">
        <ele>648.1</ele>
      </trkpt>
      <trkpt lat="44.01346" lon="6.80795">
        <ele>650.5</ele>
      </trkpt>
      <trkpt lat="44.01394" lon="6.80834">
        <ele>647.6</ele>
      </trkpt>
      <trkpt lat="44.01446" lon="6.80888">
        <ele>650.1</ele>
      </trkpt>
      <trkpt lat="44.0153" lon="6.80943">
        <ele>645.8</ele>
      </trkpt>
      <trkpt lat="44.01589" lon="6.80948">
        <ele>640.8</ele>
      </trkpt>
      <trkpt lat="44.01624" lon="6.80926">
        <ele>636.6</ele>
      </trkpt>
      <trkpt lat="44.0163" lon="6.80925">
        <ele>636.3</ele>
      </trkpt>
      <trkpt lat="44.01636" lon="6.80927">
        <ele>636.6</ele>
      </trkpt>
      <trkpt lat="44.01642" lon="6.80939">
        <ele>638.6</ele>
      </trkpt>
      <trkpt lat="44.01643" lon="6.80941">
        <ele>639</ele>
      </trkpt>
      <trkpt lat="44.01648" lon="6.80947">
        <ele>640</ele>
      </trkpt>
      <trkpt lat="44.01658" lon="6.80949">
        <ele>640.3</ele>
      </trkpt>
      <trkpt lat="44.01679" lon="6.80946">
        <ele>641.9</ele>
      </trkpt>
      <trkpt lat="44.01701" lon="6.80924">
        <ele>639.2</ele>
      </trkpt>
      <trkpt lat="44.01717" lon="6.80889">
        <ele>634.6</ele>
      </trkpt>
      <trkpt lat="44.01722" lon="6.80887">
        <ele>634.7</ele>
      </trkpt>
      <trkpt lat="44.01743" lon="6.80893">
        <ele>637.3</ele>
      </trkpt>
      <trkpt lat="44.01756" lon="6.80892">
        <ele>637.7</ele>
      </trkpt>
      <trkpt lat="44.01764" lon="6.80885">
        <ele>636.9</ele>
      </trkpt>
      <trkpt lat="44.01789" lon="6.8085">
        <ele>637.1</ele>
      </trkpt>
      <trkpt lat="44.01798" lon="6.80833">
        <ele>638.8</ele>
      </trkpt>
      <trkpt lat="44.01806" lon="6.8084">
        <ele>639.7</ele>
      </trkpt>
      <trkpt lat="44.01816" lon="6.80843">
        <ele>641</ele>
      </trkpt>
      <trkpt lat="44.01835" lon="6.80844">
        <ele>643.4</ele>
      </trkpt>
      <trkpt lat="44.01841" lon="6.80842">
        <ele>643.3</ele>
      </trkpt>
      <trkpt lat="44.0185" lon="6.80833">
        <ele>644.2</ele>
      </trkpt>
      <trkpt lat="44.01861" lon="6.80819">
        <ele>650.9</ele>
      </trkpt>
      <trkpt lat="44.01869" lon="6.80811">
        <ele>654.9</ele>
      </trkpt>
      <trkpt lat="44.01909" lon="6.80805">
        <ele>657.2</ele>
      </trkpt>
      <trkpt lat="44.01923" lon="6.80806">
        <ele>657.2</ele>
      </trkpt>
      <trkpt lat="44.01942" lon="6.80813">
        <ele>655.3</ele>
      </trkpt>
      <trkpt lat="44.01956" lon="6.8082">
        <ele>653</ele>
      </trkpt>
      <trkpt lat="44.02003" lon="6.80855">
        <ele>646.1</ele>
      </trkpt>
      <trkpt lat="44.02014" lon="6.8086">
        <ele>645.8</ele>
      </trkpt>
      <trkpt lat="44.02029" lon="6.80862">
        <ele>646.7</ele>
      </trkpt>
      <trkpt lat="44.02044" lon="6.80862">
        <ele>648</ele>
      </trkpt>
      <trkpt lat="44.02071" lon="6.80863">
        <ele>650.1</ele>
      </trkpt>
      <trkpt lat="44.02097" lon="6.80863">
        <ele>650.7</ele>
      </trkpt>
      <trkpt lat="44.02108" lon="6.8087">
        <ele>648.9</ele>
      </trkpt>
      <trkpt lat="44.02131" lon="6.80894">
        <ele>644.9</ele>
      </trkpt>
      <trkpt lat="44.02134" lon="6.80898">
        <ele>644.5</ele>
      </trkpt>
      <trkpt lat="44.02152" lon="6.80919">
        <ele>643.6</ele>
      </trkpt>
      <trkpt lat="44.02177" lon="6.8095">
        <ele>649</ele>
      </trkpt>
      <trkpt lat="44.02185" lon="6.80964">
        <ele>651.9</ele>
      </trkpt>
      <trkpt lat="44.02189" lon="6.80978">
        <ele>653.7</ele>
      </trkpt>
      <trkpt lat="44.02189" lon="6.81003">
        <ele>653.9</ele>
      </trkpt>
      <trkpt lat="44.02193" lon="6.81015">
        <ele>652.9</ele>
      </trkpt>
      <trkpt lat="44.02198" lon="6.81025">
        <ele>652.3</ele>
      </trkpt>
      <trkpt lat="44.02207" lon="6.81033">
        <ele>653.1</ele>
      </trkpt>
      <trkpt lat="44.02217" lon="6.81037">
        <ele>654.8</ele>
      </trkpt>
      <trkpt lat="44.02244" lon="6.8104">
        <ele>661</ele>
      </trkpt>
      <trkpt lat="44.02255" lon="6.81045">
        <ele>662.9</ele>
      </trkpt>
      <trkpt lat="44.02294" lon="6.8108">
        <ele>663.6</ele>
      </trkpt>
      <trkpt lat="44.02307" lon="6.81089">
        <ele>664.4</ele>
      </trkpt>
      <trkpt lat="44.02388" lon="6.81131">
        <ele>670.9</ele>
      </trkpt>
      <trkpt lat="44.02401" lon="6.8114">
        <ele>670.3</ele>
      </trkpt>
      <trkpt lat="44.02428" lon="6.81157">
        <ele>670.1</ele>
      </trkpt>
      <trkpt lat="44.02443" lon="6.81171">
        <ele>669.8</ele>
      </trkpt>
      <trkpt lat="44.02531" lon="6.81246">
        <ele>664.2</ele>
      </trkpt>
      <trkpt lat="44.02533" lon="6.81248">
        <ele>663.6</ele>
      </trkpt>
      <trkpt lat="44.02549" lon="6.81262">
        <ele>662.3</ele>
      </trkpt>
      <trkpt lat="44.02617" lon="6.81312">
        <ele>665.7</ele>
      </trkpt>
      <trkpt lat="44.02627" lon="6.81319">
        <ele>667.1</ele>
      </trkpt>
      <trkpt lat="44.02636" lon="6.81327">
        <ele>668.3</ele>
      </trkpt>
      <trkpt lat="44.02641" lon="6.81332">
        <ele>669</ele>
      </trkpt>
      <trkpt lat="44.02645" lon="6.81337">
        <ele>669.5</ele>
      </trkpt>
      <trkpt lat="44.02649" lon="6.81342">
        <ele>670</ele>
      </trkpt>
      <trkpt lat="44.02652" lon="6.81346">
        <ele>670.3</ele>
      </trkpt>
      <trkpt lat="44.02657" lon="6.81353">
        <ele>670.9</ele>
      </trkpt>
      <trkpt lat="44.02721" lon="6.81443">
        <ele>685</ele>
      </trkpt>
      <trkpt lat="44.02725" lon="6.81456">
        <ele>684.9</ele>
      </trkpt>
      <trkpt lat="44.02743" lon="6.81512">
        <ele>684.8</ele>
      </trkpt>
      <trkpt lat="44.02763" lon="6.81563">
        <ele>684.4</ele>
      </trkpt>
      <trkpt lat="44.02776" lon="6.81601">
        <ele>685.3</ele>
      </trkpt>
      <trkpt lat="44.02801" lon="6.81662">
        <ele>687.5</ele>
      </trkpt>
      <trkpt lat="44.02809" lon="6.81679">
        <ele>687.9</ele>
      </trkpt>
      <trkpt lat="44.02835" lon="6.81727">
        <ele>690.3</ele>
      </trkpt>
      <trkpt lat="44.02842" lon="6.81744">
        <ele>692.1</ele>
      </trkpt>
      <trkpt lat="44.02858" lon="6.81802">
        <ele>694.6</ele>
      </trkpt>
      <trkpt lat="44.02868" lon="6.81854">
        <ele>691.9</ele>
      </trkpt>
      <trkpt lat="44.0288" lon="6.81886">
        <ele>692.2</ele>
      </trkpt>
      <trkpt lat="44.02888" lon="6.81901">
        <ele>693.1</ele>
      </trkpt>
      <trkpt lat="44.02907" lon="6.81929">
        <ele>697.2</ele>
      </trkpt>
      <trkpt lat="44.02913" lon="6.8194">
        <ele>698.6</ele>
      </trkpt>
      <trkpt lat="44.02916" lon="6.81945">
        <ele>699.3</ele>
      </trkpt>
      <trkpt lat="44.02924" lon="6.81962">
        <ele>701.1</ele>
      </trkpt>
      <trkpt lat="44.02937" lon="6.81996">
        <ele>703.1</ele>
      </trkpt>
      <trkpt lat="44.02942" lon="6.82013">
        <ele>704.3</ele>
      </trkpt>
      <trkpt lat="44.02944" lon="6.82031">
        <ele>704.1</ele>
      </trkpt>
      <trkpt lat="44.0294" lon="6.82078">
        <ele>698.3</ele>
      </trkpt>
      <trkpt lat="44.02943" lon="6.82094">
        <ele>698.1</ele>
      </trkpt>
      <trkpt lat="44.02955" lon="6.82141">
        <ele>698.5</ele>
      </trkpt>
      <trkpt lat="44.02961" lon="6.82154">
        <ele>700.2</ele>
      </trkpt>
      <trkpt lat="44.03001" lon="6.82191">
        <ele>712.1</ele>
      </trkpt>
      <trkpt lat="44.03031" lon="6.82229">
        <ele>713.9</ele>
      </trkpt>
      <trkpt lat="44.03039" lon="6.82241">
        <ele>714.4</ele>
      </trkpt>
      <trkpt lat="44.03056" lon="6.82284">
        <ele>710.8</ele>
      </trkpt>
      <trkpt lat="44.03064" lon="6.82299">
        <ele>710.7</ele>
      </trkpt>
      <trkpt lat="44.03126" lon="6.82386">
        <ele>727.8</ele>
      </trkpt>
      <trkpt lat="44.03133" lon="6.824">
        <ele>729.7</ele>
      </trkpt>
      <trkpt lat="44.03138" lon="6.82417">
        <ele>729.6</ele>
      </trkpt>
      <trkpt lat="44.03146" lon="6.82472">
        <ele>722.1</ele>
      </trkpt>
      <trkpt lat="44.0315" lon="6.82487">
        <ele>721.2</ele>
      </trkpt>
      <trkpt lat="44.03155" lon="6.825">
        <ele>721.3</ele>
      </trkpt>
      <trkpt lat="44.03171" lon="6.82522">
        <ele>720.2</ele>
      </trkpt>
      <trkpt lat="44.03182" lon="6.82546">
        <ele>711.7</ele>
      </trkpt>
      <trkpt lat="44.03187" lon="6.82553">
        <ele>709.3</ele>
      </trkpt>
      <trkpt lat="44.03195" lon="6.8256">
        <ele>707.5</ele>
      </trkpt>
      <trkpt lat="44.03205" lon="6.82564">
        <ele>707.4</ele>
      </trkpt>
      <trkpt lat="44.03215" lon="6.82563">
        <ele>709.9</ele>
      </trkpt>
      <trkpt lat="44.03237" lon="6.82554">
        <ele>719.8</ele>
      </trkpt>
      <trkpt lat="44.03249" lon="6.82554">
        <ele>722.4</ele>
      </trkpt>
      <trkpt lat="44.0326" lon="6.82559">
        <ele>722.9</ele>
      </trkpt>
      <trkpt lat="44.03355" lon="6.82614">
        <ele>728.1</ele>
      </trkpt>
      <trkpt lat="44.03382" lon="6.82628">
        <ele>734.4</ele>
      </trkpt>
      <trkpt lat="44.03394" lon="6.82637">
        <ele>735.7</ele>
      </trkpt>
      <trkpt lat="44.0342" lon="6.82672">
        <ele>731.7</ele>
      </trkpt>
      <trkpt lat="44.03431" lon="6.8268">
        <ele>733</ele>
      </trkpt>
      <trkpt lat="44.03442" lon="6.82685">
        <ele>735</ele>
      </trkpt>
      <trkpt lat="44.03466" lon="6.8269">
        <ele>740.8</ele>
      </trkpt>
      <trkpt lat="44.03503" lon="6.82692">
        <ele>752</ele>
      </trkpt>
      <trkpt lat="44.03514" lon="6.82695">
        <ele>756.4</ele>
      </trkpt>
      <trkpt lat="44.03524" lon="6.82702">
        <ele>758.7</ele>
      </trkpt>
      <trkpt lat="44.03532" lon="6.82712">
        <ele>758.8</ele>
      </trkpt>
      <trkpt lat="44.03538" lon="6.82725">
        <ele>756.6</ele>
      </trkpt>
      <trkpt lat="44.03549" lon="6.82761">
        <ele>747.3</ele>
      </trkpt>
      <trkpt lat="44.03555" lon="6.82775">
        <ele>744.4</ele>
      </trkpt>
      <trkpt lat="44.03564" lon="6.82787">
        <ele>743.4</ele>
      </trkpt>
      <trkpt lat="44.03628" lon="6.82837">
        <ele>746.8</ele>
      </trkpt>
      <trkpt lat="44.03657" lon="6.82852">
        <ele>751</ele>
      </trkpt>
      <trkpt lat="44.03712" lon="6.82871">
        <ele>761.1</ele>
      </trkpt>
      <trkpt lat="44.03722" lon="6.82877">
        <ele>762.5</ele>
      </trkpt>
      <trkpt lat="44.03729" lon="6.82885">
        <ele>762.6</ele>
      </trkpt>
      <trkpt lat="44.03735" lon="6.82897">
        <ele>761.4</ele>
      </trkpt>
      <trkpt lat="44.03739" lon="6.8291">
        <ele>759.5</ele>
      </trkpt>
      <trkpt lat="44.03771" lon="6.83047">
        <ele>751.4</ele>
      </trkpt>
      <trkpt lat="44.03775" lon="6.83062">
        <ele>750</ele>
      </trkpt>
      <trkpt lat="44.03781" lon="6.83073">
        <ele>749.9</ele>
      </trkpt>
      <trkpt lat="44.03789" lon="6.83082">
        <ele>750.9</ele>
      </trkpt>
      <trkpt lat="44.03799" lon="6.83086">
        <ele>753.5</ele>
      </trkpt>
      <trkpt lat="44.03822" lon="6.83091">
        <ele>760.5</ele>
      </trkpt>
      <trkpt lat="44.03834" lon="6.83097">
        <ele>763.7</ele>
      </trkpt>
      <trkpt lat="44.03844" lon="6.83106">
        <ele>766.6</ele>
      </trkpt>
      <trkpt lat="44.03853" lon="6.83118">
        <ele>768.6</ele>
      </trkpt>
      <trkpt lat="44.0386" lon="6.83131">
        <ele>769.6</ele>
      </trkpt>
      <trkpt lat="44.03865" lon="6.83147">
        <ele>769.1</ele>
      </trkpt>
      <trkpt lat="44.03882" lon="6.83208">
        <ele>766.9</ele>
      </trkpt>
      <trkpt lat="44.03892" lon="6.83243">
        <ele>765.7</ele>
      </trkpt>
      <trkpt lat="44.03908" lon="6.8329">
        <ele>769.1</ele>
      </trkpt>
      <trkpt lat="44.03911" lon="6.83307">
        <ele>769.2</ele>
      </trkpt>
      <trkpt lat="44.03918" lon="6.83375">
        <ele>773.9</ele>
      </trkpt>
      <trkpt lat="44.03912" lon="6.83399">
        <ele>772.9</ele>
      </trkpt>
      <trkpt lat="44.03897" lon="6.83433">
        <ele>765.7</ele>
      </trkpt>
      <trkpt lat="44.03894" lon="6.83446">
        <ele>764.2</ele>
      </trkpt>
      <trkpt lat="44.03894" lon="6.83474">
        <ele>764.6</ele>
      </trkpt>
      <trkpt lat="44.03897" lon="6.83487">
        <ele>766.4</ele>
      </trkpt>
      <trkpt lat="44.03902" lon="6.835">
        <ele>769.3</ele>
      </trkpt>
      <trkpt lat="44.03908" lon="6.83512">
        <ele>769.1</ele>
      </trkpt>
      <trkpt lat="44.03922" lon="6.83531">
        <ele>767.4</ele>
      </trkpt>
      <trkpt lat="44.0393" lon="6.83538">
        <ele>765.1</ele>
      </trkpt>
      <trkpt lat="44.03939" lon="6.83542">
        <ele>763.7</ele>
      </trkpt>
      <trkpt lat="44.03949" lon="6.83542">
        <ele>763.4</ele>
      </trkpt>
      <trkpt lat="44.03957" lon="6.83538">
        <ele>764.2</ele>
      </trkpt>
      <trkpt lat="44.03965" lon="6.8353">
        <ele>765.7</ele>
      </trkpt>
      <trkpt lat="44.03986" lon="6.83499">
        <ele>770.6</ele>
      </trkpt>
      <trkpt lat="44.04018" lon="6.83465">
        <ele>774</ele>
      </trkpt>
      <trkpt lat="44.04041" lon="6.83429">
        <ele>775.3</ele>
      </trkpt>
      <trkpt lat="44.04045" lon="6.83416">
        <ele>776.4</ele>
      </trkpt>
      <trkpt lat="44.04052" lon="6.83364">
        <ele>782.4</ele>
      </trkpt>
      <trkpt lat="44.0406" lon="6.8333">
        <ele>785.7</ele>
      </trkpt>
      <trkpt lat="44.0407" lon="6.83301">
        <ele>789.5</ele>
      </trkpt>
      <trkpt lat="44.04127" lon="6.8323">
        <ele>794.3</ele>
      </trkpt>
      <trkpt lat="44.04154" lon="6.83179">
        <ele>802.8</ele>
      </trkpt>
      <trkpt lat="44.04163" lon="6.83168">
        <ele>803</ele>
      </trkpt>
      <trkpt lat="44.04173" lon="6.83161">
        <ele>803.7</ele>
      </trkpt>
      <trkpt lat="44.04181" lon="6.83159">
        <ele>803</ele>
      </trkpt>
      <trkpt lat="44.04191" lon="6.83159">
        <ele>800.8</ele>
      </trkpt>
      <trkpt lat="44.04198" lon="6.83163">
        <ele>797.4</ele>
      </trkpt>
      <trkpt lat="44.04202" lon="6.83166">
        <ele>795.1</ele>
      </trkpt>
      <trkpt lat="44.04205" lon="6.8317">
        <ele>793.7</ele>
      </trkpt>
      <trkpt lat="44.04207" lon="6.83175">
        <ele>792.5</ele>
      </trkpt>
      <trkpt lat="44.04215" lon="6.83212">
        <ele>786.9</ele>
      </trkpt>
      <trkpt lat="44.04216" lon="6.83265">
        <ele>785</ele>
      </trkpt>
      <trkpt lat="44.04215" lon="6.83276">
        <ele>786.5</ele>
      </trkpt>
      <trkpt lat="44.04177" lon="6.83369">
        <ele>787.8</ele>
      </trkpt>
      <trkpt lat="44.04172" lon="6.83397">
        <ele>789.8</ele>
      </trkpt>
      <trkpt lat="44.04172" lon="6.83412">
        <ele>791.9</ele>
      </trkpt>
      <trkpt lat="44.04186" lon="6.83458">
        <ele>802.6</ele>
      </trkpt>
      <trkpt lat="44.04187" lon="6.8347">
        <ele>804.1</ele>
      </trkpt>
      <trkpt lat="44.04185" lon="6.83482">
        <ele>804.1</ele>
      </trkpt>
      <trkpt lat="44.0418" lon="6.83492">
        <ele>802.6</ele>
      </trkpt>
      <trkpt lat="44.04174" lon="6.835">
        <ele>800.4</ele>
      </trkpt>
      <trkpt lat="44.04152" lon="6.83519">
        <ele>793.6</ele>
      </trkpt>
      <trkpt lat="44.04137" lon="6.83545">
        <ele>792</ele>
      </trkpt>
      <trkpt lat="44.04132" lon="6.83562">
        <ele>793.6</ele>
      </trkpt>
      <trkpt lat="44.0413" lon="6.83585">
        <ele>798.3</ele>
      </trkpt>
      <trkpt lat="44.04124" lon="6.83612">
        <ele>803.8</ele>
      </trkpt>
      <trkpt lat="44.04117" lon="6.83625">
        <ele>804.9</ele>
      </trkpt>
      <trkpt lat="44.04056" lon="6.83684">
        <ele>799.6</ele>
      </trkpt>
      <trkpt lat="44.04042" lon="6.83705">
        <ele>799.1</ele>
      </trkpt>
      <trkpt lat="44.0403" lon="6.83726">
        <ele>798.4</ele>
      </trkpt>
      <trkpt lat="44.04026" lon="6.83736">
        <ele>798.7</ele>
      </trkpt>
      <trkpt lat="44.04025" lon="6.83749">
        <ele>801.5</ele>
      </trkpt>
      <trkpt lat="44.04027" lon="6.8376">
        <ele>799.8</ele>
      </trkpt>
      <trkpt lat="44.04029" lon="6.83769">
        <ele>798.2</ele>
      </trkpt>
      <trkpt lat="44.04035" lon="6.83779">
        <ele>799.6</ele>
      </trkpt>
      <trkpt lat="44.04056" lon="6.83798">
        <ele>811.8</ele>
      </trkpt>
      <trkpt lat="44.04066" lon="6.83809">
        <ele>818.3</ele>
      </trkpt>
      <trkpt lat="44.04091" lon="6.83847">
        <ele>827.6</ele>
      </trkpt>
      <trkpt lat="44.041" lon="6.83854">
        <ele>828.8</ele>
      </trkpt>
      <trkpt lat="44.04119" lon="6.83859">
        <ele>837</ele>
      </trkpt>
      <trkpt lat="44.04138" lon="6.83867">
        <ele>844.8</ele>
      </trkpt>
      <trkpt lat="44.04151" lon="6.83884">
        <ele>847.2</ele>
      </trkpt>
      <trkpt lat="44.04159" lon="6.8391">
        <ele>845.1</ele>
      </trkpt>
      <trkpt lat="44.04169" lon="6.83933">
        <ele>842</ele>
      </trkpt>
      <trkpt lat="44.04187" lon="6.83952">
        <ele>844.9</ele>
      </trkpt>
      <trkpt lat="44.0423" lon="6.83994">
        <ele>864.5</ele>
      </trkpt>
      <trkpt lat="44.04251" lon="6.84013">
        <ele>866.7</ele>
      </trkpt>
      <trkpt lat="44.04264" lon="6.84024">
        <ele>854.8</ele>
      </trkpt>
      <trkpt lat="44.04277" lon="6.84029">
        <ele>850.1</ele>
      </trkpt>
      <trkpt lat="44.04291" lon="6.84032">
        <ele>847.9</ele>
      </trkpt>
      <trkpt lat="44.0431" lon="6.8404">
        <ele>842.8</ele>
      </trkpt>
      <trkpt lat="44.04327" lon="6.84045">
        <ele>841.2</ele>
      </trkpt>
      <trkpt lat="44.04336" lon="6.8405">
        <ele>838.7</ele>
      </trkpt>
      <trkpt lat="44.04342" lon="6.84054">
        <ele>835.8</ele>
      </trkpt>
      <trkpt lat="44.04347" lon="6.84063">
        <ele>830.5</ele>
      </trkpt>
      <trkpt lat="44.04359" lon="6.84073">
        <ele>825.2</ele>
      </trkpt>
      <trkpt lat="44.04368" lon="6.84075">
        <ele>824.3</ele>
      </trkpt>
      <trkpt lat="44.04376" lon="6.84073">
        <ele>825.2</ele>
      </trkpt>
      <trkpt lat="44.04383" lon="6.84066">
        <ele>827.7</ele>
      </trkpt>
      <trkpt lat="44.04395" lon="6.84043">
        <ele>834.3</ele>
      </trkpt>
      <trkpt lat="44.04403" lon="6.84021">
        <ele>839.1</ele>
      </trkpt>
      <trkpt lat="44.0441" lon="6.84012">
        <ele>839.5</ele>
      </trkpt>
      <trkpt lat="44.04427" lon="6.84008">
        <ele>840.6</ele>
      </trkpt>
      <trkpt lat="44.04435" lon="6.84013">
        <ele>841.7</ele>
      </trkpt>
      <trkpt lat="44.04441" lon="6.84021">
        <ele>842.1</ele>
      </trkpt>
      <trkpt lat="44.04453" lon="6.84041">
        <ele>843.5</ele>
      </trkpt>
      <trkpt lat="44.04459" lon="6.84057">
        <ele>844.5</ele>
      </trkpt>
      <trkpt lat="44.04462" lon="6.84073">
        <ele>844.8</ele>
      </trkpt>
      <trkpt lat="44.04462" lon="6.84104">
        <ele>846.5</ele>
      </trkpt>
      <trkpt lat="44.04467" lon="6.84127">
        <ele>852.7</ele>
      </trkpt>
      <trkpt lat="44.04472" lon="6.8414">
        <ele>858.8</ele>
      </trkpt>
      <trkpt lat="44.04486" lon="6.84154">
        <ele>874.3</ele>
      </trkpt>
      <trkpt lat="44.04612" lon="6.84249">
        <ele>887.3</ele>
      </trkpt>
      <trkpt lat="44.04646" lon="6.84276">
        <ele>868.1</ele>
      </trkpt>
      <trkpt lat="44.04667" lon="6.84287">
        <ele>856.2</ele>
      </trkpt>
      <trkpt lat="44.04708" lon="6.84302">
        <ele>858.8</ele>
      </trkpt>
      <trkpt lat="44.0473" lon="6.84297">
        <ele>866.7</ele>
      </trkpt>
      <trkpt lat="44.04739" lon="6.84299">
        <ele>868.3</ele>
      </trkpt>
      <trkpt lat="44.04745" lon="6.84306">
        <ele>867.4</ele>
      </trkpt>
      <trkpt lat="44.04749" lon="6.84314">
        <ele>866</ele>
      </trkpt>
      <trkpt lat="44.04752" lon="6.84347">
        <ele>855.8</ele>
      </trkpt>
      <trkpt lat="44.04762" lon="6.84361">
        <ele>854.1</ele>
      </trkpt>
      <trkpt lat="44.0478" lon="6.84374">
        <ele>855.6</ele>
      </trkpt>
      <trkpt lat="44.04851" lon="6.84421">
        <ele>848.8</ele>
      </trkpt>
      <trkpt lat="44.04861" lon="6.84425">
        <ele>842.6</ele>
      </trkpt>
      <trkpt lat="44.0487" lon="6.84425">
        <ele>838.3</ele>
      </trkpt>
      <trkpt lat="44.04878" lon="6.84415">
        <ele>837.5</ele>
      </trkpt>
      <trkpt lat="44.04885" lon="6.84402">
        <ele>838</ele>
      </trkpt>
      <trkpt lat="44.04901" lon="6.84354">
        <ele>843.9</ele>
      </trkpt>
      <trkpt lat="44.04939" lon="6.84265">
        <ele>859.3</ele>
      </trkpt>
      <trkpt lat="44.04955" lon="6.84234">
        <ele>867.1</ele>
      </trkpt>
      <trkpt lat="44.0496" lon="6.84229">
        <ele>867.9</ele>
      </trkpt>
      <trkpt lat="44.0497" lon="6.84224">
        <ele>867.6</ele>
      </trkpt>
      <trkpt lat="44.04978" lon="6.84225">
        <ele>865.4</ele>
      </trkpt>
      <trkpt lat="44.04985" lon="6.84229">
        <ele>862.2</ele>
      </trkpt>
      <trkpt lat="44.05006" lon="6.84254">
        <ele>853.1</ele>
      </trkpt>
      <trkpt lat="44.05015" lon="6.84269">
        <ele>853.6</ele>
      </trkpt>
      <trkpt lat="44.0502" lon="6.84291">
        <ele>850</ele>
      </trkpt>
      <trkpt lat="44.05023" lon="6.84316">
        <ele>844.4</ele>
      </trkpt>
      <trkpt lat="44.05026" lon="6.84335">
        <ele>840.6</ele>
      </trkpt>
      <trkpt lat="44.05028" lon="6.84345">
        <ele>839</ele>
      </trkpt>
      <trkpt lat="44.05025" lon="6.84362">
        <ele>833</ele>
      </trkpt>
      <trkpt lat="44.05014" lon="6.84402">
        <ele>817.2</ele>
      </trkpt>
      <trkpt lat="44.05013" lon="6.84417">
        <ele>813</ele>
      </trkpt>
      <trkpt lat="44.05015" lon="6.84433">
        <ele>809.1</ele>
      </trkpt>
      <trkpt lat="44.05022" lon="6.84443">
        <ele>809.4</ele>
      </trkpt>
      <trkpt lat="44.0503" lon="6.8445">
        <ele>811</ele>
      </trkpt>
      <trkpt lat="44.05039" lon="6.84453">
        <ele>814.4</ele>
      </trkpt>
      <trkpt lat="44.05049" lon="6.8445">
        <ele>819.9</ele>
      </trkpt>
      <trkpt lat="44.05071" lon="6.84426">
        <ele>837.4</ele>
      </trkpt>
      <trkpt lat="44.05088" lon="6.84411">
        <ele>848.8</ele>
      </trkpt>
      <trkpt lat="44.05092" lon="6.84409">
        <ele>850.3</ele>
      </trkpt>
      <trkpt lat="44.05105" lon="6.84415">
        <ele>851.2</ele>
      </trkpt>
      <trkpt lat="44.0515" lon="6.84464">
        <ele>846.2</ele>
      </trkpt>
      <trkpt lat="44.05182" lon="6.84501">
        <ele>840.5</ele>
      </trkpt>
      <trkpt lat="44.05196" lon="6.84519">
        <ele>835.9</ele>
      </trkpt>
      <trkpt lat="44.05203" lon="6.84522">
        <ele>835.5</ele>
      </trkpt>
      <trkpt lat="44.05219" lon="6.84522">
        <ele>836.9</ele>
      </trkpt>
      <trkpt lat="44.05241" lon="6.84509">
        <ele>844.2</ele>
      </trkpt>
      <trkpt lat="44.0525" lon="6.84508">
        <ele>845.6</ele>
      </trkpt>
      <trkpt lat="44.05271" lon="6.84512">
        <ele>844</ele>
      </trkpt>
      <trkpt lat="44.05288" lon="6.84516">
        <ele>842.6</ele>
      </trkpt>
      <trkpt lat="44.05298" lon="6.84518">
        <ele>842</ele>
      </trkpt>
      <trkpt lat="44.05302" lon="6.84528">
        <ele>838.5</ele>
      </trkpt>
      <trkpt lat="44.05306" lon="6.84557">
        <ele>828.5</ele>
      </trkpt>
      <trkpt lat="44.0531" lon="6.84565">
        <ele>826</ele>
      </trkpt>
      <trkpt lat="44.05314" lon="6.84571">
        <ele>824.3</ele>
      </trkpt>
      <trkpt lat="44.05324" lon="6.84577">
        <ele>823.2</ele>
      </trkpt>
      <trkpt lat="44.05331" lon="6.84578">
        <ele>823.5</ele>
      </trkpt>
      <trkpt lat="44.05338" lon="6.84575">
        <ele>824</ele>
      </trkpt>
      <trkpt lat="44.05344" lon="6.84569">
        <ele>825.1</ele>
      </trkpt>
      <trkpt lat="44.05348" lon="6.8456">
        <ele>827.5</ele>
      </trkpt>
      <trkpt lat="44.05361" lon="6.84506">
        <ele>844.3</ele>
      </trkpt>
      <trkpt lat="44.05369" lon="6.84496">
        <ele>847.4</ele>
      </trkpt>
      <trkpt lat="44.0538" lon="6.84493">
        <ele>847.9</ele>
      </trkpt>
      <trkpt lat="44.05388" lon="6.84492">
        <ele>847.9</ele>
      </trkpt>
      <trkpt lat="44.05433" lon="6.8452">
        <ele>836.1</ele>
      </trkpt>
      <trkpt lat="44.05452" lon="6.84528">
        <ele>834.2</ele>
      </trkpt>
      <trkpt lat="44.05464" lon="6.84528">
        <ele>834.9</ele>
      </trkpt>
      <trkpt lat="44.05504" lon="6.84519">
        <ele>841.9</ele>
      </trkpt>
      <trkpt lat="44.05515" lon="6.84519">
        <ele>845.4</ele>
      </trkpt>
      <trkpt lat="44.05523" lon="6.84525">
        <ele>845.9</ele>
      </trkpt>
      <trkpt lat="44.0553" lon="6.84537">
        <ele>844.4</ele>
      </trkpt>
      <trkpt lat="44.05533" lon="6.84546">
        <ele>842.8</ele>
      </trkpt>
      <trkpt lat="44.05536" lon="6.84557">
        <ele>840.6</ele>
      </trkpt>
      <trkpt lat="44.0554" lon="6.84577">
        <ele>836.5</ele>
      </trkpt>
      <trkpt lat="44.0555" lon="6.84602">
        <ele>838</ele>
      </trkpt>
      <trkpt lat="44.05553" lon="6.84613">
        <ele>838.8</ele>
      </trkpt>
      <trkpt lat="44.05554" lon="6.84628">
        <ele>838.3</ele>
      </trkpt>
      <trkpt lat="44.05552" lon="6.84642">
        <ele>836.2</ele>
      </trkpt>
      <trkpt lat="44.05537" lon="6.84673">
        <ele>825.5</ele>
      </trkpt>
      <trkpt lat="44.05506" lon="6.84747">
        <ele>809.7</ele>
      </trkpt>
      <trkpt lat="44.05482" lon="6.84823">
        <ele>799.3</ele>
      </trkpt>
      <trkpt lat="44.05464" lon="6.84865">
        <ele>789.6</ele>
      </trkpt>
      <trkpt lat="44.05458" lon="6.84884">
        <ele>786.6</ele>
      </trkpt>
      <trkpt lat="44.05455" lon="6.849">
        <ele>785.4</ele>
      </trkpt>
      <trkpt lat="44.05454" lon="6.84915">
        <ele>785.4</ele>
      </trkpt>
      <trkpt lat="44.05458" lon="6.84931">
        <ele>788.3</ele>
      </trkpt>
      <trkpt lat="44.0547" lon="6.8495">
        <ele>793.9</ele>
      </trkpt>
      <trkpt lat="44.05492" lon="6.84973">
        <ele>799.6</ele>
      </trkpt>
      <trkpt lat="44.05508" lon="6.84976">
        <ele>805.7</ele>
      </trkpt>
      <trkpt lat="44.05519" lon="6.8499">
        <ele>809</ele>
      </trkpt>
      <trkpt lat="44.05521" lon="6.84991">
        <ele>809.8</ele>
      </trkpt>
      <trkpt lat="44.05523" lon="6.85018">
        <ele>807.8</ele>
      </trkpt>
      <trkpt lat="44.05527" lon="6.85032">
        <ele>808.2</ele>
      </trkpt>
      <trkpt lat="44.05535" lon="6.85043">
        <ele>809.7</ele>
      </trkpt>
      <trkpt lat="44.05567" lon="6.85063">
        <ele>814</ele>
      </trkpt>
      <trkpt lat="44.0558" lon="6.85074">
        <ele>812.9</ele>
      </trkpt>
      <trkpt lat="44.05586" lon="6.85079">
        <ele>811.9</ele>
      </trkpt>
      <trkpt lat="44.05591" lon="6.85083">
        <ele>811</ele>
      </trkpt>
      <trkpt lat="44.05597" lon="6.85083">
        <ele>811.8</ele>
      </trkpt>
      <trkpt lat="44.05617" lon="6.85074">
        <ele>817.6</ele>
      </trkpt>
      <trkpt lat="44.05622" lon="6.85073">
        <ele>818.5</ele>
      </trkpt>
      <trkpt lat="44.05629" lon="6.85079">
        <ele>817.1</ele>
      </trkpt>
      <trkpt lat="44.05635" lon="6.85087">
        <ele>814.9</ele>
      </trkpt>
      <trkpt lat="44.05644" lon="6.85109">
        <ele>808.2</ele>
      </trkpt>
      <trkpt lat="44.05649" lon="6.85113">
        <ele>807.4</ele>
      </trkpt>
      <trkpt lat="44.05654" lon="6.85114">
        <ele>807.7</ele>
      </trkpt>
      <trkpt lat="44.05661" lon="6.85113">
        <ele>808.9</ele>
      </trkpt>
      <trkpt lat="44.05684" lon="6.85092">
        <ele>821.7</ele>
      </trkpt>
      <trkpt lat="44.0569" lon="6.8509">
        <ele>824</ele>
      </trkpt>
      <trkpt lat="44.05699" lon="6.85094">
        <ele>825.2</ele>
      </trkpt>
      <trkpt lat="44.05709" lon="6.85105">
        <ele>824.6</ele>
      </trkpt>
      <trkpt lat="44.05724" lon="6.85143">
        <ele>817.8</ele>
      </trkpt>
      <trkpt lat="44.05727" lon="6.85154">
        <ele>815.6</ele>
      </trkpt>
      <trkpt lat="44.05728" lon="6.85204">
        <ele>802.7</ele>
      </trkpt>
      <trkpt lat="44.05734" lon="6.85223">
        <ele>800</ele>
      </trkpt>
      <trkpt lat="44.05739" lon="6.85231">
        <ele>799.8</ele>
      </trkpt>
      <trkpt lat="44.05747" lon="6.85239">
        <ele>800.7</ele>
      </trkpt>
      <trkpt lat="44.05754" lon="6.85248">
        <ele>799.3</ele>
      </trkpt>
      <trkpt lat="44.05766" lon="6.85259">
        <ele>794.7</ele>
      </trkpt>
      <trkpt lat="44.05771" lon="6.85261">
        <ele>793.7</ele>
      </trkpt>
      <trkpt lat="44.05779" lon="6.85259">
        <ele>794</ele>
      </trkpt>
      <trkpt lat="44.05788" lon="6.85252">
        <ele>796</ele>
      </trkpt>
      <trkpt lat="44.05795" lon="6.85248">
        <ele>797</ele>
      </trkpt>
      <trkpt lat="44.05802" lon="6.85247">
        <ele>797</ele>
      </trkpt>
      <trkpt lat="44.05808" lon="6.85247">
        <ele>796.7</ele>
      </trkpt>
      <trkpt lat="44.05819" lon="6.85256">
        <ele>792.9</ele>
      </trkpt>
      <trkpt lat="44.05825" lon="6.85262">
        <ele>790.7</ele>
      </trkpt>
      <trkpt lat="44.05832" lon="6.85264">
        <ele>789.7</ele>
      </trkpt>
      <trkpt lat="44.0584" lon="6.85261">
        <ele>789.6</ele>
      </trkpt>
      <trkpt lat="44.05849" lon="6.85252">
        <ele>791</ele>
      </trkpt>
      <trkpt lat="44.05856" lon="6.85239">
        <ele>795.2</ele>
      </trkpt>
      <trkpt lat="44.05865" lon="6.85229">
        <ele>798</ele>
      </trkpt>
      <trkpt lat="44.05885" lon="6.85201">
        <ele>806.7</ele>
      </trkpt>
      <trkpt lat="44.05892" lon="6.85195">
        <ele>808.1</ele>
      </trkpt>
      <trkpt lat="44.05908" lon="6.85187">
        <ele>808.9</ele>
      </trkpt>
      <trkpt lat="44.05924" lon="6.85187">
        <ele>810.5</ele>
      </trkpt>
      <trkpt lat="44.05951" lon="6.85198">
        <ele>816.7</ele>
      </trkpt>
      <trkpt lat="44.0596" lon="6.85204">
        <ele>817.6</ele>
      </trkpt>
      <trkpt lat="44.05966" lon="6.85212">
        <ele>816.3</ele>
      </trkpt>
      <trkpt lat="44.05978" lon="6.85235">
        <ele>810.2</ele>
      </trkpt>
      <trkpt lat="44.0598" lon="6.85249">
        <ele>804.3</ele>
      </trkpt>
      <trkpt lat="44.05973" lon="6.8527">
        <ele>795.9</ele>
      </trkpt>
      <trkpt lat="44.05973" lon="6.85277">
        <ele>794</ele>
      </trkpt>
      <trkpt lat="44.05979" lon="6.85292">
        <ele>792.1</ele>
      </trkpt>
      <trkpt lat="44.05983" lon="6.85299">
        <ele>791.6</ele>
      </trkpt>
      <trkpt lat="44.05992" lon="6.85305">
        <ele>793.1</ele>
      </trkpt>
      <trkpt lat="44.06008" lon="6.85311">
        <ele>797.5</ele>
      </trkpt>
      <trkpt lat="44.06013" lon="6.85318">
        <ele>797.7</ele>
      </trkpt>
      <trkpt lat="44.06015" lon="6.85329">
        <ele>795.6</ele>
      </trkpt>
      <trkpt lat="44.06011" lon="6.85362">
        <ele>784.7</ele>
      </trkpt>
      <trkpt lat="44.06012" lon="6.85369">
        <ele>783.2</ele>
      </trkpt>
      <trkpt lat="44.06015" lon="6.85376">
        <ele>782.7</ele>
      </trkpt>
      <trkpt lat="44.06024" lon="6.85384">
        <ele>784.7</ele>
      </trkpt>
      <trkpt lat="44.06042" lon="6.85388">
        <ele>792.1</ele>
      </trkpt>
      <trkpt lat="44.06052" lon="6.85395">
        <ele>795</ele>
      </trkpt>
      <trkpt lat="44.06062" lon="6.85409">
        <ele>796.4</ele>
      </trkpt>
      <trkpt lat="44.0607" lon="6.85423">
        <ele>795.9</ele>
      </trkpt>
      <trkpt lat="44.0608" lon="6.85434">
        <ele>795.2</ele>
      </trkpt>
      <trkpt lat="44.06088" lon="6.85433">
        <ele>795.9</ele>
      </trkpt>
      <trkpt lat="44.06151" lon="6.85385">
        <ele>795</ele>
      </trkpt>
      <trkpt lat="44.06164" lon="6.85374">
        <ele>794.4</ele>
      </trkpt>
      <trkpt lat="44.06197" lon="6.85355">
        <ele>781.1</ele>
      </trkpt>
      <trkpt lat="44.06207" lon="6.85341">
        <ele>777.9</ele>
      </trkpt>
      <trkpt lat="44.06213" lon="6.85327">
        <ele>776.1</ele>
      </trkpt>
      <trkpt lat="44.06215" lon="6.85311">
        <ele>776</ele>
      </trkpt>
      <trkpt lat="44.06214" lon="6.85297">
        <ele>777.6</ele>
      </trkpt>
      <trkpt lat="44.06201" lon="6.85211">
        <ele>788.7</ele>
      </trkpt>
      <trkpt lat="44.06198" lon="6.85174">
        <ele>790.3</ele>
      </trkpt>
      <trkpt lat="44.06197" lon="6.85152">
        <ele>790.9</ele>
      </trkpt>
      <trkpt lat="44.06202" lon="6.85091">
        <ele>788.2</ele>
      </trkpt>
      <trkpt lat="44.06209" lon="6.8504">
        <ele>787.8</ele>
      </trkpt>
      <trkpt lat="44.06224" lon="6.84979">
        <ele>782.9</ele>
      </trkpt>
      <trkpt lat="44.06225" lon="6.84966">
        <ele>782.5</ele>
      </trkpt>
      <trkpt lat="44.06225" lon="6.84953">
        <ele>782.7</ele>
      </trkpt>
      <trkpt lat="44.06214" lon="6.84902">
        <ele>789</ele>
      </trkpt>
      <trkpt lat="44.06216" lon="6.84889">
        <ele>787.9</ele>
      </trkpt>
      <trkpt lat="44.0622" lon="6.8488">
        <ele>785.9</ele>
      </trkpt>
      <trkpt lat="44.06226" lon="6.84871">
        <ele>783</ele>
      </trkpt>
      <trkpt lat="44.06236" lon="6.84867">
        <ele>778.1</ele>
      </trkpt>
      <trkpt lat="44.06295" lon="6.84867">
        <ele>783.2</ele>
      </trkpt>
      <trkpt lat="44.06298" lon="6.84867">
        <ele>784</ele>
      </trkpt>
      <trkpt lat="44.06305" lon="6.84869">
        <ele>785.7</ele>
      </trkpt>
      <trkpt lat="44.06314" lon="6.84875">
        <ele>787.5</ele>
      </trkpt>
      <trkpt lat="44.06322" lon="6.84888">
        <ele>788.3</ele>
      </trkpt>
      <trkpt lat="44.06326" lon="6.84903">
        <ele>787.8</ele>
      </trkpt>
      <trkpt lat="44.0635" lon="6.85103">
        <ele>781.4</ele>
      </trkpt>
      <trkpt lat="44.06351" lon="6.8513">
        <ele>782.9</ele>
      </trkpt>
      <trkpt lat="44.06343" lon="6.85253">
        <ele>780.7</ele>
      </trkpt>
      <trkpt lat="44.06344" lon="6.85283">
        <ele>779.2</ele>
      </trkpt>
      <trkpt lat="44.06347" lon="6.85307">
        <ele>778.8</ele>
      </trkpt>
      <trkpt lat="44.06352" lon="6.85339">
        <ele>778</ele>
      </trkpt>
      <trkpt lat="44.06354" lon="6.8538">
        <ele>773.6</ele>
      </trkpt>
      <trkpt lat="44.06361" lon="6.85399">
        <ele>772.8</ele>
      </trkpt>
      <trkpt lat="44.06372" lon="6.85409">
        <ele>773.7</ele>
      </trkpt>
      <trkpt lat="44.06381" lon="6.85409">
        <ele>775.5</ele>
      </trkpt>
      <trkpt lat="44.06417" lon="6.85387">
        <ele>788.5</ele>
      </trkpt>
      <trkpt lat="44.06433" lon="6.85384">
        <ele>788.8</ele>
      </trkpt>
      <trkpt lat="44.06462" lon="6.85393">
        <ele>785.4</ele>
      </trkpt>
      <trkpt lat="44.06482" lon="6.85395">
        <ele>784.1</ele>
      </trkpt>
      <trkpt lat="44.06489" lon="6.85394">
        <ele>784.2</ele>
      </trkpt>
      <trkpt lat="44.06514" lon="6.8538">
        <ele>788.1</ele>
      </trkpt>
      <trkpt lat="44.06611" lon="6.85392">
        <ele>786</ele>
      </trkpt>
      <trkpt lat="44.06694" lon="6.85399">
        <ele>788.2</ele>
      </trkpt>
      <trkpt lat="44.06734" lon="6.85413">
        <ele>786.7</ele>
      </trkpt>
      <trkpt lat="44.06747" lon="6.8542">
        <ele>785.4</ele>
      </trkpt>
      <trkpt lat="44.06787" lon="6.85449">
        <ele>779.9</ele>
      </trkpt>
      <trkpt lat="44.06814" lon="6.85464">
        <ele>778.3</ele>
      </trkpt>
      <trkpt lat="44.06827" lon="6.85468">
        <ele>778.9</ele>
      </trkpt>
      <trkpt lat="44.06842" lon="6.8547">
        <ele>779.9</ele>
      </trkpt>
      <trkpt lat="44.06914" lon="6.8547">
        <ele>785.7</ele>
      </trkpt>
      <trkpt lat="44.06925" lon="6.85472">
        <ele>788.8</ele>
      </trkpt>
      <trkpt lat="44.06936" lon="6.85479">
        <ele>791.3</ele>
      </trkpt>
      <trkpt lat="44.06945" lon="6.8549">
        <ele>791.7</ele>
      </trkpt>
      <trkpt lat="44.06998" lon="6.85583">
        <ele>776.5</ele>
      </trkpt>
      <trkpt lat="44.0702" lon="6.85607">
        <ele>777.7</ele>
      </trkpt>
      <trkpt lat="44.07035" lon="6.85616">
        <ele>779.9</ele>
      </trkpt>
      <trkpt lat="44.07148" lon="6.85662">
        <ele>780.3</ele>
      </trkpt>
      <trkpt lat="44.07181" lon="6.85673">
        <ele>782.9</ele>
      </trkpt>
      <trkpt lat="44.07289" lon="6.85684">
        <ele>798.5</ele>
      </trkpt>
      <trkpt lat="44.07442" lon="6.85712">
        <ele>780.5</ele>
      </trkpt>
      <trkpt lat="44.07465" lon="6.85731">
        <ele>778.2</ele>
      </trkpt>
      <trkpt lat="44.075" lon="6.85764">
        <ele>776.8</ele>
      </trkpt>
      <trkpt lat="44.07514" lon="6.85775">
        <ele>775.1</ele>
      </trkpt>
      <trkpt lat="44.07528" lon="6.85783">
        <ele>773.9</ele>
      </trkpt>
      <trkpt lat="44.07534" lon="6.85786">
        <ele>773.4</ele>
      </trkpt>
      <trkpt lat="44.07553" lon="6.85796">
        <ele>772.1</ele>
      </trkpt>
      <trkpt lat="44.0757" lon="6.85805">
        <ele>771.1</ele>
      </trkpt>
      <trkpt lat="44.07585" lon="6.85809">
        <ele>770.6</ele>
      </trkpt>
      <trkpt lat="44.07598" lon="6.85805">
        <ele>770.6</ele>
      </trkpt>
      <trkpt lat="44.07622" lon="6.85798">
        <ele>770</ele>
      </trkpt>
      <trkpt lat="44.0768" lon="6.85776">
        <ele>765.1</ele>
      </trkpt>
      <trkpt lat="44.07706" lon="6.85766">
        <ele>762.9</ele>
      </trkpt>
      <trkpt lat="44.0774" lon="6.85753">
        <ele>759.8</ele>
      </trkpt>
      <trkpt lat="44.07861" lon="6.85706">
        <ele>762.1</ele>
      </trkpt>
      <trkpt lat="44.07934" lon="6.85678">
        <ele>762</ele>
      </trkpt>
      <trkpt lat="44.08019" lon="6.85644">
        <ele>764.1</ele>
      </trkpt>
      <trkpt lat="44.08113" lon="6.85607">
        <ele>764.4</ele>
      </trkpt>
      <trkpt lat="44.08154" lon="6.85592">
        <ele>765.6</ele>
      </trkpt>
      <trkpt lat="44.08242" lon="6.85558">
        <ele>769.3</ele>
      </trkpt>
      <trkpt lat="44.08262" lon="6.8555">
        <ele>769.8</ele>
      </trkpt>
      <trkpt lat="44.08313" lon="6.85531">
        <ele>769.9</ele>
      </trkpt>
      <trkpt lat="44.08373" lon="6.85507">
        <ele>770.1</ele>
      </trkpt>
      <trkpt lat="44.08448" lon="6.85478">
        <ele>773.4</ele>
      </trkpt>
      <trkpt lat="44.08546" lon="6.85439">
        <ele>782.3</ele>
      </trkpt>
      <trkpt lat="44.08566" lon="6.85432">
        <ele>784.4</ele>
      </trkpt>
      <trkpt lat="44.08571" lon="6.8543">
        <ele>784.7</ele>
      </trkpt>
      <trkpt lat="44.08597" lon="6.85421">
        <ele>786.1</ele>
      </trkpt>
      <trkpt lat="44.08607" lon="6.8542">
        <ele>786.9</ele>
      </trkpt>
      <trkpt lat="44.08645" lon="6.85423">
        <ele>791.2</ele>
      </trkpt>
      <trkpt lat="44.08678" lon="6.85419">
        <ele>793.8</ele>
      </trkpt>
      <trkpt lat="44.08687" lon="6.85414">
        <ele>794.1</ele>
      </trkpt>
      <trkpt lat="44.08711" lon="6.85382">
        <ele>792.1</ele>
      </trkpt>
      <trkpt lat="44.08711" lon="6.85382">
        <ele>792.1</ele>
      </trkpt>
      <trkpt lat="44.08738" lon="6.85357">
        <ele>790.3</ele>
      </trkpt>
      <trkpt lat="44.08748" lon="6.85351">
        <ele>790</ele>
      </trkpt>
      <trkpt lat="44.08768" lon="6.8535">
        <ele>789</ele>
      </trkpt>
      <trkpt lat="44.08794" lon="6.85361">
        <ele>789</ele>
      </trkpt>
      <trkpt lat="44.08801" lon="6.85368">
        <ele>789.4</ele>
      </trkpt>
      <trkpt lat="44.08809" lon="6.85378">
        <ele>789.9</ele>
      </trkpt>
      <trkpt lat="44.08815" lon="6.85382">
        <ele>789.8</ele>
      </trkpt>
      <trkpt lat="44.08821" lon="6.85384">
        <ele>789.4</ele>
      </trkpt>
      <trkpt lat="44.08836" lon="6.85382">
        <ele>788.2</ele>
      </trkpt>
      <trkpt lat="44.08851" lon="6.85378">
        <ele>788.6</ele>
      </trkpt>
      <trkpt lat="44.08858" lon="6.85376">
        <ele>788.8</ele>
      </trkpt>
      <trkpt lat="44.0887" lon="6.85372">
        <ele>789.1</ele>
      </trkpt>
      <trkpt lat="44.08881" lon="6.85369">
        <ele>789.4</ele>
      </trkpt>
      <trkpt lat="44.08893" lon="6.85366">
        <ele>789.9</ele>
      </trkpt>
      <trkpt lat="44.08909" lon="6.85362">
        <ele>790.6</ele>
      </trkpt>
      <trkpt lat="44.08914" lon="6.8536">
        <ele>790.8</ele>
      </trkpt>
      <trkpt lat="44.0892" lon="6.85359">
        <ele>791.1</ele>
      </trkpt>
      <trkpt lat="44.08936" lon="6.85355">
        <ele>791.6</ele>
      </trkpt>
      <trkpt lat="44.08938" lon="6.85354">
        <ele>791.6</ele>
      </trkpt>
      <trkpt lat="44.08953" lon="6.8535">
        <ele>792</ele>
      </trkpt>
      <trkpt lat="44.08958" lon="6.85349">
        <ele>792.1</ele>
      </trkpt>
      <trkpt lat="44.08964" lon="6.85351">
        <ele>792.5</ele>
      </trkpt>
      <trkpt lat="44.08968" lon="6.85351">
        <ele>792.7</ele>
      </trkpt>
      <trkpt lat="44.08979" lon="6.85348">
        <ele>792.8</ele>
      </trkpt>
      <trkpt lat="44.08987" lon="6.85341">
        <ele>792.4</ele>
      </trkpt>
      <trkpt lat="44.08991" lon="6.8534">
        <ele>792.5</ele>
      </trkpt>
      <trkpt lat="44.09032" lon="6.85329">
        <ele>792.9</ele>
      </trkpt>
      <trkpt lat="44.09049" lon="6.85319">
        <ele>793</ele>
      </trkpt>
      <trkpt lat="44.091" lon="6.8529">
        <ele>793.6</ele>
      </trkpt>
      <trkpt lat="44.09146" lon="6.85268">
        <ele>793.4</ele>
      </trkpt>
      <trkpt lat="44.09178" lon="6.85253">
        <ele>793.1</ele>
      </trkpt>
      <trkpt lat="44.09247" lon="6.85219">
        <ele>795</ele>
      </trkpt>
      <trkpt lat="44.09256" lon="6.85218">
        <ele>795.7</ele>
      </trkpt>
      <trkpt lat="44.09266" lon="6.85219">
        <ele>796.8</ele>
      </trkpt>
      <trkpt lat="44.09279" lon="6.85228">
        <ele>798.9</ele>
      </trkpt>
      <trkpt lat="44.09288" lon="6.85235">
        <ele>800.5</ele>
      </trkpt>
      <trkpt lat="44.093" lon="6.85242">
        <ele>802.7</ele>
      </trkpt>
      <trkpt lat="44.09304" lon="6.85245">
        <ele>803.6</ele>
      </trkpt>
      <trkpt lat="44.09322" lon="6.85251">
        <ele>806.8</ele>
      </trkpt>
      <trkpt lat="44.09331" lon="6.85252">
        <ele>808.4</ele>
      </trkpt>
      <trkpt lat="44.09362" lon="6.85245">
        <ele>813.9</ele>
      </trkpt>
      <trkpt lat="44.09371" lon="6.85244">
        <ele>815.7</ele>
      </trkpt>
      <trkpt lat="44.09376" lon="6.85244">
        <ele>816.9</ele>
      </trkpt>
      <trkpt lat="44.09396" lon="6.85245">
        <ele>821.7</ele>
      </trkpt>
      <trkpt lat="44.09418" lon="6.85242">
        <ele>826.2</ele>
      </trkpt>
      <trkpt lat="44.09433" lon="6.85238">
        <ele>832.1</ele>
      </trkpt>
      <trkpt lat="44.09456" lon="6.85223">
        <ele>835.9</ele>
      </trkpt>
      <trkpt lat="44.09476" lon="6.85214">
        <ele>839.2</ele>
      </trkpt>
      <trkpt lat="44.09508" lon="6.85194">
        <ele>837.5</ele>
      </trkpt>
      <trkpt lat="44.09544" lon="6.85161">
        <ele>832.3</ele>
      </trkpt>
      <trkpt lat="44.09574" lon="6.85138">
        <ele>832</ele>
      </trkpt>
      <trkpt lat="44.096" lon="6.85115">
        <ele>824.4</ele>
      </trkpt>
      <trkpt lat="44.09633" lon="6.85084">
        <ele>814.8</ele>
      </trkpt>
      <trkpt lat="44.09649" lon="6.85068">
        <ele>814.7</ele>
      </trkpt>
      <trkpt lat="44.09658" lon="6.85047">
        <ele>811.8</ele>
      </trkpt>
      <trkpt lat="44.09667" lon="6.85034">
        <ele>809.8</ele>
      </trkpt>
      <trkpt lat="44.09699" lon="6.84999">
        <ele>809.3</ele>
      </trkpt>
      <trkpt lat="44.09747" lon="6.84966">
        <ele>812.9</ele>
      </trkpt>
      <trkpt lat="44.09832" lon="6.84924">
        <ele>816.9</ele>
      </trkpt>
      <trkpt lat="44.09876" lon="6.84924">
        <ele>826.3</ele>
      </trkpt>
      <trkpt lat="44.09886" lon="6.84922">
        <ele>827.2</ele>
      </trkpt>
      <trkpt lat="44.09901" lon="6.8491">
        <ele>825.4</ele>
      </trkpt>
      <trkpt lat="44.09919" lon="6.84903">
        <ele>826.9</ele>
      </trkpt>
      <trkpt lat="44.09958" lon="6.84894">
        <ele>833.8</ele>
      </trkpt>
      <trkpt lat="44.09968" lon="6.8489">
        <ele>834.5</ele>
      </trkpt>
      <trkpt lat="44.09994" lon="6.84885">
        <ele>838</ele>
      </trkpt>
      <trkpt lat="44.10019" lon="6.84884">
        <ele>839.3</ele>
      </trkpt>
      <trkpt lat="44.10031" lon="6.84875">
        <ele>835.1</ele>
      </trkpt>
      <trkpt lat="44.10049" lon="6.84855">
        <ele>825.8</ele>
      </trkpt>
      <trkpt lat="44.1007" lon="6.84845">
        <ele>821.9</ele>
      </trkpt>
      <trkpt lat="44.10079" lon="6.84844">
        <ele>821.9</ele>
      </trkpt>
      <trkpt lat="44.10089" lon="6.84846">
        <ele>823</ele>
      </trkpt>
      <trkpt lat="44.10111" lon="6.8486">
        <ele>828.6</ele>
      </trkpt>
      <trkpt lat="44.10134" lon="6.84878">
        <ele>834.5</ele>
      </trkpt>
      <trkpt lat="44.10214" lon="6.84916">
        <ele>841.6</ele>
      </trkpt>
      <trkpt lat="44.10241" lon="6.84918">
        <ele>840.9</ele>
      </trkpt>
      <trkpt lat="44.10271" lon="6.84925">
        <ele>843</ele>
      </trkpt>
      <trkpt lat="44.10359" lon="6.8494">
        <ele>850.2</ele>
      </trkpt>
      <trkpt lat="44.10376" lon="6.84943">
        <ele>853.3</ele>
      </trkpt>
      <trkpt lat="44.10382" lon="6.84942">
        <ele>854.1</ele>
      </trkpt>
      <trkpt lat="44.10388" lon="6.84937">
        <ele>854.5</ele>
      </trkpt>
      <trkpt lat="44.10393" lon="6.8493">
        <ele>854.6</ele>
      </trkpt>
      <trkpt lat="44.10396" lon="6.84923">
        <ele>854.4</ele>
      </trkpt>
      <trkpt lat="44.10405" lon="6.84869">
        <ele>850</ele>
      </trkpt>
      <trkpt lat="44.1041" lon="6.84857">
        <ele>849.5</ele>
      </trkpt>
      <trkpt lat="44.10423" lon="6.84839">
        <ele>851.3</ele>
      </trkpt>
      <trkpt lat="44.1044" lon="6.84822">
        <ele>854.8</ele>
      </trkpt>
      <trkpt lat="44.10463" lon="6.84782">
        <ele>854.1</ele>
      </trkpt>
      <trkpt lat="44.10486" lon="6.84754">
        <ele>854.7</ele>
      </trkpt>
      <trkpt lat="44.10506" lon="6.84722">
        <ele>855</ele>
      </trkpt>
      <trkpt lat="44.10525" lon="6.84694">
        <ele>854.9</ele>
      </trkpt>
      <trkpt lat="44.10527" lon="6.84691">
        <ele>854.9</ele>
      </trkpt>
      <trkpt lat="44.10557" lon="6.84652">
        <ele>856.4</ele>
      </trkpt>
      <trkpt lat="44.10601" lon="6.84611">
        <ele>865.8</ele>
      </trkpt>
      <trkpt lat="44.10607" lon="6.846">
        <ele>866.7</ele>
      </trkpt>
      <trkpt lat="44.10611" lon="6.84589">
        <ele>866.8</ele>
      </trkpt>
      <trkpt lat="44.10617" lon="6.84572">
        <ele>865.6</ele>
      </trkpt>
      <trkpt lat="44.10637" lon="6.84514">
        <ele>860.3</ele>
      </trkpt>
      <trkpt lat="44.10649" lon="6.84447">
        <ele>856.3</ele>
      </trkpt>
      <trkpt lat="44.10653" lon="6.84439">
        <ele>857</ele>
      </trkpt>
      <trkpt lat="44.10665" lon="6.84428">
        <ele>860.6</ele>
      </trkpt>
      <trkpt lat="44.10669" lon="6.8442">
        <ele>861.4</ele>
      </trkpt>
      <trkpt lat="44.10672" lon="6.8441">
        <ele>862</ele>
      </trkpt>
      <trkpt lat="44.10671" lon="6.844">
        <ele>861.1</ele>
      </trkpt>
      <trkpt lat="44.10664" lon="6.84366">
        <ele>856.6</ele>
      </trkpt>
      <trkpt lat="44.10664" lon="6.84354">
        <ele>856</ele>
      </trkpt>
      <trkpt lat="44.10667" lon="6.84341">
        <ele>856.5</ele>
      </trkpt>
      <trkpt lat="44.10692" lon="6.84272">
        <ele>863.8</ele>
      </trkpt>
      <trkpt lat="44.10714" lon="6.84201">
        <ele>868.8</ele>
      </trkpt>
      <trkpt lat="44.10717" lon="6.84187">
        <ele>868.9</ele>
      </trkpt>
      <trkpt lat="44.10722" lon="6.84146">
        <ele>867.3</ele>
      </trkpt>
      <trkpt lat="44.10728" lon="6.84122">
        <ele>867.3</ele>
      </trkpt>
      <trkpt lat="44.10752" lon="6.8407">
        <ele>870.4</ele>
      </trkpt>
      <trkpt lat="44.10779" lon="6.84006">
        <ele>873.8</ele>
      </trkpt>
      <trkpt lat="44.10784" lon="6.83982">
        <ele>873.2</ele>
      </trkpt>
      <trkpt lat="44.10784" lon="6.83957">
        <ele>870.9</ele>
      </trkpt>
      <trkpt lat="44.10786" lon="6.83945">
        <ele>870.5</ele>
      </trkpt>
      <trkpt lat="44.10803" lon="6.83897">
        <ele>869.5</ele>
      </trkpt>
      <trkpt lat="44.10807" lon="6.83876">
        <ele>866.9</ele>
      </trkpt>
      <trkpt lat="44.10808" lon="6.83868">
        <ele>865.7</ele>
      </trkpt>
      <trkpt lat="44.10813" lon="6.83855">
        <ele>864.6</ele>
      </trkpt>
      <trkpt lat="44.10819" lon="6.83845">
        <ele>864.1</ele>
      </trkpt>
      <trkpt lat="44.10827" lon="6.83835">
        <ele>864</ele>
      </trkpt>
      <trkpt lat="44.10856" lon="6.83809">
        <ele>867.2</ele>
      </trkpt>
      <trkpt lat="44.10866" lon="6.83801">
        <ele>867.9</ele>
      </trkpt>
      <trkpt lat="44.109" lon="6.83785">
        <ele>871.5</ele>
      </trkpt>
      <trkpt lat="44.10936" lon="6.83773">
        <ele>874.5</ele>
      </trkpt>
      <trkpt lat="44.11034" lon="6.83712">
        <ele>870.6</ele>
      </trkpt>
      <trkpt lat="44.11083" lon="6.83696">
        <ele>870.2</ele>
      </trkpt>
      <trkpt lat="44.11141" lon="6.83695">
        <ele>875.7</ele>
      </trkpt>
      <trkpt lat="44.11194" lon="6.83682">
        <ele>876.5</ele>
      </trkpt>
      <trkpt lat="44.11203" lon="6.83677">
        <ele>875.6</ele>
      </trkpt>
      <trkpt lat="44.11209" lon="6.83671">
        <ele>873.9</ele>
      </trkpt>
      <trkpt lat="44.11211" lon="6.83665">
        <ele>872.3</ele>
      </trkpt>
      <trkpt lat="44.11213" lon="6.8366">
        <ele>872.3</ele>
      </trkpt>
      <trkpt lat="44.11215" lon="6.83649">
        <ele>872.1</ele>
      </trkpt>
      <trkpt lat="44.1122" lon="6.8359">
        <ele>869.9</ele>
      </trkpt>
      <trkpt lat="44.11221" lon="6.8357">
        <ele>873.9</ele>
      </trkpt>
      <trkpt lat="44.1122" lon="6.83561">
        <ele>876.4</ele>
      </trkpt>
      <trkpt lat="44.11211" lon="6.83541">
        <ele>880.3</ele>
      </trkpt>
      <trkpt lat="44.11196" lon="6.8352">
        <ele>882.4</ele>
      </trkpt>
      <trkpt lat="44.11149" lon="6.83467">
        <ele>890.2</ele>
      </trkpt>
      <trkpt lat="44.111" lon="6.83425">
        <ele>888.8</ele>
      </trkpt>
      <trkpt lat="44.11089" lon="6.83417">
        <ele>886.3</ele>
      </trkpt>
      <trkpt lat="44.11077" lon="6.83412">
        <ele>885.6</ele>
      </trkpt>
      <trkpt lat="44.11002" lon="6.83399">
        <ele>883.3</ele>
      </trkpt>
      <trkpt lat="44.10978" lon="6.83388">
        <ele>883.4</ele>
      </trkpt>
      <trkpt lat="44.10956" lon="6.83373">
        <ele>883.8</ele>
      </trkpt>
      <trkpt lat="44.10948" lon="6.83367">
        <ele>883.8</ele>
      </trkpt>
      <trkpt lat="44.10945" lon="6.83364">
        <ele>884</ele>
      </trkpt>
      <trkpt lat="44.10926" lon="6.83344">
        <ele>884.2</ele>
      </trkpt>
      <trkpt lat="44.10913" lon="6.83321">
        <ele>885.1</ele>
      </trkpt>
      <trkpt lat="44.10902" lon="6.83285">
        <ele>887.4</ele>
      </trkpt>
      <trkpt lat="44.109" lon="6.83275">
        <ele>888.2</ele>
      </trkpt>
      <trkpt lat="44.10897" lon="6.83261">
        <ele>889.1</ele>
      </trkpt>
      <trkpt lat="44.10884" lon="6.8316">
        <ele>887.3</ele>
      </trkpt>
      <trkpt lat="44.10881" lon="6.8312">
        <ele>886.4</ele>
      </trkpt>
      <trkpt lat="44.10893" lon="6.83004">
        <ele>905.6</ele>
      </trkpt>
      <trkpt lat="44.10889" lon="6.82971">
        <ele>903.9</ele>
      </trkpt>
      <trkpt lat="44.10882" lon="6.82941">
        <ele>899.1</ele>
      </trkpt>
      <trkpt lat="44.10879" lon="6.82925">
        <ele>897.1</ele>
      </trkpt>
      <trkpt lat="44.10879" lon="6.82891">
        <ele>898.2</ele>
      </trkpt>
      <trkpt lat="44.10887" lon="6.82798">
        <ele>898.6</ele>
      </trkpt>
      <trkpt lat="44.10892" lon="6.82766">
        <ele>894.3</ele>
      </trkpt>
      <trkpt lat="44.10895" lon="6.82751">
        <ele>892.3</ele>
      </trkpt>
      <trkpt lat="44.10921" lon="6.82674">
        <ele>895.2</ele>
      </trkpt>
      <trkpt lat="44.10924" lon="6.82658">
        <ele>896.7</ele>
      </trkpt>
      <trkpt lat="44.10924" lon="6.82643">
        <ele>897.6</ele>
      </trkpt>
      <trkpt lat="44.10915" lon="6.82599">
        <ele>895</ele>
      </trkpt>
      <trkpt lat="44.1091" lon="6.82563">
        <ele>895.3</ele>
      </trkpt>
      <trkpt lat="44.1091" lon="6.8247">
        <ele>896.8</ele>
      </trkpt>
      <trkpt lat="44.10912" lon="6.82441">
        <ele>893.6</ele>
      </trkpt>
      <trkpt lat="44.10918" lon="6.82405">
        <ele>890.2</ele>
      </trkpt>
      <trkpt lat="44.10924" lon="6.82372">
        <ele>886.2</ele>
      </trkpt>
      <trkpt lat="44.10935" lon="6.82342">
        <ele>885.2</ele>
      </trkpt>
      <trkpt lat="44.10972" lon="6.82296">
        <ele>892.5</ele>
      </trkpt>
      <trkpt lat="44.10984" lon="6.82286">
        <ele>893.4</ele>
      </trkpt>
      <trkpt lat="44.11007" lon="6.82271">
        <ele>895.5</ele>
      </trkpt>
      <trkpt lat="44.11014" lon="6.82262">
        <ele>894.9</ele>
      </trkpt>
      <trkpt lat="44.11029" lon="6.8222">
        <ele>890.6</ele>
      </trkpt>
      <trkpt lat="44.11041" lon="6.82191">
        <ele>889.2</ele>
      </trkpt>
      <trkpt lat="44.11051" lon="6.82151">
        <ele>884.8</ele>
      </trkpt>
      <trkpt lat="44.1106" lon="6.82131">
        <ele>884.3</ele>
      </trkpt>
      <trkpt lat="44.11099" lon="6.82072">
        <ele>879.1</ele>
      </trkpt>
      <trkpt lat="44.1111" lon="6.82063">
        <ele>879.4</ele>
      </trkpt>
      <trkpt lat="44.11134" lon="6.8205">
        <ele>880.8</ele>
      </trkpt>
      <trkpt lat="44.11144" lon="6.82046">
        <ele>881.5</ele>
      </trkpt>
      <trkpt lat="44.11163" lon="6.8204">
        <ele>883</ele>
      </trkpt>
      <trkpt lat="44.11181" lon="6.82033">
        <ele>884</ele>
      </trkpt>
      <trkpt lat="44.1119" lon="6.82027">
        <ele>883.8</ele>
      </trkpt>
      <trkpt lat="44.11194" lon="6.82022">
        <ele>883</ele>
      </trkpt>
      <trkpt lat="44.11197" lon="6.82018">
        <ele>882.4</ele>
      </trkpt>
      <trkpt lat="44.11203" lon="6.82006">
        <ele>879.9</ele>
      </trkpt>
      <trkpt lat="44.11205" lon="6.81992">
        <ele>878.5</ele>
      </trkpt>
      <trkpt lat="44.11204" lon="6.81978">
        <ele>878.2</ele>
      </trkpt>
      <trkpt lat="44.11201" lon="6.81968">
        <ele>877.5</ele>
      </trkpt>
      <trkpt lat="44.112" lon="6.81964">
        <ele>877.3</ele>
      </trkpt>
      <trkpt lat="44.1119" lon="6.81939">
        <ele>874.4</ele>
      </trkpt>
      <trkpt lat="44.11189" lon="6.81925">
        <ele>873.7</ele>
      </trkpt>
      <trkpt lat="44.1119" lon="6.81911">
        <ele>873.3</ele>
      </trkpt>
      <trkpt lat="44.112" lon="6.81887">
        <ele>874.1</ele>
      </trkpt>
      <trkpt lat="44.11215" lon="6.81864">
        <ele>875.9</ele>
      </trkpt>
      <trkpt lat="44.11271" lon="6.818">
        <ele>880.1</ele>
      </trkpt>
      <trkpt lat="44.11285" lon="6.8178">
        <ele>879.6</ele>
      </trkpt>
      <trkpt lat="44.11349" lon="6.81673">
        <ele>876</ele>
      </trkpt>
      <trkpt lat="44.11363" lon="6.81639">
        <ele>875.4</ele>
      </trkpt>
      <trkpt lat="44.11368" lon="6.81621">
        <ele>875.1</ele>
      </trkpt>
      <trkpt lat="44.1138" lon="6.81569">
        <ele>874.8</ele>
      </trkpt>
      <trkpt lat="44.11389" lon="6.81535">
        <ele>876.4</ele>
      </trkpt>
      <trkpt lat="44.11398" lon="6.81495">
        <ele>877.9</ele>
      </trkpt>
      <trkpt lat="44.11405" lon="6.8147">
        <ele>877.9</ele>
      </trkpt>
      <trkpt lat="44.11424" lon="6.81406">
        <ele>877.9</ele>
      </trkpt>
      <trkpt lat="44.11434" lon="6.81376">
        <ele>878.2</ele>
      </trkpt>
      <trkpt lat="44.11451" lon="6.81317">
        <ele>878.4</ele>
      </trkpt>
      <trkpt lat="44.11472" lon="6.81226">
        <ele>883.8</ele>
      </trkpt>
      <trkpt lat="44.11485" lon="6.81174">
        <ele>886.4</ele>
      </trkpt>
      <trkpt lat="44.11498" lon="6.81111">
        <ele>893.2</ele>
      </trkpt>
      <trkpt lat="44.11502" lon="6.81084">
        <ele>896.4</ele>
      </trkpt>
      <trkpt lat="44.11511" lon="6.80976">
        <ele>899.4</ele>
      </trkpt>
      <trkpt lat="44.11513" lon="6.8095">
        <ele>898.9</ele>
      </trkpt>
      <trkpt lat="44.11518" lon="6.80927">
        <ele>899.2</ele>
      </trkpt>
      <trkpt lat="44.11525" lon="6.80907">
        <ele>899.8</ele>
      </trkpt>
      <trkpt lat="44.11557" lon="6.80855">
        <ele>903.6</ele>
      </trkpt>
      <trkpt lat="44.11566" lon="6.80836">
        <ele>904.4</ele>
      </trkpt>
      <trkpt lat="44.11574" lon="6.80815">
        <ele>904.5</ele>
      </trkpt>
      <trkpt lat="44.1158" lon="6.80792">
        <ele>903.8</ele>
      </trkpt>
      <trkpt lat="44.11595" lon="6.80721">
        <ele>901.2</ele>
      </trkpt>
      <trkpt lat="44.11638" lon="6.806">
        <ele>901.8</ele>
      </trkpt>
      <trkpt lat="44.11648" lon="6.80583">
        <ele>902.5</ele>
      </trkpt>
      <trkpt lat="44.1167" lon="6.80554">
        <ele>905.2</ele>
      </trkpt>
      <trkpt lat="44.1168" lon="6.80537">
        <ele>906.7</ele>
      </trkpt>
      <trkpt lat="44.11705" lon="6.80485">
        <ele>908.7</ele>
      </trkpt>
      <trkpt lat="44.11725" lon="6.80458">
        <ele>910.2</ele>
      </trkpt>
      <trkpt lat="44.11737" lon="6.80446">
        <ele>910.5</ele>
      </trkpt>
      <trkpt lat="44.11763" lon="6.80426">
        <ele>910.8</ele>
      </trkpt>
      <trkpt lat="44.11777" lon="6.80418">
        <ele>911.2</ele>
      </trkpt>
      <trkpt lat="44.11821" lon="6.80406">
        <ele>916.2</ele>
      </trkpt>
      <trkpt lat="44.11834" lon="6.804">
        <ele>917.2</ele>
      </trkpt>
      <trkpt lat="44.11845" lon="6.80391">
        <ele>916.8</ele>
      </trkpt>
      <trkpt lat="44.11854" lon="6.8038">
        <ele>916</ele>
      </trkpt>
      <trkpt lat="44.1186" lon="6.80364">
        <ele>914.6</ele>
      </trkpt>
      <trkpt lat="44.11863" lon="6.80347">
        <ele>912.9</ele>
      </trkpt>
      <trkpt lat="44.11862" lon="6.8033">
        <ele>911.9</ele>
      </trkpt>
      <trkpt lat="44.11858" lon="6.80315">
        <ele>914.4</ele>
      </trkpt>
      <trkpt lat="44.11851" lon="6.80301">
        <ele>916.5</ele>
      </trkpt>
      <trkpt lat="44.11841" lon="6.8029">
        <ele>918.1</ele>
      </trkpt>
      <trkpt lat="44.11796" lon="6.80258">
        <ele>918.5</ele>
      </trkpt>
      <trkpt lat="44.11787" lon="6.80248">
        <ele>918.5</ele>
      </trkpt>
      <trkpt lat="44.11782" lon="6.80236">
        <ele>918.8</ele>
      </trkpt>
      <trkpt lat="44.1178" lon="6.80222">
        <ele>919.7</ele>
      </trkpt>
      <trkpt lat="44.11782" lon="6.80207">
        <ele>921.2</ele>
      </trkpt>
      <trkpt lat="44.1179" lon="6.80177">
        <ele>924.9</ele>
      </trkpt>
      <trkpt lat="44.11819" lon="6.8012">
        <ele>929.7</ele>
      </trkpt>
      <trkpt lat="44.11825" lon="6.80106">
        <ele>930.3</ele>
      </trkpt>
      <trkpt lat="44.11828" lon="6.8009">
        <ele>930.5</ele>
      </trkpt>
      <trkpt lat="44.11828" lon="6.80075">
        <ele>930.5</ele>
      </trkpt>
      <trkpt lat="44.11816" lon="6.80031">
        <ele>930</ele>
      </trkpt>
      <trkpt lat="44.11813" lon="6.80014">
        <ele>930</ele>
      </trkpt>
      <trkpt lat="44.11811" lon="6.79996">
        <ele>930.2</ele>
      </trkpt>
      <trkpt lat="44.11811" lon="6.79977">
        <ele>930.8</ele>
      </trkpt>
      <trkpt lat="44.11815" lon="6.79935">
        <ele>932.5</ele>
      </trkpt>
      <trkpt lat="44.1182" lon="6.79891">
        <ele>933.6</ele>
      </trkpt>
      <trkpt lat="44.11824" lon="6.79869">
        <ele>934</ele>
      </trkpt>
      <trkpt lat="44.11828" lon="6.79854">
        <ele>934.4</ele>
      </trkpt>
      <trkpt lat="44.1183" lon="6.79848">
        <ele>934.6</ele>
      </trkpt>
      <trkpt lat="44.11841" lon="6.79807">
        <ele>935.6</ele>
      </trkpt>
      <trkpt lat="44.1185" lon="6.79786">
        <ele>936.4</ele>
      </trkpt>
      <trkpt lat="44.1186" lon="6.79766">
        <ele>937.2</ele>
      </trkpt>
      <trkpt lat="44.11872" lon="6.79747">
        <ele>938.2</ele>
      </trkpt>
      <trkpt lat="44.11895" lon="6.79716">
        <ele>939.6</ele>
      </trkpt>
      <trkpt lat="44.11929" lon="6.79675">
        <ele>942</ele>
      </trkpt>
      <trkpt lat="44.11938" lon="6.79663">
        <ele>943.3</ele>
      </trkpt>
      <trkpt lat="44.11992" lon="6.79596">
        <ele>949.5</ele>
      </trkpt>
      <trkpt lat="44.12016" lon="6.79552">
        <ele>949.5</ele>
      </trkpt>
      <trkpt lat="44.12018" lon="6.79548">
        <ele>949.4</ele>
      </trkpt>
      <trkpt lat="44.1202" lon="6.79543">
        <ele>949.3</ele>
      </trkpt>
      <trkpt lat="44.1203" lon="6.79526">
        <ele>949</ele>
      </trkpt>
      <trkpt lat="44.12047" lon="6.79504">
        <ele>949</ele>
      </trkpt>
      <trkpt lat="44.12059" lon="6.7949">
        <ele>948.7</ele>
      </trkpt>
      <trkpt lat="44.12064" lon="6.79485">
        <ele>948.6</ele>
      </trkpt>
      <trkpt lat="44.12083" lon="6.79457">
        <ele>947.9</ele>
      </trkpt>
      <trkpt lat="44.12127" lon="6.79381">
        <ele>951.5</ele>
      </trkpt>
      <trkpt lat="44.12142" lon="6.79356">
        <ele>951.1</ele>
      </trkpt>
      <trkpt lat="44.1215" lon="6.79342">
        <ele>950.6</ele>
      </trkpt>
      <trkpt lat="44.12169" lon="6.79317">
        <ele>951.1</ele>
      </trkpt>
      <trkpt lat="44.12198" lon="6.79284">
        <ele>954</ele>
      </trkpt>
      <trkpt lat="44.12207" lon="6.79272">
        <ele>954.8</ele>
      </trkpt>
      <trkpt lat="44.12212" lon="6.79259">
        <ele>954.3</ele>
      </trkpt>
      <trkpt lat="44.12215" lon="6.79243">
        <ele>953.4</ele>
      </trkpt>
      <trkpt lat="44.12214" lon="6.79193">
        <ele>949</ele>
      </trkpt>
      <trkpt lat="44.12217" lon="6.79176">
        <ele>948.4</ele>
      </trkpt>
      <trkpt lat="44.12222" lon="6.7916">
        <ele>948.2</ele>
      </trkpt>
      <trkpt lat="44.1223" lon="6.79147">
        <ele>948.5</ele>
      </trkpt>
      <trkpt lat="44.12248" lon="6.79126">
        <ele>949.3</ele>
      </trkpt>
      <trkpt lat="44.12254" lon="6.79113">
        <ele>948.4</ele>
      </trkpt>
      <trkpt lat="44.12258" lon="6.79097">
        <ele>946.8</ele>
      </trkpt>
      <trkpt lat="44.12268" lon="6.79025">
        <ele>946.5</ele>
      </trkpt>
      <trkpt lat="44.12273" lon="6.79007">
        <ele>947.7</ele>
      </trkpt>
      <trkpt lat="44.12296" lon="6.78958">
        <ele>954.8</ele>
      </trkpt>
      <trkpt lat="44.12301" lon="6.78943">
        <ele>956.4</ele>
      </trkpt>
      <trkpt lat="44.12304" lon="6.78927">
        <ele>957.4</ele>
      </trkpt>
      <trkpt lat="44.12304" lon="6.78911">
        <ele>957.7</ele>
      </trkpt>
      <trkpt lat="44.123" lon="6.78896">
        <ele>956.8</ele>
      </trkpt>
      <trkpt lat="44.12288" lon="6.78867">
        <ele>954.2</ele>
      </trkpt>
      <trkpt lat="44.12284" lon="6.78851">
        <ele>953.5</ele>
      </trkpt>
      <trkpt lat="44.12281" lon="6.78833">
        <ele>953.2</ele>
      </trkpt>
      <trkpt lat="44.12281" lon="6.78797">
        <ele>949.5</ele>
      </trkpt>
      <trkpt lat="44.12284" lon="6.7878">
        <ele>948.3</ele>
      </trkpt>
      <trkpt lat="44.12289" lon="6.78765">
        <ele>947.4</ele>
      </trkpt>
      <trkpt lat="44.12297" lon="6.78754">
        <ele>947.2</ele>
      </trkpt>
      <trkpt lat="44.12307" lon="6.78745">
        <ele>947.5</ele>
      </trkpt>
      <trkpt lat="44.12354" lon="6.78725">
        <ele>952.2</ele>
      </trkpt>
      <trkpt lat="44.12363" lon="6.78716">
        <ele>952.9</ele>
      </trkpt>
      <trkpt lat="44.12368" lon="6.78703">
        <ele>952.5</ele>
      </trkpt>
      <trkpt lat="44.12371" lon="6.78689">
        <ele>951.6</ele>
      </trkpt>
      <trkpt lat="44.12379" lon="6.78638">
        <ele>950.1</ele>
      </trkpt>
      <trkpt lat="44.12383" lon="6.78601">
        <ele>950.1</ele>
      </trkpt>
      <trkpt lat="44.12383" lon="6.78565">
        <ele>949.3</ele>
      </trkpt>
      <trkpt lat="44.12385" lon="6.78549">
        <ele>949.2</ele>
      </trkpt>
      <trkpt lat="44.12398" lon="6.7852">
        <ele>950.6</ele>
      </trkpt>
      <trkpt lat="44.12424" lon="6.78476">
        <ele>952</ele>
      </trkpt>
      <trkpt lat="44.12434" lon="6.78464">
        <ele>952.7</ele>
      </trkpt>
      <trkpt lat="44.12445" lon="6.78455">
        <ele>953.6</ele>
      </trkpt>
      <trkpt lat="44.12458" lon="6.78449">
        <ele>955.2</ele>
      </trkpt>
      <trkpt lat="44.12484" lon="6.78443">
        <ele>958.8</ele>
      </trkpt>
      <trkpt lat="44.12495" lon="6.78437">
        <ele>959.5</ele>
      </trkpt>
      <trkpt lat="44.12505" lon="6.78428">
        <ele>960.1</ele>
      </trkpt>
      <trkpt lat="44.12512" lon="6.78415">
        <ele>960.2</ele>
      </trkpt>
      <trkpt lat="44.12518" lon="6.784">
        <ele>961</ele>
      </trkpt>
      <trkpt lat="44.12527" lon="6.78369">
        <ele>961.2</ele>
      </trkpt>
      <trkpt lat="44.12533" lon="6.78354">
        <ele>961.6</ele>
      </trkpt>
      <trkpt lat="44.12541" lon="6.78341">
        <ele>962.6</ele>
      </trkpt>
      <trkpt lat="44.12572" lon="6.78316">
        <ele>967.2</ele>
      </trkpt>
      <trkpt lat="44.1258" lon="6.78305">
        <ele>966.8</ele>
      </trkpt>
      <trkpt lat="44.12597" lon="6.78264">
        <ele>961.4</ele>
      </trkpt>
      <trkpt lat="44.12605" lon="6.78252">
        <ele>960.6</ele>
      </trkpt>
      <trkpt lat="44.12614" lon="6.78242">
        <ele>961.6</ele>
      </trkpt>
      <trkpt lat="44.12625" lon="6.78234">
        <ele>963.4</ele>
      </trkpt>
      <trkpt lat="44.12636" lon="6.78229">
        <ele>965.3</ele>
      </trkpt>
      <trkpt lat="44.12658" lon="6.78224">
        <ele>969.7</ele>
      </trkpt>
      <trkpt lat="44.12668" lon="6.78219">
        <ele>971.2</ele>
      </trkpt>
      <trkpt lat="44.12676" lon="6.7821">
        <ele>971.7</ele>
      </trkpt>
      <trkpt lat="44.12682" lon="6.78197">
        <ele>971.5</ele>
      </trkpt>
      <trkpt lat="44.12684" lon="6.78182">
        <ele>970.5</ele>
      </trkpt>
      <trkpt lat="44.12684" lon="6.78167">
        <ele>969</ele>
      </trkpt>
      <trkpt lat="44.12672" lon="6.78136">
        <ele>964.5</ele>
      </trkpt>
      <trkpt lat="44.12672" lon="6.7812">
        <ele>963.9</ele>
      </trkpt>
      <trkpt lat="44.12675" lon="6.78105">
        <ele>964.3</ele>
      </trkpt>
      <trkpt lat="44.12681" lon="6.78091">
        <ele>965.6</ele>
      </trkpt>
      <trkpt lat="44.12703" lon="6.78068">
        <ele>970.2</ele>
      </trkpt>
      <trkpt lat="44.12709" lon="6.78056">
        <ele>970.7</ele>
      </trkpt>
      <trkpt lat="44.12714" lon="6.78041">
        <ele>970.6</ele>
      </trkpt>
      <trkpt lat="44.1272" lon="6.78007">
        <ele>968.8</ele>
      </trkpt>
      <trkpt lat="44.12733" lon="6.77855">
        <ele>972.6</ele>
      </trkpt>
      <trkpt lat="44.12738" lon="6.77836">
        <ele>973.1</ele>
      </trkpt>
      <trkpt lat="44.12794" lon="6.77729">
        <ele>977</ele>
      </trkpt>
      <trkpt lat="44.12804" lon="6.77718">
        <ele>977.5</ele>
      </trkpt>
      <trkpt lat="44.12826" lon="6.777">
        <ele>978.8</ele>
      </trkpt>
      <trkpt lat="44.12836" lon="6.77687">
        <ele>978</ele>
      </trkpt>
      <trkpt lat="44.12891" lon="6.77581">
        <ele>982.8</ele>
      </trkpt>
      <trkpt lat="44.12902" lon="6.77565">
        <ele>985</ele>
      </trkpt>
      <trkpt lat="44.12935" lon="6.77527">
        <ele>990.1</ele>
      </trkpt>
      <trkpt lat="44.12944" lon="6.77512">
        <ele>990.6</ele>
      </trkpt>
      <trkpt lat="44.12948" lon="6.77496">
        <ele>989.7</ele>
      </trkpt>
      <trkpt lat="44.12954" lon="6.77443">
        <ele>985</ele>
      </trkpt>
      <trkpt lat="44.12958" lon="6.77427">
        <ele>983.7</ele>
      </trkpt>
      <trkpt lat="44.12964" lon="6.77413">
        <ele>982.8</ele>
      </trkpt>
      <trkpt lat="44.12973" lon="6.77402">
        <ele>982.5</ele>
      </trkpt>
      <trkpt lat="44.12984" lon="6.77394">
        <ele>982.7</ele>
      </trkpt>
      <trkpt lat="44.12997" lon="6.7739">
        <ele>983.5</ele>
      </trkpt>
      <trkpt lat="44.1301" lon="6.77389">
        <ele>984.3</ele>
      </trkpt>
      <trkpt lat="44.13097" lon="6.77401">
        <ele>993.4</ele>
      </trkpt>
      <trkpt lat="44.13125" lon="6.77401">
        <ele>996.2</ele>
      </trkpt>
      <trkpt lat="44.13139" lon="6.77396">
        <ele>996.6</ele>
      </trkpt>
      <trkpt lat="44.13153" lon="6.77388">
        <ele>996.6</ele>
      </trkpt>
      <trkpt lat="44.13166" lon="6.77377">
        <ele>996.3</ele>
      </trkpt>
      <trkpt lat="44.13178" lon="6.77363">
        <ele>997.3</ele>
      </trkpt>
      <trkpt lat="44.13189" lon="6.77347">
        <ele>997.6</ele>
      </trkpt>
      <trkpt lat="44.13244" lon="6.77236">
        <ele>997.1</ele>
      </trkpt>
      <trkpt lat="44.13252" lon="6.77217">
        <ele>997.3</ele>
      </trkpt>
      <trkpt lat="44.1327" lon="6.7716">
        <ele>998.2</ele>
      </trkpt>
      <trkpt lat="44.13278" lon="6.77139">
        <ele>998.9</ele>
      </trkpt>
      <trkpt lat="44.1336" lon="6.76972">
        <ele>996.6</ele>
      </trkpt>
      <trkpt lat="44.13385" lon="6.76949">
        <ele>997.2</ele>
      </trkpt>
      <trkpt lat="44.13398" lon="6.76943">
        <ele>998.2</ele>
      </trkpt>
      <trkpt lat="44.13459" lon="6.76923">
        <ele>1004.5</ele>
      </trkpt>
      <trkpt lat="44.13488" lon="6.76909">
        <ele>1007.1</ele>
      </trkpt>
      <trkpt lat="44.13503" lon="6.76899">
        <ele>1008.2</ele>
      </trkpt>
      <trkpt lat="44.13515" lon="6.76887">
        <ele>1008.9</ele>
      </trkpt>
      <trkpt lat="44.13552" lon="6.76846">
        <ele>1006.5</ele>
      </trkpt>
      <trkpt lat="44.13565" lon="6.76836">
        <ele>1005.8</ele>
      </trkpt>
      <trkpt lat="44.13608" lon="6.76812">
        <ele>1009.4</ele>
      </trkpt>
      <trkpt lat="44.13622" lon="6.76801">
        <ele>1010.1</ele>
      </trkpt>
      <trkpt lat="44.13643" lon="6.76765">
        <ele>1007.2</ele>
      </trkpt>
      <trkpt lat="44.13666" lon="6.76708">
        <ele>1003.9</ele>
      </trkpt>
      <trkpt lat="44.13672" lon="6.76695">
        <ele>1003.2</ele>
      </trkpt>
      <trkpt lat="44.13681" lon="6.76673">
        <ele>1001.7</ele>
      </trkpt>
      <trkpt lat="44.13701" lon="6.76628">
        <ele>1006.5</ele>
      </trkpt>
      <trkpt lat="44.13718" lon="6.76603">
        <ele>1008.3</ele>
      </trkpt>
      <trkpt lat="44.13727" lon="6.76591">
        <ele>1008.5</ele>
      </trkpt>
      <trkpt lat="44.13754" lon="6.76569">
        <ele>1011.1</ele>
      </trkpt>
      <trkpt lat="44.13797" lon="6.76519">
        <ele>1019.5</ele>
      </trkpt>
      <trkpt lat="44.13811" lon="6.76506">
        <ele>1020</ele>
      </trkpt>
      <trkpt lat="44.13856" lon="6.76474">
        <ele>1022.7</ele>
      </trkpt>
      <trkpt lat="44.13899" lon="6.76435">
        <ele>1024.7</ele>
      </trkpt>
      <trkpt lat="44.13951" lon="6.7638">
        <ele>1027.3</ele>
      </trkpt>
      <trkpt lat="44.13978" lon="6.76359">
        <ele>1026</ele>
      </trkpt>
      <trkpt lat="44.14025" lon="6.76329">
        <ele>1027.1</ele>
      </trkpt>
      <trkpt lat="44.14032" lon="6.76323">
        <ele>1028.1</ele>
      </trkpt>
      <trkpt lat="44.14038" lon="6.76314">
        <ele>1029.2</ele>
      </trkpt>
      <trkpt lat="44.14051" lon="6.76316">
        <ele>1029.2</ele>
      </trkpt>
      <trkpt lat="44.14077" lon="6.76329">
        <ele>1029.6</ele>
      </trkpt>
      <trkpt lat="44.14084" lon="6.76336">
        <ele>1029.7</ele>
      </trkpt>
      <trkpt lat="44.14091" lon="6.7636">
        <ele>1026.4</ele>
      </trkpt>
      <trkpt lat="44.14102" lon="6.76364">
        <ele>1026</ele>
      </trkpt>
      <trkpt lat="44.14111" lon="6.76364">
        <ele>1026.1</ele>
      </trkpt>
      <trkpt lat="44.14109" lon="6.76343">
        <ele>1029.8</ele>
      </trkpt>
      <trkpt lat="44.14109" lon="6.76335">
        <ele>1031.2</ele>
      </trkpt>
      <trkpt lat="44.14127" lon="6.76295">
        <ele>1035.8</ele>
      </trkpt>
      <trkpt lat="44.14143" lon="6.76271">
        <ele>1040.9</ele>
      </trkpt>
      <trkpt lat="44.14147" lon="6.76257">
        <ele>1043.4</ele>
      </trkpt>
      <trkpt lat="44.14153" lon="6.76252">
        <ele>1045.4</ele>
      </trkpt>
      <trkpt lat="44.14166" lon="6.76229">
        <ele>1046.3</ele>
      </trkpt>
      <trkpt lat="44.14173" lon="6.76204">
        <ele>1043.3</ele>
      </trkpt>
      <trkpt lat="44.14231" lon="6.76146">
        <ele>1042.7</ele>
      </trkpt>
      <trkpt lat="44.14239" lon="6.76138">
        <ele>1043.4</ele>
      </trkpt>
      <trkpt lat="44.14252" lon="6.76127">
        <ele>1044.2</ele>
      </trkpt>
      <trkpt lat="44.14263" lon="6.76124">
        <ele>1043.3</ele>
      </trkpt>
      <trkpt lat="44.14268" lon="6.76123">
        <ele>1042.9</ele>
      </trkpt>
      <trkpt lat="44.14289" lon="6.76119">
        <ele>1041.6</ele>
      </trkpt>
      <trkpt lat="44.14297" lon="6.76116">
        <ele>1041.4</ele>
      </trkpt>
      <trkpt lat="44.14311" lon="6.761">
        <ele>1043.5</ele>
      </trkpt>
      <trkpt lat="44.14325" lon="6.76078">
        <ele>1047.7</ele>
      </trkpt>
      <trkpt lat="44.1434" lon="6.76057">
        <ele>1050.1</ele>
      </trkpt>
      <trkpt lat="44.14421" lon="6.7597">
        <ele>1055.4</ele>
      </trkpt>
      <trkpt lat="44.14451" lon="6.75929">
        <ele>1056.3</ele>
      </trkpt>
      <trkpt lat="44.14471" lon="6.75899">
        <ele>1056.1</ele>
      </trkpt>
      <trkpt lat="44.1449" lon="6.75872">
        <ele>1056.3</ele>
      </trkpt>
      <trkpt lat="44.1451" lon="6.75831">
        <ele>1059.7</ele>
      </trkpt>
      <trkpt lat="44.14527" lon="6.75808">
        <ele>1060.6</ele>
      </trkpt>
      <trkpt lat="44.14549" lon="6.7579">
        <ele>1061</ele>
      </trkpt>
      <trkpt lat="44.14575" lon="6.75774">
        <ele>1061.5</ele>
      </trkpt>
      <trkpt lat="44.14615" lon="6.75757">
        <ele>1064.1</ele>
      </trkpt>
      <trkpt lat="44.14702" lon="6.75727">
        <ele>1069.6</ele>
      </trkpt>
      <trkpt lat="44.14714" lon="6.75726">
        <ele>1069.9</ele>
      </trkpt>
      <trkpt lat="44.14726" lon="6.75727">
        <ele>1069.9</ele>
      </trkpt>
      <trkpt lat="44.14752" lon="6.75733">
        <ele>1069.1</ele>
      </trkpt>
      <trkpt lat="44.14765" lon="6.75734">
        <ele>1069.1</ele>
      </trkpt>
      <trkpt lat="44.14809" lon="6.75726">
        <ele>1071.4</ele>
      </trkpt>
      <trkpt lat="44.14843" lon="6.75714">
        <ele>1073.9</ele>
      </trkpt>
      <trkpt lat="44.14955" lon="6.75654">
        <ele>1083.5</ele>
      </trkpt>
      <trkpt lat="44.15002" lon="6.75641">
        <ele>1087.1</ele>
      </trkpt>
      <trkpt lat="44.15029" lon="6.75637">
        <ele>1088.9</ele>
      </trkpt>
      <trkpt lat="44.15041" lon="6.75639">
        <ele>1088.6</ele>
      </trkpt>
      <trkpt lat="44.15051" lon="6.75646">
        <ele>1086.8</ele>
      </trkpt>
      <trkpt lat="44.1507" lon="6.75663">
        <ele>1082.6</ele>
      </trkpt>
      <trkpt lat="44.1508" lon="6.7567">
        <ele>1081.2</ele>
      </trkpt>
      <trkpt lat="44.15091" lon="6.75674">
        <ele>1080.9</ele>
      </trkpt>
      <trkpt lat="44.15103" lon="6.75673">
        <ele>1081.6</ele>
      </trkpt>
      <trkpt lat="44.15143" lon="6.75661">
        <ele>1086.4</ele>
      </trkpt>
      <trkpt lat="44.1519" lon="6.75652">
        <ele>1088.4</ele>
      </trkpt>
      <trkpt lat="44.15247" lon="6.75637">
        <ele>1090.5</ele>
      </trkpt>
      <trkpt lat="44.15276" lon="6.75637">
        <ele>1093.6</ele>
      </trkpt>
      <trkpt lat="44.15353" lon="6.75643">
        <ele>1100.4</ele>
      </trkpt>
      <trkpt lat="44.15368" lon="6.75648">
        <ele>1099.8</ele>
      </trkpt>
      <trkpt lat="44.1543" lon="6.75676">
        <ele>1097.3</ele>
      </trkpt>
      <trkpt lat="44.15459" lon="6.75687">
        <ele>1103.2</ele>
      </trkpt>
      <trkpt lat="44.15507" lon="6.75714">
        <ele>1102.3</ele>
      </trkpt>
      <trkpt lat="44.15518" lon="6.75717">
        <ele>1103.6</ele>
      </trkpt>
      <trkpt lat="44.1553" lon="6.75716">
        <ele>1108.3</ele>
      </trkpt>
      <trkpt lat="44.15566" lon="6.75703">
        <ele>1135.7</ele>
      </trkpt>
      <trkpt lat="44.15581" lon="6.75695">
        <ele>1153.1</ele>
      </trkpt>
      <trkpt lat="44.15826" lon="6.75727">
        <ele>1132.7</ele>
      </trkpt>
      <trkpt lat="44.15843" lon="6.7573">
        <ele>1128</ele>
      </trkpt>
      <trkpt lat="44.15859" lon="6.75731">
        <ele>1127.8</ele>
      </trkpt>
      <trkpt lat="44.15886" lon="6.75739">
        <ele>1124.8</ele>
      </trkpt>
      <trkpt lat="44.15895" lon="6.75746">
        <ele>1122</ele>
      </trkpt>
      <trkpt lat="44.15917" lon="6.75754">
        <ele>1120.6</ele>
      </trkpt>
      <trkpt lat="44.15969" lon="6.75745">
        <ele>1124.8</ele>
      </trkpt>
      <trkpt lat="44.16013" lon="6.75745">
        <ele>1122.9</ele>
      </trkpt>
      <trkpt lat="44.16023" lon="6.7574">
        <ele>1122.2</ele>
      </trkpt>
      <trkpt lat="44.16033" lon="6.75733">
        <ele>1121.9</ele>
      </trkpt>
      <trkpt lat="44.16048" lon="6.75705">
        <ele>1124.8</ele>
      </trkpt>
      <trkpt lat="44.16058" lon="6.75681">
        <ele>1127.2</ele>
      </trkpt>
      <trkpt lat="44.16067" lon="6.75669">
        <ele>1127.1</ele>
      </trkpt>
      <trkpt lat="44.16089" lon="6.75648">
        <ele>1128</ele>
      </trkpt>
      <trkpt lat="44.16128" lon="6.75619">
        <ele>1129.4</ele>
      </trkpt>
      <trkpt lat="44.16164" lon="6.75589">
        <ele>1131.7</ele>
      </trkpt>
      <trkpt lat="44.16176" lon="6.75581">
        <ele>1132.3</ele>
      </trkpt>
      <trkpt lat="44.16246" lon="6.75552">
        <ele>1126.3</ele>
      </trkpt>
      <trkpt lat="44.16269" lon="6.75535">
        <ele>1125.7</ele>
      </trkpt>
      <trkpt lat="44.16277" lon="6.75523">
        <ele>1126.4</ele>
      </trkpt>
      <trkpt lat="44.16282" lon="6.75511">
        <ele>1127.4</ele>
      </trkpt>
      <trkpt lat="44.16285" lon="6.75496">
        <ele>1129.2</ele>
      </trkpt>
      <trkpt lat="44.16282" lon="6.75444">
        <ele>1139.7</ele>
      </trkpt>
      <trkpt lat="44.16276" lon="6.7539">
        <ele>1151.5</ele>
      </trkpt>
      <trkpt lat="44.16275" lon="6.75374">
        <ele>1154.8</ele>
      </trkpt>
      <trkpt lat="44.16277" lon="6.75361">
        <ele>1157.6</ele>
      </trkpt>
      <trkpt lat="44.16281" lon="6.7535">
        <ele>1160.6</ele>
      </trkpt>
      <trkpt lat="44.16288" lon="6.75343">
        <ele>1163.5</ele>
      </trkpt>
      <trkpt lat="44.16296" lon="6.75338">
        <ele>1166.6</ele>
      </trkpt>
      <trkpt lat="44.16305" lon="6.75337">
        <ele>1168.9</ele>
      </trkpt>
      <trkpt lat="44.16315" lon="6.75342">
        <ele>1169.1</ele>
      </trkpt>
      <trkpt lat="44.16324" lon="6.75351">
        <ele>1166.7</ele>
      </trkpt>
      <trkpt lat="44.16345" lon="6.75382">
        <ele>1153.2</ele>
      </trkpt>
      <trkpt lat="44.16353" lon="6.7539">
        <ele>1149.4</ele>
      </trkpt>
      <trkpt lat="44.16362" lon="6.75393">
        <ele>1148.2</ele>
      </trkpt>
      <trkpt lat="44.16372" lon="6.75393">
        <ele>1148.6</ele>
      </trkpt>
      <trkpt lat="44.16406" lon="6.75376">
        <ele>1161</ele>
      </trkpt>
      <trkpt lat="44.16456" lon="6.7536">
        <ele>1163.8</ele>
      </trkpt>
      <trkpt lat="44.16533" lon="6.75337">
        <ele>1158.3</ele>
      </trkpt>
      <trkpt lat="44.16579" lon="6.75327">
        <ele>1151.4</ele>
      </trkpt>
      <trkpt lat="44.16593" lon="6.75323">
        <ele>1151.6</ele>
      </trkpt>
      <trkpt lat="44.16606" lon="6.75315">
        <ele>1154.8</ele>
      </trkpt>
      <trkpt lat="44.16646" lon="6.75284">
        <ele>1165.1</ele>
      </trkpt>
      <trkpt lat="44.16702" lon="6.75247">
        <ele>1168.5</ele>
      </trkpt>
      <trkpt lat="44.1675" lon="6.75203">
        <ele>1173.7</ele>
      </trkpt>
      <trkpt lat="44.16777" lon="6.75187">
        <ele>1176.7</ele>
      </trkpt>
      <trkpt lat="44.1684" lon="6.75162">
        <ele>1179.8</ele>
      </trkpt>
      <trkpt lat="44.16857" lon="6.75158">
        <ele>1180.5</ele>
      </trkpt>
      <trkpt lat="44.16943" lon="6.75149">
        <ele>1180.6</ele>
      </trkpt>
      <trkpt lat="44.16986" lon="6.75152">
        <ele>1178.6</ele>
      </trkpt>
      <trkpt lat="44.17001" lon="6.7515">
        <ele>1179.3</ele>
      </trkpt>
      <trkpt lat="44.17032" lon="6.7514">
        <ele>1179.6</ele>
      </trkpt>
      <trkpt lat="44.17061" lon="6.75127">
        <ele>1180.6</ele>
      </trkpt>
      <trkpt lat="44.17097" lon="6.75104">
        <ele>1183.7</ele>
      </trkpt>
      <trkpt lat="44.17122" lon="6.751">
        <ele>1182.1</ele>
      </trkpt>
      <trkpt lat="44.17144" lon="6.75083">
        <ele>1184.4</ele>
      </trkpt>
      <trkpt lat="44.17173" lon="6.75044">
        <ele>1197.8</ele>
      </trkpt>
      <trkpt lat="44.17186" lon="6.75032">
        <ele>1200.8</ele>
      </trkpt>
      <trkpt lat="44.17228" lon="6.75003">
        <ele>1204.5</ele>
      </trkpt>
      <trkpt lat="44.1724" lon="6.74996">
        <ele>1205.4</ele>
      </trkpt>
      <trkpt lat="44.17254" lon="6.74992">
        <ele>1205.6</ele>
      </trkpt>
      <trkpt lat="44.17268" lon="6.74991">
        <ele>1206.3</ele>
      </trkpt>
      <trkpt lat="44.17282" lon="6.74993">
        <ele>1205.4</ele>
      </trkpt>
      <trkpt lat="44.17295" lon="6.74997">
        <ele>1203.9</ele>
      </trkpt>
      <trkpt lat="44.17308" lon="6.75005">
        <ele>1201.5</ele>
      </trkpt>
      <trkpt lat="44.17332" lon="6.75023">
        <ele>1197.6</ele>
      </trkpt>
      <trkpt lat="44.17346" lon="6.75028">
        <ele>1196.3</ele>
      </trkpt>
      <trkpt lat="44.17357" lon="6.75029">
        <ele>1196</ele>
      </trkpt>
      <trkpt lat="44.17381" lon="6.75022">
        <ele>1197.8</ele>
      </trkpt>
      <trkpt lat="44.17403" lon="6.75019">
        <ele>1198.5</ele>
      </trkpt>
      <trkpt lat="44.17414" lon="6.75015">
        <ele>1199.4</ele>
      </trkpt>
      <trkpt lat="44.17424" lon="6.75008">
        <ele>1199.7</ele>
      </trkpt>
      <trkpt lat="44.17461" lon="6.74964">
        <ele>1205.1</ele>
      </trkpt>
      <trkpt lat="44.17471" lon="6.74956">
        <ele>1205.7</ele>
      </trkpt>
      <trkpt lat="44.17482" lon="6.74951">
        <ele>1205.4</ele>
      </trkpt>
      <trkpt lat="44.17517" lon="6.74946">
        <ele>1203.2</ele>
      </trkpt>
      <trkpt lat="44.17547" lon="6.7493">
        <ele>1206.5</ele>
      </trkpt>
      <trkpt lat="44.17583" lon="6.74921">
        <ele>1206.9</ele>
      </trkpt>
      <trkpt lat="44.17646" lon="6.74885">
        <ele>1210.9</ele>
      </trkpt>
      <trkpt lat="44.17681" lon="6.74854">
        <ele>1216</ele>
      </trkpt>
      <trkpt lat="44.17693" lon="6.74848">
        <ele>1217</ele>
      </trkpt>
      <trkpt lat="44.17748" lon="6.7483">
        <ele>1218.6</ele>
      </trkpt>
      <trkpt lat="44.17771" lon="6.74827">
        <ele>1222.9</ele>
      </trkpt>
      <trkpt lat="44.17781" lon="6.7483">
        <ele>1224.2</ele>
      </trkpt>
      <trkpt lat="44.17789" lon="6.74838">
        <ele>1224.2</ele>
      </trkpt>
      <trkpt lat="44.17795" lon="6.7485">
        <ele>1223.1</ele>
      </trkpt>
      <trkpt lat="44.17805" lon="6.74878">
        <ele>1219.5</ele>
      </trkpt>
      <trkpt lat="44.17813" lon="6.74889">
        <ele>1218.6</ele>
      </trkpt>
      <trkpt lat="44.17822" lon="6.74898">
        <ele>1218.2</ele>
      </trkpt>
      <trkpt lat="44.17833" lon="6.74902">
        <ele>1218.9</ele>
      </trkpt>
      <trkpt lat="44.17858" lon="6.74902">
        <ele>1219.9</ele>
      </trkpt>
      <trkpt lat="44.17936" lon="6.74893">
        <ele>1224.4</ele>
      </trkpt>
      <trkpt lat="44.17951" lon="6.74892">
        <ele>1224.4</ele>
      </trkpt>
      <trkpt lat="44.17995" lon="6.74901">
        <ele>1220.2</ele>
      </trkpt>
      <trkpt lat="44.18025" lon="6.749">
        <ele>1219.7</ele>
      </trkpt>
      <trkpt lat="44.18055" lon="6.7489">
        <ele>1223.1</ele>
      </trkpt>
      <trkpt lat="44.18124" lon="6.74857">
        <ele>1232.9</ele>
      </trkpt>
      <trkpt lat="44.18158" lon="6.74829">
        <ele>1237.6</ele>
      </trkpt>
      <trkpt lat="44.18182" lon="6.74816">
        <ele>1242.1</ele>
      </trkpt>
      <trkpt lat="44.18194" lon="6.74815">
        <ele>1243.8</ele>
      </trkpt>
      <trkpt lat="44.18206" lon="6.74818">
        <ele>1244.2</ele>
      </trkpt>
      <trkpt lat="44.1823" lon="6.74834">
        <ele>1241.6</ele>
      </trkpt>
      <trkpt lat="44.18238" lon="6.7484">
        <ele>1240.6</ele>
      </trkpt>
      <trkpt lat="44.18311" lon="6.74896">
        <ele>1234.9</ele>
      </trkpt>
      <trkpt lat="44.18326" lon="6.74903">
        <ele>1235.6</ele>
      </trkpt>
      <trkpt lat="44.18341" lon="6.74907">
        <ele>1235.9</ele>
      </trkpt>
      <trkpt lat="44.1835" lon="6.74909">
        <ele>1235.6</ele>
      </trkpt>
      <trkpt lat="44.18357" lon="6.7491">
        <ele>1235.4</ele>
      </trkpt>
      <trkpt lat="44.18406" lon="6.7491">
        <ele>1236.5</ele>
      </trkpt>
      <trkpt lat="44.18423" lon="6.74907">
        <ele>1237.5</ele>
      </trkpt>
      <trkpt lat="44.18455" lon="6.74896">
        <ele>1239.9</ele>
      </trkpt>
      <trkpt lat="44.18603" lon="6.7483">
        <ele>1251.7</ele>
      </trkpt>
      <trkpt lat="44.18639" lon="6.74814">
        <ele>1254.9</ele>
      </trkpt>
      <trkpt lat="44.1865" lon="6.74808">
        <ele>1256</ele>
      </trkpt>
      <trkpt lat="44.18682" lon="6.74787">
        <ele>1259.4</ele>
      </trkpt>
      <trkpt lat="44.18693" lon="6.74782">
        <ele>1259.8</ele>
      </trkpt>
      <trkpt lat="44.18704" lon="6.7478">
        <ele>1259.6</ele>
      </trkpt>
      <trkpt lat="44.18706" lon="6.7478">
        <ele>1259.5</ele>
      </trkpt>
      <trkpt lat="44.18714" lon="6.7478">
        <ele>1259.1</ele>
      </trkpt>
      <trkpt lat="44.18725" lon="6.74782">
        <ele>1258.5</ele>
      </trkpt>
      <trkpt lat="44.18734" lon="6.74786">
        <ele>1257.8</ele>
      </trkpt>
      <trkpt lat="44.18744" lon="6.74797">
        <ele>1256.8</ele>
      </trkpt>
      <trkpt lat="44.18748" lon="6.748">
        <ele>1256.6</ele>
      </trkpt>
      <trkpt lat="44.18765" lon="6.74816">
        <ele>1256.4</ele>
      </trkpt>
      <trkpt lat="44.18773" lon="6.74824">
        <ele>1256.5</ele>
      </trkpt>
      <trkpt lat="44.18786" lon="6.74836">
        <ele>1256.9</ele>
      </trkpt>
      <trkpt lat="44.18796" lon="6.74842">
        <ele>1257.7</ele>
      </trkpt>
      <trkpt lat="44.18818" lon="6.74853">
        <ele>1259.4</ele>
      </trkpt>
      <trkpt lat="44.18822" lon="6.74855">
        <ele>1259.7</ele>
      </trkpt>
      <trkpt lat="44.1884" lon="6.74861">
        <ele>1260.7</ele>
      </trkpt>
      <trkpt lat="44.18882" lon="6.74877">
        <ele>1262.3</ele>
      </trkpt>
      <trkpt lat="44.18897" lon="6.74885">
        <ele>1263.2</ele>
      </trkpt>
      <trkpt lat="44.18902" lon="6.74889">
        <ele>1263.7</ele>
      </trkpt>
      <trkpt lat="44.18911" lon="6.74896">
        <ele>1264.6</ele>
      </trkpt>
      <trkpt lat="44.18912" lon="6.74896">
        <ele>1264.7</ele>
      </trkpt>
      <trkpt lat="44.18925" lon="6.74903">
        <ele>1267</ele>
      </trkpt>
      <trkpt lat="44.18932" lon="6.74907">
        <ele>1268.8</ele>
      </trkpt>
      <trkpt lat="44.18952" lon="6.74909">
        <ele>1272.7</ele>
      </trkpt>
      <trkpt lat="44.18962" lon="6.74909">
        <ele>1274.5</ele>
      </trkpt>
      <trkpt lat="44.1897" lon="6.74906">
        <ele>1275.5</ele>
      </trkpt>
      <trkpt lat="44.18974" lon="6.74904">
        <ele>1275.9</ele>
      </trkpt>
      <trkpt lat="44.19016" lon="6.74883">
        <ele>1281.8</ele>
      </trkpt>
      <trkpt lat="44.19051" lon="6.74854">
        <ele>1283.3</ele>
      </trkpt>
      <trkpt lat="44.19086" lon="6.74833">
        <ele>1282.9</ele>
      </trkpt>
      <trkpt lat="44.19122" lon="6.74796">
        <ele>1287.7</ele>
      </trkpt>
      <trkpt lat="44.19141" lon="6.74781">
        <ele>1288.5</ele>
      </trkpt>
      <trkpt lat="44.1916" lon="6.74756">
        <ele>1284.2</ele>
      </trkpt>
      <trkpt lat="44.1917" lon="6.7475">
        <ele>1283.4</ele>
      </trkpt>
      <trkpt lat="44.19192" lon="6.74749">
        <ele>1286</ele>
      </trkpt>
      <trkpt lat="44.19248" lon="6.74755">
        <ele>1294.9</ele>
      </trkpt>
      <trkpt lat="44.19258" lon="6.74755">
        <ele>1298.1</ele>
      </trkpt>
      <trkpt lat="44.19269" lon="6.74753">
        <ele>1301.4</ele>
      </trkpt>
      <trkpt lat="44.19278" lon="6.74747">
        <ele>1303.3</ele>
      </trkpt>
      <trkpt lat="44.19286" lon="6.74737">
        <ele>1304.5</ele>
      </trkpt>
      <trkpt lat="44.19301" lon="6.74711">
        <ele>1304.2</ele>
      </trkpt>
      <trkpt lat="44.19319" lon="6.74689">
        <ele>1303.5</ele>
      </trkpt>
      <trkpt lat="44.19331" lon="6.74681">
        <ele>1303.8</ele>
      </trkpt>
      <trkpt lat="44.19366" lon="6.7466">
        <ele>1307.4</ele>
      </trkpt>
      <trkpt lat="44.19394" lon="6.7464">
        <ele>1309.9</ele>
      </trkpt>
      <trkpt lat="44.19403" lon="6.74637">
        <ele>1310.8</ele>
      </trkpt>
      <trkpt lat="44.19412" lon="6.74637">
        <ele>1312.4</ele>
      </trkpt>
      <trkpt lat="44.19442" lon="6.74641">
        <ele>1317.7</ele>
      </trkpt>
      <trkpt lat="44.19451" lon="6.7464">
        <ele>1318.6</ele>
      </trkpt>
      <trkpt lat="44.19478" lon="6.74628">
        <ele>1318.9</ele>
      </trkpt>
      <trkpt lat="44.19486" lon="6.74627">
        <ele>1319.7</ele>
      </trkpt>
      <trkpt lat="44.19493" lon="6.7463">
        <ele>1321.5</ele>
      </trkpt>
      <trkpt lat="44.19498" lon="6.74636">
        <ele>1323.9</ele>
      </trkpt>
      <trkpt lat="44.19514" lon="6.74657">
        <ele>1332.4</ele>
      </trkpt>
      <trkpt lat="44.1952" lon="6.74659">
        <ele>1333.9</ele>
      </trkpt>
      <trkpt lat="44.19526" lon="6.74657">
        <ele>1334.3</ele>
      </trkpt>
      <trkpt lat="44.19532" lon="6.74641">
        <ele>1330.6</ele>
      </trkpt>
      <trkpt lat="44.19543" lon="6.746">
        <ele>1320.5</ele>
      </trkpt>
      <trkpt lat="44.19547" lon="6.74593">
        <ele>1319.1</ele>
      </trkpt>
      <trkpt lat="44.19552" lon="6.74588">
        <ele>1318.5</ele>
      </trkpt>
      <trkpt lat="44.19558" lon="6.74586">
        <ele>1318.8</ele>
      </trkpt>
      <trkpt lat="44.19571" lon="6.74592">
        <ele>1322.6</ele>
      </trkpt>
      <trkpt lat="44.19636" lon="6.7465">
        <ele>1343.5</ele>
      </trkpt>
      <trkpt lat="44.1964" lon="6.74655">
        <ele>1344.6</ele>
      </trkpt>
      <trkpt lat="44.19641" lon="6.7466">
        <ele>1345.5</ele>
      </trkpt>
      <trkpt lat="44.19641" lon="6.74665">
        <ele>1346.4</ele>
      </trkpt>
      <trkpt lat="44.19638" lon="6.74668">
        <ele>1346.9</ele>
      </trkpt>
      <trkpt lat="44.19635" lon="6.74668">
        <ele>1346.9</ele>
      </trkpt>
      <trkpt lat="44.1961" lon="6.74645">
        <ele>1341.2</ele>
      </trkpt>
      <trkpt lat="44.19584" lon="6.7463">
        <ele>1335.5</ele>
      </trkpt>
      <trkpt lat="44.19577" lon="6.74628">
        <ele>1333.9</ele>
      </trkpt>
      <trkpt lat="44.19571" lon="6.74629">
        <ele>1333.2</ele>
      </trkpt>
      <trkpt lat="44.19565" lon="6.74632">
        <ele>1333.2</ele>
      </trkpt>
      <trkpt lat="44.19559" lon="6.74639">
        <ele>1334.2</ele>
      </trkpt>
      <trkpt lat="44.19555" lon="6.74648">
        <ele>1336.2</ele>
      </trkpt>
      <trkpt lat="44.19554" lon="6.74659">
        <ele>1339.2</ele>
      </trkpt>
      <trkpt lat="44.19556" lon="6.74737">
        <ele>1359.4</ele>
      </trkpt>
      <trkpt lat="44.19554" lon="6.74748">
        <ele>1362</ele>
      </trkpt>
      <trkpt lat="44.19551" lon="6.74756">
        <ele>1363.5</ele>
      </trkpt>
      <trkpt lat="44.19546" lon="6.74763">
        <ele>1364.6</ele>
      </trkpt>
      <trkpt lat="44.19539" lon="6.74767">
        <ele>1364.9</ele>
      </trkpt>
      <trkpt lat="44.19532" lon="6.74767">
        <ele>1364.3</ele>
      </trkpt>
      <trkpt lat="44.19506" lon="6.74761">
        <ele>1360.9</ele>
      </trkpt>
      <trkpt lat="44.19488" lon="6.7476">
        <ele>1359.6</ele>
      </trkpt>
      <trkpt lat="44.19479" lon="6.74761">
        <ele>1359.5</ele>
      </trkpt>
      <trkpt lat="44.1947" lon="6.74765">
        <ele>1359.8</ele>
      </trkpt>
      <trkpt lat="44.19407" lon="6.74805">
        <ele>1360.4</ele>
      </trkpt>
      <trkpt lat="44.19403" lon="6.74809">
        <ele>1359.7</ele>
      </trkpt>
      <trkpt lat="44.194" lon="6.74821">
        <ele>1360.8</ele>
      </trkpt>
      <trkpt lat="44.19402" lon="6.74828">
        <ele>1362.5</ele>
      </trkpt>
      <trkpt lat="44.19405" lon="6.74833">
        <ele>1364.3</ele>
      </trkpt>
      <trkpt lat="44.19411" lon="6.74835">
        <ele>1366.5</ele>
      </trkpt>
      <trkpt lat="44.19417" lon="6.74833">
        <ele>1368</ele>
      </trkpt>
      <trkpt lat="44.1946" lon="6.74806">
        <ele>1367</ele>
      </trkpt>
      <trkpt lat="44.19474" lon="6.74805">
        <ele>1367.9</ele>
      </trkpt>
      <trkpt lat="44.19479" lon="6.74809">
        <ele>1369.1</ele>
      </trkpt>
      <trkpt lat="44.19489" lon="6.74826">
        <ele>1373.4</ele>
      </trkpt>
      <trkpt lat="44.19495" lon="6.74849">
        <ele>1378.3</ele>
      </trkpt>
      <trkpt lat="44.19496" lon="6.74873">
        <ele>1382.7</ele>
      </trkpt>
      <trkpt lat="44.19495" lon="6.74907">
        <ele>1388.7</ele>
      </trkpt>
      <trkpt lat="44.19498" lon="6.74931">
        <ele>1393.4</ele>
      </trkpt>
      <trkpt lat="44.19503" lon="6.7494">
        <ele>1395.5</ele>
      </trkpt>
      <trkpt lat="44.19508" lon="6.74945">
        <ele>1396.9</ele>
      </trkpt>
      <trkpt lat="44.19516" lon="6.74948">
        <ele>1398.3</ele>
      </trkpt>
      <trkpt lat="44.19531" lon="6.74943">
        <ele>1398.8</ele>
      </trkpt>
      <trkpt lat="44.19546" lon="6.74932">
        <ele>1398</ele>
      </trkpt>
      <trkpt lat="44.19558" lon="6.74917">
        <ele>1395.9</ele>
      </trkpt>
      <trkpt lat="44.19564" lon="6.74899">
        <ele>1393</ele>
      </trkpt>
      <trkpt lat="44.19569" lon="6.7489">
        <ele>1391.7</ele>
      </trkpt>
      <trkpt lat="44.19598" lon="6.7486">
        <ele>1388.5</ele>
      </trkpt>
      <trkpt lat="44.19614" lon="6.74837">
        <ele>1385.3</ele>
      </trkpt>
      <trkpt lat="44.1962" lon="6.74834">
        <ele>1385.2</ele>
      </trkpt>
      <trkpt lat="44.19626" lon="6.74835">
        <ele>1385.9</ele>
      </trkpt>
      <trkpt lat="44.19631" lon="6.74839">
        <ele>1387.2</ele>
      </trkpt>
      <trkpt lat="44.19641" lon="6.74855">
        <ele>1391.5</ele>
      </trkpt>
      <trkpt lat="44.19667" lon="6.74921">
        <ele>1409.4</ele>
      </trkpt>
      <trkpt lat="44.19671" lon="6.74928">
        <ele>1412.1</ele>
      </trkpt>
      <trkpt lat="44.19677" lon="6.74932">
        <ele>1414.4</ele>
      </trkpt>
      <trkpt lat="44.19684" lon="6.74933">
        <ele>1415.9</ele>
      </trkpt>
      <trkpt lat="44.19691" lon="6.7493">
        <ele>1416.2</ele>
      </trkpt>
      <trkpt lat="44.19735" lon="6.74901">
        <ele>1415</ele>
      </trkpt>
      <trkpt lat="44.19752" lon="6.74871">
        <ele>1408.5</ele>
      </trkpt>
      <trkpt lat="44.19758" lon="6.74865">
        <ele>1407.5</ele>
      </trkpt>
      <trkpt lat="44.19765" lon="6.74862">
        <ele>1407.5</ele>
      </trkpt>
      <trkpt lat="44.19772" lon="6.74863">
        <ele>1408.7</ele>
      </trkpt>
      <trkpt lat="44.19784" lon="6.74872">
        <ele>1412.6</ele>
      </trkpt>
      <trkpt lat="44.19803" lon="6.74899">
        <ele>1421.5</ele>
      </trkpt>
      <trkpt lat="44.19819" lon="6.74926">
        <ele>1429.2</ele>
      </trkpt>
      <trkpt lat="44.19829" lon="6.74936">
        <ele>1432</ele>
      </trkpt>
      <trkpt lat="44.19834" lon="6.74937">
        <ele>1432.6</ele>
      </trkpt>
      <trkpt lat="44.19839" lon="6.74935">
        <ele>1433.5</ele>
      </trkpt>
      <trkpt lat="44.19844" lon="6.7493">
        <ele>1433.9</ele>
      </trkpt>
      <trkpt lat="44.19848" lon="6.74922">
        <ele>1433.4</ele>
      </trkpt>
      <trkpt lat="44.19851" lon="6.74903">
        <ele>1430.5</ele>
      </trkpt>
      <trkpt lat="44.19862" lon="6.74871">
        <ele>1427.3</ele>
      </trkpt>
      <trkpt lat="44.19875" lon="6.74852">
        <ele>1427.7</ele>
      </trkpt>
      <trkpt lat="44.19882" lon="6.74845">
        <ele>1428.6</ele>
      </trkpt>
      <trkpt lat="44.199" lon="6.74838">
        <ele>1433.3</ele>
      </trkpt>
      <trkpt lat="44.19939" lon="6.74836">
        <ele>1441.5</ele>
      </trkpt>
      <trkpt lat="44.20045" lon="6.74809">
        <ele>1454.7</ele>
      </trkpt>
      <trkpt lat="44.20054" lon="6.74804">
        <ele>1455.7</ele>
      </trkpt>
      <trkpt lat="44.2007" lon="6.74788">
        <ele>1455.4</ele>
      </trkpt>
      <trkpt lat="44.20099" lon="6.74743">
        <ele>1449.9</ele>
      </trkpt>
      <trkpt lat="44.20109" lon="6.74732">
        <ele>1449.7</ele>
      </trkpt>
      <trkpt lat="44.20123" lon="6.7473">
        <ele>1452.5</ele>
      </trkpt>
      <trkpt lat="44.20144" lon="6.74738">
        <ele>1458.8</ele>
      </trkpt>
      <trkpt lat="44.20152" lon="6.74738">
        <ele>1460.6</ele>
      </trkpt>
      <trkpt lat="44.20167" lon="6.74733">
        <ele>1463</ele>
      </trkpt>
      <trkpt lat="44.20184" lon="6.74723">
        <ele>1464.2</ele>
      </trkpt>
      <trkpt lat="44.20198" lon="6.74708">
        <ele>1463.9</ele>
      </trkpt>
      <trkpt lat="44.20219" lon="6.74672">
        <ele>1460.8</ele>
      </trkpt>
      <trkpt lat="44.20224" lon="6.74665">
        <ele>1460.4</ele>
      </trkpt>
      <trkpt lat="44.2023" lon="6.74659">
        <ele>1460.3</ele>
      </trkpt>
      <trkpt lat="44.20238" lon="6.74656">
        <ele>1461.1</ele>
      </trkpt>
      <trkpt lat="44.20246" lon="6.74656">
        <ele>1462.4</ele>
      </trkpt>
      <trkpt lat="44.20346" lon="6.74681">
        <ele>1485.1</ele>
      </trkpt>
      <trkpt lat="44.20356" lon="6.7468">
        <ele>1487.8</ele>
      </trkpt>
      <trkpt lat="44.20365" lon="6.74676">
        <ele>1489.7</ele>
      </trkpt>
      <trkpt lat="44.20373" lon="6.74669">
        <ele>1490.8</ele>
      </trkpt>
      <trkpt lat="44.2038" lon="6.74659">
        <ele>1491.1</ele>
      </trkpt>
      <trkpt lat="44.2039" lon="6.74636">
        <ele>1489.9</ele>
      </trkpt>
      <trkpt lat="44.20396" lon="6.74598">
        <ele>1484.7</ele>
      </trkpt>
      <trkpt lat="44.20399" lon="6.74588">
        <ele>1483.6</ele>
      </trkpt>
      <trkpt lat="44.20403" lon="6.7458">
        <ele>1482.5</ele>
      </trkpt>
      <trkpt lat="44.20409" lon="6.74574">
        <ele>1481.8</ele>
      </trkpt>
      <trkpt lat="44.20416" lon="6.74572">
        <ele>1482.8</ele>
      </trkpt>
      <trkpt lat="44.20424" lon="6.74574">
        <ele>1484</ele>
      </trkpt>
      <trkpt lat="44.2043" lon="6.74578">
        <ele>1485.8</ele>
      </trkpt>
      <trkpt lat="44.20458" lon="6.74612">
        <ele>1496.2</ele>
      </trkpt>
      <trkpt lat="44.20466" lon="6.7462">
        <ele>1499</ele>
      </trkpt>
      <trkpt lat="44.20475" lon="6.74624">
        <ele>1501</ele>
      </trkpt>
      <trkpt lat="44.20485" lon="6.74625">
        <ele>1502.4</ele>
      </trkpt>
      <trkpt lat="44.20496" lon="6.74622">
        <ele>1502.6</ele>
      </trkpt>
      <trkpt lat="44.20599" lon="6.74576">
        <ele>1501.6</ele>
      </trkpt>
      <trkpt lat="44.20623" lon="6.7457">
        <ele>1501.5</ele>
      </trkpt>
      <trkpt lat="44.2067" lon="6.74573">
        <ele>1506.6</ele>
      </trkpt>
      <trkpt lat="44.20687" lon="6.74577">
        <ele>1509.1</ele>
      </trkpt>
      <trkpt lat="44.20702" lon="6.74588">
        <ele>1513.5</ele>
      </trkpt>
      <trkpt lat="44.20719" lon="6.74611">
        <ele>1521.4</ele>
      </trkpt>
      <trkpt lat="44.20732" lon="6.74619">
        <ele>1524.4</ele>
      </trkpt>
      <trkpt lat="44.20739" lon="6.7462">
        <ele>1525</ele>
      </trkpt>
      <trkpt lat="44.20746" lon="6.74618">
        <ele>1524.8</ele>
      </trkpt>
      <trkpt lat="44.20753" lon="6.74613">
        <ele>1524.4</ele>
      </trkpt>
      <trkpt lat="44.20814" lon="6.74559">
        <ele>1529.3</ele>
      </trkpt>
      <trkpt lat="44.20829" lon="6.74539">
        <ele>1529.9</ele>
      </trkpt>
      <trkpt lat="44.20847" lon="6.74505">
        <ele>1527.1</ele>
      </trkpt>
      <trkpt lat="44.20857" lon="6.74491">
        <ele>1525.3</ele>
      </trkpt>
      <trkpt lat="44.20884" lon="6.7447">
        <ele>1523.3</ele>
      </trkpt>
      <trkpt lat="44.20898" lon="6.74462">
        <ele>1522.6</ele>
      </trkpt>
      <trkpt lat="44.20906" lon="6.74462">
        <ele>1523.8</ele>
      </trkpt>
      <trkpt lat="44.20912" lon="6.74465">
        <ele>1526</ele>
      </trkpt>
      <trkpt lat="44.20918" lon="6.7447">
        <ele>1528.2</ele>
      </trkpt>
      <trkpt lat="44.20937" lon="6.74496">
        <ele>1531.1</ele>
      </trkpt>
      <trkpt lat="44.20956" lon="6.74529">
        <ele>1534.4</ele>
      </trkpt>
      <trkpt lat="44.20978" lon="6.74577">
        <ele>1544.7</ele>
      </trkpt>
      <trkpt lat="44.20991" lon="6.74597">
        <ele>1547.9</ele>
      </trkpt>
      <trkpt lat="44.21015" lon="6.74643">
        <ele>1557.7</ele>
      </trkpt>
      <trkpt lat="44.21022" lon="6.74651">
        <ele>1559.4</ele>
      </trkpt>
      <trkpt lat="44.2103" lon="6.74656">
        <ele>1560.2</ele>
      </trkpt>
      <trkpt lat="44.21039" lon="6.74658">
        <ele>1559.9</ele>
      </trkpt>
      <trkpt lat="44.21049" lon="6.74657">
        <ele>1558.4</ele>
      </trkpt>
      <trkpt lat="44.21075" lon="6.7465">
        <ele>1552.1</ele>
      </trkpt>
      <trkpt lat="44.21091" lon="6.74651">
        <ele>1550.3</ele>
      </trkpt>
      <trkpt lat="44.21097" lon="6.74654">
        <ele>1550.8</ele>
      </trkpt>
      <trkpt lat="44.21108" lon="6.74666">
        <ele>1554.8</ele>
      </trkpt>
      <trkpt lat="44.21123" lon="6.74695">
        <ele>1566</ele>
      </trkpt>
      <trkpt lat="44.21129" lon="6.74703">
        <ele>1569.1</ele>
      </trkpt>
      <trkpt lat="44.21136" lon="6.74709">
        <ele>1571.3</ele>
      </trkpt>
      <trkpt lat="44.21144" lon="6.74711">
        <ele>1571.5</ele>
      </trkpt>
      <trkpt lat="44.2117" lon="6.74711">
        <ele>1569.2</ele>
      </trkpt>
      <trkpt lat="44.21196" lon="6.74714">
        <ele>1569.1</ele>
      </trkpt>
      <trkpt lat="44.21204" lon="6.74717">
        <ele>1570.1</ele>
      </trkpt>
      <trkpt lat="44.21226" lon="6.7473">
        <ele>1575.1</ele>
      </trkpt>
      <trkpt lat="44.21234" lon="6.74732">
        <ele>1575.5</ele>
      </trkpt>
      <trkpt lat="44.21273" lon="6.74734">
        <ele>1571.3</ele>
      </trkpt>
      <trkpt lat="44.21283" lon="6.74736">
        <ele>1570.5</ele>
      </trkpt>
      <trkpt lat="44.2131" lon="6.74752">
        <ele>1573.2</ele>
      </trkpt>
      <trkpt lat="44.21335" lon="6.74778">
        <ele>1583.1</ele>
      </trkpt>
      <trkpt lat="44.21383" lon="6.74774">
        <ele>1580.2</ele>
      </trkpt>
      <trkpt lat="44.21409" lon="6.74778">
        <ele>1581.9</ele>
      </trkpt>
      <trkpt lat="44.21435" lon="6.74774">
        <ele>1579.9</ele>
      </trkpt>
      <trkpt lat="44.21467" lon="6.74774">
        <ele>1580.3</ele>
      </trkpt>
      <trkpt lat="44.21486" lon="6.74776">
        <ele>1581.3</ele>
      </trkpt>
      <trkpt lat="44.21496" lon="6.7478">
        <ele>1582.8</ele>
      </trkpt>
      <trkpt lat="44.21523" lon="6.74802">
        <ele>1585.9</ele>
      </trkpt>
      <trkpt lat="44.21538" lon="6.74812">
        <ele>1586.2</ele>
      </trkpt>
      <trkpt lat="44.21568" lon="6.74822">
        <ele>1583.3</ele>
      </trkpt>
      <trkpt lat="44.21586" lon="6.74833">
        <ele>1583.3</ele>
      </trkpt>
      <trkpt lat="44.21604" lon="6.74851">
        <ele>1584.6</ele>
      </trkpt>
      <trkpt lat="44.21608" lon="6.74862">
        <ele>1587</ele>
      </trkpt>
      <trkpt lat="44.21613" lon="6.7489">
        <ele>1594.5</ele>
      </trkpt>
      <trkpt lat="44.21618" lon="6.74899">
        <ele>1596.3</ele>
      </trkpt>
      <trkpt lat="44.21631" lon="6.74908">
        <ele>1596.7</ele>
      </trkpt>
      <trkpt lat="44.21637" lon="6.74911">
        <ele>1596.5</ele>
      </trkpt>
      <trkpt lat="44.21644" lon="6.74912">
        <ele>1595.6</ele>
      </trkpt>
      <trkpt lat="44.21653" lon="6.74911">
        <ele>1593.6</ele>
      </trkpt>
      <trkpt lat="44.21679" lon="6.749">
        <ele>1591.8</ele>
      </trkpt>
      <trkpt lat="44.21715" lon="6.74892">
        <ele>1601</ele>
      </trkpt>
      <trkpt lat="44.21734" lon="6.74882">
        <ele>1602.1</ele>
      </trkpt>
      <trkpt lat="44.21741" lon="6.74875">
        <ele>1600.4</ele>
      </trkpt>
      <trkpt lat="44.21794" lon="6.74821">
        <ele>1584.6</ele>
      </trkpt>
      <trkpt lat="44.21815" lon="6.74805">
        <ele>1581.4</ele>
      </trkpt>
      <trkpt lat="44.21841" lon="6.74784">
        <ele>1574.2</ele>
      </trkpt>
      <trkpt lat="44.21848" lon="6.74781">
        <ele>1573.2</ele>
      </trkpt>
      <trkpt lat="44.21877" lon="6.74785">
        <ele>1576.8</ele>
      </trkpt>
      <trkpt lat="44.21924" lon="6.74811">
        <ele>1586.7</ele>
      </trkpt>
      <trkpt lat="44.21932" lon="6.74813">
        <ele>1589</ele>
      </trkpt>
      <trkpt lat="44.21941" lon="6.74807">
        <ele>1590.1</ele>
      </trkpt>
      <trkpt lat="44.21953" lon="6.74786">
        <ele>1590.5</ele>
      </trkpt>
      <trkpt lat="44.21965" lon="6.74754">
        <ele>1591.1</ele>
      </trkpt>
      <trkpt lat="44.21974" lon="6.74721">
        <ele>1594.8</ele>
      </trkpt>
      <trkpt lat="44.21986" lon="6.74695">
        <ele>1600.6</ele>
      </trkpt>
      <trkpt lat="44.21989" lon="6.74679">
        <ele>1602.4</ele>
      </trkpt>
      <trkpt lat="44.21988" lon="6.74646">
        <ele>1606.7</ele>
      </trkpt>
      <trkpt lat="44.21986" lon="6.74634">
        <ele>1608.4</ele>
      </trkpt>
      <trkpt lat="44.21978" lon="6.74615">
        <ele>1609.1</ele>
      </trkpt>
      <trkpt lat="44.21967" lon="6.74601">
        <ele>1607.7</ele>
      </trkpt>
      <trkpt lat="44.21953" lon="6.7459">
        <ele>1604.7</ele>
      </trkpt>
      <trkpt lat="44.21888" lon="6.74582">
        <ele>1579.1</ele>
      </trkpt>
      <trkpt lat="44.2188" lon="6.74575">
        <ele>1578.3</ele>
      </trkpt>
      <trkpt lat="44.21877" lon="6.74567">
        <ele>1580.2</ele>
      </trkpt>
      <trkpt lat="44.21877" lon="6.74563">
        <ele>1581.8</ele>
      </trkpt>
      <trkpt lat="44.21882" lon="6.74551">
        <ele>1589</ele>
      </trkpt>
      <trkpt lat="44.21886" lon="6.74549">
        <ele>1591.6</ele>
      </trkpt>
      <trkpt lat="44.2189" lon="6.74549">
        <ele>1593.4</ele>
      </trkpt>
      <trkpt lat="44.21905" lon="6.74561">
        <ele>1595.3</ele>
      </trkpt>
      <trkpt lat="44.21919" lon="6.74568">
        <ele>1598.8</ele>
      </trkpt>
      <trkpt lat="44.21939" lon="6.74565">
        <ele>1607.7</ele>
      </trkpt>
      <trkpt lat="44.21985" lon="6.74569">
        <ele>1624.1</ele>
      </trkpt>
      <trkpt lat="44.22008" lon="6.74582">
        <ele>1629</ele>
      </trkpt>
      <trkpt lat="44.22014" lon="6.74588">
        <ele>1630.3</ele>
      </trkpt>
      <trkpt lat="44.22038" lon="6.74628">
        <ele>1633.5</ele>
      </trkpt>
      <trkpt lat="44.2207" lon="6.74697">
        <ele>1638.7</ele>
      </trkpt>
      <trkpt lat="44.22082" lon="6.74719">
        <ele>1641.8</ele>
      </trkpt>
      <trkpt lat="44.22136" lon="6.74782">
        <ele>1645.1</ele>
      </trkpt>
      <trkpt lat="44.22153" lon="6.74798">
        <ele>1645</ele>
      </trkpt>
      <trkpt lat="44.22162" lon="6.74804">
        <ele>1645.4</ele>
      </trkpt>
      <trkpt lat="44.22173" lon="6.74808">
        <ele>1646.4</ele>
      </trkpt>
      <trkpt lat="44.2222" lon="6.74817">
        <ele>1652</ele>
      </trkpt>
      <trkpt lat="44.22243" lon="6.74819">
        <ele>1655.3</ele>
      </trkpt>
      <trkpt lat="44.2234" lon="6.74811">
        <ele>1667.1</ele>
      </trkpt>
      <trkpt lat="44.22369" lon="6.74812">
        <ele>1670.3</ele>
      </trkpt>
      <trkpt lat="44.2242" lon="6.7482">
        <ele>1674.3</ele>
      </trkpt>
      <trkpt lat="44.22478" lon="6.74826">
        <ele>1682.9</ele>
      </trkpt>
      <trkpt lat="44.22488" lon="6.74828">
        <ele>1684.1</ele>
      </trkpt>
      <trkpt lat="44.22497" lon="6.74833">
        <ele>1684.5</ele>
      </trkpt>
      <trkpt lat="44.22528" lon="6.7486">
        <ele>1680.7</ele>
      </trkpt>
      <trkpt lat="44.22538" lon="6.74863">
        <ele>1681.1</ele>
      </trkpt>
      <trkpt lat="44.22547" lon="6.74864">
        <ele>1682</ele>
      </trkpt>
      <trkpt lat="44.22586" lon="6.74856">
        <ele>1689.4</ele>
      </trkpt>
      <trkpt lat="44.22604" lon="6.74854">
        <ele>1691.6</ele>
      </trkpt>
      <trkpt lat="44.22614" lon="6.74856">
        <ele>1691.9</ele>
      </trkpt>
      <trkpt lat="44.22623" lon="6.7486">
        <ele>1691.5</ele>
      </trkpt>
      <trkpt lat="44.22654" lon="6.74882">
        <ele>1687.8</ele>
      </trkpt>
      <trkpt lat="44.22664" lon="6.74885">
        <ele>1687.9</ele>
      </trkpt>
      <trkpt lat="44.22684" lon="6.74882">
        <ele>1691.6</ele>
      </trkpt>
      <trkpt lat="44.22727" lon="6.74865">
        <ele>1703.6</ele>
      </trkpt>
      <trkpt lat="44.22737" lon="6.74864">
        <ele>1705.6</ele>
      </trkpt>
      <trkpt lat="44.22748" lon="6.74865">
        <ele>1707</ele>
      </trkpt>
      <trkpt lat="44.22757" lon="6.7487">
        <ele>1706.5</ele>
      </trkpt>
      <trkpt lat="44.22774" lon="6.74884">
        <ele>1704.2</ele>
      </trkpt>
      <trkpt lat="44.22784" lon="6.74889">
        <ele>1704.1</ele>
      </trkpt>
      <trkpt lat="44.22794" lon="6.7489">
        <ele>1705.2</ele>
      </trkpt>
      <trkpt lat="44.22803" lon="6.74888">
        <ele>1707</ele>
      </trkpt>
      <trkpt lat="44.22823" lon="6.74882">
        <ele>1711.4</ele>
      </trkpt>
      <trkpt lat="44.22833" lon="6.74881">
        <ele>1712.9</ele>
      </trkpt>
      <trkpt lat="44.22844" lon="6.74884">
        <ele>1713.3</ele>
      </trkpt>
      <trkpt lat="44.22853" lon="6.74889">
        <ele>1713</ele>
      </trkpt>
      <trkpt lat="44.2287" lon="6.74901">
        <ele>1712.2</ele>
      </trkpt>
      <trkpt lat="44.2288" lon="6.74904">
        <ele>1712.8</ele>
      </trkpt>
      <trkpt lat="44.2289" lon="6.74905">
        <ele>1713.8</ele>
      </trkpt>
      <trkpt lat="44.229" lon="6.74903">
        <ele>1715.3</ele>
      </trkpt>
      <trkpt lat="44.22985" lon="6.74874">
        <ele>1729.6</ele>
      </trkpt>
      <trkpt lat="44.23007" lon="6.74874">
        <ele>1733.7</ele>
      </trkpt>
      <trkpt lat="44.23018" lon="6.74876">
        <ele>1737.1</ele>
      </trkpt>
      <trkpt lat="44.23027" lon="6.74882">
        <ele>1738.8</ele>
      </trkpt>
      <trkpt lat="44.23036" lon="6.74889">
        <ele>1740.3</ele>
      </trkpt>
      <trkpt lat="44.23043" lon="6.749">
        <ele>1740.1</ele>
      </trkpt>
      <trkpt lat="44.23053" lon="6.74922">
        <ele>1738.6</ele>
      </trkpt>
      <trkpt lat="44.23058" lon="6.74953">
        <ele>1734</ele>
      </trkpt>
      <trkpt lat="44.23062" lon="6.74961">
        <ele>1733.6</ele>
      </trkpt>
      <trkpt lat="44.23067" lon="6.74967">
        <ele>1734</ele>
      </trkpt>
      <trkpt lat="44.23074" lon="6.74971">
        <ele>1735.5</ele>
      </trkpt>
      <trkpt lat="44.23104" lon="6.74982">
        <ele>1743.6</ele>
      </trkpt>
      <trkpt lat="44.23123" lon="6.74995">
        <ele>1747.8</ele>
      </trkpt>
      <trkpt lat="44.23131" lon="6.75003">
        <ele>1749.3</ele>
      </trkpt>
      <trkpt lat="44.23144" lon="6.75024">
        <ele>1751</ele>
      </trkpt>
      <trkpt lat="44.23149" lon="6.75048">
        <ele>1749.4</ele>
      </trkpt>
      <trkpt lat="44.2315" lon="6.75071">
        <ele>1746.4</ele>
      </trkpt>
      <trkpt lat="44.23151" lon="6.7508">
        <ele>1745.5</ele>
      </trkpt>
      <trkpt lat="44.23154" lon="6.75089">
        <ele>1745</ele>
      </trkpt>
      <trkpt lat="44.23159" lon="6.75096">
        <ele>1745.5</ele>
      </trkpt>
      <trkpt lat="44.23165" lon="6.75102">
        <ele>1746.4</ele>
      </trkpt>
      <trkpt lat="44.23174" lon="6.75105">
        <ele>1748.2</ele>
      </trkpt>
      <trkpt lat="44.23185" lon="6.75106">
        <ele>1750.7</ele>
      </trkpt>
      <trkpt lat="44.23228" lon="6.75103">
        <ele>1762</ele>
      </trkpt>
      <trkpt lat="44.23237" lon="6.75107">
        <ele>1763.6</ele>
      </trkpt>
      <trkpt lat="44.23244" lon="6.75113">
        <ele>1764.5</ele>
      </trkpt>
      <trkpt lat="44.23251" lon="6.75123">
        <ele>1764.9</ele>
      </trkpt>
      <trkpt lat="44.23255" lon="6.75134">
        <ele>1764.3</ele>
      </trkpt>
      <trkpt lat="44.23257" lon="6.75158">
        <ele>1761.6</ele>
      </trkpt>
      <trkpt lat="44.23261" lon="6.7518">
        <ele>1758.9</ele>
      </trkpt>
      <trkpt lat="44.23267" lon="6.75189">
        <ele>1758.5</ele>
      </trkpt>
      <trkpt lat="44.23284" lon="6.75201">
        <ele>1760.1</ele>
      </trkpt>
      <trkpt lat="44.23324" lon="6.75221">
        <ele>1765.7</ele>
      </trkpt>
      <trkpt lat="44.23365" lon="6.75236">
        <ele>1767.2</ele>
      </trkpt>
      <trkpt lat="44.23392" lon="6.75242">
        <ele>1767.8</ele>
      </trkpt>
      <trkpt lat="44.23476" lon="6.75241">
        <ele>1776.3</ele>
      </trkpt>
      <trkpt lat="44.2349" lon="6.75241">
        <ele>1777.9</ele>
      </trkpt>
      <trkpt lat="44.235" lon="6.75239">
        <ele>1779.1</ele>
      </trkpt>
      <trkpt lat="44.23509" lon="6.75232">
        <ele>1779.1</ele>
      </trkpt>
      <trkpt lat="44.23519" lon="6.75219">
        <ele>1779.1</ele>
      </trkpt>
      <trkpt lat="44.23524" lon="6.75208">
        <ele>1779.2</ele>
      </trkpt>
      <trkpt lat="44.23563" lon="6.75147">
        <ele>1782</ele>
      </trkpt>
      <trkpt lat="44.23573" lon="6.75128">
        <ele>1784.6</ele>
      </trkpt>
      <trkpt lat="44.23584" lon="6.75114">
        <ele>1786.6</ele>
      </trkpt>
      <trkpt lat="44.23594" lon="6.75108">
        <ele>1787.5</ele>
      </trkpt>
      <trkpt lat="44.23605" lon="6.75107">
        <ele>1787.8</ele>
      </trkpt>
      <trkpt lat="44.23694" lon="6.75153">
        <ele>1784.8</ele>
      </trkpt>
      <trkpt lat="44.23712" lon="6.7516">
        <ele>1786.1</ele>
      </trkpt>
      <trkpt lat="44.23737" lon="6.75162">
        <ele>1789.1</ele>
      </trkpt>
      <trkpt lat="44.23748" lon="6.75163">
        <ele>1790.4</ele>
      </trkpt>
      <trkpt lat="44.23759" lon="6.75165">
        <ele>1791</ele>
      </trkpt>
      <trkpt lat="44.23771" lon="6.75165">
        <ele>1791.8</ele>
      </trkpt>
      <trkpt lat="44.23787" lon="6.75157">
        <ele>1794.6</ele>
      </trkpt>
      <trkpt lat="44.23827" lon="6.75112">
        <ele>1807.2</ele>
      </trkpt>
      <trkpt lat="44.23836" lon="6.75108">
        <ele>1809.2</ele>
      </trkpt>
      <trkpt lat="44.23845" lon="6.75106">
        <ele>1811.6</ele>
      </trkpt>
      <trkpt lat="44.23864" lon="6.75109">
        <ele>1814.9</ele>
      </trkpt>
      <trkpt lat="44.2387" lon="6.75113">
        <ele>1815.1</ele>
      </trkpt>
      <trkpt lat="44.23875" lon="6.75118">
        <ele>1814.8</ele>
      </trkpt>
      <trkpt lat="44.23884" lon="6.75128">
        <ele>1813.9</ele>
      </trkpt>
      <trkpt lat="44.23902" lon="6.75153">
        <ele>1809.9</ele>
      </trkpt>
      <trkpt lat="44.23909" lon="6.75159">
        <ele>1809.2</ele>
      </trkpt>
      <trkpt lat="44.23927" lon="6.75169">
        <ele>1809.7</ele>
      </trkpt>
      <trkpt lat="44.24022" lon="6.75198">
        <ele>1822.2</ele>
      </trkpt>
      <trkpt lat="44.24096" lon="6.75245">
        <ele>1824.3</ele>
      </trkpt>
      <trkpt lat="44.24117" lon="6.75249">
        <ele>1826.5</ele>
      </trkpt>
      <trkpt lat="44.2416" lon="6.75241">
        <ele>1835.9</ele>
      </trkpt>
      <trkpt lat="44.24172" lon="6.75241">
        <ele>1838.3</ele>
      </trkpt>
      <trkpt lat="44.24194" lon="6.75246">
        <ele>1841.8</ele>
      </trkpt>
      <trkpt lat="44.24211" lon="6.75259">
        <ele>1843</ele>
      </trkpt>
      <trkpt lat="44.24219" lon="6.75269">
        <ele>1843.4</ele>
      </trkpt>
      <trkpt lat="44.2423" lon="6.75294">
        <ele>1842.2</ele>
      </trkpt>
      <trkpt lat="44.24297" lon="6.75507">
        <ele>1852.2</ele>
      </trkpt>
      <trkpt lat="44.24299" lon="6.75513">
        <ele>1852.8</ele>
      </trkpt>
      <trkpt lat="44.2431" lon="6.75542">
        <ele>1855.7</ele>
      </trkpt>
      <trkpt lat="44.24311" lon="6.75548">
        <ele>1856</ele>
      </trkpt>
      <trkpt lat="44.24339" lon="6.75633">
        <ele>1863.9</ele>
      </trkpt>
      <trkpt lat="44.24349" lon="6.75654">
        <ele>1865.6</ele>
      </trkpt>
      <trkpt lat="44.24356" lon="6.75664">
        <ele>1866.7</ele>
      </trkpt>
      <trkpt lat="44.24373" lon="6.75682">
        <ele>1867.6</ele>
      </trkpt>
      <trkpt lat="44.24382" lon="6.75689">
        <ele>1868.1</ele>
      </trkpt>
      <trkpt lat="44.24404" lon="6.75699">
        <ele>1870.1</ele>
      </trkpt>
      <trkpt lat="44.24437" lon="6.7571">
        <ele>1873.6</ele>
      </trkpt>
      <trkpt lat="44.24441" lon="6.75711">
        <ele>1874</ele>
      </trkpt>
      <trkpt lat="44.24475" lon="6.75719">
        <ele>1877.9</ele>
      </trkpt>
      <trkpt lat="44.24482" lon="6.75721">
        <ele>1878.7</ele>
      </trkpt>
      <trkpt lat="44.24488" lon="6.75716">
        <ele>1879.9</ele>
      </trkpt>
      <trkpt lat="44.2449" lon="6.75708">
        <ele>1880.7</ele>
      </trkpt>
      <trkpt lat="44.24487" lon="6.757">
        <ele>1880.9</ele>
      </trkpt>
      <trkpt lat="44.24483" lon="6.75694">
        <ele>1880.8</ele>
      </trkpt>
      <trkpt lat="44.24446" lon="6.75663">
        <ele>1878</ele>
      </trkpt>
      <trkpt lat="44.24437" lon="6.75647">
        <ele>1877</ele>
      </trkpt>
      <trkpt lat="44.24435" lon="6.75627">
        <ele>1877</ele>
      </trkpt>
      <trkpt lat="44.24437" lon="6.75618">
        <ele>1877.5</ele>
      </trkpt>
      <trkpt lat="44.24456" lon="6.75583">
        <ele>1882.1</ele>
      </trkpt>
      <trkpt lat="44.2446" lon="6.75574">
        <ele>1883.8</ele>
      </trkpt>
      <trkpt lat="44.24465" lon="6.75556">
        <ele>1886.9</ele>
      </trkpt>
      <trkpt lat="44.24465" lon="6.75535">
        <ele>1889.3</ele>
      </trkpt>
      <trkpt lat="44.24462" lon="6.75524">
        <ele>1889.6</ele>
      </trkpt>
      <trkpt lat="44.24455" lon="6.75506">
        <ele>1889.3</ele>
      </trkpt>
      <trkpt lat="44.24411" lon="6.75423">
        <ele>1891.5</ele>
      </trkpt>
      <trkpt lat="44.24407" lon="6.75412">
        <ele>1892.5</ele>
      </trkpt>
      <trkpt lat="44.24406" lon="6.75407">
        <ele>1893.4</ele>
      </trkpt>
      <trkpt lat="44.24408" lon="6.75404">
        <ele>1895</ele>
      </trkpt>
      <trkpt lat="44.2441" lon="6.75402">
        <ele>1896.3</ele>
      </trkpt>
      <trkpt lat="44.24414" lon="6.75403">
        <ele>1897.7</ele>
      </trkpt>
      <trkpt lat="44.24427" lon="6.75438">
        <ele>1895.2</ele>
      </trkpt>
      <trkpt lat="44.24435" lon="6.75453">
        <ele>1895</ele>
      </trkpt>
      <trkpt lat="44.24448" lon="6.75467">
        <ele>1896.7</ele>
      </trkpt>
      <trkpt lat="44.24515" lon="6.7551">
        <ele>1908.8</ele>
      </trkpt>
      <trkpt lat="44.24552" lon="6.75537">
        <ele>1914.9</ele>
      </trkpt>
      <trkpt lat="44.24579" lon="6.75561">
        <ele>1915.4</ele>
      </trkpt>
      <trkpt lat="44.24601" lon="6.75585">
        <ele>1913.5</ele>
      </trkpt>
      <trkpt lat="44.24622" lon="6.75606">
        <ele>1917</ele>
      </trkpt>
      <trkpt lat="44.24631" lon="6.75612">
        <ele>1918.9</ele>
      </trkpt>
      <trkpt lat="44.24651" lon="6.75632">
        <ele>1922.6</ele>
      </trkpt>
      <trkpt lat="44.24657" lon="6.75644">
        <ele>1923.2</ele>
      </trkpt>
      <trkpt lat="44.24666" lon="6.75684">
        <ele>1922.6</ele>
      </trkpt>
      <trkpt lat="44.2468" lon="6.75799">
        <ele>1930.3</ele>
      </trkpt>
      <trkpt lat="44.2469" lon="6.75941">
        <ele>1933</ele>
      </trkpt>
      <trkpt lat="44.24694" lon="6.75964">
        <ele>1933.5</ele>
      </trkpt>
      <trkpt lat="44.24698" lon="6.75973">
        <ele>1934.8</ele>
      </trkpt>
      <trkpt lat="44.24703" lon="6.75981">
        <ele>1936.5</ele>
      </trkpt>
      <trkpt lat="44.24717" lon="6.75994">
        <ele>1941.7</ele>
      </trkpt>
      <trkpt lat="44.24782" lon="6.76038">
        <ele>1959.3</ele>
      </trkpt>
      <trkpt lat="44.24789" lon="6.76048">
        <ele>1959.5</ele>
      </trkpt>
      <trkpt lat="44.24795" lon="6.7606">
        <ele>1958.8</ele>
      </trkpt>
      <trkpt lat="44.24823" lon="6.76128">
        <ele>1957.5</ele>
      </trkpt>
      <trkpt lat="44.24843" lon="6.76185">
        <ele>1958.2</ele>
      </trkpt>
      <trkpt lat="44.24877" lon="6.76323">
        <ele>1967.7</ele>
      </trkpt>
      <trkpt lat="44.24889" lon="6.76347">
        <ele>1970.9</ele>
      </trkpt>
      <trkpt lat="44.24926" lon="6.764">
        <ele>1977.4</ele>
      </trkpt>
      <trkpt lat="44.24938" lon="6.76422">
        <ele>1979.5</ele>
      </trkpt>
      <trkpt lat="44.24943" lon="6.76447">
        <ele>1981.2</ele>
      </trkpt>
      <trkpt lat="44.24942" lon="6.76519">
        <ele>1982.2</ele>
      </trkpt>
      <trkpt lat="44.24943" lon="6.76531">
        <ele>1983</ele>
      </trkpt>
      <trkpt lat="44.24946" lon="6.76542">
        <ele>1984.3</ele>
      </trkpt>
      <trkpt lat="44.2495" lon="6.76551">
        <ele>1985.7</ele>
      </trkpt>
      <trkpt lat="44.24956" lon="6.76557">
        <ele>1987.6</ele>
      </trkpt>
      <trkpt lat="44.24964" lon="6.7656">
        <ele>1989.9</ele>
      </trkpt>
      <trkpt lat="44.24971" lon="6.76559">
        <ele>1991.7</ele>
      </trkpt>
      <trkpt lat="44.24978" lon="6.76554">
        <ele>1993.4</ele>
      </trkpt>
      <trkpt lat="44.24982" lon="6.76543">
        <ele>1993.8</ele>
      </trkpt>
      <trkpt lat="44.24988" lon="6.76521">
        <ele>1994.2</ele>
      </trkpt>
      <trkpt lat="44.25001" lon="6.76419">
        <ele>1998.2</ele>
      </trkpt>
      <trkpt lat="44.25" lon="6.764">
        <ele>1999.8</ele>
      </trkpt>
      <trkpt lat="44.24998" lon="6.76381">
        <ele>2001.2</ele>
      </trkpt>
      <trkpt lat="44.24986" lon="6.76324">
        <ele>2003.7</ele>
      </trkpt>
      <trkpt lat="44.24978" lon="6.76223">
        <ele>2011.6</ele>
      </trkpt>
      <trkpt lat="44.24958" lon="6.76135">
        <ele>2014.4</ele>
      </trkpt>
      <trkpt lat="44.2495" lon="6.76046">
        <ele>2027.3</ele>
      </trkpt>
      <trkpt lat="44.24948" lon="6.7603">
        <ele>2029.2</ele>
      </trkpt>
      <trkpt lat="44.24935" lon="6.7601">
        <ele>2026</ele>
      </trkpt>
      <trkpt lat="44.24917" lon="6.75961">
        <ele>2026.6</ele>
      </trkpt>
      <trkpt lat="44.24912" lon="6.75942">
        <ele>2028.8</ele>
      </trkpt>
      <trkpt lat="44.24901" lon="6.75879">
        <ele>2040.2</ele>
      </trkpt>
      <trkpt lat="44.2489" lon="6.75854">
        <ele>2042.9</ele>
      </trkpt>
      <trkpt lat="44.24879" lon="6.75838">
        <ele>2043.2</ele>
      </trkpt>
      <trkpt lat="44.24856" lon="6.75813">
        <ele>2041</ele>
      </trkpt>
      <trkpt lat="44.24838" lon="6.75796">
        <ele>2039.3</ele>
      </trkpt>
      <trkpt lat="44.24828" lon="6.7577">
        <ele>2040.6</ele>
      </trkpt>
      <trkpt lat="44.24824" lon="6.75753">
        <ele>2041.3</ele>
      </trkpt>
      <trkpt lat="44.24827" lon="6.75732">
        <ele>2035.5</ele>
      </trkpt>
      <trkpt lat="44.24833" lon="6.75708">
        <ele>2027.6</ele>
      </trkpt>
      <trkpt lat="44.24844" lon="6.75694">
        <ele>2024</ele>
      </trkpt>
      <trkpt lat="44.24876" lon="6.75677">
        <ele>2026.8</ele>
      </trkpt>
      <trkpt lat="44.24887" lon="6.75672">
        <ele>2028.4</ele>
      </trkpt>
      <trkpt lat="44.24917" lon="6.75674">
        <ele>2040.2</ele>
      </trkpt>
      <trkpt lat="44.24955" lon="6.75658">
        <ele>2051.9</ele>
      </trkpt>
      <trkpt lat="44.2498" lon="6.7566">
        <ele>2065</ele>
      </trkpt>
      <trkpt lat="44.24998" lon="6.75656">
        <ele>2071.8</ele>
      </trkpt>
      <trkpt lat="44.25027" lon="6.75629">
        <ele>2067.4</ele>
      </trkpt>
      <trkpt lat="44.25036" lon="6.75625">
        <ele>2068.1</ele>
      </trkpt>
      <trkpt lat="44.25053" lon="6.75621">
        <ele>2071.1</ele>
      </trkpt>
      <trkpt lat="44.25069" lon="6.75613">
        <ele>2072</ele>
      </trkpt>
      <trkpt lat="44.2514" lon="6.75554">
        <ele>2076.4</ele>
      </trkpt>
      <trkpt lat="44.2517" lon="6.75513">
        <ele>2076.3</ele>
      </trkpt>
      <trkpt lat="44.25177" lon="6.75503">
        <ele>2076.2</ele>
      </trkpt>
      <trkpt lat="44.25188" lon="6.75474">
        <ele>2075.7</ele>
      </trkpt>
      <trkpt lat="44.25193" lon="6.75468">
        <ele>2076.7</ele>
      </trkpt>
      <trkpt lat="44.25199" lon="6.75463">
        <ele>2078.2</ele>
      </trkpt>
      <trkpt lat="44.25221" lon="6.75458">
        <ele>2085.8</ele>
      </trkpt>
      <trkpt lat="44.25228" lon="6.75455">
        <ele>2087.9</ele>
      </trkpt>
      <trkpt lat="44.25233" lon="6.7545">
        <ele>2088.8</ele>
      </trkpt>
      <trkpt lat="44.25243" lon="6.75433">
        <ele>2089</ele>
      </trkpt>
      <trkpt lat="44.25246" lon="6.75423">
        <ele>2088</ele>
      </trkpt>
      <trkpt lat="44.25253" lon="6.75403">
        <ele>2090.7</ele>
      </trkpt>
      <trkpt lat="44.25253" lon="6.75381">
        <ele>2092.8</ele>
      </trkpt>
      <trkpt lat="44.25251" lon="6.7537">
        <ele>2092.9</ele>
      </trkpt>
      <trkpt lat="44.25235" lon="6.75325">
        <ele>2089.2</ele>
      </trkpt>
      <trkpt lat="44.25234" lon="6.75302">
        <ele>2089</ele>
      </trkpt>
      <trkpt lat="44.25236" lon="6.75291">
        <ele>2090</ele>
      </trkpt>
      <trkpt lat="44.25245" lon="6.75267">
        <ele>2094.5</ele>
      </trkpt>
      <trkpt lat="44.25273" lon="6.75206">
        <ele>2099.9</ele>
      </trkpt>
      <trkpt lat="44.25294" lon="6.75178">
        <ele>2104.5</ele>
      </trkpt>
      <trkpt lat="44.25336" lon="6.75128">
        <ele>2118.2</ele>
      </trkpt>
      <trkpt lat="44.25342" lon="6.7512">
        <ele>2120.1</ele>
      </trkpt>
      <trkpt lat="44.25348" lon="6.75099">
        <ele>2121.3</ele>
      </trkpt>
      <trkpt lat="44.25349" lon="6.75075">
        <ele>2121.3</ele>
      </trkpt>
      <trkpt lat="44.25348" lon="6.75064">
        <ele>2121.4</ele>
      </trkpt>
      <trkpt lat="44.25345" lon="6.75054">
        <ele>2120.6</ele>
      </trkpt>
      <trkpt lat="44.2534" lon="6.75046">
        <ele>2118.6</ele>
      </trkpt>
      <trkpt lat="44.25315" lon="6.75021">
        <ele>2107</ele>
      </trkpt>
      <trkpt lat="44.25309" lon="6.75008">
        <ele>2104.6</ele>
      </trkpt>
      <trkpt lat="44.25309" lon="6.75002">
        <ele>2104.8</ele>
      </trkpt>
      <trkpt lat="44.25311" lon="6.74997">
        <ele>2106.6</ele>
      </trkpt>
      <trkpt lat="44.25314" lon="6.74994">
        <ele>2108.8</ele>
      </trkpt>
      <trkpt lat="44.25318" lon="6.74995">
        <ele>2110.3</ele>
      </trkpt>
      <trkpt lat="44.25334" lon="6.75005">
        <ele>2116.3</ele>
      </trkpt>
      <trkpt lat="44.25354" lon="6.7501">
        <ele>2127.5</ele>
      </trkpt>
      <trkpt lat="44.25365" lon="6.75015">
        <ele>2133.2</ele>
      </trkpt>
      <trkpt lat="44.25371" lon="6.7502">
        <ele>2136</ele>
      </trkpt>
      <trkpt lat="44.25376" lon="6.75027">
        <ele>2137.8</ele>
      </trkpt>
      <trkpt lat="44.25383" lon="6.75045">
        <ele>2138.9</ele>
      </trkpt>
      <trkpt lat="44.25386" lon="6.75072">
        <ele>2136.3</ele>
      </trkpt>
      <trkpt lat="44.25386" lon="6.75087">
        <ele>2134.8</ele>
      </trkpt>
      <trkpt lat="44.25383" lon="6.75101">
        <ele>2134.6</ele>
      </trkpt>
      <trkpt lat="44.25381" lon="6.75109">
        <ele>2134.3</ele>
      </trkpt>
      <trkpt lat="44.25354" lon="6.75161">
        <ele>2126.9</ele>
      </trkpt>
      <trkpt lat="44.25352" lon="6.7517">
        <ele>2126.8</ele>
      </trkpt>
      <trkpt lat="44.25351" lon="6.75192">
        <ele>2129.3</ele>
      </trkpt>
      <trkpt lat="44.25356" lon="6.75262">
        <ele>2139.6</ele>
      </trkpt>
      <trkpt lat="44.25358" lon="6.75321">
        <ele>2143.7</ele>
      </trkpt>
      <trkpt lat="44.25362" lon="6.75346">
        <ele>2144.9</ele>
      </trkpt>
      <trkpt lat="44.25372" lon="6.7537">
        <ele>2147</ele>
      </trkpt>
      <trkpt lat="44.25375" lon="6.75383">
        <ele>2147</ele>
      </trkpt>
      <trkpt lat="44.25376" lon="6.75406">
        <ele>2145.4</ele>
      </trkpt>
      <trkpt lat="44.25374" lon="6.75426">
        <ele>2143.8</ele>
      </trkpt>
      <trkpt lat="44.25376" lon="6.75441">
        <ele>2145</ele>
      </trkpt>
      <trkpt lat="44.25379" lon="6.75446">
        <ele>2146.2</ele>
      </trkpt>
      <trkpt lat="44.25384" lon="6.75448">
        <ele>2148.2</ele>
      </trkpt>
      <trkpt lat="44.25388" lon="6.75444">
        <ele>2149.7</ele>
      </trkpt>
      <trkpt lat="44.25391" lon="6.75439">
        <ele>2150.8</ele>
      </trkpt>
      <trkpt lat="44.25391" lon="6.75425">
        <ele>2150.6</ele>
      </trkpt>
      <trkpt lat="44.25387" lon="6.75339">
        <ele>2156</ele>
      </trkpt>
      <trkpt lat="44.25388" lon="6.75327">
        <ele>2156.6</ele>
      </trkpt>
      <trkpt lat="44.2539" lon="6.75315">
        <ele>2156.6</ele>
      </trkpt>
      <trkpt lat="44.25399" lon="6.75292">
        <ele>2158.8</ele>
      </trkpt>
      <trkpt lat="44.25411" lon="6.75271">
        <ele>2162.2</ele>
      </trkpt>
      <trkpt lat="44.25425" lon="6.75253">
        <ele>2166.6</ele>
      </trkpt>
      <trkpt lat="44.25453" lon="6.75222">
        <ele>2175.7</ele>
      </trkpt>
      <trkpt lat="44.25473" lon="6.75191">
        <ele>2183.5</ele>
      </trkpt>
      <trkpt lat="44.25483" lon="6.75169">
        <ele>2187.9</ele>
      </trkpt>
      <trkpt lat="44.25485" lon="6.75158">
        <ele>2189.3</ele>
      </trkpt>
      <trkpt lat="44.25482" lon="6.75119">
        <ele>2189.2</ele>
      </trkpt>
      <trkpt lat="44.25476" lon="6.7508">
        <ele>2187.1</ele>
      </trkpt>
      <trkpt lat="44.25457" lon="6.75002">
        <ele>2188.4</ele>
      </trkpt>
      <trkpt lat="44.25455" lon="6.74975">
        <ele>2191.7</ele>
      </trkpt>
      <trkpt lat="44.25456" lon="6.74907">
        <ele>2203.5</ele>
      </trkpt>
      <trkpt lat="44.25454" lon="6.74894">
        <ele>2204.7</ele>
      </trkpt>
      <trkpt lat="44.25447" lon="6.74869">
        <ele>2205.6</ele>
      </trkpt>
      <trkpt lat="44.25425" lon="6.74808">
        <ele>2206.4</ele>
      </trkpt>
      <trkpt lat="44.2542" lon="6.748">
        <ele>2205.5</ele>
      </trkpt>
      <trkpt lat="44.25414" lon="6.74794">
        <ele>2204.5</ele>
      </trkpt>
      <trkpt lat="44.25406" lon="6.74789">
        <ele>2203.9</ele>
      </trkpt>
      <trkpt lat="44.25387" lon="6.7479">
        <ele>2200</ele>
      </trkpt>
      <trkpt lat="44.25372" lon="6.74795">
        <ele>2195.9</ele>
      </trkpt>
      <trkpt lat="44.25352" lon="6.7481">
        <ele>2187.9</ele>
      </trkpt>
      <trkpt lat="44.25343" lon="6.74811">
        <ele>2185.6</ele>
      </trkpt>
      <trkpt lat="44.2534" lon="6.74807">
        <ele>2186</ele>
      </trkpt>
      <trkpt lat="44.25337" lon="6.74793">
        <ele>2189.3</ele>
      </trkpt>
      <trkpt lat="44.25339" lon="6.74784">
        <ele>2192.3</ele>
      </trkpt>
      <trkpt lat="44.25344" lon="6.74771">
        <ele>2196.8</ele>
      </trkpt>
      <trkpt lat="44.25353" lon="6.74762">
        <ele>2200.7</ele>
      </trkpt>
      <trkpt lat="44.25389" lon="6.74742">
        <ele>2212.5</ele>
      </trkpt>
      <trkpt lat="44.25403" lon="6.74741">
        <ele>2215.1</ele>
      </trkpt>
      <trkpt lat="44.2541" lon="6.74743">
        <ele>2215.2</ele>
      </trkpt>
      <trkpt lat="44.25424" lon="6.74753">
        <ele>2215.9</ele>
      </trkpt>
      <trkpt lat="44.25431" lon="6.74761">
        <ele>2217.7</ele>
      </trkpt>
      <trkpt lat="44.25489" lon="6.74855">
        <ele>2227.7</ele>
      </trkpt>
      <trkpt lat="44.25499" lon="6.74877">
        <ele>2229.2</ele>
      </trkpt>
      <trkpt lat="44.25502" lon="6.7489">
        <ele>2228.9</ele>
      </trkpt>
      <trkpt lat="44.2552" lon="6.75013">
        <ele>2224.3</ele>
      </trkpt>
      <trkpt lat="44.25526" lon="6.75036">
        <ele>2224.4</ele>
      </trkpt>
      <trkpt lat="44.25542" lon="6.7508">
        <ele>2226.2</ele>
      </trkpt>
      <trkpt lat="44.25545" lon="6.75112">
        <ele>2224.7</ele>
      </trkpt>
      <trkpt lat="44.25549" lon="6.75132">
        <ele>2224.9</ele>
      </trkpt>
      <trkpt lat="44.25563" lon="6.7516">
        <ele>2229.4</ele>
      </trkpt>
      <trkpt lat="44.25582" lon="6.75181">
        <ele>2238.3</ele>
      </trkpt>
      <trkpt lat="44.25587" lon="6.75185">
        <ele>2240.2</ele>
      </trkpt>
      <trkpt lat="44.25593" lon="6.75186">
        <ele>2242.1</ele>
      </trkpt>
      <trkpt lat="44.25597" lon="6.75182">
        <ele>2243.2</ele>
      </trkpt>
      <trkpt lat="44.25599" lon="6.75174">
        <ele>2243.6</ele>
      </trkpt>
      <trkpt lat="44.25598" lon="6.75166">
        <ele>2243.1</ele>
      </trkpt>
      <trkpt lat="44.25594" lon="6.7516">
        <ele>2242.6</ele>
      </trkpt>
      <trkpt lat="44.25569" lon="6.75142">
        <ele>2234.3</ele>
      </trkpt>
      <trkpt lat="44.25565" lon="6.75135">
        <ele>2232.9</ele>
      </trkpt>
      <trkpt lat="44.2556" lon="6.75117">
        <ele>2232.1</ele>
      </trkpt>
      <trkpt lat="44.25559" lon="6.75107">
        <ele>2232.6</ele>
      </trkpt>
      <trkpt lat="44.25561" lon="6.75096">
        <ele>2234.7</ele>
      </trkpt>
      <trkpt lat="44.25571" lon="6.75064">
        <ele>2245.1</ele>
      </trkpt>
      <trkpt lat="44.25574" lon="6.7504">
        <ele>2251.5</ele>
      </trkpt>
      <trkpt lat="44.25571" lon="6.75017">
        <ele>2254.2</ele>
      </trkpt>
      <trkpt lat="44.25557" lon="6.74966">
        <ele>2251</ele>
      </trkpt>
      <trkpt lat="44.25556" lon="6.74945">
        <ele>2251.8</ele>
      </trkpt>
      <trkpt lat="44.25565" lon="6.74848">
        <ele>2266.9</ele>
      </trkpt>
      <trkpt lat="44.25563" lon="6.74822">
        <ele>2269.4</ele>
      </trkpt>
      <trkpt lat="44.25553" lon="6.74737">
        <ele>2276</ele>
      </trkpt>
      <trkpt lat="44.25553" lon="6.74712">
        <ele>2276.8</ele>
      </trkpt>
      <trkpt lat="44.2556" lon="6.74646">
        <ele>2282.4</ele>
      </trkpt>
      <trkpt lat="44.25558" lon="6.74625">
        <ele>2284.3</ele>
      </trkpt>
      <trkpt lat="44.25552" lon="6.74603">
        <ele>2285.8</ele>
      </trkpt>
      <trkpt lat="44.25543" lon="6.74584">
        <ele>2286.6</ele>
      </trkpt>
      <trkpt lat="44.25479" lon="6.74521">
        <ele>2292.1</ele>
      </trkpt>
      <trkpt lat="44.25475" lon="6.74516">
        <ele>2292.9</ele>
      </trkpt>
      <trkpt lat="44.25472" lon="6.74503">
        <ele>2295.6</ele>
      </trkpt>
      <trkpt lat="44.25472" lon="6.74498">
        <ele>2297</ele>
      </trkpt>
      <trkpt lat="44.25475" lon="6.74493">
        <ele>2298.9</ele>
      </trkpt>
      <trkpt lat="44.25483" lon="6.74488">
        <ele>2301</ele>
      </trkpt>
      <trkpt lat="44.25487" lon="6.74489">
        <ele>2301</ele>
      </trkpt>
      <trkpt lat="44.25492" lon="6.74493">
        <ele>2300.2</ele>
      </trkpt>
      <trkpt lat="44.25497" lon="6.74498">
        <ele>2299.2</ele>
      </trkpt>
      <trkpt lat="44.25502" lon="6.74512">
        <ele>2296.4</ele>
      </trkpt>
      <trkpt lat="44.25509" lon="6.74526">
        <ele>2293.7</ele>
      </trkpt>
      <trkpt lat="44.25521" lon="6.74539">
        <ele>2291.9</ele>
      </trkpt>
      <trkpt lat="44.25563" lon="6.74567">
        <ele>2291.9</ele>
      </trkpt>
      <trkpt lat="44.2558" lon="6.74574">
        <ele>2293.4</ele>
      </trkpt>
      <trkpt lat="44.25595" lon="6.74575">
        <ele>2296.4</ele>
      </trkpt>
      <trkpt lat="44.25608" lon="6.74567">
        <ele>2299.7</ele>
      </trkpt>
      <trkpt lat="44.25652" lon="6.74526">
        <ele>2307</ele>
      </trkpt>
      <trkpt lat="44.25669" lon="6.74513">
        <ele>2308.2</ele>
      </trkpt>
      <trkpt lat="44.25674" lon="6.74511">
        <ele>2308.5</ele>
      </trkpt>
      <trkpt lat="44.25686" lon="6.7451">
        <ele>2309.7</ele>
      </trkpt>
      <trkpt lat="44.25697" lon="6.74513">
        <ele>2311.1</ele>
      </trkpt>
      <trkpt lat="44.25717" lon="6.74524">
        <ele>2314.9</ele>
      </trkpt>
      <trkpt lat="44.25733" lon="6.74527">
        <ele>2317.4</ele>
      </trkpt>
      <trkpt lat="44.25749" lon="6.74525">
        <ele>2319</ele>
      </trkpt>
      <trkpt lat="44.25781" lon="6.74512">
        <ele>2320.5</ele>
      </trkpt>
      <trkpt lat="44.25803" lon="6.74497">
        <ele>2320.9</ele>
      </trkpt>
      <trkpt lat="44.25875" lon="6.74423">
        <ele>2324.8</ele>
      </trkpt>
      <trkpt lat="44.25896" lon="6.74409">
        <ele>2327.3</ele>
      </trkpt>
      <trkpt lat="44.25914" lon="6.74397">
        <ele>2330.2</ele>
      </trkpt>
      <trkpt lat="44.25915" lon="6.74397">
        <ele>2330.3</ele>
      </trkpt>
      <trkpt lat="44.25926" lon="6.74394">
        <ele>2329.2</ele>
      </trkpt>
      <trkpt lat="44.25948" lon="6.74385">
        <ele>2326.8</ele>
      </trkpt>
      <trkpt lat="44.25984" lon="6.74371">
        <ele>2323.1</ele>
      </trkpt>
      <trkpt lat="44.2599" lon="6.74369">
        <ele>2322.4</ele>
      </trkpt>
      <trkpt lat="44.26003" lon="6.74363">
        <ele>2321</ele>
      </trkpt>
      <trkpt lat="44.26009" lon="6.74358">
        <ele>2320.3</ele>
      </trkpt>
      <trkpt lat="44.26054" lon="6.74306">
        <ele>2317.8</ele>
      </trkpt>
      <trkpt lat="44.26071" lon="6.74291">
        <ele>2315.7</ele>
      </trkpt>
      <trkpt lat="44.26107" lon="6.74267">
        <ele>2313</ele>
      </trkpt>
      <trkpt lat="44.26144" lon="6.74248">
        <ele>2310.7</ele>
      </trkpt>
      <trkpt lat="44.26154" lon="6.74244">
        <ele>2310.1</ele>
      </trkpt>
      <trkpt lat="44.26175" lon="6.74241">
        <ele>2308</ele>
      </trkpt>
      <trkpt lat="44.26197" lon="6.74243">
        <ele>2305.5</ele>
      </trkpt>
      <trkpt lat="44.26247" lon="6.74253">
        <ele>2299</ele>
      </trkpt>
      <trkpt lat="44.26286" lon="6.74255">
        <ele>2294.5</ele>
      </trkpt>
      <trkpt lat="44.26311" lon="6.74251">
        <ele>2292.3</ele>
      </trkpt>
      <trkpt lat="44.26317" lon="6.74248">
        <ele>2292</ele>
      </trkpt>
      <trkpt lat="44.26322" lon="6.74242">
        <ele>2292.3</ele>
      </trkpt>
      <trkpt lat="44.26335" lon="6.74217">
        <ele>2294</ele>
      </trkpt>
      <trkpt lat="44.26341" lon="6.7421">
        <ele>2294.8</ele>
      </trkpt>
      <trkpt lat="44.26348" lon="6.74206">
        <ele>2295.4</ele>
      </trkpt>
      <trkpt lat="44.26362" lon="6.74212">
        <ele>2294.7</ele>
      </trkpt>
      <trkpt lat="44.26364" lon="6.74215">
        <ele>2294.4</ele>
      </trkpt>
      <trkpt lat="44.2637" lon="6.74276">
        <ele>2286.8</ele>
      </trkpt>
      <trkpt lat="44.26377" lon="6.74297">
        <ele>2284.4</ele>
      </trkpt>
      <trkpt lat="44.26392" lon="6.74326">
        <ele>2281.3</ele>
      </trkpt>
      <trkpt lat="44.26403" lon="6.74362">
        <ele>2278.8</ele>
      </trkpt>
      <trkpt lat="44.26408" lon="6.74419">
        <ele>2275.4</ele>
      </trkpt>
      <trkpt lat="44.26415" lon="6.74436">
        <ele>2275</ele>
      </trkpt>
      <trkpt lat="44.26432" lon="6.74457">
        <ele>2274.2</ele>
      </trkpt>
      <trkpt lat="44.26437" lon="6.74464">
        <ele>2273.9</ele>
      </trkpt>
      <trkpt lat="44.26439" lon="6.74473">
        <ele>2273.5</ele>
      </trkpt>
      <trkpt lat="44.2644" lon="6.74483">
        <ele>2273</ele>
      </trkpt>
      <trkpt lat="44.26438" lon="6.7449">
        <ele>2272.7</ele>
      </trkpt>
      <trkpt lat="44.26434" lon="6.74497">
        <ele>2272.3</ele>
      </trkpt>
      <trkpt lat="44.26428" lon="6.74501">
        <ele>2272.1</ele>
      </trkpt>
      <trkpt lat="44.2642" lon="6.74502">
        <ele>2271.9</ele>
      </trkpt>
      <trkpt lat="44.26396" lon="6.74502">
        <ele>2270.9</ele>
      </trkpt>
      <trkpt lat="44.2638" lon="6.74504">
        <ele>2270</ele>
      </trkpt>
      <trkpt lat="44.2637" lon="6.7451">
        <ele>2269.2</ele>
      </trkpt>
      <trkpt lat="44.26361" lon="6.74523">
        <ele>2268</ele>
      </trkpt>
      <trkpt lat="44.26357" lon="6.74531">
        <ele>2267.4</ele>
      </trkpt>
      <trkpt lat="44.26354" lon="6.74549">
        <ele>2266.3</ele>
      </trkpt>
      <trkpt lat="44.26354" lon="6.74558">
        <ele>2265.9</ele>
      </trkpt>
      <trkpt lat="44.2636" lon="6.74573">
        <ele>2265.2</ele>
      </trkpt>
      <trkpt lat="44.26369" lon="6.74586">
        <ele>2264.7</ele>
      </trkpt>
      <trkpt lat="44.26375" lon="6.74592">
        <ele>2264.6</ele>
      </trkpt>
      <trkpt lat="44.26397" lon="6.74604">
        <ele>2264</ele>
      </trkpt>
      <trkpt lat="44.26413" lon="6.74607">
        <ele>2263.7</ele>
      </trkpt>
      <trkpt lat="44.26464" lon="6.74611">
        <ele>2259.4</ele>
      </trkpt>
      <trkpt lat="44.26491" lon="6.74602">
        <ele>2258</ele>
      </trkpt>
      <trkpt lat="44.26566" lon="6.74593">
        <ele>2251.6</ele>
      </trkpt>
      <trkpt lat="44.26588" lon="6.74596">
        <ele>2249.1</ele>
      </trkpt>
      <trkpt lat="44.26608" lon="6.74604">
        <ele>2246.6</ele>
      </trkpt>
      <trkpt lat="44.26651" lon="6.74611">
        <ele>2242.5</ele>
      </trkpt>
      <trkpt lat="44.2666" lon="6.7461">
        <ele>2241.9</ele>
      </trkpt>
      <trkpt lat="44.26688" lon="6.746">
        <ele>2240</ele>
      </trkpt>
      <trkpt lat="44.26708" lon="6.74601">
        <ele>2237.7</ele>
      </trkpt>
      <trkpt lat="44.26728" lon="6.74608">
        <ele>2234.9</ele>
      </trkpt>
      <trkpt lat="44.26767" lon="6.7463">
        <ele>2230.4</ele>
      </trkpt>
      <trkpt lat="44.26789" lon="6.74636">
        <ele>2228.8</ele>
      </trkpt>
      <trkpt lat="44.26811" lon="6.74639">
        <ele>2227.5</ele>
      </trkpt>
      <trkpt lat="44.26852" lon="6.74635">
        <ele>2224.7</ele>
      </trkpt>
      <trkpt lat="44.26883" lon="6.74628">
        <ele>2222.1</ele>
      </trkpt>
      <trkpt lat="44.2689" lon="6.74625">
        <ele>2221.7</ele>
      </trkpt>
      <trkpt lat="44.26901" lon="6.74621">
        <ele>2221.1</ele>
      </trkpt>
      <trkpt lat="44.2691" lon="6.74619">
        <ele>2220.4</ele>
      </trkpt>
      <trkpt lat="44.26924" lon="6.74621">
        <ele>2219.4</ele>
      </trkpt>
      <trkpt lat="44.2693" lon="6.74626">
        <ele>2218.6</ele>
      </trkpt>
      <trkpt lat="44.2695" lon="6.74653">
        <ele>2214.6</ele>
      </trkpt>
      <trkpt lat="44.26964" lon="6.74662">
        <ele>2213</ele>
      </trkpt>
      <trkpt lat="44.27023" lon="6.74678">
        <ele>2208.6</ele>
      </trkpt>
      <trkpt lat="44.27048" lon="6.74677">
        <ele>2207</ele>
      </trkpt>
      <trkpt lat="44.2707" lon="6.74668">
        <ele>2205.9</ele>
      </trkpt>
      <trkpt lat="44.27121" lon="6.74629">
        <ele>2201.6</ele>
      </trkpt>
      <trkpt lat="44.27133" lon="6.74614">
        <ele>2199.7</ele>
      </trkpt>
      <trkpt lat="44.27138" lon="6.74606">
        <ele>2198.8</ele>
      </trkpt>
      <trkpt lat="44.27145" lon="6.74586">
        <ele>2197.7</ele>
      </trkpt>
      <trkpt lat="44.27149" lon="6.74554">
        <ele>2199.9</ele>
      </trkpt>
      <trkpt lat="44.27167" lon="6.74517">
        <ele>2199.7</ele>
      </trkpt>
      <trkpt lat="44.2718" lon="6.74503">
        <ele>2198.5</ele>
      </trkpt>
      <trkpt lat="44.27195" lon="6.74494">
        <ele>2197.8</ele>
      </trkpt>
      <trkpt lat="44.27212" lon="6.74489">
        <ele>2195.9</ele>
      </trkpt>
      <trkpt lat="44.27238" lon="6.74484">
        <ele>2191.8</ele>
      </trkpt>
      <trkpt lat="44.27257" lon="6.74482">
        <ele>2189.4</ele>
      </trkpt>
      <trkpt lat="44.27277" lon="6.74483">
        <ele>2188</ele>
      </trkpt>
      <trkpt lat="44.27287" lon="6.74484">
        <ele>2187.2</ele>
      </trkpt>
      <trkpt lat="44.27299" lon="6.74489">
        <ele>2185</ele>
      </trkpt>
      <trkpt lat="44.27334" lon="6.74507">
        <ele>2180</ele>
      </trkpt>
      <trkpt lat="44.27356" lon="6.74511">
        <ele>2177.3</ele>
      </trkpt>
      <trkpt lat="44.27363" lon="6.7451">
        <ele>2176.8</ele>
      </trkpt>
      <trkpt lat="44.27378" lon="6.74504">
        <ele>2176.5</ele>
      </trkpt>
      <trkpt lat="44.27407" lon="6.74485">
        <ele>2178.9</ele>
      </trkpt>
      <trkpt lat="44.27422" lon="6.74482">
        <ele>2178.6</ele>
      </trkpt>
      <trkpt lat="44.27443" lon="6.74492">
        <ele>2173.7</ele>
      </trkpt>
      <trkpt lat="44.2746" lon="6.74496">
        <ele>2170.4</ele>
      </trkpt>
      <trkpt lat="44.27498" lon="6.74491">
        <ele>2168.8</ele>
      </trkpt>
      <trkpt lat="44.27583" lon="6.74503">
        <ele>2160</ele>
      </trkpt>
      <trkpt lat="44.27611" lon="6.74504">
        <ele>2155.8</ele>
      </trkpt>
      <trkpt lat="44.2763" lon="6.74502">
        <ele>2153.7</ele>
      </trkpt>
      <trkpt lat="44.27658" lon="6.7449">
        <ele>2154.4</ele>
      </trkpt>
      <trkpt lat="44.27675" lon="6.7448">
        <ele>2155.3</ele>
      </trkpt>
      <trkpt lat="44.27697" lon="6.74454">
        <ele>2158.2</ele>
      </trkpt>
      <trkpt lat="44.27711" lon="6.7443">
        <ele>2159.6</ele>
      </trkpt>
      <trkpt lat="44.27722" lon="6.74414">
        <ele>2158.1</ele>
      </trkpt>
      <trkpt lat="44.27728" lon="6.74408">
        <ele>2156.2</ele>
      </trkpt>
      <trkpt lat="44.27734" lon="6.74405">
        <ele>2153.9</ele>
      </trkpt>
      <trkpt lat="44.27743" lon="6.74405">
        <ele>2149.7</ele>
      </trkpt>
      <trkpt lat="44.2776" lon="6.74414">
        <ele>2143.4</ele>
      </trkpt>
      <trkpt lat="44.2777" lon="6.74423">
        <ele>2141.1</ele>
      </trkpt>
      <trkpt lat="44.27778" lon="6.74432">
        <ele>2139.5</ele>
      </trkpt>
      <trkpt lat="44.27784" lon="6.74445">
        <ele>2138.5</ele>
      </trkpt>
      <trkpt lat="44.27787" lon="6.7446">
        <ele>2138.1</ele>
      </trkpt>
      <trkpt lat="44.27786" lon="6.7448">
        <ele>2138</ele>
      </trkpt>
      <trkpt lat="44.27784" lon="6.74489">
        <ele>2138</ele>
      </trkpt>
      <trkpt lat="44.27776" lon="6.74508">
        <ele>2136.6</ele>
      </trkpt>
      <trkpt lat="44.27764" lon="6.74522">
        <ele>2134.7</ele>
      </trkpt>
      <trkpt lat="44.27748" lon="6.74532">
        <ele>2133.4</ele>
      </trkpt>
      <trkpt lat="44.27682" lon="6.74563">
        <ele>2134.3</ele>
      </trkpt>
      <trkpt lat="44.27654" lon="6.74574">
        <ele>2133.4</ele>
      </trkpt>
      <trkpt lat="44.27647" lon="6.7458">
        <ele>2132.1</ele>
      </trkpt>
      <trkpt lat="44.27642" lon="6.74588">
        <ele>2130.7</ele>
      </trkpt>
      <trkpt lat="44.2764" lon="6.74598">
        <ele>2129.5</ele>
      </trkpt>
      <trkpt lat="44.2764" lon="6.74607">
        <ele>2128.4</ele>
      </trkpt>
      <trkpt lat="44.27644" lon="6.74615">
        <ele>2127.3</ele>
      </trkpt>
      <trkpt lat="44.27651" lon="6.74619">
        <ele>2126.3</ele>
      </trkpt>
      <trkpt lat="44.27658" lon="6.74619">
        <ele>2125.9</ele>
      </trkpt>
      <trkpt lat="44.27705" lon="6.74606">
        <ele>2125.4</ele>
      </trkpt>
      <trkpt lat="44.27716" lon="6.74606">
        <ele>2124.8</ele>
      </trkpt>
      <trkpt lat="44.27735" lon="6.74613">
        <ele>2122.5</ele>
      </trkpt>
      <trkpt lat="44.27763" lon="6.74632">
        <ele>2118.3</ele>
      </trkpt>
      <trkpt lat="44.27772" lon="6.74636">
        <ele>2117.6</ele>
      </trkpt>
      <trkpt lat="44.2779" lon="6.74639">
        <ele>2117.1</ele>
      </trkpt>
      <trkpt lat="44.27838" lon="6.7463">
        <ele>2118.4</ele>
      </trkpt>
      <trkpt lat="44.27879" lon="6.74626">
        <ele>2112.8</ele>
      </trkpt>
      <trkpt lat="44.27892" lon="6.74629">
        <ele>2110.5</ele>
      </trkpt>
      <trkpt lat="44.27899" lon="6.74628">
        <ele>2109.5</ele>
      </trkpt>
      <trkpt lat="44.27908" lon="6.74623">
        <ele>2108.5</ele>
      </trkpt>
      <trkpt lat="44.27916" lon="6.7461">
        <ele>2107.8</ele>
      </trkpt>
      <trkpt lat="44.2792" lon="6.746">
        <ele>2107.3</ele>
      </trkpt>
      <trkpt lat="44.27927" lon="6.74553">
        <ele>2104.6</ele>
      </trkpt>
      <trkpt lat="44.27927" lon="6.74528">
        <ele>2103.7</ele>
      </trkpt>
      <trkpt lat="44.27921" lon="6.74476">
        <ele>2101.2</ele>
      </trkpt>
      <trkpt lat="44.27922" lon="6.74449">
        <ele>2096.4</ele>
      </trkpt>
      <trkpt lat="44.2792" lon="6.74436">
        <ele>2095</ele>
      </trkpt>
      <trkpt lat="44.27918" lon="6.74425">
        <ele>2093.9</ele>
      </trkpt>
      <trkpt lat="44.27913" lon="6.74413">
        <ele>2093.8</ele>
      </trkpt>
      <trkpt lat="44.27858" lon="6.74304">
        <ele>2096</ele>
      </trkpt>
      <trkpt lat="44.27851" lon="6.74279">
        <ele>2095.1</ele>
      </trkpt>
      <trkpt lat="44.27851" lon="6.74266">
        <ele>2093.3</ele>
      </trkpt>
      <trkpt lat="44.27854" lon="6.74253">
        <ele>2090.7</ele>
      </trkpt>
      <trkpt lat="44.27859" lon="6.74241">
        <ele>2089.4</ele>
      </trkpt>
      <trkpt lat="44.27866" lon="6.74232">
        <ele>2088.2</ele>
      </trkpt>
      <trkpt lat="44.27883" lon="6.74219">
        <ele>2085</ele>
      </trkpt>
      <trkpt lat="44.27924" lon="6.74197">
        <ele>2078.3</ele>
      </trkpt>
      <trkpt lat="44.27943" lon="6.7418">
        <ele>2075.9</ele>
      </trkpt>
      <trkpt lat="44.27977" lon="6.74142">
        <ele>2070.8</ele>
      </trkpt>
      <trkpt lat="44.27992" lon="6.74133">
        <ele>2067.3</ele>
      </trkpt>
      <trkpt lat="44.27999" lon="6.74137">
        <ele>2065.1</ele>
      </trkpt>
      <trkpt lat="44.28018" lon="6.74147">
        <ele>2065.5</ele>
      </trkpt>
      <trkpt lat="44.28024" lon="6.74155">
        <ele>2065.3</ele>
      </trkpt>
      <trkpt lat="44.28026" lon="6.74159">
        <ele>2065.2</ele>
      </trkpt>
      <trkpt lat="44.28029" lon="6.74168">
        <ele>2064.6</ele>
      </trkpt>
      <trkpt lat="44.2804" lon="6.74215">
        <ele>2062.2</ele>
      </trkpt>
      <trkpt lat="44.28048" lon="6.74236">
        <ele>2061.4</ele>
      </trkpt>
      <trkpt lat="44.28054" lon="6.74246">
        <ele>2061.1</ele>
      </trkpt>
      <trkpt lat="44.28068" lon="6.74261">
        <ele>2060.3</ele>
      </trkpt>
      <trkpt lat="44.28099" lon="6.74285">
        <ele>2057.1</ele>
      </trkpt>
      <trkpt lat="44.28104" lon="6.74293">
        <ele>2055.2</ele>
      </trkpt>
      <trkpt lat="44.28108" lon="6.74302">
        <ele>2052.9</ele>
      </trkpt>
      <trkpt lat="44.2811" lon="6.74313">
        <ele>2050</ele>
      </trkpt>
      <trkpt lat="44.28109" lon="6.74336">
        <ele>2044.4</ele>
      </trkpt>
      <trkpt lat="44.28101" lon="6.74358">
        <ele>2041.5</ele>
      </trkpt>
      <trkpt lat="44.28093" lon="6.74374">
        <ele>2040.8</ele>
      </trkpt>
      <trkpt lat="44.28071" lon="6.74415">
        <ele>2041.9</ele>
      </trkpt>
      <trkpt lat="44.28051" lon="6.74457">
        <ele>2045.8</ele>
      </trkpt>
      <trkpt lat="44.28027" lon="6.74497">
        <ele>2057</ele>
      </trkpt>
      <trkpt lat="44.28025" lon="6.74506">
        <ele>2059.1</ele>
      </trkpt>
      <trkpt lat="44.28026" lon="6.74516">
        <ele>2060.2</ele>
      </trkpt>
      <trkpt lat="44.28029" lon="6.74528">
        <ele>2060.5</ele>
      </trkpt>
      <trkpt lat="44.28035" lon="6.74537">
        <ele>2058.9</ele>
      </trkpt>
      <trkpt lat="44.2804" lon="6.74543">
        <ele>2057.3</ele>
      </trkpt>
      <trkpt lat="44.28055" lon="6.74552">
        <ele>2051.4</ele>
      </trkpt>
      <trkpt lat="44.28085" lon="6.74561">
        <ele>2038.7</ele>
      </trkpt>
      <trkpt lat="44.28111" lon="6.74574">
        <ele>2034.7</ele>
      </trkpt>
      <trkpt lat="44.2814" lon="6.74596">
        <ele>2034.1</ele>
      </trkpt>
      <trkpt lat="44.28185" lon="6.7462">
        <ele>2031.5</ele>
      </trkpt>
      <trkpt lat="44.28197" lon="6.74621">
        <ele>2030</ele>
      </trkpt>
      <trkpt lat="44.28267" lon="6.74619">
        <ele>2020.9</ele>
      </trkpt>
      <trkpt lat="44.28292" lon="6.74615">
        <ele>2019.4</ele>
      </trkpt>
      <trkpt lat="44.28308" lon="6.74607">
        <ele>2017.4</ele>
      </trkpt>
      <trkpt lat="44.28327" lon="6.74591">
        <ele>2014.3</ele>
      </trkpt>
      <trkpt lat="44.28345" lon="6.74566">
        <ele>2008.9</ele>
      </trkpt>
      <trkpt lat="44.2836" lon="6.74549">
        <ele>2005</ele>
      </trkpt>
      <trkpt lat="44.28373" lon="6.74544">
        <ele>2003.8</ele>
      </trkpt>
      <trkpt lat="44.2838" lon="6.74543">
        <ele>2003.4</ele>
      </trkpt>
      <trkpt lat="44.28395" lon="6.74545">
        <ele>2003.5</ele>
      </trkpt>
      <trkpt lat="44.2841" lon="6.74552">
        <ele>2004.5</ele>
      </trkpt>
      <trkpt lat="44.28432" lon="6.74567">
        <ele>2005</ele>
      </trkpt>
      <trkpt lat="44.28459" lon="6.74592">
        <ele>2005.1</ele>
      </trkpt>
      <trkpt lat="44.28479" lon="6.74607">
        <ele>2005.2</ele>
      </trkpt>
      <trkpt lat="44.28492" lon="6.74611">
        <ele>2004.1</ele>
      </trkpt>
      <trkpt lat="44.28498" lon="6.74611">
        <ele>2003.3</ele>
      </trkpt>
      <trkpt lat="44.28504" lon="6.74608">
        <ele>2002</ele>
      </trkpt>
      <trkpt lat="44.28512" lon="6.74596">
        <ele>1998.6</ele>
      </trkpt>
      <trkpt lat="44.28514" lon="6.74588">
        <ele>1996.5</ele>
      </trkpt>
      <trkpt lat="44.28515" lon="6.74578">
        <ele>1994.7</ele>
      </trkpt>
      <trkpt lat="44.28511" lon="6.74559">
        <ele>1993.7</ele>
      </trkpt>
      <trkpt lat="44.28504" lon="6.74542">
        <ele>1993.4</ele>
      </trkpt>
      <trkpt lat="44.28499" lon="6.74524">
        <ele>1992.8</ele>
      </trkpt>
      <trkpt lat="44.28498" lon="6.74516">
        <ele>1992.3</ele>
      </trkpt>
      <trkpt lat="44.285" lon="6.74498">
        <ele>1990.8</ele>
      </trkpt>
      <trkpt lat="44.28508" lon="6.74486">
        <ele>1988.3</ele>
      </trkpt>
      <trkpt lat="44.28539" lon="6.74464">
        <ele>1981.2</ele>
      </trkpt>
      <trkpt lat="44.28554" lon="6.74443">
        <ele>1977.9</ele>
      </trkpt>
      <trkpt lat="44.28557" lon="6.74428">
        <ele>1976.9</ele>
      </trkpt>
      <trkpt lat="44.28556" lon="6.74422">
        <ele>1976.8</ele>
      </trkpt>
      <trkpt lat="44.2855" lon="6.74411">
        <ele>1975.6</ele>
      </trkpt>
      <trkpt lat="44.2854" lon="6.74403">
        <ele>1974.3</ele>
      </trkpt>
      <trkpt lat="44.28526" lon="6.74395">
        <ele>1973.1</ele>
      </trkpt>
      <trkpt lat="44.28508" lon="6.74388">
        <ele>1972.3</ele>
      </trkpt>
      <trkpt lat="44.28414" lon="6.7439">
        <ele>1974.4</ele>
      </trkpt>
      <trkpt lat="44.28387" lon="6.74384">
        <ele>1974.2</ele>
      </trkpt>
      <trkpt lat="44.28379" lon="6.74381">
        <ele>1974.1</ele>
      </trkpt>
      <trkpt lat="44.28373" lon="6.74374">
        <ele>1973.2</ele>
      </trkpt>
      <trkpt lat="44.28368" lon="6.74367">
        <ele>1972.4</ele>
      </trkpt>
      <trkpt lat="44.2836" lon="6.74336">
        <ele>1968.5</ele>
      </trkpt>
      <trkpt lat="44.28354" lon="6.74298">
        <ele>1972.4</ele>
      </trkpt>
      <trkpt lat="44.28356" lon="6.74285">
        <ele>1973.3</ele>
      </trkpt>
      <trkpt lat="44.28366" lon="6.74268">
        <ele>1972.7</ele>
      </trkpt>
      <trkpt lat="44.28376" lon="6.74257">
        <ele>1971.3</ele>
      </trkpt>
      <trkpt lat="44.28423" lon="6.74228">
        <ele>1967.2</ele>
      </trkpt>
      <trkpt lat="44.28488" lon="6.74204">
        <ele>1964.8</ele>
      </trkpt>
      <trkpt lat="44.28509" lon="6.74199">
        <ele>1964.9</ele>
      </trkpt>
      <trkpt lat="44.2852" lon="6.742">
        <ele>1965.3</ele>
      </trkpt>
      <trkpt lat="44.2853" lon="6.74203">
        <ele>1965</ele>
      </trkpt>
      <trkpt lat="44.28562" lon="6.74219">
        <ele>1962.6</ele>
      </trkpt>
      <trkpt lat="44.28583" lon="6.74227">
        <ele>1961.8</ele>
      </trkpt>
      <trkpt lat="44.28617" lon="6.74234">
        <ele>1957.8</ele>
      </trkpt>
      <trkpt lat="44.28638" lon="6.74236">
        <ele>1955.8</ele>
      </trkpt>
      <trkpt lat="44.28669" lon="6.74234">
        <ele>1954.4</ele>
      </trkpt>
      <trkpt lat="44.28717" lon="6.7422">
        <ele>1957.8</ele>
      </trkpt>
      <trkpt lat="44.28737" lon="6.74221">
        <ele>1957.4</ele>
      </trkpt>
      <trkpt lat="44.28758" lon="6.74231">
        <ele>1955.1</ele>
      </trkpt>
      <trkpt lat="44.28802" lon="6.74258">
        <ele>1949.7</ele>
      </trkpt>
      <trkpt lat="44.28837" lon="6.7428">
        <ele>1945.8</ele>
      </trkpt>
      <trkpt lat="44.28878" lon="6.74311">
        <ele>1943.1</ele>
      </trkpt>
      <trkpt lat="44.28909" lon="6.74328">
        <ele>1943.2</ele>
      </trkpt>
      <trkpt lat="44.2902" lon="6.74381">
        <ele>1933.5</ele>
      </trkpt>
      <trkpt lat="44.29053" lon="6.74391">
        <ele>1930.8</ele>
      </trkpt>
      <trkpt lat="44.29087" lon="6.74398">
        <ele>1929</ele>
      </trkpt>
      <trkpt lat="44.29108" lon="6.74398">
        <ele>1929.9</ele>
      </trkpt>
      <trkpt lat="44.29149" lon="6.74391">
        <ele>1934.7</ele>
      </trkpt>
      <trkpt lat="44.29168" lon="6.7439">
        <ele>1936.3</ele>
      </trkpt>
      <trkpt lat="44.29186" lon="6.74396">
        <ele>1934.6</ele>
      </trkpt>
      <trkpt lat="44.29216" lon="6.74412">
        <ele>1927.3</ele>
      </trkpt>
      <trkpt lat="44.2923" lon="6.74409">
        <ele>1929.4</ele>
      </trkpt>
      <trkpt lat="44.29254" lon="6.74395">
        <ele>1938.2</ele>
      </trkpt>
      <trkpt lat="44.29271" lon="6.7439">
        <ele>1937.8</ele>
      </trkpt>
      <trkpt lat="44.29286" lon="6.74392">
        <ele>1933.4</ele>
      </trkpt>
      <trkpt lat="44.29305" lon="6.74398">
        <ele>1925.8</ele>
      </trkpt>
      <trkpt lat="44.29313" lon="6.74398">
        <ele>1924.2</ele>
      </trkpt>
      <trkpt lat="44.29383" lon="6.74387">
        <ele>1921.7</ele>
      </trkpt>
      <trkpt lat="44.29448" lon="6.74373">
        <ele>1921.7</ele>
      </trkpt>
      <trkpt lat="44.29469" lon="6.74372">
        <ele>1920</ele>
      </trkpt>
      <trkpt lat="44.29491" lon="6.74374">
        <ele>1916.8</ele>
      </trkpt>
      <trkpt lat="44.29561" lon="6.74391">
        <ele>1907.4</ele>
      </trkpt>
      <trkpt lat="44.29579" lon="6.74391">
        <ele>1907</ele>
      </trkpt>
      <trkpt lat="44.29674" lon="6.74377">
        <ele>1911.5</ele>
      </trkpt>
      <trkpt lat="44.29691" lon="6.74381">
        <ele>1910.6</ele>
      </trkpt>
      <trkpt lat="44.2971" lon="6.74389">
        <ele>1908.7</ele>
      </trkpt>
      <trkpt lat="44.29732" lon="6.74402">
        <ele>1905.9</ele>
      </trkpt>
      <trkpt lat="44.29762" lon="6.74424">
        <ele>1900.7</ele>
      </trkpt>
      <trkpt lat="44.29781" lon="6.7443">
        <ele>1898.5</ele>
      </trkpt>
      <trkpt lat="44.29832" lon="6.74422">
        <ele>1898</ele>
      </trkpt>
      <trkpt lat="44.29872" lon="6.74409">
        <ele>1899.1</ele>
      </trkpt>
      <trkpt lat="44.29884" lon="6.74408">
        <ele>1898.7</ele>
      </trkpt>
      <trkpt lat="44.29988" lon="6.74412">
        <ele>1898</ele>
      </trkpt>
      <trkpt lat="44.30049" lon="6.74415">
        <ele>1895.1</ele>
      </trkpt>
      <trkpt lat="44.30145" lon="6.74447">
        <ele>1886.1</ele>
      </trkpt>
      <trkpt lat="44.30157" lon="6.7445">
        <ele>1885.2</ele>
      </trkpt>
      <trkpt lat="44.30181" lon="6.74451">
        <ele>1883.5</ele>
      </trkpt>
      <trkpt lat="44.30205" lon="6.74449">
        <ele>1881.9</ele>
      </trkpt>
      <trkpt lat="44.3024" lon="6.74442">
        <ele>1880.4</ele>
      </trkpt>
      <trkpt lat="44.3025" lon="6.74438">
        <ele>1880.4</ele>
      </trkpt>
      <trkpt lat="44.30308" lon="6.74402">
        <ele>1882.6</ele>
      </trkpt>
      <trkpt lat="44.30316" lon="6.74399">
        <ele>1882.5</ele>
      </trkpt>
      <trkpt lat="44.30324" lon="6.74399">
        <ele>1881.6</ele>
      </trkpt>
      <trkpt lat="44.30331" lon="6.74402">
        <ele>1880</ele>
      </trkpt>
      <trkpt lat="44.30351" lon="6.74421">
        <ele>1875.1</ele>
      </trkpt>
      <trkpt lat="44.30358" lon="6.74424">
        <ele>1874.6</ele>
      </trkpt>
      <trkpt lat="44.30366" lon="6.74425">
        <ele>1874.2</ele>
      </trkpt>
      <trkpt lat="44.30374" lon="6.74424">
        <ele>1874</ele>
      </trkpt>
      <trkpt lat="44.30439" lon="6.74404">
        <ele>1871.7</ele>
      </trkpt>
      <trkpt lat="44.30465" lon="6.74387">
        <ele>1869.3</ele>
      </trkpt>
      <trkpt lat="44.30551" lon="6.74292">
        <ele>1866.5</ele>
      </trkpt>
      <trkpt lat="44.30572" lon="6.74278">
        <ele>1864.8</ele>
      </trkpt>
      <trkpt lat="44.30618" lon="6.74255">
        <ele>1862</ele>
      </trkpt>
      <trkpt lat="44.30696" lon="6.74221">
        <ele>1857.6</ele>
      </trkpt>
      <trkpt lat="44.30697" lon="6.74221">
        <ele>1857.4</ele>
      </trkpt>
      <trkpt lat="44.30697" lon="6.74221">
        <ele>1857.4</ele>
      </trkpt>
      <trkpt lat="44.30712" lon="6.74211">
        <ele>1856.5</ele>
      </trkpt>
      <trkpt lat="44.3074" lon="6.74185">
        <ele>1856.8</ele>
      </trkpt>
      <trkpt lat="44.30755" lon="6.74183">
        <ele>1854.7</ele>
      </trkpt>
      <trkpt lat="44.30777" lon="6.74187">
        <ele>1850.5</ele>
      </trkpt>
      <trkpt lat="44.30792" lon="6.74186">
        <ele>1848.4</ele>
      </trkpt>
      <trkpt lat="44.30807" lon="6.7418">
        <ele>1847.3</ele>
      </trkpt>
      <trkpt lat="44.30813" lon="6.74174">
        <ele>1847.7</ele>
      </trkpt>
      <trkpt lat="44.30822" lon="6.74157">
        <ele>1848.5</ele>
      </trkpt>
      <trkpt lat="44.30826" lon="6.74112">
        <ele>1850.9</ele>
      </trkpt>
      <trkpt lat="44.3083" lon="6.74101">
        <ele>1850.7</ele>
      </trkpt>
      <trkpt lat="44.30841" lon="6.74079">
        <ele>1849.5</ele>
      </trkpt>
      <trkpt lat="44.30848" lon="6.74068">
        <ele>1849</ele>
      </trkpt>
      <trkpt lat="44.30856" lon="6.7406">
        <ele>1847.9</ele>
      </trkpt>
      <trkpt lat="44.30885" lon="6.74044">
        <ele>1842.5</ele>
      </trkpt>
      <trkpt lat="44.30893" lon="6.74038">
        <ele>1841.2</ele>
      </trkpt>
      <trkpt lat="44.309" lon="6.74029">
        <ele>1840.6</ele>
      </trkpt>
      <trkpt lat="44.30914" lon="6.74003">
        <ele>1840.3</ele>
      </trkpt>
      <trkpt lat="44.30926" lon="6.73993">
        <ele>1838.3</ele>
      </trkpt>
      <trkpt lat="44.30943" lon="6.73985">
        <ele>1833.8</ele>
      </trkpt>
      <trkpt lat="44.30964" lon="6.73959">
        <ele>1832.8</ele>
      </trkpt>
      <trkpt lat="44.30977" lon="6.73939">
        <ele>1833.1</ele>
      </trkpt>
      <trkpt lat="44.3099" lon="6.73914">
        <ele>1834.3</ele>
      </trkpt>
      <trkpt lat="44.31009" lon="6.73858">
        <ele>1831.1</ele>
      </trkpt>
      <trkpt lat="44.31012" lon="6.73845">
        <ele>1830.9</ele>
      </trkpt>
      <trkpt lat="44.31012" lon="6.73796">
        <ele>1833.2</ele>
      </trkpt>
      <trkpt lat="44.31015" lon="6.73773">
        <ele>1832.7</ele>
      </trkpt>
      <trkpt lat="44.31019" lon="6.73763">
        <ele>1831.3</ele>
      </trkpt>
      <trkpt lat="44.31033" lon="6.73736">
        <ele>1827.5</ele>
      </trkpt>
      <trkpt lat="44.31052" lon="6.73677">
        <ele>1827.6</ele>
      </trkpt>
      <trkpt lat="44.31056" lon="6.73671">
        <ele>1826.9</ele>
      </trkpt>
      <trkpt lat="44.31061" lon="6.73667">
        <ele>1825.5</ele>
      </trkpt>
      <trkpt lat="44.31078" lon="6.73657">
        <ele>1820.8</ele>
      </trkpt>
      <trkpt lat="44.31099" lon="6.73642">
        <ele>1816</ele>
      </trkpt>
      <trkpt lat="44.31109" lon="6.73639">
        <ele>1812.8</ele>
      </trkpt>
      <trkpt lat="44.31113" lon="6.73643">
        <ele>1810.7</ele>
      </trkpt>
      <trkpt lat="44.31116" lon="6.7365">
        <ele>1808.7</ele>
      </trkpt>
      <trkpt lat="44.31116" lon="6.73657">
        <ele>1807.7</ele>
      </trkpt>
      <trkpt lat="44.31114" lon="6.73663">
        <ele>1807.6</ele>
      </trkpt>
      <trkpt lat="44.31108" lon="6.73672">
        <ele>1808.3</ele>
      </trkpt>
      <trkpt lat="44.31075" lon="6.73703">
        <ele>1814.7</ele>
      </trkpt>
      <trkpt lat="44.31071" lon="6.73712">
        <ele>1815</ele>
      </trkpt>
      <trkpt lat="44.31068" lon="6.7372">
        <ele>1815</ele>
      </trkpt>
      <trkpt lat="44.31068" lon="6.73726">
        <ele>1814.2</ele>
      </trkpt>
      <trkpt lat="44.3107" lon="6.73732">
        <ele>1812.4</ele>
      </trkpt>
      <trkpt lat="44.31077" lon="6.73739">
        <ele>1808.4</ele>
      </trkpt>
      <trkpt lat="44.31082" lon="6.73739">
        <ele>1806.3</ele>
      </trkpt>
      <trkpt lat="44.31087" lon="6.73737">
        <ele>1805.1</ele>
      </trkpt>
      <trkpt lat="44.31127" lon="6.73686">
        <ele>1800.6</ele>
      </trkpt>
      <trkpt lat="44.31132" lon="6.73684">
        <ele>1799.3</ele>
      </trkpt>
      <trkpt lat="44.31137" lon="6.73685">
        <ele>1797.6</ele>
      </trkpt>
      <trkpt lat="44.3114" lon="6.73689">
        <ele>1796.2</ele>
      </trkpt>
      <trkpt lat="44.31141" lon="6.73696">
        <ele>1795.2</ele>
      </trkpt>
      <trkpt lat="44.31141" lon="6.73706">
        <ele>1794.1</ele>
      </trkpt>
      <trkpt lat="44.31121" lon="6.7379">
        <ele>1791.5</ele>
      </trkpt>
      <trkpt lat="44.31115" lon="6.73805">
        <ele>1791.7</ele>
      </trkpt>
      <trkpt lat="44.31085" lon="6.73859">
        <ele>1793.5</ele>
      </trkpt>
      <trkpt lat="44.31074" lon="6.73882">
        <ele>1796.6</ele>
      </trkpt>
      <trkpt lat="44.31071" lon="6.73894">
        <ele>1797</ele>
      </trkpt>
      <trkpt lat="44.31075" lon="6.73916">
        <ele>1793.2</ele>
      </trkpt>
      <trkpt lat="44.31085" lon="6.7393">
        <ele>1787.4</ele>
      </trkpt>
      <trkpt lat="44.31108" lon="6.73957">
        <ele>1784</ele>
      </trkpt>
      <trkpt lat="44.31117" lon="6.73966">
        <ele>1783.5</ele>
      </trkpt>
      <trkpt lat="44.31131" lon="6.73975">
        <ele>1783.4</ele>
      </trkpt>
      <trkpt lat="44.31138" lon="6.73977">
        <ele>1783.5</ele>
      </trkpt>
      <trkpt lat="44.31147" lon="6.73977">
        <ele>1783.7</ele>
      </trkpt>
      <trkpt lat="44.31163" lon="6.73973">
        <ele>1783.7</ele>
      </trkpt>
      <trkpt lat="44.3117" lon="6.73968">
        <ele>1784.1</ele>
      </trkpt>
      <trkpt lat="44.3117" lon="6.73968">
        <ele>1784.1</ele>
      </trkpt>
      <trkpt lat="44.31182" lon="6.73955">
        <ele>1785.8</ele>
      </trkpt>
      <trkpt lat="44.31196" lon="6.73924">
        <ele>1785.8</ele>
      </trkpt>
      <trkpt lat="44.31201" lon="6.73902">
        <ele>1785.6</ele>
      </trkpt>
      <trkpt lat="44.31204" lon="6.73904">
        <ele>1786.2</ele>
      </trkpt>
      <trkpt lat="44.31204" lon="6.73915">
        <ele>1786.6</ele>
      </trkpt>
      <trkpt lat="44.31201" lon="6.7393">
        <ele>1787.5</ele>
      </trkpt>
      <trkpt lat="44.31198" lon="6.73938">
        <ele>1787.7</ele>
      </trkpt>
      <trkpt lat="44.31191" lon="6.73954">
        <ele>1787.8</ele>
      </trkpt>
      <trkpt lat="44.31177" lon="6.73982">
        <ele>1787.1</ele>
      </trkpt>
      <trkpt lat="44.31168" lon="6.74012">
        <ele>1787.5</ele>
      </trkpt>
      <trkpt lat="44.31168" lon="6.74018">
        <ele>1788.1</ele>
      </trkpt>
      <trkpt lat="44.31165" lon="6.74065">
        <ele>1792.1</ele>
      </trkpt>
      <trkpt lat="44.31174" lon="6.74101">
        <ele>1796.5</ele>
      </trkpt>
      <trkpt lat="44.31195" lon="6.74154">
        <ele>1803</ele>
      </trkpt>
      <trkpt lat="44.31202" lon="6.74168">
        <ele>1804.8</ele>
      </trkpt>
      <trkpt lat="44.31215" lon="6.74178">
        <ele>1807.4</ele>
      </trkpt>
      <trkpt lat="44.31241" lon="6.74186">
        <ele>1812.3</ele>
      </trkpt>
      <trkpt lat="44.31274" lon="6.74207">
        <ele>1817.5</ele>
      </trkpt>
      <trkpt lat="44.31285" lon="6.74221">
        <ele>1818.8</ele>
      </trkpt>
      <trkpt lat="44.31287" lon="6.74244">
        <ele>1818.6</ele>
      </trkpt>
      <trkpt lat="44.31287" lon="6.74279">
        <ele>1819.1</ele>
      </trkpt>
      <trkpt lat="44.31285" lon="6.7432">
        <ele>1819.7</ele>
      </trkpt>
      <trkpt lat="44.31263" lon="6.74419">
        <ele>1826</ele>
      </trkpt>
      <trkpt lat="44.31258" lon="6.74474">
        <ele>1831.4</ele>
      </trkpt>
      <trkpt lat="44.31243" lon="6.74504">
        <ele>1832.7</ele>
      </trkpt>
      <trkpt lat="44.31238" lon="6.74537">
        <ele>1835.8</ele>
      </trkpt>
      <trkpt lat="44.31232" lon="6.74552">
        <ele>1836.5</ele>
      </trkpt>
      <trkpt lat="44.31234" lon="6.74562">
        <ele>1837.9</ele>
      </trkpt>
      <trkpt lat="44.31241" lon="6.74563">
        <ele>1839.1</ele>
      </trkpt>
      <trkpt lat="44.31245" lon="6.74555">
        <ele>1838.8</ele>
      </trkpt>
      <trkpt lat="44.31248" lon="6.74539">
        <ele>1837.4</ele>
      </trkpt>
      <trkpt lat="44.31252" lon="6.74525">
        <ele>1836.3</ele>
      </trkpt>
      <trkpt lat="44.31269" lon="6.74504">
        <ele>1836.5</ele>
      </trkpt>
      <trkpt lat="44.31301" lon="6.74489">
        <ele>1839.6</ele>
      </trkpt>
      <trkpt lat="44.31317" lon="6.74443">
        <ele>1836.2</ele>
      </trkpt>
      <trkpt lat="44.31326" lon="6.74431">
        <ele>1835.9</ele>
      </trkpt>
      <trkpt lat="44.31355" lon="6.7441">
        <ele>1839.4</ele>
      </trkpt>
      <trkpt lat="44.3138" lon="6.74397">
        <ele>1843.1</ele>
      </trkpt>
      <trkpt lat="44.31388" lon="6.7439">
        <ele>1843.7</ele>
      </trkpt>
      <trkpt lat="44.31395" lon="6.74382">
        <ele>1843.7</ele>
      </trkpt>
      <trkpt lat="44.31439" lon="6.74319">
        <ele>1848.6</ele>
      </trkpt>
      <trkpt lat="44.31444" lon="6.74306">
        <ele>1850.6</ele>
      </trkpt>
      <trkpt lat="44.31448" lon="6.74266">
        <ele>1851.1</ele>
      </trkpt>
      <trkpt lat="44.31453" lon="6.74258">
        <ele>1852.4</ele>
      </trkpt>
      <trkpt lat="44.31458" lon="6.74257">
        <ele>1853.8</ele>
      </trkpt>
      <trkpt lat="44.31462" lon="6.74263">
        <ele>1855.3</ele>
      </trkpt>
      <trkpt lat="44.31465" lon="6.74309">
        <ele>1859.5</ele>
      </trkpt>
      <trkpt lat="44.31462" lon="6.74326">
        <ele>1859.3</ele>
      </trkpt>
      <trkpt lat="44.31442" lon="6.74368">
        <ele>1860</ele>
      </trkpt>
      <trkpt lat="44.31428" lon="6.74404">
        <ele>1860.4</ele>
      </trkpt>
      <trkpt lat="44.31413" lon="6.74463">
        <ele>1863.4</ele>
      </trkpt>
      <trkpt lat="44.31406" lon="6.74504">
        <ele>1869.6</ele>
      </trkpt>
      <trkpt lat="44.31394" lon="6.74556">
        <ele>1877.5</ele>
      </trkpt>
      <trkpt lat="44.31374" lon="6.74594">
        <ele>1876.8</ele>
      </trkpt>
      <trkpt lat="44.31365" lon="6.7462">
        <ele>1875.5</ele>
      </trkpt>
      <trkpt lat="44.31361" lon="6.74676">
        <ele>1877.8</ele>
      </trkpt>
      <trkpt lat="44.31361" lon="6.74689">
        <ele>1878</ele>
      </trkpt>
      <trkpt lat="44.3136" lon="6.74745">
        <ele>1878.5</ele>
      </trkpt>
      <trkpt lat="44.31362" lon="6.7476">
        <ele>1878.9</ele>
      </trkpt>
      <trkpt lat="44.31386" lon="6.7481">
        <ele>1886.4</ele>
      </trkpt>
      <trkpt lat="44.31403" lon="6.74842">
        <ele>1892.1</ele>
      </trkpt>
      <trkpt lat="44.31419" lon="6.74887">
        <ele>1895.8</ele>
      </trkpt>
      <trkpt lat="44.31422" lon="6.74901">
        <ele>1896.4</ele>
      </trkpt>
      <trkpt lat="44.31416" lon="6.74949">
        <ele>1894</ele>
      </trkpt>
      <trkpt lat="44.31418" lon="6.74965">
        <ele>1895.3</ele>
      </trkpt>
      <trkpt lat="44.31429" lon="6.74987">
        <ele>1900.6</ele>
      </trkpt>
      <trkpt lat="44.31456" lon="6.75033">
        <ele>1910.3</ele>
      </trkpt>
      <trkpt lat="44.31472" lon="6.75067">
        <ele>1914.2</ele>
      </trkpt>
      <trkpt lat="44.31497" lon="6.75112">
        <ele>1919.9</ele>
      </trkpt>
      <trkpt lat="44.31511" lon="6.75163">
        <ele>1923.6</ele>
      </trkpt>
      <trkpt lat="44.31537" lon="6.75227">
        <ele>1932</ele>
      </trkpt>
      <trkpt lat="44.31543" lon="6.75224">
        <ele>1935</ele>
      </trkpt>
      <trkpt lat="44.31544" lon="6.75215">
        <ele>1936.1</ele>
      </trkpt>
      <trkpt lat="44.31543" lon="6.75177">
        <ele>1938.4</ele>
      </trkpt>
      <trkpt lat="44.31549" lon="6.75136">
        <ele>1942.5</ele>
      </trkpt>
      <trkpt lat="44.31546" lon="6.75081">
        <ele>1942.1</ele>
      </trkpt>
      <trkpt lat="44.3154" lon="6.75049">
        <ele>1942.8</ele>
      </trkpt>
      <trkpt lat="44.31543" lon="6.75041">
        <ele>1944.9</ele>
      </trkpt>
      <trkpt lat="44.31549" lon="6.75042">
        <ele>1947.5</ele>
      </trkpt>
      <trkpt lat="44.31559" lon="6.75079">
        <ele>1948</ele>
      </trkpt>
      <trkpt lat="44.31562" lon="6.75098">
        <ele>1948.7</ele>
      </trkpt>
      <trkpt lat="44.31576" lon="6.75148">
        <ele>1955.3</ele>
      </trkpt>
      <trkpt lat="44.31587" lon="6.75191">
        <ele>1958.8</ele>
      </trkpt>
      <trkpt lat="44.31598" lon="6.75221">
        <ele>1962.2</ele>
      </trkpt>
      <trkpt lat="44.316" lon="6.75237">
        <ele>1961.7</ele>
      </trkpt>
      <trkpt lat="44.31617" lon="6.7527">
        <ele>1968.8</ele>
      </trkpt>
      <trkpt lat="44.31621" lon="6.75289">
        <ele>1970.1</ele>
      </trkpt>
      <trkpt lat="44.31622" lon="6.7532">
        <ele>1968.9</ele>
      </trkpt>
      <trkpt lat="44.31626" lon="6.7535">
        <ele>1971.2</ele>
      </trkpt>
      <trkpt lat="44.3162" lon="6.75412">
        <ele>1970.2</ele>
      </trkpt>
      <trkpt lat="44.3162" lon="6.75449">
        <ele>1972.1</ele>
      </trkpt>
      <trkpt lat="44.31618" lon="6.75473">
        <ele>1972.5</ele>
      </trkpt>
      <trkpt lat="44.31621" lon="6.75501">
        <ele>1975.3</ele>
      </trkpt>
      <trkpt lat="44.31622" lon="6.75507">
        <ele>1975.7</ele>
      </trkpt>
      <trkpt lat="44.31628" lon="6.75522">
        <ele>1978.1</ele>
      </trkpt>
      <trkpt lat="44.31638" lon="6.75579">
        <ele>1981.1</ele>
      </trkpt>
      <trkpt lat="44.31664" lon="6.75619">
        <ele>1989</ele>
      </trkpt>
      <trkpt lat="44.31674" lon="6.75658">
        <ele>1991.1</ele>
      </trkpt>
      <trkpt lat="44.31672" lon="6.75689">
        <ele>1989.6</ele>
      </trkpt>
      <trkpt lat="44.31683" lon="6.75734">
        <ele>1992.2</ele>
      </trkpt>
      <trkpt lat="44.317" lon="6.75753">
        <ele>1996.7</ele>
      </trkpt>
      <trkpt lat="44.31705" lon="6.75766">
        <ele>1998.4</ele>
      </trkpt>
      <trkpt lat="44.31708" lon="6.75835">
        <ele>2000.5</ele>
      </trkpt>
      <trkpt lat="44.31715" lon="6.75874">
        <ele>2003.3</ele>
      </trkpt>
      <trkpt lat="44.31728" lon="6.7591">
        <ele>2006.2</ele>
      </trkpt>
      <trkpt lat="44.31738" lon="6.75952">
        <ele>2008.3</ele>
      </trkpt>
      <trkpt lat="44.31744" lon="6.75967">
        <ele>2008.5</ele>
      </trkpt>
      <trkpt lat="44.31754" lon="6.76033">
        <ele>2009.6</ele>
      </trkpt>
      <trkpt lat="44.31755" lon="6.76059">
        <ele>2010.1</ele>
      </trkpt>
      <trkpt lat="44.31765" lon="6.76112">
        <ele>2014.7</ele>
      </trkpt>
      <trkpt lat="44.31779" lon="6.76136">
        <ele>2018.6</ele>
      </trkpt>
      <trkpt lat="44.31794" lon="6.7615">
        <ele>2021.3</ele>
      </trkpt>
      <trkpt lat="44.31805" lon="6.76185">
        <ele>2023.1</ele>
      </trkpt>
      <trkpt lat="44.31825" lon="6.76216">
        <ele>2024.6</ele>
      </trkpt>
      <trkpt lat="44.3183" lon="6.76242">
        <ele>2024.3</ele>
      </trkpt>
      <trkpt lat="44.31837" lon="6.763">
        <ele>2028.2</ele>
      </trkpt>
      <trkpt lat="44.31844" lon="6.76372">
        <ele>2034.1</ele>
      </trkpt>
      <trkpt lat="44.31855" lon="6.76429">
        <ele>2039.9</ele>
      </trkpt>
      <trkpt lat="44.31859" lon="6.76471">
        <ele>2042.3</ele>
      </trkpt>
      <trkpt lat="44.31872" lon="6.76504">
        <ele>2046.7</ele>
      </trkpt>
      <trkpt lat="44.31883" lon="6.76548">
        <ele>2049.8</ele>
      </trkpt>
      <trkpt lat="44.31884" lon="6.76566">
        <ele>2050.1</ele>
      </trkpt>
      <trkpt lat="44.31892" lon="6.76596">
        <ele>2053.1</ele>
      </trkpt>
      <trkpt lat="44.31891" lon="6.7663">
        <ele>2055.4</ele>
      </trkpt>
      <trkpt lat="44.31892" lon="6.76694">
        <ele>2060.4</ele>
      </trkpt>
      <trkpt lat="44.31898" lon="6.76757">
        <ele>2066.3</ele>
      </trkpt>
      <trkpt lat="44.31882" lon="6.76785">
        <ele>2063.8</ele>
      </trkpt>
      <trkpt lat="44.31866" lon="6.76823">
        <ele>2061.7</ele>
      </trkpt>
      <trkpt lat="44.31861" lon="6.76847">
        <ele>2061.7</ele>
      </trkpt>
      <trkpt lat="44.31867" lon="6.76888">
        <ele>2066</ele>
      </trkpt>
      <trkpt lat="44.31873" lon="6.76905">
        <ele>2069.1</ele>
      </trkpt>
      <trkpt lat="44.31875" lon="6.76921">
        <ele>2071.1</ele>
      </trkpt>
      <trkpt lat="44.31873" lon="6.76932">
        <ele>2071.8</ele>
      </trkpt>
      <trkpt lat="44.31869" lon="6.76938">
        <ele>2071.3</ele>
      </trkpt>
      <trkpt lat="44.31852" lon="6.76953">
        <ele>2067.8</ele>
      </trkpt>
      <trkpt lat="44.31827" lon="6.77005">
        <ele>2069.5</ele>
      </trkpt>
      <trkpt lat="44.31815" lon="6.77025">
        <ele>2071.7</ele>
      </trkpt>
      <trkpt lat="44.31802" lon="6.77043">
        <ele>2073.1</ele>
      </trkpt>
      <trkpt lat="44.31788" lon="6.7707">
        <ele>2074.8</ele>
      </trkpt>
      <trkpt lat="44.31779" lon="6.77096">
        <ele>2076.8</ele>
      </trkpt>
      <trkpt lat="44.31769" lon="6.77105">
        <ele>2076.9</ele>
      </trkpt>
      <trkpt lat="44.31746" lon="6.77116">
        <ele>2076.9</ele>
      </trkpt>
      <trkpt lat="44.31735" lon="6.77126">
        <ele>2079.8</ele>
      </trkpt>
      <trkpt lat="44.31727" lon="6.77142">
        <ele>2082.6</ele>
      </trkpt>
      <trkpt lat="44.31728" lon="6.77151">
        <ele>2083.4</ele>
      </trkpt>
      <trkpt lat="44.31736" lon="6.77152">
        <ele>2082.6</ele>
      </trkpt>
      <trkpt lat="44.3175" lon="6.77144">
        <ele>2080</ele>
      </trkpt>
      <trkpt lat="44.3178" lon="6.77144">
        <ele>2083</ele>
      </trkpt>
      <trkpt lat="44.31806" lon="6.77152">
        <ele>2086.6</ele>
      </trkpt>
      <trkpt lat="44.31825" lon="6.77143">
        <ele>2087.3</ele>
      </trkpt>
      <trkpt lat="44.3185" lon="6.77136">
        <ele>2091.2</ele>
      </trkpt>
      <trkpt lat="44.31872" lon="6.77135">
        <ele>2096.2</ele>
      </trkpt>
      <trkpt lat="44.31878" lon="6.77133">
        <ele>2097.4</ele>
      </trkpt>
      <trkpt lat="44.31889" lon="6.77123">
        <ele>2098.8</ele>
      </trkpt>
      <trkpt lat="44.31895" lon="6.77126">
        <ele>2100.5</ele>
      </trkpt>
      <trkpt lat="44.31898" lon="6.77132">
        <ele>2101.9</ele>
      </trkpt>
      <trkpt lat="44.31896" lon="6.77136">
        <ele>2101.9</ele>
      </trkpt>
      <trkpt lat="44.31894" lon="6.77139">
        <ele>2101.8</ele>
      </trkpt>
      <trkpt lat="44.31862" lon="6.77161">
        <ele>2096.9</ele>
      </trkpt>
      <trkpt lat="44.31845" lon="6.77189">
        <ele>2096.6</ele>
      </trkpt>
      <trkpt lat="44.31834" lon="6.77202">
        <ele>2096.2</ele>
      </trkpt>
      <trkpt lat="44.31811" lon="6.77259">
        <ele>2101.8</ele>
      </trkpt>
      <trkpt lat="44.31788" lon="6.77301">
        <ele>2103.4</ele>
      </trkpt>
      <trkpt lat="44.31773" lon="6.77342">
        <ele>2105.3</ele>
      </trkpt>
      <trkpt lat="44.31758" lon="6.77366">
        <ele>2106</ele>
      </trkpt>
      <trkpt lat="44.31734" lon="6.77431">
        <ele>2111.7</ele>
      </trkpt>
      <trkpt lat="44.31724" lon="6.77442">
        <ele>2112.2</ele>
      </trkpt>
      <trkpt lat="44.3171" lon="6.77452">
        <ele>2112.3</ele>
      </trkpt>
      <trkpt lat="44.31703" lon="6.77469">
        <ele>2113.3</ele>
      </trkpt>
      <trkpt lat="44.31704" lon="6.77503">
        <ele>2116.3</ele>
      </trkpt>
      <trkpt lat="44.31694" lon="6.7755">
        <ele>2117.9</ele>
      </trkpt>
      <trkpt lat="44.31663" lon="6.77629">
        <ele>2120.4</ele>
      </trkpt>
      <trkpt lat="44.31662" lon="6.77667">
        <ele>2124.1</ele>
      </trkpt>
      <trkpt lat="44.31651" lon="6.77694">
        <ele>2126.3</ele>
      </trkpt>
      <trkpt lat="44.31647" lon="6.77711">
        <ele>2127.3</ele>
      </trkpt>
      <trkpt lat="44.31643" lon="6.77743">
        <ele>2129</ele>
      </trkpt>
      <trkpt lat="44.3164" lon="6.77757">
        <ele>2129.5</ele>
      </trkpt>
      <trkpt lat="44.31622" lon="6.77793">
        <ele>2129.2</ele>
      </trkpt>
      <trkpt lat="44.31619" lon="6.77805">
        <ele>2129.5</ele>
      </trkpt>
      <trkpt lat="44.31619" lon="6.77871">
        <ele>2131.8</ele>
      </trkpt>
      <trkpt lat="44.31611" lon="6.77935">
        <ele>2133.1</ele>
      </trkpt>
      <trkpt lat="44.3161" lon="6.77977">
        <ele>2134.6</ele>
      </trkpt>
      <trkpt lat="44.31608" lon="6.77998">
        <ele>2135.2</ele>
      </trkpt>
      <trkpt lat="44.31586" lon="6.78056">
        <ele>2135.6</ele>
      </trkpt>
      <trkpt lat="44.31585" lon="6.78075">
        <ele>2136.6</ele>
      </trkpt>
      <trkpt lat="44.31591" lon="6.781">
        <ele>2138.3</ele>
      </trkpt>
      <trkpt lat="44.31591" lon="6.78129">
        <ele>2139.9</ele>
      </trkpt>
      <trkpt lat="44.31582" lon="6.78167">
        <ele>2142.1</ele>
      </trkpt>
      <trkpt lat="44.31559" lon="6.7824">
        <ele>2147.9</ele>
      </trkpt>
      <trkpt lat="44.31515" lon="6.78319">
        <ele>2151.4</ele>
      </trkpt>
      <trkpt lat="44.31504" lon="6.7837">
        <ele>2153.1</ele>
      </trkpt>
      <trkpt lat="44.31498" lon="6.78384">
        <ele>2154.1</ele>
      </trkpt>
      <trkpt lat="44.31476" lon="6.78406">
        <ele>2157.6</ele>
      </trkpt>
      <trkpt lat="44.31465" lon="6.7847">
        <ele>2160.8</ele>
      </trkpt>
      <trkpt lat="44.31464" lon="6.78473">
        <ele>2161.1</ele>
      </trkpt>
      <trkpt lat="44.31434" lon="6.78575">
        <ele>2173</ele>
      </trkpt>
      <trkpt lat="44.31421" lon="6.78656">
        <ele>2180.7</ele>
      </trkpt>
      <trkpt lat="44.31418" lon="6.78657">
        <ele>2181.3</ele>
      </trkpt>
      <trkpt lat="44.31414" lon="6.78653">
        <ele>2182.3</ele>
      </trkpt>
      <trkpt lat="44.31413" lon="6.78647">
        <ele>2182.3</ele>
      </trkpt>
      <trkpt lat="44.31415" lon="6.78628">
        <ele>2180.7</ele>
      </trkpt>
      <trkpt lat="44.31411" lon="6.78581">
        <ele>2179.5</ele>
      </trkpt>
      <trkpt lat="44.31413" lon="6.78557">
        <ele>2176.8</ele>
      </trkpt>
      <trkpt lat="44.3141" lon="6.78537">
        <ele>2175.9</ele>
      </trkpt>
      <trkpt lat="44.31405" lon="6.78526">
        <ele>2176.2</ele>
      </trkpt>
      <trkpt lat="44.31393" lon="6.78509">
        <ele>2177.6</ele>
      </trkpt>
      <trkpt lat="44.3138" lon="6.78495">
        <ele>2179.4</ele>
      </trkpt>
      <trkpt lat="44.31349" lon="6.78478">
        <ele>2185.4</ele>
      </trkpt>
      <trkpt lat="44.31339" lon="6.78477">
        <ele>2187.7</ele>
      </trkpt>
      <trkpt lat="44.31335" lon="6.78482">
        <ele>2189.1</ele>
      </trkpt>
      <trkpt lat="44.31337" lon="6.78489">
        <ele>2189.2</ele>
      </trkpt>
      <trkpt lat="44.31346" lon="6.78501">
        <ele>2188.1</ele>
      </trkpt>
      <trkpt lat="44.31351" lon="6.78522">
        <ele>2189.6</ele>
      </trkpt>
      <trkpt lat="44.31363" lon="6.78555">
        <ele>2190.6</ele>
      </trkpt>
      <trkpt lat="44.31369" lon="6.78614">
        <ele>2194.8</ele>
      </trkpt>
      <trkpt lat="44.31365" lon="6.78641">
        <ele>2198.4</ele>
      </trkpt>
      <trkpt lat="44.31352" lon="6.78686">
        <ele>2205.7</ele>
      </trkpt>
      <trkpt lat="44.31345" lon="6.78722">
        <ele>2208.7</ele>
      </trkpt>
      <trkpt lat="44.31343" lon="6.78751">
        <ele>2210</ele>
      </trkpt>
      <trkpt lat="44.3134" lon="6.78784">
        <ele>2216.2</ele>
      </trkpt>
      <trkpt lat="44.31347" lon="6.78844">
        <ele>2224.3</ele>
      </trkpt>
      <trkpt lat="44.31359" lon="6.78869">
        <ele>2226.3</ele>
      </trkpt>
      <trkpt lat="44.31378" lon="6.78893">
        <ele>2226.5</ele>
      </trkpt>
      <trkpt lat="44.31389" lon="6.78913">
        <ele>2228.1</ele>
      </trkpt>
      <trkpt lat="44.3141" lon="6.78934">
        <ele>2228.7</ele>
      </trkpt>
      <trkpt lat="44.3142" lon="6.78959">
        <ele>2233.9</ele>
      </trkpt>
      <trkpt lat="44.31461" lon="6.78986">
        <ele>2236.9</ele>
      </trkpt>
      <trkpt lat="44.31485" lon="6.79006">
        <ele>2239.5</ele>
      </trkpt>
      <trkpt lat="44.31499" lon="6.79014">
        <ele>2239.8</ele>
      </trkpt>
      <trkpt lat="44.31514" lon="6.79015">
        <ele>2243</ele>
      </trkpt>
      <trkpt lat="44.31545" lon="6.79008">
        <ele>2247.8</ele>
      </trkpt>
      <trkpt lat="44.31561" lon="6.78998">
        <ele>2248.8</ele>
      </trkpt>
      <trkpt lat="44.31575" lon="6.78977">
        <ele>2247.9</ele>
      </trkpt>
      <trkpt lat="44.31593" lon="6.78958">
        <ele>2249.5</ele>
      </trkpt>
      <trkpt lat="44.3164" lon="6.78875">
        <ele>2246.2</ele>
      </trkpt>
      <trkpt lat="44.31677" lon="6.78837">
        <ele>2249.2</ele>
      </trkpt>
      <trkpt lat="44.31709" lon="6.78817">
        <ele>2251.8</ele>
      </trkpt>
      <trkpt lat="44.31715" lon="6.78821">
        <ele>2254.3</ele>
      </trkpt>
      <trkpt lat="44.31719" lon="6.78832">
        <ele>2258.2</ele>
      </trkpt>
      <trkpt lat="44.31724" lon="6.78858">
        <ele>2262.7</ele>
      </trkpt>
      <trkpt lat="44.31734" lon="6.78878">
        <ele>2266.7</ele>
      </trkpt>
      <trkpt lat="44.31747" lon="6.78897">
        <ele>2270.2</ele>
      </trkpt>
      <trkpt lat="44.31766" lon="6.78929">
        <ele>2275.4</ele>
      </trkpt>
      <trkpt lat="44.31772" lon="6.78938">
        <ele>2277</ele>
      </trkpt>
      <trkpt lat="44.31781" lon="6.78945">
        <ele>2278.6</ele>
      </trkpt>
      <trkpt lat="44.31784" lon="6.7895">
        <ele>2279.3</ele>
      </trkpt>
      <trkpt lat="44.31781" lon="6.78956">
        <ele>2279.6</ele>
      </trkpt>
      <trkpt lat="44.31775" lon="6.78957">
        <ele>2279.1</ele>
      </trkpt>
      <trkpt lat="44.31767" lon="6.78949">
        <ele>2277.6</ele>
      </trkpt>
      <trkpt lat="44.31757" lon="6.78942">
        <ele>2275.8</ele>
      </trkpt>
      <trkpt lat="44.31739" lon="6.78941">
        <ele>2274.2</ele>
      </trkpt>
      <trkpt lat="44.31705" lon="6.78955">
        <ele>2274.3</ele>
      </trkpt>
      <trkpt lat="44.31683" lon="6.78973">
        <ele>2276.4</ele>
      </trkpt>
      <trkpt lat="44.31666" lon="6.78994">
        <ele>2279.6</ele>
      </trkpt>
      <trkpt lat="44.31644" lon="6.79047">
        <ele>2282.6</ele>
      </trkpt>
      <trkpt lat="44.31631" lon="6.79086">
        <ele>2286.9</ele>
      </trkpt>
      <trkpt lat="44.31611" lon="6.79125">
        <ele>2290.3</ele>
      </trkpt>
      <trkpt lat="44.31588" lon="6.79153">
        <ele>2293.2</ele>
      </trkpt>
      <trkpt lat="44.31573" lon="6.79161">
        <ele>2293.5</ele>
      </trkpt>
      <trkpt lat="44.31547" lon="6.7919">
        <ele>2297.7</ele>
      </trkpt>
      <trkpt lat="44.31534" lon="6.79218">
        <ele>2303.3</ele>
      </trkpt>
      <trkpt lat="44.31516" lon="6.79243">
        <ele>2308.6</ele>
      </trkpt>
      <trkpt lat="44.31512" lon="6.79252">
        <ele>2310.8</ele>
      </trkpt>
      <trkpt lat="44.31526" lon="6.79274">
        <ele>2315.7</ele>
      </trkpt>
      <trkpt lat="44.31558" lon="6.79307">
        <ele>2319.8</ele>
      </trkpt>
      <trkpt lat="44.31563" lon="6.79315">
        <ele>2320.4</ele>
      </trkpt>
      <trkpt lat="44.31583" lon="6.79333">
        <ele>2320</ele>
      </trkpt>
      <trkpt lat="44.316" lon="6.79342">
        <ele>2323.4</ele>
      </trkpt>
      <trkpt lat="44.31617" lon="6.79342">
        <ele>2323.6</ele>
      </trkpt>
      <trkpt lat="44.31621" lon="6.79349">
        <ele>2325.4</ele>
      </trkpt>
      <trkpt lat="44.31626" lon="6.7936">
        <ele>2328</ele>
      </trkpt>
      <trkpt lat="44.31627" lon="6.79392">
        <ele>2335.6</ele>
      </trkpt>
      <trkpt lat="44.31643" lon="6.79428">
        <ele>2340.4</ele>
      </trkpt>
      <trkpt lat="44.31652" lon="6.79436">
        <ele>2339.7</ele>
      </trkpt>
      <trkpt lat="44.31664" lon="6.79448">
        <ele>2338.5</ele>
      </trkpt>
      <trkpt lat="44.31687" lon="6.79465">
        <ele>2338.9</ele>
      </trkpt>
      <trkpt lat="44.31696" lon="6.79474">
        <ele>2339.5</ele>
      </trkpt>
      <trkpt lat="44.31697" lon="6.79481">
        <ele>2340.4</ele>
      </trkpt>
      <trkpt lat="44.31693" lon="6.79486">
        <ele>2341.6</ele>
      </trkpt>
      <trkpt lat="44.31682" lon="6.79482">
        <ele>2342.2</ele>
      </trkpt>
      <trkpt lat="44.31676" lon="6.79485">
        <ele>2343.3</ele>
      </trkpt>
      <trkpt lat="44.31675" lon="6.79491">
        <ele>2344.4</ele>
      </trkpt>
      <trkpt lat="44.31678" lon="6.79514">
        <ele>2350.1</ele>
      </trkpt>
      <trkpt lat="44.31689" lon="6.79535">
        <ele>2355.1</ele>
      </trkpt>
      <trkpt lat="44.31726" lon="6.79552">
        <ele>2354.5</ele>
      </trkpt>
      <trkpt lat="44.31738" lon="6.79562">
        <ele>2355.3</ele>
      </trkpt>
      <trkpt lat="44.3176" lon="6.79562">
        <ele>2354.4</ele>
      </trkpt>
      <trkpt lat="44.31777" lon="6.79564">
        <ele>2356.6</ele>
      </trkpt>
      <trkpt lat="44.31796" lon="6.79554">
        <ele>2356.3</ele>
      </trkpt>
      <trkpt lat="44.31808" lon="6.79545">
        <ele>2355.7</ele>
      </trkpt>
      <trkpt lat="44.31819" lon="6.7954">
        <ele>2355.9</ele>
      </trkpt>
      <trkpt lat="44.3183" lon="6.79524">
        <ele>2354.2</ele>
      </trkpt>
      <trkpt lat="44.31837" lon="6.79514">
        <ele>2353.9</ele>
      </trkpt>
      <trkpt lat="44.31839" lon="6.79493">
        <ele>2351.1</ele>
      </trkpt>
      <trkpt lat="44.31849" lon="6.79482">
        <ele>2353.3</ele>
      </trkpt>
      <trkpt lat="44.31861" lon="6.79479">
        <ele>2357.4</ele>
      </trkpt>
      <trkpt lat="44.31881" lon="6.79477">
        <ele>2364.8</ele>
      </trkpt>
      <trkpt lat="44.31892" lon="6.79467">
        <ele>2368</ele>
      </trkpt>
      <trkpt lat="44.31902" lon="6.79446">
        <ele>2370.1</ele>
      </trkpt>
      <trkpt lat="44.31906" lon="6.79419">
        <ele>2369.6</ele>
      </trkpt>
      <trkpt lat="44.31915" lon="6.79402">
        <ele>2371.3</ele>
      </trkpt>
      <trkpt lat="44.3192" lon="6.79377">
        <ele>2370</ele>
      </trkpt>
      <trkpt lat="44.31915" lon="6.79354">
        <ele>2365</ele>
      </trkpt>
      <trkpt lat="44.31916" lon="6.7934">
        <ele>2363.6</ele>
      </trkpt>
      <trkpt lat="44.31935" lon="6.79316">
        <ele>2367.4</ele>
      </trkpt>
      <trkpt lat="44.31939" lon="6.79286">
        <ele>2363.9</ele>
      </trkpt>
      <trkpt lat="44.31937" lon="6.79254">
        <ele>2357.7</ele>
      </trkpt>
      <trkpt lat="44.31941" lon="6.79243">
        <ele>2356.7</ele>
      </trkpt>
      <trkpt lat="44.31947" lon="6.7924">
        <ele>2358.1</ele>
      </trkpt>
      <trkpt lat="44.32004" lon="6.79242">
        <ele>2378.5</ele>
      </trkpt>
      <trkpt lat="44.32031" lon="6.79232">
        <ele>2384.6</ele>
      </trkpt>
      <trkpt lat="44.32061" lon="6.79232">
        <ele>2393.6</ele>
      </trkpt>
      <trkpt lat="44.32065" lon="6.79234">
        <ele>2395</ele>
      </trkpt>
      <trkpt lat="44.32065" lon="6.79242">
        <ele>2395.6</ele>
      </trkpt>
      <trkpt lat="44.32063" lon="6.79245">
        <ele>2395.2</ele>
      </trkpt>
      <trkpt lat="44.32038" lon="6.79247">
        <ele>2388.6</ele>
      </trkpt>
      <trkpt lat="44.32027" lon="6.79253">
        <ele>2386.6</ele>
      </trkpt>
      <trkpt lat="44.32014" lon="6.79263">
        <ele>2385</ele>
      </trkpt>
      <trkpt lat="44.31981" lon="6.79281">
        <ele>2378.4</ele>
      </trkpt>
      <trkpt lat="44.31976" lon="6.79291">
        <ele>2378.4</ele>
      </trkpt>
      <trkpt lat="44.31984" lon="6.79331">
        <ele>2389.2</ele>
      </trkpt>
      <trkpt lat="44.3199" lon="6.79342">
        <ele>2392.7</ele>
      </trkpt>
      <trkpt lat="44.32003" lon="6.79359">
        <ele>2398.2</ele>
      </trkpt>
      <trkpt lat="44.32015" lon="6.7937">
        <ele>2400.1</ele>
      </trkpt>
      <trkpt lat="44.32018" lon="6.79382">
        <ele>2401.2</ele>
      </trkpt>
      <trkpt lat="44.32019" lon="6.79387">
        <ele>2401.6</ele>
      </trkpt>
      <trkpt lat="44.32018" lon="6.79392">
        <ele>2401.8</ele>
      </trkpt>
      <trkpt lat="44.32015" lon="6.79407">
        <ele>2402.5</ele>
      </trkpt>
      <trkpt lat="44.32011" lon="6.79418">
        <ele>2402.8</ele>
      </trkpt>
      <trkpt lat="44.31986" lon="6.79464">
        <ele>2398.3</ele>
      </trkpt>
      <trkpt lat="44.31986" lon="6.79481">
        <ele>2398.7</ele>
      </trkpt>
      <trkpt lat="44.31988" lon="6.79511">
        <ele>2399.4</ele>
      </trkpt>
      <trkpt lat="44.31995" lon="6.79525">
        <ele>2400.8</ele>
      </trkpt>
      <trkpt lat="44.32013" lon="6.79548">
        <ele>2401.7</ele>
      </trkpt>
      <trkpt lat="44.32022" lon="6.79559">
        <ele>2401.7</ele>
      </trkpt>
      <trkpt lat="44.32022" lon="6.79574">
        <ele>2401.1</ele>
      </trkpt>
      <trkpt lat="44.32024" lon="6.7958">
        <ele>2401</ele>
      </trkpt>
      <trkpt lat="44.32038" lon="6.79586">
        <ele>2401.8</ele>
      </trkpt>
      <trkpt lat="44.32051" lon="6.79596">
        <ele>2403.6</ele>
      </trkpt>
      <trkpt lat="44.32061" lon="6.79612">
        <ele>2405.8</ele>
      </trkpt>
      <trkpt lat="44.32085" lon="6.79642">
        <ele>2409.3</ele>
      </trkpt>
      <trkpt lat="44.32102" lon="6.79659">
        <ele>2410.9</ele>
      </trkpt>
      <trkpt lat="44.32139" lon="6.79678">
        <ele>2413.3</ele>
      </trkpt>
      <trkpt lat="44.32166" lon="6.79695">
        <ele>2415.8</ele>
      </trkpt>
      <trkpt lat="44.32176" lon="6.79698">
        <ele>2416.9</ele>
      </trkpt>
      <trkpt lat="44.32214" lon="6.79685">
        <ele>2417.7</ele>
      </trkpt>
      <trkpt lat="44.32229" lon="6.79684">
        <ele>2418.7</ele>
      </trkpt>
      <trkpt lat="44.32273" lon="6.79695">
        <ele>2422</ele>
      </trkpt>
      <trkpt lat="44.32313" lon="6.79722">
        <ele>2426.1</ele>
      </trkpt>
      <trkpt lat="44.32396" lon="6.79812">
        <ele>2439.8</ele>
      </trkpt>
      <trkpt lat="44.32413" lon="6.7983">
        <ele>2443.3</ele>
      </trkpt>
      <trkpt lat="44.32423" lon="6.79844">
        <ele>2444.2</ele>
      </trkpt>
      <trkpt lat="44.32444" lon="6.79885">
        <ele>2445.8</ele>
      </trkpt>
      <trkpt lat="44.32484" lon="6.79972">
        <ele>2458.1</ele>
      </trkpt>
      <trkpt lat="44.32488" lon="6.79978">
        <ele>2459.2</ele>
      </trkpt>
      <trkpt lat="44.32495" lon="6.79982">
        <ele>2459.7</ele>
      </trkpt>
      <trkpt lat="44.32521" lon="6.79983">
        <ele>2462.2</ele>
      </trkpt>
      <trkpt lat="44.32549" lon="6.79982">
        <ele>2465.4</ele>
      </trkpt>
      <trkpt lat="44.32576" lon="6.79975">
        <ele>2466.4</ele>
      </trkpt>
      <trkpt lat="44.326" lon="6.79973">
        <ele>2466.7</ele>
      </trkpt>
      <trkpt lat="44.32605" lon="6.79969">
        <ele>2465.4</ele>
      </trkpt>
      <trkpt lat="44.32609" lon="6.79959">
        <ele>2462.2</ele>
      </trkpt>
      <trkpt lat="44.32615" lon="6.79955">
        <ele>2461</ele>
      </trkpt>
      <trkpt lat="44.32622" lon="6.79955">
        <ele>2461.1</ele>
      </trkpt>
      <trkpt lat="44.32634" lon="6.79965">
        <ele>2464.5</ele>
      </trkpt>
      <trkpt lat="44.32655" lon="6.79988">
        <ele>2471.6</ele>
      </trkpt>
      <trkpt lat="44.32708" lon="6.80059">
        <ele>2482.7</ele>
      </trkpt>
      <trkpt lat="44.32723" lon="6.80073">
        <ele>2483.6</ele>
      </trkpt>
      <trkpt lat="44.3273" lon="6.80083">
        <ele>2484.6</ele>
      </trkpt>
      <trkpt lat="44.32749" lon="6.80133">
        <ele>2487.6</ele>
      </trkpt>
      <trkpt lat="44.32755" lon="6.8016">
        <ele>2490.1</ele>
      </trkpt>
      <trkpt lat="44.3278" lon="6.80204">
        <ele>2498.4</ele>
      </trkpt>
      <trkpt lat="44.32787" lon="6.80209">
        <ele>2499.2</ele>
      </trkpt>
      <trkpt lat="44.32809" lon="6.80211">
        <ele>2498.4</ele>
      </trkpt>
      <trkpt lat="44.32824" lon="6.80214">
        <ele>2498.2</ele>
      </trkpt>
      <trkpt lat="44.32845" lon="6.80224">
        <ele>2500.1</ele>
      </trkpt>
      <trkpt lat="44.32872" lon="6.80242">
        <ele>2504.1</ele>
      </trkpt>
      <trkpt lat="44.32885" lon="6.80246">
        <ele>2505</ele>
      </trkpt>
      <trkpt lat="44.32889" lon="6.80252">
        <ele>2505.9</ele>
      </trkpt>
      <trkpt lat="44.3289" lon="6.80257">
        <ele>2506.7</ele>
      </trkpt>
      <trkpt lat="44.32888" lon="6.80265">
        <ele>2507.8</ele>
      </trkpt>
      <trkpt lat="44.32882" lon="6.8027">
        <ele>2508.4</ele>
      </trkpt>
      <trkpt lat="44.32844" lon="6.8027">
        <ele>2508.2</ele>
      </trkpt>
      <trkpt lat="44.3279" lon="6.8026">
        <ele>2509.9</ele>
      </trkpt>
      <trkpt lat="44.32739" lon="6.8024">
        <ele>2510.8</ele>
      </trkpt>
      <trkpt lat="44.3269" lon="6.80244">
        <ele>2521.3</ele>
      </trkpt>
      <trkpt lat="44.32687" lon="6.80252">
        <ele>2523.6</ele>
      </trkpt>
      <trkpt lat="44.32687" lon="6.80262">
        <ele>2525.8</ele>
      </trkpt>
      <trkpt lat="44.32699" lon="6.80303">
        <ele>2532.5</ele>
      </trkpt>
      <trkpt lat="44.3272" lon="6.8033">
        <ele>2533.5</ele>
      </trkpt>
      <trkpt lat="44.32761" lon="6.80352">
        <ele>2530.9</ele>
      </trkpt>
      <trkpt lat="44.3279" lon="6.8038">
        <ele>2535</ele>
      </trkpt>
      <trkpt lat="44.32812" lon="6.80397">
        <ele>2536.7</ele>
      </trkpt>
      <trkpt lat="44.32828" lon="6.80418">
        <ele>2539.7</ele>
      </trkpt>
      <trkpt lat="44.32856" lon="6.80437">
        <ele>2537.91</ele>
      </trkpt>
      <trkpt lat="44.32875" lon="6.80454">
        <ele>2537</ele>
      </trkpt>
      <trkpt lat="44.32886" lon="6.8046">
        <ele>2536.47</ele>
      </trkpt>
      <trkpt lat="44.32923" lon="6.80467">
        <ele>2535.84</ele>
      </trkpt>
      <trkpt lat="44.32945" lon="6.80466">
        <ele>2538.74</ele>
      </trkpt>
      <trkpt lat="44.32967" lon="6.80468">
        <ele>2541.64</ele>
      </trkpt>
      <trkpt lat="44.32998" lon="6.80452">
        <ele>2545.74</ele>
      </trkpt>
      <trkpt lat="44.33009" lon="6.80443">
        <ele>2547.08</ele>
      </trkpt>
      <trkpt lat="44.33032" lon="6.80439">
        <ele>2549.84</ele>
      </trkpt>
      <trkpt lat="44.33041" lon="6.80443">
        <ele>2550.92</ele>
      </trkpt>
      <trkpt lat="44.33068" lon="6.80463">
        <ele>2554.16</ele>
      </trkpt>
      <trkpt lat="44.33081" lon="6.80469">
        <ele>2555.72</ele>
      </trkpt>
      <trkpt lat="44.33157" lon="6.8048">
        <ele>2548.93</ele>
      </trkpt>
      <trkpt lat="44.33168" lon="6.80484">
        <ele>2547.98</ele>
      </trkpt>
      <trkpt lat="44.33169" lon="6.80485">
        <ele>2547.97</ele>
      </trkpt>
      <trkpt lat="44.33194" lon="6.8051">
        <ele>2584.3</ele>
      </trkpt>
      <trkpt lat="44.33205" lon="6.80525">
        <ele>2587.2</ele>
      </trkpt>
      <trkpt lat="44.33214" lon="6.80532">
        <ele>2588.3</ele>
      </trkpt>
      <trkpt lat="44.33235" lon="6.80546">
        <ele>2591.7</ele>
      </trkpt>
      <trkpt lat="44.33249" lon="6.80549">
        <ele>2591.5</ele>
      </trkpt>
      <trkpt lat="44.33281" lon="6.80577">
        <ele>2599.5</ele>
      </trkpt>
      <trkpt lat="44.33288" lon="6.80576">
        <ele>2600.3</ele>
      </trkpt>
      <trkpt lat="44.33294" lon="6.80571">
        <ele>2599.5</ele>
      </trkpt>
      <trkpt lat="44.33304" lon="6.80544">
        <ele>2595</ele>
      </trkpt>
      <trkpt lat="44.3331" lon="6.80537">
        <ele>2595.8</ele>
      </trkpt>
      <trkpt lat="44.33348" lon="6.80514">
        <ele>2603.1</ele>
      </trkpt>
      <trkpt lat="44.33371" lon="6.80506">
        <ele>2606.4</ele>
      </trkpt>
      <trkpt lat="44.33385" lon="6.80498">
        <ele>2606.8</ele>
      </trkpt>
      <trkpt lat="44.33395" lon="6.80498">
        <ele>2607.8</ele>
      </trkpt>
      <trkpt lat="44.33404" lon="6.80503">
        <ele>2609.3</ele>
      </trkpt>
      <trkpt lat="44.33412" lon="6.80514">
        <ele>2611.5</ele>
      </trkpt>
      <trkpt lat="44.3343" lon="6.80531">
        <ele>2611.6</ele>
      </trkpt>
      <trkpt lat="44.33434" lon="6.80537">
        <ele>2611.7</ele>
      </trkpt>
      <trkpt lat="44.33433" lon="6.80545">
        <ele>2613.1</ele>
      </trkpt>
      <trkpt lat="44.33425" lon="6.80573">
        <ele>2616.8</ele>
      </trkpt>
      <trkpt lat="44.33425" lon="6.80593">
        <ele>2618.9</ele>
      </trkpt>
      <trkpt lat="44.33429" lon="6.80596">
        <ele>2619.1</ele>
      </trkpt>
      <trkpt lat="44.33434" lon="6.80596">
        <ele>2618.9</ele>
      </trkpt>
      <trkpt lat="44.33447" lon="6.80586">
        <ele>2616.5</ele>
      </trkpt>
      <trkpt lat="44.33453" lon="6.80583">
        <ele>2616</ele>
      </trkpt>
      <trkpt lat="44.3346" lon="6.80586">
        <ele>2616.4</ele>
      </trkpt>
      <trkpt lat="44.33466" lon="6.80596">
        <ele>2617.6</ele>
      </trkpt>
      <trkpt lat="44.33478" lon="6.80625">
        <ele>2620.9</ele>
      </trkpt>
      <trkpt lat="44.33485" lon="6.80633">
        <ele>2621.5</ele>
      </trkpt>
      <trkpt lat="44.33493" lon="6.80635">
        <ele>2621.3</ele>
      </trkpt>
      <trkpt lat="44.33504" lon="6.80629">
        <ele>2621.4</ele>
      </trkpt>
      <trkpt lat="44.33514" lon="6.80615">
        <ele>2622.7</ele>
      </trkpt>
      <trkpt lat="44.33532" lon="6.80571">
        <ele>2624.1</ele>
      </trkpt>
      <trkpt lat="44.33545" lon="6.80545">
        <ele>2625.8</ele>
      </trkpt>
      <trkpt lat="44.3357" lon="6.80451">
        <ele>2629.3</ele>
      </trkpt>
      <trkpt lat="44.33584" lon="6.80373">
        <ele>2630.2</ele>
      </trkpt>
      <trkpt lat="44.33584" lon="6.80366">
        <ele>2630.2</ele>
      </trkpt>
      <trkpt lat="44.3358" lon="6.80344">
        <ele>2629.7</ele>
      </trkpt>
      <trkpt lat="44.33579" lon="6.80328">
        <ele>2629.8</ele>
      </trkpt>
      <trkpt lat="44.33583" lon="6.8031">
        <ele>2630.9</ele>
      </trkpt>
      <trkpt lat="44.3359" lon="6.80293">
        <ele>2632.7</ele>
      </trkpt>
      <trkpt lat="44.33592" lon="6.8028">
        <ele>2632.9</ele>
      </trkpt>
      <trkpt lat="44.33591" lon="6.80266">
        <ele>2631.6</ele>
      </trkpt>
      <trkpt lat="44.33593" lon="6.80254">
        <ele>2631.4</ele>
      </trkpt>
      <trkpt lat="44.33599" lon="6.80241">
        <ele>2631.9</ele>
      </trkpt>
      <trkpt lat="44.33611" lon="6.80229">
        <ele>2633.9</ele>
      </trkpt>
      <trkpt lat="44.33612" lon="6.80222">
        <ele>2633.4</ele>
      </trkpt>
      <trkpt lat="44.33613" lon="6.80199">
        <ele>2633.8</ele>
      </trkpt>
      <trkpt lat="44.3363" lon="6.80155">
        <ele>2638.9</ele>
      </trkpt>
      <trkpt lat="44.33636" lon="6.80129">
        <ele>2639.7</ele>
      </trkpt>
      <trkpt lat="44.3365" lon="6.80086">
        <ele>2640.7</ele>
      </trkpt>
      <trkpt lat="44.33655" lon="6.80077">
        <ele>2640.8</ele>
      </trkpt>
      <trkpt lat="44.33663" lon="6.80075">
        <ele>2641.9</ele>
      </trkpt>
      <trkpt lat="44.3371" lon="6.80112">
        <ele>2646.9</ele>
      </trkpt>
      <trkpt lat="44.3372" lon="6.80122">
        <ele>2647.3</ele>
      </trkpt>
      <trkpt lat="44.33755" lon="6.80172">
        <ele>2648.7</ele>
      </trkpt>
      <trkpt lat="44.33763" lon="6.80176">
        <ele>2647.6</ele>
      </trkpt>
      <trkpt lat="44.33765" lon="6.80182">
        <ele>2648.3</ele>
      </trkpt>
      <trkpt lat="44.33766" lon="6.80189">
        <ele>2649.5</ele>
      </trkpt>
      <trkpt lat="44.3378" lon="6.80195">
        <ele>2647.7</ele>
      </trkpt>
      <trkpt lat="44.33792" lon="6.802">
        <ele>2646.4</ele>
      </trkpt>
      <trkpt lat="44.33811" lon="6.80212">
        <ele>2644.9</ele>
      </trkpt>
      <trkpt lat="44.33831" lon="6.8023">
        <ele>2645.4</ele>
      </trkpt>
      <trkpt lat="44.33866" lon="6.80247">
        <ele>2643.4</ele>
      </trkpt>
      <trkpt lat="44.33877" lon="6.80248">
        <ele>2642.5</ele>
      </trkpt>
      <trkpt lat="44.3389" lon="6.80243">
        <ele>2639</ele>
      </trkpt>
      <trkpt lat="44.3392" lon="6.80227">
        <ele>2633.6</ele>
      </trkpt>
      <trkpt lat="44.33944" lon="6.8021">
        <ele>2629.9</ele>
      </trkpt>
      <trkpt lat="44.33959" lon="6.80193">
        <ele>2629.3</ele>
      </trkpt>
      <trkpt lat="44.3398" lon="6.80146">
        <ele>2624.3</ele>
      </trkpt>
      <trkpt lat="44.33987" lon="6.80139">
        <ele>2623.2</ele>
      </trkpt>
      <trkpt lat="44.33994" lon="6.80137">
        <ele>2623.5</ele>
      </trkpt>
      <trkpt lat="44.34014" lon="6.80144">
        <ele>2623.8</ele>
      </trkpt>
      <trkpt lat="44.3406" lon="6.80171">
        <ele>2619.3</ele>
      </trkpt>
      <trkpt lat="44.34101" lon="6.80179">
        <ele>2614.1</ele>
      </trkpt>
      <trkpt lat="44.34126" lon="6.80194">
        <ele>2615.1</ele>
      </trkpt>
      <trkpt lat="44.34168" lon="6.80206">
        <ele>2612.2</ele>
      </trkpt>
      <trkpt lat="44.34175" lon="6.80207">
        <ele>2613.1</ele>
      </trkpt>
      <trkpt lat="44.34208" lon="6.80196">
        <ele>2608.1</ele>
      </trkpt>
      <trkpt lat="44.34223" lon="6.80197">
        <ele>2606.6</ele>
      </trkpt>
      <trkpt lat="44.34248" lon="6.80206">
        <ele>2606.2</ele>
      </trkpt>
      <trkpt lat="44.34285" lon="6.8019">
        <ele>2602.8</ele>
      </trkpt>
      <trkpt lat="44.3431" lon="6.80175">
        <ele>2602.7</ele>
      </trkpt>
      <trkpt lat="44.3432" lon="6.80161">
        <ele>2601.9</ele>
      </trkpt>
      <trkpt lat="44.3433" lon="6.80152">
        <ele>2602.1</ele>
      </trkpt>
      <trkpt lat="44.34365" lon="6.80129">
        <ele>2601.6</ele>
      </trkpt>
      <trkpt lat="44.34372" lon="6.80118">
        <ele>2600.9</ele>
      </trkpt>
      <trkpt lat="44.3438" lon="6.80097">
        <ele>2598.9</ele>
      </trkpt>
      <trkpt lat="44.34389" lon="6.80063">
        <ele>2594.6</ele>
      </trkpt>
      <trkpt lat="44.34396" lon="6.80042">
        <ele>2592.8</ele>
      </trkpt>
      <trkpt lat="44.34408" lon="6.80022">
        <ele>2592.6</ele>
      </trkpt>
      <trkpt lat="44.34423" lon="6.80005">
        <ele>2593.3</ele>
      </trkpt>
      <trkpt lat="44.34428" lon="6.79986">
        <ele>2591.5</ele>
      </trkpt>
      <trkpt lat="44.34429" lon="6.79965">
        <ele>2589.3</ele>
      </trkpt>
      <trkpt lat="44.34434" lon="6.79934">
        <ele>2589.6</ele>
      </trkpt>
      <trkpt lat="44.34433" lon="6.79921">
        <ele>2588.9</ele>
      </trkpt>
      <trkpt lat="44.34424" lon="6.79894">
        <ele>2585.5</ele>
      </trkpt>
      <trkpt lat="44.34424" lon="6.79883">
        <ele>2584</ele>
      </trkpt>
      <trkpt lat="44.34428" lon="6.79872">
        <ele>2582.5</ele>
      </trkpt>
      <trkpt lat="44.34463" lon="6.79828">
        <ele>2582.3</ele>
      </trkpt>
      <trkpt lat="44.34514" lon="6.79804">
        <ele>2577.8</ele>
      </trkpt>
      <trkpt lat="44.34522" lon="6.79799">
        <ele>2576.6</ele>
      </trkpt>
      <trkpt lat="44.34526" lon="6.79792">
        <ele>2575.6</ele>
      </trkpt>
      <trkpt lat="44.34527" lon="6.79779">
        <ele>2574.1</ele>
      </trkpt>
      <trkpt lat="44.34524" lon="6.79769">
        <ele>2573</ele>
      </trkpt>
      <trkpt lat="44.34517" lon="6.79763">
        <ele>2572.2</ele>
      </trkpt>
      <trkpt lat="44.34508" lon="6.79763">
        <ele>2572</ele>
      </trkpt>
      <trkpt lat="44.34483" lon="6.79784">
        <ele>2572.6</ele>
      </trkpt>
      <trkpt lat="44.34473" lon="6.7978">
        <ele>2569.9</ele>
      </trkpt>
      <trkpt lat="44.34464" lon="6.7976">
        <ele>2566.1</ele>
      </trkpt>
      <trkpt lat="44.34455" lon="6.79754">
        <ele>2565</ele>
      </trkpt>
      <trkpt lat="44.34433" lon="6.79747">
        <ele>2562.5</ele>
      </trkpt>
      <trkpt lat="44.34413" lon="6.79728">
        <ele>2546</ele>
      </trkpt>
      <trkpt lat="44.34409" lon="6.79719">
        <ele>2546</ele>
      </trkpt>
      <trkpt lat="44.34402" lon="6.79689">
        <ele>2546</ele>
      </trkpt>
      <trkpt lat="44.34399" lon="6.79684">
        <ele>2546</ele>
      </trkpt>
      <trkpt lat="44.34394" lon="6.79682">
        <ele>2546</ele>
      </trkpt>
      <trkpt lat="44.3439" lon="6.79683">
        <ele>2546</ele>
      </trkpt>
      <trkpt lat="44.34388" lon="6.79687">
        <ele>2546</ele>
      </trkpt>
      <trkpt lat="44.34385" lon="6.79703">
        <ele>2546</ele>
      </trkpt>
      <trkpt lat="44.34388" lon="6.79715">
        <ele>2546</ele>
      </trkpt>
      <trkpt lat="44.34405" lon="6.79748">
        <ele>2546</ele>
      </trkpt>
      <trkpt lat="44.34406" lon="6.7976">
        <ele>2545.6</ele>
      </trkpt>
      <trkpt lat="44.34388" lon="6.79821">
        <ele>2543.4</ele>
      </trkpt>
      <trkpt lat="44.34381" lon="6.79824">
        <ele>2543.3</ele>
      </trkpt>
      <trkpt lat="44.34377" lon="6.7982">
        <ele>2543.5</ele>
      </trkpt>
      <trkpt lat="44.34375" lon="6.79814">
        <ele>2543.7</ele>
      </trkpt>
      <trkpt lat="44.34374" lon="6.79796">
        <ele>2544.3</ele>
      </trkpt>
      <trkpt lat="44.3437" lon="6.79784">
        <ele>2544.8</ele>
      </trkpt>
      <trkpt lat="44.34342" lon="6.79715">
        <ele>2546</ele>
      </trkpt>
      <trkpt lat="44.34335" lon="6.7969">
        <ele>2546</ele>
      </trkpt>
      <trkpt lat="44.34318" lon="6.79649">
        <ele>2544</ele>
      </trkpt>
      <trkpt lat="44.34304" lon="6.79609">
        <ele>2541.4</ele>
      </trkpt>
      <trkpt lat="44.34296" lon="6.79596">
        <ele>2539.6</ele>
      </trkpt>
      <trkpt lat="44.34274" lon="6.79571">
        <ele>2532.5</ele>
      </trkpt>
      <trkpt lat="44.34264" lon="6.79566">
        <ele>2529.6</ele>
      </trkpt>
      <trkpt lat="44.34251" lon="6.79565">
        <ele>2526.9</ele>
      </trkpt>
      <trkpt lat="44.34248" lon="6.79563">
        <ele>2526</ele>
      </trkpt>
      <trkpt lat="44.34246" lon="6.79557">
        <ele>2524.5</ele>
      </trkpt>
      <trkpt lat="44.34247" lon="6.7955">
        <ele>2523.5</ele>
      </trkpt>
      <trkpt lat="44.34249" lon="6.79543">
        <ele>2522.6</ele>
      </trkpt>
      <trkpt lat="44.34256" lon="6.79539">
        <ele>2523.1</ele>
      </trkpt>
      <trkpt lat="44.34275" lon="6.79531">
        <ele>2524.9</ele>
      </trkpt>
      <trkpt lat="44.34288" lon="6.79521">
        <ele>2525.2</ele>
      </trkpt>
      <trkpt lat="44.34322" lon="6.79475">
        <ele>2519.6</ele>
      </trkpt>
      <trkpt lat="44.34331" lon="6.79467">
        <ele>2518.6</ele>
      </trkpt>
      <trkpt lat="44.3434" lon="6.79465">
        <ele>2518.6</ele>
      </trkpt>
      <trkpt lat="44.34379" lon="6.79468">
        <ele>2520.7</ele>
      </trkpt>
      <trkpt lat="44.34387" lon="6.79467">
        <ele>2520.7</ele>
      </trkpt>
      <trkpt lat="44.34391" lon="6.79462">
        <ele>2519.5</ele>
      </trkpt>
      <trkpt lat="44.34393" lon="6.79456">
        <ele>2518</ele>
      </trkpt>
      <trkpt lat="44.34392" lon="6.79446">
        <ele>2515.4</ele>
      </trkpt>
      <trkpt lat="44.34386" lon="6.79438">
        <ele>2513.1</ele>
      </trkpt>
      <trkpt lat="44.34363" lon="6.79438">
        <ele>2512.1</ele>
      </trkpt>
      <trkpt lat="44.34324" lon="6.7942">
        <ele>2505.1</ele>
      </trkpt>
      <trkpt lat="44.34309" lon="6.79422">
        <ele>2504.3</ele>
      </trkpt>
      <trkpt lat="44.34267" lon="6.79432">
        <ele>2502.8</ele>
      </trkpt>
      <trkpt lat="44.34207" lon="6.7945">
        <ele>2498.6</ele>
      </trkpt>
      <trkpt lat="44.342" lon="6.79453">
        <ele>2498.1</ele>
      </trkpt>
      <trkpt lat="44.34196" lon="6.79456">
        <ele>2498</ele>
      </trkpt>
      <trkpt lat="44.34178" lon="6.79475">
        <ele>2498.2</ele>
      </trkpt>
      <trkpt lat="44.34148" lon="6.79483">
        <ele>2495.3</ele>
      </trkpt>
      <trkpt lat="44.3414" lon="6.79483">
        <ele>2494.4</ele>
      </trkpt>
      <trkpt lat="44.3413" lon="6.79476">
        <ele>2492.3</ele>
      </trkpt>
      <trkpt lat="44.34104" lon="6.79436">
        <ele>2485.4</ele>
      </trkpt>
      <trkpt lat="44.34101" lon="6.79427">
        <ele>2484.3</ele>
      </trkpt>
      <trkpt lat="44.34094" lon="6.79389">
        <ele>2480.1</ele>
      </trkpt>
      <trkpt lat="44.34086" lon="6.79372">
        <ele>2477.9</ele>
      </trkpt>
      <trkpt lat="44.34075" lon="6.79361">
        <ele>2475.8</ele>
      </trkpt>
      <trkpt lat="44.34062" lon="6.79354">
        <ele>2473.9</ele>
      </trkpt>
      <trkpt lat="44.34019" lon="6.79353">
        <ele>2469.5</ele>
      </trkpt>
      <trkpt lat="44.34008" lon="6.79349">
        <ele>2468.1</ele>
      </trkpt>
      <trkpt lat="44.34" lon="6.79343">
        <ele>2466.8</ele>
      </trkpt>
      <trkpt lat="44.33995" lon="6.79334">
        <ele>2465.1</ele>
      </trkpt>
      <trkpt lat="44.33995" lon="6.79325">
        <ele>2463.6</ele>
      </trkpt>
      <trkpt lat="44.33997" lon="6.79311">
        <ele>2461.6</ele>
      </trkpt>
      <trkpt lat="44.34004" lon="6.79296">
        <ele>2460.2</ele>
      </trkpt>
      <trkpt lat="44.34028" lon="6.79257">
        <ele>2457.4</ele>
      </trkpt>
      <trkpt lat="44.34037" lon="6.79242">
        <ele>2456.4</ele>
      </trkpt>
      <trkpt lat="44.34054" lon="6.79207">
        <ele>2453.8</ele>
      </trkpt>
      <trkpt lat="44.34075" lon="6.7917">
        <ele>2453.3</ele>
      </trkpt>
      <trkpt lat="44.34083" lon="6.79135">
        <ele>2452.6</ele>
      </trkpt>
      <trkpt lat="44.34081" lon="6.7908">
        <ele>2448.1</ele>
      </trkpt>
      <trkpt lat="44.34081" lon="6.79076">
        <ele>2447.9</ele>
      </trkpt>
      <trkpt lat="44.34082" lon="6.79043">
        <ele>2446.6</ele>
      </trkpt>
      <trkpt lat="44.34074" lon="6.78995">
        <ele>2440.7</ele>
      </trkpt>
      <trkpt lat="44.34076" lon="6.78977">
        <ele>2438.3</ele>
      </trkpt>
      <trkpt lat="44.34092" lon="6.7893">
        <ele>2433.1</ele>
      </trkpt>
      <trkpt lat="44.34092" lon="6.78921">
        <ele>2431.6</ele>
      </trkpt>
      <trkpt lat="44.3409" lon="6.78914">
        <ele>2430</ele>
      </trkpt>
      <trkpt lat="44.34085" lon="6.78912">
        <ele>2428.9</ele>
      </trkpt>
      <trkpt lat="44.34079" lon="6.78916">
        <ele>2428.5</ele>
      </trkpt>
      <trkpt lat="44.34068" lon="6.78936">
        <ele>2428.5</ele>
      </trkpt>
      <trkpt lat="44.34036" lon="6.79012">
        <ele>2428.3</ele>
      </trkpt>
      <trkpt lat="44.34026" lon="6.79072">
        <ele>2429.5</ele>
      </trkpt>
      <trkpt lat="44.34014" lon="6.79101">
        <ele>2428.9</ele>
      </trkpt>
      <trkpt lat="44.34001" lon="6.79126">
        <ele>2428.4</ele>
      </trkpt>
      <trkpt lat="44.33992" lon="6.7914">
        <ele>2428.1</ele>
      </trkpt>
      <trkpt lat="44.33982" lon="6.79149">
        <ele>2427</ele>
      </trkpt>
      <trkpt lat="44.33974" lon="6.79152">
        <ele>2425.5</ele>
      </trkpt>
      <trkpt lat="44.33883" lon="6.7917">
        <ele>2409.5</ele>
      </trkpt>
      <trkpt lat="44.33832" lon="6.79198">
        <ele>2408.9</ele>
      </trkpt>
      <trkpt lat="44.33826" lon="6.792">
        <ele>2410.9</ele>
      </trkpt>
      <trkpt lat="44.33813" lon="6.79198">
        <ele>2413.8</ele>
      </trkpt>
      <trkpt lat="44.33804" lon="6.79193">
        <ele>2415</ele>
      </trkpt>
      <trkpt lat="44.33796" lon="6.79183">
        <ele>2414.9</ele>
      </trkpt>
      <trkpt lat="44.33792" lon="6.79167">
        <ele>2412.5</ele>
      </trkpt>
      <trkpt lat="44.33788" lon="6.79106">
        <ele>2403.7</ele>
      </trkpt>
      <trkpt lat="44.33783" lon="6.7906">
        <ele>2399.3</ele>
      </trkpt>
      <trkpt lat="44.33784" lon="6.79031">
        <ele>2396.6</ele>
      </trkpt>
      <trkpt lat="44.33784" lon="6.78999">
        <ele>2394</ele>
      </trkpt>
      <trkpt lat="44.3378" lon="6.78961">
        <ele>2392.8</ele>
      </trkpt>
      <trkpt lat="44.33769" lon="6.78915">
        <ele>2392.3</ele>
      </trkpt>
      <trkpt lat="44.33765" lon="6.78893">
        <ele>2392.7</ele>
      </trkpt>
      <trkpt lat="44.33766" lon="6.78868">
        <ele>2392</ele>
      </trkpt>
      <trkpt lat="44.33773" lon="6.78834">
        <ele>2390.1</ele>
      </trkpt>
      <trkpt lat="44.33771" lon="6.78819">
        <ele>2389.9</ele>
      </trkpt>
      <trkpt lat="44.33766" lon="6.78802">
        <ele>2390.1</ele>
      </trkpt>
      <trkpt lat="44.33757" lon="6.78786">
        <ele>2391.1</ele>
      </trkpt>
      <trkpt lat="44.33754" lon="6.78768">
        <ele>2390.9</ele>
      </trkpt>
      <trkpt lat="44.33754" lon="6.78753">
        <ele>2390.4</ele>
      </trkpt>
      <trkpt lat="44.33761" lon="6.78732">
        <ele>2388.7</ele>
      </trkpt>
      <trkpt lat="44.33772" lon="6.78712">
        <ele>2386.2</ele>
      </trkpt>
      <trkpt lat="44.33839" lon="6.78618">
        <ele>2371.3</ele>
      </trkpt>
      <trkpt lat="44.33843" lon="6.78604">
        <ele>2370.8</ele>
      </trkpt>
      <trkpt lat="44.33843" lon="6.78589">
        <ele>2370.8</ele>
      </trkpt>
      <trkpt lat="44.33839" lon="6.78564">
        <ele>2371.1</ele>
      </trkpt>
      <trkpt lat="44.3384" lon="6.78538">
        <ele>2370.7</ele>
      </trkpt>
      <trkpt lat="44.33847" lon="6.78512">
        <ele>2369.5</ele>
      </trkpt>
      <trkpt lat="44.33846" lon="6.78498">
        <ele>2369.5</ele>
      </trkpt>
      <trkpt lat="44.33841" lon="6.78486">
        <ele>2369.9</ele>
      </trkpt>
      <trkpt lat="44.33831" lon="6.78477">
        <ele>2371.1</ele>
      </trkpt>
      <trkpt lat="44.33817" lon="6.78473">
        <ele>2373.4</ele>
      </trkpt>
      <trkpt lat="44.33807" lon="6.78464">
        <ele>2374.8</ele>
      </trkpt>
      <trkpt lat="44.33804" lon="6.78457">
        <ele>2375</ele>
      </trkpt>
      <trkpt lat="44.33801" lon="6.78442">
        <ele>2375</ele>
      </trkpt>
      <trkpt lat="44.33803" lon="6.78433">
        <ele>2374.5</ele>
      </trkpt>
      <trkpt lat="44.33811" lon="6.78427">
        <ele>2373.2</ele>
      </trkpt>
      <trkpt lat="44.33841" lon="6.78416">
        <ele>2369.1</ele>
      </trkpt>
      <trkpt lat="44.33853" lon="6.78406">
        <ele>2367.7</ele>
      </trkpt>
      <trkpt lat="44.33861" lon="6.78395">
        <ele>2366.9</ele>
      </trkpt>
      <trkpt lat="44.33902" lon="6.78304">
        <ele>2365</ele>
      </trkpt>
      <trkpt lat="44.33913" lon="6.78291">
        <ele>2365</ele>
      </trkpt>
      <trkpt lat="44.33949" lon="6.78259">
        <ele>2362.8</ele>
      </trkpt>
      <trkpt lat="44.33964" lon="6.7825">
        <ele>2361</ele>
      </trkpt>
      <trkpt lat="44.33973" lon="6.78251">
        <ele>2359.5</ele>
      </trkpt>
      <trkpt lat="44.3399" lon="6.78256">
        <ele>2356.3</ele>
      </trkpt>
      <trkpt lat="44.34013" lon="6.78268">
        <ele>2352.4</ele>
      </trkpt>
      <trkpt lat="44.34028" lon="6.78271">
        <ele>2350.4</ele>
      </trkpt>
      <trkpt lat="44.34112" lon="6.78256">
        <ele>2342.3</ele>
      </trkpt>
      <trkpt lat="44.34137" lon="6.78244">
        <ele>2341.6</ele>
      </trkpt>
      <trkpt lat="44.34188" lon="6.78219">
        <ele>2343.3</ele>
      </trkpt>
      <trkpt lat="44.34203" lon="6.78215">
        <ele>2343.4</ele>
      </trkpt>
      <trkpt lat="44.3426" lon="6.78222">
        <ele>2340.3</ele>
      </trkpt>
      <trkpt lat="44.34278" lon="6.78232">
        <ele>2340.4</ele>
      </trkpt>
      <trkpt lat="44.34315" lon="6.78301">
        <ele>2337</ele>
      </trkpt>
      <trkpt lat="44.34319" lon="6.78313">
        <ele>2336.1</ele>
      </trkpt>
      <trkpt lat="44.3432" lon="6.78325">
        <ele>2334.8</ele>
      </trkpt>
      <trkpt lat="44.34317" lon="6.78346">
        <ele>2332.7</ele>
      </trkpt>
      <trkpt lat="44.34312" lon="6.78376">
        <ele>2330</ele>
      </trkpt>
      <trkpt lat="44.34309" lon="6.78391">
        <ele>2328.7</ele>
      </trkpt>
      <trkpt lat="44.34308" lon="6.78418">
        <ele>2326.6</ele>
      </trkpt>
      <trkpt lat="44.34311" lon="6.78429">
        <ele>2325.6</ele>
      </trkpt>
      <trkpt lat="44.34317" lon="6.78439">
        <ele>2324.6</ele>
      </trkpt>
      <trkpt lat="44.3433" lon="6.78452">
        <ele>2323.3</ele>
      </trkpt>
      <trkpt lat="44.34346" lon="6.78462">
        <ele>2320.8</ele>
      </trkpt>
      <trkpt lat="44.34359" lon="6.78464">
        <ele>2319.3</ele>
      </trkpt>
      <trkpt lat="44.34376" lon="6.78461">
        <ele>2318.2</ele>
      </trkpt>
      <trkpt lat="44.34404" lon="6.78449">
        <ele>2317.8</ele>
      </trkpt>
      <trkpt lat="44.34419" lon="6.78446">
        <ele>2317.1</ele>
      </trkpt>
      <trkpt lat="44.34455" lon="6.78451">
        <ele>2312.9</ele>
      </trkpt>
      <trkpt lat="44.34478" lon="6.78452">
        <ele>2310.6</ele>
      </trkpt>
      <trkpt lat="44.34488" lon="6.78456">
        <ele>2309.3</ele>
      </trkpt>
      <trkpt lat="44.34494" lon="6.78465">
        <ele>2307.8</ele>
      </trkpt>
      <trkpt lat="44.34497" lon="6.78481">
        <ele>2306</ele>
      </trkpt>
      <trkpt lat="44.34492" lon="6.78532">
        <ele>2300.5</ele>
      </trkpt>
      <trkpt lat="44.34495" lon="6.78554">
        <ele>2297.8</ele>
      </trkpt>
      <trkpt lat="44.34504" lon="6.78564">
        <ele>2296.5</ele>
      </trkpt>
      <trkpt lat="44.34526" lon="6.78581">
        <ele>2294.9</ele>
      </trkpt>
      <trkpt lat="44.34567" lon="6.78632">
        <ele>2291.9</ele>
      </trkpt>
      <trkpt lat="44.34582" lon="6.78646">
        <ele>2290.7</ele>
      </trkpt>
      <trkpt lat="44.34607" lon="6.78663">
        <ele>2288.9</ele>
      </trkpt>
      <trkpt lat="44.34678" lon="6.78708">
        <ele>2283</ele>
      </trkpt>
      <trkpt lat="44.34695" lon="6.78712">
        <ele>2281.2</ele>
      </trkpt>
      <trkpt lat="44.34709" lon="6.7871">
        <ele>2280.1</ele>
      </trkpt>
      <trkpt lat="44.34723" lon="6.78703">
        <ele>2279.2</ele>
      </trkpt>
      <trkpt lat="44.34757" lon="6.78668">
        <ele>2277.4</ele>
      </trkpt>
      <trkpt lat="44.34817" lon="6.786">
        <ele>2267.4</ele>
      </trkpt>
      <trkpt lat="44.34833" lon="6.78579">
        <ele>2264.2</ele>
      </trkpt>
      <trkpt lat="44.34836" lon="6.78568">
        <ele>2262.1</ele>
      </trkpt>
      <trkpt lat="44.34836" lon="6.7856">
        <ele>2260.7</ele>
      </trkpt>
      <trkpt lat="44.34833" lon="6.78552">
        <ele>2259.4</ele>
      </trkpt>
      <trkpt lat="44.34828" lon="6.78549">
        <ele>2259.5</ele>
      </trkpt>
      <trkpt lat="44.34817" lon="6.7855">
        <ele>2261</ele>
      </trkpt>
      <trkpt lat="44.34789" lon="6.7856">
        <ele>2265.4</ele>
      </trkpt>
      <trkpt lat="44.34779" lon="6.78558">
        <ele>2266.3</ele>
      </trkpt>
      <trkpt lat="44.34773" lon="6.78549">
        <ele>2266.3</ele>
      </trkpt>
      <trkpt lat="44.3477" lon="6.78532">
        <ele>2265.6</ele>
      </trkpt>
      <trkpt lat="44.34773" lon="6.78518">
        <ele>2264.2</ele>
      </trkpt>
      <trkpt lat="44.34808" lon="6.78468">
        <ele>2252.3</ele>
      </trkpt>
      <trkpt lat="44.34812" lon="6.78453">
        <ele>2249.3</ele>
      </trkpt>
      <trkpt lat="44.34813" lon="6.78427">
        <ele>2246</ele>
      </trkpt>
      <trkpt lat="44.34817" lon="6.78421">
        <ele>2243.4</ele>
      </trkpt>
      <trkpt lat="44.34823" lon="6.78421">
        <ele>2240.6</ele>
      </trkpt>
      <trkpt lat="44.34827" lon="6.78425">
        <ele>2239.4</ele>
      </trkpt>
      <trkpt lat="44.34833" lon="6.78454">
        <ele>2241.8</ele>
      </trkpt>
      <trkpt lat="44.34839" lon="6.78469">
        <ele>2243.4</ele>
      </trkpt>
      <trkpt lat="44.34847" lon="6.78483">
        <ele>2244.7</ele>
      </trkpt>
      <trkpt lat="44.34865" lon="6.7849">
        <ele>2243.2</ele>
      </trkpt>
      <trkpt lat="44.34911" lon="6.7849">
        <ele>2236</ele>
      </trkpt>
      <trkpt lat="44.34925" lon="6.78493">
        <ele>2233.8</ele>
      </trkpt>
      <trkpt lat="44.3498" lon="6.78534">
        <ele>2228</ele>
      </trkpt>
      <trkpt lat="44.34985" lon="6.78533">
        <ele>2226.2</ele>
      </trkpt>
      <trkpt lat="44.34987" lon="6.78528">
        <ele>2224.5</ele>
      </trkpt>
      <trkpt lat="44.34987" lon="6.7852">
        <ele>2222.8</ele>
      </trkpt>
      <trkpt lat="44.34982" lon="6.78514">
        <ele>2223</ele>
      </trkpt>
      <trkpt lat="44.34915" lon="6.78453">
        <ele>2224.8</ele>
      </trkpt>
      <trkpt lat="44.34878" lon="6.78404">
        <ele>2221.5</ele>
      </trkpt>
      <trkpt lat="44.34868" lon="6.78389">
        <ele>2221.2</ele>
      </trkpt>
      <trkpt lat="44.34865" lon="6.78378">
        <ele>2219.8</ele>
      </trkpt>
      <trkpt lat="44.34868" lon="6.78361">
        <ele>2216</ele>
      </trkpt>
      <trkpt lat="44.34877" lon="6.78357">
        <ele>2213.3</ele>
      </trkpt>
      <trkpt lat="44.3496" lon="6.78354">
        <ele>2197.2</ele>
      </trkpt>
      <trkpt lat="44.34999" lon="6.78345">
        <ele>2189.7</ele>
      </trkpt>
      <trkpt lat="44.35011" lon="6.78345">
        <ele>2187.4</ele>
      </trkpt>
      <trkpt lat="44.35023" lon="6.78352">
        <ele>2185.9</ele>
      </trkpt>
      <trkpt lat="44.35035" lon="6.78369">
        <ele>2185.6</ele>
      </trkpt>
      <trkpt lat="44.35044" lon="6.7839">
        <ele>2186.3</ele>
      </trkpt>
      <trkpt lat="44.35051" lon="6.78413">
        <ele>2187.6</ele>
      </trkpt>
      <trkpt lat="44.35055" lon="6.78441">
        <ele>2190.4</ele>
      </trkpt>
      <trkpt lat="44.35062" lon="6.78453">
        <ele>2190.3</ele>
      </trkpt>
      <trkpt lat="44.35112" lon="6.78489">
        <ele>2182.5</ele>
      </trkpt>
      <trkpt lat="44.35155" lon="6.78511">
        <ele>2174</ele>
      </trkpt>
      <trkpt lat="44.35156" lon="6.78511">
        <ele>2173.8</ele>
      </trkpt>
      <trkpt lat="44.35163" lon="6.7851">
        <ele>2172.1</ele>
      </trkpt>
      <trkpt lat="44.3517" lon="6.78504">
        <ele>2170.5</ele>
      </trkpt>
      <trkpt lat="44.35173" lon="6.78496">
        <ele>2169.6</ele>
      </trkpt>
      <trkpt lat="44.35173" lon="6.78487">
        <ele>2169.1</ele>
      </trkpt>
      <trkpt lat="44.35168" lon="6.78475">
        <ele>2169.3</ele>
      </trkpt>
      <trkpt lat="44.35144" lon="6.78458">
        <ele>2173.1</ele>
      </trkpt>
      <trkpt lat="44.3514" lon="6.78444">
        <ele>2172.9</ele>
      </trkpt>
      <trkpt lat="44.35141" lon="6.78431">
        <ele>2171.7</ele>
      </trkpt>
      <trkpt lat="44.35152" lon="6.78399">
        <ele>2167.1</ele>
      </trkpt>
      <trkpt lat="44.35152" lon="6.78336">
        <ele>2161.5</ele>
      </trkpt>
      <trkpt lat="44.35154" lon="6.78302">
        <ele>2162.1</ele>
      </trkpt>
      <trkpt lat="44.35158" lon="6.78285">
        <ele>2162.1</ele>
      </trkpt>
      <trkpt lat="44.35162" lon="6.78277">
        <ele>2161.8</ele>
      </trkpt>
      <trkpt lat="44.35169" lon="6.78269">
        <ele>2161</ele>
      </trkpt>
      <trkpt lat="44.35183" lon="6.78265">
        <ele>2159.1</ele>
      </trkpt>
      <trkpt lat="44.35191" lon="6.78266">
        <ele>2158</ele>
      </trkpt>
      <trkpt lat="44.35198" lon="6.78268">
        <ele>2156.9</ele>
      </trkpt>
      <trkpt lat="44.35219" lon="6.78282">
        <ele>2153.6</ele>
      </trkpt>
      <trkpt lat="44.35261" lon="6.78317">
        <ele>2147.2</ele>
      </trkpt>
      <trkpt lat="44.35309" lon="6.78353">
        <ele>2141.5</ele>
      </trkpt>
      <trkpt lat="44.35348" lon="6.7836">
        <ele>2136</ele>
      </trkpt>
      <trkpt lat="44.35373" lon="6.78353">
        <ele>2132.9</ele>
      </trkpt>
      <trkpt lat="44.35408" lon="6.78337">
        <ele>2129.7</ele>
      </trkpt>
      <trkpt lat="44.35431" lon="6.78334">
        <ele>2126.4</ele>
      </trkpt>
      <trkpt lat="44.35449" lon="6.78327">
        <ele>2124.3</ele>
      </trkpt>
      <trkpt lat="44.35496" lon="6.78273">
        <ele>2125.6</ele>
      </trkpt>
      <trkpt lat="44.35513" lon="6.78263">
        <ele>2125.3</ele>
      </trkpt>
      <trkpt lat="44.35536" lon="6.78256">
        <ele>2124.1</ele>
      </trkpt>
      <trkpt lat="44.35552" lon="6.78256">
        <ele>2122.3</ele>
      </trkpt>
      <trkpt lat="44.35569" lon="6.78258">
        <ele>2120.2</ele>
      </trkpt>
      <trkpt lat="44.35605" lon="6.78269">
        <ele>2116.6</ele>
      </trkpt>
      <trkpt lat="44.35681" lon="6.78328">
        <ele>2102.6</ele>
      </trkpt>
      <trkpt lat="44.35706" lon="6.78339">
        <ele>2100.4</ele>
      </trkpt>
      <trkpt lat="44.35793" lon="6.78362">
        <ele>2093</ele>
      </trkpt>
      <trkpt lat="44.35811" lon="6.78358">
        <ele>2090.9</ele>
      </trkpt>
      <trkpt lat="44.35829" lon="6.78347">
        <ele>2089</ele>
      </trkpt>
      <trkpt lat="44.35859" lon="6.78307">
        <ele>2093.7</ele>
      </trkpt>
      <trkpt lat="44.35874" lon="6.78297">
        <ele>2095.4</ele>
      </trkpt>
      <trkpt lat="44.35876" lon="6.78297">
        <ele>2095.5</ele>
      </trkpt>
      <trkpt lat="44.35888" lon="6.783">
        <ele>2095.1</ele>
      </trkpt>
      <trkpt lat="44.35899" lon="6.78311">
        <ele>2093.7</ele>
      </trkpt>
      <trkpt lat="44.35954" lon="6.7838">
        <ele>2087.1</ele>
      </trkpt>
      <trkpt lat="44.36001" lon="6.78445">
        <ele>2082.1</ele>
      </trkpt>
      <trkpt lat="44.36011" lon="6.78464">
        <ele>2081.8</ele>
      </trkpt>
      <trkpt lat="44.36018" lon="6.78488">
        <ele>2079.8</ele>
      </trkpt>
      <trkpt lat="44.36022" lon="6.78509">
        <ele>2079</ele>
      </trkpt>
      <trkpt lat="44.36027" lon="6.78543">
        <ele>2080.2</ele>
      </trkpt>
      <trkpt lat="44.36031" lon="6.78552">
        <ele>2080.2</ele>
      </trkpt>
      <trkpt lat="44.36059" lon="6.78563">
        <ele>2078.1</ele>
      </trkpt>
      <trkpt lat="44.36082" lon="6.7859">
        <ele>2073.6</ele>
      </trkpt>
      <trkpt lat="44.36103" lon="6.78608">
        <ele>2074.8</ele>
      </trkpt>
      <trkpt lat="44.36111" lon="6.7862">
        <ele>2074.4</ele>
      </trkpt>
      <trkpt lat="44.36114" lon="6.78633">
        <ele>2073.6</ele>
      </trkpt>
      <trkpt lat="44.36117" lon="6.78662">
        <ele>2071.4</ele>
      </trkpt>
      <trkpt lat="44.36126" lon="6.78684">
        <ele>2070.3</ele>
      </trkpt>
      <trkpt lat="44.36145" lon="6.78711">
        <ele>2065.3</ele>
      </trkpt>
      <trkpt lat="44.36164" lon="6.78732">
        <ele>2057.4</ele>
      </trkpt>
      <trkpt lat="44.36186" lon="6.78751">
        <ele>2054.5</ele>
      </trkpt>
      <trkpt lat="44.36198" lon="6.78757">
        <ele>2055</ele>
      </trkpt>
      <trkpt lat="44.36265" lon="6.78779">
        <ele>2054.3</ele>
      </trkpt>
      <trkpt lat="44.36278" lon="6.78785">
        <ele>2054.5</ele>
      </trkpt>
      <trkpt lat="44.3632" lon="6.78812">
        <ele>2058.2</ele>
      </trkpt>
      <trkpt lat="44.36334" lon="6.78818">
        <ele>2059.5</ele>
      </trkpt>
      <trkpt lat="44.36376" lon="6.78802">
        <ele>2052.8</ele>
      </trkpt>
      <trkpt lat="44.36384" lon="6.78803">
        <ele>2052.5</ele>
      </trkpt>
      <trkpt lat="44.36398" lon="6.7881">
        <ele>2054.2</ele>
      </trkpt>
      <trkpt lat="44.36407" lon="6.78811">
        <ele>2054.1</ele>
      </trkpt>
      <trkpt lat="44.36444" lon="6.78795">
        <ele>2040.7</ele>
      </trkpt>
      <trkpt lat="44.36454" lon="6.78794">
        <ele>2038.1</ele>
      </trkpt>
      <trkpt lat="44.36464" lon="6.78797">
        <ele>2037</ele>
      </trkpt>
      <trkpt lat="44.36482" lon="6.78811">
        <ele>2037.8</ele>
      </trkpt>
      <trkpt lat="44.36497" lon="6.78834">
        <ele>2042.1</ele>
      </trkpt>
      <trkpt lat="44.36508" lon="6.78845">
        <ele>2044.3</ele>
      </trkpt>
      <trkpt lat="44.36526" lon="6.78855">
        <ele>2045</ele>
      </trkpt>
      <trkpt lat="44.36546" lon="6.78861">
        <ele>2043.7</ele>
      </trkpt>
      <trkpt lat="44.36583" lon="6.78863">
        <ele>2037.4</ele>
      </trkpt>
      <trkpt lat="44.36603" lon="6.7887">
        <ele>2040.1</ele>
      </trkpt>
      <trkpt lat="44.36619" lon="6.78867">
        <ele>2038.1</ele>
      </trkpt>
      <trkpt lat="44.36632" lon="6.78861">
        <ele>2035.1</ele>
      </trkpt>
      <trkpt lat="44.36645" lon="6.78851">
        <ele>2031</ele>
      </trkpt>
      <trkpt lat="44.36677" lon="6.78839">
        <ele>2027.9</ele>
      </trkpt>
      <trkpt lat="44.36688" lon="6.7883">
        <ele>2026.2</ele>
      </trkpt>
      <trkpt lat="44.36704" lon="6.78802">
        <ele>2020.6</ele>
      </trkpt>
      <trkpt lat="44.36736" lon="6.78764">
        <ele>2014.7</ele>
      </trkpt>
      <trkpt lat="44.36745" lon="6.78758">
        <ele>2014.3</ele>
      </trkpt>
      <trkpt lat="44.36776" lon="6.78742">
        <ele>2013.2</ele>
      </trkpt>
      <trkpt lat="44.36789" lon="6.7873">
        <ele>2010.7</ele>
      </trkpt>
      <trkpt lat="44.36804" lon="6.78721">
        <ele>2009.4</ele>
      </trkpt>
      <trkpt lat="44.36846" lon="6.78705">
        <ele>2008.2</ele>
      </trkpt>
      <trkpt lat="44.36875" lon="6.78699">
        <ele>2008.2</ele>
      </trkpt>
      <trkpt lat="44.3688" lon="6.7869">
        <ele>2005.9</ele>
      </trkpt>
      <trkpt lat="44.36878" lon="6.78682">
        <ele>2003.3</ele>
      </trkpt>
      <trkpt lat="44.36874" lon="6.7868">
        <ele>2002.4</ele>
      </trkpt>
      <trkpt lat="44.36822" lon="6.78681">
        <ele>1998.4</ele>
      </trkpt>
      <trkpt lat="44.36772" lon="6.78675">
        <ele>1991.1</ele>
      </trkpt>
      <trkpt lat="44.36757" lon="6.78679">
        <ele>1990.8</ele>
      </trkpt>
      <trkpt lat="44.3674" lon="6.78688">
        <ele>1992.3</ele>
      </trkpt>
      <trkpt lat="44.36731" lon="6.78689">
        <ele>1992.1</ele>
      </trkpt>
      <trkpt lat="44.36724" lon="6.78688">
        <ele>1991.4</ele>
      </trkpt>
      <trkpt lat="44.367" lon="6.78675">
        <ele>1986.5</ele>
      </trkpt>
      <trkpt lat="44.36689" lon="6.78672">
        <ele>1985.2</ele>
      </trkpt>
      <trkpt lat="44.36675" lon="6.78673">
        <ele>1984.9</ele>
      </trkpt>
      <trkpt lat="44.36657" lon="6.78683">
        <ele>1985.9</ele>
      </trkpt>
      <trkpt lat="44.36649" lon="6.78679">
        <ele>1984.1</ele>
      </trkpt>
      <trkpt lat="44.36648" lon="6.78667">
        <ele>1981.1</ele>
      </trkpt>
      <trkpt lat="44.36652" lon="6.78661">
        <ele>1980.5</ele>
      </trkpt>
      <trkpt lat="44.36657" lon="6.78656">
        <ele>1980.1</ele>
      </trkpt>
      <trkpt lat="44.36675" lon="6.78648">
        <ele>1980.1</ele>
      </trkpt>
      <trkpt lat="44.3672" lon="6.7864">
        <ele>1979.6</ele>
      </trkpt>
      <trkpt lat="44.36743" lon="6.7863">
        <ele>1978</ele>
      </trkpt>
      <trkpt lat="44.36787" lon="6.78601">
        <ele>1972.3</ele>
      </trkpt>
      <trkpt lat="44.3682" lon="6.78592">
        <ele>1969.9</ele>
      </trkpt>
      <trkpt lat="44.36842" lon="6.78568">
        <ele>1964.1</ele>
      </trkpt>
      <trkpt lat="44.36871" lon="6.78543">
        <ele>1960.5</ele>
      </trkpt>
      <trkpt lat="44.36901" lon="6.78535">
        <ele>1960.9</ele>
      </trkpt>
      <trkpt lat="44.36912" lon="6.78529">
        <ele>1960.3</ele>
      </trkpt>
      <trkpt lat="44.3692" lon="6.78519">
        <ele>1958.8</ele>
      </trkpt>
      <trkpt lat="44.36925" lon="6.78509">
        <ele>1957.3</ele>
      </trkpt>
      <trkpt lat="44.36931" lon="6.78485">
        <ele>1953.4</ele>
      </trkpt>
      <trkpt lat="44.36957" lon="6.78462">
        <ele>1952.5</ele>
      </trkpt>
      <trkpt lat="44.37003" lon="6.78415">
        <ele>1948.4</ele>
      </trkpt>
      <trkpt lat="44.37016" lon="6.78396">
        <ele>1947.8</ele>
      </trkpt>
      <trkpt lat="44.37034" lon="6.78356">
        <ele>1943.2</ele>
      </trkpt>
      <trkpt lat="44.37058" lon="6.7831">
        <ele>1937.7</ele>
      </trkpt>
      <trkpt lat="44.37088" lon="6.78271">
        <ele>1930.7</ele>
      </trkpt>
      <trkpt lat="44.37134" lon="6.78237">
        <ele>1926.5</ele>
      </trkpt>
      <trkpt lat="44.37153" lon="6.78225">
        <ele>1924.8</ele>
      </trkpt>
      <trkpt lat="44.37173" lon="6.78218">
        <ele>1923.1</ele>
      </trkpt>
      <trkpt lat="44.3721" lon="6.78214">
        <ele>1920.9</ele>
      </trkpt>
      <trkpt lat="44.37228" lon="6.78204">
        <ele>1917</ele>
      </trkpt>
      <trkpt lat="44.3727" lon="6.78192">
        <ele>1906.1</ele>
      </trkpt>
      <trkpt lat="44.37285" lon="6.78193">
        <ele>1902.1</ele>
      </trkpt>
      <trkpt lat="44.37303" lon="6.78202">
        <ele>1900</ele>
      </trkpt>
      <trkpt lat="44.3734" lon="6.78238">
        <ele>1902.6</ele>
      </trkpt>
      <trkpt lat="44.37362" lon="6.78249">
        <ele>1902.5</ele>
      </trkpt>
      <trkpt lat="44.37391" lon="6.78255">
        <ele>1900.4</ele>
      </trkpt>
      <trkpt lat="44.37441" lon="6.78256">
        <ele>1895.1</ele>
      </trkpt>
      <trkpt lat="44.37492" lon="6.78255">
        <ele>1891.8</ele>
      </trkpt>
      <trkpt lat="44.3751" lon="6.78249">
        <ele>1889.2</ele>
      </trkpt>
      <trkpt lat="44.37536" lon="6.78233">
        <ele>1886</ele>
      </trkpt>
      <trkpt lat="44.37557" lon="6.78224">
        <ele>1884.7</ele>
      </trkpt>
      <trkpt lat="44.37587" lon="6.78217">
        <ele>1885.1</ele>
      </trkpt>
      <trkpt lat="44.37609" lon="6.78204">
        <ele>1886.1</ele>
      </trkpt>
      <trkpt lat="44.37627" lon="6.78186">
        <ele>1884</ele>
      </trkpt>
      <trkpt lat="44.37651" lon="6.78154">
        <ele>1876.8</ele>
      </trkpt>
      <trkpt lat="44.37675" lon="6.78133">
        <ele>1869.9</ele>
      </trkpt>
      <trkpt lat="44.37686" lon="6.78126">
        <ele>1865.9</ele>
      </trkpt>
      <trkpt lat="44.37698" lon="6.78118">
        <ele>1861.2</ele>
      </trkpt>
      <trkpt lat="44.37719" lon="6.78114">
        <ele>1857.1</ele>
      </trkpt>
      <trkpt lat="44.3774" lon="6.78115">
        <ele>1855.1</ele>
      </trkpt>
      <trkpt lat="44.37758" lon="6.78122">
        <ele>1855.4</ele>
      </trkpt>
      <trkpt lat="44.37798" lon="6.78164">
        <ele>1862.7</ele>
      </trkpt>
      <trkpt lat="44.37822" lon="6.78178">
        <ele>1860.1</ele>
      </trkpt>
      <trkpt lat="44.37853" lon="6.78186">
        <ele>1856.7</ele>
      </trkpt>
      <trkpt lat="44.37964" lon="6.78196">
        <ele>1849.8</ele>
      </trkpt>
      <trkpt lat="44.3799" lon="6.78191">
        <ele>1845.9</ele>
      </trkpt>
      <trkpt lat="44.38039" lon="6.78173">
        <ele>1838.2</ele>
      </trkpt>
      <trkpt lat="44.38076" lon="6.78154">
        <ele>1833.9</ele>
      </trkpt>
      <trkpt lat="44.38096" lon="6.78149">
        <ele>1832.4</ele>
      </trkpt>
      <trkpt lat="44.38157" lon="6.78158">
        <ele>1832.1</ele>
      </trkpt>
      <trkpt lat="44.38178" lon="6.78154">
        <ele>1829.2</ele>
      </trkpt>
      <trkpt lat="44.38184" lon="6.78151">
        <ele>1827.6</ele>
      </trkpt>
      <trkpt lat="44.38186" lon="6.78144">
        <ele>1825.5</ele>
      </trkpt>
      <trkpt lat="44.38186" lon="6.78138">
        <ele>1823.9</ele>
      </trkpt>
      <trkpt lat="44.38181" lon="6.7813">
        <ele>1822.4</ele>
      </trkpt>
      <trkpt lat="44.38152" lon="6.78125">
        <ele>1823.8</ele>
      </trkpt>
      <trkpt lat="44.38146" lon="6.7812">
        <ele>1822.8</ele>
      </trkpt>
      <trkpt lat="44.38125" lon="6.78096">
        <ele>1818.1</ele>
      </trkpt>
      <trkpt lat="44.38108" lon="6.78081">
        <ele>1815.7</ele>
      </trkpt>
      <trkpt lat="44.38095" lon="6.78075">
        <ele>1815.3</ele>
      </trkpt>
      <trkpt lat="44.3808" lon="6.78075">
        <ele>1816.1</ele>
      </trkpt>
      <trkpt lat="44.38067" lon="6.78078">
        <ele>1816.1</ele>
      </trkpt>
      <trkpt lat="44.38061" lon="6.78074">
        <ele>1815</ele>
      </trkpt>
      <trkpt lat="44.3806" lon="6.78068">
        <ele>1813.7</ele>
      </trkpt>
      <trkpt lat="44.3806" lon="6.78066">
        <ele>1813.3</ele>
      </trkpt>
      <trkpt lat="44.38061" lon="6.78059">
        <ele>1811.9</ele>
      </trkpt>
      <trkpt lat="44.38066" lon="6.78054">
        <ele>1811.1</ele>
      </trkpt>
      <trkpt lat="44.38088" lon="6.78053">
        <ele>1811.1</ele>
      </trkpt>
      <trkpt lat="44.38118" lon="6.78035">
        <ele>1804.3</ele>
      </trkpt>
      <trkpt lat="44.38132" lon="6.78035">
        <ele>1803</ele>
      </trkpt>
      <trkpt lat="44.38148" lon="6.78044">
        <ele>1803.7</ele>
      </trkpt>
      <trkpt lat="44.38158" lon="6.78046">
        <ele>1803.4</ele>
      </trkpt>
      <trkpt lat="44.38173" lon="6.78042">
        <ele>1801.2</ele>
      </trkpt>
      <trkpt lat="44.38189" lon="6.78034">
        <ele>1798.4</ele>
      </trkpt>
      <trkpt lat="44.38207" lon="6.7803">
        <ele>1796.6</ele>
      </trkpt>
      <trkpt lat="44.38232" lon="6.78028">
        <ele>1795.2</ele>
      </trkpt>
      <trkpt lat="44.38252" lon="6.78028">
        <ele>1794.2</ele>
      </trkpt>
      <trkpt lat="44.38261" lon="6.78033">
        <ele>1794.4</ele>
      </trkpt>
      <trkpt lat="44.38273" lon="6.78053">
        <ele>1796.9</ele>
      </trkpt>
      <trkpt lat="44.38285" lon="6.7806">
        <ele>1797.9</ele>
      </trkpt>
      <trkpt lat="44.38298" lon="6.78057">
        <ele>1797.2</ele>
      </trkpt>
      <trkpt lat="44.3832" lon="6.78043">
        <ele>1793.8</ele>
      </trkpt>
      <trkpt lat="44.38335" lon="6.78041">
        <ele>1792.8</ele>
      </trkpt>
      <trkpt lat="44.38355" lon="6.78048">
        <ele>1794.2</ele>
      </trkpt>
      <trkpt lat="44.38362" lon="6.78053">
        <ele>1795.4</ele>
      </trkpt>
      <trkpt lat="44.38369" lon="6.78052">
        <ele>1795.1</ele>
      </trkpt>
      <trkpt lat="44.38377" lon="6.78046">
        <ele>1793.4</ele>
      </trkpt>
      <trkpt lat="44.38393" lon="6.78028">
        <ele>1788.1</ele>
      </trkpt>
      <trkpt lat="44.38456" lon="6.77991">
        <ele>1778.1</ele>
      </trkpt>
      <trkpt lat="44.38464" lon="6.77989">
        <ele>1777.9</ele>
      </trkpt>
      <trkpt lat="44.38468" lon="6.77988">
        <ele>1777.8</ele>
      </trkpt>
      <trkpt lat="44.38477" lon="6.77994">
        <ele>1778.8</ele>
      </trkpt>
      <trkpt lat="44.38494" lon="6.78025">
        <ele>1785.5</ele>
      </trkpt>
      <trkpt lat="44.38501" lon="6.78035">
        <ele>1787.3</ele>
      </trkpt>
      <trkpt lat="44.38512" lon="6.7804">
        <ele>1786.2</ele>
      </trkpt>
      <trkpt lat="44.38562" lon="6.78044">
        <ele>1777.7</ele>
      </trkpt>
      <trkpt lat="44.38604" lon="6.78038">
        <ele>1764.2</ele>
      </trkpt>
      <trkpt lat="44.38622" lon="6.78052">
        <ele>1765.8</ele>
      </trkpt>
      <trkpt lat="44.38645" lon="6.78061">
        <ele>1763.5</ele>
      </trkpt>
      <trkpt lat="44.38681" lon="6.781">
        <ele>1774.9</ele>
      </trkpt>
      <trkpt lat="44.38694" lon="6.78102">
        <ele>1773.1</ele>
      </trkpt>
      <trkpt lat="44.38709" lon="6.78101">
        <ele>1769.3</ele>
      </trkpt>
      <trkpt lat="44.38723" lon="6.78089">
        <ele>1760.3</ele>
      </trkpt>
      <trkpt lat="44.38737" lon="6.78081">
        <ele>1753.7</ele>
      </trkpt>
      <trkpt lat="44.3875" lon="6.78078">
        <ele>1750</ele>
      </trkpt>
      <trkpt lat="44.3877" lon="6.78077">
        <ele>1748.8</ele>
      </trkpt>
      <trkpt lat="44.38808" lon="6.78061">
        <ele>1742</ele>
      </trkpt>
      <trkpt lat="44.38891" lon="6.78057">
        <ele>1734.7</ele>
      </trkpt>
      <trkpt lat="44.38907" lon="6.78064">
        <ele>1735.1</ele>
      </trkpt>
      <trkpt lat="44.38914" lon="6.78075">
        <ele>1737.2</ele>
      </trkpt>
      <trkpt lat="44.38921" lon="6.7808">
        <ele>1737.1</ele>
      </trkpt>
      <trkpt lat="44.38926" lon="6.78078">
        <ele>1735.4</ele>
      </trkpt>
      <trkpt lat="44.38928" lon="6.78073">
        <ele>1733.7</ele>
      </trkpt>
      <trkpt lat="44.38928" lon="6.78068">
        <ele>1732.5</ele>
      </trkpt>
      <trkpt lat="44.38926" lon="6.78063">
        <ele>1731.7</ele>
      </trkpt>
      <trkpt lat="44.38913" lon="6.78049">
        <ele>1730.7</ele>
      </trkpt>
      <trkpt lat="44.38882" lon="6.78022">
        <ele>1726.1</ele>
      </trkpt>
      <trkpt lat="44.38853" lon="6.78013">
        <ele>1725.6</ele>
      </trkpt>
      <trkpt lat="44.38812" lon="6.78012">
        <ele>1726.3</ele>
      </trkpt>
      <trkpt lat="44.38803" lon="6.78008">
        <ele>1724.9</ele>
      </trkpt>
      <trkpt lat="44.38783" lon="6.77992">
        <ele>1719</ele>
      </trkpt>
      <trkpt lat="44.38773" lon="6.77993">
        <ele>1719.1</ele>
      </trkpt>
      <trkpt lat="44.3876" lon="6.78">
        <ele>1721.2</ele>
      </trkpt>
      <trkpt lat="44.38754" lon="6.77995">
        <ele>1719.3</ele>
      </trkpt>
      <trkpt lat="44.38751" lon="6.77988">
        <ele>1716.7</ele>
      </trkpt>
      <trkpt lat="44.38754" lon="6.77979">
        <ele>1713.6</ele>
      </trkpt>
      <trkpt lat="44.38788" lon="6.77967">
        <ele>1710.4</ele>
      </trkpt>
      <trkpt lat="44.38796" lon="6.77968">
        <ele>1711</ele>
      </trkpt>
      <trkpt lat="44.38804" lon="6.77975">
        <ele>1713.7</ele>
      </trkpt>
      <trkpt lat="44.38814" lon="6.77978">
        <ele>1715</ele>
      </trkpt>
      <trkpt lat="44.38821" lon="6.77978">
        <ele>1715.2</ele>
      </trkpt>
      <trkpt lat="44.3883" lon="6.77974">
        <ele>1714.2</ele>
      </trkpt>
      <trkpt lat="44.38841" lon="6.77967">
        <ele>1711.8</ele>
      </trkpt>
      <trkpt lat="44.38851" lon="6.77951">
        <ele>1706.6</ele>
      </trkpt>
      <trkpt lat="44.38866" lon="6.77912">
        <ele>1695.2</ele>
      </trkpt>
      <trkpt lat="44.38875" lon="6.779">
        <ele>1692.1</ele>
      </trkpt>
      <trkpt lat="44.38887" lon="6.77897">
        <ele>1691.8</ele>
      </trkpt>
      <trkpt lat="44.38896" lon="6.77898">
        <ele>1692.5</ele>
      </trkpt>
      <trkpt lat="44.3891" lon="6.7791">
        <ele>1696.7</ele>
      </trkpt>
      <trkpt lat="44.38925" lon="6.77936">
        <ele>1701.8</ele>
      </trkpt>
      <trkpt lat="44.38935" lon="6.77946">
        <ele>1702.1</ele>
      </trkpt>
      <trkpt lat="44.38941" lon="6.77947">
        <ele>1701.1</ele>
      </trkpt>
      <trkpt lat="44.38946" lon="6.77944">
        <ele>1699.5</ele>
      </trkpt>
      <trkpt lat="44.38946" lon="6.77933">
        <ele>1697</ele>
      </trkpt>
      <trkpt lat="44.38943" lon="6.77925">
        <ele>1695.8</ele>
      </trkpt>
      <trkpt lat="44.38912" lon="6.77868">
        <ele>1684.2</ele>
      </trkpt>
      <trkpt lat="44.38894" lon="6.77829">
        <ele>1671.7</ele>
      </trkpt>
      <trkpt lat="44.38884" lon="6.77824">
        <ele>1669.8</ele>
      </trkpt>
      <trkpt lat="44.38873" lon="6.77826">
        <ele>1670.2</ele>
      </trkpt>
      <trkpt lat="44.3886" lon="6.77836">
        <ele>1672.7</ele>
      </trkpt>
      <trkpt lat="44.38848" lon="6.77851">
        <ele>1676.7</ele>
      </trkpt>
      <trkpt lat="44.38822" lon="6.7787">
        <ele>1680.8</ele>
      </trkpt>
      <trkpt lat="44.38813" lon="6.7787">
        <ele>1680.2</ele>
      </trkpt>
      <trkpt lat="44.38809" lon="6.77866">
        <ele>1678.7</ele>
      </trkpt>
      <trkpt lat="44.38807" lon="6.77859">
        <ele>1676.5</ele>
      </trkpt>
      <trkpt lat="44.38813" lon="6.77853">
        <ele>1675.1</ele>
      </trkpt>
      <trkpt lat="44.38822" lon="6.7785">
        <ele>1674.9</ele>
      </trkpt>
      <trkpt lat="44.38834" lon="6.77842">
        <ele>1673.5</ele>
      </trkpt>
      <trkpt lat="44.38853" lon="6.77813">
        <ele>1665.9</ele>
      </trkpt>
      <trkpt lat="44.38867" lon="6.77797">
        <ele>1661.2</ele>
      </trkpt>
      <trkpt lat="44.38877" lon="6.7779">
        <ele>1659</ele>
      </trkpt>
      <trkpt lat="44.38887" lon="6.77789">
        <ele>1658.5</ele>
      </trkpt>
      <trkpt lat="44.38908" lon="6.77798">
        <ele>1661.3</ele>
      </trkpt>
      <trkpt lat="44.38937" lon="6.7782">
        <ele>1666.7</ele>
      </trkpt>
      <trkpt lat="44.38948" lon="6.77824">
        <ele>1666.6</ele>
      </trkpt>
      <trkpt lat="44.38964" lon="6.77821">
        <ele>1663.7</ele>
      </trkpt>
      <trkpt lat="44.38995" lon="6.77814">
        <ele>1658.2</ele>
      </trkpt>
      <trkpt lat="44.39001" lon="6.77808">
        <ele>1656.4</ele>
      </trkpt>
      <trkpt lat="44.39022" lon="6.77785">
        <ele>1653.8</ele>
      </trkpt>
      <trkpt lat="44.39035" lon="6.77777">
        <ele>1653.3</ele>
      </trkpt>
      <trkpt lat="44.39052" lon="6.77773">
        <ele>1654.3</ele>
      </trkpt>
      <trkpt lat="44.39069" lon="6.77765">
        <ele>1653.9</ele>
      </trkpt>
      <trkpt lat="44.39109" lon="6.77725">
        <ele>1650.4</ele>
      </trkpt>
      <trkpt lat="44.39121" lon="6.77701">
        <ele>1649</ele>
      </trkpt>
      <trkpt lat="44.39126" lon="6.77686">
        <ele>1647.9</ele>
      </trkpt>
      <trkpt lat="44.39133" lon="6.77651">
        <ele>1644.9</ele>
      </trkpt>
      <trkpt lat="44.3915" lon="6.776">
        <ele>1642.2</ele>
      </trkpt>
      <trkpt lat="44.39151" lon="6.77584">
        <ele>1640.3</ele>
      </trkpt>
      <trkpt lat="44.39152" lon="6.77584">
        <ele>1640.6</ele>
      </trkpt>
      <trkpt lat="44.39154" lon="6.77549">
        <ele>1634.1</ele>
      </trkpt>
      <trkpt lat="44.3917" lon="6.77551">
        <ele>1638.3</ele>
      </trkpt>
      <trkpt lat="44.3918" lon="6.7755">
        <ele>1641</ele>
      </trkpt>
      <trkpt lat="44.39207" lon="6.77534">
        <ele>1645.3</ele>
      </trkpt>
      <trkpt lat="44.39242" lon="6.77503">
        <ele>1648.4</ele>
      </trkpt>
      <trkpt lat="44.39279" lon="6.77448">
        <ele>1651.3</ele>
      </trkpt>
      <trkpt lat="44.39307" lon="6.77413">
        <ele>1655</ele>
      </trkpt>
      <trkpt lat="44.39363" lon="6.77311">
        <ele>1650.4</ele>
      </trkpt>
      <trkpt lat="44.39374" lon="6.77297">
        <ele>1651</ele>
      </trkpt>
      <trkpt lat="44.39399" lon="6.77293">
        <ele>1659.3</ele>
      </trkpt>
      <trkpt lat="44.3941" lon="6.77285">
        <ele>1661.1</ele>
      </trkpt>
      <trkpt lat="44.39443" lon="6.7727">
        <ele>1662.2</ele>
      </trkpt>
      <trkpt lat="44.39465" lon="6.77268">
        <ele>1664.2</ele>
      </trkpt>
      <trkpt lat="44.3949" lon="6.77272">
        <ele>1668.4</ele>
      </trkpt>
      <trkpt lat="44.3951" lon="6.77281">
        <ele>1672.8</ele>
      </trkpt>
      <trkpt lat="44.39526" lon="6.77282">
        <ele>1674</ele>
      </trkpt>
      <trkpt lat="44.39557" lon="6.77291">
        <ele>1678.7</ele>
      </trkpt>
      <trkpt lat="44.39583" lon="6.77294">
        <ele>1681.3</ele>
      </trkpt>
      <trkpt lat="44.39621" lon="6.7729">
        <ele>1681.1</ele>
      </trkpt>
      <trkpt lat="44.39642" lon="6.77299">
        <ele>1684.5</ele>
      </trkpt>
      <trkpt lat="44.39656" lon="6.77302">
        <ele>1685.7</ele>
      </trkpt>
      <trkpt lat="44.39706" lon="6.77294">
        <ele>1689.4</ele>
      </trkpt>
      <trkpt lat="44.39721" lon="6.77287">
        <ele>1689.3</ele>
      </trkpt>
      <trkpt lat="44.39725" lon="6.77297">
        <ele>1693.2</ele>
      </trkpt>
      <trkpt lat="44.39721" lon="6.77305">
        <ele>1695.3</ele>
      </trkpt>
      <trkpt lat="44.39673" lon="6.77351">
        <ele>1703.4</ele>
      </trkpt>
      <trkpt lat="44.39648" lon="6.77366">
        <ele>1708.2</ele>
      </trkpt>
      <trkpt lat="44.39519" lon="6.77369">
        <ele>1701</ele>
      </trkpt>
      <trkpt lat="44.39505" lon="6.77376">
        <ele>1701.8</ele>
      </trkpt>
      <trkpt lat="44.39473" lon="6.77403">
        <ele>1705.4</ele>
      </trkpt>
      <trkpt lat="44.39458" lon="6.77419">
        <ele>1707.4</ele>
      </trkpt>
      <trkpt lat="44.39426" lon="6.77443">
        <ele>1706.2</ele>
      </trkpt>
      <trkpt lat="44.39421" lon="6.77451">
        <ele>1706.6</ele>
      </trkpt>
      <trkpt lat="44.39421" lon="6.77454">
        <ele>1707.1</ele>
      </trkpt>
      <trkpt lat="44.39422" lon="6.77462">
        <ele>1708.7</ele>
      </trkpt>
      <trkpt lat="44.39429" lon="6.77465">
        <ele>1710.6</ele>
      </trkpt>
      <trkpt lat="44.39449" lon="6.77459">
        <ele>1713.5</ele>
      </trkpt>
      <trkpt lat="44.39478" lon="6.77434">
        <ele>1714</ele>
      </trkpt>
      <trkpt lat="44.39493" lon="6.7743">
        <ele>1715.8</ele>
      </trkpt>
      <trkpt lat="44.39581" lon="6.77425">
        <ele>1725.6</ele>
      </trkpt>
      <trkpt lat="44.39615" lon="6.77421">
        <ele>1727.4</ele>
      </trkpt>
      <trkpt lat="44.39632" lon="6.77422">
        <ele>1728.9</ele>
      </trkpt>
      <trkpt lat="44.39652" lon="6.77436">
        <ele>1734.3</ele>
      </trkpt>
      <trkpt lat="44.39666" lon="6.77439">
        <ele>1736.4</ele>
      </trkpt>
      <trkpt lat="44.39701" lon="6.77435">
        <ele>1737.6</ele>
      </trkpt>
      <trkpt lat="44.39735" lon="6.77419">
        <ele>1735.5</ele>
      </trkpt>
      <trkpt lat="44.39813" lon="6.77371">
        <ele>1734.1</ele>
      </trkpt>
      <trkpt lat="44.39843" lon="6.77359">
        <ele>1736.4</ele>
      </trkpt>
      <trkpt lat="44.39881" lon="6.77346">
        <ele>1738.3</ele>
      </trkpt>
      <trkpt lat="44.39924" lon="6.77342">
        <ele>1742.7</ele>
      </trkpt>
      <trkpt lat="44.39962" lon="6.77328">
        <ele>1742.1</ele>
      </trkpt>
      <trkpt lat="44.39981" lon="6.77334">
        <ele>1746.3</ele>
      </trkpt>
      <trkpt lat="44.40036" lon="6.77372">
        <ele>1753</ele>
      </trkpt>
      <trkpt lat="44.40063" lon="6.77399">
        <ele>1757.1</ele>
      </trkpt>
      <trkpt lat="44.40074" lon="6.77424">
        <ele>1760.5</ele>
      </trkpt>
      <trkpt lat="44.40089" lon="6.7753">
        <ele>1760.3</ele>
      </trkpt>
      <trkpt lat="44.40076" lon="6.77586">
        <ele>1764.4</ele>
      </trkpt>
      <trkpt lat="44.40076" lon="6.77617">
        <ele>1766.6</ele>
      </trkpt>
      <trkpt lat="44.40085" lon="6.7767">
        <ele>1768.7</ele>
      </trkpt>
      <trkpt lat="44.40089" lon="6.77709">
        <ele>1769.1</ele>
      </trkpt>
      <trkpt lat="44.4008" lon="6.7779">
        <ele>1774.7</ele>
      </trkpt>
      <trkpt lat="44.40083" lon="6.77808">
        <ele>1774.9</ele>
      </trkpt>
      <trkpt lat="44.40085" lon="6.77814">
        <ele>1774.8</ele>
      </trkpt>
      <trkpt lat="44.4009" lon="6.77818">
        <ele>1774.1</ele>
      </trkpt>
      <trkpt lat="44.40095" lon="6.77815">
        <ele>1773</ele>
      </trkpt>
      <trkpt lat="44.40111" lon="6.77782">
        <ele>1767.7</ele>
      </trkpt>
      <trkpt lat="44.40119" lon="6.77774">
        <ele>1765.3</ele>
      </trkpt>
      <trkpt lat="44.40153" lon="6.77754">
        <ele>1755.7</ele>
      </trkpt>
      <trkpt lat="44.4017" lon="6.77762">
        <ele>1752.9</ele>
      </trkpt>
      <trkpt lat="44.40183" lon="6.77777">
        <ele>1752.8</ele>
      </trkpt>
      <trkpt lat="44.40191" lon="6.77801">
        <ele>1754.9</ele>
      </trkpt>
      <trkpt lat="44.40192" lon="6.7784">
        <ele>1760.4</ele>
      </trkpt>
      <trkpt lat="44.40188" lon="6.77884">
        <ele>1767.9</ele>
      </trkpt>
      <trkpt lat="44.40192" lon="6.77896">
        <ele>1769.5</ele>
      </trkpt>
      <trkpt lat="44.40197" lon="6.77899">
        <ele>1769.5</ele>
      </trkpt>
      <trkpt lat="44.40204" lon="6.7789">
        <ele>1767.4</ele>
      </trkpt>
      <trkpt lat="44.4022" lon="6.7786">
        <ele>1760.8</ele>
      </trkpt>
      <trkpt lat="44.40227" lon="6.77851">
        <ele>1758.5</ele>
      </trkpt>
      <trkpt lat="44.40235" lon="6.77848">
        <ele>1757.2</ele>
      </trkpt>
      <trkpt lat="44.40242" lon="6.77849">
        <ele>1756.6</ele>
      </trkpt>
      <trkpt lat="44.40247" lon="6.77852">
        <ele>1756.7</ele>
      </trkpt>
      <trkpt lat="44.40251" lon="6.77862">
        <ele>1758.1</ele>
      </trkpt>
      <trkpt lat="44.4025" lon="6.7787">
        <ele>1759.6</ele>
      </trkpt>
      <trkpt lat="44.40248" lon="6.77881">
        <ele>1761.8</ele>
      </trkpt>
      <trkpt lat="44.40241" lon="6.7791">
        <ele>1767.6</ele>
      </trkpt>
      <trkpt lat="44.4023" lon="6.77945">
        <ele>1773.7</ele>
      </trkpt>
      <trkpt lat="44.40226" lon="6.77952">
        <ele>1774.9</ele>
      </trkpt>
      <trkpt lat="44.40214" lon="6.77976">
        <ele>1778.7</ele>
      </trkpt>
      <trkpt lat="44.40194" lon="6.77989">
        <ele>1781.1</ele>
      </trkpt>
      <trkpt lat="44.40174" lon="6.77995">
        <ele>1782.3</ele>
      </trkpt>
      <trkpt lat="44.40161" lon="6.78004">
        <ele>1784.8</ele>
      </trkpt>
      <trkpt lat="44.40163" lon="6.78013">
        <ele>1785.7</ele>
      </trkpt>
      <trkpt lat="44.40181" lon="6.78022">
        <ele>1786.1</ele>
      </trkpt>
      <trkpt lat="44.40189" lon="6.78029">
        <ele>1787.1</ele>
      </trkpt>
      <trkpt lat="44.40189" lon="6.78036">
        <ele>1788.2</ele>
      </trkpt>
      <trkpt lat="44.40183" lon="6.78044">
        <ele>1789.6</ele>
      </trkpt>
      <trkpt lat="44.40165" lon="6.78043">
        <ele>1790</ele>
      </trkpt>
      <trkpt lat="44.40148" lon="6.78046">
        <ele>1793.4</ele>
      </trkpt>
      <trkpt lat="44.40151" lon="6.78058">
        <ele>1794.6</ele>
      </trkpt>
      <trkpt lat="44.40166" lon="6.78069">
        <ele>1793.9</ele>
      </trkpt>
      <trkpt lat="44.40193" lon="6.78093">
        <ele>1798.4</ele>
      </trkpt>
      <trkpt lat="44.40204" lon="6.78098">
        <ele>1799.9</ele>
      </trkpt>
      <trkpt lat="44.40221" lon="6.78096">
        <ele>1799.3</ele>
      </trkpt>
      <trkpt lat="44.40228" lon="6.78098">
        <ele>1800</ele>
      </trkpt>
      <trkpt lat="44.40226" lon="6.78111">
        <ele>1804.2</ele>
      </trkpt>
      <trkpt lat="44.40209" lon="6.78115">
        <ele>1805</ele>
      </trkpt>
      <trkpt lat="44.40193" lon="6.78126">
        <ele>1807.7</ele>
      </trkpt>
      <trkpt lat="44.40182" lon="6.78138">
        <ele>1810.6</ele>
      </trkpt>
      <trkpt lat="44.40171" lon="6.78145">
        <ele>1811.8</ele>
      </trkpt>
      <trkpt lat="44.40118" lon="6.78157">
        <ele>1819</ele>
      </trkpt>
      <trkpt lat="44.40106" lon="6.78166">
        <ele>1822</ele>
      </trkpt>
      <trkpt lat="44.40109" lon="6.78173">
        <ele>1823.9</ele>
      </trkpt>
      <trkpt lat="44.40138" lon="6.78172">
        <ele>1821.3</ele>
      </trkpt>
      <trkpt lat="44.4015" lon="6.78177">
        <ele>1822.1</ele>
      </trkpt>
      <trkpt lat="44.40158" lon="6.78179">
        <ele>1822.2</ele>
      </trkpt>
      <trkpt lat="44.40191" lon="6.7817">
        <ele>1820.3</ele>
      </trkpt>
      <trkpt lat="44.40207" lon="6.78169">
        <ele>1821.3</ele>
      </trkpt>
      <trkpt lat="44.40227" lon="6.78176">
        <ele>1825.8</ele>
      </trkpt>
      <trkpt lat="44.4024" lon="6.78195">
        <ele>1834.6</ele>
      </trkpt>
      <trkpt lat="44.40249" lon="6.78202">
        <ele>1838.3</ele>
      </trkpt>
      <trkpt lat="44.40254" lon="6.78201">
        <ele>1838.9</ele>
      </trkpt>
      <trkpt lat="44.40267" lon="6.78186">
        <ele>1835.6</ele>
      </trkpt>
      <trkpt lat="44.40285" lon="6.78171">
        <ele>1833.7</ele>
      </trkpt>
      <trkpt lat="44.40318" lon="6.7816">
        <ele>1836.9</ele>
      </trkpt>
      <trkpt lat="44.40336" lon="6.7816">
        <ele>1840.9</ele>
      </trkpt>
      <trkpt lat="44.40357" lon="6.78153">
        <ele>1842.6</ele>
      </trkpt>
      <trkpt lat="44.40401" lon="6.78108">
        <ele>1839</ele>
      </trkpt>
      <trkpt lat="44.40419" lon="6.78095">
        <ele>1840.5</ele>
      </trkpt>
      <trkpt lat="44.40428" lon="6.78098">
        <ele>1842.8</ele>
      </trkpt>
      <trkpt lat="44.40439" lon="6.78101">
        <ele>1845.5</ele>
      </trkpt>
      <trkpt lat="44.40448" lon="6.78108">
        <ele>1849.2</ele>
      </trkpt>
      <trkpt lat="44.40457" lon="6.78109">
        <ele>1851.1</ele>
      </trkpt>
      <trkpt lat="44.40488" lon="6.78093">
        <ele>1851.4</ele>
      </trkpt>
      <trkpt lat="44.40508" lon="6.78085">
        <ele>1853.1</ele>
      </trkpt>
      <trkpt lat="44.40534" lon="6.7806">
        <ele>1853.5</ele>
      </trkpt>
      <trkpt lat="44.40566" lon="6.78038">
        <ele>1856.6</ele>
      </trkpt>
      <trkpt lat="44.40598" lon="6.78021">
        <ele>1862.7</ele>
      </trkpt>
      <trkpt lat="44.40647" lon="6.77971">
        <ele>1864.2</ele>
      </trkpt>
      <trkpt lat="44.40685" lon="6.77946">
        <ele>1867.5</ele>
      </trkpt>
      <trkpt lat="44.4073" lon="6.77907">
        <ele>1868.9</ele>
      </trkpt>
      <trkpt lat="44.40761" lon="6.7787">
        <ele>1866.7</ele>
      </trkpt>
      <trkpt lat="44.40778" lon="6.77841">
        <ele>1862.8</ele>
      </trkpt>
      <trkpt lat="44.40792" lon="6.77825">
        <ele>1863.4</ele>
      </trkpt>
      <trkpt lat="44.40798" lon="6.77823">
        <ele>1864.5</ele>
      </trkpt>
      <trkpt lat="44.40805" lon="6.77828">
        <ele>1866.2</ele>
      </trkpt>
      <trkpt lat="44.40807" lon="6.77846">
        <ele>1868.4</ele>
      </trkpt>
      <trkpt lat="44.40811" lon="6.77887">
        <ele>1873.4</ele>
      </trkpt>
      <trkpt lat="44.40813" lon="6.77902">
        <ele>1875</ele>
      </trkpt>
      <trkpt lat="44.40819" lon="6.77933">
        <ele>1878.9</ele>
      </trkpt>
      <trkpt lat="44.40822" lon="6.77965">
        <ele>1883.4</ele>
      </trkpt>
      <trkpt lat="44.40824" lon="6.77977">
        <ele>1884.8</ele>
      </trkpt>
      <trkpt lat="44.40833" lon="6.78003">
        <ele>1886.8</ele>
      </trkpt>
      <trkpt lat="44.40846" lon="6.78032">
        <ele>1888.1</ele>
      </trkpt>
      <trkpt lat="44.40862" lon="6.78051">
        <ele>1885.6</ele>
      </trkpt>
      <trkpt lat="44.4087" lon="6.78075">
        <ele>1887.4</ele>
      </trkpt>
      <trkpt lat="44.40901" lon="6.78119">
        <ele>1879.8</ele>
      </trkpt>
      <trkpt lat="44.40906" lon="6.78136">
        <ele>1879.2</ele>
      </trkpt>
      <trkpt lat="44.40908" lon="6.78161">
        <ele>1880.9</ele>
      </trkpt>
      <trkpt lat="44.40893" lon="6.7826">
        <ele>1889.1</ele>
      </trkpt>
      <trkpt lat="44.4089" lon="6.78315">
        <ele>1892.3</ele>
      </trkpt>
      <trkpt lat="44.40893" lon="6.78362">
        <ele>1893.3</ele>
      </trkpt>
      <trkpt lat="44.40902" lon="6.7842">
        <ele>1892.8</ele>
      </trkpt>
      <trkpt lat="44.40904" lon="6.78458">
        <ele>1895.8</ele>
      </trkpt>
      <trkpt lat="44.40952" lon="6.78572">
        <ele>1885.6</ele>
      </trkpt>
      <trkpt lat="44.40961" lon="6.78621">
        <ele>1884.1</ele>
      </trkpt>
      <trkpt lat="44.40972" lon="6.78654">
        <ele>1880.3</ele>
      </trkpt>
      <trkpt lat="44.40974" lon="6.78669">
        <ele>1879.9</ele>
      </trkpt>
      <trkpt lat="44.40971" lon="6.78698">
        <ele>1881.6</ele>
      </trkpt>
      <trkpt lat="44.40938" lon="6.7875">
        <ele>1893.6</ele>
      </trkpt>
      <trkpt lat="44.40929" lon="6.78768">
        <ele>1897.6</ele>
      </trkpt>
      <trkpt lat="44.40929" lon="6.78781">
        <ele>1898.3</ele>
      </trkpt>
      <trkpt lat="44.40933" lon="6.78794">
        <ele>1897.5</ele>
      </trkpt>
      <trkpt lat="44.4095" lon="6.7881">
        <ele>1892.6</ele>
      </trkpt>
      <trkpt lat="44.4096" lon="6.78833">
        <ele>1890.4</ele>
      </trkpt>
      <trkpt lat="44.40978" lon="6.78853">
        <ele>1887.9</ele>
      </trkpt>
      <trkpt lat="44.40994" lon="6.78877">
        <ele>1887.2</ele>
      </trkpt>
      <trkpt lat="44.41011" lon="6.7889">
        <ele>1885.5</ele>
      </trkpt>
      <trkpt lat="44.4102" lon="6.78906">
        <ele>1886.2</ele>
      </trkpt>
      <trkpt lat="44.41025" lon="6.78932">
        <ele>1889.5</ele>
      </trkpt>
      <trkpt lat="44.41027" lon="6.78949">
        <ele>1892.2</ele>
      </trkpt>
      <trkpt lat="44.41033" lon="6.78963">
        <ele>1893.1</ele>
      </trkpt>
      <trkpt lat="44.41045" lon="6.78978">
        <ele>1892.6</ele>
      </trkpt>
      <trkpt lat="44.41063" lon="6.78985">
        <ele>1889</ele>
      </trkpt>
      <trkpt lat="44.41103" lon="6.79009">
        <ele>1882.6</ele>
      </trkpt>
      <trkpt lat="44.41125" lon="6.79031">
        <ele>1881.9</ele>
      </trkpt>
      <trkpt lat="44.41141" lon="6.79057">
        <ele>1883.7</ele>
      </trkpt>
      <trkpt lat="44.41152" lon="6.79089">
        <ele>1888.2</ele>
      </trkpt>
      <trkpt lat="44.4116" lon="6.79105">
        <ele>1889.1</ele>
      </trkpt>
      <trkpt lat="44.41204" lon="6.79142">
        <ele>1882.3</ele>
      </trkpt>
      <trkpt lat="44.41219" lon="6.79165">
        <ele>1882.4</ele>
      </trkpt>
      <trkpt lat="44.41224" lon="6.79187">
        <ele>1884.2</ele>
      </trkpt>
      <trkpt lat="44.41223" lon="6.79214">
        <ele>1888.8</ele>
      </trkpt>
      <trkpt lat="44.41225" lon="6.79239">
        <ele>1892</ele>
      </trkpt>
      <trkpt lat="44.41234" lon="6.79259">
        <ele>1893.4</ele>
      </trkpt>
      <trkpt lat="44.41262" lon="6.79284">
        <ele>1893.9</ele>
      </trkpt>
      <trkpt lat="44.41272" lon="6.79289">
        <ele>1893.8</ele>
      </trkpt>
      <trkpt lat="44.4131" lon="6.79296">
        <ele>1889.6</ele>
      </trkpt>
      <trkpt lat="44.41381" lon="6.79305">
        <ele>1882.1</ele>
      </trkpt>
      <trkpt lat="44.41402" lon="6.79302">
        <ele>1878.1</ele>
      </trkpt>
      <trkpt lat="44.41418" lon="6.79309">
        <ele>1878.2</ele>
      </trkpt>
      <trkpt lat="44.41431" lon="6.7932">
        <ele>1878.2</ele>
      </trkpt>
      <trkpt lat="44.41441" lon="6.79335">
        <ele>1879.7</ele>
      </trkpt>
      <trkpt lat="44.41447" lon="6.79357">
        <ele>1881.5</ele>
      </trkpt>
      <trkpt lat="44.41445" lon="6.79392">
        <ele>1888.2</ele>
      </trkpt>
      <trkpt lat="44.41453" lon="6.79466">
        <ele>1889.7</ele>
      </trkpt>
      <trkpt lat="44.41451" lon="6.79496">
        <ele>1890.8</ele>
      </trkpt>
      <trkpt lat="44.41421" lon="6.79593">
        <ele>1895.8</ele>
      </trkpt>
      <trkpt lat="44.41418" lon="6.79621">
        <ele>1892.6</ele>
      </trkpt>
      <trkpt lat="44.41384" lon="6.79696">
        <ele>1899.8</ele>
      </trkpt>
      <trkpt lat="44.41382" lon="6.79718">
        <ele>1898.2</ele>
      </trkpt>
      <trkpt lat="44.41398" lon="6.79774">
        <ele>1886.2</ele>
      </trkpt>
      <trkpt lat="44.41398" lon="6.79815">
        <ele>1885.8</ele>
      </trkpt>
      <trkpt lat="44.41402" lon="6.79835">
        <ele>1883.5</ele>
      </trkpt>
      <trkpt lat="44.41399" lon="6.79865">
        <ele>1884.6</ele>
      </trkpt>
      <trkpt lat="44.41386" lon="6.79952">
        <ele>1893.5</ele>
      </trkpt>
      <trkpt lat="44.41393" lon="6.79993">
        <ele>1890.4</ele>
      </trkpt>
      <trkpt lat="44.41405" lon="6.80007">
        <ele>1883.8</ele>
      </trkpt>
      <trkpt lat="44.41409" lon="6.8002">
        <ele>1883.3</ele>
      </trkpt>
      <trkpt lat="44.41435" lon="6.80107">
        <ele>1883.1</ele>
      </trkpt>
      <trkpt lat="44.41442" lon="6.80138">
        <ele>1882.4</ele>
      </trkpt>
      <trkpt lat="44.41445" lon="6.80186">
        <ele>1884.3</ele>
      </trkpt>
      <trkpt lat="44.41444" lon="6.80243">
        <ele>1887.5</ele>
      </trkpt>
      <trkpt lat="44.41436" lon="6.80355">
        <ele>1887.2</ele>
      </trkpt>
      <trkpt lat="44.41433" lon="6.80371">
        <ele>1886.6</ele>
      </trkpt>
      <trkpt lat="44.4141" lon="6.80413">
        <ele>1890.9</ele>
      </trkpt>
      <trkpt lat="44.41385" lon="6.80466">
        <ele>1888.7</ele>
      </trkpt>
      <trkpt lat="44.41377" lon="6.80501">
        <ele>1884.1</ele>
      </trkpt>
      <trkpt lat="44.41349" lon="6.80542">
        <ele>1886.1</ele>
      </trkpt>
      <trkpt lat="44.41319" lon="6.80592">
        <ele>1886.2</ele>
      </trkpt>
      <trkpt lat="44.41308" lon="6.80616">
        <ele>1884.7</ele>
      </trkpt>
      <trkpt lat="44.41304" lon="6.80637">
        <ele>1881.9</ele>
      </trkpt>
      <trkpt lat="44.41296" lon="6.80657">
        <ele>1879.9</ele>
      </trkpt>
      <trkpt lat="44.4128" lon="6.80666">
        <ele>1881.4</ele>
      </trkpt>
      <trkpt lat="44.41257" lon="6.80667">
        <ele>1885.6</ele>
      </trkpt>
      <trkpt lat="44.41234" lon="6.80655">
        <ele>1897.3</ele>
      </trkpt>
      <trkpt lat="44.41223" lon="6.80664">
        <ele>1900.8</ele>
      </trkpt>
      <trkpt lat="44.41218" lon="6.80676">
        <ele>1900.8</ele>
      </trkpt>
      <trkpt lat="44.41217" lon="6.80716">
        <ele>1892.8</ele>
      </trkpt>
      <trkpt lat="44.41198" lon="6.80786">
        <ele>1888.6</ele>
      </trkpt>
      <trkpt lat="44.41185" lon="6.80815">
        <ele>1888.7</ele>
      </trkpt>
      <trkpt lat="44.41166" lon="6.80841">
        <ele>1891.1</ele>
      </trkpt>
      <trkpt lat="44.41142" lon="6.80861">
        <ele>1895.7</ele>
      </trkpt>
      <trkpt lat="44.41123" lon="6.80886">
        <ele>1896.7</ele>
      </trkpt>
      <trkpt lat="44.41103" lon="6.80906">
        <ele>1899.6</ele>
      </trkpt>
      <trkpt lat="44.41083" lon="6.80953">
        <ele>1899.1</ele>
      </trkpt>
      <trkpt lat="44.41052" lon="6.8101">
        <ele>1905.6</ele>
      </trkpt>
      <trkpt lat="44.4105" lon="6.81087">
        <ele>1894.6</ele>
      </trkpt>
      <trkpt lat="44.41042" lon="6.81097">
        <ele>1896.6</ele>
      </trkpt>
      <trkpt lat="44.41015" lon="6.81114">
        <ele>1904.8</ele>
      </trkpt>
      <trkpt lat="44.41006" lon="6.81126">
        <ele>1905.9</ele>
      </trkpt>
      <trkpt lat="44.41008" lon="6.81157">
        <ele>1898.4</ele>
      </trkpt>
      <trkpt lat="44.40994" lon="6.81199">
        <ele>1895.8</ele>
      </trkpt>
      <trkpt lat="44.40945" lon="6.81257">
        <ele>1904.1</ele>
      </trkpt>
      <trkpt lat="44.4093" lon="6.81297">
        <ele>1900.8</ele>
      </trkpt>
      <trkpt lat="44.40922" lon="6.81311">
        <ele>1900.9</ele>
      </trkpt>
      <trkpt lat="44.40903" lon="6.81332">
        <ele>1904.4</ele>
      </trkpt>
      <trkpt lat="44.4089" lon="6.8137">
        <ele>1900.4</ele>
      </trkpt>
      <trkpt lat="44.4087" lon="6.81412">
        <ele>1899.7</ele>
      </trkpt>
      <trkpt lat="44.40848" lon="6.81447">
        <ele>1902.2</ele>
      </trkpt>
      <trkpt lat="44.40847" lon="6.81448">
        <ele>1902.5</ele>
      </trkpt>
      <trkpt lat="44.40834" lon="6.81464">
        <ele>1904.8</ele>
      </trkpt>
      <trkpt lat="44.40826" lon="6.81508">
        <ele>1899.1</ele>
      </trkpt>
      <trkpt lat="44.40815" lon="6.81526">
        <ele>1903.2</ele>
      </trkpt>
      <trkpt lat="44.40807" lon="6.81547">
        <ele>1905.4</ele>
      </trkpt>
      <trkpt lat="44.40803" lon="6.81599">
        <ele>1900.8</ele>
      </trkpt>
      <trkpt lat="44.40799" lon="6.8163">
        <ele>1897.7</ele>
      </trkpt>
      <trkpt lat="44.40793" lon="6.81658">
        <ele>1895.9</ele>
      </trkpt>
      <trkpt lat="44.40782" lon="6.81685">
        <ele>1896</ele>
      </trkpt>
      <trkpt lat="44.4075" lon="6.81731">
        <ele>1901.6</ele>
      </trkpt>
      <trkpt lat="44.40746" lon="6.81773">
        <ele>1895.7</ele>
      </trkpt>
      <trkpt lat="44.40748" lon="6.81805">
        <ele>1889.7</ele>
      </trkpt>
      <trkpt lat="44.40746" lon="6.81834">
        <ele>1886.5</ele>
      </trkpt>
      <trkpt lat="44.40738" lon="6.81856">
        <ele>1886.7</ele>
      </trkpt>
      <trkpt lat="44.40739" lon="6.81878">
        <ele>1881.1</ele>
      </trkpt>
      <trkpt lat="44.40727" lon="6.81898">
        <ele>1883.7</ele>
      </trkpt>
      <trkpt lat="44.40713" lon="6.81917">
        <ele>1887.2</ele>
      </trkpt>
      <trkpt lat="44.40674" lon="6.81951">
        <ele>1895.8</ele>
      </trkpt>
      <trkpt lat="44.4064" lon="6.8199">
        <ele>1896.5</ele>
      </trkpt>
      <trkpt lat="44.40555" lon="6.82123">
        <ele>1896.6</ele>
      </trkpt>
      <trkpt lat="44.40541" lon="6.82148">
        <ele>1894.5</ele>
      </trkpt>
      <trkpt lat="44.40508" lon="6.82174">
        <ele>1900.5</ele>
      </trkpt>
      <trkpt lat="44.40501" lon="6.82214">
        <ele>1899</ele>
      </trkpt>
      <trkpt lat="44.40494" lon="6.82239">
        <ele>1898.4</ele>
      </trkpt>
      <trkpt lat="44.40449" lon="6.82346">
        <ele>1891.3</ele>
      </trkpt>
      <trkpt lat="44.4043" lon="6.82381">
        <ele>1891.1</ele>
      </trkpt>
      <trkpt lat="44.40401" lon="6.82409">
        <ele>1893.4</ele>
      </trkpt>
      <trkpt lat="44.40386" lon="6.82436">
        <ele>1889.5</ele>
      </trkpt>
      <trkpt lat="44.40362" lon="6.82469">
        <ele>1886.3</ele>
      </trkpt>
      <trkpt lat="44.40306" lon="6.82511">
        <ele>1884.5</ele>
      </trkpt>
      <trkpt lat="44.40296" lon="6.82514">
        <ele>1884.1</ele>
      </trkpt>
      <trkpt lat="44.40284" lon="6.8251">
        <ele>1885.2</ele>
      </trkpt>
      <trkpt lat="44.40268" lon="6.82492">
        <ele>1888.4</ele>
      </trkpt>
      <trkpt lat="44.40255" lon="6.82491">
        <ele>1888.7</ele>
      </trkpt>
      <trkpt lat="44.40246" lon="6.82497">
        <ele>1888.8</ele>
      </trkpt>
      <trkpt lat="44.40233" lon="6.82505">
        <ele>1889.5</ele>
      </trkpt>
      <trkpt lat="44.40203" lon="6.8253">
        <ele>1889.2</ele>
      </trkpt>
      <trkpt lat="44.4016" lon="6.8256">
        <ele>1890.4</ele>
      </trkpt>
      <trkpt lat="44.40129" lon="6.82577">
        <ele>1892</ele>
      </trkpt>
      <trkpt lat="44.40097" lon="6.82586">
        <ele>1894.2</ele>
      </trkpt>
      <trkpt lat="44.40074" lon="6.82609">
        <ele>1890.7</ele>
      </trkpt>
      <trkpt lat="44.40039" lon="6.8261">
        <ele>1896.8</ele>
      </trkpt>
      <trkpt lat="44.39955" lon="6.82641">
        <ele>1897.4</ele>
      </trkpt>
      <trkpt lat="44.39912" lon="6.82653">
        <ele>1900.2</ele>
      </trkpt>
      <trkpt lat="44.39837" lon="6.82681">
        <ele>1900.5</ele>
      </trkpt>
      <trkpt lat="44.39815" lon="6.82693">
        <ele>1903.8</ele>
      </trkpt>
      <trkpt lat="44.39805" lon="6.82707">
        <ele>1902.5</ele>
      </trkpt>
      <trkpt lat="44.39794" lon="6.8273">
        <ele>1898.3</ele>
      </trkpt>
      <trkpt lat="44.39785" lon="6.8274">
        <ele>1897.8</ele>
      </trkpt>
      <trkpt lat="44.39768" lon="6.82748">
        <ele>1900.7</ele>
      </trkpt>
      <trkpt lat="44.39751" lon="6.82752">
        <ele>1904.9</ele>
      </trkpt>
      <trkpt lat="44.39682" lon="6.82817">
        <ele>1904.9</ele>
      </trkpt>
      <trkpt lat="44.39627" lon="6.82843">
        <ele>1910.9</ele>
      </trkpt>
      <trkpt lat="44.39587" lon="6.82876">
        <ele>1908.1</ele>
      </trkpt>
      <trkpt lat="44.39554" lon="6.82908">
        <ele>1903.7</ele>
      </trkpt>
      <trkpt lat="44.39536" lon="6.82933">
        <ele>1899.9</ele>
      </trkpt>
      <trkpt lat="44.39523" lon="6.82947">
        <ele>1898.7</ele>
      </trkpt>
      <trkpt lat="44.39502" lon="6.82956">
        <ele>1900.8</ele>
      </trkpt>
      <trkpt lat="44.39445" lon="6.82983">
        <ele>1902</ele>
      </trkpt>
      <trkpt lat="44.39419" lon="6.83001">
        <ele>1900.3</ele>
      </trkpt>
      <trkpt lat="44.39402" lon="6.83008">
        <ele>1900</ele>
      </trkpt>
      <trkpt lat="44.39355" lon="6.83026">
        <ele>1899.7</ele>
      </trkpt>
      <trkpt lat="44.39307" lon="6.83041">
        <ele>1900.4</ele>
      </trkpt>
      <trkpt lat="44.39288" lon="6.83049">
        <ele>1900</ele>
      </trkpt>
      <trkpt lat="44.39267" lon="6.83066">
        <ele>1897.2</ele>
      </trkpt>
      <trkpt lat="44.39247" lon="6.83078">
        <ele>1895.7</ele>
      </trkpt>
      <trkpt lat="44.3922" lon="6.83083">
        <ele>1895.9</ele>
      </trkpt>
      <trkpt lat="44.39199" lon="6.83077">
        <ele>1899.4</ele>
      </trkpt>
      <trkpt lat="44.39171" lon="6.83079">
        <ele>1900.6</ele>
      </trkpt>
      <trkpt lat="44.39124" lon="6.83099">
        <ele>1902.5</ele>
      </trkpt>
      <trkpt lat="44.39091" lon="6.83103">
        <ele>1906.4</ele>
      </trkpt>
      <trkpt lat="44.39068" lon="6.83113">
        <ele>1908.2</ele>
      </trkpt>
      <trkpt lat="44.39036" lon="6.83134">
        <ele>1908.5</ele>
      </trkpt>
      <trkpt lat="44.38987" lon="6.8319">
        <ele>1904</ele>
      </trkpt>
      <trkpt lat="44.38968" lon="6.83203">
        <ele>1904.6</ele>
      </trkpt>
      <trkpt lat="44.38944" lon="6.83207">
        <ele>1905.9</ele>
      </trkpt>
      <trkpt lat="44.38914" lon="6.83207">
        <ele>1907.9</ele>
      </trkpt>
      <trkpt lat="44.38884" lon="6.83216">
        <ele>1908</ele>
      </trkpt>
      <trkpt lat="44.38854" lon="6.83214">
        <ele>1910</ele>
      </trkpt>
      <trkpt lat="44.38791" lon="6.83235">
        <ele>1903.2</ele>
      </trkpt>
      <trkpt lat="44.38759" lon="6.8324">
        <ele>1900.3</ele>
      </trkpt>
      <trkpt lat="44.38758" lon="6.83236">
        <ele>1901</ele>
      </trkpt>
      <trkpt lat="44.38757" lon="6.83236">
        <ele>1900.9</ele>
      </trkpt>
      <trkpt lat="44.3874" lon="6.83227">
        <ele>1901.9</ele>
      </trkpt>
      <trkpt lat="44.38727" lon="6.83223">
        <ele>1902.2</ele>
      </trkpt>
      <trkpt lat="44.38721" lon="6.83218">
        <ele>1902.8</ele>
      </trkpt>
      <trkpt lat="44.38711" lon="6.83203">
        <ele>1904.3</ele>
      </trkpt>
      <trkpt lat="44.38698" lon="6.83193">
        <ele>1904.6</ele>
      </trkpt>
      <trkpt lat="44.38668" lon="6.83147">
        <ele>1909.3</ele>
      </trkpt>
      <trkpt lat="44.38657" lon="6.83138">
        <ele>1911.2</ele>
      </trkpt>
      <trkpt lat="44.38644" lon="6.83129">
        <ele>1913.1</ele>
      </trkpt>
      <trkpt lat="44.38636" lon="6.83127">
        <ele>1913.4</ele>
      </trkpt>
      <trkpt lat="44.38619" lon="6.83126">
        <ele>1913</ele>
      </trkpt>
      <trkpt lat="44.38598" lon="6.83123">
        <ele>1913.1</ele>
      </trkpt>
      <trkpt lat="44.38569" lon="6.83124">
        <ele>1911.3</ele>
      </trkpt>
      <trkpt lat="44.38539" lon="6.83121">
        <ele>1909.8</ele>
      </trkpt>
      <trkpt lat="44.38507" lon="6.83111">
        <ele>1909</ele>
      </trkpt>
      <trkpt lat="44.38487" lon="6.83099">
        <ele>1909.5</ele>
      </trkpt>
      <trkpt lat="44.38479" lon="6.83097">
        <ele>1909.5</ele>
      </trkpt>
      <trkpt lat="44.38471" lon="6.831">
        <ele>1908.9</ele>
      </trkpt>
      <trkpt lat="44.3846" lon="6.831">
        <ele>1908.6</ele>
      </trkpt>
      <trkpt lat="44.38444" lon="6.83088">
        <ele>1909.4</ele>
      </trkpt>
      <trkpt lat="44.38427" lon="6.8308">
        <ele>1910.7</ele>
      </trkpt>
      <trkpt lat="44.38416" lon="6.83079">
        <ele>1910.7</ele>
      </trkpt>
      <trkpt lat="44.38393" lon="6.83082">
        <ele>1910.3</ele>
      </trkpt>
      <trkpt lat="44.38369" lon="6.8309">
        <ele>1909.9</ele>
      </trkpt>
      <trkpt lat="44.3835" lon="6.83093">
        <ele>1910.2</ele>
      </trkpt>
      <trkpt lat="44.38336" lon="6.83097">
        <ele>1910.1</ele>
      </trkpt>
      <trkpt lat="44.38323" lon="6.83104">
        <ele>1909.5</ele>
      </trkpt>
      <trkpt lat="44.38306" lon="6.83105">
        <ele>1909.8</ele>
      </trkpt>
      <trkpt lat="44.3828" lon="6.83116">
        <ele>1908.6</ele>
      </trkpt>
      <trkpt lat="44.38253" lon="6.83111">
        <ele>1910</ele>
      </trkpt>
      <trkpt lat="44.38241" lon="6.83116">
        <ele>1909.1</ele>
      </trkpt>
      <trkpt lat="44.38231" lon="6.83124">
        <ele>1907.7</ele>
      </trkpt>
      <trkpt lat="44.3821" lon="6.83126">
        <ele>1907.3</ele>
      </trkpt>
      <trkpt lat="44.38194" lon="6.83143">
        <ele>1904.3</ele>
      </trkpt>
      <trkpt lat="44.38182" lon="6.83145">
        <ele>1903.9</ele>
      </trkpt>
      <trkpt lat="44.38163" lon="6.8314">
        <ele>1904.9</ele>
      </trkpt>
      <trkpt lat="44.38139" lon="6.8314">
        <ele>1905.2</ele>
      </trkpt>
      <trkpt lat="44.3812" lon="6.83136">
        <ele>1906.3</ele>
      </trkpt>
      <trkpt lat="44.38106" lon="6.83122">
        <ele>1909.2</ele>
      </trkpt>
      <trkpt lat="44.38094" lon="6.83122">
        <ele>1909.4</ele>
      </trkpt>
      <trkpt lat="44.38078" lon="6.83129">
        <ele>1908.9</ele>
      </trkpt>
      <trkpt lat="44.38066" lon="6.8313">
        <ele>1910</ele>
      </trkpt>
      <trkpt lat="44.38045" lon="6.83139">
        <ele>1910.4</ele>
      </trkpt>
      <trkpt lat="44.38014" lon="6.8313">
        <ele>1916.1</ele>
      </trkpt>
      <trkpt lat="44.37938" lon="6.8312">
        <ele>1921.2</ele>
      </trkpt>
      <trkpt lat="44.37919" lon="6.83114">
        <ele>1922.7</ele>
      </trkpt>
      <trkpt lat="44.3791" lon="6.83103">
        <ele>1924.7</ele>
      </trkpt>
      <trkpt lat="44.37868" lon="6.83087">
        <ele>1925.5</ele>
      </trkpt>
      <trkpt lat="44.37815" lon="6.83074">
        <ele>1927.9</ele>
      </trkpt>
      <trkpt lat="44.37787" lon="6.8306">
        <ele>1933.3</ele>
      </trkpt>
      <trkpt lat="44.37763" lon="6.83055">
        <ele>1935.1</ele>
      </trkpt>
      <trkpt lat="44.37738" lon="6.83053">
        <ele>1936.6</ele>
      </trkpt>
      <trkpt lat="44.37711" lon="6.8304">
        <ele>1940.8</ele>
      </trkpt>
      <trkpt lat="44.37691" lon="6.83026">
        <ele>1942.8</ele>
      </trkpt>
      <trkpt lat="44.37673" lon="6.82994">
        <ele>1945.9</ele>
      </trkpt>
      <trkpt lat="44.37645" lon="6.82968">
        <ele>1952.1</ele>
      </trkpt>
      <trkpt lat="44.376" lon="6.82938">
        <ele>1953.1</ele>
      </trkpt>
      <trkpt lat="44.3755" lon="6.82899">
        <ele>1954.4</ele>
      </trkpt>
      <trkpt lat="44.37525" lon="6.82847">
        <ele>1961.7</ele>
      </trkpt>
      <trkpt lat="44.3751" lon="6.82831">
        <ele>1962.5</ele>
      </trkpt>
      <trkpt lat="44.37484" lon="6.8281">
        <ele>1967.7</ele>
      </trkpt>
      <trkpt lat="44.37438" lon="6.82778">
        <ele>1972.4</ele>
      </trkpt>
      <trkpt lat="44.37413" lon="6.82766">
        <ele>1972.1</ele>
      </trkpt>
      <trkpt lat="44.3739" lon="6.82759">
        <ele>1974.1</ele>
      </trkpt>
      <trkpt lat="44.37361" lon="6.82756">
        <ele>1975.2</ele>
      </trkpt>
      <trkpt lat="44.37339" lon="6.82756">
        <ele>1975.7</ele>
      </trkpt>
      <trkpt lat="44.37288" lon="6.8275">
        <ele>1978.2</ele>
      </trkpt>
      <trkpt lat="44.37265" lon="6.82738">
        <ele>1982.9</ele>
      </trkpt>
      <trkpt lat="44.37247" lon="6.82741">
        <ele>1983.2</ele>
      </trkpt>
      <trkpt lat="44.37236" lon="6.82748">
        <ele>1982.6</ele>
      </trkpt>
    </trkseg>
  </trk>
</gpx>